<?xml version="1.0" encoding="UTF-8" standalone="no" ?>
<gpx xmlns="http://www.topografix.com/GPX/1/1" xmlns:xsi="http://www.w3.org/2001/XMLSchema-instance" xsi:schemaLocation="http://www.topografix.com/GPX/1/1 http://www.topografix.com/GPX/1/1/gpx.xsd" version="1.1" creator="VisuGPX - https://www.visugpx.com">
  <metadata>
    <name>Grattepanche</name>
  </metadata>
  <trk>
    <name><![CDATA[Grattepanche_1]]></name>
    <trkseg>
      <trkpt lat="49.785" lon="2.29106">
        <ele>118.5</ele>
        <time>2023-02-01T12:59:30Z</time>
      </trkpt>
      <trkpt lat="49.78497" lon="2.29093">
        <ele>118.4</ele>
        <time>2023-02-01T12:59:33Z</time>
      </trkpt>
      <trkpt lat="49.78502" lon="2.29094">
        <ele>118.4</ele>
        <time>2023-02-01T12:59:34Z</time>
      </trkpt>
      <trkpt lat="49.78496" lon="2.29095">
        <ele>118.3</ele>
        <time>2023-02-01T12:59:36Z</time>
      </trkpt>
      <trkpt lat="49.7849" lon="2.29096">
        <ele>118.3</ele>
        <time>2023-02-01T12:59:37Z</time>
      </trkpt>
      <trkpt lat="49.78487" lon="2.29096">
        <ele>118.3</ele>
        <time>2023-02-01T12:59:38Z</time>
      </trkpt>
      <trkpt lat="49.78487" lon="2.29096">
        <ele>118.3</ele>
        <time>2023-02-01T12:59:39Z</time>
      </trkpt>
      <trkpt lat="49.78487" lon="2.29096">
        <ele>118.3</ele>
        <time>2023-02-01T12:59:40Z</time>
      </trkpt>
      <trkpt lat="49.78487" lon="2.29096">
        <ele>118.3</ele>
        <time>2023-02-01T12:59:41Z</time>
      </trkpt>
      <trkpt lat="49.78487" lon="2.29096">
        <ele>118.3</ele>
        <time>2023-02-01T12:59:42Z</time>
      </trkpt>
      <trkpt lat="49.78487" lon="2.29096">
        <ele>118.3</ele>
        <time>2023-02-01T12:59:43Z</time>
      </trkpt>
      <trkpt lat="49.78487" lon="2.29096">
        <ele>118.3</ele>
        <time>2023-02-01T12:59:44Z</time>
      </trkpt>
      <trkpt lat="49.78487" lon="2.29096">
        <ele>118.3</ele>
        <time>2023-02-01T12:59:45Z</time>
      </trkpt>
      <trkpt lat="49.78487" lon="2.29096">
        <ele>118.3</ele>
        <time>2023-02-01T12:59:46Z</time>
      </trkpt>
      <trkpt lat="49.78487" lon="2.29096">
        <ele>118.3</ele>
        <time>2023-02-01T12:59:47Z</time>
      </trkpt>
      <trkpt lat="49.78487" lon="2.29096">
        <ele>118.2</ele>
        <time>2023-02-01T12:59:48Z</time>
      </trkpt>
      <trkpt lat="49.78487" lon="2.29096">
        <ele>118.2</ele>
        <time>2023-02-01T12:59:49Z</time>
      </trkpt>
      <trkpt lat="49.78487" lon="2.29096">
        <ele>118.2</ele>
        <time>2023-02-01T12:59:50Z</time>
      </trkpt>
      <trkpt lat="49.78487" lon="2.29096">
        <ele>118.2</ele>
        <time>2023-02-01T12:59:51Z</time>
      </trkpt>
      <trkpt lat="49.78487" lon="2.29096">
        <ele>118.2</ele>
        <time>2023-02-01T12:59:52Z</time>
      </trkpt>
      <trkpt lat="49.78487" lon="2.29096">
        <ele>118.2</ele>
        <time>2023-02-01T12:59:53Z</time>
      </trkpt>
      <trkpt lat="49.78487" lon="2.29096">
        <ele>118.2</ele>
        <time>2023-02-01T12:59:54Z</time>
      </trkpt>
      <trkpt lat="49.78487" lon="2.29096">
        <ele>118.2</ele>
        <time>2023-02-01T12:59:55Z</time>
      </trkpt>
      <trkpt lat="49.78487" lon="2.29096">
        <ele>118.2</ele>
        <time>2023-02-01T12:59:56Z</time>
      </trkpt>
      <trkpt lat="49.78487" lon="2.29096">
        <ele>118.2</ele>
        <time>2023-02-01T12:59:57Z</time>
      </trkpt>
      <trkpt lat="49.78487" lon="2.29096">
        <ele>118.2</ele>
        <time>2023-02-01T12:59:58Z</time>
      </trkpt>
      <trkpt lat="49.78487" lon="2.29096">
        <ele>118.2</ele>
        <time>2023-02-01T12:59:59Z</time>
      </trkpt>
      <trkpt lat="49.78487" lon="2.29096">
        <ele>118.2</ele>
        <time>2023-02-01T13:00:00Z</time>
      </trkpt>
      <trkpt lat="49.78487" lon="2.29096">
        <ele>118.2</ele>
        <time>2023-02-01T13:00:01Z</time>
      </trkpt>
      <trkpt lat="49.78486" lon="2.29096">
        <ele>118.2</ele>
        <time>2023-02-01T13:00:02Z</time>
      </trkpt>
      <trkpt lat="49.78486" lon="2.29096">
        <ele>118.2</ele>
        <time>2023-02-01T13:00:03Z</time>
      </trkpt>
      <trkpt lat="49.78486" lon="2.29097">
        <ele>118.2</ele>
        <time>2023-02-01T13:00:04Z</time>
      </trkpt>
      <trkpt lat="49.78486" lon="2.29097">
        <ele>118.2</ele>
        <time>2023-02-01T13:00:05Z</time>
      </trkpt>
      <trkpt lat="49.78486" lon="2.29097">
        <ele>118.2</ele>
        <time>2023-02-01T13:00:06Z</time>
      </trkpt>
      <trkpt lat="49.78486" lon="2.29097">
        <ele>118.2</ele>
        <time>2023-02-01T13:00:07Z</time>
      </trkpt>
      <trkpt lat="49.78486" lon="2.29097">
        <ele>118.2</ele>
        <time>2023-02-01T13:00:08Z</time>
      </trkpt>
      <trkpt lat="49.78486" lon="2.29097">
        <ele>118.2</ele>
        <time>2023-02-01T13:00:09Z</time>
      </trkpt>
      <trkpt lat="49.78486" lon="2.29097">
        <ele>118.2</ele>
        <time>2023-02-01T13:00:10Z</time>
      </trkpt>
      <trkpt lat="49.78486" lon="2.29097">
        <ele>118.2</ele>
        <time>2023-02-01T13:00:11Z</time>
      </trkpt>
      <trkpt lat="49.78486" lon="2.29097">
        <ele>118.2</ele>
        <time>2023-02-01T13:00:12Z</time>
      </trkpt>
      <trkpt lat="49.78486" lon="2.29097">
        <ele>118.2</ele>
        <time>2023-02-01T13:00:13Z</time>
      </trkpt>
      <trkpt lat="49.78486" lon="2.29097">
        <ele>118.2</ele>
        <time>2023-02-01T13:00:14Z</time>
      </trkpt>
      <trkpt lat="49.78486" lon="2.29097">
        <ele>118.2</ele>
        <time>2023-02-01T13:00:15Z</time>
      </trkpt>
      <trkpt lat="49.78486" lon="2.29097">
        <ele>118.2</ele>
        <time>2023-02-01T13:00:16Z</time>
      </trkpt>
      <trkpt lat="49.78486" lon="2.29097">
        <ele>118.2</ele>
        <time>2023-02-01T13:00:17Z</time>
      </trkpt>
      <trkpt lat="49.78486" lon="2.29097">
        <ele>118.2</ele>
        <time>2023-02-01T13:00:18Z</time>
      </trkpt>
      <trkpt lat="49.78486" lon="2.29097">
        <ele>118.2</ele>
        <time>2023-02-01T13:00:19Z</time>
      </trkpt>
      <trkpt lat="49.78486" lon="2.29097">
        <ele>118.2</ele>
        <time>2023-02-01T13:00:20Z</time>
      </trkpt>
      <trkpt lat="49.78486" lon="2.29097">
        <ele>118.2</ele>
        <time>2023-02-01T13:00:21Z</time>
      </trkpt>
      <trkpt lat="49.78486" lon="2.29097">
        <ele>118.2</ele>
        <time>2023-02-01T13:00:22Z</time>
      </trkpt>
      <trkpt lat="49.78486" lon="2.29097">
        <ele>118.2</ele>
        <time>2023-02-01T13:00:23Z</time>
      </trkpt>
      <trkpt lat="49.78486" lon="2.29097">
        <ele>118.2</ele>
        <time>2023-02-01T13:00:24Z</time>
      </trkpt>
      <trkpt lat="49.78486" lon="2.29097">
        <ele>118.2</ele>
        <time>2023-02-01T13:00:25Z</time>
      </trkpt>
      <trkpt lat="49.78486" lon="2.29097">
        <ele>118.2</ele>
        <time>2023-02-01T13:00:26Z</time>
      </trkpt>
      <trkpt lat="49.78486" lon="2.29097">
        <ele>118.2</ele>
        <time>2023-02-01T13:00:27Z</time>
      </trkpt>
      <trkpt lat="49.78486" lon="2.29097">
        <ele>118.2</ele>
        <time>2023-02-01T13:00:28Z</time>
      </trkpt>
      <trkpt lat="49.78486" lon="2.29097">
        <ele>118.2</ele>
        <time>2023-02-01T13:00:29Z</time>
      </trkpt>
      <trkpt lat="49.78486" lon="2.29097">
        <ele>118.2</ele>
        <time>2023-02-01T13:00:30Z</time>
      </trkpt>
      <trkpt lat="49.78486" lon="2.29097">
        <ele>118.2</ele>
        <time>2023-02-01T13:00:31Z</time>
      </trkpt>
      <trkpt lat="49.78486" lon="2.29097">
        <ele>118.2</ele>
        <time>2023-02-01T13:00:32Z</time>
      </trkpt>
      <trkpt lat="49.78486" lon="2.29097">
        <ele>118.2</ele>
        <time>2023-02-01T13:00:33Z</time>
      </trkpt>
      <trkpt lat="49.78486" lon="2.29097">
        <ele>118.2</ele>
        <time>2023-02-01T13:00:34Z</time>
      </trkpt>
      <trkpt lat="49.78486" lon="2.29097">
        <ele>118.2</ele>
        <time>2023-02-01T13:00:35Z</time>
      </trkpt>
      <trkpt lat="49.78486" lon="2.29097">
        <ele>118.2</ele>
        <time>2023-02-01T13:00:36Z</time>
      </trkpt>
      <trkpt lat="49.78485" lon="2.29097">
        <ele>118.2</ele>
        <time>2023-02-01T13:00:37Z</time>
      </trkpt>
      <trkpt lat="49.78485" lon="2.29097">
        <ele>118.2</ele>
        <time>2023-02-01T13:00:38Z</time>
      </trkpt>
      <trkpt lat="49.78485" lon="2.29097">
        <ele>118.2</ele>
        <time>2023-02-01T13:00:39Z</time>
      </trkpt>
      <trkpt lat="49.78485" lon="2.29097">
        <ele>118.2</ele>
        <time>2023-02-01T13:00:40Z</time>
      </trkpt>
      <trkpt lat="49.78485" lon="2.29097">
        <ele>118.2</ele>
        <time>2023-02-01T13:00:41Z</time>
      </trkpt>
      <trkpt lat="49.78485" lon="2.29098">
        <ele>118.2</ele>
        <time>2023-02-01T13:00:42Z</time>
      </trkpt>
      <trkpt lat="49.78485" lon="2.29098">
        <ele>118.2</ele>
        <time>2023-02-01T13:00:43Z</time>
      </trkpt>
      <trkpt lat="49.78485" lon="2.29098">
        <ele>118.2</ele>
        <time>2023-02-01T13:00:44Z</time>
      </trkpt>
      <trkpt lat="49.78485" lon="2.29098">
        <ele>118.2</ele>
        <time>2023-02-01T13:00:45Z</time>
      </trkpt>
      <trkpt lat="49.78485" lon="2.29098">
        <ele>118.2</ele>
        <time>2023-02-01T13:00:46Z</time>
      </trkpt>
      <trkpt lat="49.78485" lon="2.29098">
        <ele>118.2</ele>
        <time>2023-02-01T13:00:47Z</time>
      </trkpt>
      <trkpt lat="49.78485" lon="2.29098">
        <ele>118.2</ele>
        <time>2023-02-01T13:00:48Z</time>
      </trkpt>
      <trkpt lat="49.78485" lon="2.29098">
        <ele>118.2</ele>
        <time>2023-02-01T13:00:49Z</time>
      </trkpt>
      <trkpt lat="49.78485" lon="2.29098">
        <ele>118.2</ele>
        <time>2023-02-01T13:00:50Z</time>
      </trkpt>
      <trkpt lat="49.78485" lon="2.29098">
        <ele>118.2</ele>
        <time>2023-02-01T13:00:51Z</time>
      </trkpt>
      <trkpt lat="49.78485" lon="2.29098">
        <ele>118.2</ele>
        <time>2023-02-01T13:00:52Z</time>
      </trkpt>
      <trkpt lat="49.78485" lon="2.29098">
        <ele>118.2</ele>
        <time>2023-02-01T13:00:53Z</time>
      </trkpt>
      <trkpt lat="49.78485" lon="2.29098">
        <ele>118.2</ele>
        <time>2023-02-01T13:00:54Z</time>
      </trkpt>
      <trkpt lat="49.78485" lon="2.29098">
        <ele>118.2</ele>
        <time>2023-02-01T13:00:55Z</time>
      </trkpt>
      <trkpt lat="49.78485" lon="2.29098">
        <ele>118.2</ele>
        <time>2023-02-01T13:00:56Z</time>
      </trkpt>
      <trkpt lat="49.78485" lon="2.29098">
        <ele>118.2</ele>
        <time>2023-02-01T13:00:57Z</time>
      </trkpt>
      <trkpt lat="49.78485" lon="2.29098">
        <ele>118.2</ele>
        <time>2023-02-01T13:00:58Z</time>
      </trkpt>
      <trkpt lat="49.78485" lon="2.29098">
        <ele>118.2</ele>
        <time>2023-02-01T13:00:59Z</time>
      </trkpt>
      <trkpt lat="49.78485" lon="2.29098">
        <ele>118.2</ele>
        <time>2023-02-01T13:01:00Z</time>
      </trkpt>
      <trkpt lat="49.78485" lon="2.29098">
        <ele>118.2</ele>
        <time>2023-02-01T13:01:01Z</time>
      </trkpt>
      <trkpt lat="49.78485" lon="2.29098">
        <ele>118.2</ele>
        <time>2023-02-01T13:01:02Z</time>
      </trkpt>
      <trkpt lat="49.78485" lon="2.29098">
        <ele>118.2</ele>
        <time>2023-02-01T13:01:03Z</time>
      </trkpt>
      <trkpt lat="49.78485" lon="2.29098">
        <ele>118.2</ele>
        <time>2023-02-01T13:01:04Z</time>
      </trkpt>
      <trkpt lat="49.78485" lon="2.29098">
        <ele>118.2</ele>
        <time>2023-02-01T13:01:05Z</time>
      </trkpt>
      <trkpt lat="49.78485" lon="2.29098">
        <ele>118.2</ele>
        <time>2023-02-01T13:01:06Z</time>
      </trkpt>
      <trkpt lat="49.78485" lon="2.29098">
        <ele>118.2</ele>
        <time>2023-02-01T13:01:07Z</time>
      </trkpt>
      <trkpt lat="49.78485" lon="2.29098">
        <ele>118.2</ele>
        <time>2023-02-01T13:01:08Z</time>
      </trkpt>
      <trkpt lat="49.78485" lon="2.29098">
        <ele>118.2</ele>
        <time>2023-02-01T13:01:09Z</time>
      </trkpt>
      <trkpt lat="49.78485" lon="2.29098">
        <ele>118.2</ele>
        <time>2023-02-01T13:01:10Z</time>
      </trkpt>
      <trkpt lat="49.78485" lon="2.29098">
        <ele>118.2</ele>
        <time>2023-02-01T13:01:11Z</time>
      </trkpt>
      <trkpt lat="49.78484" lon="2.29098">
        <ele>118.2</ele>
        <time>2023-02-01T13:01:12Z</time>
      </trkpt>
      <trkpt lat="49.78484" lon="2.29098">
        <ele>118.2</ele>
        <time>2023-02-01T13:01:13Z</time>
      </trkpt>
      <trkpt lat="49.78484" lon="2.29098">
        <ele>118.2</ele>
        <time>2023-02-01T13:01:14Z</time>
      </trkpt>
      <trkpt lat="49.78484" lon="2.29098">
        <ele>118.2</ele>
        <time>2023-02-01T13:01:15Z</time>
      </trkpt>
      <trkpt lat="49.78484" lon="2.29098">
        <ele>118.2</ele>
        <time>2023-02-01T13:01:16Z</time>
      </trkpt>
      <trkpt lat="49.78484" lon="2.29098">
        <ele>118.2</ele>
        <time>2023-02-01T13:01:17Z</time>
      </trkpt>
      <trkpt lat="49.78484" lon="2.29098">
        <ele>118.2</ele>
        <time>2023-02-01T13:01:18Z</time>
      </trkpt>
      <trkpt lat="49.78484" lon="2.29098">
        <ele>118.2</ele>
        <time>2023-02-01T13:01:19Z</time>
      </trkpt>
      <trkpt lat="49.78484" lon="2.29099">
        <ele>118.2</ele>
        <time>2023-02-01T13:01:20Z</time>
      </trkpt>
      <trkpt lat="49.78484" lon="2.29099">
        <ele>118.2</ele>
        <time>2023-02-01T13:01:21Z</time>
      </trkpt>
      <trkpt lat="49.78484" lon="2.29099">
        <ele>118.2</ele>
        <time>2023-02-01T13:01:22Z</time>
      </trkpt>
      <trkpt lat="49.78484" lon="2.29099">
        <ele>118.2</ele>
        <time>2023-02-01T13:01:23Z</time>
      </trkpt>
      <trkpt lat="49.78484" lon="2.29099">
        <ele>118.2</ele>
        <time>2023-02-01T13:01:24Z</time>
      </trkpt>
      <trkpt lat="49.78484" lon="2.29099">
        <ele>118.2</ele>
        <time>2023-02-01T13:01:25Z</time>
      </trkpt>
      <trkpt lat="49.78484" lon="2.29099">
        <ele>118.2</ele>
        <time>2023-02-01T13:01:26Z</time>
      </trkpt>
      <trkpt lat="49.78484" lon="2.29099">
        <ele>118.2</ele>
        <time>2023-02-01T13:01:27Z</time>
      </trkpt>
      <trkpt lat="49.78484" lon="2.29099">
        <ele>118.2</ele>
        <time>2023-02-01T13:01:28Z</time>
      </trkpt>
      <trkpt lat="49.78484" lon="2.29099">
        <ele>118.2</ele>
        <time>2023-02-01T13:01:29Z</time>
      </trkpt>
      <trkpt lat="49.78484" lon="2.29099">
        <ele>118.2</ele>
        <time>2023-02-01T13:01:30Z</time>
      </trkpt>
      <trkpt lat="49.78484" lon="2.29099">
        <ele>118.2</ele>
        <time>2023-02-01T13:01:31Z</time>
      </trkpt>
      <trkpt lat="49.78484" lon="2.29099">
        <ele>118.2</ele>
        <time>2023-02-01T13:01:32Z</time>
      </trkpt>
      <trkpt lat="49.78484" lon="2.29099">
        <ele>118.2</ele>
        <time>2023-02-01T13:01:33Z</time>
      </trkpt>
      <trkpt lat="49.78484" lon="2.29099">
        <ele>118.2</ele>
        <time>2023-02-01T13:01:34Z</time>
      </trkpt>
      <trkpt lat="49.78484" lon="2.29099">
        <ele>118.2</ele>
        <time>2023-02-01T13:01:35Z</time>
      </trkpt>
      <trkpt lat="49.78484" lon="2.29099">
        <ele>118.2</ele>
        <time>2023-02-01T13:01:36Z</time>
      </trkpt>
      <trkpt lat="49.78484" lon="2.29099">
        <ele>118.2</ele>
        <time>2023-02-01T13:01:37Z</time>
      </trkpt>
      <trkpt lat="49.78484" lon="2.29099">
        <ele>118.2</ele>
        <time>2023-02-01T13:01:38Z</time>
      </trkpt>
      <trkpt lat="49.78484" lon="2.29099">
        <ele>118.2</ele>
        <time>2023-02-01T13:01:39Z</time>
      </trkpt>
      <trkpt lat="49.78484" lon="2.29099">
        <ele>118.2</ele>
        <time>2023-02-01T13:01:40Z</time>
      </trkpt>
      <trkpt lat="49.78484" lon="2.29099">
        <ele>118.2</ele>
        <time>2023-02-01T13:01:41Z</time>
      </trkpt>
      <trkpt lat="49.78484" lon="2.29099">
        <ele>118.2</ele>
        <time>2023-02-01T13:01:42Z</time>
      </trkpt>
      <trkpt lat="49.78484" lon="2.29099">
        <ele>118.2</ele>
        <time>2023-02-01T13:01:43Z</time>
      </trkpt>
      <trkpt lat="49.78484" lon="2.29099">
        <ele>118.2</ele>
        <time>2023-02-01T13:01:44Z</time>
      </trkpt>
      <trkpt lat="49.78484" lon="2.29099">
        <ele>118.2</ele>
        <time>2023-02-01T13:01:45Z</time>
      </trkpt>
      <trkpt lat="49.78484" lon="2.29099">
        <ele>118.2</ele>
        <time>2023-02-01T13:01:46Z</time>
      </trkpt>
      <trkpt lat="49.78483" lon="2.29099">
        <ele>118.2</ele>
        <time>2023-02-01T13:01:47Z</time>
      </trkpt>
      <trkpt lat="49.78483" lon="2.29099">
        <ele>118.2</ele>
        <time>2023-02-01T13:01:48Z</time>
      </trkpt>
      <trkpt lat="49.78483" lon="2.29099">
        <ele>118.2</ele>
        <time>2023-02-01T13:01:49Z</time>
      </trkpt>
      <trkpt lat="49.78483" lon="2.29099">
        <ele>118.2</ele>
        <time>2023-02-01T13:01:50Z</time>
      </trkpt>
      <trkpt lat="49.78483" lon="2.29099">
        <ele>118.2</ele>
        <time>2023-02-01T13:01:51Z</time>
      </trkpt>
      <trkpt lat="49.78483" lon="2.29099">
        <ele>118.2</ele>
        <time>2023-02-01T13:01:52Z</time>
      </trkpt>
      <trkpt lat="49.78483" lon="2.29099">
        <ele>118.2</ele>
        <time>2023-02-01T13:01:53Z</time>
      </trkpt>
      <trkpt lat="49.78481" lon="2.29101">
        <ele>118.2</ele>
        <time>2023-02-01T13:01:54Z</time>
      </trkpt>
      <trkpt lat="49.78478" lon="2.29103">
        <ele>118.2</ele>
        <time>2023-02-01T13:01:55Z</time>
      </trkpt>
      <trkpt lat="49.78477" lon="2.29104">
        <ele>118.1</ele>
        <time>2023-02-01T13:01:56Z</time>
      </trkpt>
      <trkpt lat="49.78475" lon="2.29105">
        <ele>118.1</ele>
        <time>2023-02-01T13:01:57Z</time>
      </trkpt>
      <trkpt lat="49.78475" lon="2.29103">
        <ele>118.1</ele>
        <time>2023-02-01T13:01:58Z</time>
      </trkpt>
      <trkpt lat="49.78474" lon="2.29103">
        <ele>118.1</ele>
        <time>2023-02-01T13:01:59Z</time>
      </trkpt>
      <trkpt lat="49.78472" lon="2.29102">
        <ele>118.1</ele>
        <time>2023-02-01T13:02:00Z</time>
      </trkpt>
      <trkpt lat="49.78471" lon="2.29101">
        <ele>118.1</ele>
        <time>2023-02-01T13:02:02Z</time>
      </trkpt>
      <trkpt lat="49.7847" lon="2.29101">
        <ele>118.1</ele>
        <time>2023-02-01T13:02:03Z</time>
      </trkpt>
      <trkpt lat="49.7847" lon="2.291">
        <ele>118</ele>
        <time>2023-02-01T13:02:04Z</time>
      </trkpt>
      <trkpt lat="49.78469" lon="2.291">
        <ele>118</ele>
        <time>2023-02-01T13:02:05Z</time>
      </trkpt>
      <trkpt lat="49.78468" lon="2.29099">
        <ele>118</ele>
        <time>2023-02-01T13:02:06Z</time>
      </trkpt>
      <trkpt lat="49.78467" lon="2.29098">
        <ele>118</ele>
        <time>2023-02-01T13:02:07Z</time>
      </trkpt>
      <trkpt lat="49.78467" lon="2.29097">
        <ele>118</ele>
        <time>2023-02-01T13:02:09Z</time>
      </trkpt>
      <trkpt lat="49.78466" lon="2.29095">
        <ele>118</ele>
        <time>2023-02-01T13:02:10Z</time>
      </trkpt>
      <trkpt lat="49.78465" lon="2.29094">
        <ele>118</ele>
        <time>2023-02-01T13:02:11Z</time>
      </trkpt>
      <trkpt lat="49.78464" lon="2.29093">
        <ele>118</ele>
        <time>2023-02-01T13:02:12Z</time>
      </trkpt>
      <trkpt lat="49.78464" lon="2.29091">
        <ele>118</ele>
        <time>2023-02-01T13:02:13Z</time>
      </trkpt>
      <trkpt lat="49.78463" lon="2.2909">
        <ele>118</ele>
        <time>2023-02-01T13:02:14Z</time>
      </trkpt>
      <trkpt lat="49.78463" lon="2.29087">
        <ele>118</ele>
        <time>2023-02-01T13:02:16Z</time>
      </trkpt>
      <trkpt lat="49.78462" lon="2.29086">
        <ele>118</ele>
        <time>2023-02-01T13:02:17Z</time>
      </trkpt>
      <trkpt lat="49.78462" lon="2.29085">
        <ele>118</ele>
        <time>2023-02-01T13:02:18Z</time>
      </trkpt>
      <trkpt lat="49.78461" lon="2.29083">
        <ele>118</ele>
        <time>2023-02-01T13:02:19Z</time>
      </trkpt>
      <trkpt lat="49.78461" lon="2.29082">
        <ele>118</ele>
        <time>2023-02-01T13:02:20Z</time>
      </trkpt>
      <trkpt lat="49.7846" lon="2.29081">
        <ele>118</ele>
        <time>2023-02-01T13:02:21Z</time>
      </trkpt>
      <trkpt lat="49.7846" lon="2.2908">
        <ele>118</ele>
        <time>2023-02-01T13:02:23Z</time>
      </trkpt>
      <trkpt lat="49.78459" lon="2.29079">
        <ele>118</ele>
        <time>2023-02-01T13:02:24Z</time>
      </trkpt>
      <trkpt lat="49.78458" lon="2.29077">
        <ele>118</ele>
        <time>2023-02-01T13:02:25Z</time>
      </trkpt>
      <trkpt lat="49.78458" lon="2.29076">
        <ele>118</ele>
        <time>2023-02-01T13:02:27Z</time>
      </trkpt>
      <trkpt lat="49.78458" lon="2.29076">
        <ele>118</ele>
        <time>2023-02-01T13:02:28Z</time>
      </trkpt>
      <trkpt lat="49.78457" lon="2.29075">
        <ele>118</ele>
        <time>2023-02-01T13:02:29Z</time>
      </trkpt>
      <trkpt lat="49.78456" lon="2.29073">
        <ele>118</ele>
        <time>2023-02-01T13:02:30Z</time>
      </trkpt>
      <trkpt lat="49.78455" lon="2.29071">
        <ele>117.9</ele>
        <time>2023-02-01T13:02:31Z</time>
      </trkpt>
      <trkpt lat="49.78454" lon="2.2907">
        <ele>117.9</ele>
        <time>2023-02-01T13:02:32Z</time>
      </trkpt>
      <trkpt lat="49.78453" lon="2.29068">
        <ele>117.9</ele>
        <time>2023-02-01T13:02:33Z</time>
      </trkpt>
      <trkpt lat="49.78452" lon="2.29066">
        <ele>117.9</ele>
        <time>2023-02-01T13:02:34Z</time>
      </trkpt>
      <trkpt lat="49.78451" lon="2.29064">
        <ele>117.9</ele>
        <time>2023-02-01T13:02:36Z</time>
      </trkpt>
      <trkpt lat="49.7845" lon="2.29061">
        <ele>117.9</ele>
        <time>2023-02-01T13:02:37Z</time>
      </trkpt>
      <trkpt lat="49.78449" lon="2.2906">
        <ele>117.9</ele>
        <time>2023-02-01T13:02:38Z</time>
      </trkpt>
      <trkpt lat="49.78449" lon="2.29059">
        <ele>117.9</ele>
        <time>2023-02-01T13:02:39Z</time>
      </trkpt>
      <trkpt lat="49.78448" lon="2.29058">
        <ele>117.9</ele>
        <time>2023-02-01T13:02:40Z</time>
      </trkpt>
      <trkpt lat="49.78447" lon="2.29056">
        <ele>117.9</ele>
        <time>2023-02-01T13:02:41Z</time>
      </trkpt>
      <trkpt lat="49.78445" lon="2.29053">
        <ele>117.8</ele>
        <time>2023-02-01T13:02:42Z</time>
      </trkpt>
      <trkpt lat="49.78445" lon="2.29052">
        <ele>117.8</ele>
        <time>2023-02-01T13:02:43Z</time>
      </trkpt>
      <trkpt lat="49.78444" lon="2.29051">
        <ele>117.8</ele>
        <time>2023-02-01T13:02:44Z</time>
      </trkpt>
      <trkpt lat="49.78443" lon="2.2905">
        <ele>117.8</ele>
        <time>2023-02-01T13:02:45Z</time>
      </trkpt>
      <trkpt lat="49.78442" lon="2.29049">
        <ele>117.8</ele>
        <time>2023-02-01T13:02:46Z</time>
      </trkpt>
      <trkpt lat="49.78441" lon="2.29047">
        <ele>117.8</ele>
        <time>2023-02-01T13:02:48Z</time>
      </trkpt>
      <trkpt lat="49.7844" lon="2.29046">
        <ele>117.8</ele>
        <time>2023-02-01T13:02:49Z</time>
      </trkpt>
      <trkpt lat="49.78439" lon="2.29044">
        <ele>117.8</ele>
        <time>2023-02-01T13:02:50Z</time>
      </trkpt>
      <trkpt lat="49.78438" lon="2.29043">
        <ele>117.8</ele>
        <time>2023-02-01T13:02:51Z</time>
      </trkpt>
      <trkpt lat="49.78437" lon="2.29042">
        <ele>117.8</ele>
        <time>2023-02-01T13:02:52Z</time>
      </trkpt>
      <trkpt lat="49.78436" lon="2.2904">
        <ele>117.7</ele>
        <time>2023-02-01T13:02:53Z</time>
      </trkpt>
      <trkpt lat="49.78435" lon="2.29039">
        <ele>117.7</ele>
        <time>2023-02-01T13:02:54Z</time>
      </trkpt>
      <trkpt lat="49.78434" lon="2.29037">
        <ele>117.7</ele>
        <time>2023-02-01T13:02:56Z</time>
      </trkpt>
      <trkpt lat="49.78433" lon="2.29037">
        <ele>117.7</ele>
        <time>2023-02-01T13:02:57Z</time>
      </trkpt>
      <trkpt lat="49.78432" lon="2.29036">
        <ele>117.7</ele>
        <time>2023-02-01T13:02:58Z</time>
      </trkpt>
      <trkpt lat="49.78431" lon="2.29035">
        <ele>117.7</ele>
        <time>2023-02-01T13:02:59Z</time>
      </trkpt>
      <trkpt lat="49.78429" lon="2.29033">
        <ele>117.7</ele>
        <time>2023-02-01T13:03:00Z</time>
      </trkpt>
      <trkpt lat="49.78428" lon="2.29032">
        <ele>117.7</ele>
        <time>2023-02-01T13:03:01Z</time>
      </trkpt>
      <trkpt lat="49.78428" lon="2.29032">
        <ele>117.7</ele>
        <time>2023-02-01T13:03:02Z</time>
      </trkpt>
      <trkpt lat="49.78426" lon="2.2903">
        <ele>117.7</ele>
        <time>2023-02-01T13:03:03Z</time>
      </trkpt>
      <trkpt lat="49.78425" lon="2.29029">
        <ele>117.6</ele>
        <time>2023-02-01T13:03:04Z</time>
      </trkpt>
      <trkpt lat="49.78424" lon="2.29028">
        <ele>117.6</ele>
        <time>2023-02-01T13:03:05Z</time>
      </trkpt>
      <trkpt lat="49.78423" lon="2.29027">
        <ele>117.6</ele>
        <time>2023-02-01T13:03:06Z</time>
      </trkpt>
      <trkpt lat="49.78421" lon="2.29025">
        <ele>117.6</ele>
        <time>2023-02-01T13:03:08Z</time>
      </trkpt>
      <trkpt lat="49.78421" lon="2.29024">
        <ele>117.6</ele>
        <time>2023-02-01T13:03:09Z</time>
      </trkpt>
      <trkpt lat="49.7842" lon="2.29023">
        <ele>117.6</ele>
        <time>2023-02-01T13:03:10Z</time>
      </trkpt>
      <trkpt lat="49.78418" lon="2.2902">
        <ele>117.6</ele>
        <time>2023-02-01T13:03:11Z</time>
      </trkpt>
      <trkpt lat="49.78418" lon="2.2902">
        <ele>117.6</ele>
        <time>2023-02-01T13:03:12Z</time>
      </trkpt>
      <trkpt lat="49.78417" lon="2.29019">
        <ele>117.6</ele>
        <time>2023-02-01T13:03:13Z</time>
      </trkpt>
      <trkpt lat="49.78416" lon="2.29018">
        <ele>117.6</ele>
        <time>2023-02-01T13:03:14Z</time>
      </trkpt>
      <trkpt lat="49.78414" lon="2.29018">
        <ele>117.5</ele>
        <time>2023-02-01T13:03:15Z</time>
      </trkpt>
      <trkpt lat="49.78412" lon="2.29019">
        <ele>117.5</ele>
        <time>2023-02-01T13:03:17Z</time>
      </trkpt>
      <trkpt lat="49.78411" lon="2.2902">
        <ele>117.1</ele>
        <time>2023-02-01T13:03:18Z</time>
      </trkpt>
      <trkpt lat="49.7841" lon="2.29022">
        <ele>116.9</ele>
        <time>2023-02-01T13:03:19Z</time>
      </trkpt>
      <trkpt lat="49.78409" lon="2.29023">
        <ele>116.9</ele>
        <time>2023-02-01T13:03:20Z</time>
      </trkpt>
      <trkpt lat="49.78408" lon="2.29024">
        <ele>116.8</ele>
        <time>2023-02-01T13:03:21Z</time>
      </trkpt>
      <trkpt lat="49.78407" lon="2.29027">
        <ele>116.7</ele>
        <time>2023-02-01T13:03:22Z</time>
      </trkpt>
      <trkpt lat="49.78407" lon="2.29028">
        <ele>116.6</ele>
        <time>2023-02-01T13:03:23Z</time>
      </trkpt>
      <trkpt lat="49.78406" lon="2.29029">
        <ele>116.5</ele>
        <time>2023-02-01T13:03:24Z</time>
      </trkpt>
      <trkpt lat="49.78406" lon="2.29031">
        <ele>116.4</ele>
        <time>2023-02-01T13:03:25Z</time>
      </trkpt>
      <trkpt lat="49.78405" lon="2.29033">
        <ele>116.4</ele>
        <time>2023-02-01T13:03:26Z</time>
      </trkpt>
      <trkpt lat="49.78403" lon="2.29036">
        <ele>116.3</ele>
        <time>2023-02-01T13:03:28Z</time>
      </trkpt>
      <trkpt lat="49.78403" lon="2.29036">
        <ele>116.2</ele>
        <time>2023-02-01T13:03:29Z</time>
      </trkpt>
      <trkpt lat="49.78402" lon="2.29037">
        <ele>116.2</ele>
        <time>2023-02-01T13:03:30Z</time>
      </trkpt>
      <trkpt lat="49.78401" lon="2.29039">
        <ele>116.1</ele>
        <time>2023-02-01T13:03:31Z</time>
      </trkpt>
      <trkpt lat="49.78401" lon="2.2904">
        <ele>116</ele>
        <time>2023-02-01T13:03:32Z</time>
      </trkpt>
      <trkpt lat="49.784" lon="2.29041">
        <ele>116</ele>
        <time>2023-02-01T13:03:33Z</time>
      </trkpt>
      <trkpt lat="49.78398" lon="2.29043">
        <ele>115.8</ele>
        <time>2023-02-01T13:03:34Z</time>
      </trkpt>
      <trkpt lat="49.78398" lon="2.29044">
        <ele>115.8</ele>
        <time>2023-02-01T13:03:35Z</time>
      </trkpt>
      <trkpt lat="49.78397" lon="2.29045">
        <ele>115.7</ele>
        <time>2023-02-01T13:03:36Z</time>
      </trkpt>
      <trkpt lat="49.78396" lon="2.29046">
        <ele>115.7</ele>
        <time>2023-02-01T13:03:38Z</time>
      </trkpt>
      <trkpt lat="49.78395" lon="2.29047">
        <ele>115.6</ele>
        <time>2023-02-01T13:03:39Z</time>
      </trkpt>
      <trkpt lat="49.78394" lon="2.29048">
        <ele>115.6</ele>
        <time>2023-02-01T13:03:40Z</time>
      </trkpt>
      <trkpt lat="49.78393" lon="2.29049">
        <ele>115.5</ele>
        <time>2023-02-01T13:03:41Z</time>
      </trkpt>
      <trkpt lat="49.78392" lon="2.2905">
        <ele>115.4</ele>
        <time>2023-02-01T13:03:42Z</time>
      </trkpt>
      <trkpt lat="49.78391" lon="2.29051">
        <ele>115.4</ele>
        <time>2023-02-01T13:03:43Z</time>
      </trkpt>
      <trkpt lat="49.7839" lon="2.29053">
        <ele>115.3</ele>
        <time>2023-02-01T13:03:44Z</time>
      </trkpt>
      <trkpt lat="49.78389" lon="2.29053">
        <ele>115.2</ele>
        <time>2023-02-01T13:03:46Z</time>
      </trkpt>
      <trkpt lat="49.78388" lon="2.29054">
        <ele>115.2</ele>
        <time>2023-02-01T13:03:47Z</time>
      </trkpt>
      <trkpt lat="49.78387" lon="2.29056">
        <ele>115.1</ele>
        <time>2023-02-01T13:03:48Z</time>
      </trkpt>
      <trkpt lat="49.78386" lon="2.29058">
        <ele>115</ele>
        <time>2023-02-01T13:03:49Z</time>
      </trkpt>
      <trkpt lat="49.78386" lon="2.29059">
        <ele>115</ele>
        <time>2023-02-01T13:03:50Z</time>
      </trkpt>
      <trkpt lat="49.78384" lon="2.2906">
        <ele>114.9</ele>
        <time>2023-02-01T13:03:51Z</time>
      </trkpt>
      <trkpt lat="49.78384" lon="2.29061">
        <ele>114.8</ele>
        <time>2023-02-01T13:03:52Z</time>
      </trkpt>
      <trkpt lat="49.78381" lon="2.29063">
        <ele>114.7</ele>
        <time>2023-02-01T13:03:54Z</time>
      </trkpt>
      <trkpt lat="49.7838" lon="2.29063">
        <ele>114.7</ele>
        <time>2023-02-01T13:03:55Z</time>
      </trkpt>
      <trkpt lat="49.7838" lon="2.29064">
        <ele>114.6</ele>
        <time>2023-02-01T13:03:56Z</time>
      </trkpt>
      <trkpt lat="49.78378" lon="2.29065">
        <ele>114.5</ele>
        <time>2023-02-01T13:03:57Z</time>
      </trkpt>
      <trkpt lat="49.78377" lon="2.29066">
        <ele>114.5</ele>
        <time>2023-02-01T13:03:58Z</time>
      </trkpt>
      <trkpt lat="49.78376" lon="2.29067">
        <ele>114.4</ele>
        <time>2023-02-01T13:03:59Z</time>
      </trkpt>
      <trkpt lat="49.78375" lon="2.29068">
        <ele>114.4</ele>
        <time>2023-02-01T13:04:00Z</time>
      </trkpt>
      <trkpt lat="49.78374" lon="2.29069">
        <ele>114.3</ele>
        <time>2023-02-01T13:04:01Z</time>
      </trkpt>
      <trkpt lat="49.78373" lon="2.29069">
        <ele>114.2</ele>
        <time>2023-02-01T13:04:03Z</time>
      </trkpt>
      <trkpt lat="49.78371" lon="2.2907">
        <ele>114.1</ele>
        <time>2023-02-01T13:04:04Z</time>
      </trkpt>
      <trkpt lat="49.7837" lon="2.29071">
        <ele>114.1</ele>
        <time>2023-02-01T13:04:05Z</time>
      </trkpt>
      <trkpt lat="49.7837" lon="2.29072">
        <ele>114</ele>
        <time>2023-02-01T13:04:06Z</time>
      </trkpt>
      <trkpt lat="49.78369" lon="2.29073">
        <ele>114</ele>
        <time>2023-02-01T13:04:07Z</time>
      </trkpt>
      <trkpt lat="49.78368" lon="2.29074">
        <ele>113.9</ele>
        <time>2023-02-01T13:04:08Z</time>
      </trkpt>
      <trkpt lat="49.78366" lon="2.29076">
        <ele>113.8</ele>
        <time>2023-02-01T13:04:09Z</time>
      </trkpt>
      <trkpt lat="49.78366" lon="2.29077">
        <ele>113.7</ele>
        <time>2023-02-01T13:04:10Z</time>
      </trkpt>
      <trkpt lat="49.78365" lon="2.29078">
        <ele>113.7</ele>
        <time>2023-02-01T13:04:11Z</time>
      </trkpt>
      <trkpt lat="49.78364" lon="2.29079">
        <ele>113.6</ele>
        <time>2023-02-01T13:04:12Z</time>
      </trkpt>
      <trkpt lat="49.78363" lon="2.2908">
        <ele>113.6</ele>
        <time>2023-02-01T13:04:14Z</time>
      </trkpt>
      <trkpt lat="49.78362" lon="2.29082">
        <ele>113.5</ele>
        <time>2023-02-01T13:04:15Z</time>
      </trkpt>
      <trkpt lat="49.78361" lon="2.29083">
        <ele>113.4</ele>
        <time>2023-02-01T13:04:16Z</time>
      </trkpt>
      <trkpt lat="49.78361" lon="2.29084">
        <ele>113.3</ele>
        <time>2023-02-01T13:04:17Z</time>
      </trkpt>
      <trkpt lat="49.7836" lon="2.29085">
        <ele>113.3</ele>
        <time>2023-02-01T13:04:18Z</time>
      </trkpt>
      <trkpt lat="49.78358" lon="2.29087">
        <ele>113.2</ele>
        <time>2023-02-01T13:04:19Z</time>
      </trkpt>
      <trkpt lat="49.78358" lon="2.29088">
        <ele>113.1</ele>
        <time>2023-02-01T13:04:20Z</time>
      </trkpt>
      <trkpt lat="49.78357" lon="2.29089">
        <ele>113</ele>
        <time>2023-02-01T13:04:21Z</time>
      </trkpt>
      <trkpt lat="49.78356" lon="2.2909">
        <ele>113</ele>
        <time>2023-02-01T13:04:22Z</time>
      </trkpt>
      <trkpt lat="49.78356" lon="2.29091">
        <ele>112.9</ele>
        <time>2023-02-01T13:04:23Z</time>
      </trkpt>
      <trkpt lat="49.78355" lon="2.29093">
        <ele>112.8</ele>
        <time>2023-02-01T13:04:24Z</time>
      </trkpt>
      <trkpt lat="49.78354" lon="2.29095">
        <ele>112.7</ele>
        <time>2023-02-01T13:04:25Z</time>
      </trkpt>
      <trkpt lat="49.78353" lon="2.29095">
        <ele>112.6</ele>
        <time>2023-02-01T13:04:27Z</time>
      </trkpt>
      <trkpt lat="49.78352" lon="2.29096">
        <ele>112.6</ele>
        <time>2023-02-01T13:04:28Z</time>
      </trkpt>
      <trkpt lat="49.78351" lon="2.29099">
        <ele>112.4</ele>
        <time>2023-02-01T13:04:29Z</time>
      </trkpt>
      <trkpt lat="49.7835" lon="2.291">
        <ele>112.4</ele>
        <time>2023-02-01T13:04:30Z</time>
      </trkpt>
      <trkpt lat="49.7835" lon="2.291">
        <ele>112.3</ele>
        <time>2023-02-01T13:04:31Z</time>
      </trkpt>
      <trkpt lat="49.78349" lon="2.29102">
        <ele>112.2</ele>
        <time>2023-02-01T13:04:32Z</time>
      </trkpt>
      <trkpt lat="49.78348" lon="2.29103">
        <ele>112.2</ele>
        <time>2023-02-01T13:04:33Z</time>
      </trkpt>
      <trkpt lat="49.78347" lon="2.29104">
        <ele>112</ele>
        <time>2023-02-01T13:04:35Z</time>
      </trkpt>
      <trkpt lat="49.78346" lon="2.29106">
        <ele>111.9</ele>
        <time>2023-02-01T13:04:36Z</time>
      </trkpt>
      <trkpt lat="49.78345" lon="2.29108">
        <ele>111.8</ele>
        <time>2023-02-01T13:04:37Z</time>
      </trkpt>
      <trkpt lat="49.78344" lon="2.29109">
        <ele>111.7</ele>
        <time>2023-02-01T13:04:38Z</time>
      </trkpt>
      <trkpt lat="49.78343" lon="2.29111">
        <ele>111.6</ele>
        <time>2023-02-01T13:04:39Z</time>
      </trkpt>
      <trkpt lat="49.78342" lon="2.29112">
        <ele>111.5</ele>
        <time>2023-02-01T13:04:40Z</time>
      </trkpt>
      <trkpt lat="49.78341" lon="2.29114">
        <ele>111.3</ele>
        <time>2023-02-01T13:04:42Z</time>
      </trkpt>
      <trkpt lat="49.7834" lon="2.29115">
        <ele>111.2</ele>
        <time>2023-02-01T13:04:43Z</time>
      </trkpt>
      <trkpt lat="49.78339" lon="2.29116">
        <ele>111.1</ele>
        <time>2023-02-01T13:04:44Z</time>
      </trkpt>
      <trkpt lat="49.78338" lon="2.29117">
        <ele>111</ele>
        <time>2023-02-01T13:04:45Z</time>
      </trkpt>
      <trkpt lat="49.78337" lon="2.29118">
        <ele>110.9</ele>
        <time>2023-02-01T13:04:46Z</time>
      </trkpt>
      <trkpt lat="49.78336" lon="2.29119">
        <ele>110.8</ele>
        <time>2023-02-01T13:04:47Z</time>
      </trkpt>
      <trkpt lat="49.78335" lon="2.2912">
        <ele>110.7</ele>
        <time>2023-02-01T13:04:48Z</time>
      </trkpt>
      <trkpt lat="49.78334" lon="2.29121">
        <ele>110.6</ele>
        <time>2023-02-01T13:04:49Z</time>
      </trkpt>
      <trkpt lat="49.78333" lon="2.29122">
        <ele>110.5</ele>
        <time>2023-02-01T13:04:50Z</time>
      </trkpt>
      <trkpt lat="49.78331" lon="2.29124">
        <ele>110.3</ele>
        <time>2023-02-01T13:04:52Z</time>
      </trkpt>
      <trkpt lat="49.78331" lon="2.29125">
        <ele>110.2</ele>
        <time>2023-02-01T13:04:53Z</time>
      </trkpt>
      <trkpt lat="49.78329" lon="2.29126">
        <ele>110</ele>
        <time>2023-02-01T13:04:54Z</time>
      </trkpt>
      <trkpt lat="49.78328" lon="2.29127">
        <ele>109.9</ele>
        <time>2023-02-01T13:04:55Z</time>
      </trkpt>
      <trkpt lat="49.78326" lon="2.29128">
        <ele>109.7</ele>
        <time>2023-02-01T13:04:56Z</time>
      </trkpt>
      <trkpt lat="49.78326" lon="2.29129">
        <ele>109.6</ele>
        <time>2023-02-01T13:04:57Z</time>
      </trkpt>
      <trkpt lat="49.78324" lon="2.29131">
        <ele>109.3</ele>
        <time>2023-02-01T13:04:58Z</time>
      </trkpt>
      <trkpt lat="49.78323" lon="2.29132">
        <ele>109.2</ele>
        <time>2023-02-01T13:04:59Z</time>
      </trkpt>
      <trkpt lat="49.78322" lon="2.29133">
        <ele>109.1</ele>
        <time>2023-02-01T13:05:01Z</time>
      </trkpt>
      <trkpt lat="49.78322" lon="2.29134">
        <ele>109</ele>
        <time>2023-02-01T13:05:02Z</time>
      </trkpt>
      <trkpt lat="49.78321" lon="2.29135">
        <ele>108.9</ele>
        <time>2023-02-01T13:05:03Z</time>
      </trkpt>
      <trkpt lat="49.7832" lon="2.29136">
        <ele>108.8</ele>
        <time>2023-02-01T13:05:04Z</time>
      </trkpt>
      <trkpt lat="49.78319" lon="2.29137">
        <ele>108.6</ele>
        <time>2023-02-01T13:05:05Z</time>
      </trkpt>
      <trkpt lat="49.78317" lon="2.29139">
        <ele>108.4</ele>
        <time>2023-02-01T13:05:06Z</time>
      </trkpt>
      <trkpt lat="49.78317" lon="2.2914">
        <ele>108.3</ele>
        <time>2023-02-01T13:05:07Z</time>
      </trkpt>
      <trkpt lat="49.78316" lon="2.29141">
        <ele>108.2</ele>
        <time>2023-02-01T13:05:09Z</time>
      </trkpt>
      <trkpt lat="49.78314" lon="2.29142">
        <ele>108</ele>
        <time>2023-02-01T13:05:10Z</time>
      </trkpt>
      <trkpt lat="49.78313" lon="2.29143">
        <ele>107.9</ele>
        <time>2023-02-01T13:05:11Z</time>
      </trkpt>
      <trkpt lat="49.78312" lon="2.29145">
        <ele>107.7</ele>
        <time>2023-02-01T13:05:12Z</time>
      </trkpt>
      <trkpt lat="49.78312" lon="2.29145">
        <ele>107.6</ele>
        <time>2023-02-01T13:05:13Z</time>
      </trkpt>
      <trkpt lat="49.7831" lon="2.29147">
        <ele>107.4</ele>
        <time>2023-02-01T13:05:14Z</time>
      </trkpt>
      <trkpt lat="49.78309" lon="2.29148">
        <ele>107.2</ele>
        <time>2023-02-01T13:05:15Z</time>
      </trkpt>
      <trkpt lat="49.78308" lon="2.29148">
        <ele>107.1</ele>
        <time>2023-02-01T13:05:16Z</time>
      </trkpt>
      <trkpt lat="49.78308" lon="2.29149">
        <ele>107</ele>
        <time>2023-02-01T13:05:18Z</time>
      </trkpt>
      <trkpt lat="49.78307" lon="2.29149">
        <ele>106.9</ele>
        <time>2023-02-01T13:05:19Z</time>
      </trkpt>
      <trkpt lat="49.78306" lon="2.2915">
        <ele>106.7</ele>
        <time>2023-02-01T13:05:20Z</time>
      </trkpt>
      <trkpt lat="49.78305" lon="2.2915">
        <ele>106.6</ele>
        <time>2023-02-01T13:05:21Z</time>
      </trkpt>
      <trkpt lat="49.78304" lon="2.2915">
        <ele>106.4</ele>
        <time>2023-02-01T13:05:22Z</time>
      </trkpt>
      <trkpt lat="49.78303" lon="2.29151">
        <ele>106.3</ele>
        <time>2023-02-01T13:05:23Z</time>
      </trkpt>
      <trkpt lat="49.78301" lon="2.29151">
        <ele>106.1</ele>
        <time>2023-02-01T13:05:24Z</time>
      </trkpt>
      <trkpt lat="49.783" lon="2.29151">
        <ele>106</ele>
        <time>2023-02-01T13:05:25Z</time>
      </trkpt>
      <trkpt lat="49.78298" lon="2.29151">
        <ele>105.7</ele>
        <time>2023-02-01T13:05:27Z</time>
      </trkpt>
      <trkpt lat="49.78297" lon="2.29151">
        <ele>105.5</ele>
        <time>2023-02-01T13:05:28Z</time>
      </trkpt>
      <trkpt lat="49.78296" lon="2.29152">
        <ele>105.5</ele>
        <time>2023-02-01T13:05:29Z</time>
      </trkpt>
      <trkpt lat="49.78296" lon="2.29152">
        <ele>105.4</ele>
        <time>2023-02-01T13:05:30Z</time>
      </trkpt>
      <trkpt lat="49.78295" lon="2.29152">
        <ele>105.3</ele>
        <time>2023-02-01T13:05:31Z</time>
      </trkpt>
      <trkpt lat="49.78293" lon="2.29152">
        <ele>105.1</ele>
        <time>2023-02-01T13:05:32Z</time>
      </trkpt>
      <trkpt lat="49.78292" lon="2.29152">
        <ele>104.9</ele>
        <time>2023-02-01T13:05:33Z</time>
      </trkpt>
      <trkpt lat="49.78291" lon="2.29152">
        <ele>104.8</ele>
        <time>2023-02-01T13:05:34Z</time>
      </trkpt>
      <trkpt lat="49.7829" lon="2.29153">
        <ele>104.6</ele>
        <time>2023-02-01T13:05:35Z</time>
      </trkpt>
      <trkpt lat="49.78289" lon="2.29154">
        <ele>104.5</ele>
        <time>2023-02-01T13:05:36Z</time>
      </trkpt>
      <trkpt lat="49.78288" lon="2.29154">
        <ele>104.4</ele>
        <time>2023-02-01T13:05:38Z</time>
      </trkpt>
      <trkpt lat="49.78287" lon="2.29155">
        <ele>104.3</ele>
        <time>2023-02-01T13:05:39Z</time>
      </trkpt>
      <trkpt lat="49.78287" lon="2.29155">
        <ele>104.2</ele>
        <time>2023-02-01T13:05:40Z</time>
      </trkpt>
      <trkpt lat="49.78286" lon="2.29156">
        <ele>104.1</ele>
        <time>2023-02-01T13:05:41Z</time>
      </trkpt>
      <trkpt lat="49.78285" lon="2.29156">
        <ele>104</ele>
        <time>2023-02-01T13:05:42Z</time>
      </trkpt>
      <trkpt lat="49.78284" lon="2.29157">
        <ele>103.9</ele>
        <time>2023-02-01T13:05:43Z</time>
      </trkpt>
      <trkpt lat="49.78283" lon="2.29157">
        <ele>103.7</ele>
        <time>2023-02-01T13:05:44Z</time>
      </trkpt>
      <trkpt lat="49.78282" lon="2.29158">
        <ele>103.6</ele>
        <time>2023-02-01T13:05:45Z</time>
      </trkpt>
      <trkpt lat="49.7828" lon="2.29159">
        <ele>103.4</ele>
        <time>2023-02-01T13:05:46Z</time>
      </trkpt>
      <trkpt lat="49.7828" lon="2.29159">
        <ele>103.4</ele>
        <time>2023-02-01T13:05:47Z</time>
      </trkpt>
      <trkpt lat="49.78279" lon="2.2916">
        <ele>103.3</ele>
        <time>2023-02-01T13:05:49Z</time>
      </trkpt>
      <trkpt lat="49.78278" lon="2.2916">
        <ele>103.1</ele>
        <time>2023-02-01T13:05:50Z</time>
      </trkpt>
      <trkpt lat="49.78277" lon="2.2916">
        <ele>103</ele>
        <time>2023-02-01T13:05:51Z</time>
      </trkpt>
      <trkpt lat="49.78275" lon="2.29161">
        <ele>102.9</ele>
        <time>2023-02-01T13:05:52Z</time>
      </trkpt>
      <trkpt lat="49.78273" lon="2.29161">
        <ele>102.7</ele>
        <time>2023-02-01T13:05:53Z</time>
      </trkpt>
      <trkpt lat="49.78272" lon="2.29161">
        <ele>102.6</ele>
        <time>2023-02-01T13:05:54Z</time>
      </trkpt>
      <trkpt lat="49.78271" lon="2.29162">
        <ele>102.5</ele>
        <time>2023-02-01T13:05:56Z</time>
      </trkpt>
      <trkpt lat="49.7827" lon="2.29162">
        <ele>102.4</ele>
        <time>2023-02-01T13:05:57Z</time>
      </trkpt>
      <trkpt lat="49.78269" lon="2.29162">
        <ele>102.3</ele>
        <time>2023-02-01T13:05:58Z</time>
      </trkpt>
      <trkpt lat="49.78268" lon="2.29163">
        <ele>102.3</ele>
        <time>2023-02-01T13:05:59Z</time>
      </trkpt>
      <trkpt lat="49.78267" lon="2.29163">
        <ele>102.2</ele>
        <time>2023-02-01T13:06:00Z</time>
      </trkpt>
      <trkpt lat="49.78266" lon="2.29164">
        <ele>102.1</ele>
        <time>2023-02-01T13:06:01Z</time>
      </trkpt>
      <trkpt lat="49.78265" lon="2.29165">
        <ele>102</ele>
        <time>2023-02-01T13:06:02Z</time>
      </trkpt>
      <trkpt lat="49.78264" lon="2.29165">
        <ele>101.9</ele>
        <time>2023-02-01T13:06:03Z</time>
      </trkpt>
      <trkpt lat="49.78263" lon="2.29166">
        <ele>101.8</ele>
        <time>2023-02-01T13:06:04Z</time>
      </trkpt>
      <trkpt lat="49.78262" lon="2.29166">
        <ele>101.8</ele>
        <time>2023-02-01T13:06:05Z</time>
      </trkpt>
      <trkpt lat="49.7826" lon="2.29167">
        <ele>101.6</ele>
        <time>2023-02-01T13:06:07Z</time>
      </trkpt>
      <trkpt lat="49.7826" lon="2.29168">
        <ele>101.5</ele>
        <time>2023-02-01T13:06:08Z</time>
      </trkpt>
      <trkpt lat="49.78259" lon="2.29168">
        <ele>101.5</ele>
        <time>2023-02-01T13:06:09Z</time>
      </trkpt>
      <trkpt lat="49.78257" lon="2.2917">
        <ele>101.4</ele>
        <time>2023-02-01T13:06:10Z</time>
      </trkpt>
      <trkpt lat="49.78256" lon="2.29171">
        <ele>101.3</ele>
        <time>2023-02-01T13:06:11Z</time>
      </trkpt>
      <trkpt lat="49.78255" lon="2.29171">
        <ele>101.3</ele>
        <time>2023-02-01T13:06:12Z</time>
      </trkpt>
      <trkpt lat="49.78254" lon="2.29172">
        <ele>101.2</ele>
        <time>2023-02-01T13:06:13Z</time>
      </trkpt>
      <trkpt lat="49.78253" lon="2.29173">
        <ele>101.1</ele>
        <time>2023-02-01T13:06:14Z</time>
      </trkpt>
      <trkpt lat="49.78253" lon="2.29174">
        <ele>101.1</ele>
        <time>2023-02-01T13:06:15Z</time>
      </trkpt>
      <trkpt lat="49.78251" lon="2.29176">
        <ele>101</ele>
        <time>2023-02-01T13:06:16Z</time>
      </trkpt>
      <trkpt lat="49.7825" lon="2.29177">
        <ele>100.9</ele>
        <time>2023-02-01T13:06:17Z</time>
      </trkpt>
      <trkpt lat="49.7825" lon="2.29178">
        <ele>100.9</ele>
        <time>2023-02-01T13:06:19Z</time>
      </trkpt>
      <trkpt lat="49.78249" lon="2.29179">
        <ele>100.8</ele>
        <time>2023-02-01T13:06:20Z</time>
      </trkpt>
      <trkpt lat="49.78248" lon="2.2918">
        <ele>100.8</ele>
        <time>2023-02-01T13:06:21Z</time>
      </trkpt>
      <trkpt lat="49.78247" lon="2.29181">
        <ele>100.8</ele>
        <time>2023-02-01T13:06:22Z</time>
      </trkpt>
      <trkpt lat="49.78247" lon="2.29182">
        <ele>100.7</ele>
        <time>2023-02-01T13:06:23Z</time>
      </trkpt>
      <trkpt lat="49.78246" lon="2.29183">
        <ele>100.7</ele>
        <time>2023-02-01T13:06:24Z</time>
      </trkpt>
      <trkpt lat="49.78245" lon="2.29184">
        <ele>100.6</ele>
        <time>2023-02-01T13:06:25Z</time>
      </trkpt>
      <trkpt lat="49.78244" lon="2.29186">
        <ele>100.6</ele>
        <time>2023-02-01T13:06:26Z</time>
      </trkpt>
      <trkpt lat="49.78243" lon="2.29187">
        <ele>100.5</ele>
        <time>2023-02-01T13:06:27Z</time>
      </trkpt>
      <trkpt lat="49.78242" lon="2.29188">
        <ele>100.5</ele>
        <time>2023-02-01T13:06:29Z</time>
      </trkpt>
      <trkpt lat="49.78241" lon="2.2919">
        <ele>100.4</ele>
        <time>2023-02-01T13:06:30Z</time>
      </trkpt>
      <trkpt lat="49.7824" lon="2.29191">
        <ele>100.4</ele>
        <time>2023-02-01T13:06:31Z</time>
      </trkpt>
      <trkpt lat="49.7824" lon="2.29192">
        <ele>100.4</ele>
        <time>2023-02-01T13:06:32Z</time>
      </trkpt>
      <trkpt lat="49.78239" lon="2.29193">
        <ele>100.4</ele>
        <time>2023-02-01T13:06:33Z</time>
      </trkpt>
      <trkpt lat="49.78238" lon="2.29194">
        <ele>100.3</ele>
        <time>2023-02-01T13:06:34Z</time>
      </trkpt>
      <trkpt lat="49.78236" lon="2.29196">
        <ele>100.3</ele>
        <time>2023-02-01T13:06:36Z</time>
      </trkpt>
      <trkpt lat="49.78236" lon="2.29196">
        <ele>100.3</ele>
        <time>2023-02-01T13:06:37Z</time>
      </trkpt>
      <trkpt lat="49.78235" lon="2.29198">
        <ele>100.2</ele>
        <time>2023-02-01T13:06:38Z</time>
      </trkpt>
      <trkpt lat="49.78234" lon="2.29199">
        <ele>100.2</ele>
        <time>2023-02-01T13:06:39Z</time>
      </trkpt>
      <trkpt lat="49.78233" lon="2.292">
        <ele>100.2</ele>
        <time>2023-02-01T13:06:40Z</time>
      </trkpt>
      <trkpt lat="49.78232" lon="2.29202">
        <ele>100.2</ele>
        <time>2023-02-01T13:06:41Z</time>
      </trkpt>
      <trkpt lat="49.78232" lon="2.29203">
        <ele>100.1</ele>
        <time>2023-02-01T13:06:42Z</time>
      </trkpt>
      <trkpt lat="49.7823" lon="2.29205">
        <ele>100.1</ele>
        <time>2023-02-01T13:06:43Z</time>
      </trkpt>
      <trkpt lat="49.7823" lon="2.29206">
        <ele>100.1</ele>
        <time>2023-02-01T13:06:44Z</time>
      </trkpt>
      <trkpt lat="49.78229" lon="2.29207">
        <ele>100.1</ele>
        <time>2023-02-01T13:06:45Z</time>
      </trkpt>
      <trkpt lat="49.78228" lon="2.29209">
        <ele>100.1</ele>
        <time>2023-02-01T13:06:47Z</time>
      </trkpt>
      <trkpt lat="49.78227" lon="2.2921">
        <ele>100.1</ele>
        <time>2023-02-01T13:06:48Z</time>
      </trkpt>
      <trkpt lat="49.78225" lon="2.29212">
        <ele>100.1</ele>
        <time>2023-02-01T13:06:49Z</time>
      </trkpt>
      <trkpt lat="49.78224" lon="2.29213">
        <ele>100</ele>
        <time>2023-02-01T13:06:50Z</time>
      </trkpt>
      <trkpt lat="49.78223" lon="2.29214">
        <ele>100</ele>
        <time>2023-02-01T13:06:51Z</time>
      </trkpt>
      <trkpt lat="49.78223" lon="2.29215">
        <ele>100</ele>
        <time>2023-02-01T13:06:52Z</time>
      </trkpt>
      <trkpt lat="49.78222" lon="2.29216">
        <ele>100</ele>
        <time>2023-02-01T13:06:53Z</time>
      </trkpt>
      <trkpt lat="49.78221" lon="2.29217">
        <ele>100</ele>
        <time>2023-02-01T13:06:55Z</time>
      </trkpt>
      <trkpt lat="49.7822" lon="2.29219">
        <ele>100</ele>
        <time>2023-02-01T13:06:56Z</time>
      </trkpt>
      <trkpt lat="49.78218" lon="2.29221">
        <ele>100</ele>
        <time>2023-02-01T13:06:57Z</time>
      </trkpt>
      <trkpt lat="49.78218" lon="2.29222">
        <ele>100</ele>
        <time>2023-02-01T13:06:58Z</time>
      </trkpt>
      <trkpt lat="49.78217" lon="2.29223">
        <ele>100</ele>
        <time>2023-02-01T13:06:59Z</time>
      </trkpt>
      <trkpt lat="49.78216" lon="2.29225">
        <ele>100</ele>
        <time>2023-02-01T13:07:00Z</time>
      </trkpt>
      <trkpt lat="49.78214" lon="2.29227">
        <ele>100</ele>
        <time>2023-02-01T13:07:01Z</time>
      </trkpt>
      <trkpt lat="49.78213" lon="2.29228">
        <ele>100</ele>
        <time>2023-02-01T13:07:02Z</time>
      </trkpt>
      <trkpt lat="49.78212" lon="2.29229">
        <ele>100</ele>
        <time>2023-02-01T13:07:04Z</time>
      </trkpt>
      <trkpt lat="49.78212" lon="2.2923">
        <ele>100</ele>
        <time>2023-02-01T13:07:05Z</time>
      </trkpt>
      <trkpt lat="49.78211" lon="2.29231">
        <ele>100</ele>
        <time>2023-02-01T13:07:06Z</time>
      </trkpt>
      <trkpt lat="49.7821" lon="2.29232">
        <ele>100.1</ele>
        <time>2023-02-01T13:07:07Z</time>
      </trkpt>
      <trkpt lat="49.78209" lon="2.29233">
        <ele>100</ele>
        <time>2023-02-01T13:07:09Z</time>
      </trkpt>
      <trkpt lat="49.78208" lon="2.29235">
        <ele>99.9</ele>
        <time>2023-02-01T13:07:10Z</time>
      </trkpt>
      <trkpt lat="49.78206" lon="2.29236">
        <ele>99.8</ele>
        <time>2023-02-01T13:07:11Z</time>
      </trkpt>
      <trkpt lat="49.78205" lon="2.29236">
        <ele>99.8</ele>
        <time>2023-02-01T13:07:12Z</time>
      </trkpt>
      <trkpt lat="49.78204" lon="2.29237">
        <ele>99.8</ele>
        <time>2023-02-01T13:07:13Z</time>
      </trkpt>
      <trkpt lat="49.78203" lon="2.29237">
        <ele>99.7</ele>
        <time>2023-02-01T13:07:15Z</time>
      </trkpt>
      <trkpt lat="49.78202" lon="2.29237">
        <ele>99.7</ele>
        <time>2023-02-01T13:07:16Z</time>
      </trkpt>
      <trkpt lat="49.78201" lon="2.29237">
        <ele>99.7</ele>
        <time>2023-02-01T13:07:17Z</time>
      </trkpt>
      <trkpt lat="49.78199" lon="2.29236">
        <ele>99.6</ele>
        <time>2023-02-01T13:07:18Z</time>
      </trkpt>
      <trkpt lat="49.78198" lon="2.29236">
        <ele>99.6</ele>
        <time>2023-02-01T13:07:19Z</time>
      </trkpt>
      <trkpt lat="49.78197" lon="2.29236">
        <ele>99.6</ele>
        <time>2023-02-01T13:07:20Z</time>
      </trkpt>
      <trkpt lat="49.78196" lon="2.29234">
        <ele>99.6</ele>
        <time>2023-02-01T13:07:22Z</time>
      </trkpt>
      <trkpt lat="49.78195" lon="2.29233">
        <ele>99.6</ele>
        <time>2023-02-01T13:07:23Z</time>
      </trkpt>
      <trkpt lat="49.78194" lon="2.2923">
        <ele>99.6</ele>
        <time>2023-02-01T13:07:24Z</time>
      </trkpt>
      <trkpt lat="49.78193" lon="2.29229">
        <ele>99.6</ele>
        <time>2023-02-01T13:07:25Z</time>
      </trkpt>
      <trkpt lat="49.78193" lon="2.29228">
        <ele>99.6</ele>
        <time>2023-02-01T13:07:26Z</time>
      </trkpt>
      <trkpt lat="49.78192" lon="2.29226">
        <ele>99.6</ele>
        <time>2023-02-01T13:07:27Z</time>
      </trkpt>
      <trkpt lat="49.78191" lon="2.29224">
        <ele>99.6</ele>
        <time>2023-02-01T13:07:29Z</time>
      </trkpt>
      <trkpt lat="49.78191" lon="2.29223">
        <ele>99.6</ele>
        <time>2023-02-01T13:07:30Z</time>
      </trkpt>
      <trkpt lat="49.7819" lon="2.29221">
        <ele>99.6</ele>
        <time>2023-02-01T13:07:31Z</time>
      </trkpt>
      <trkpt lat="49.78189" lon="2.29219">
        <ele>99.7</ele>
        <time>2023-02-01T13:07:32Z</time>
      </trkpt>
      <trkpt lat="49.78188" lon="2.29218">
        <ele>99.7</ele>
        <time>2023-02-01T13:07:33Z</time>
      </trkpt>
      <trkpt lat="49.78186" lon="2.29215">
        <ele>99.7</ele>
        <time>2023-02-01T13:07:35Z</time>
      </trkpt>
      <trkpt lat="49.78185" lon="2.29213">
        <ele>99.8</ele>
        <time>2023-02-01T13:07:36Z</time>
      </trkpt>
      <trkpt lat="49.78184" lon="2.29211">
        <ele>99.8</ele>
        <time>2023-02-01T13:07:37Z</time>
      </trkpt>
      <trkpt lat="49.78183" lon="2.29209">
        <ele>99.8</ele>
        <time>2023-02-01T13:07:38Z</time>
      </trkpt>
      <trkpt lat="49.78182" lon="2.29208">
        <ele>99.8</ele>
        <time>2023-02-01T13:07:39Z</time>
      </trkpt>
      <trkpt lat="49.78181" lon="2.29207">
        <ele>99.9</ele>
        <time>2023-02-01T13:07:40Z</time>
      </trkpt>
      <trkpt lat="49.7818" lon="2.29204">
        <ele>99.9</ele>
        <time>2023-02-01T13:07:41Z</time>
      </trkpt>
      <trkpt lat="49.78179" lon="2.29203">
        <ele>99.9</ele>
        <time>2023-02-01T13:07:43Z</time>
      </trkpt>
      <trkpt lat="49.78178" lon="2.29202">
        <ele>99.9</ele>
        <time>2023-02-01T13:07:44Z</time>
      </trkpt>
      <trkpt lat="49.78177" lon="2.292">
        <ele>99.9</ele>
        <time>2023-02-01T13:07:45Z</time>
      </trkpt>
      <trkpt lat="49.78176" lon="2.29198">
        <ele>99.9</ele>
        <time>2023-02-01T13:07:46Z</time>
      </trkpt>
      <trkpt lat="49.78175" lon="2.29197">
        <ele>99.9</ele>
        <time>2023-02-01T13:07:47Z</time>
      </trkpt>
      <trkpt lat="49.78173" lon="2.29194">
        <ele>99.9</ele>
        <time>2023-02-01T13:07:48Z</time>
      </trkpt>
      <trkpt lat="49.78173" lon="2.29193">
        <ele>99.9</ele>
        <time>2023-02-01T13:07:49Z</time>
      </trkpt>
      <trkpt lat="49.78172" lon="2.29192">
        <ele>99.9</ele>
        <time>2023-02-01T13:07:50Z</time>
      </trkpt>
      <trkpt lat="49.7817" lon="2.29189">
        <ele>99.9</ele>
        <time>2023-02-01T13:07:51Z</time>
      </trkpt>
      <trkpt lat="49.7817" lon="2.29188">
        <ele>99.9</ele>
        <time>2023-02-01T13:07:53Z</time>
      </trkpt>
      <trkpt lat="49.78169" lon="2.29187">
        <ele>99.9</ele>
        <time>2023-02-01T13:07:54Z</time>
      </trkpt>
      <trkpt lat="49.78168" lon="2.29186">
        <ele>99.9</ele>
        <time>2023-02-01T13:07:55Z</time>
      </trkpt>
      <trkpt lat="49.78168" lon="2.29185">
        <ele>99.9</ele>
        <time>2023-02-01T13:07:56Z</time>
      </trkpt>
      <trkpt lat="49.78166" lon="2.29184">
        <ele>99.9</ele>
        <time>2023-02-01T13:07:57Z</time>
      </trkpt>
      <trkpt lat="49.78166" lon="2.29182">
        <ele>99.9</ele>
        <time>2023-02-01T13:07:58Z</time>
      </trkpt>
      <trkpt lat="49.78164" lon="2.2918">
        <ele>99.9</ele>
        <time>2023-02-01T13:07:59Z</time>
      </trkpt>
      <trkpt lat="49.78163" lon="2.29179">
        <ele>99.9</ele>
        <time>2023-02-01T13:08:00Z</time>
      </trkpt>
      <trkpt lat="49.78163" lon="2.29178">
        <ele>99.9</ele>
        <time>2023-02-01T13:08:01Z</time>
      </trkpt>
      <trkpt lat="49.78162" lon="2.29176">
        <ele>99.9</ele>
        <time>2023-02-01T13:08:03Z</time>
      </trkpt>
      <trkpt lat="49.78161" lon="2.29175">
        <ele>99.9</ele>
        <time>2023-02-01T13:08:04Z</time>
      </trkpt>
      <trkpt lat="49.7816" lon="2.29174">
        <ele>99.9</ele>
        <time>2023-02-01T13:08:05Z</time>
      </trkpt>
      <trkpt lat="49.78159" lon="2.29173">
        <ele>99.9</ele>
        <time>2023-02-01T13:08:06Z</time>
      </trkpt>
      <trkpt lat="49.78157" lon="2.29171">
        <ele>99.9</ele>
        <time>2023-02-01T13:08:07Z</time>
      </trkpt>
      <trkpt lat="49.78156" lon="2.29169">
        <ele>100</ele>
        <time>2023-02-01T13:08:08Z</time>
      </trkpt>
      <trkpt lat="49.78155" lon="2.29168">
        <ele>100</ele>
        <time>2023-02-01T13:08:10Z</time>
      </trkpt>
      <trkpt lat="49.78154" lon="2.29168">
        <ele>100</ele>
        <time>2023-02-01T13:08:11Z</time>
      </trkpt>
      <trkpt lat="49.78153" lon="2.29166">
        <ele>100</ele>
        <time>2023-02-01T13:08:12Z</time>
      </trkpt>
      <trkpt lat="49.78152" lon="2.29166">
        <ele>100</ele>
        <time>2023-02-01T13:08:13Z</time>
      </trkpt>
      <trkpt lat="49.78151" lon="2.29165">
        <ele>100.1</ele>
        <time>2023-02-01T13:08:14Z</time>
      </trkpt>
      <trkpt lat="49.78149" lon="2.29164">
        <ele>100.1</ele>
        <time>2023-02-01T13:08:15Z</time>
      </trkpt>
      <trkpt lat="49.78148" lon="2.29164">
        <ele>100.2</ele>
        <time>2023-02-01T13:08:16Z</time>
      </trkpt>
      <trkpt lat="49.78147" lon="2.29163">
        <ele>100.2</ele>
        <time>2023-02-01T13:08:17Z</time>
      </trkpt>
      <trkpt lat="49.78147" lon="2.29162">
        <ele>100.2</ele>
        <time>2023-02-01T13:08:18Z</time>
      </trkpt>
      <trkpt lat="49.78146" lon="2.29161">
        <ele>100.3</ele>
        <time>2023-02-01T13:08:19Z</time>
      </trkpt>
      <trkpt lat="49.78145" lon="2.2916">
        <ele>100.3</ele>
        <time>2023-02-01T13:08:21Z</time>
      </trkpt>
      <trkpt lat="49.78143" lon="2.29159">
        <ele>100.3</ele>
        <time>2023-02-01T13:08:22Z</time>
      </trkpt>
      <trkpt lat="49.78143" lon="2.29158">
        <ele>100.4</ele>
        <time>2023-02-01T13:08:23Z</time>
      </trkpt>
      <trkpt lat="49.78142" lon="2.29157">
        <ele>100.4</ele>
        <time>2023-02-01T13:08:24Z</time>
      </trkpt>
      <trkpt lat="49.7814" lon="2.29156">
        <ele>100.5</ele>
        <time>2023-02-01T13:08:25Z</time>
      </trkpt>
      <trkpt lat="49.78139" lon="2.29156">
        <ele>100.5</ele>
        <time>2023-02-01T13:08:26Z</time>
      </trkpt>
      <trkpt lat="49.78138" lon="2.29155">
        <ele>100.5</ele>
        <time>2023-02-01T13:08:27Z</time>
      </trkpt>
      <trkpt lat="49.78137" lon="2.29154">
        <ele>100.6</ele>
        <time>2023-02-01T13:08:28Z</time>
      </trkpt>
      <trkpt lat="49.78136" lon="2.29153">
        <ele>100.6</ele>
        <time>2023-02-01T13:08:29Z</time>
      </trkpt>
      <trkpt lat="49.78135" lon="2.29152">
        <ele>100.7</ele>
        <time>2023-02-01T13:08:31Z</time>
      </trkpt>
      <trkpt lat="49.78134" lon="2.29151">
        <ele>100.7</ele>
        <time>2023-02-01T13:08:32Z</time>
      </trkpt>
      <trkpt lat="49.78133" lon="2.29151">
        <ele>100.7</ele>
        <time>2023-02-01T13:08:33Z</time>
      </trkpt>
      <trkpt lat="49.78132" lon="2.2915">
        <ele>100.8</ele>
        <time>2023-02-01T13:08:34Z</time>
      </trkpt>
      <trkpt lat="49.7813" lon="2.29149">
        <ele>100.9</ele>
        <time>2023-02-01T13:08:35Z</time>
      </trkpt>
      <trkpt lat="49.78129" lon="2.29148">
        <ele>100.9</ele>
        <time>2023-02-01T13:08:36Z</time>
      </trkpt>
      <trkpt lat="49.78128" lon="2.29147">
        <ele>100.9</ele>
        <time>2023-02-01T13:08:37Z</time>
      </trkpt>
      <trkpt lat="49.78127" lon="2.29146">
        <ele>100.9</ele>
        <time>2023-02-01T13:08:38Z</time>
      </trkpt>
      <trkpt lat="49.78126" lon="2.29146">
        <ele>101</ele>
        <time>2023-02-01T13:08:39Z</time>
      </trkpt>
      <trkpt lat="49.78125" lon="2.29145">
        <ele>101</ele>
        <time>2023-02-01T13:08:41Z</time>
      </trkpt>
      <trkpt lat="49.78124" lon="2.29144">
        <ele>101</ele>
        <time>2023-02-01T13:08:42Z</time>
      </trkpt>
      <trkpt lat="49.78123" lon="2.29143">
        <ele>101.1</ele>
        <time>2023-02-01T13:08:43Z</time>
      </trkpt>
      <trkpt lat="49.78122" lon="2.29142">
        <ele>101.1</ele>
        <time>2023-02-01T13:08:44Z</time>
      </trkpt>
      <trkpt lat="49.78121" lon="2.29141">
        <ele>101.1</ele>
        <time>2023-02-01T13:08:45Z</time>
      </trkpt>
      <trkpt lat="49.7812" lon="2.2914">
        <ele>101.1</ele>
        <time>2023-02-01T13:08:47Z</time>
      </trkpt>
      <trkpt lat="49.78119" lon="2.29139">
        <ele>101.2</ele>
        <time>2023-02-01T13:08:48Z</time>
      </trkpt>
      <trkpt lat="49.78118" lon="2.29138">
        <ele>101.2</ele>
        <time>2023-02-01T13:08:49Z</time>
      </trkpt>
      <trkpt lat="49.78117" lon="2.29137">
        <ele>101.2</ele>
        <time>2023-02-01T13:08:50Z</time>
      </trkpt>
      <trkpt lat="49.78116" lon="2.29136">
        <ele>101.2</ele>
        <time>2023-02-01T13:08:51Z</time>
      </trkpt>
      <trkpt lat="49.78115" lon="2.29134">
        <ele>101.2</ele>
        <time>2023-02-01T13:08:52Z</time>
      </trkpt>
      <trkpt lat="49.78115" lon="2.29133">
        <ele>101.3</ele>
        <time>2023-02-01T13:08:53Z</time>
      </trkpt>
      <trkpt lat="49.78114" lon="2.29132">
        <ele>101.3</ele>
        <time>2023-02-01T13:08:54Z</time>
      </trkpt>
      <trkpt lat="49.78113" lon="2.29129">
        <ele>101.3</ele>
        <time>2023-02-01T13:08:55Z</time>
      </trkpt>
      <trkpt lat="49.78112" lon="2.29128">
        <ele>101.3</ele>
        <time>2023-02-01T13:08:57Z</time>
      </trkpt>
      <trkpt lat="49.78111" lon="2.29127">
        <ele>101.4</ele>
        <time>2023-02-01T13:08:58Z</time>
      </trkpt>
      <trkpt lat="49.7811" lon="2.29124">
        <ele>101.4</ele>
        <time>2023-02-01T13:08:59Z</time>
      </trkpt>
      <trkpt lat="49.78109" lon="2.29123">
        <ele>101.4</ele>
        <time>2023-02-01T13:09:00Z</time>
      </trkpt>
      <trkpt lat="49.78109" lon="2.29122">
        <ele>101.4</ele>
        <time>2023-02-01T13:09:01Z</time>
      </trkpt>
      <trkpt lat="49.78108" lon="2.29121">
        <ele>101.4</ele>
        <time>2023-02-01T13:09:02Z</time>
      </trkpt>
      <trkpt lat="49.78107" lon="2.2912">
        <ele>101.5</ele>
        <time>2023-02-01T13:09:03Z</time>
      </trkpt>
      <trkpt lat="49.78106" lon="2.29119">
        <ele>101.5</ele>
        <time>2023-02-01T13:09:05Z</time>
      </trkpt>
      <trkpt lat="49.78105" lon="2.29117">
        <ele>101.5</ele>
        <time>2023-02-01T13:09:06Z</time>
      </trkpt>
      <trkpt lat="49.78104" lon="2.29116">
        <ele>101.6</ele>
        <time>2023-02-01T13:09:07Z</time>
      </trkpt>
      <trkpt lat="49.78103" lon="2.29115">
        <ele>101.6</ele>
        <time>2023-02-01T13:09:08Z</time>
      </trkpt>
      <trkpt lat="49.78102" lon="2.29113">
        <ele>101.6</ele>
        <time>2023-02-01T13:09:09Z</time>
      </trkpt>
      <trkpt lat="49.78101" lon="2.29112">
        <ele>101.6</ele>
        <time>2023-02-01T13:09:10Z</time>
      </trkpt>
      <trkpt lat="49.78099" lon="2.2911">
        <ele>101.7</ele>
        <time>2023-02-01T13:09:11Z</time>
      </trkpt>
      <trkpt lat="49.78098" lon="2.29109">
        <ele>101.7</ele>
        <time>2023-02-01T13:09:12Z</time>
      </trkpt>
      <trkpt lat="49.78098" lon="2.29108">
        <ele>101.7</ele>
        <time>2023-02-01T13:09:14Z</time>
      </trkpt>
      <trkpt lat="49.78097" lon="2.29107">
        <ele>101.8</ele>
        <time>2023-02-01T13:09:15Z</time>
      </trkpt>
      <trkpt lat="49.78096" lon="2.29105">
        <ele>101.8</ele>
        <time>2023-02-01T13:09:16Z</time>
      </trkpt>
      <trkpt lat="49.78095" lon="2.29104">
        <ele>101.8</ele>
        <time>2023-02-01T13:09:17Z</time>
      </trkpt>
      <trkpt lat="49.78094" lon="2.29103">
        <ele>101.8</ele>
        <time>2023-02-01T13:09:18Z</time>
      </trkpt>
      <trkpt lat="49.78094" lon="2.29102">
        <ele>101.8</ele>
        <time>2023-02-01T13:09:19Z</time>
      </trkpt>
      <trkpt lat="49.78093" lon="2.29102">
        <ele>101.9</ele>
        <time>2023-02-01T13:09:20Z</time>
      </trkpt>
      <trkpt lat="49.78092" lon="2.29101">
        <ele>101.9</ele>
        <time>2023-02-01T13:09:21Z</time>
      </trkpt>
      <trkpt lat="49.7809" lon="2.29099">
        <ele>101.9</ele>
        <time>2023-02-01T13:09:23Z</time>
      </trkpt>
      <trkpt lat="49.7809" lon="2.29099">
        <ele>101.9</ele>
        <time>2023-02-01T13:09:24Z</time>
      </trkpt>
      <trkpt lat="49.78089" lon="2.29098">
        <ele>102</ele>
        <time>2023-02-01T13:09:25Z</time>
      </trkpt>
      <trkpt lat="49.78088" lon="2.29097">
        <ele>102</ele>
        <time>2023-02-01T13:09:26Z</time>
      </trkpt>
      <trkpt lat="49.78087" lon="2.29096">
        <ele>102</ele>
        <time>2023-02-01T13:09:27Z</time>
      </trkpt>
      <trkpt lat="49.78085" lon="2.29094">
        <ele>102</ele>
        <time>2023-02-01T13:09:28Z</time>
      </trkpt>
      <trkpt lat="49.78085" lon="2.29093">
        <ele>102.1</ele>
        <time>2023-02-01T13:09:29Z</time>
      </trkpt>
      <trkpt lat="49.78084" lon="2.29092">
        <ele>102.1</ele>
        <time>2023-02-01T13:09:30Z</time>
      </trkpt>
      <trkpt lat="49.78083" lon="2.29091">
        <ele>102.2</ele>
        <time>2023-02-01T13:09:31Z</time>
      </trkpt>
      <trkpt lat="49.78082" lon="2.29089">
        <ele>102.2</ele>
        <time>2023-02-01T13:09:32Z</time>
      </trkpt>
      <trkpt lat="49.78081" lon="2.29089">
        <ele>102.3</ele>
        <time>2023-02-01T13:09:33Z</time>
      </trkpt>
      <trkpt lat="49.7808" lon="2.29088">
        <ele>102.3</ele>
        <time>2023-02-01T13:09:35Z</time>
      </trkpt>
      <trkpt lat="49.78079" lon="2.29087">
        <ele>102.4</ele>
        <time>2023-02-01T13:09:36Z</time>
      </trkpt>
      <trkpt lat="49.78077" lon="2.29085">
        <ele>102.5</ele>
        <time>2023-02-01T13:09:37Z</time>
      </trkpt>
      <trkpt lat="49.78077" lon="2.29084">
        <ele>102.6</ele>
        <time>2023-02-01T13:09:38Z</time>
      </trkpt>
      <trkpt lat="49.78076" lon="2.29084">
        <ele>102.6</ele>
        <time>2023-02-01T13:09:39Z</time>
      </trkpt>
      <trkpt lat="49.78074" lon="2.29082">
        <ele>102.8</ele>
        <time>2023-02-01T13:09:40Z</time>
      </trkpt>
      <trkpt lat="49.78073" lon="2.29081">
        <ele>102.8</ele>
        <time>2023-02-01T13:09:41Z</time>
      </trkpt>
      <trkpt lat="49.78072" lon="2.2908">
        <ele>102.9</ele>
        <time>2023-02-01T13:09:42Z</time>
      </trkpt>
      <trkpt lat="49.78072" lon="2.2908">
        <ele>102.9</ele>
        <time>2023-02-01T13:09:44Z</time>
      </trkpt>
      <trkpt lat="49.78071" lon="2.29079">
        <ele>103</ele>
        <time>2023-02-01T13:09:45Z</time>
      </trkpt>
      <trkpt lat="49.78069" lon="2.29078">
        <ele>103.1</ele>
        <time>2023-02-01T13:09:46Z</time>
      </trkpt>
      <trkpt lat="49.78067" lon="2.29076">
        <ele>103.2</ele>
        <time>2023-02-01T13:09:47Z</time>
      </trkpt>
      <trkpt lat="49.78067" lon="2.29075">
        <ele>103.3</ele>
        <time>2023-02-01T13:09:48Z</time>
      </trkpt>
      <trkpt lat="49.78066" lon="2.29074">
        <ele>103.3</ele>
        <time>2023-02-01T13:09:49Z</time>
      </trkpt>
      <trkpt lat="49.78066" lon="2.29074">
        <ele>103.3</ele>
        <time>2023-02-01T13:09:50Z</time>
      </trkpt>
      <trkpt lat="49.78065" lon="2.29073">
        <ele>103.4</ele>
        <time>2023-02-01T13:09:52Z</time>
      </trkpt>
      <trkpt lat="49.78063" lon="2.29072">
        <ele>103.5</ele>
        <time>2023-02-01T13:09:53Z</time>
      </trkpt>
      <trkpt lat="49.78063" lon="2.2907">
        <ele>103.5</ele>
        <time>2023-02-01T13:09:54Z</time>
      </trkpt>
      <trkpt lat="49.78062" lon="2.29069">
        <ele>103.5</ele>
        <time>2023-02-01T13:09:55Z</time>
      </trkpt>
      <trkpt lat="49.78061" lon="2.29068">
        <ele>103.6</ele>
        <time>2023-02-01T13:09:56Z</time>
      </trkpt>
      <trkpt lat="49.78059" lon="2.29065">
        <ele>103.7</ele>
        <time>2023-02-01T13:09:57Z</time>
      </trkpt>
      <trkpt lat="49.78059" lon="2.29065">
        <ele>103.7</ele>
        <time>2023-02-01T13:09:58Z</time>
      </trkpt>
      <trkpt lat="49.78058" lon="2.29064">
        <ele>103.7</ele>
        <time>2023-02-01T13:09:59Z</time>
      </trkpt>
      <trkpt lat="49.78057" lon="2.29061">
        <ele>103.8</ele>
        <time>2023-02-01T13:10:00Z</time>
      </trkpt>
      <trkpt lat="49.78056" lon="2.2906">
        <ele>103.8</ele>
        <time>2023-02-01T13:10:02Z</time>
      </trkpt>
      <trkpt lat="49.78055" lon="2.29059">
        <ele>103.9</ele>
        <time>2023-02-01T13:10:03Z</time>
      </trkpt>
      <trkpt lat="49.78055" lon="2.29058">
        <ele>103.9</ele>
        <time>2023-02-01T13:10:04Z</time>
      </trkpt>
      <trkpt lat="49.78054" lon="2.29057">
        <ele>103.9</ele>
        <time>2023-02-01T13:10:05Z</time>
      </trkpt>
      <trkpt lat="49.78053" lon="2.29055">
        <ele>104</ele>
        <time>2023-02-01T13:10:06Z</time>
      </trkpt>
      <trkpt lat="49.78052" lon="2.29054">
        <ele>104</ele>
        <time>2023-02-01T13:10:07Z</time>
      </trkpt>
      <trkpt lat="49.78051" lon="2.29052">
        <ele>104.1</ele>
        <time>2023-02-01T13:10:08Z</time>
      </trkpt>
      <trkpt lat="49.7805" lon="2.29052">
        <ele>104.1</ele>
        <time>2023-02-01T13:10:09Z</time>
      </trkpt>
      <trkpt lat="49.78049" lon="2.29051">
        <ele>104.2</ele>
        <time>2023-02-01T13:10:11Z</time>
      </trkpt>
      <trkpt lat="49.78048" lon="2.29049">
        <ele>104.2</ele>
        <time>2023-02-01T13:10:12Z</time>
      </trkpt>
      <trkpt lat="49.78047" lon="2.29048">
        <ele>104.3</ele>
        <time>2023-02-01T13:10:13Z</time>
      </trkpt>
      <trkpt lat="49.78046" lon="2.29047">
        <ele>104.3</ele>
        <time>2023-02-01T13:10:14Z</time>
      </trkpt>
      <trkpt lat="49.78045" lon="2.29045">
        <ele>104.3</ele>
        <time>2023-02-01T13:10:15Z</time>
      </trkpt>
      <trkpt lat="49.78044" lon="2.29044">
        <ele>104.4</ele>
        <time>2023-02-01T13:10:16Z</time>
      </trkpt>
      <trkpt lat="49.78043" lon="2.29044">
        <ele>104.4</ele>
        <time>2023-02-01T13:10:17Z</time>
      </trkpt>
      <trkpt lat="49.78042" lon="2.29043">
        <ele>104.4</ele>
        <time>2023-02-01T13:10:19Z</time>
      </trkpt>
      <trkpt lat="49.78041" lon="2.29042">
        <ele>104.4</ele>
        <time>2023-02-01T13:10:20Z</time>
      </trkpt>
      <trkpt lat="49.7804" lon="2.29042">
        <ele>104.4</ele>
        <time>2023-02-01T13:10:21Z</time>
      </trkpt>
      <trkpt lat="49.78039" lon="2.29041">
        <ele>104.4</ele>
        <time>2023-02-01T13:10:22Z</time>
      </trkpt>
      <trkpt lat="49.78037" lon="2.2904">
        <ele>104.5</ele>
        <time>2023-02-01T13:10:23Z</time>
      </trkpt>
      <trkpt lat="49.78036" lon="2.29039">
        <ele>104.5</ele>
        <time>2023-02-01T13:10:24Z</time>
      </trkpt>
      <trkpt lat="49.78035" lon="2.29038">
        <ele>104.5</ele>
        <time>2023-02-01T13:10:26Z</time>
      </trkpt>
      <trkpt lat="49.78034" lon="2.29037">
        <ele>104.5</ele>
        <time>2023-02-01T13:10:27Z</time>
      </trkpt>
      <trkpt lat="49.78032" lon="2.29036">
        <ele>104.5</ele>
        <time>2023-02-01T13:10:28Z</time>
      </trkpt>
      <trkpt lat="49.78031" lon="2.29035">
        <ele>104.5</ele>
        <time>2023-02-01T13:10:29Z</time>
      </trkpt>
      <trkpt lat="49.78031" lon="2.29035">
        <ele>104.5</ele>
        <time>2023-02-01T13:10:30Z</time>
      </trkpt>
      <trkpt lat="49.78029" lon="2.29034">
        <ele>104.5</ele>
        <time>2023-02-01T13:10:31Z</time>
      </trkpt>
      <trkpt lat="49.78028" lon="2.29033">
        <ele>104.5</ele>
        <time>2023-02-01T13:10:32Z</time>
      </trkpt>
      <trkpt lat="49.78027" lon="2.29032">
        <ele>104.5</ele>
        <time>2023-02-01T13:10:34Z</time>
      </trkpt>
      <trkpt lat="49.78026" lon="2.29032">
        <ele>104.5</ele>
        <time>2023-02-01T13:10:35Z</time>
      </trkpt>
      <trkpt lat="49.78025" lon="2.29031">
        <ele>104.5</ele>
        <time>2023-02-01T13:10:36Z</time>
      </trkpt>
      <trkpt lat="49.78023" lon="2.2903">
        <ele>104.5</ele>
        <time>2023-02-01T13:10:37Z</time>
      </trkpt>
      <trkpt lat="49.78022" lon="2.29029">
        <ele>104.5</ele>
        <time>2023-02-01T13:10:38Z</time>
      </trkpt>
      <trkpt lat="49.78021" lon="2.29029">
        <ele>104.5</ele>
        <time>2023-02-01T13:10:39Z</time>
      </trkpt>
      <trkpt lat="49.7802" lon="2.29027">
        <ele>104.5</ele>
        <time>2023-02-01T13:10:40Z</time>
      </trkpt>
      <trkpt lat="49.78019" lon="2.29026">
        <ele>104.5</ele>
        <time>2023-02-01T13:10:42Z</time>
      </trkpt>
      <trkpt lat="49.78018" lon="2.29026">
        <ele>104.5</ele>
        <time>2023-02-01T13:10:43Z</time>
      </trkpt>
      <trkpt lat="49.78017" lon="2.29025">
        <ele>104.6</ele>
        <time>2023-02-01T13:10:44Z</time>
      </trkpt>
      <trkpt lat="49.78017" lon="2.29024">
        <ele>104.6</ele>
        <time>2023-02-01T13:10:45Z</time>
      </trkpt>
      <trkpt lat="49.78016" lon="2.29023">
        <ele>104.6</ele>
        <time>2023-02-01T13:10:46Z</time>
      </trkpt>
      <trkpt lat="49.78015" lon="2.29022">
        <ele>104.6</ele>
        <time>2023-02-01T13:10:47Z</time>
      </trkpt>
      <trkpt lat="49.78014" lon="2.29021">
        <ele>104.7</ele>
        <time>2023-02-01T13:10:49Z</time>
      </trkpt>
      <trkpt lat="49.78013" lon="2.2902">
        <ele>104.7</ele>
        <time>2023-02-01T13:10:50Z</time>
      </trkpt>
      <trkpt lat="49.78011" lon="2.29018">
        <ele>104.7</ele>
        <time>2023-02-01T13:10:51Z</time>
      </trkpt>
      <trkpt lat="49.7801" lon="2.29017">
        <ele>104.7</ele>
        <time>2023-02-01T13:10:52Z</time>
      </trkpt>
      <trkpt lat="49.7801" lon="2.29016">
        <ele>104.8</ele>
        <time>2023-02-01T13:10:53Z</time>
      </trkpt>
      <trkpt lat="49.78009" lon="2.29015">
        <ele>104.8</ele>
        <time>2023-02-01T13:10:54Z</time>
      </trkpt>
      <trkpt lat="49.78008" lon="2.29014">
        <ele>104.8</ele>
        <time>2023-02-01T13:10:55Z</time>
      </trkpt>
      <trkpt lat="49.78007" lon="2.29013">
        <ele>104.8</ele>
        <time>2023-02-01T13:10:57Z</time>
      </trkpt>
      <trkpt lat="49.78006" lon="2.29011">
        <ele>104.9</ele>
        <time>2023-02-01T13:10:58Z</time>
      </trkpt>
      <trkpt lat="49.78005" lon="2.29011">
        <ele>104.9</ele>
        <time>2023-02-01T13:10:59Z</time>
      </trkpt>
      <trkpt lat="49.78004" lon="2.2901">
        <ele>104.9</ele>
        <time>2023-02-01T13:11:00Z</time>
      </trkpt>
      <trkpt lat="49.78003" lon="2.29007">
        <ele>105</ele>
        <time>2023-02-01T13:11:01Z</time>
      </trkpt>
      <trkpt lat="49.78002" lon="2.29006">
        <ele>105</ele>
        <time>2023-02-01T13:11:02Z</time>
      </trkpt>
      <trkpt lat="49.78001" lon="2.29005">
        <ele>105</ele>
        <time>2023-02-01T13:11:03Z</time>
      </trkpt>
      <trkpt lat="49.78" lon="2.29003">
        <ele>105</ele>
        <time>2023-02-01T13:11:04Z</time>
      </trkpt>
      <trkpt lat="49.77999" lon="2.29003">
        <ele>105</ele>
        <time>2023-02-01T13:11:06Z</time>
      </trkpt>
      <trkpt lat="49.77998" lon="2.29002">
        <ele>105</ele>
        <time>2023-02-01T13:11:07Z</time>
      </trkpt>
      <trkpt lat="49.77996" lon="2.28999">
        <ele>105.1</ele>
        <time>2023-02-01T13:11:08Z</time>
      </trkpt>
      <trkpt lat="49.77995" lon="2.28998">
        <ele>105.1</ele>
        <time>2023-02-01T13:11:10Z</time>
      </trkpt>
      <trkpt lat="49.77994" lon="2.28997">
        <ele>105.1</ele>
        <time>2023-02-01T13:11:11Z</time>
      </trkpt>
      <trkpt lat="49.77993" lon="2.28996">
        <ele>105.1</ele>
        <time>2023-02-01T13:11:12Z</time>
      </trkpt>
      <trkpt lat="49.77992" lon="2.28994">
        <ele>105.1</ele>
        <time>2023-02-01T13:11:13Z</time>
      </trkpt>
      <trkpt lat="49.77992" lon="2.28994">
        <ele>105.1</ele>
        <time>2023-02-01T13:11:14Z</time>
      </trkpt>
      <trkpt lat="49.77991" lon="2.28993">
        <ele>105.1</ele>
        <time>2023-02-01T13:11:15Z</time>
      </trkpt>
      <trkpt lat="49.7799" lon="2.28992">
        <ele>105.1</ele>
        <time>2023-02-01T13:11:16Z</time>
      </trkpt>
      <trkpt lat="49.77989" lon="2.2899">
        <ele>105.1</ele>
        <time>2023-02-01T13:11:17Z</time>
      </trkpt>
      <trkpt lat="49.77987" lon="2.28989">
        <ele>105.1</ele>
        <time>2023-02-01T13:11:19Z</time>
      </trkpt>
      <trkpt lat="49.77986" lon="2.28988">
        <ele>105.1</ele>
        <time>2023-02-01T13:11:20Z</time>
      </trkpt>
      <trkpt lat="49.77986" lon="2.28987">
        <ele>105.1</ele>
        <time>2023-02-01T13:11:21Z</time>
      </trkpt>
      <trkpt lat="49.77985" lon="2.28986">
        <ele>105.2</ele>
        <time>2023-02-01T13:11:22Z</time>
      </trkpt>
      <trkpt lat="49.77983" lon="2.28983">
        <ele>105.2</ele>
        <time>2023-02-01T13:11:23Z</time>
      </trkpt>
      <trkpt lat="49.77983" lon="2.28983">
        <ele>105.2</ele>
        <time>2023-02-01T13:11:24Z</time>
      </trkpt>
      <trkpt lat="49.77982" lon="2.28982">
        <ele>105.2</ele>
        <time>2023-02-01T13:11:25Z</time>
      </trkpt>
      <trkpt lat="49.7798" lon="2.2898">
        <ele>105.2</ele>
        <time>2023-02-01T13:11:26Z</time>
      </trkpt>
      <trkpt lat="49.7798" lon="2.28979">
        <ele>105.2</ele>
        <time>2023-02-01T13:11:28Z</time>
      </trkpt>
      <trkpt lat="49.77979" lon="2.28978">
        <ele>105.2</ele>
        <time>2023-02-01T13:11:29Z</time>
      </trkpt>
      <trkpt lat="49.77978" lon="2.28977">
        <ele>105.3</ele>
        <time>2023-02-01T13:11:30Z</time>
      </trkpt>
      <trkpt lat="49.77977" lon="2.28976">
        <ele>105.3</ele>
        <time>2023-02-01T13:11:31Z</time>
      </trkpt>
      <trkpt lat="49.77976" lon="2.28975">
        <ele>105.3</ele>
        <time>2023-02-01T13:11:32Z</time>
      </trkpt>
      <trkpt lat="49.77975" lon="2.28973">
        <ele>105.3</ele>
        <time>2023-02-01T13:11:33Z</time>
      </trkpt>
      <trkpt lat="49.77974" lon="2.28972">
        <ele>105.3</ele>
        <time>2023-02-01T13:11:34Z</time>
      </trkpt>
      <trkpt lat="49.77973" lon="2.28971">
        <ele>105.4</ele>
        <time>2023-02-01T13:11:36Z</time>
      </trkpt>
      <trkpt lat="49.77972" lon="2.2897">
        <ele>105.4</ele>
        <time>2023-02-01T13:11:37Z</time>
      </trkpt>
      <trkpt lat="49.77971" lon="2.28968">
        <ele>105.4</ele>
        <time>2023-02-01T13:11:38Z</time>
      </trkpt>
      <trkpt lat="49.77971" lon="2.28967">
        <ele>105.5</ele>
        <time>2023-02-01T13:11:39Z</time>
      </trkpt>
      <trkpt lat="49.7797" lon="2.28966">
        <ele>105.5</ele>
        <time>2023-02-01T13:11:40Z</time>
      </trkpt>
      <trkpt lat="49.77968" lon="2.28964">
        <ele>105.6</ele>
        <time>2023-02-01T13:11:41Z</time>
      </trkpt>
      <trkpt lat="49.77967" lon="2.28963">
        <ele>105.6</ele>
        <time>2023-02-01T13:11:42Z</time>
      </trkpt>
      <trkpt lat="49.77967" lon="2.28962">
        <ele>105.6</ele>
        <time>2023-02-01T13:11:43Z</time>
      </trkpt>
      <trkpt lat="49.77966" lon="2.28961">
        <ele>105.6</ele>
        <time>2023-02-01T13:11:45Z</time>
      </trkpt>
      <trkpt lat="49.77965" lon="2.2896">
        <ele>105.7</ele>
        <time>2023-02-01T13:11:46Z</time>
      </trkpt>
      <trkpt lat="49.77964" lon="2.28959">
        <ele>105.7</ele>
        <time>2023-02-01T13:11:47Z</time>
      </trkpt>
      <trkpt lat="49.77963" lon="2.28957">
        <ele>105.8</ele>
        <time>2023-02-01T13:11:48Z</time>
      </trkpt>
      <trkpt lat="49.77963" lon="2.28957">
        <ele>105.8</ele>
        <time>2023-02-01T13:11:49Z</time>
      </trkpt>
      <trkpt lat="49.77962" lon="2.28956">
        <ele>105.8</ele>
        <time>2023-02-01T13:11:50Z</time>
      </trkpt>
      <trkpt lat="49.7796" lon="2.28953">
        <ele>105.9</ele>
        <time>2023-02-01T13:11:51Z</time>
      </trkpt>
      <trkpt lat="49.77959" lon="2.28953">
        <ele>105.9</ele>
        <time>2023-02-01T13:11:53Z</time>
      </trkpt>
      <trkpt lat="49.77958" lon="2.28952">
        <ele>105.9</ele>
        <time>2023-02-01T13:11:54Z</time>
      </trkpt>
      <trkpt lat="49.77958" lon="2.28951">
        <ele>106</ele>
        <time>2023-02-01T13:11:55Z</time>
      </trkpt>
      <trkpt lat="49.77957" lon="2.2895">
        <ele>106</ele>
        <time>2023-02-01T13:11:56Z</time>
      </trkpt>
      <trkpt lat="49.77956" lon="2.28949">
        <ele>106</ele>
        <time>2023-02-01T13:11:57Z</time>
      </trkpt>
      <trkpt lat="49.77955" lon="2.28947">
        <ele>106</ele>
        <time>2023-02-01T13:11:58Z</time>
      </trkpt>
      <trkpt lat="49.77954" lon="2.28946">
        <ele>106.1</ele>
        <time>2023-02-01T13:11:59Z</time>
      </trkpt>
      <trkpt lat="49.77952" lon="2.28944">
        <ele>106.1</ele>
        <time>2023-02-01T13:12:01Z</time>
      </trkpt>
      <trkpt lat="49.77951" lon="2.28944">
        <ele>106.1</ele>
        <time>2023-02-01T13:12:02Z</time>
      </trkpt>
      <trkpt lat="49.77951" lon="2.28943">
        <ele>106.2</ele>
        <time>2023-02-01T13:12:03Z</time>
      </trkpt>
      <trkpt lat="49.77949" lon="2.28941">
        <ele>106.2</ele>
        <time>2023-02-01T13:12:04Z</time>
      </trkpt>
      <trkpt lat="49.77948" lon="2.2894">
        <ele>106.3</ele>
        <time>2023-02-01T13:12:05Z</time>
      </trkpt>
      <trkpt lat="49.77948" lon="2.2894">
        <ele>106.3</ele>
        <time>2023-02-01T13:12:06Z</time>
      </trkpt>
      <trkpt lat="49.77946" lon="2.28939">
        <ele>106.3</ele>
        <time>2023-02-01T13:12:07Z</time>
      </trkpt>
      <trkpt lat="49.77945" lon="2.28938">
        <ele>106.4</ele>
        <time>2023-02-01T13:12:09Z</time>
      </trkpt>
      <trkpt lat="49.77944" lon="2.28937">
        <ele>106.4</ele>
        <time>2023-02-01T13:12:10Z</time>
      </trkpt>
      <trkpt lat="49.77944" lon="2.28936">
        <ele>106.5</ele>
        <time>2023-02-01T13:12:11Z</time>
      </trkpt>
      <trkpt lat="49.77943" lon="2.28936">
        <ele>106.5</ele>
        <time>2023-02-01T13:12:12Z</time>
      </trkpt>
      <trkpt lat="49.77941" lon="2.28934">
        <ele>106.6</ele>
        <time>2023-02-01T13:12:13Z</time>
      </trkpt>
      <trkpt lat="49.7794" lon="2.28933">
        <ele>106.6</ele>
        <time>2023-02-01T13:12:14Z</time>
      </trkpt>
      <trkpt lat="49.77939" lon="2.28933">
        <ele>106.7</ele>
        <time>2023-02-01T13:12:16Z</time>
      </trkpt>
      <trkpt lat="49.77938" lon="2.28932">
        <ele>106.7</ele>
        <time>2023-02-01T13:12:17Z</time>
      </trkpt>
      <trkpt lat="49.77937" lon="2.28931">
        <ele>106.8</ele>
        <time>2023-02-01T13:12:18Z</time>
      </trkpt>
      <trkpt lat="49.77936" lon="2.2893">
        <ele>106.9</ele>
        <time>2023-02-01T13:12:19Z</time>
      </trkpt>
      <trkpt lat="49.77935" lon="2.28929">
        <ele>106.9</ele>
        <time>2023-02-01T13:12:20Z</time>
      </trkpt>
      <trkpt lat="49.77934" lon="2.28928">
        <ele>107</ele>
        <time>2023-02-01T13:12:21Z</time>
      </trkpt>
      <trkpt lat="49.77933" lon="2.28927">
        <ele>107</ele>
        <time>2023-02-01T13:12:23Z</time>
      </trkpt>
      <trkpt lat="49.77932" lon="2.28926">
        <ele>107.1</ele>
        <time>2023-02-01T13:12:24Z</time>
      </trkpt>
      <trkpt lat="49.77931" lon="2.28925">
        <ele>107.1</ele>
        <time>2023-02-01T13:12:25Z</time>
      </trkpt>
      <trkpt lat="49.7793" lon="2.28924">
        <ele>107.1</ele>
        <time>2023-02-01T13:12:26Z</time>
      </trkpt>
      <trkpt lat="49.77929" lon="2.28923">
        <ele>107.2</ele>
        <time>2023-02-01T13:12:27Z</time>
      </trkpt>
      <trkpt lat="49.77927" lon="2.28922">
        <ele>107.2</ele>
        <time>2023-02-01T13:12:28Z</time>
      </trkpt>
      <trkpt lat="49.77927" lon="2.28921">
        <ele>107.3</ele>
        <time>2023-02-01T13:12:29Z</time>
      </trkpt>
      <trkpt lat="49.77926" lon="2.2892">
        <ele>107.3</ele>
        <time>2023-02-01T13:12:31Z</time>
      </trkpt>
      <trkpt lat="49.77925" lon="2.28919">
        <ele>107.3</ele>
        <time>2023-02-01T13:12:32Z</time>
      </trkpt>
      <trkpt lat="49.77924" lon="2.28918">
        <ele>107.3</ele>
        <time>2023-02-01T13:12:33Z</time>
      </trkpt>
      <trkpt lat="49.77923" lon="2.28917">
        <ele>107.4</ele>
        <time>2023-02-01T13:12:34Z</time>
      </trkpt>
      <trkpt lat="49.77922" lon="2.28916">
        <ele>107.4</ele>
        <time>2023-02-01T13:12:35Z</time>
      </trkpt>
      <trkpt lat="49.77921" lon="2.28915">
        <ele>107.4</ele>
        <time>2023-02-01T13:12:36Z</time>
      </trkpt>
      <trkpt lat="49.7792" lon="2.28914">
        <ele>107.5</ele>
        <time>2023-02-01T13:12:37Z</time>
      </trkpt>
      <trkpt lat="49.77918" lon="2.28913">
        <ele>107.5</ele>
        <time>2023-02-01T13:12:39Z</time>
      </trkpt>
      <trkpt lat="49.77918" lon="2.28912">
        <ele>107.5</ele>
        <time>2023-02-01T13:12:40Z</time>
      </trkpt>
      <trkpt lat="49.77917" lon="2.28911">
        <ele>107.5</ele>
        <time>2023-02-01T13:12:41Z</time>
      </trkpt>
      <trkpt lat="49.77916" lon="2.2891">
        <ele>107.6</ele>
        <time>2023-02-01T13:12:42Z</time>
      </trkpt>
      <trkpt lat="49.77915" lon="2.28909">
        <ele>107.6</ele>
        <time>2023-02-01T13:12:43Z</time>
      </trkpt>
      <trkpt lat="49.77913" lon="2.28908">
        <ele>107.7</ele>
        <time>2023-02-01T13:12:45Z</time>
      </trkpt>
      <trkpt lat="49.77912" lon="2.28906">
        <ele>107.7</ele>
        <time>2023-02-01T13:12:46Z</time>
      </trkpt>
      <trkpt lat="49.7791" lon="2.28905">
        <ele>107.7</ele>
        <time>2023-02-01T13:12:48Z</time>
      </trkpt>
      <trkpt lat="49.77909" lon="2.28904">
        <ele>107.8</ele>
        <time>2023-02-01T13:12:49Z</time>
      </trkpt>
      <trkpt lat="49.77908" lon="2.28903">
        <ele>107.8</ele>
        <time>2023-02-01T13:12:50Z</time>
      </trkpt>
      <trkpt lat="49.77907" lon="2.28902">
        <ele>107.8</ele>
        <time>2023-02-01T13:12:51Z</time>
      </trkpt>
      <trkpt lat="49.77906" lon="2.28901">
        <ele>107.9</ele>
        <time>2023-02-01T13:12:52Z</time>
      </trkpt>
      <trkpt lat="49.77905" lon="2.28899">
        <ele>107.9</ele>
        <time>2023-02-01T13:12:53Z</time>
      </trkpt>
      <trkpt lat="49.77904" lon="2.28898">
        <ele>107.9</ele>
        <time>2023-02-01T13:12:54Z</time>
      </trkpt>
      <trkpt lat="49.77904" lon="2.28897">
        <ele>108</ele>
        <time>2023-02-01T13:12:56Z</time>
      </trkpt>
      <trkpt lat="49.77903" lon="2.28896">
        <ele>108</ele>
        <time>2023-02-01T13:12:57Z</time>
      </trkpt>
      <trkpt lat="49.77902" lon="2.28895">
        <ele>108</ele>
        <time>2023-02-01T13:12:58Z</time>
      </trkpt>
      <trkpt lat="49.77901" lon="2.28893">
        <ele>108</ele>
        <time>2023-02-01T13:12:59Z</time>
      </trkpt>
      <trkpt lat="49.779" lon="2.28892">
        <ele>108</ele>
        <time>2023-02-01T13:13:00Z</time>
      </trkpt>
      <trkpt lat="49.77899" lon="2.2889">
        <ele>108</ele>
        <time>2023-02-01T13:13:01Z</time>
      </trkpt>
      <trkpt lat="49.77898" lon="2.28889">
        <ele>108</ele>
        <time>2023-02-01T13:13:03Z</time>
      </trkpt>
      <trkpt lat="49.77897" lon="2.28888">
        <ele>108.1</ele>
        <time>2023-02-01T13:13:04Z</time>
      </trkpt>
      <trkpt lat="49.77896" lon="2.28887">
        <ele>108.1</ele>
        <time>2023-02-01T13:13:05Z</time>
      </trkpt>
      <trkpt lat="49.77896" lon="2.28887">
        <ele>108.1</ele>
        <time>2023-02-01T13:13:06Z</time>
      </trkpt>
      <trkpt lat="49.77895" lon="2.28886">
        <ele>108.1</ele>
        <time>2023-02-01T13:13:07Z</time>
      </trkpt>
      <trkpt lat="49.77894" lon="2.28885">
        <ele>108.1</ele>
        <time>2023-02-01T13:13:08Z</time>
      </trkpt>
      <trkpt lat="49.77892" lon="2.28884">
        <ele>108.1</ele>
        <time>2023-02-01T13:13:10Z</time>
      </trkpt>
      <trkpt lat="49.77891" lon="2.28883">
        <ele>108.1</ele>
        <time>2023-02-01T13:13:11Z</time>
      </trkpt>
      <trkpt lat="49.7789" lon="2.28882">
        <ele>108.1</ele>
        <time>2023-02-01T13:13:12Z</time>
      </trkpt>
      <trkpt lat="49.77889" lon="2.28881">
        <ele>108</ele>
        <time>2023-02-01T13:13:13Z</time>
      </trkpt>
      <trkpt lat="49.77887" lon="2.28879">
        <ele>108</ele>
        <time>2023-02-01T13:13:14Z</time>
      </trkpt>
      <trkpt lat="49.77886" lon="2.28879">
        <ele>108</ele>
        <time>2023-02-01T13:13:15Z</time>
      </trkpt>
      <trkpt lat="49.77886" lon="2.28878">
        <ele>108</ele>
        <time>2023-02-01T13:13:16Z</time>
      </trkpt>
      <trkpt lat="49.77884" lon="2.28876">
        <ele>108</ele>
        <time>2023-02-01T13:13:17Z</time>
      </trkpt>
      <trkpt lat="49.77883" lon="2.28875">
        <ele>108</ele>
        <time>2023-02-01T13:13:18Z</time>
      </trkpt>
      <trkpt lat="49.77882" lon="2.28875">
        <ele>108</ele>
        <time>2023-02-01T13:13:19Z</time>
      </trkpt>
      <trkpt lat="49.77881" lon="2.28874">
        <ele>108</ele>
        <time>2023-02-01T13:13:21Z</time>
      </trkpt>
      <trkpt lat="49.7788" lon="2.28873">
        <ele>108</ele>
        <time>2023-02-01T13:13:22Z</time>
      </trkpt>
      <trkpt lat="49.77879" lon="2.28872">
        <ele>108</ele>
        <time>2023-02-01T13:13:23Z</time>
      </trkpt>
      <trkpt lat="49.77878" lon="2.28871">
        <ele>107.9</ele>
        <time>2023-02-01T13:13:24Z</time>
      </trkpt>
      <trkpt lat="49.77877" lon="2.2887">
        <ele>107.9</ele>
        <time>2023-02-01T13:13:25Z</time>
      </trkpt>
      <trkpt lat="49.77876" lon="2.28869">
        <ele>107.9</ele>
        <time>2023-02-01T13:13:26Z</time>
      </trkpt>
      <trkpt lat="49.77875" lon="2.28868">
        <ele>107.9</ele>
        <time>2023-02-01T13:13:27Z</time>
      </trkpt>
      <trkpt lat="49.77873" lon="2.28867">
        <ele>107.9</ele>
        <time>2023-02-01T13:13:28Z</time>
      </trkpt>
      <trkpt lat="49.77872" lon="2.28867">
        <ele>107.9</ele>
        <time>2023-02-01T13:13:30Z</time>
      </trkpt>
      <trkpt lat="49.77871" lon="2.28866">
        <ele>107.9</ele>
        <time>2023-02-01T13:13:31Z</time>
      </trkpt>
      <trkpt lat="49.7787" lon="2.28865">
        <ele>107.9</ele>
        <time>2023-02-01T13:13:32Z</time>
      </trkpt>
      <trkpt lat="49.7787" lon="2.28865">
        <ele>107.9</ele>
        <time>2023-02-01T13:13:33Z</time>
      </trkpt>
      <trkpt lat="49.77868" lon="2.28864">
        <ele>107.9</ele>
        <time>2023-02-01T13:13:34Z</time>
      </trkpt>
      <trkpt lat="49.77867" lon="2.28863">
        <ele>107.9</ele>
        <time>2023-02-01T13:13:35Z</time>
      </trkpt>
      <trkpt lat="49.77866" lon="2.28862">
        <ele>107.9</ele>
        <time>2023-02-01T13:13:36Z</time>
      </trkpt>
      <trkpt lat="49.77865" lon="2.28861">
        <ele>107.9</ele>
        <time>2023-02-01T13:13:37Z</time>
      </trkpt>
      <trkpt lat="49.77864" lon="2.2886">
        <ele>107.9</ele>
        <time>2023-02-01T13:13:39Z</time>
      </trkpt>
      <trkpt lat="49.77863" lon="2.28859">
        <ele>107.9</ele>
        <time>2023-02-01T13:13:40Z</time>
      </trkpt>
      <trkpt lat="49.77862" lon="2.28858">
        <ele>107.9</ele>
        <time>2023-02-01T13:13:41Z</time>
      </trkpt>
      <trkpt lat="49.77861" lon="2.28857">
        <ele>107.9</ele>
        <time>2023-02-01T13:13:42Z</time>
      </trkpt>
      <trkpt lat="49.7786" lon="2.28855">
        <ele>107.9</ele>
        <time>2023-02-01T13:13:43Z</time>
      </trkpt>
      <trkpt lat="49.77859" lon="2.28854">
        <ele>107.9</ele>
        <time>2023-02-01T13:13:44Z</time>
      </trkpt>
      <trkpt lat="49.77858" lon="2.28853">
        <ele>108</ele>
        <time>2023-02-01T13:13:45Z</time>
      </trkpt>
      <trkpt lat="49.77857" lon="2.28851">
        <ele>108</ele>
        <time>2023-02-01T13:13:46Z</time>
      </trkpt>
      <trkpt lat="49.77856" lon="2.2885">
        <ele>108</ele>
        <time>2023-02-01T13:13:47Z</time>
      </trkpt>
      <trkpt lat="49.77855" lon="2.28848">
        <ele>108</ele>
        <time>2023-02-01T13:13:49Z</time>
      </trkpt>
      <trkpt lat="49.77854" lon="2.28847">
        <ele>108</ele>
        <time>2023-02-01T13:13:50Z</time>
      </trkpt>
      <trkpt lat="49.77853" lon="2.28846">
        <ele>108</ele>
        <time>2023-02-01T13:13:51Z</time>
      </trkpt>
      <trkpt lat="49.77852" lon="2.28844">
        <ele>108</ele>
        <time>2023-02-01T13:13:52Z</time>
      </trkpt>
      <trkpt lat="49.77852" lon="2.28843">
        <ele>108.1</ele>
        <time>2023-02-01T13:13:53Z</time>
      </trkpt>
      <trkpt lat="49.7785" lon="2.28841">
        <ele>108.1</ele>
        <time>2023-02-01T13:13:54Z</time>
      </trkpt>
      <trkpt lat="49.7785" lon="2.2884">
        <ele>108.1</ele>
        <time>2023-02-01T13:13:55Z</time>
      </trkpt>
      <trkpt lat="49.77849" lon="2.28839">
        <ele>108.1</ele>
        <time>2023-02-01T13:13:56Z</time>
      </trkpt>
      <trkpt lat="49.77848" lon="2.28837">
        <ele>108.1</ele>
        <time>2023-02-01T13:13:57Z</time>
      </trkpt>
      <trkpt lat="49.77848" lon="2.28836">
        <ele>108.1</ele>
        <time>2023-02-01T13:13:58Z</time>
      </trkpt>
      <trkpt lat="49.77847" lon="2.28834">
        <ele>108.2</ele>
        <time>2023-02-01T13:14:00Z</time>
      </trkpt>
      <trkpt lat="49.77846" lon="2.28832">
        <ele>108.2</ele>
        <time>2023-02-01T13:14:01Z</time>
      </trkpt>
      <trkpt lat="49.77845" lon="2.2883">
        <ele>108.2</ele>
        <time>2023-02-01T13:14:02Z</time>
      </trkpt>
      <trkpt lat="49.77844" lon="2.28829">
        <ele>108.2</ele>
        <time>2023-02-01T13:14:03Z</time>
      </trkpt>
      <trkpt lat="49.77844" lon="2.28828">
        <ele>108.2</ele>
        <time>2023-02-01T13:14:04Z</time>
      </trkpt>
      <trkpt lat="49.77843" lon="2.28827">
        <ele>108.3</ele>
        <time>2023-02-01T13:14:05Z</time>
      </trkpt>
      <trkpt lat="49.77842" lon="2.28826">
        <ele>108.3</ele>
        <time>2023-02-01T13:14:06Z</time>
      </trkpt>
      <trkpt lat="49.77841" lon="2.28824">
        <ele>108.3</ele>
        <time>2023-02-01T13:14:07Z</time>
      </trkpt>
      <trkpt lat="49.7784" lon="2.28822">
        <ele>108.4</ele>
        <time>2023-02-01T13:14:09Z</time>
      </trkpt>
      <trkpt lat="49.7784" lon="2.28821">
        <ele>108.4</ele>
        <time>2023-02-01T13:14:10Z</time>
      </trkpt>
      <trkpt lat="49.77839" lon="2.2882">
        <ele>108.4</ele>
        <time>2023-02-01T13:14:11Z</time>
      </trkpt>
      <trkpt lat="49.77838" lon="2.28818">
        <ele>108.4</ele>
        <time>2023-02-01T13:14:12Z</time>
      </trkpt>
      <trkpt lat="49.77837" lon="2.28817">
        <ele>108.4</ele>
        <time>2023-02-01T13:14:13Z</time>
      </trkpt>
      <trkpt lat="49.77837" lon="2.28816">
        <ele>108.5</ele>
        <time>2023-02-01T13:14:14Z</time>
      </trkpt>
      <trkpt lat="49.77835" lon="2.28814">
        <ele>108.5</ele>
        <time>2023-02-01T13:14:15Z</time>
      </trkpt>
      <trkpt lat="49.77834" lon="2.28813">
        <ele>108.5</ele>
        <time>2023-02-01T13:14:16Z</time>
      </trkpt>
      <trkpt lat="49.77834" lon="2.28812">
        <ele>108.5</ele>
        <time>2023-02-01T13:14:17Z</time>
      </trkpt>
      <trkpt lat="49.77832" lon="2.28811">
        <ele>108.5</ele>
        <time>2023-02-01T13:14:19Z</time>
      </trkpt>
      <trkpt lat="49.77831" lon="2.2881">
        <ele>108.6</ele>
        <time>2023-02-01T13:14:20Z</time>
      </trkpt>
      <trkpt lat="49.7783" lon="2.28809">
        <ele>108.6</ele>
        <time>2023-02-01T13:14:21Z</time>
      </trkpt>
      <trkpt lat="49.77829" lon="2.28808">
        <ele>108.6</ele>
        <time>2023-02-01T13:14:22Z</time>
      </trkpt>
      <trkpt lat="49.77828" lon="2.28807">
        <ele>108.6</ele>
        <time>2023-02-01T13:14:23Z</time>
      </trkpt>
      <trkpt lat="49.77827" lon="2.28806">
        <ele>108.6</ele>
        <time>2023-02-01T13:14:24Z</time>
      </trkpt>
      <trkpt lat="49.77826" lon="2.28805">
        <ele>108.6</ele>
        <time>2023-02-01T13:14:25Z</time>
      </trkpt>
      <trkpt lat="49.77824" lon="2.28804">
        <ele>108.6</ele>
        <time>2023-02-01T13:14:26Z</time>
      </trkpt>
      <trkpt lat="49.77823" lon="2.28803">
        <ele>108.6</ele>
        <time>2023-02-01T13:14:28Z</time>
      </trkpt>
      <trkpt lat="49.77822" lon="2.28803">
        <ele>108.6</ele>
        <time>2023-02-01T13:14:29Z</time>
      </trkpt>
      <trkpt lat="49.77821" lon="2.28801">
        <ele>108.6</ele>
        <time>2023-02-01T13:14:30Z</time>
      </trkpt>
      <trkpt lat="49.7782" lon="2.288">
        <ele>108.6</ele>
        <time>2023-02-01T13:14:31Z</time>
      </trkpt>
      <trkpt lat="49.77819" lon="2.288">
        <ele>108.6</ele>
        <time>2023-02-01T13:14:32Z</time>
      </trkpt>
      <trkpt lat="49.77818" lon="2.28799">
        <ele>108.6</ele>
        <time>2023-02-01T13:14:33Z</time>
      </trkpt>
      <trkpt lat="49.77817" lon="2.28797">
        <ele>108.6</ele>
        <time>2023-02-01T13:14:34Z</time>
      </trkpt>
      <trkpt lat="49.77816" lon="2.28796">
        <ele>108.6</ele>
        <time>2023-02-01T13:14:35Z</time>
      </trkpt>
      <trkpt lat="49.77815" lon="2.28795">
        <ele>108.6</ele>
        <time>2023-02-01T13:14:37Z</time>
      </trkpt>
      <trkpt lat="49.77814" lon="2.28795">
        <ele>108.6</ele>
        <time>2023-02-01T13:14:38Z</time>
      </trkpt>
      <trkpt lat="49.77813" lon="2.28794">
        <ele>108.6</ele>
        <time>2023-02-01T13:14:39Z</time>
      </trkpt>
      <trkpt lat="49.77812" lon="2.28793">
        <ele>108.6</ele>
        <time>2023-02-01T13:14:40Z</time>
      </trkpt>
      <trkpt lat="49.77811" lon="2.28793">
        <ele>108.6</ele>
        <time>2023-02-01T13:14:41Z</time>
      </trkpt>
      <trkpt lat="49.7781" lon="2.28792">
        <ele>108.6</ele>
        <time>2023-02-01T13:14:42Z</time>
      </trkpt>
      <trkpt lat="49.77809" lon="2.28791">
        <ele>108.6</ele>
        <time>2023-02-01T13:14:43Z</time>
      </trkpt>
      <trkpt lat="49.77807" lon="2.2879">
        <ele>108.6</ele>
        <time>2023-02-01T13:14:45Z</time>
      </trkpt>
      <trkpt lat="49.77806" lon="2.28789">
        <ele>108.6</ele>
        <time>2023-02-01T13:14:46Z</time>
      </trkpt>
      <trkpt lat="49.77805" lon="2.28788">
        <ele>108.6</ele>
        <time>2023-02-01T13:14:47Z</time>
      </trkpt>
      <trkpt lat="49.77804" lon="2.28787">
        <ele>108.6</ele>
        <time>2023-02-01T13:14:48Z</time>
      </trkpt>
      <trkpt lat="49.77802" lon="2.28786">
        <ele>108.6</ele>
        <time>2023-02-01T13:14:49Z</time>
      </trkpt>
      <trkpt lat="49.77802" lon="2.28785">
        <ele>108.6</ele>
        <time>2023-02-01T13:14:50Z</time>
      </trkpt>
      <trkpt lat="49.77801" lon="2.28785">
        <ele>108.6</ele>
        <time>2023-02-01T13:14:51Z</time>
      </trkpt>
      <trkpt lat="49.778" lon="2.28784">
        <ele>108.6</ele>
        <time>2023-02-01T13:14:53Z</time>
      </trkpt>
      <trkpt lat="49.77799" lon="2.28783">
        <ele>108.7</ele>
        <time>2023-02-01T13:14:54Z</time>
      </trkpt>
      <trkpt lat="49.77798" lon="2.28782">
        <ele>108.7</ele>
        <time>2023-02-01T13:14:55Z</time>
      </trkpt>
      <trkpt lat="49.77797" lon="2.28781">
        <ele>108.7</ele>
        <time>2023-02-01T13:14:56Z</time>
      </trkpt>
      <trkpt lat="49.77796" lon="2.28781">
        <ele>108.7</ele>
        <time>2023-02-01T13:14:57Z</time>
      </trkpt>
      <trkpt lat="49.77795" lon="2.28779">
        <ele>108.7</ele>
        <time>2023-02-01T13:14:58Z</time>
      </trkpt>
      <trkpt lat="49.77793" lon="2.28777">
        <ele>108.8</ele>
        <time>2023-02-01T13:14:59Z</time>
      </trkpt>
      <trkpt lat="49.77792" lon="2.28776">
        <ele>108.8</ele>
        <time>2023-02-01T13:15:01Z</time>
      </trkpt>
      <trkpt lat="49.77791" lon="2.28775">
        <ele>108.8</ele>
        <time>2023-02-01T13:15:02Z</time>
      </trkpt>
      <trkpt lat="49.77791" lon="2.28775">
        <ele>108.8</ele>
        <time>2023-02-01T13:15:03Z</time>
      </trkpt>
      <trkpt lat="49.7779" lon="2.28774">
        <ele>108.9</ele>
        <time>2023-02-01T13:15:04Z</time>
      </trkpt>
      <trkpt lat="49.77789" lon="2.28773">
        <ele>108.9</ele>
        <time>2023-02-01T13:15:05Z</time>
      </trkpt>
      <trkpt lat="49.77789" lon="2.28772">
        <ele>108.9</ele>
        <time>2023-02-01T13:15:06Z</time>
      </trkpt>
      <trkpt lat="49.77788" lon="2.28771">
        <ele>109</ele>
        <time>2023-02-01T13:15:07Z</time>
      </trkpt>
      <trkpt lat="49.77787" lon="2.28769">
        <ele>109</ele>
        <time>2023-02-01T13:15:09Z</time>
      </trkpt>
      <trkpt lat="49.77786" lon="2.28768">
        <ele>109.1</ele>
        <time>2023-02-01T13:15:10Z</time>
      </trkpt>
      <trkpt lat="49.77785" lon="2.28767">
        <ele>109.1</ele>
        <time>2023-02-01T13:15:11Z</time>
      </trkpt>
      <trkpt lat="49.77784" lon="2.28765">
        <ele>109.2</ele>
        <time>2023-02-01T13:15:12Z</time>
      </trkpt>
      <trkpt lat="49.77783" lon="2.28764">
        <ele>109.2</ele>
        <time>2023-02-01T13:15:13Z</time>
      </trkpt>
      <trkpt lat="49.77783" lon="2.28763">
        <ele>109.3</ele>
        <time>2023-02-01T13:15:14Z</time>
      </trkpt>
      <trkpt lat="49.77782" lon="2.28762">
        <ele>109.3</ele>
        <time>2023-02-01T13:15:16Z</time>
      </trkpt>
      <trkpt lat="49.77781" lon="2.28761">
        <ele>109.4</ele>
        <time>2023-02-01T13:15:17Z</time>
      </trkpt>
      <trkpt lat="49.7778" lon="2.2876">
        <ele>109.4</ele>
        <time>2023-02-01T13:15:18Z</time>
      </trkpt>
      <trkpt lat="49.77779" lon="2.28758">
        <ele>109.5</ele>
        <time>2023-02-01T13:15:19Z</time>
      </trkpt>
      <trkpt lat="49.77778" lon="2.28757">
        <ele>109.6</ele>
        <time>2023-02-01T13:15:20Z</time>
      </trkpt>
      <trkpt lat="49.77777" lon="2.28756">
        <ele>109.6</ele>
        <time>2023-02-01T13:15:21Z</time>
      </trkpt>
      <trkpt lat="49.77776" lon="2.28754">
        <ele>109.7</ele>
        <time>2023-02-01T13:15:23Z</time>
      </trkpt>
      <trkpt lat="49.77775" lon="2.28753">
        <ele>109.8</ele>
        <time>2023-02-01T13:15:24Z</time>
      </trkpt>
      <trkpt lat="49.77774" lon="2.28752">
        <ele>109.8</ele>
        <time>2023-02-01T13:15:25Z</time>
      </trkpt>
      <trkpt lat="49.77774" lon="2.28752">
        <ele>109.9</ele>
        <time>2023-02-01T13:15:26Z</time>
      </trkpt>
      <trkpt lat="49.77773" lon="2.28751">
        <ele>109.9</ele>
        <time>2023-02-01T13:15:27Z</time>
      </trkpt>
      <trkpt lat="49.77772" lon="2.28749">
        <ele>110</ele>
        <time>2023-02-01T13:15:28Z</time>
      </trkpt>
      <trkpt lat="49.77771" lon="2.28748">
        <ele>110</ele>
        <time>2023-02-01T13:15:29Z</time>
      </trkpt>
      <trkpt lat="49.7777" lon="2.28746">
        <ele>110.1</ele>
        <time>2023-02-01T13:15:30Z</time>
      </trkpt>
      <trkpt lat="49.77769" lon="2.28745">
        <ele>110.1</ele>
        <time>2023-02-01T13:15:32Z</time>
      </trkpt>
      <trkpt lat="49.77769" lon="2.28744">
        <ele>110.2</ele>
        <time>2023-02-01T13:15:33Z</time>
      </trkpt>
      <trkpt lat="49.77768" lon="2.28743">
        <ele>110.2</ele>
        <time>2023-02-01T13:15:34Z</time>
      </trkpt>
      <trkpt lat="49.77767" lon="2.28742">
        <ele>110.3</ele>
        <time>2023-02-01T13:15:35Z</time>
      </trkpt>
      <trkpt lat="49.77766" lon="2.28741">
        <ele>110.3</ele>
        <time>2023-02-01T13:15:36Z</time>
      </trkpt>
      <trkpt lat="49.77765" lon="2.2874">
        <ele>110.3</ele>
        <time>2023-02-01T13:15:37Z</time>
      </trkpt>
      <trkpt lat="49.77765" lon="2.28739">
        <ele>110.4</ele>
        <time>2023-02-01T13:15:39Z</time>
      </trkpt>
      <trkpt lat="49.77763" lon="2.28738">
        <ele>110.4</ele>
        <time>2023-02-01T13:15:40Z</time>
      </trkpt>
      <trkpt lat="49.77763" lon="2.28737">
        <ele>110.5</ele>
        <time>2023-02-01T13:15:42Z</time>
      </trkpt>
      <trkpt lat="49.77762" lon="2.28736">
        <ele>110.6</ele>
        <time>2023-02-01T13:15:43Z</time>
      </trkpt>
      <trkpt lat="49.77761" lon="2.28735">
        <ele>110.6</ele>
        <time>2023-02-01T13:15:44Z</time>
      </trkpt>
      <trkpt lat="49.7776" lon="2.28734">
        <ele>110.7</ele>
        <time>2023-02-01T13:15:45Z</time>
      </trkpt>
      <trkpt lat="49.77759" lon="2.28733">
        <ele>110.7</ele>
        <time>2023-02-01T13:15:46Z</time>
      </trkpt>
      <trkpt lat="49.77758" lon="2.28732">
        <ele>110.8</ele>
        <time>2023-02-01T13:15:47Z</time>
      </trkpt>
      <trkpt lat="49.77757" lon="2.2873">
        <ele>110.9</ele>
        <time>2023-02-01T13:15:49Z</time>
      </trkpt>
      <trkpt lat="49.77756" lon="2.28729">
        <ele>110.9</ele>
        <time>2023-02-01T13:15:50Z</time>
      </trkpt>
      <trkpt lat="49.77756" lon="2.28728">
        <ele>111</ele>
        <time>2023-02-01T13:15:51Z</time>
      </trkpt>
      <trkpt lat="49.77755" lon="2.28726">
        <ele>111.1</ele>
        <time>2023-02-01T13:15:52Z</time>
      </trkpt>
      <trkpt lat="49.77754" lon="2.28725">
        <ele>111.2</ele>
        <time>2023-02-01T13:15:53Z</time>
      </trkpt>
      <trkpt lat="49.77753" lon="2.28723">
        <ele>111.3</ele>
        <time>2023-02-01T13:15:55Z</time>
      </trkpt>
      <trkpt lat="49.77753" lon="2.28723">
        <ele>111.3</ele>
        <time>2023-02-01T13:15:56Z</time>
      </trkpt>
      <trkpt lat="49.77752" lon="2.28722">
        <ele>111.4</ele>
        <time>2023-02-01T13:15:57Z</time>
      </trkpt>
      <trkpt lat="49.77752" lon="2.28721">
        <ele>111.5</ele>
        <time>2023-02-01T13:15:58Z</time>
      </trkpt>
      <trkpt lat="49.77751" lon="2.2872">
        <ele>111.5</ele>
        <time>2023-02-01T13:15:59Z</time>
      </trkpt>
      <trkpt lat="49.7775" lon="2.28719">
        <ele>111.6</ele>
        <time>2023-02-01T13:16:00Z</time>
      </trkpt>
      <trkpt lat="49.77749" lon="2.28717">
        <ele>111.7</ele>
        <time>2023-02-01T13:16:01Z</time>
      </trkpt>
      <trkpt lat="49.77749" lon="2.28716">
        <ele>111.8</ele>
        <time>2023-02-01T13:16:02Z</time>
      </trkpt>
      <trkpt lat="49.77747" lon="2.28714">
        <ele>112</ele>
        <time>2023-02-01T13:16:03Z</time>
      </trkpt>
      <trkpt lat="49.77746" lon="2.28713">
        <ele>112.1</ele>
        <time>2023-02-01T13:16:05Z</time>
      </trkpt>
      <trkpt lat="49.77746" lon="2.28712">
        <ele>112.2</ele>
        <time>2023-02-01T13:16:06Z</time>
      </trkpt>
      <trkpt lat="49.77745" lon="2.28711">
        <ele>112.3</ele>
        <time>2023-02-01T13:16:07Z</time>
      </trkpt>
      <trkpt lat="49.77744" lon="2.2871">
        <ele>112.4</ele>
        <time>2023-02-01T13:16:08Z</time>
      </trkpt>
      <trkpt lat="49.77744" lon="2.28709">
        <ele>112.5</ele>
        <time>2023-02-01T13:16:09Z</time>
      </trkpt>
      <trkpt lat="49.77743" lon="2.28708">
        <ele>112.5</ele>
        <time>2023-02-01T13:16:11Z</time>
      </trkpt>
      <trkpt lat="49.77742" lon="2.28708">
        <ele>112.6</ele>
        <time>2023-02-01T13:16:12Z</time>
      </trkpt>
      <trkpt lat="49.77741" lon="2.28707">
        <ele>112.7</ele>
        <time>2023-02-01T13:16:13Z</time>
      </trkpt>
      <trkpt lat="49.77739" lon="2.28705">
        <ele>112.9</ele>
        <time>2023-02-01T13:16:14Z</time>
      </trkpt>
      <trkpt lat="49.77739" lon="2.28705">
        <ele>113</ele>
        <time>2023-02-01T13:16:15Z</time>
      </trkpt>
      <trkpt lat="49.77738" lon="2.28704">
        <ele>113</ele>
        <time>2023-02-01T13:16:16Z</time>
      </trkpt>
      <trkpt lat="49.77736" lon="2.28702">
        <ele>113.2</ele>
        <time>2023-02-01T13:16:18Z</time>
      </trkpt>
      <trkpt lat="49.77735" lon="2.28701">
        <ele>113.3</ele>
        <time>2023-02-01T13:16:19Z</time>
      </trkpt>
      <trkpt lat="49.77734" lon="2.287">
        <ele>113.4</ele>
        <time>2023-02-01T13:16:20Z</time>
      </trkpt>
      <trkpt lat="49.77734" lon="2.28699">
        <ele>113.4</ele>
        <time>2023-02-01T13:16:21Z</time>
      </trkpt>
      <trkpt lat="49.77733" lon="2.28699">
        <ele>113.5</ele>
        <time>2023-02-01T13:16:22Z</time>
      </trkpt>
      <trkpt lat="49.77731" lon="2.28697">
        <ele>113.6</ele>
        <time>2023-02-01T13:16:23Z</time>
      </trkpt>
      <trkpt lat="49.7773" lon="2.28696">
        <ele>113.7</ele>
        <time>2023-02-01T13:16:24Z</time>
      </trkpt>
      <trkpt lat="49.77729" lon="2.28695">
        <ele>113.8</ele>
        <time>2023-02-01T13:16:25Z</time>
      </trkpt>
      <trkpt lat="49.77727" lon="2.28693">
        <ele>114</ele>
        <time>2023-02-01T13:16:27Z</time>
      </trkpt>
      <trkpt lat="49.77727" lon="2.28692">
        <ele>114</ele>
        <time>2023-02-01T13:16:28Z</time>
      </trkpt>
      <trkpt lat="49.77726" lon="2.28691">
        <ele>114.1</ele>
        <time>2023-02-01T13:16:29Z</time>
      </trkpt>
      <trkpt lat="49.77724" lon="2.28689">
        <ele>114.2</ele>
        <time>2023-02-01T13:16:30Z</time>
      </trkpt>
      <trkpt lat="49.77724" lon="2.28689">
        <ele>114.3</ele>
        <time>2023-02-01T13:16:31Z</time>
      </trkpt>
      <trkpt lat="49.77723" lon="2.28688">
        <ele>114.3</ele>
        <time>2023-02-01T13:16:32Z</time>
      </trkpt>
      <trkpt lat="49.77722" lon="2.28687">
        <ele>114.4</ele>
        <time>2023-02-01T13:16:33Z</time>
      </trkpt>
      <trkpt lat="49.77721" lon="2.28685">
        <ele>114.5</ele>
        <time>2023-02-01T13:16:34Z</time>
      </trkpt>
      <trkpt lat="49.7772" lon="2.28684">
        <ele>114.6</ele>
        <time>2023-02-01T13:16:36Z</time>
      </trkpt>
      <trkpt lat="49.77719" lon="2.28683">
        <ele>114.7</ele>
        <time>2023-02-01T13:16:37Z</time>
      </trkpt>
      <trkpt lat="49.77718" lon="2.28682">
        <ele>114.7</ele>
        <time>2023-02-01T13:16:38Z</time>
      </trkpt>
      <trkpt lat="49.77717" lon="2.28681">
        <ele>114.8</ele>
        <time>2023-02-01T13:16:39Z</time>
      </trkpt>
      <trkpt lat="49.77716" lon="2.28679">
        <ele>114.8</ele>
        <time>2023-02-01T13:16:40Z</time>
      </trkpt>
      <trkpt lat="49.77715" lon="2.28678">
        <ele>114.9</ele>
        <time>2023-02-01T13:16:41Z</time>
      </trkpt>
      <trkpt lat="49.77714" lon="2.28676">
        <ele>115</ele>
        <time>2023-02-01T13:16:42Z</time>
      </trkpt>
      <trkpt lat="49.77713" lon="2.28675">
        <ele>115</ele>
        <time>2023-02-01T13:16:44Z</time>
      </trkpt>
      <trkpt lat="49.77712" lon="2.28674">
        <ele>115.1</ele>
        <time>2023-02-01T13:16:45Z</time>
      </trkpt>
      <trkpt lat="49.77712" lon="2.28673">
        <ele>115.1</ele>
        <time>2023-02-01T13:16:46Z</time>
      </trkpt>
      <trkpt lat="49.77711" lon="2.28672">
        <ele>115.1</ele>
        <time>2023-02-01T13:16:47Z</time>
      </trkpt>
      <trkpt lat="49.7771" lon="2.28671">
        <ele>115.1</ele>
        <time>2023-02-01T13:16:48Z</time>
      </trkpt>
      <trkpt lat="49.77709" lon="2.2867">
        <ele>115.2</ele>
        <time>2023-02-01T13:16:49Z</time>
      </trkpt>
      <trkpt lat="49.77708" lon="2.28668">
        <ele>115.2</ele>
        <time>2023-02-01T13:16:50Z</time>
      </trkpt>
      <trkpt lat="49.77708" lon="2.28667">
        <ele>115.2</ele>
        <time>2023-02-01T13:16:52Z</time>
      </trkpt>
      <trkpt lat="49.77707" lon="2.28666">
        <ele>115.2</ele>
        <time>2023-02-01T13:16:53Z</time>
      </trkpt>
      <trkpt lat="49.77706" lon="2.28665">
        <ele>115.2</ele>
        <time>2023-02-01T13:16:54Z</time>
      </trkpt>
      <trkpt lat="49.77705" lon="2.28663">
        <ele>115.3</ele>
        <time>2023-02-01T13:16:55Z</time>
      </trkpt>
      <trkpt lat="49.77704" lon="2.28662">
        <ele>115.3</ele>
        <time>2023-02-01T13:16:56Z</time>
      </trkpt>
      <trkpt lat="49.77704" lon="2.28661">
        <ele>115.3</ele>
        <time>2023-02-01T13:16:57Z</time>
      </trkpt>
      <trkpt lat="49.77703" lon="2.28659">
        <ele>115.3</ele>
        <time>2023-02-01T13:16:58Z</time>
      </trkpt>
      <trkpt lat="49.77702" lon="2.28658">
        <ele>115.3</ele>
        <time>2023-02-01T13:17:00Z</time>
      </trkpt>
      <trkpt lat="49.77701" lon="2.28657">
        <ele>115.3</ele>
        <time>2023-02-01T13:17:01Z</time>
      </trkpt>
      <trkpt lat="49.777" lon="2.28656">
        <ele>115.3</ele>
        <time>2023-02-01T13:17:02Z</time>
      </trkpt>
      <trkpt lat="49.77699" lon="2.28654">
        <ele>115.3</ele>
        <time>2023-02-01T13:17:03Z</time>
      </trkpt>
      <trkpt lat="49.77698" lon="2.28653">
        <ele>115.3</ele>
        <time>2023-02-01T13:17:04Z</time>
      </trkpt>
      <trkpt lat="49.77697" lon="2.28652">
        <ele>115.3</ele>
        <time>2023-02-01T13:17:05Z</time>
      </trkpt>
      <trkpt lat="49.77696" lon="2.28651">
        <ele>115.3</ele>
        <time>2023-02-01T13:17:07Z</time>
      </trkpt>
      <trkpt lat="49.77695" lon="2.2865">
        <ele>115.3</ele>
        <time>2023-02-01T13:17:08Z</time>
      </trkpt>
      <trkpt lat="49.77694" lon="2.28649">
        <ele>115.3</ele>
        <time>2023-02-01T13:17:09Z</time>
      </trkpt>
      <trkpt lat="49.77692" lon="2.28647">
        <ele>115.3</ele>
        <time>2023-02-01T13:17:10Z</time>
      </trkpt>
      <trkpt lat="49.77692" lon="2.28646">
        <ele>115.3</ele>
        <time>2023-02-01T13:17:11Z</time>
      </trkpt>
      <trkpt lat="49.77691" lon="2.28645">
        <ele>115.3</ele>
        <time>2023-02-01T13:17:12Z</time>
      </trkpt>
      <trkpt lat="49.77689" lon="2.28643">
        <ele>115.4</ele>
        <time>2023-02-01T13:17:13Z</time>
      </trkpt>
      <trkpt lat="49.77689" lon="2.28642">
        <ele>115.4</ele>
        <time>2023-02-01T13:17:15Z</time>
      </trkpt>
      <trkpt lat="49.77688" lon="2.28641">
        <ele>115.4</ele>
        <time>2023-02-01T13:17:16Z</time>
      </trkpt>
      <trkpt lat="49.77687" lon="2.2864">
        <ele>115.4</ele>
        <time>2023-02-01T13:17:17Z</time>
      </trkpt>
      <trkpt lat="49.77687" lon="2.28639">
        <ele>115.5</ele>
        <time>2023-02-01T13:17:18Z</time>
      </trkpt>
      <trkpt lat="49.77686" lon="2.28638">
        <ele>115.5</ele>
        <time>2023-02-01T13:17:19Z</time>
      </trkpt>
      <trkpt lat="49.77685" lon="2.28636">
        <ele>115.5</ele>
        <time>2023-02-01T13:17:20Z</time>
      </trkpt>
      <trkpt lat="49.77684" lon="2.28635">
        <ele>115.5</ele>
        <time>2023-02-01T13:17:22Z</time>
      </trkpt>
      <trkpt lat="49.77683" lon="2.28634">
        <ele>115.5</ele>
        <time>2023-02-01T13:17:23Z</time>
      </trkpt>
      <trkpt lat="49.77682" lon="2.28633">
        <ele>115.6</ele>
        <time>2023-02-01T13:17:24Z</time>
      </trkpt>
      <trkpt lat="49.77681" lon="2.28632">
        <ele>115.6</ele>
        <time>2023-02-01T13:17:25Z</time>
      </trkpt>
      <trkpt lat="49.77681" lon="2.28631">
        <ele>115.6</ele>
        <time>2023-02-01T13:17:26Z</time>
      </trkpt>
      <trkpt lat="49.7768" lon="2.28629">
        <ele>115.7</ele>
        <time>2023-02-01T13:17:27Z</time>
      </trkpt>
      <trkpt lat="49.77679" lon="2.28628">
        <ele>115.7</ele>
        <time>2023-02-01T13:17:28Z</time>
      </trkpt>
      <trkpt lat="49.77678" lon="2.28626">
        <ele>115.7</ele>
        <time>2023-02-01T13:17:30Z</time>
      </trkpt>
      <trkpt lat="49.77676" lon="2.28625">
        <ele>115.8</ele>
        <time>2023-02-01T13:17:31Z</time>
      </trkpt>
      <trkpt lat="49.77676" lon="2.28624">
        <ele>115.8</ele>
        <time>2023-02-01T13:17:32Z</time>
      </trkpt>
      <trkpt lat="49.77675" lon="2.28623">
        <ele>115.8</ele>
        <time>2023-02-01T13:17:33Z</time>
      </trkpt>
      <trkpt lat="49.77674" lon="2.28621">
        <ele>115.9</ele>
        <time>2023-02-01T13:17:34Z</time>
      </trkpt>
      <trkpt lat="49.77673" lon="2.2862">
        <ele>115.9</ele>
        <time>2023-02-01T13:17:35Z</time>
      </trkpt>
      <trkpt lat="49.77672" lon="2.28619">
        <ele>116</ele>
        <time>2023-02-01T13:17:36Z</time>
      </trkpt>
      <trkpt lat="49.77671" lon="2.28618">
        <ele>116</ele>
        <time>2023-02-01T13:17:38Z</time>
      </trkpt>
      <trkpt lat="49.7767" lon="2.28616">
        <ele>116.1</ele>
        <time>2023-02-01T13:17:39Z</time>
      </trkpt>
      <trkpt lat="49.77669" lon="2.28615">
        <ele>116.1</ele>
        <time>2023-02-01T13:17:40Z</time>
      </trkpt>
      <trkpt lat="49.77669" lon="2.28613">
        <ele>116.2</ele>
        <time>2023-02-01T13:17:41Z</time>
      </trkpt>
      <trkpt lat="49.77668" lon="2.28612">
        <ele>116.2</ele>
        <time>2023-02-01T13:17:42Z</time>
      </trkpt>
      <trkpt lat="49.77666" lon="2.2861">
        <ele>116.3</ele>
        <time>2023-02-01T13:17:43Z</time>
      </trkpt>
      <trkpt lat="49.77665" lon="2.28609">
        <ele>116.3</ele>
        <time>2023-02-01T13:17:44Z</time>
      </trkpt>
      <trkpt lat="49.77665" lon="2.28608">
        <ele>116.4</ele>
        <time>2023-02-01T13:17:45Z</time>
      </trkpt>
      <trkpt lat="49.77664" lon="2.28607">
        <ele>116.4</ele>
        <time>2023-02-01T13:17:47Z</time>
      </trkpt>
      <trkpt lat="49.77663" lon="2.28605">
        <ele>116.4</ele>
        <time>2023-02-01T13:17:48Z</time>
      </trkpt>
      <trkpt lat="49.77662" lon="2.28604">
        <ele>116.4</ele>
        <time>2023-02-01T13:17:49Z</time>
      </trkpt>
      <trkpt lat="49.77661" lon="2.28602">
        <ele>116.5</ele>
        <time>2023-02-01T13:17:50Z</time>
      </trkpt>
      <trkpt lat="49.7766" lon="2.28602">
        <ele>116.5</ele>
        <time>2023-02-01T13:17:51Z</time>
      </trkpt>
      <trkpt lat="49.7766" lon="2.286">
        <ele>116.5</ele>
        <time>2023-02-01T13:17:52Z</time>
      </trkpt>
      <trkpt lat="49.77659" lon="2.28599">
        <ele>116.5</ele>
        <time>2023-02-01T13:17:53Z</time>
      </trkpt>
      <trkpt lat="49.77658" lon="2.28598">
        <ele>116.5</ele>
        <time>2023-02-01T13:17:55Z</time>
      </trkpt>
      <trkpt lat="49.77657" lon="2.28596">
        <ele>116.5</ele>
        <time>2023-02-01T13:17:56Z</time>
      </trkpt>
      <trkpt lat="49.77657" lon="2.28595">
        <ele>116.5</ele>
        <time>2023-02-01T13:17:57Z</time>
      </trkpt>
      <trkpt lat="49.77656" lon="2.28595">
        <ele>116.5</ele>
        <time>2023-02-01T13:17:58Z</time>
      </trkpt>
      <trkpt lat="49.77655" lon="2.28594">
        <ele>116.6</ele>
        <time>2023-02-01T13:17:59Z</time>
      </trkpt>
      <trkpt lat="49.77654" lon="2.28592">
        <ele>116.6</ele>
        <time>2023-02-01T13:18:00Z</time>
      </trkpt>
      <trkpt lat="49.77653" lon="2.28591">
        <ele>116.6</ele>
        <time>2023-02-01T13:18:01Z</time>
      </trkpt>
      <trkpt lat="49.77651" lon="2.28589">
        <ele>116.6</ele>
        <time>2023-02-01T13:18:03Z</time>
      </trkpt>
      <trkpt lat="49.7765" lon="2.28589">
        <ele>116.6</ele>
        <time>2023-02-01T13:18:04Z</time>
      </trkpt>
      <trkpt lat="49.7765" lon="2.28588">
        <ele>116.6</ele>
        <time>2023-02-01T13:18:05Z</time>
      </trkpt>
      <trkpt lat="49.77648" lon="2.28586">
        <ele>116.6</ele>
        <time>2023-02-01T13:18:06Z</time>
      </trkpt>
      <trkpt lat="49.77647" lon="2.28586">
        <ele>116.7</ele>
        <time>2023-02-01T13:18:07Z</time>
      </trkpt>
      <trkpt lat="49.77646" lon="2.28585">
        <ele>116.7</ele>
        <time>2023-02-01T13:18:08Z</time>
      </trkpt>
      <trkpt lat="49.77645" lon="2.28584">
        <ele>116.7</ele>
        <time>2023-02-01T13:18:09Z</time>
      </trkpt>
      <trkpt lat="49.77644" lon="2.28583">
        <ele>116.7</ele>
        <time>2023-02-01T13:18:10Z</time>
      </trkpt>
      <trkpt lat="49.77643" lon="2.28582">
        <ele>116.7</ele>
        <time>2023-02-01T13:18:11Z</time>
      </trkpt>
      <trkpt lat="49.77642" lon="2.28581">
        <ele>116.7</ele>
        <time>2023-02-01T13:18:13Z</time>
      </trkpt>
      <trkpt lat="49.77641" lon="2.2858">
        <ele>116.7</ele>
        <time>2023-02-01T13:18:14Z</time>
      </trkpt>
      <trkpt lat="49.7764" lon="2.28577">
        <ele>116.8</ele>
        <time>2023-02-01T13:18:15Z</time>
      </trkpt>
      <trkpt lat="49.77639" lon="2.28576">
        <ele>116.8</ele>
        <time>2023-02-01T13:18:16Z</time>
      </trkpt>
      <trkpt lat="49.77639" lon="2.28575">
        <ele>116.8</ele>
        <time>2023-02-01T13:18:17Z</time>
      </trkpt>
      <trkpt lat="49.77637" lon="2.28573">
        <ele>116.8</ele>
        <time>2023-02-01T13:18:18Z</time>
      </trkpt>
      <trkpt lat="49.77637" lon="2.28572">
        <ele>116.8</ele>
        <time>2023-02-01T13:18:20Z</time>
      </trkpt>
      <trkpt lat="49.77636" lon="2.28571">
        <ele>116.9</ele>
        <time>2023-02-01T13:18:21Z</time>
      </trkpt>
      <trkpt lat="49.77635" lon="2.2857">
        <ele>116.9</ele>
        <time>2023-02-01T13:18:22Z</time>
      </trkpt>
      <trkpt lat="49.77635" lon="2.28569">
        <ele>116.9</ele>
        <time>2023-02-01T13:18:23Z</time>
      </trkpt>
      <trkpt lat="49.77634" lon="2.28567">
        <ele>116.9</ele>
        <time>2023-02-01T13:18:24Z</time>
      </trkpt>
      <trkpt lat="49.77632" lon="2.28565">
        <ele>116.9</ele>
        <time>2023-02-01T13:18:26Z</time>
      </trkpt>
      <trkpt lat="49.77631" lon="2.28564">
        <ele>116.9</ele>
        <time>2023-02-01T13:18:27Z</time>
      </trkpt>
      <trkpt lat="49.77631" lon="2.28563">
        <ele>117</ele>
        <time>2023-02-01T13:18:28Z</time>
      </trkpt>
      <trkpt lat="49.77629" lon="2.28561">
        <ele>117</ele>
        <time>2023-02-01T13:18:29Z</time>
      </trkpt>
      <trkpt lat="49.77628" lon="2.28561">
        <ele>117</ele>
        <time>2023-02-01T13:18:30Z</time>
      </trkpt>
      <trkpt lat="49.77628" lon="2.2856">
        <ele>117</ele>
        <time>2023-02-01T13:18:31Z</time>
      </trkpt>
      <trkpt lat="49.77627" lon="2.28559">
        <ele>117</ele>
        <time>2023-02-01T13:18:32Z</time>
      </trkpt>
      <trkpt lat="49.77626" lon="2.28558">
        <ele>117</ele>
        <time>2023-02-01T13:18:33Z</time>
      </trkpt>
      <trkpt lat="49.77625" lon="2.28557">
        <ele>117</ele>
        <time>2023-02-01T13:18:34Z</time>
      </trkpt>
      <trkpt lat="49.77624" lon="2.28555">
        <ele>117</ele>
        <time>2023-02-01T13:18:36Z</time>
      </trkpt>
      <trkpt lat="49.77623" lon="2.28554">
        <ele>117</ele>
        <time>2023-02-01T13:18:37Z</time>
      </trkpt>
      <trkpt lat="49.77623" lon="2.28553">
        <ele>116.9</ele>
        <time>2023-02-01T13:18:38Z</time>
      </trkpt>
      <trkpt lat="49.77622" lon="2.28552">
        <ele>116.9</ele>
        <time>2023-02-01T13:18:39Z</time>
      </trkpt>
      <trkpt lat="49.77621" lon="2.2855">
        <ele>116.9</ele>
        <time>2023-02-01T13:18:40Z</time>
      </trkpt>
      <trkpt lat="49.7762" lon="2.28548">
        <ele>116.9</ele>
        <time>2023-02-01T13:18:42Z</time>
      </trkpt>
      <trkpt lat="49.77619" lon="2.28547">
        <ele>116.9</ele>
        <time>2023-02-01T13:18:43Z</time>
      </trkpt>
      <trkpt lat="49.77618" lon="2.28546">
        <ele>116.9</ele>
        <time>2023-02-01T13:18:44Z</time>
      </trkpt>
      <trkpt lat="49.77618" lon="2.28545">
        <ele>116.8</ele>
        <time>2023-02-01T13:18:45Z</time>
      </trkpt>
      <trkpt lat="49.77616" lon="2.28542">
        <ele>116.8</ele>
        <time>2023-02-01T13:18:46Z</time>
      </trkpt>
      <trkpt lat="49.77616" lon="2.28541">
        <ele>116.8</ele>
        <time>2023-02-01T13:18:47Z</time>
      </trkpt>
      <trkpt lat="49.77615" lon="2.2854">
        <ele>116.8</ele>
        <time>2023-02-01T13:18:48Z</time>
      </trkpt>
      <trkpt lat="49.77614" lon="2.28539">
        <ele>116.7</ele>
        <time>2023-02-01T13:18:49Z</time>
      </trkpt>
      <trkpt lat="49.77614" lon="2.28536">
        <ele>116.7</ele>
        <time>2023-02-01T13:18:50Z</time>
      </trkpt>
      <trkpt lat="49.77613" lon="2.28535">
        <ele>116.7</ele>
        <time>2023-02-01T13:18:52Z</time>
      </trkpt>
      <trkpt lat="49.77612" lon="2.28534">
        <ele>116.7</ele>
        <time>2023-02-01T13:18:53Z</time>
      </trkpt>
      <trkpt lat="49.77611" lon="2.28533">
        <ele>116.6</ele>
        <time>2023-02-01T13:18:54Z</time>
      </trkpt>
      <trkpt lat="49.77611" lon="2.28532">
        <ele>116.6</ele>
        <time>2023-02-01T13:18:55Z</time>
      </trkpt>
      <trkpt lat="49.7761" lon="2.2853">
        <ele>116.6</ele>
        <time>2023-02-01T13:18:56Z</time>
      </trkpt>
      <trkpt lat="49.77609" lon="2.28529">
        <ele>116.6</ele>
        <time>2023-02-01T13:18:57Z</time>
      </trkpt>
      <trkpt lat="49.77607" lon="2.28527">
        <ele>116.6</ele>
        <time>2023-02-01T13:18:58Z</time>
      </trkpt>
      <trkpt lat="49.77606" lon="2.28526">
        <ele>116.6</ele>
        <time>2023-02-01T13:18:59Z</time>
      </trkpt>
      <trkpt lat="49.77605" lon="2.28525">
        <ele>116.6</ele>
        <time>2023-02-01T13:19:00Z</time>
      </trkpt>
      <trkpt lat="49.77604" lon="2.28524">
        <ele>116.6</ele>
        <time>2023-02-01T13:19:02Z</time>
      </trkpt>
      <trkpt lat="49.77603" lon="2.28523">
        <ele>116.6</ele>
        <time>2023-02-01T13:19:03Z</time>
      </trkpt>
      <trkpt lat="49.77603" lon="2.28522">
        <ele>116.6</ele>
        <time>2023-02-01T13:19:04Z</time>
      </trkpt>
      <trkpt lat="49.77602" lon="2.28521">
        <ele>116.6</ele>
        <time>2023-02-01T13:19:05Z</time>
      </trkpt>
      <trkpt lat="49.77601" lon="2.2852">
        <ele>116.6</ele>
        <time>2023-02-01T13:19:06Z</time>
      </trkpt>
      <trkpt lat="49.776" lon="2.28519">
        <ele>116.6</ele>
        <time>2023-02-01T13:19:07Z</time>
      </trkpt>
      <trkpt lat="49.776" lon="2.28518">
        <ele>116.6</ele>
        <time>2023-02-01T13:19:08Z</time>
      </trkpt>
      <trkpt lat="49.776" lon="2.28517">
        <ele>116.6</ele>
        <time>2023-02-01T13:19:10Z</time>
      </trkpt>
      <trkpt lat="49.77601" lon="2.28515">
        <ele>116.6</ele>
        <time>2023-02-01T13:19:11Z</time>
      </trkpt>
      <trkpt lat="49.776" lon="2.28514">
        <ele>116.6</ele>
        <time>2023-02-01T13:19:12Z</time>
      </trkpt>
      <trkpt lat="49.776" lon="2.28514">
        <ele>116.6</ele>
        <time>2023-02-01T13:19:13Z</time>
      </trkpt>
      <trkpt lat="49.77599" lon="2.28514">
        <ele>116.6</ele>
        <time>2023-02-01T13:19:14Z</time>
      </trkpt>
      <trkpt lat="49.77598" lon="2.28514">
        <ele>116.6</ele>
        <time>2023-02-01T13:19:15Z</time>
      </trkpt>
      <trkpt lat="49.77597" lon="2.28515">
        <ele>116.6</ele>
        <time>2023-02-01T13:19:17Z</time>
      </trkpt>
      <trkpt lat="49.77597" lon="2.28516">
        <ele>116.6</ele>
        <time>2023-02-01T13:19:18Z</time>
      </trkpt>
      <trkpt lat="49.77597" lon="2.28517">
        <ele>116.6</ele>
        <time>2023-02-01T13:19:19Z</time>
      </trkpt>
      <trkpt lat="49.77598" lon="2.28518">
        <ele>116.6</ele>
        <time>2023-02-01T13:19:20Z</time>
      </trkpt>
      <trkpt lat="49.77598" lon="2.2852">
        <ele>116.7</ele>
        <time>2023-02-01T13:19:21Z</time>
      </trkpt>
      <trkpt lat="49.77599" lon="2.2852">
        <ele>116.7</ele>
        <time>2023-02-01T13:19:22Z</time>
      </trkpt>
      <trkpt lat="49.776" lon="2.28519">
        <ele>116.7</ele>
        <time>2023-02-01T13:19:24Z</time>
      </trkpt>
      <trkpt lat="49.776" lon="2.28518">
        <ele>116.7</ele>
        <time>2023-02-01T13:19:25Z</time>
      </trkpt>
      <trkpt lat="49.77601" lon="2.28517">
        <ele>116.7</ele>
        <time>2023-02-01T13:19:26Z</time>
      </trkpt>
      <trkpt lat="49.77601" lon="2.28516">
        <ele>116.7</ele>
        <time>2023-02-01T13:19:27Z</time>
      </trkpt>
      <trkpt lat="49.77602" lon="2.28515">
        <ele>116.7</ele>
        <time>2023-02-01T13:19:28Z</time>
      </trkpt>
      <trkpt lat="49.77603" lon="2.28514">
        <ele>116.7</ele>
        <time>2023-02-01T13:19:29Z</time>
      </trkpt>
      <trkpt lat="49.77604" lon="2.28514">
        <ele>116.7</ele>
        <time>2023-02-01T13:19:30Z</time>
      </trkpt>
      <trkpt lat="49.77605" lon="2.28513">
        <ele>116.7</ele>
        <time>2023-02-01T13:19:32Z</time>
      </trkpt>
      <trkpt lat="49.77605" lon="2.28512">
        <ele>116.7</ele>
        <time>2023-02-01T13:19:33Z</time>
      </trkpt>
      <trkpt lat="49.77606" lon="2.28511">
        <ele>116.7</ele>
        <time>2023-02-01T13:19:34Z</time>
      </trkpt>
      <trkpt lat="49.77606" lon="2.28511">
        <ele>116.7</ele>
        <time>2023-02-01T13:19:35Z</time>
      </trkpt>
      <trkpt lat="49.77605" lon="2.28511">
        <ele>116.7</ele>
        <time>2023-02-01T13:19:37Z</time>
      </trkpt>
      <trkpt lat="49.77604" lon="2.28511">
        <ele>116.7</ele>
        <time>2023-02-01T13:19:38Z</time>
      </trkpt>
      <trkpt lat="49.77603" lon="2.28512">
        <ele>116.7</ele>
        <time>2023-02-01T13:19:39Z</time>
      </trkpt>
      <trkpt lat="49.77603" lon="2.28512">
        <ele>116.7</ele>
        <time>2023-02-01T13:19:40Z</time>
      </trkpt>
      <trkpt lat="49.77602" lon="2.28514">
        <ele>116.7</ele>
        <time>2023-02-01T13:19:42Z</time>
      </trkpt>
      <trkpt lat="49.77602" lon="2.28515">
        <ele>116.7</ele>
        <time>2023-02-01T13:19:43Z</time>
      </trkpt>
      <trkpt lat="49.77601" lon="2.28516">
        <ele>116.7</ele>
        <time>2023-02-01T13:19:44Z</time>
      </trkpt>
      <trkpt lat="49.776" lon="2.28516">
        <ele>116.7</ele>
        <time>2023-02-01T13:19:45Z</time>
      </trkpt>
      <trkpt lat="49.77599" lon="2.28518">
        <ele>116.7</ele>
        <time>2023-02-01T13:19:47Z</time>
      </trkpt>
      <trkpt lat="49.77599" lon="2.28518">
        <ele>116.7</ele>
        <time>2023-02-01T13:19:49Z</time>
      </trkpt>
      <trkpt lat="49.77599" lon="2.28519">
        <ele>116.7</ele>
        <time>2023-02-01T13:19:50Z</time>
      </trkpt>
      <trkpt lat="49.77599" lon="2.28519">
        <ele>116.7</ele>
        <time>2023-02-01T13:19:51Z</time>
      </trkpt>
      <trkpt lat="49.77599" lon="2.28519">
        <ele>116.7</ele>
        <time>2023-02-01T13:19:53Z</time>
      </trkpt>
      <trkpt lat="49.776" lon="2.28519">
        <ele>116.7</ele>
        <time>2023-02-01T13:19:54Z</time>
      </trkpt>
      <trkpt lat="49.776" lon="2.28519">
        <ele>116.7</ele>
        <time>2023-02-01T13:19:56Z</time>
      </trkpt>
      <trkpt lat="49.77601" lon="2.28519">
        <ele>116.7</ele>
        <time>2023-02-01T13:19:57Z</time>
      </trkpt>
      <trkpt lat="49.77601" lon="2.28519">
        <ele>116.7</ele>
        <time>2023-02-01T13:19:58Z</time>
      </trkpt>
      <trkpt lat="49.77601" lon="2.28519">
        <ele>116.7</ele>
        <time>2023-02-01T13:20:00Z</time>
      </trkpt>
      <trkpt lat="49.77601" lon="2.28519">
        <ele>116.7</ele>
        <time>2023-02-01T13:20:01Z</time>
      </trkpt>
      <trkpt lat="49.77602" lon="2.28519">
        <ele>116.7</ele>
        <time>2023-02-01T13:20:03Z</time>
      </trkpt>
      <trkpt lat="49.77602" lon="2.28519">
        <ele>116.7</ele>
        <time>2023-02-01T13:20:04Z</time>
      </trkpt>
      <trkpt lat="49.77602" lon="2.28518">
        <ele>116.7</ele>
        <time>2023-02-01T13:20:05Z</time>
      </trkpt>
      <trkpt lat="49.77602" lon="2.28518">
        <ele>116.7</ele>
        <time>2023-02-01T13:20:06Z</time>
      </trkpt>
      <trkpt lat="49.77602" lon="2.28518">
        <ele>116.7</ele>
        <time>2023-02-01T13:20:07Z</time>
      </trkpt>
      <trkpt lat="49.77602" lon="2.28518">
        <ele>116.7</ele>
        <time>2023-02-01T13:20:08Z</time>
      </trkpt>
      <trkpt lat="49.77602" lon="2.28518">
        <ele>116.7</ele>
        <time>2023-02-01T13:20:09Z</time>
      </trkpt>
      <trkpt lat="49.77602" lon="2.28518">
        <ele>116.7</ele>
        <time>2023-02-01T13:20:10Z</time>
      </trkpt>
      <trkpt lat="49.77602" lon="2.28518">
        <ele>116.7</ele>
        <time>2023-02-01T13:20:11Z</time>
      </trkpt>
      <trkpt lat="49.77602" lon="2.28518">
        <ele>116.7</ele>
        <time>2023-02-01T13:20:12Z</time>
      </trkpt>
      <trkpt lat="49.77602" lon="2.28518">
        <ele>116.7</ele>
        <time>2023-02-01T13:20:13Z</time>
      </trkpt>
      <trkpt lat="49.77602" lon="2.28518">
        <ele>116.7</ele>
        <time>2023-02-01T13:20:14Z</time>
      </trkpt>
      <trkpt lat="49.77602" lon="2.28518">
        <ele>116.7</ele>
        <time>2023-02-01T13:20:15Z</time>
      </trkpt>
      <trkpt lat="49.77602" lon="2.28518">
        <ele>116.7</ele>
        <time>2023-02-01T13:20:16Z</time>
      </trkpt>
      <trkpt lat="49.77602" lon="2.28518">
        <ele>116.7</ele>
        <time>2023-02-01T13:20:17Z</time>
      </trkpt>
      <trkpt lat="49.77602" lon="2.28518">
        <ele>116.7</ele>
        <time>2023-02-01T13:20:18Z</time>
      </trkpt>
      <trkpt lat="49.77602" lon="2.28518">
        <ele>116.7</ele>
        <time>2023-02-01T13:20:19Z</time>
      </trkpt>
      <trkpt lat="49.77602" lon="2.28518">
        <ele>116.7</ele>
        <time>2023-02-01T13:20:20Z</time>
      </trkpt>
      <trkpt lat="49.77602" lon="2.28518">
        <ele>116.7</ele>
        <time>2023-02-01T13:20:21Z</time>
      </trkpt>
      <trkpt lat="49.77602" lon="2.28518">
        <ele>116.7</ele>
        <time>2023-02-01T13:20:22Z</time>
      </trkpt>
      <trkpt lat="49.77602" lon="2.28518">
        <ele>116.7</ele>
        <time>2023-02-01T13:20:23Z</time>
      </trkpt>
      <trkpt lat="49.77602" lon="2.28518">
        <ele>116.7</ele>
        <time>2023-02-01T13:20:24Z</time>
      </trkpt>
      <trkpt lat="49.77602" lon="2.28518">
        <ele>116.7</ele>
        <time>2023-02-01T13:20:25Z</time>
      </trkpt>
      <trkpt lat="49.77602" lon="2.28518">
        <ele>116.7</ele>
        <time>2023-02-01T13:20:26Z</time>
      </trkpt>
      <trkpt lat="49.77602" lon="2.28518">
        <ele>116.7</ele>
        <time>2023-02-01T13:20:27Z</time>
      </trkpt>
      <trkpt lat="49.77602" lon="2.28518">
        <ele>116.7</ele>
        <time>2023-02-01T13:20:28Z</time>
      </trkpt>
      <trkpt lat="49.77602" lon="2.28518">
        <ele>116.7</ele>
        <time>2023-02-01T13:20:29Z</time>
      </trkpt>
      <trkpt lat="49.77602" lon="2.28518">
        <ele>116.7</ele>
        <time>2023-02-01T13:20:30Z</time>
      </trkpt>
      <trkpt lat="49.77602" lon="2.28518">
        <ele>116.7</ele>
        <time>2023-02-01T13:20:31Z</time>
      </trkpt>
      <trkpt lat="49.77602" lon="2.28518">
        <ele>116.7</ele>
        <time>2023-02-01T13:20:32Z</time>
      </trkpt>
      <trkpt lat="49.77602" lon="2.28518">
        <ele>116.7</ele>
        <time>2023-02-01T13:20:33Z</time>
      </trkpt>
      <trkpt lat="49.77602" lon="2.28518">
        <ele>116.7</ele>
        <time>2023-02-01T13:20:34Z</time>
      </trkpt>
      <trkpt lat="49.77602" lon="2.28518">
        <ele>116.7</ele>
        <time>2023-02-01T13:20:35Z</time>
      </trkpt>
      <trkpt lat="49.77602" lon="2.28518">
        <ele>116.7</ele>
        <time>2023-02-01T13:20:36Z</time>
      </trkpt>
      <trkpt lat="49.77605" lon="2.28518">
        <ele>116.7</ele>
        <time>2023-02-01T13:20:37Z</time>
      </trkpt>
      <trkpt lat="49.77607" lon="2.28518">
        <ele>116.7</ele>
        <time>2023-02-01T13:20:38Z</time>
      </trkpt>
      <trkpt lat="49.77608" lon="2.28518">
        <ele>116.7</ele>
        <time>2023-02-01T13:20:39Z</time>
      </trkpt>
      <trkpt lat="49.77608" lon="2.28518">
        <ele>116.7</ele>
        <time>2023-02-01T13:20:40Z</time>
      </trkpt>
      <trkpt lat="49.77608" lon="2.28518">
        <ele>116.7</ele>
        <time>2023-02-01T13:20:41Z</time>
      </trkpt>
      <trkpt lat="49.77609" lon="2.28518">
        <ele>116.7</ele>
        <time>2023-02-01T13:20:42Z</time>
      </trkpt>
      <trkpt lat="49.77609" lon="2.28518">
        <ele>116.7</ele>
        <time>2023-02-01T13:20:43Z</time>
      </trkpt>
      <trkpt lat="49.77609" lon="2.28518">
        <ele>116.7</ele>
        <time>2023-02-01T13:20:44Z</time>
      </trkpt>
      <trkpt lat="49.77609" lon="2.28518">
        <ele>116.7</ele>
        <time>2023-02-01T13:20:45Z</time>
      </trkpt>
      <trkpt lat="49.77609" lon="2.28518">
        <ele>116.7</ele>
        <time>2023-02-01T13:20:46Z</time>
      </trkpt>
      <trkpt lat="49.77609" lon="2.28518">
        <ele>116.7</ele>
        <time>2023-02-01T13:20:47Z</time>
      </trkpt>
      <trkpt lat="49.77609" lon="2.28518">
        <ele>116.7</ele>
        <time>2023-02-01T13:20:49Z</time>
      </trkpt>
      <trkpt lat="49.77609" lon="2.28518">
        <ele>116.7</ele>
        <time>2023-02-01T13:20:50Z</time>
      </trkpt>
      <trkpt lat="49.77609" lon="2.28518">
        <ele>116.7</ele>
        <time>2023-02-01T13:20:51Z</time>
      </trkpt>
      <trkpt lat="49.77609" lon="2.28518">
        <ele>116.7</ele>
        <time>2023-02-01T13:20:53Z</time>
      </trkpt>
      <trkpt lat="49.77609" lon="2.28518">
        <ele>116.7</ele>
        <time>2023-02-01T13:20:54Z</time>
      </trkpt>
      <trkpt lat="49.77609" lon="2.28517">
        <ele>116.7</ele>
        <time>2023-02-01T13:20:55Z</time>
      </trkpt>
      <trkpt lat="49.7761" lon="2.28517">
        <ele>116.7</ele>
        <time>2023-02-01T13:20:57Z</time>
      </trkpt>
      <trkpt lat="49.7761" lon="2.28517">
        <ele>116.7</ele>
        <time>2023-02-01T13:20:58Z</time>
      </trkpt>
      <trkpt lat="49.7761" lon="2.28516">
        <ele>116.7</ele>
        <time>2023-02-01T13:20:59Z</time>
      </trkpt>
      <trkpt lat="49.77609" lon="2.28518">
        <ele>116.7</ele>
        <time>2023-02-01T13:21:00Z</time>
      </trkpt>
      <trkpt lat="49.77608" lon="2.28519">
        <ele>116.7</ele>
        <time>2023-02-01T13:21:01Z</time>
      </trkpt>
      <trkpt lat="49.77608" lon="2.2852">
        <ele>116.7</ele>
        <time>2023-02-01T13:21:02Z</time>
      </trkpt>
      <trkpt lat="49.77607" lon="2.28521">
        <ele>116.7</ele>
        <time>2023-02-01T13:21:04Z</time>
      </trkpt>
      <trkpt lat="49.77607" lon="2.28522">
        <ele>116.7</ele>
        <time>2023-02-01T13:21:05Z</time>
      </trkpt>
      <trkpt lat="49.77606" lon="2.28523">
        <ele>116.7</ele>
        <time>2023-02-01T13:21:06Z</time>
      </trkpt>
      <trkpt lat="49.77606" lon="2.28523">
        <ele>116.7</ele>
        <time>2023-02-01T13:21:07Z</time>
      </trkpt>
      <trkpt lat="49.77605" lon="2.28523">
        <ele>116.7</ele>
        <time>2023-02-01T13:21:08Z</time>
      </trkpt>
      <trkpt lat="49.77605" lon="2.28522">
        <ele>116.7</ele>
        <time>2023-02-01T13:21:10Z</time>
      </trkpt>
      <trkpt lat="49.77605" lon="2.28522">
        <ele>116.7</ele>
        <time>2023-02-01T13:21:11Z</time>
      </trkpt>
      <trkpt lat="49.77604" lon="2.28522">
        <ele>116.7</ele>
        <time>2023-02-01T13:21:12Z</time>
      </trkpt>
      <trkpt lat="49.77604" lon="2.28522">
        <ele>116.7</ele>
        <time>2023-02-01T13:21:13Z</time>
      </trkpt>
      <trkpt lat="49.77604" lon="2.28522">
        <ele>116.7</ele>
        <time>2023-02-01T13:21:14Z</time>
      </trkpt>
      <trkpt lat="49.77603" lon="2.28522">
        <ele>116.7</ele>
        <time>2023-02-01T13:21:16Z</time>
      </trkpt>
      <trkpt lat="49.77603" lon="2.28522">
        <ele>116.7</ele>
        <time>2023-02-01T13:21:17Z</time>
      </trkpt>
      <trkpt lat="49.77602" lon="2.2852">
        <ele>116.7</ele>
        <time>2023-02-01T13:21:18Z</time>
      </trkpt>
      <trkpt lat="49.77601" lon="2.28518">
        <ele>116.7</ele>
        <time>2023-02-01T13:21:19Z</time>
      </trkpt>
      <trkpt lat="49.776" lon="2.28516">
        <ele>116.7</ele>
        <time>2023-02-01T13:21:20Z</time>
      </trkpt>
      <trkpt lat="49.77601" lon="2.28515">
        <ele>116.7</ele>
        <time>2023-02-01T13:21:21Z</time>
      </trkpt>
      <trkpt lat="49.77601" lon="2.28514">
        <ele>116.7</ele>
        <time>2023-02-01T13:21:22Z</time>
      </trkpt>
      <trkpt lat="49.77601" lon="2.28513">
        <ele>116.7</ele>
        <time>2023-02-01T13:21:23Z</time>
      </trkpt>
      <trkpt lat="49.776" lon="2.28513">
        <ele>116.7</ele>
        <time>2023-02-01T13:21:25Z</time>
      </trkpt>
      <trkpt lat="49.776" lon="2.28512">
        <ele>116.7</ele>
        <time>2023-02-01T13:21:26Z</time>
      </trkpt>
      <trkpt lat="49.77599" lon="2.28511">
        <ele>116.7</ele>
        <time>2023-02-01T13:21:27Z</time>
      </trkpt>
      <trkpt lat="49.77598" lon="2.28511">
        <ele>116.7</ele>
        <time>2023-02-01T13:21:28Z</time>
      </trkpt>
      <trkpt lat="49.77597" lon="2.28509">
        <ele>116.7</ele>
        <time>2023-02-01T13:21:29Z</time>
      </trkpt>
      <trkpt lat="49.77595" lon="2.28506">
        <ele>116.8</ele>
        <time>2023-02-01T13:21:31Z</time>
      </trkpt>
      <trkpt lat="49.77593" lon="2.28504">
        <ele>116.8</ele>
        <time>2023-02-01T13:21:32Z</time>
      </trkpt>
      <trkpt lat="49.77592" lon="2.28503">
        <ele>116.8</ele>
        <time>2023-02-01T13:21:33Z</time>
      </trkpt>
      <trkpt lat="49.77591" lon="2.28502">
        <ele>116.8</ele>
        <time>2023-02-01T13:21:34Z</time>
      </trkpt>
      <trkpt lat="49.7759" lon="2.285">
        <ele>116.8</ele>
        <time>2023-02-01T13:21:36Z</time>
      </trkpt>
      <trkpt lat="49.7759" lon="2.285">
        <ele>116.9</ele>
        <time>2023-02-01T13:21:37Z</time>
      </trkpt>
      <trkpt lat="49.77589" lon="2.28499">
        <ele>116.9</ele>
        <time>2023-02-01T13:21:38Z</time>
      </trkpt>
      <trkpt lat="49.77588" lon="2.28497">
        <ele>116.9</ele>
        <time>2023-02-01T13:21:39Z</time>
      </trkpt>
      <trkpt lat="49.77585" lon="2.28493">
        <ele>116.9</ele>
        <time>2023-02-01T13:21:40Z</time>
      </trkpt>
      <trkpt lat="49.77584" lon="2.28492">
        <ele>116.9</ele>
        <time>2023-02-01T13:21:41Z</time>
      </trkpt>
      <trkpt lat="49.77583" lon="2.2849">
        <ele>117</ele>
        <time>2023-02-01T13:21:42Z</time>
      </trkpt>
      <trkpt lat="49.77581" lon="2.28488">
        <ele>117</ele>
        <time>2023-02-01T13:21:44Z</time>
      </trkpt>
      <trkpt lat="49.77579" lon="2.28485">
        <ele>117</ele>
        <time>2023-02-01T13:21:45Z</time>
      </trkpt>
      <trkpt lat="49.77578" lon="2.28485">
        <ele>117</ele>
        <time>2023-02-01T13:21:46Z</time>
      </trkpt>
      <trkpt lat="49.77577" lon="2.28483">
        <ele>117</ele>
        <time>2023-02-01T13:21:47Z</time>
      </trkpt>
      <trkpt lat="49.77576" lon="2.28482">
        <ele>117</ele>
        <time>2023-02-01T13:21:48Z</time>
      </trkpt>
      <trkpt lat="49.77575" lon="2.2848">
        <ele>117</ele>
        <time>2023-02-01T13:21:49Z</time>
      </trkpt>
      <trkpt lat="49.77574" lon="2.28479">
        <ele>117</ele>
        <time>2023-02-01T13:21:50Z</time>
      </trkpt>
      <trkpt lat="49.77573" lon="2.28477">
        <ele>117</ele>
        <time>2023-02-01T13:21:51Z</time>
      </trkpt>
      <trkpt lat="49.77572" lon="2.28476">
        <ele>117</ele>
        <time>2023-02-01T13:21:52Z</time>
      </trkpt>
      <trkpt lat="49.77569" lon="2.28474">
        <ele>117</ele>
        <time>2023-02-01T13:21:53Z</time>
      </trkpt>
      <trkpt lat="49.77568" lon="2.28473">
        <ele>117</ele>
        <time>2023-02-01T13:21:55Z</time>
      </trkpt>
      <trkpt lat="49.77567" lon="2.28471">
        <ele>117</ele>
        <time>2023-02-01T13:21:56Z</time>
      </trkpt>
      <trkpt lat="49.77567" lon="2.2847">
        <ele>117</ele>
        <time>2023-02-01T13:21:57Z</time>
      </trkpt>
      <trkpt lat="49.77566" lon="2.28469">
        <ele>117</ele>
        <time>2023-02-01T13:21:58Z</time>
      </trkpt>
      <trkpt lat="49.77563" lon="2.28467">
        <ele>117</ele>
        <time>2023-02-01T13:21:59Z</time>
      </trkpt>
      <trkpt lat="49.77562" lon="2.28466">
        <ele>117</ele>
        <time>2023-02-01T13:22:00Z</time>
      </trkpt>
      <trkpt lat="49.77561" lon="2.28465">
        <ele>117</ele>
        <time>2023-02-01T13:22:01Z</time>
      </trkpt>
      <trkpt lat="49.7756" lon="2.28464">
        <ele>117</ele>
        <time>2023-02-01T13:22:02Z</time>
      </trkpt>
      <trkpt lat="49.77559" lon="2.28463">
        <ele>117</ele>
        <time>2023-02-01T13:22:03Z</time>
      </trkpt>
      <trkpt lat="49.77557" lon="2.28462">
        <ele>117</ele>
        <time>2023-02-01T13:22:05Z</time>
      </trkpt>
      <trkpt lat="49.77556" lon="2.28461">
        <ele>117</ele>
        <time>2023-02-01T13:22:06Z</time>
      </trkpt>
      <trkpt lat="49.77555" lon="2.2846">
        <ele>117</ele>
        <time>2023-02-01T13:22:07Z</time>
      </trkpt>
      <trkpt lat="49.77554" lon="2.28459">
        <ele>117</ele>
        <time>2023-02-01T13:22:08Z</time>
      </trkpt>
      <trkpt lat="49.77553" lon="2.28457">
        <ele>117</ele>
        <time>2023-02-01T13:22:09Z</time>
      </trkpt>
      <trkpt lat="49.77553" lon="2.28457">
        <ele>117</ele>
        <time>2023-02-01T13:22:10Z</time>
      </trkpt>
      <trkpt lat="49.77552" lon="2.28456">
        <ele>117</ele>
        <time>2023-02-01T13:22:11Z</time>
      </trkpt>
      <trkpt lat="49.7755" lon="2.28454">
        <ele>117</ele>
        <time>2023-02-01T13:22:12Z</time>
      </trkpt>
      <trkpt lat="49.7755" lon="2.28453">
        <ele>117</ele>
        <time>2023-02-01T13:22:14Z</time>
      </trkpt>
      <trkpt lat="49.77549" lon="2.28452">
        <ele>117</ele>
        <time>2023-02-01T13:22:15Z</time>
      </trkpt>
      <trkpt lat="49.77547" lon="2.2845">
        <ele>117</ele>
        <time>2023-02-01T13:22:16Z</time>
      </trkpt>
      <trkpt lat="49.77547" lon="2.28449">
        <ele>117</ele>
        <time>2023-02-01T13:22:17Z</time>
      </trkpt>
      <trkpt lat="49.77546" lon="2.28448">
        <ele>117</ele>
        <time>2023-02-01T13:22:18Z</time>
      </trkpt>
      <trkpt lat="49.77544" lon="2.28445">
        <ele>117</ele>
        <time>2023-02-01T13:22:20Z</time>
      </trkpt>
      <trkpt lat="49.77543" lon="2.28444">
        <ele>117</ele>
        <time>2023-02-01T13:22:22Z</time>
      </trkpt>
      <trkpt lat="49.77542" lon="2.28442">
        <ele>117</ele>
        <time>2023-02-01T13:22:23Z</time>
      </trkpt>
      <trkpt lat="49.77541" lon="2.28441">
        <ele>117.1</ele>
        <time>2023-02-01T13:22:24Z</time>
      </trkpt>
      <trkpt lat="49.7754" lon="2.28439">
        <ele>117.1</ele>
        <time>2023-02-01T13:22:25Z</time>
      </trkpt>
      <trkpt lat="49.77539" lon="2.28438">
        <ele>117.1</ele>
        <time>2023-02-01T13:22:26Z</time>
      </trkpt>
      <trkpt lat="49.77539" lon="2.28437">
        <ele>117.1</ele>
        <time>2023-02-01T13:22:27Z</time>
      </trkpt>
      <trkpt lat="49.77538" lon="2.28436">
        <ele>117.1</ele>
        <time>2023-02-01T13:22:28Z</time>
      </trkpt>
      <trkpt lat="49.77537" lon="2.28434">
        <ele>117.1</ele>
        <time>2023-02-01T13:22:29Z</time>
      </trkpt>
      <trkpt lat="49.77536" lon="2.28433">
        <ele>117.1</ele>
        <time>2023-02-01T13:22:30Z</time>
      </trkpt>
      <trkpt lat="49.77535" lon="2.28431">
        <ele>117.1</ele>
        <time>2023-02-01T13:22:32Z</time>
      </trkpt>
      <trkpt lat="49.77534" lon="2.2843">
        <ele>117.1</ele>
        <time>2023-02-01T13:22:33Z</time>
      </trkpt>
      <trkpt lat="49.77533" lon="2.28429">
        <ele>117.2</ele>
        <time>2023-02-01T13:22:34Z</time>
      </trkpt>
      <trkpt lat="49.77532" lon="2.28427">
        <ele>117.2</ele>
        <time>2023-02-01T13:22:35Z</time>
      </trkpt>
      <trkpt lat="49.7753" lon="2.28425">
        <ele>117.2</ele>
        <time>2023-02-01T13:22:36Z</time>
      </trkpt>
      <trkpt lat="49.77529" lon="2.28424">
        <ele>117.2</ele>
        <time>2023-02-01T13:22:37Z</time>
      </trkpt>
      <trkpt lat="49.77529" lon="2.28423">
        <ele>117.2</ele>
        <time>2023-02-01T13:22:38Z</time>
      </trkpt>
      <trkpt lat="49.77528" lon="2.28421">
        <ele>117.2</ele>
        <time>2023-02-01T13:22:39Z</time>
      </trkpt>
      <trkpt lat="49.77527" lon="2.2842">
        <ele>117.2</ele>
        <time>2023-02-01T13:22:40Z</time>
      </trkpt>
      <trkpt lat="49.77526" lon="2.28419">
        <ele>117.2</ele>
        <time>2023-02-01T13:22:42Z</time>
      </trkpt>
      <trkpt lat="49.77525" lon="2.28416">
        <ele>117.3</ele>
        <time>2023-02-01T13:22:43Z</time>
      </trkpt>
      <trkpt lat="49.77524" lon="2.28415">
        <ele>117.3</ele>
        <time>2023-02-01T13:22:44Z</time>
      </trkpt>
      <trkpt lat="49.77523" lon="2.28414">
        <ele>117.3</ele>
        <time>2023-02-01T13:22:45Z</time>
      </trkpt>
      <trkpt lat="49.77523" lon="2.28414">
        <ele>117.3</ele>
        <time>2023-02-01T13:22:46Z</time>
      </trkpt>
      <trkpt lat="49.77522" lon="2.28413">
        <ele>117.3</ele>
        <time>2023-02-01T13:22:47Z</time>
      </trkpt>
      <trkpt lat="49.77522" lon="2.28412">
        <ele>117.3</ele>
        <time>2023-02-01T13:22:48Z</time>
      </trkpt>
      <trkpt lat="49.77521" lon="2.28411">
        <ele>117.3</ele>
        <time>2023-02-01T13:22:49Z</time>
      </trkpt>
      <trkpt lat="49.77519" lon="2.28408">
        <ele>117.4</ele>
        <time>2023-02-01T13:22:50Z</time>
      </trkpt>
      <trkpt lat="49.77518" lon="2.28408">
        <ele>117.4</ele>
        <time>2023-02-01T13:22:51Z</time>
      </trkpt>
      <trkpt lat="49.77518" lon="2.28407">
        <ele>117.4</ele>
        <time>2023-02-01T13:22:52Z</time>
      </trkpt>
      <trkpt lat="49.77517" lon="2.28406">
        <ele>117.4</ele>
        <time>2023-02-01T13:22:53Z</time>
      </trkpt>
      <trkpt lat="49.77515" lon="2.28404">
        <ele>117.4</ele>
        <time>2023-02-01T13:22:55Z</time>
      </trkpt>
      <trkpt lat="49.77514" lon="2.28403">
        <ele>117.4</ele>
        <time>2023-02-01T13:22:56Z</time>
      </trkpt>
      <trkpt lat="49.77513" lon="2.28402">
        <ele>117.5</ele>
        <time>2023-02-01T13:22:57Z</time>
      </trkpt>
      <trkpt lat="49.77512" lon="2.28401">
        <ele>117.5</ele>
        <time>2023-02-01T13:22:58Z</time>
      </trkpt>
      <trkpt lat="49.77512" lon="2.284">
        <ele>117.5</ele>
        <time>2023-02-01T13:22:59Z</time>
      </trkpt>
      <trkpt lat="49.7751" lon="2.28399">
        <ele>117.6</ele>
        <time>2023-02-01T13:23:00Z</time>
      </trkpt>
      <trkpt lat="49.7751" lon="2.28398">
        <ele>117.6</ele>
        <time>2023-02-01T13:23:01Z</time>
      </trkpt>
      <trkpt lat="49.77509" lon="2.28395">
        <ele>117.6</ele>
        <time>2023-02-01T13:23:02Z</time>
      </trkpt>
      <trkpt lat="49.77508" lon="2.28394">
        <ele>117.7</ele>
        <time>2023-02-01T13:23:03Z</time>
      </trkpt>
      <trkpt lat="49.77508" lon="2.28393">
        <ele>117.7</ele>
        <time>2023-02-01T13:23:04Z</time>
      </trkpt>
      <trkpt lat="49.77507" lon="2.2839">
        <ele>117.7</ele>
        <time>2023-02-01T13:23:05Z</time>
      </trkpt>
      <trkpt lat="49.77506" lon="2.28389">
        <ele>117.8</ele>
        <time>2023-02-01T13:23:07Z</time>
      </trkpt>
      <trkpt lat="49.77506" lon="2.28388">
        <ele>117.8</ele>
        <time>2023-02-01T13:23:08Z</time>
      </trkpt>
      <trkpt lat="49.77505" lon="2.28387">
        <ele>117.8</ele>
        <time>2023-02-01T13:23:09Z</time>
      </trkpt>
      <trkpt lat="49.77504" lon="2.28385">
        <ele>117.9</ele>
        <time>2023-02-01T13:23:10Z</time>
      </trkpt>
      <trkpt lat="49.77503" lon="2.28384">
        <ele>117.9</ele>
        <time>2023-02-01T13:23:11Z</time>
      </trkpt>
      <trkpt lat="49.77503" lon="2.28383">
        <ele>117.9</ele>
        <time>2023-02-01T13:23:12Z</time>
      </trkpt>
      <trkpt lat="49.77502" lon="2.28382">
        <ele>118</ele>
        <time>2023-02-01T13:23:13Z</time>
      </trkpt>
      <trkpt lat="49.77501" lon="2.28381">
        <ele>118</ele>
        <time>2023-02-01T13:23:14Z</time>
      </trkpt>
      <trkpt lat="49.775" lon="2.2838">
        <ele>118</ele>
        <time>2023-02-01T13:23:16Z</time>
      </trkpt>
      <trkpt lat="49.775" lon="2.28379">
        <ele>118.1</ele>
        <time>2023-02-01T13:23:17Z</time>
      </trkpt>
      <trkpt lat="49.77499" lon="2.28379">
        <ele>118.1</ele>
        <time>2023-02-01T13:23:18Z</time>
      </trkpt>
      <trkpt lat="49.77498" lon="2.28379">
        <ele>118.1</ele>
        <time>2023-02-01T13:23:19Z</time>
      </trkpt>
      <trkpt lat="49.77497" lon="2.2838">
        <ele>118.2</ele>
        <time>2023-02-01T13:23:21Z</time>
      </trkpt>
      <trkpt lat="49.77496" lon="2.28381">
        <ele>118.2</ele>
        <time>2023-02-01T13:23:22Z</time>
      </trkpt>
      <trkpt lat="49.77495" lon="2.28382">
        <ele>118.2</ele>
        <time>2023-02-01T13:23:24Z</time>
      </trkpt>
      <trkpt lat="49.77494" lon="2.28384">
        <ele>118.4</ele>
        <time>2023-02-01T13:23:25Z</time>
      </trkpt>
      <trkpt lat="49.77493" lon="2.28384">
        <ele>118.4</ele>
        <time>2023-02-01T13:23:26Z</time>
      </trkpt>
      <trkpt lat="49.77493" lon="2.28385">
        <ele>118.4</ele>
        <time>2023-02-01T13:23:28Z</time>
      </trkpt>
      <trkpt lat="49.77493" lon="2.28386">
        <ele>118.4</ele>
        <time>2023-02-01T13:23:29Z</time>
      </trkpt>
      <trkpt lat="49.77493" lon="2.28386">
        <ele>118.4</ele>
        <time>2023-02-01T13:23:30Z</time>
      </trkpt>
      <trkpt lat="49.77493" lon="2.28386">
        <ele>118.4</ele>
        <time>2023-02-01T13:23:32Z</time>
      </trkpt>
      <trkpt lat="49.77493" lon="2.28386">
        <ele>118.4</ele>
        <time>2023-02-01T13:23:33Z</time>
      </trkpt>
      <trkpt lat="49.77493" lon="2.28386">
        <ele>118.4</ele>
        <time>2023-02-01T13:23:34Z</time>
      </trkpt>
      <trkpt lat="49.77494" lon="2.28386">
        <ele>118.4</ele>
        <time>2023-02-01T13:23:36Z</time>
      </trkpt>
      <trkpt lat="49.77494" lon="2.28386">
        <ele>118.4</ele>
        <time>2023-02-01T13:23:37Z</time>
      </trkpt>
      <trkpt lat="49.77494" lon="2.28387">
        <ele>118.4</ele>
        <time>2023-02-01T13:23:38Z</time>
      </trkpt>
      <trkpt lat="49.77494" lon="2.28387">
        <ele>118.4</ele>
        <time>2023-02-01T13:23:39Z</time>
      </trkpt>
      <trkpt lat="49.77493" lon="2.28388">
        <ele>118.4</ele>
        <time>2023-02-01T13:23:40Z</time>
      </trkpt>
      <trkpt lat="49.77492" lon="2.2839">
        <ele>118.4</ele>
        <time>2023-02-01T13:23:41Z</time>
      </trkpt>
      <trkpt lat="49.77492" lon="2.28391">
        <ele>118.5</ele>
        <time>2023-02-01T13:23:43Z</time>
      </trkpt>
      <trkpt lat="49.77491" lon="2.28393">
        <ele>118.5</ele>
        <time>2023-02-01T13:23:44Z</time>
      </trkpt>
      <trkpt lat="49.77491" lon="2.28394">
        <ele>118.5</ele>
        <time>2023-02-01T13:23:45Z</time>
      </trkpt>
      <trkpt lat="49.77491" lon="2.28395">
        <ele>118.5</ele>
        <time>2023-02-01T13:23:46Z</time>
      </trkpt>
      <trkpt lat="49.7749" lon="2.28397">
        <ele>118.5</ele>
        <time>2023-02-01T13:23:47Z</time>
      </trkpt>
      <trkpt lat="49.7749" lon="2.28399">
        <ele>118.5</ele>
        <time>2023-02-01T13:23:48Z</time>
      </trkpt>
      <trkpt lat="49.77489" lon="2.284">
        <ele>118.6</ele>
        <time>2023-02-01T13:23:49Z</time>
      </trkpt>
      <trkpt lat="49.77489" lon="2.28402">
        <ele>118.6</ele>
        <time>2023-02-01T13:23:51Z</time>
      </trkpt>
      <trkpt lat="49.77488" lon="2.28404">
        <ele>118.6</ele>
        <time>2023-02-01T13:23:52Z</time>
      </trkpt>
      <trkpt lat="49.77488" lon="2.28407">
        <ele>118.7</ele>
        <time>2023-02-01T13:23:53Z</time>
      </trkpt>
      <trkpt lat="49.77487" lon="2.28409">
        <ele>118.7</ele>
        <time>2023-02-01T13:23:54Z</time>
      </trkpt>
      <trkpt lat="49.77487" lon="2.2841">
        <ele>118.7</ele>
        <time>2023-02-01T13:23:55Z</time>
      </trkpt>
      <trkpt lat="49.77486" lon="2.28412">
        <ele>118.7</ele>
        <time>2023-02-01T13:23:56Z</time>
      </trkpt>
      <trkpt lat="49.77486" lon="2.28414">
        <ele>118.7</ele>
        <time>2023-02-01T13:23:57Z</time>
      </trkpt>
      <trkpt lat="49.77485" lon="2.28415">
        <ele>118.8</ele>
        <time>2023-02-01T13:23:59Z</time>
      </trkpt>
      <trkpt lat="49.77484" lon="2.28417">
        <ele>118.8</ele>
        <time>2023-02-01T13:24:00Z</time>
      </trkpt>
      <trkpt lat="49.77484" lon="2.28418">
        <ele>118.8</ele>
        <time>2023-02-01T13:24:01Z</time>
      </trkpt>
      <trkpt lat="49.77483" lon="2.28419">
        <ele>118.8</ele>
        <time>2023-02-01T13:24:02Z</time>
      </trkpt>
      <trkpt lat="49.77482" lon="2.28422">
        <ele>118.9</ele>
        <time>2023-02-01T13:24:03Z</time>
      </trkpt>
      <trkpt lat="49.77482" lon="2.28423">
        <ele>118.9</ele>
        <time>2023-02-01T13:24:05Z</time>
      </trkpt>
      <trkpt lat="49.77481" lon="2.28425">
        <ele>118.9</ele>
        <time>2023-02-01T13:24:06Z</time>
      </trkpt>
      <trkpt lat="49.77481" lon="2.28426">
        <ele>119</ele>
        <time>2023-02-01T13:24:07Z</time>
      </trkpt>
      <trkpt lat="49.77481" lon="2.28428">
        <ele>119</ele>
        <time>2023-02-01T13:24:08Z</time>
      </trkpt>
      <trkpt lat="49.77481" lon="2.2843">
        <ele>119</ele>
        <time>2023-02-01T13:24:09Z</time>
      </trkpt>
      <trkpt lat="49.7748" lon="2.28432">
        <ele>119.1</ele>
        <time>2023-02-01T13:24:10Z</time>
      </trkpt>
      <trkpt lat="49.77479" lon="2.28434">
        <ele>119.1</ele>
        <time>2023-02-01T13:24:11Z</time>
      </trkpt>
      <trkpt lat="49.77478" lon="2.28435">
        <ele>119.2</ele>
        <time>2023-02-01T13:24:12Z</time>
      </trkpt>
      <trkpt lat="49.77478" lon="2.28437">
        <ele>119.2</ele>
        <time>2023-02-01T13:24:13Z</time>
      </trkpt>
      <trkpt lat="49.77477" lon="2.28438">
        <ele>119.2</ele>
        <time>2023-02-01T13:24:15Z</time>
      </trkpt>
      <trkpt lat="49.77476" lon="2.28441">
        <ele>119.3</ele>
        <time>2023-02-01T13:24:16Z</time>
      </trkpt>
      <trkpt lat="49.77475" lon="2.28442">
        <ele>119.3</ele>
        <time>2023-02-01T13:24:17Z</time>
      </trkpt>
      <trkpt lat="49.77475" lon="2.28443">
        <ele>119.3</ele>
        <time>2023-02-01T13:24:18Z</time>
      </trkpt>
      <trkpt lat="49.77474" lon="2.28445">
        <ele>119.4</ele>
        <time>2023-02-01T13:24:19Z</time>
      </trkpt>
      <trkpt lat="49.77473" lon="2.28447">
        <ele>119.4</ele>
        <time>2023-02-01T13:24:20Z</time>
      </trkpt>
      <trkpt lat="49.77473" lon="2.28448">
        <ele>119.5</ele>
        <time>2023-02-01T13:24:21Z</time>
      </trkpt>
      <trkpt lat="49.77472" lon="2.28449">
        <ele>119.5</ele>
        <time>2023-02-01T13:24:22Z</time>
      </trkpt>
      <trkpt lat="49.77472" lon="2.28451">
        <ele>119.5</ele>
        <time>2023-02-01T13:24:24Z</time>
      </trkpt>
      <trkpt lat="49.77471" lon="2.28453">
        <ele>119.6</ele>
        <time>2023-02-01T13:24:25Z</time>
      </trkpt>
      <trkpt lat="49.7747" lon="2.28455">
        <ele>119.6</ele>
        <time>2023-02-01T13:24:26Z</time>
      </trkpt>
      <trkpt lat="49.7747" lon="2.28456">
        <ele>119.7</ele>
        <time>2023-02-01T13:24:27Z</time>
      </trkpt>
      <trkpt lat="49.77469" lon="2.28458">
        <ele>119.7</ele>
        <time>2023-02-01T13:24:28Z</time>
      </trkpt>
      <trkpt lat="49.77469" lon="2.28459">
        <ele>119.7</ele>
        <time>2023-02-01T13:24:29Z</time>
      </trkpt>
      <trkpt lat="49.77468" lon="2.28462">
        <ele>119.8</ele>
        <time>2023-02-01T13:24:30Z</time>
      </trkpt>
      <trkpt lat="49.77467" lon="2.28462">
        <ele>119.8</ele>
        <time>2023-02-01T13:24:32Z</time>
      </trkpt>
      <trkpt lat="49.77467" lon="2.28464">
        <ele>119.8</ele>
        <time>2023-02-01T13:24:33Z</time>
      </trkpt>
      <trkpt lat="49.77466" lon="2.28465">
        <ele>119.9</ele>
        <time>2023-02-01T13:24:34Z</time>
      </trkpt>
      <trkpt lat="49.77466" lon="2.28467">
        <ele>119.9</ele>
        <time>2023-02-01T13:24:35Z</time>
      </trkpt>
      <trkpt lat="49.77465" lon="2.28468">
        <ele>119.9</ele>
        <time>2023-02-01T13:24:36Z</time>
      </trkpt>
      <trkpt lat="49.77464" lon="2.28469">
        <ele>120</ele>
        <time>2023-02-01T13:24:37Z</time>
      </trkpt>
      <trkpt lat="49.77464" lon="2.28471">
        <ele>120</ele>
        <time>2023-02-01T13:24:38Z</time>
      </trkpt>
      <trkpt lat="49.77463" lon="2.28472">
        <ele>120</ele>
        <time>2023-02-01T13:24:39Z</time>
      </trkpt>
      <trkpt lat="49.77462" lon="2.28474">
        <ele>120.1</ele>
        <time>2023-02-01T13:24:40Z</time>
      </trkpt>
      <trkpt lat="49.77462" lon="2.28475">
        <ele>120.1</ele>
        <time>2023-02-01T13:24:42Z</time>
      </trkpt>
      <trkpt lat="49.77461" lon="2.28476">
        <ele>120.1</ele>
        <time>2023-02-01T13:24:43Z</time>
      </trkpt>
      <trkpt lat="49.7746" lon="2.28479">
        <ele>120.2</ele>
        <time>2023-02-01T13:24:44Z</time>
      </trkpt>
      <trkpt lat="49.77459" lon="2.2848">
        <ele>120.2</ele>
        <time>2023-02-01T13:24:45Z</time>
      </trkpt>
      <trkpt lat="49.77459" lon="2.28481">
        <ele>120.3</ele>
        <time>2023-02-01T13:24:46Z</time>
      </trkpt>
      <trkpt lat="49.77457" lon="2.28483">
        <ele>120.3</ele>
        <time>2023-02-01T13:24:47Z</time>
      </trkpt>
      <trkpt lat="49.77457" lon="2.28484">
        <ele>120.3</ele>
        <time>2023-02-01T13:24:48Z</time>
      </trkpt>
      <trkpt lat="49.77456" lon="2.28485">
        <ele>120.4</ele>
        <time>2023-02-01T13:24:49Z</time>
      </trkpt>
      <trkpt lat="49.77455" lon="2.28488">
        <ele>120.4</ele>
        <time>2023-02-01T13:24:50Z</time>
      </trkpt>
      <trkpt lat="49.77455" lon="2.28489">
        <ele>120.5</ele>
        <time>2023-02-01T13:24:51Z</time>
      </trkpt>
      <trkpt lat="49.77454" lon="2.2849">
        <ele>120.5</ele>
        <time>2023-02-01T13:24:53Z</time>
      </trkpt>
      <trkpt lat="49.77453" lon="2.28493">
        <ele>120.5</ele>
        <time>2023-02-01T13:24:54Z</time>
      </trkpt>
      <trkpt lat="49.77453" lon="2.28494">
        <ele>120.6</ele>
        <time>2023-02-01T13:24:55Z</time>
      </trkpt>
      <trkpt lat="49.77452" lon="2.28496">
        <ele>120.6</ele>
        <time>2023-02-01T13:24:56Z</time>
      </trkpt>
      <trkpt lat="49.77451" lon="2.28498">
        <ele>120.7</ele>
        <time>2023-02-01T13:24:57Z</time>
      </trkpt>
      <trkpt lat="49.77451" lon="2.285">
        <ele>120.7</ele>
        <time>2023-02-01T13:24:58Z</time>
      </trkpt>
      <trkpt lat="49.77451" lon="2.28501">
        <ele>120.7</ele>
        <time>2023-02-01T13:24:59Z</time>
      </trkpt>
      <trkpt lat="49.77449" lon="2.28504">
        <ele>120.8</ele>
        <time>2023-02-01T13:25:00Z</time>
      </trkpt>
      <trkpt lat="49.77449" lon="2.28505">
        <ele>120.9</ele>
        <time>2023-02-01T13:25:01Z</time>
      </trkpt>
      <trkpt lat="49.77448" lon="2.28507">
        <ele>120.9</ele>
        <time>2023-02-01T13:25:03Z</time>
      </trkpt>
      <trkpt lat="49.77448" lon="2.28508">
        <ele>120.9</ele>
        <time>2023-02-01T13:25:04Z</time>
      </trkpt>
      <trkpt lat="49.77447" lon="2.28509">
        <ele>120.9</ele>
        <time>2023-02-01T13:25:05Z</time>
      </trkpt>
      <trkpt lat="49.77447" lon="2.2851">
        <ele>121</ele>
        <time>2023-02-01T13:25:06Z</time>
      </trkpt>
      <trkpt lat="49.77446" lon="2.28512">
        <ele>121</ele>
        <time>2023-02-01T13:25:07Z</time>
      </trkpt>
      <trkpt lat="49.77445" lon="2.28514">
        <ele>121.1</ele>
        <time>2023-02-01T13:25:08Z</time>
      </trkpt>
      <trkpt lat="49.77445" lon="2.28515">
        <ele>121.1</ele>
        <time>2023-02-01T13:25:09Z</time>
      </trkpt>
      <trkpt lat="49.77444" lon="2.28517">
        <ele>121.2</ele>
        <time>2023-02-01T13:25:10Z</time>
      </trkpt>
      <trkpt lat="49.77443" lon="2.28517">
        <ele>121.2</ele>
        <time>2023-02-01T13:25:11Z</time>
      </trkpt>
      <trkpt lat="49.77443" lon="2.28519">
        <ele>121.2</ele>
        <time>2023-02-01T13:25:13Z</time>
      </trkpt>
      <trkpt lat="49.77442" lon="2.2852">
        <ele>121.3</ele>
        <time>2023-02-01T13:25:14Z</time>
      </trkpt>
      <trkpt lat="49.77441" lon="2.28522">
        <ele>121.3</ele>
        <time>2023-02-01T13:25:15Z</time>
      </trkpt>
      <trkpt lat="49.7744" lon="2.28523">
        <ele>121.3</ele>
        <time>2023-02-01T13:25:16Z</time>
      </trkpt>
      <trkpt lat="49.7744" lon="2.28524">
        <ele>121.4</ele>
        <time>2023-02-01T13:25:17Z</time>
      </trkpt>
      <trkpt lat="49.77439" lon="2.28525">
        <ele>121.4</ele>
        <time>2023-02-01T13:25:18Z</time>
      </trkpt>
      <trkpt lat="49.77439" lon="2.28527">
        <ele>121.4</ele>
        <time>2023-02-01T13:25:19Z</time>
      </trkpt>
      <trkpt lat="49.77439" lon="2.28529">
        <ele>121.5</ele>
        <time>2023-02-01T13:25:20Z</time>
      </trkpt>
      <trkpt lat="49.77438" lon="2.2853">
        <ele>121.5</ele>
        <time>2023-02-01T13:25:22Z</time>
      </trkpt>
      <trkpt lat="49.77438" lon="2.28531">
        <ele>121.5</ele>
        <time>2023-02-01T13:25:23Z</time>
      </trkpt>
      <trkpt lat="49.77438" lon="2.28533">
        <ele>121.5</ele>
        <time>2023-02-01T13:25:24Z</time>
      </trkpt>
      <trkpt lat="49.77437" lon="2.28534">
        <ele>121.6</ele>
        <time>2023-02-01T13:25:25Z</time>
      </trkpt>
      <trkpt lat="49.77436" lon="2.28536">
        <ele>121.6</ele>
        <time>2023-02-01T13:25:26Z</time>
      </trkpt>
      <trkpt lat="49.77436" lon="2.28538">
        <ele>121.6</ele>
        <time>2023-02-01T13:25:27Z</time>
      </trkpt>
      <trkpt lat="49.77435" lon="2.28539">
        <ele>121.7</ele>
        <time>2023-02-01T13:25:28Z</time>
      </trkpt>
      <trkpt lat="49.77435" lon="2.28541">
        <ele>121.7</ele>
        <time>2023-02-01T13:25:29Z</time>
      </trkpt>
      <trkpt lat="49.77434" lon="2.28542">
        <ele>121.7</ele>
        <time>2023-02-01T13:25:31Z</time>
      </trkpt>
      <trkpt lat="49.77433" lon="2.28543">
        <ele>121.8</ele>
        <time>2023-02-01T13:25:32Z</time>
      </trkpt>
      <trkpt lat="49.77433" lon="2.28545">
        <ele>121.8</ele>
        <time>2023-02-01T13:25:33Z</time>
      </trkpt>
      <trkpt lat="49.77432" lon="2.28548">
        <ele>121.9</ele>
        <time>2023-02-01T13:25:34Z</time>
      </trkpt>
      <trkpt lat="49.77431" lon="2.28549">
        <ele>121.9</ele>
        <time>2023-02-01T13:25:35Z</time>
      </trkpt>
      <trkpt lat="49.77431" lon="2.2855">
        <ele>121.9</ele>
        <time>2023-02-01T13:25:36Z</time>
      </trkpt>
      <trkpt lat="49.77431" lon="2.28551">
        <ele>121.9</ele>
        <time>2023-02-01T13:25:37Z</time>
      </trkpt>
      <trkpt lat="49.7743" lon="2.28552">
        <ele>122</ele>
        <time>2023-02-01T13:25:39Z</time>
      </trkpt>
      <trkpt lat="49.77429" lon="2.28554">
        <ele>122</ele>
        <time>2023-02-01T13:25:40Z</time>
      </trkpt>
      <trkpt lat="49.77428" lon="2.28557">
        <ele>122.1</ele>
        <time>2023-02-01T13:25:41Z</time>
      </trkpt>
      <trkpt lat="49.77427" lon="2.28558">
        <ele>122.1</ele>
        <time>2023-02-01T13:25:42Z</time>
      </trkpt>
      <trkpt lat="49.77427" lon="2.28559">
        <ele>122.1</ele>
        <time>2023-02-01T13:25:43Z</time>
      </trkpt>
      <trkpt lat="49.77426" lon="2.28561">
        <ele>122.2</ele>
        <time>2023-02-01T13:25:44Z</time>
      </trkpt>
      <trkpt lat="49.77426" lon="2.28563">
        <ele>122.2</ele>
        <time>2023-02-01T13:25:45Z</time>
      </trkpt>
      <trkpt lat="49.77425" lon="2.28564">
        <ele>122.2</ele>
        <time>2023-02-01T13:25:47Z</time>
      </trkpt>
      <trkpt lat="49.77425" lon="2.28566">
        <ele>122.3</ele>
        <time>2023-02-01T13:25:48Z</time>
      </trkpt>
      <trkpt lat="49.77424" lon="2.28567">
        <ele>122.3</ele>
        <time>2023-02-01T13:25:49Z</time>
      </trkpt>
      <trkpt lat="49.77424" lon="2.28569">
        <ele>122.3</ele>
        <time>2023-02-01T13:25:50Z</time>
      </trkpt>
      <trkpt lat="49.77423" lon="2.28571">
        <ele>122.4</ele>
        <time>2023-02-01T13:25:51Z</time>
      </trkpt>
      <trkpt lat="49.77422" lon="2.28574">
        <ele>122.4</ele>
        <time>2023-02-01T13:25:52Z</time>
      </trkpt>
      <trkpt lat="49.77421" lon="2.28575">
        <ele>122.4</ele>
        <time>2023-02-01T13:25:53Z</time>
      </trkpt>
      <trkpt lat="49.77421" lon="2.28576">
        <ele>122.5</ele>
        <time>2023-02-01T13:25:54Z</time>
      </trkpt>
      <trkpt lat="49.7742" lon="2.28579">
        <ele>122.5</ele>
        <time>2023-02-01T13:25:56Z</time>
      </trkpt>
      <trkpt lat="49.77419" lon="2.2858">
        <ele>122.5</ele>
        <time>2023-02-01T13:25:57Z</time>
      </trkpt>
      <trkpt lat="49.77419" lon="2.28581">
        <ele>122.6</ele>
        <time>2023-02-01T13:25:58Z</time>
      </trkpt>
      <trkpt lat="49.77418" lon="2.28583">
        <ele>122.6</ele>
        <time>2023-02-01T13:25:59Z</time>
      </trkpt>
      <trkpt lat="49.77417" lon="2.28584">
        <ele>122.6</ele>
        <time>2023-02-01T13:26:00Z</time>
      </trkpt>
      <trkpt lat="49.77416" lon="2.28587">
        <ele>122.7</ele>
        <time>2023-02-01T13:26:02Z</time>
      </trkpt>
      <trkpt lat="49.77415" lon="2.28588">
        <ele>122.7</ele>
        <time>2023-02-01T13:26:03Z</time>
      </trkpt>
      <trkpt lat="49.77415" lon="2.2859">
        <ele>122.7</ele>
        <time>2023-02-01T13:26:04Z</time>
      </trkpt>
      <trkpt lat="49.77414" lon="2.28591">
        <ele>122.8</ele>
        <time>2023-02-01T13:26:05Z</time>
      </trkpt>
      <trkpt lat="49.77413" lon="2.28593">
        <ele>122.8</ele>
        <time>2023-02-01T13:26:06Z</time>
      </trkpt>
      <trkpt lat="49.77412" lon="2.28595">
        <ele>122.8</ele>
        <time>2023-02-01T13:26:07Z</time>
      </trkpt>
      <trkpt lat="49.77411" lon="2.28596">
        <ele>122.8</ele>
        <time>2023-02-01T13:26:08Z</time>
      </trkpt>
      <trkpt lat="49.77411" lon="2.28598">
        <ele>122.9</ele>
        <time>2023-02-01T13:26:09Z</time>
      </trkpt>
      <trkpt lat="49.77409" lon="2.28601">
        <ele>122.9</ele>
        <time>2023-02-01T13:26:11Z</time>
      </trkpt>
      <trkpt lat="49.77409" lon="2.28602">
        <ele>122.9</ele>
        <time>2023-02-01T13:26:12Z</time>
      </trkpt>
      <trkpt lat="49.77408" lon="2.28603">
        <ele>123</ele>
        <time>2023-02-01T13:26:13Z</time>
      </trkpt>
      <trkpt lat="49.77408" lon="2.28605">
        <ele>123</ele>
        <time>2023-02-01T13:26:14Z</time>
      </trkpt>
      <trkpt lat="49.77407" lon="2.28606">
        <ele>123</ele>
        <time>2023-02-01T13:26:15Z</time>
      </trkpt>
      <trkpt lat="49.77406" lon="2.28608">
        <ele>123</ele>
        <time>2023-02-01T13:26:16Z</time>
      </trkpt>
      <trkpt lat="49.77406" lon="2.28609">
        <ele>123.1</ele>
        <time>2023-02-01T13:26:17Z</time>
      </trkpt>
      <trkpt lat="49.77405" lon="2.2861">
        <ele>123.1</ele>
        <time>2023-02-01T13:26:18Z</time>
      </trkpt>
      <trkpt lat="49.77405" lon="2.28613">
        <ele>123.1</ele>
        <time>2023-02-01T13:26:20Z</time>
      </trkpt>
      <trkpt lat="49.77404" lon="2.28616">
        <ele>123.2</ele>
        <time>2023-02-01T13:26:21Z</time>
      </trkpt>
      <trkpt lat="49.77403" lon="2.28618">
        <ele>123.2</ele>
        <time>2023-02-01T13:26:22Z</time>
      </trkpt>
      <trkpt lat="49.77403" lon="2.2862">
        <ele>123.2</ele>
        <time>2023-02-01T13:26:23Z</time>
      </trkpt>
      <trkpt lat="49.77402" lon="2.28621">
        <ele>123.2</ele>
        <time>2023-02-01T13:26:24Z</time>
      </trkpt>
      <trkpt lat="49.77402" lon="2.28624">
        <ele>123.3</ele>
        <time>2023-02-01T13:26:25Z</time>
      </trkpt>
      <trkpt lat="49.77401" lon="2.28625">
        <ele>123.3</ele>
        <time>2023-02-01T13:26:27Z</time>
      </trkpt>
      <trkpt lat="49.77401" lon="2.28626">
        <ele>123.3</ele>
        <time>2023-02-01T13:26:28Z</time>
      </trkpt>
      <trkpt lat="49.774" lon="2.2863">
        <ele>123.3</ele>
        <time>2023-02-01T13:26:29Z</time>
      </trkpt>
      <trkpt lat="49.774" lon="2.28631">
        <ele>123.4</ele>
        <time>2023-02-01T13:26:30Z</time>
      </trkpt>
      <trkpt lat="49.77399" lon="2.28633">
        <ele>123.4</ele>
        <time>2023-02-01T13:26:31Z</time>
      </trkpt>
      <trkpt lat="49.77398" lon="2.28636">
        <ele>123.4</ele>
        <time>2023-02-01T13:26:32Z</time>
      </trkpt>
      <trkpt lat="49.77398" lon="2.28637">
        <ele>123.4</ele>
        <time>2023-02-01T13:26:33Z</time>
      </trkpt>
      <trkpt lat="49.77397" lon="2.28638">
        <ele>123.4</ele>
        <time>2023-02-01T13:26:34Z</time>
      </trkpt>
      <trkpt lat="49.77396" lon="2.28641">
        <ele>123.5</ele>
        <time>2023-02-01T13:26:35Z</time>
      </trkpt>
      <trkpt lat="49.77396" lon="2.28643">
        <ele>123.5</ele>
        <time>2023-02-01T13:26:36Z</time>
      </trkpt>
      <trkpt lat="49.77395" lon="2.28644">
        <ele>123.5</ele>
        <time>2023-02-01T13:26:38Z</time>
      </trkpt>
      <trkpt lat="49.77395" lon="2.28645">
        <ele>123.5</ele>
        <time>2023-02-01T13:26:39Z</time>
      </trkpt>
      <trkpt lat="49.77394" lon="2.28647">
        <ele>123.5</ele>
        <time>2023-02-01T13:26:40Z</time>
      </trkpt>
      <trkpt lat="49.77394" lon="2.28648">
        <ele>123.6</ele>
        <time>2023-02-01T13:26:41Z</time>
      </trkpt>
      <trkpt lat="49.77393" lon="2.28649">
        <ele>123.6</ele>
        <time>2023-02-01T13:26:42Z</time>
      </trkpt>
      <trkpt lat="49.77392" lon="2.28651">
        <ele>123.6</ele>
        <time>2023-02-01T13:26:43Z</time>
      </trkpt>
      <trkpt lat="49.77392" lon="2.28652">
        <ele>123.6</ele>
        <time>2023-02-01T13:26:44Z</time>
      </trkpt>
      <trkpt lat="49.77391" lon="2.28653">
        <ele>123.6</ele>
        <time>2023-02-01T13:26:45Z</time>
      </trkpt>
      <trkpt lat="49.7739" lon="2.28655">
        <ele>123.6</ele>
        <time>2023-02-01T13:26:47Z</time>
      </trkpt>
      <trkpt lat="49.77389" lon="2.28656">
        <ele>123.7</ele>
        <time>2023-02-01T13:26:48Z</time>
      </trkpt>
      <trkpt lat="49.77388" lon="2.28659">
        <ele>123.7</ele>
        <time>2023-02-01T13:26:49Z</time>
      </trkpt>
      <trkpt lat="49.77387" lon="2.2866">
        <ele>123.7</ele>
        <time>2023-02-01T13:26:50Z</time>
      </trkpt>
      <trkpt lat="49.77387" lon="2.28661">
        <ele>123.7</ele>
        <time>2023-02-01T13:26:51Z</time>
      </trkpt>
      <trkpt lat="49.77385" lon="2.28664">
        <ele>123.8</ele>
        <time>2023-02-01T13:26:52Z</time>
      </trkpt>
      <trkpt lat="49.77385" lon="2.28665">
        <ele>123.8</ele>
        <time>2023-02-01T13:26:53Z</time>
      </trkpt>
      <trkpt lat="49.77384" lon="2.28665">
        <ele>123.8</ele>
        <time>2023-02-01T13:26:54Z</time>
      </trkpt>
      <trkpt lat="49.77383" lon="2.28668">
        <ele>123.8</ele>
        <time>2023-02-01T13:26:55Z</time>
      </trkpt>
      <trkpt lat="49.77382" lon="2.28669">
        <ele>123.8</ele>
        <time>2023-02-01T13:26:56Z</time>
      </trkpt>
      <trkpt lat="49.77382" lon="2.28671">
        <ele>123.8</ele>
        <time>2023-02-01T13:26:58Z</time>
      </trkpt>
      <trkpt lat="49.77381" lon="2.28672">
        <ele>123.8</ele>
        <time>2023-02-01T13:26:59Z</time>
      </trkpt>
      <trkpt lat="49.7738" lon="2.28673">
        <ele>123.8</ele>
        <time>2023-02-01T13:27:00Z</time>
      </trkpt>
      <trkpt lat="49.7738" lon="2.28675">
        <ele>123.8</ele>
        <time>2023-02-01T13:27:01Z</time>
      </trkpt>
      <trkpt lat="49.77379" lon="2.28677">
        <ele>123.9</ele>
        <time>2023-02-01T13:27:02Z</time>
      </trkpt>
      <trkpt lat="49.77378" lon="2.28679">
        <ele>123.9</ele>
        <time>2023-02-01T13:27:03Z</time>
      </trkpt>
      <trkpt lat="49.77378" lon="2.2868">
        <ele>123.9</ele>
        <time>2023-02-01T13:27:04Z</time>
      </trkpt>
      <trkpt lat="49.77377" lon="2.28681">
        <ele>123.9</ele>
        <time>2023-02-01T13:27:05Z</time>
      </trkpt>
      <trkpt lat="49.77377" lon="2.28684">
        <ele>123.9</ele>
        <time>2023-02-01T13:27:06Z</time>
      </trkpt>
      <trkpt lat="49.77376" lon="2.28685">
        <ele>123.9</ele>
        <time>2023-02-01T13:27:07Z</time>
      </trkpt>
      <trkpt lat="49.77376" lon="2.28687">
        <ele>123.9</ele>
        <time>2023-02-01T13:27:09Z</time>
      </trkpt>
      <trkpt lat="49.77375" lon="2.28689">
        <ele>123.9</ele>
        <time>2023-02-01T13:27:10Z</time>
      </trkpt>
      <trkpt lat="49.77375" lon="2.28691">
        <ele>123.9</ele>
        <time>2023-02-01T13:27:11Z</time>
      </trkpt>
      <trkpt lat="49.77374" lon="2.28693">
        <ele>123.9</ele>
        <time>2023-02-01T13:27:12Z</time>
      </trkpt>
      <trkpt lat="49.77374" lon="2.28695">
        <ele>123.9</ele>
        <time>2023-02-01T13:27:14Z</time>
      </trkpt>
      <trkpt lat="49.77373" lon="2.28697">
        <ele>123.9</ele>
        <time>2023-02-01T13:27:15Z</time>
      </trkpt>
      <trkpt lat="49.77373" lon="2.28698">
        <ele>123.9</ele>
        <time>2023-02-01T13:27:16Z</time>
      </trkpt>
      <trkpt lat="49.77372" lon="2.28701">
        <ele>123.9</ele>
        <time>2023-02-01T13:27:17Z</time>
      </trkpt>
      <trkpt lat="49.77371" lon="2.28702">
        <ele>123.9</ele>
        <time>2023-02-01T13:27:18Z</time>
      </trkpt>
      <trkpt lat="49.77371" lon="2.28703">
        <ele>124</ele>
        <time>2023-02-01T13:27:19Z</time>
      </trkpt>
      <trkpt lat="49.7737" lon="2.28705">
        <ele>124</ele>
        <time>2023-02-01T13:27:20Z</time>
      </trkpt>
      <trkpt lat="49.77369" lon="2.28707">
        <ele>124</ele>
        <time>2023-02-01T13:27:21Z</time>
      </trkpt>
      <trkpt lat="49.77369" lon="2.28708">
        <ele>124</ele>
        <time>2023-02-01T13:27:22Z</time>
      </trkpt>
      <trkpt lat="49.77368" lon="2.2871">
        <ele>124</ele>
        <time>2023-02-01T13:27:24Z</time>
      </trkpt>
      <trkpt lat="49.77368" lon="2.28711">
        <ele>124</ele>
        <time>2023-02-01T13:27:25Z</time>
      </trkpt>
      <trkpt lat="49.77367" lon="2.28713">
        <ele>124</ele>
        <time>2023-02-01T13:27:26Z</time>
      </trkpt>
      <trkpt lat="49.77367" lon="2.28714">
        <ele>124</ele>
        <time>2023-02-01T13:27:27Z</time>
      </trkpt>
      <trkpt lat="49.77366" lon="2.28715">
        <ele>124</ele>
        <time>2023-02-01T13:27:28Z</time>
      </trkpt>
      <trkpt lat="49.77365" lon="2.28718">
        <ele>124</ele>
        <time>2023-02-01T13:27:29Z</time>
      </trkpt>
      <trkpt lat="49.77364" lon="2.28719">
        <ele>124</ele>
        <time>2023-02-01T13:27:30Z</time>
      </trkpt>
      <trkpt lat="49.77364" lon="2.2872">
        <ele>124</ele>
        <time>2023-02-01T13:27:31Z</time>
      </trkpt>
      <trkpt lat="49.77363" lon="2.28721">
        <ele>124</ele>
        <time>2023-02-01T13:27:33Z</time>
      </trkpt>
      <trkpt lat="49.77362" lon="2.28722">
        <ele>124</ele>
        <time>2023-02-01T13:27:34Z</time>
      </trkpt>
      <trkpt lat="49.77362" lon="2.28724">
        <ele>124</ele>
        <time>2023-02-01T13:27:35Z</time>
      </trkpt>
      <trkpt lat="49.7736" lon="2.28726">
        <ele>124</ele>
        <time>2023-02-01T13:27:36Z</time>
      </trkpt>
      <trkpt lat="49.7736" lon="2.28727">
        <ele>124</ele>
        <time>2023-02-01T13:27:37Z</time>
      </trkpt>
      <trkpt lat="49.77359" lon="2.28728">
        <ele>124</ele>
        <time>2023-02-01T13:27:38Z</time>
      </trkpt>
      <trkpt lat="49.77359" lon="2.2873">
        <ele>124</ele>
        <time>2023-02-01T13:27:39Z</time>
      </trkpt>
      <trkpt lat="49.77358" lon="2.28732">
        <ele>124</ele>
        <time>2023-02-01T13:27:40Z</time>
      </trkpt>
      <trkpt lat="49.77358" lon="2.28735">
        <ele>124</ele>
        <time>2023-02-01T13:27:42Z</time>
      </trkpt>
      <trkpt lat="49.77357" lon="2.28737">
        <ele>124</ele>
        <time>2023-02-01T13:27:43Z</time>
      </trkpt>
      <trkpt lat="49.77357" lon="2.28739">
        <ele>124</ele>
        <time>2023-02-01T13:27:44Z</time>
      </trkpt>
      <trkpt lat="49.77356" lon="2.2874">
        <ele>123.9</ele>
        <time>2023-02-01T13:27:45Z</time>
      </trkpt>
      <trkpt lat="49.77355" lon="2.28743">
        <ele>123.9</ele>
        <time>2023-02-01T13:27:46Z</time>
      </trkpt>
      <trkpt lat="49.77355" lon="2.28745">
        <ele>123.9</ele>
        <time>2023-02-01T13:27:47Z</time>
      </trkpt>
      <trkpt lat="49.77354" lon="2.28746">
        <ele>123.9</ele>
        <time>2023-02-01T13:27:48Z</time>
      </trkpt>
      <trkpt lat="49.77354" lon="2.28748">
        <ele>123.9</ele>
        <time>2023-02-01T13:27:49Z</time>
      </trkpt>
      <trkpt lat="49.77353" lon="2.2875">
        <ele>123.9</ele>
        <time>2023-02-01T13:27:51Z</time>
      </trkpt>
      <trkpt lat="49.77353" lon="2.28753">
        <ele>123.9</ele>
        <time>2023-02-01T13:27:52Z</time>
      </trkpt>
      <trkpt lat="49.77352" lon="2.28754">
        <ele>123.9</ele>
        <time>2023-02-01T13:27:53Z</time>
      </trkpt>
      <trkpt lat="49.77351" lon="2.28757">
        <ele>123.9</ele>
        <time>2023-02-01T13:27:54Z</time>
      </trkpt>
      <trkpt lat="49.77351" lon="2.28758">
        <ele>123.8</ele>
        <time>2023-02-01T13:27:55Z</time>
      </trkpt>
      <trkpt lat="49.7735" lon="2.2876">
        <ele>123.8</ele>
        <time>2023-02-01T13:27:56Z</time>
      </trkpt>
      <trkpt lat="49.7735" lon="2.28762">
        <ele>123.8</ele>
        <time>2023-02-01T13:27:57Z</time>
      </trkpt>
      <trkpt lat="49.77349" lon="2.28764">
        <ele>123.8</ele>
        <time>2023-02-01T13:27:58Z</time>
      </trkpt>
      <trkpt lat="49.77349" lon="2.28766">
        <ele>123.8</ele>
        <time>2023-02-01T13:27:59Z</time>
      </trkpt>
      <trkpt lat="49.77348" lon="2.28768">
        <ele>123.7</ele>
        <time>2023-02-01T13:28:00Z</time>
      </trkpt>
      <trkpt lat="49.77348" lon="2.28769">
        <ele>123.7</ele>
        <time>2023-02-01T13:28:01Z</time>
      </trkpt>
      <trkpt lat="49.77348" lon="2.2877">
        <ele>123.7</ele>
        <time>2023-02-01T13:28:03Z</time>
      </trkpt>
      <trkpt lat="49.77347" lon="2.28772">
        <ele>123.7</ele>
        <time>2023-02-01T13:28:04Z</time>
      </trkpt>
      <trkpt lat="49.77347" lon="2.28774">
        <ele>123.7</ele>
        <time>2023-02-01T13:28:05Z</time>
      </trkpt>
      <trkpt lat="49.77346" lon="2.28775">
        <ele>123.6</ele>
        <time>2023-02-01T13:28:06Z</time>
      </trkpt>
      <trkpt lat="49.77346" lon="2.28777">
        <ele>123.6</ele>
        <time>2023-02-01T13:28:07Z</time>
      </trkpt>
      <trkpt lat="49.77345" lon="2.28781">
        <ele>123.6</ele>
        <time>2023-02-01T13:28:08Z</time>
      </trkpt>
      <trkpt lat="49.77345" lon="2.28782">
        <ele>123.5</ele>
        <time>2023-02-01T13:28:10Z</time>
      </trkpt>
      <trkpt lat="49.77344" lon="2.28784">
        <ele>123.5</ele>
        <time>2023-02-01T13:28:11Z</time>
      </trkpt>
      <trkpt lat="49.77344" lon="2.28785">
        <ele>123.5</ele>
        <time>2023-02-01T13:28:12Z</time>
      </trkpt>
      <trkpt lat="49.77343" lon="2.28787">
        <ele>123.5</ele>
        <time>2023-02-01T13:28:13Z</time>
      </trkpt>
      <trkpt lat="49.77343" lon="2.28788">
        <ele>123.5</ele>
        <time>2023-02-01T13:28:14Z</time>
      </trkpt>
      <trkpt lat="49.77342" lon="2.2879">
        <ele>123.4</ele>
        <time>2023-02-01T13:28:15Z</time>
      </trkpt>
      <trkpt lat="49.77342" lon="2.28791">
        <ele>123.4</ele>
        <time>2023-02-01T13:28:16Z</time>
      </trkpt>
      <trkpt lat="49.77341" lon="2.28793">
        <ele>123.4</ele>
        <time>2023-02-01T13:28:17Z</time>
      </trkpt>
      <trkpt lat="49.7734" lon="2.28794">
        <ele>123.4</ele>
        <time>2023-02-01T13:28:18Z</time>
      </trkpt>
      <trkpt lat="49.77339" lon="2.28796">
        <ele>123.4</ele>
        <time>2023-02-01T13:28:20Z</time>
      </trkpt>
      <trkpt lat="49.77339" lon="2.28797">
        <ele>123.3</ele>
        <time>2023-02-01T13:28:21Z</time>
      </trkpt>
      <trkpt lat="49.77338" lon="2.28799">
        <ele>123.3</ele>
        <time>2023-02-01T13:28:22Z</time>
      </trkpt>
      <trkpt lat="49.77337" lon="2.288">
        <ele>123.3</ele>
        <time>2023-02-01T13:28:23Z</time>
      </trkpt>
      <trkpt lat="49.77336" lon="2.28801">
        <ele>123.3</ele>
        <time>2023-02-01T13:28:24Z</time>
      </trkpt>
      <trkpt lat="49.77336" lon="2.28803">
        <ele>123.3</ele>
        <time>2023-02-01T13:28:25Z</time>
      </trkpt>
      <trkpt lat="49.77335" lon="2.28804">
        <ele>123.2</ele>
        <time>2023-02-01T13:28:26Z</time>
      </trkpt>
      <trkpt lat="49.77335" lon="2.28807">
        <ele>123.2</ele>
        <time>2023-02-01T13:28:27Z</time>
      </trkpt>
      <trkpt lat="49.77334" lon="2.28809">
        <ele>123.2</ele>
        <time>2023-02-01T13:28:28Z</time>
      </trkpt>
      <trkpt lat="49.77334" lon="2.28811">
        <ele>123.2</ele>
        <time>2023-02-01T13:28:29Z</time>
      </trkpt>
      <trkpt lat="49.77333" lon="2.28814">
        <ele>123.2</ele>
        <time>2023-02-01T13:28:30Z</time>
      </trkpt>
      <trkpt lat="49.77332" lon="2.28816">
        <ele>123.2</ele>
        <time>2023-02-01T13:28:32Z</time>
      </trkpt>
      <trkpt lat="49.77332" lon="2.28817">
        <ele>123.1</ele>
        <time>2023-02-01T13:28:33Z</time>
      </trkpt>
      <trkpt lat="49.77331" lon="2.28819">
        <ele>123.1</ele>
        <time>2023-02-01T13:28:34Z</time>
      </trkpt>
      <trkpt lat="49.7733" lon="2.2882">
        <ele>123.1</ele>
        <time>2023-02-01T13:28:35Z</time>
      </trkpt>
      <trkpt lat="49.7733" lon="2.28822">
        <ele>123.1</ele>
        <time>2023-02-01T13:28:37Z</time>
      </trkpt>
      <trkpt lat="49.77329" lon="2.28824">
        <ele>123.1</ele>
        <time>2023-02-01T13:28:38Z</time>
      </trkpt>
      <trkpt lat="49.77329" lon="2.28825">
        <ele>123.1</ele>
        <time>2023-02-01T13:28:39Z</time>
      </trkpt>
      <trkpt lat="49.77328" lon="2.28827">
        <ele>123.1</ele>
        <time>2023-02-01T13:28:40Z</time>
      </trkpt>
      <trkpt lat="49.77328" lon="2.28828">
        <ele>123.1</ele>
        <time>2023-02-01T13:28:41Z</time>
      </trkpt>
      <trkpt lat="49.77327" lon="2.2883">
        <ele>123</ele>
        <time>2023-02-01T13:28:42Z</time>
      </trkpt>
      <trkpt lat="49.77327" lon="2.28831">
        <ele>123</ele>
        <time>2023-02-01T13:28:43Z</time>
      </trkpt>
      <trkpt lat="49.77326" lon="2.28833">
        <ele>123</ele>
        <time>2023-02-01T13:28:44Z</time>
      </trkpt>
      <trkpt lat="49.77326" lon="2.28834">
        <ele>123</ele>
        <time>2023-02-01T13:28:45Z</time>
      </trkpt>
      <trkpt lat="49.77325" lon="2.28837">
        <ele>123</ele>
        <time>2023-02-01T13:28:46Z</time>
      </trkpt>
      <trkpt lat="49.77324" lon="2.28839">
        <ele>123</ele>
        <time>2023-02-01T13:28:47Z</time>
      </trkpt>
      <trkpt lat="49.77324" lon="2.28841">
        <ele>123</ele>
        <time>2023-02-01T13:28:49Z</time>
      </trkpt>
      <trkpt lat="49.77323" lon="2.28842">
        <ele>123</ele>
        <time>2023-02-01T13:28:50Z</time>
      </trkpt>
      <trkpt lat="49.77322" lon="2.28844">
        <ele>123</ele>
        <time>2023-02-01T13:28:51Z</time>
      </trkpt>
      <trkpt lat="49.77322" lon="2.28846">
        <ele>123</ele>
        <time>2023-02-01T13:28:52Z</time>
      </trkpt>
      <trkpt lat="49.77321" lon="2.28848">
        <ele>123</ele>
        <time>2023-02-01T13:28:53Z</time>
      </trkpt>
      <trkpt lat="49.77321" lon="2.2885">
        <ele>123</ele>
        <time>2023-02-01T13:28:54Z</time>
      </trkpt>
      <trkpt lat="49.7732" lon="2.28851">
        <ele>122.9</ele>
        <time>2023-02-01T13:28:55Z</time>
      </trkpt>
      <trkpt lat="49.7732" lon="2.28853">
        <ele>122.9</ele>
        <time>2023-02-01T13:28:56Z</time>
      </trkpt>
      <trkpt lat="49.77319" lon="2.28855">
        <ele>122.9</ele>
        <time>2023-02-01T13:28:57Z</time>
      </trkpt>
      <trkpt lat="49.77319" lon="2.28857">
        <ele>122.9</ele>
        <time>2023-02-01T13:28:58Z</time>
      </trkpt>
      <trkpt lat="49.77318" lon="2.28859">
        <ele>122.9</ele>
        <time>2023-02-01T13:28:59Z</time>
      </trkpt>
      <trkpt lat="49.77318" lon="2.28861">
        <ele>122.9</ele>
        <time>2023-02-01T13:29:01Z</time>
      </trkpt>
      <trkpt lat="49.77318" lon="2.28864">
        <ele>122.9</ele>
        <time>2023-02-01T13:29:02Z</time>
      </trkpt>
      <trkpt lat="49.77317" lon="2.28865">
        <ele>122.9</ele>
        <time>2023-02-01T13:29:03Z</time>
      </trkpt>
      <trkpt lat="49.77316" lon="2.28868">
        <ele>122.9</ele>
        <time>2023-02-01T13:29:04Z</time>
      </trkpt>
      <trkpt lat="49.77316" lon="2.2887">
        <ele>122.9</ele>
        <time>2023-02-01T13:29:05Z</time>
      </trkpt>
      <trkpt lat="49.77316" lon="2.28871">
        <ele>122.9</ele>
        <time>2023-02-01T13:29:06Z</time>
      </trkpt>
      <trkpt lat="49.77315" lon="2.28874">
        <ele>122.9</ele>
        <time>2023-02-01T13:29:07Z</time>
      </trkpt>
      <trkpt lat="49.77315" lon="2.28876">
        <ele>122.9</ele>
        <time>2023-02-01T13:29:08Z</time>
      </trkpt>
      <trkpt lat="49.77314" lon="2.28879">
        <ele>122.9</ele>
        <time>2023-02-01T13:29:09Z</time>
      </trkpt>
      <trkpt lat="49.77314" lon="2.2888">
        <ele>122.9</ele>
        <time>2023-02-01T13:29:10Z</time>
      </trkpt>
      <trkpt lat="49.77313" lon="2.28881">
        <ele>122.9</ele>
        <time>2023-02-01T13:29:11Z</time>
      </trkpt>
      <trkpt lat="49.77312" lon="2.28883">
        <ele>122.9</ele>
        <time>2023-02-01T13:29:13Z</time>
      </trkpt>
      <trkpt lat="49.77312" lon="2.28885">
        <ele>122.9</ele>
        <time>2023-02-01T13:29:14Z</time>
      </trkpt>
      <trkpt lat="49.7731" lon="2.28888">
        <ele>122.9</ele>
        <time>2023-02-01T13:29:15Z</time>
      </trkpt>
      <trkpt lat="49.7731" lon="2.28889">
        <ele>122.9</ele>
        <time>2023-02-01T13:29:16Z</time>
      </trkpt>
      <trkpt lat="49.77309" lon="2.2889">
        <ele>122.9</ele>
        <time>2023-02-01T13:29:17Z</time>
      </trkpt>
      <trkpt lat="49.77309" lon="2.28892">
        <ele>122.9</ele>
        <time>2023-02-01T13:29:18Z</time>
      </trkpt>
      <trkpt lat="49.77308" lon="2.28893">
        <ele>122.9</ele>
        <time>2023-02-01T13:29:19Z</time>
      </trkpt>
      <trkpt lat="49.77308" lon="2.28895">
        <ele>122.9</ele>
        <time>2023-02-01T13:29:20Z</time>
      </trkpt>
      <trkpt lat="49.77307" lon="2.28897">
        <ele>122.9</ele>
        <time>2023-02-01T13:29:21Z</time>
      </trkpt>
      <trkpt lat="49.77306" lon="2.28898">
        <ele>122.9</ele>
        <time>2023-02-01T13:29:22Z</time>
      </trkpt>
      <trkpt lat="49.77306" lon="2.28899">
        <ele>122.9</ele>
        <time>2023-02-01T13:29:24Z</time>
      </trkpt>
      <trkpt lat="49.77305" lon="2.28901">
        <ele>122.9</ele>
        <time>2023-02-01T13:29:25Z</time>
      </trkpt>
      <trkpt lat="49.77305" lon="2.28902">
        <ele>122.9</ele>
        <time>2023-02-01T13:29:26Z</time>
      </trkpt>
      <trkpt lat="49.77304" lon="2.28904">
        <ele>122.9</ele>
        <time>2023-02-01T13:29:27Z</time>
      </trkpt>
      <trkpt lat="49.77304" lon="2.28905">
        <ele>122.9</ele>
        <time>2023-02-01T13:29:28Z</time>
      </trkpt>
      <trkpt lat="49.77303" lon="2.28906">
        <ele>122.9</ele>
        <time>2023-02-01T13:29:29Z</time>
      </trkpt>
      <trkpt lat="49.77302" lon="2.28908">
        <ele>122.9</ele>
        <time>2023-02-01T13:29:30Z</time>
      </trkpt>
      <trkpt lat="49.77302" lon="2.28909">
        <ele>122.9</ele>
        <time>2023-02-01T13:29:31Z</time>
      </trkpt>
      <trkpt lat="49.77301" lon="2.28911">
        <ele>122.9</ele>
        <time>2023-02-01T13:29:32Z</time>
      </trkpt>
      <trkpt lat="49.77301" lon="2.28912">
        <ele>122.8</ele>
        <time>2023-02-01T13:29:34Z</time>
      </trkpt>
      <trkpt lat="49.773" lon="2.28913">
        <ele>122.8</ele>
        <time>2023-02-01T13:29:35Z</time>
      </trkpt>
      <trkpt lat="49.77299" lon="2.28914">
        <ele>122.8</ele>
        <time>2023-02-01T13:29:36Z</time>
      </trkpt>
      <trkpt lat="49.77298" lon="2.28916">
        <ele>122.8</ele>
        <time>2023-02-01T13:29:37Z</time>
      </trkpt>
      <trkpt lat="49.77298" lon="2.28916">
        <ele>122.8</ele>
        <time>2023-02-01T13:29:38Z</time>
      </trkpt>
      <trkpt lat="49.77297" lon="2.28917">
        <ele>122.8</ele>
        <time>2023-02-01T13:29:39Z</time>
      </trkpt>
      <trkpt lat="49.77297" lon="2.28919">
        <ele>122.8</ele>
        <time>2023-02-01T13:29:40Z</time>
      </trkpt>
      <trkpt lat="49.77296" lon="2.2892">
        <ele>122.8</ele>
        <time>2023-02-01T13:29:41Z</time>
      </trkpt>
      <trkpt lat="49.77296" lon="2.28921">
        <ele>122.8</ele>
        <time>2023-02-01T13:29:43Z</time>
      </trkpt>
      <trkpt lat="49.77295" lon="2.28922">
        <ele>122.8</ele>
        <time>2023-02-01T13:29:44Z</time>
      </trkpt>
      <trkpt lat="49.77294" lon="2.28925">
        <ele>122.8</ele>
        <time>2023-02-01T13:29:45Z</time>
      </trkpt>
      <trkpt lat="49.77294" lon="2.28926">
        <ele>122.8</ele>
        <time>2023-02-01T13:29:46Z</time>
      </trkpt>
      <trkpt lat="49.77293" lon="2.28927">
        <ele>122.7</ele>
        <time>2023-02-01T13:29:47Z</time>
      </trkpt>
      <trkpt lat="49.77293" lon="2.28929">
        <ele>122.7</ele>
        <time>2023-02-01T13:29:48Z</time>
      </trkpt>
      <trkpt lat="49.77292" lon="2.2893">
        <ele>122.7</ele>
        <time>2023-02-01T13:29:49Z</time>
      </trkpt>
      <trkpt lat="49.77292" lon="2.28932">
        <ele>122.7</ele>
        <time>2023-02-01T13:29:51Z</time>
      </trkpt>
      <trkpt lat="49.77291" lon="2.28934">
        <ele>122.7</ele>
        <time>2023-02-01T13:29:52Z</time>
      </trkpt>
      <trkpt lat="49.77291" lon="2.28936">
        <ele>122.7</ele>
        <time>2023-02-01T13:29:53Z</time>
      </trkpt>
      <trkpt lat="49.7729" lon="2.28939">
        <ele>122.7</ele>
        <time>2023-02-01T13:29:54Z</time>
      </trkpt>
      <trkpt lat="49.7729" lon="2.28941">
        <ele>122.7</ele>
        <time>2023-02-01T13:29:55Z</time>
      </trkpt>
      <trkpt lat="49.7729" lon="2.28942">
        <ele>122.6</ele>
        <time>2023-02-01T13:29:56Z</time>
      </trkpt>
      <trkpt lat="49.77289" lon="2.28945">
        <ele>122.6</ele>
        <time>2023-02-01T13:29:57Z</time>
      </trkpt>
      <trkpt lat="49.77288" lon="2.28947">
        <ele>122.6</ele>
        <time>2023-02-01T13:29:58Z</time>
      </trkpt>
      <trkpt lat="49.77287" lon="2.2895">
        <ele>122.6</ele>
        <time>2023-02-01T13:29:59Z</time>
      </trkpt>
      <trkpt lat="49.77287" lon="2.28951">
        <ele>122.6</ele>
        <time>2023-02-01T13:30:01Z</time>
      </trkpt>
      <trkpt lat="49.77287" lon="2.28952">
        <ele>122.6</ele>
        <time>2023-02-01T13:30:02Z</time>
      </trkpt>
      <trkpt lat="49.77286" lon="2.28955">
        <ele>122.5</ele>
        <time>2023-02-01T13:30:03Z</time>
      </trkpt>
      <trkpt lat="49.77285" lon="2.28956">
        <ele>122.5</ele>
        <time>2023-02-01T13:30:04Z</time>
      </trkpt>
      <trkpt lat="49.77285" lon="2.28957">
        <ele>122.5</ele>
        <time>2023-02-01T13:30:05Z</time>
      </trkpt>
      <trkpt lat="49.77284" lon="2.28958">
        <ele>122.5</ele>
        <time>2023-02-01T13:30:06Z</time>
      </trkpt>
      <trkpt lat="49.77284" lon="2.28961">
        <ele>122.5</ele>
        <time>2023-02-01T13:30:07Z</time>
      </trkpt>
      <trkpt lat="49.77283" lon="2.28961">
        <ele>122.5</ele>
        <time>2023-02-01T13:30:09Z</time>
      </trkpt>
      <trkpt lat="49.77283" lon="2.28963">
        <ele>122.5</ele>
        <time>2023-02-01T13:30:10Z</time>
      </trkpt>
      <trkpt lat="49.77282" lon="2.28964">
        <ele>122.4</ele>
        <time>2023-02-01T13:30:11Z</time>
      </trkpt>
      <trkpt lat="49.77281" lon="2.28967">
        <ele>122.4</ele>
        <time>2023-02-01T13:30:12Z</time>
      </trkpt>
      <trkpt lat="49.7728" lon="2.28968">
        <ele>122.4</ele>
        <time>2023-02-01T13:30:13Z</time>
      </trkpt>
      <trkpt lat="49.77279" lon="2.28969">
        <ele>122.4</ele>
        <time>2023-02-01T13:30:14Z</time>
      </trkpt>
      <trkpt lat="49.77279" lon="2.2897">
        <ele>122.4</ele>
        <time>2023-02-01T13:30:15Z</time>
      </trkpt>
      <trkpt lat="49.77279" lon="2.28972">
        <ele>122.4</ele>
        <time>2023-02-01T13:30:16Z</time>
      </trkpt>
      <trkpt lat="49.77278" lon="2.28973">
        <ele>122.3</ele>
        <time>2023-02-01T13:30:18Z</time>
      </trkpt>
      <trkpt lat="49.77278" lon="2.28975">
        <ele>122.3</ele>
        <time>2023-02-01T13:30:19Z</time>
      </trkpt>
      <trkpt lat="49.77277" lon="2.28977">
        <ele>122.3</ele>
        <time>2023-02-01T13:30:20Z</time>
      </trkpt>
      <trkpt lat="49.77277" lon="2.28979">
        <ele>122.3</ele>
        <time>2023-02-01T13:30:21Z</time>
      </trkpt>
      <trkpt lat="49.77276" lon="2.28982">
        <ele>122.2</ele>
        <time>2023-02-01T13:30:22Z</time>
      </trkpt>
      <trkpt lat="49.77276" lon="2.28983">
        <ele>122.2</ele>
        <time>2023-02-01T13:30:23Z</time>
      </trkpt>
      <trkpt lat="49.77276" lon="2.28984">
        <ele>122.2</ele>
        <time>2023-02-01T13:30:24Z</time>
      </trkpt>
      <trkpt lat="49.77275" lon="2.28987">
        <ele>122.2</ele>
        <time>2023-02-01T13:30:25Z</time>
      </trkpt>
      <trkpt lat="49.77275" lon="2.28988">
        <ele>122.2</ele>
        <time>2023-02-01T13:30:26Z</time>
      </trkpt>
      <trkpt lat="49.77275" lon="2.2899">
        <ele>122.1</ele>
        <time>2023-02-01T13:30:27Z</time>
      </trkpt>
      <trkpt lat="49.77275" lon="2.28991">
        <ele>122.1</ele>
        <time>2023-02-01T13:30:29Z</time>
      </trkpt>
      <trkpt lat="49.77274" lon="2.28992">
        <ele>122.1</ele>
        <time>2023-02-01T13:30:30Z</time>
      </trkpt>
      <trkpt lat="49.77274" lon="2.28994">
        <ele>122.1</ele>
        <time>2023-02-01T13:30:31Z</time>
      </trkpt>
      <trkpt lat="49.77273" lon="2.28996">
        <ele>122.1</ele>
        <time>2023-02-01T13:30:32Z</time>
      </trkpt>
      <trkpt lat="49.77272" lon="2.28999">
        <ele>122</ele>
        <time>2023-02-01T13:30:33Z</time>
      </trkpt>
      <trkpt lat="49.77272" lon="2.29">
        <ele>122</ele>
        <time>2023-02-01T13:30:34Z</time>
      </trkpt>
      <trkpt lat="49.77271" lon="2.29002">
        <ele>122</ele>
        <time>2023-02-01T13:30:35Z</time>
      </trkpt>
      <trkpt lat="49.77271" lon="2.29004">
        <ele>122</ele>
        <time>2023-02-01T13:30:37Z</time>
      </trkpt>
      <trkpt lat="49.77269" lon="2.29007">
        <ele>122</ele>
        <time>2023-02-01T13:30:38Z</time>
      </trkpt>
      <trkpt lat="49.77269" lon="2.29008">
        <ele>122</ele>
        <time>2023-02-01T13:30:39Z</time>
      </trkpt>
      <trkpt lat="49.77269" lon="2.29009">
        <ele>121.9</ele>
        <time>2023-02-01T13:30:40Z</time>
      </trkpt>
      <trkpt lat="49.77268" lon="2.29011">
        <ele>121.9</ele>
        <time>2023-02-01T13:30:41Z</time>
      </trkpt>
      <trkpt lat="49.77267" lon="2.29014">
        <ele>121.9</ele>
        <time>2023-02-01T13:30:42Z</time>
      </trkpt>
      <trkpt lat="49.77266" lon="2.29016">
        <ele>121.9</ele>
        <time>2023-02-01T13:30:43Z</time>
      </trkpt>
      <trkpt lat="49.77266" lon="2.29018">
        <ele>121.9</ele>
        <time>2023-02-01T13:30:44Z</time>
      </trkpt>
      <trkpt lat="49.77265" lon="2.29019">
        <ele>121.9</ele>
        <time>2023-02-01T13:30:46Z</time>
      </trkpt>
      <trkpt lat="49.77265" lon="2.29021">
        <ele>121.8</ele>
        <time>2023-02-01T13:30:47Z</time>
      </trkpt>
      <trkpt lat="49.77264" lon="2.29022">
        <ele>121.8</ele>
        <time>2023-02-01T13:30:48Z</time>
      </trkpt>
      <trkpt lat="49.77264" lon="2.29023">
        <ele>121.8</ele>
        <time>2023-02-01T13:30:49Z</time>
      </trkpt>
      <trkpt lat="49.77263" lon="2.29026">
        <ele>121.8</ele>
        <time>2023-02-01T13:30:51Z</time>
      </trkpt>
      <trkpt lat="49.77262" lon="2.29028">
        <ele>121.8</ele>
        <time>2023-02-01T13:30:52Z</time>
      </trkpt>
      <trkpt lat="49.77262" lon="2.29029">
        <ele>121.8</ele>
        <time>2023-02-01T13:30:53Z</time>
      </trkpt>
      <trkpt lat="49.77262" lon="2.2903">
        <ele>121.8</ele>
        <time>2023-02-01T13:30:54Z</time>
      </trkpt>
      <trkpt lat="49.77261" lon="2.29032">
        <ele>121.7</ele>
        <time>2023-02-01T13:30:55Z</time>
      </trkpt>
      <trkpt lat="49.7726" lon="2.29034">
        <ele>121.7</ele>
        <time>2023-02-01T13:30:56Z</time>
      </trkpt>
      <trkpt lat="49.77259" lon="2.29037">
        <ele>121.7</ele>
        <time>2023-02-01T13:30:57Z</time>
      </trkpt>
      <trkpt lat="49.77259" lon="2.29038">
        <ele>121.7</ele>
        <time>2023-02-01T13:30:58Z</time>
      </trkpt>
      <trkpt lat="49.77258" lon="2.29039">
        <ele>121.7</ele>
        <time>2023-02-01T13:31:00Z</time>
      </trkpt>
      <trkpt lat="49.77258" lon="2.29041">
        <ele>121.7</ele>
        <time>2023-02-01T13:31:01Z</time>
      </trkpt>
      <trkpt lat="49.77258" lon="2.29042">
        <ele>121.6</ele>
        <time>2023-02-01T13:31:02Z</time>
      </trkpt>
      <trkpt lat="49.77257" lon="2.29043">
        <ele>121.6</ele>
        <time>2023-02-01T13:31:03Z</time>
      </trkpt>
      <trkpt lat="49.77257" lon="2.29044">
        <ele>121.6</ele>
        <time>2023-02-01T13:31:04Z</time>
      </trkpt>
      <trkpt lat="49.77256" lon="2.29046">
        <ele>121.6</ele>
        <time>2023-02-01T13:31:05Z</time>
      </trkpt>
      <trkpt lat="49.77256" lon="2.29047">
        <ele>121.6</ele>
        <time>2023-02-01T13:31:07Z</time>
      </trkpt>
      <trkpt lat="49.77254" lon="2.29048">
        <ele>121.6</ele>
        <time>2023-02-01T13:31:08Z</time>
      </trkpt>
      <trkpt lat="49.77254" lon="2.29048">
        <ele>121.6</ele>
        <time>2023-02-01T13:31:09Z</time>
      </trkpt>
      <trkpt lat="49.77253" lon="2.29049">
        <ele>121.6</ele>
        <time>2023-02-01T13:31:10Z</time>
      </trkpt>
      <trkpt lat="49.77252" lon="2.2905">
        <ele>121.6</ele>
        <time>2023-02-01T13:31:11Z</time>
      </trkpt>
      <trkpt lat="49.77251" lon="2.2905">
        <ele>121.5</ele>
        <time>2023-02-01T13:31:12Z</time>
      </trkpt>
      <trkpt lat="49.7725" lon="2.2905">
        <ele>121.5</ele>
        <time>2023-02-01T13:31:14Z</time>
      </trkpt>
      <trkpt lat="49.77249" lon="2.2905">
        <ele>121.5</ele>
        <time>2023-02-01T13:31:15Z</time>
      </trkpt>
      <trkpt lat="49.77248" lon="2.2905">
        <ele>121.5</ele>
        <time>2023-02-01T13:31:16Z</time>
      </trkpt>
      <trkpt lat="49.77248" lon="2.29051">
        <ele>121.5</ele>
        <time>2023-02-01T13:31:18Z</time>
      </trkpt>
      <trkpt lat="49.77248" lon="2.29052">
        <ele>121.5</ele>
        <time>2023-02-01T13:31:19Z</time>
      </trkpt>
      <trkpt lat="49.77247" lon="2.29052">
        <ele>121.5</ele>
        <time>2023-02-01T13:31:21Z</time>
      </trkpt>
      <trkpt lat="49.77247" lon="2.29051">
        <ele>121.5</ele>
        <time>2023-02-01T13:31:22Z</time>
      </trkpt>
      <trkpt lat="49.77247" lon="2.2905">
        <ele>121.4</ele>
        <time>2023-02-01T13:31:24Z</time>
      </trkpt>
      <trkpt lat="49.77247" lon="2.29049">
        <ele>121.4</ele>
        <time>2023-02-01T13:31:25Z</time>
      </trkpt>
      <trkpt lat="49.77247" lon="2.29049">
        <ele>121.4</ele>
        <time>2023-02-01T13:31:27Z</time>
      </trkpt>
      <trkpt lat="49.77247" lon="2.29049">
        <ele>121.4</ele>
        <time>2023-02-01T13:31:28Z</time>
      </trkpt>
      <trkpt lat="49.77247" lon="2.29049">
        <ele>121.4</ele>
        <time>2023-02-01T13:31:29Z</time>
      </trkpt>
      <trkpt lat="49.77247" lon="2.29049">
        <ele>121.4</ele>
        <time>2023-02-01T13:31:31Z</time>
      </trkpt>
      <trkpt lat="49.77247" lon="2.29049">
        <ele>121.4</ele>
        <time>2023-02-01T13:31:32Z</time>
      </trkpt>
      <trkpt lat="49.77248" lon="2.29049">
        <ele>121.4</ele>
        <time>2023-02-01T13:31:33Z</time>
      </trkpt>
      <trkpt lat="49.77248" lon="2.29049">
        <ele>121.4</ele>
        <time>2023-02-01T13:31:34Z</time>
      </trkpt>
      <trkpt lat="49.77248" lon="2.29049">
        <ele>121.4</ele>
        <time>2023-02-01T13:31:36Z</time>
      </trkpt>
      <trkpt lat="49.77248" lon="2.29049">
        <ele>121.4</ele>
        <time>2023-02-01T13:31:37Z</time>
      </trkpt>
      <trkpt lat="49.77248" lon="2.29049">
        <ele>121.4</ele>
        <time>2023-02-01T13:31:38Z</time>
      </trkpt>
      <trkpt lat="49.77248" lon="2.29049">
        <ele>121.4</ele>
        <time>2023-02-01T13:31:39Z</time>
      </trkpt>
      <trkpt lat="49.77248" lon="2.29049">
        <ele>121.4</ele>
        <time>2023-02-01T13:31:41Z</time>
      </trkpt>
      <trkpt lat="49.77248" lon="2.2905">
        <ele>121.4</ele>
        <time>2023-02-01T13:31:42Z</time>
      </trkpt>
      <trkpt lat="49.77248" lon="2.29051">
        <ele>121.4</ele>
        <time>2023-02-01T13:31:44Z</time>
      </trkpt>
      <trkpt lat="49.77248" lon="2.29051">
        <ele>121.4</ele>
        <time>2023-02-01T13:31:45Z</time>
      </trkpt>
      <trkpt lat="49.77248" lon="2.29052">
        <ele>121.4</ele>
        <time>2023-02-01T13:31:46Z</time>
      </trkpt>
      <trkpt lat="49.77248" lon="2.29052">
        <ele>121.4</ele>
        <time>2023-02-01T13:31:48Z</time>
      </trkpt>
      <trkpt lat="49.77248" lon="2.29052">
        <ele>121.4</ele>
        <time>2023-02-01T13:31:49Z</time>
      </trkpt>
      <trkpt lat="49.77248" lon="2.29053">
        <ele>121.4</ele>
        <time>2023-02-01T13:31:51Z</time>
      </trkpt>
      <trkpt lat="49.77249" lon="2.29053">
        <ele>121.4</ele>
        <time>2023-02-01T13:31:52Z</time>
      </trkpt>
      <trkpt lat="49.77249" lon="2.29053">
        <ele>121.4</ele>
        <time>2023-02-01T13:31:54Z</time>
      </trkpt>
      <trkpt lat="49.77249" lon="2.29054">
        <ele>121.4</ele>
        <time>2023-02-01T13:31:55Z</time>
      </trkpt>
      <trkpt lat="49.77249" lon="2.29054">
        <ele>121.4</ele>
        <time>2023-02-01T13:31:56Z</time>
      </trkpt>
      <trkpt lat="49.77249" lon="2.29053">
        <ele>121.4</ele>
        <time>2023-02-01T13:31:58Z</time>
      </trkpt>
      <trkpt lat="49.77249" lon="2.29053">
        <ele>121.4</ele>
        <time>2023-02-01T13:31:59Z</time>
      </trkpt>
      <trkpt lat="49.77249" lon="2.29054">
        <ele>121.4</ele>
        <time>2023-02-01T13:32:00Z</time>
      </trkpt>
      <trkpt lat="49.77249" lon="2.29054">
        <ele>121.3</ele>
        <time>2023-02-01T13:32:01Z</time>
      </trkpt>
      <trkpt lat="49.7725" lon="2.29054">
        <ele>121.3</ele>
        <time>2023-02-01T13:32:02Z</time>
      </trkpt>
      <trkpt lat="49.7725" lon="2.29055">
        <ele>121.3</ele>
        <time>2023-02-01T13:32:03Z</time>
      </trkpt>
      <trkpt lat="49.7725" lon="2.29055">
        <ele>121.3</ele>
        <time>2023-02-01T13:32:04Z</time>
      </trkpt>
      <trkpt lat="49.7725" lon="2.29055">
        <ele>121.3</ele>
        <time>2023-02-01T13:32:05Z</time>
      </trkpt>
      <trkpt lat="49.7725" lon="2.29055">
        <ele>121.3</ele>
        <time>2023-02-01T13:32:06Z</time>
      </trkpt>
      <trkpt lat="49.7725" lon="2.29055">
        <ele>121.3</ele>
        <time>2023-02-01T13:32:07Z</time>
      </trkpt>
      <trkpt lat="49.7725" lon="2.29055">
        <ele>121.3</ele>
        <time>2023-02-01T13:32:08Z</time>
      </trkpt>
      <trkpt lat="49.7725" lon="2.29055">
        <ele>121.3</ele>
        <time>2023-02-01T13:32:09Z</time>
      </trkpt>
      <trkpt lat="49.7725" lon="2.29055">
        <ele>121.3</ele>
        <time>2023-02-01T13:32:10Z</time>
      </trkpt>
      <trkpt lat="49.77251" lon="2.29055">
        <ele>121.3</ele>
        <time>2023-02-01T13:32:11Z</time>
      </trkpt>
      <trkpt lat="49.77251" lon="2.29056">
        <ele>121.3</ele>
        <time>2023-02-01T13:32:12Z</time>
      </trkpt>
      <trkpt lat="49.77251" lon="2.29056">
        <ele>121.3</ele>
        <time>2023-02-01T13:32:13Z</time>
      </trkpt>
      <trkpt lat="49.77251" lon="2.29056">
        <ele>121.3</ele>
        <time>2023-02-01T13:32:14Z</time>
      </trkpt>
      <trkpt lat="49.7725" lon="2.29057">
        <ele>121.3</ele>
        <time>2023-02-01T13:32:15Z</time>
      </trkpt>
      <trkpt lat="49.77251" lon="2.29057">
        <ele>121.3</ele>
        <time>2023-02-01T13:32:17Z</time>
      </trkpt>
      <trkpt lat="49.77252" lon="2.29057">
        <ele>121.3</ele>
        <time>2023-02-01T13:32:18Z</time>
      </trkpt>
      <trkpt lat="49.77252" lon="2.29057">
        <ele>121.3</ele>
        <time>2023-02-01T13:32:19Z</time>
      </trkpt>
      <trkpt lat="49.77252" lon="2.29057">
        <ele>121.3</ele>
        <time>2023-02-01T13:32:20Z</time>
      </trkpt>
      <trkpt lat="49.77252" lon="2.29057">
        <ele>121.3</ele>
        <time>2023-02-01T13:32:21Z</time>
      </trkpt>
      <trkpt lat="49.77252" lon="2.29057">
        <ele>121.3</ele>
        <time>2023-02-01T13:32:22Z</time>
      </trkpt>
      <trkpt lat="49.77252" lon="2.29057">
        <ele>121.3</ele>
        <time>2023-02-01T13:32:23Z</time>
      </trkpt>
      <trkpt lat="49.77252" lon="2.29057">
        <ele>121.3</ele>
        <time>2023-02-01T13:32:24Z</time>
      </trkpt>
      <trkpt lat="49.77252" lon="2.29057">
        <ele>121.3</ele>
        <time>2023-02-01T13:32:25Z</time>
      </trkpt>
      <trkpt lat="49.77252" lon="2.29057">
        <ele>121.3</ele>
        <time>2023-02-01T13:32:26Z</time>
      </trkpt>
      <trkpt lat="49.77252" lon="2.29057">
        <ele>121.3</ele>
        <time>2023-02-01T13:32:27Z</time>
      </trkpt>
      <trkpt lat="49.77252" lon="2.29057">
        <ele>121.3</ele>
        <time>2023-02-01T13:32:28Z</time>
      </trkpt>
      <trkpt lat="49.77252" lon="2.29057">
        <ele>121.3</ele>
        <time>2023-02-01T13:32:29Z</time>
      </trkpt>
      <trkpt lat="49.77252" lon="2.29057">
        <ele>121.3</ele>
        <time>2023-02-01T13:32:30Z</time>
      </trkpt>
      <trkpt lat="49.77252" lon="2.29057">
        <ele>121.3</ele>
        <time>2023-02-01T13:32:31Z</time>
      </trkpt>
      <trkpt lat="49.77252" lon="2.29057">
        <ele>121.3</ele>
        <time>2023-02-01T13:32:32Z</time>
      </trkpt>
      <trkpt lat="49.77252" lon="2.29057">
        <ele>121.3</ele>
        <time>2023-02-01T13:32:33Z</time>
      </trkpt>
      <trkpt lat="49.77252" lon="2.29057">
        <ele>121.3</ele>
        <time>2023-02-01T13:32:34Z</time>
      </trkpt>
      <trkpt lat="49.77252" lon="2.29057">
        <ele>121.3</ele>
        <time>2023-02-01T13:32:35Z</time>
      </trkpt>
      <trkpt lat="49.77252" lon="2.29057">
        <ele>121.3</ele>
        <time>2023-02-01T13:32:36Z</time>
      </trkpt>
      <trkpt lat="49.77252" lon="2.29057">
        <ele>121.3</ele>
        <time>2023-02-01T13:32:37Z</time>
      </trkpt>
      <trkpt lat="49.77252" lon="2.29057">
        <ele>121.3</ele>
        <time>2023-02-01T13:32:38Z</time>
      </trkpt>
      <trkpt lat="49.77252" lon="2.29057">
        <ele>121.3</ele>
        <time>2023-02-01T13:32:39Z</time>
      </trkpt>
      <trkpt lat="49.77252" lon="2.29057">
        <ele>121.3</ele>
        <time>2023-02-01T13:32:40Z</time>
      </trkpt>
      <trkpt lat="49.77252" lon="2.29057">
        <ele>121.3</ele>
        <time>2023-02-01T13:32:41Z</time>
      </trkpt>
      <trkpt lat="49.77252" lon="2.29057">
        <ele>121.3</ele>
        <time>2023-02-01T13:32:42Z</time>
      </trkpt>
      <trkpt lat="49.77252" lon="2.29057">
        <ele>121.3</ele>
        <time>2023-02-01T13:32:43Z</time>
      </trkpt>
      <trkpt lat="49.77252" lon="2.29057">
        <ele>121.3</ele>
        <time>2023-02-01T13:32:44Z</time>
      </trkpt>
      <trkpt lat="49.77252" lon="2.29057">
        <ele>121.3</ele>
        <time>2023-02-01T13:32:45Z</time>
      </trkpt>
      <trkpt lat="49.77252" lon="2.29057">
        <ele>121.3</ele>
        <time>2023-02-01T13:32:46Z</time>
      </trkpt>
      <trkpt lat="49.77252" lon="2.29057">
        <ele>121.3</ele>
        <time>2023-02-01T13:32:47Z</time>
      </trkpt>
      <trkpt lat="49.77252" lon="2.29057">
        <ele>121.3</ele>
        <time>2023-02-01T13:32:48Z</time>
      </trkpt>
      <trkpt lat="49.77252" lon="2.29057">
        <ele>121.3</ele>
        <time>2023-02-01T13:32:49Z</time>
      </trkpt>
      <trkpt lat="49.77252" lon="2.29057">
        <ele>121.3</ele>
        <time>2023-02-01T13:32:50Z</time>
      </trkpt>
      <trkpt lat="49.77252" lon="2.29057">
        <ele>121.3</ele>
        <time>2023-02-01T13:32:51Z</time>
      </trkpt>
      <trkpt lat="49.77252" lon="2.29057">
        <ele>121.3</ele>
        <time>2023-02-01T13:32:52Z</time>
      </trkpt>
      <trkpt lat="49.77252" lon="2.29057">
        <ele>121.3</ele>
        <time>2023-02-01T13:32:53Z</time>
      </trkpt>
      <trkpt lat="49.77252" lon="2.29057">
        <ele>121.3</ele>
        <time>2023-02-01T13:32:54Z</time>
      </trkpt>
      <trkpt lat="49.77252" lon="2.29057">
        <ele>121.3</ele>
        <time>2023-02-01T13:32:55Z</time>
      </trkpt>
      <trkpt lat="49.77252" lon="2.29057">
        <ele>121.3</ele>
        <time>2023-02-01T13:32:56Z</time>
      </trkpt>
      <trkpt lat="49.77252" lon="2.29057">
        <ele>121.3</ele>
        <time>2023-02-01T13:32:57Z</time>
      </trkpt>
      <trkpt lat="49.77252" lon="2.29057">
        <ele>121.3</ele>
        <time>2023-02-01T13:32:58Z</time>
      </trkpt>
      <trkpt lat="49.77252" lon="2.29057">
        <ele>121.3</ele>
        <time>2023-02-01T13:32:59Z</time>
      </trkpt>
      <trkpt lat="49.77252" lon="2.29057">
        <ele>121.3</ele>
        <time>2023-02-01T13:33:00Z</time>
      </trkpt>
      <trkpt lat="49.77252" lon="2.29057">
        <ele>121.3</ele>
        <time>2023-02-01T13:33:01Z</time>
      </trkpt>
      <trkpt lat="49.77252" lon="2.29057">
        <ele>121.3</ele>
        <time>2023-02-01T13:33:02Z</time>
      </trkpt>
      <trkpt lat="49.77252" lon="2.29057">
        <ele>121.3</ele>
        <time>2023-02-01T13:33:03Z</time>
      </trkpt>
      <trkpt lat="49.77252" lon="2.29057">
        <ele>121.3</ele>
        <time>2023-02-01T13:33:04Z</time>
      </trkpt>
      <trkpt lat="49.77252" lon="2.29057">
        <ele>121.3</ele>
        <time>2023-02-01T13:33:05Z</time>
      </trkpt>
      <trkpt lat="49.77252" lon="2.29057">
        <ele>121.3</ele>
        <time>2023-02-01T13:33:06Z</time>
      </trkpt>
      <trkpt lat="49.77252" lon="2.29057">
        <ele>121.3</ele>
        <time>2023-02-01T13:33:07Z</time>
      </trkpt>
      <trkpt lat="49.77252" lon="2.29057">
        <ele>121.3</ele>
        <time>2023-02-01T13:33:08Z</time>
      </trkpt>
      <trkpt lat="49.77252" lon="2.29057">
        <ele>121.3</ele>
        <time>2023-02-01T13:33:09Z</time>
      </trkpt>
      <trkpt lat="49.77252" lon="2.29057">
        <ele>121.3</ele>
        <time>2023-02-01T13:33:10Z</time>
      </trkpt>
      <trkpt lat="49.77252" lon="2.29057">
        <ele>121.3</ele>
        <time>2023-02-01T13:33:11Z</time>
      </trkpt>
      <trkpt lat="49.77252" lon="2.29057">
        <ele>121.3</ele>
        <time>2023-02-01T13:33:12Z</time>
      </trkpt>
      <trkpt lat="49.77252" lon="2.29057">
        <ele>121.3</ele>
        <time>2023-02-01T13:33:13Z</time>
      </trkpt>
      <trkpt lat="49.77252" lon="2.29057">
        <ele>121.3</ele>
        <time>2023-02-01T13:33:14Z</time>
      </trkpt>
      <trkpt lat="49.77252" lon="2.29057">
        <ele>121.3</ele>
        <time>2023-02-01T13:33:15Z</time>
      </trkpt>
      <trkpt lat="49.77252" lon="2.29057">
        <ele>121.3</ele>
        <time>2023-02-01T13:33:16Z</time>
      </trkpt>
      <trkpt lat="49.77252" lon="2.29057">
        <ele>121.3</ele>
        <time>2023-02-01T13:33:17Z</time>
      </trkpt>
      <trkpt lat="49.77252" lon="2.29057">
        <ele>121.3</ele>
        <time>2023-02-01T13:33:18Z</time>
      </trkpt>
      <trkpt lat="49.77252" lon="2.29057">
        <ele>121.3</ele>
        <time>2023-02-01T13:33:19Z</time>
      </trkpt>
      <trkpt lat="49.77252" lon="2.29057">
        <ele>121.3</ele>
        <time>2023-02-01T13:33:20Z</time>
      </trkpt>
      <trkpt lat="49.77252" lon="2.29057">
        <ele>121.3</ele>
        <time>2023-02-01T13:33:21Z</time>
      </trkpt>
      <trkpt lat="49.77252" lon="2.29057">
        <ele>121.3</ele>
        <time>2023-02-01T13:33:22Z</time>
      </trkpt>
      <trkpt lat="49.77252" lon="2.29057">
        <ele>121.3</ele>
        <time>2023-02-01T13:33:23Z</time>
      </trkpt>
      <trkpt lat="49.77252" lon="2.29057">
        <ele>121.3</ele>
        <time>2023-02-01T13:33:24Z</time>
      </trkpt>
      <trkpt lat="49.77252" lon="2.29057">
        <ele>121.3</ele>
        <time>2023-02-01T13:33:25Z</time>
      </trkpt>
      <trkpt lat="49.77252" lon="2.29057">
        <ele>121.3</ele>
        <time>2023-02-01T13:33:26Z</time>
      </trkpt>
      <trkpt lat="49.77252" lon="2.29057">
        <ele>121.3</ele>
        <time>2023-02-01T13:33:27Z</time>
      </trkpt>
      <trkpt lat="49.77252" lon="2.29057">
        <ele>121.3</ele>
        <time>2023-02-01T13:33:28Z</time>
      </trkpt>
      <trkpt lat="49.77252" lon="2.29057">
        <ele>121.3</ele>
        <time>2023-02-01T13:33:29Z</time>
      </trkpt>
      <trkpt lat="49.77252" lon="2.29057">
        <ele>121.3</ele>
        <time>2023-02-01T13:33:30Z</time>
      </trkpt>
      <trkpt lat="49.77252" lon="2.29057">
        <ele>121.3</ele>
        <time>2023-02-01T13:33:31Z</time>
      </trkpt>
      <trkpt lat="49.77252" lon="2.29057">
        <ele>121.3</ele>
        <time>2023-02-01T13:33:32Z</time>
      </trkpt>
      <trkpt lat="49.77252" lon="2.29057">
        <ele>121.3</ele>
        <time>2023-02-01T13:33:33Z</time>
      </trkpt>
      <trkpt lat="49.77252" lon="2.29057">
        <ele>121.3</ele>
        <time>2023-02-01T13:33:34Z</time>
      </trkpt>
      <trkpt lat="49.77252" lon="2.29057">
        <ele>121.3</ele>
        <time>2023-02-01T13:33:35Z</time>
      </trkpt>
      <trkpt lat="49.77252" lon="2.29057">
        <ele>121.3</ele>
        <time>2023-02-01T13:33:36Z</time>
      </trkpt>
      <trkpt lat="49.77252" lon="2.29057">
        <ele>121.3</ele>
        <time>2023-02-01T13:33:37Z</time>
      </trkpt>
      <trkpt lat="49.77252" lon="2.29057">
        <ele>121.3</ele>
        <time>2023-02-01T13:33:38Z</time>
      </trkpt>
      <trkpt lat="49.77252" lon="2.29057">
        <ele>121.3</ele>
        <time>2023-02-01T13:33:39Z</time>
      </trkpt>
      <trkpt lat="49.77252" lon="2.29057">
        <ele>121.3</ele>
        <time>2023-02-01T13:33:40Z</time>
      </trkpt>
      <trkpt lat="49.77252" lon="2.29057">
        <ele>121.3</ele>
        <time>2023-02-01T13:33:41Z</time>
      </trkpt>
      <trkpt lat="49.77252" lon="2.29057">
        <ele>121.3</ele>
        <time>2023-02-01T13:33:42Z</time>
      </trkpt>
      <trkpt lat="49.77252" lon="2.29057">
        <ele>121.3</ele>
        <time>2023-02-01T13:33:43Z</time>
      </trkpt>
      <trkpt lat="49.77252" lon="2.29057">
        <ele>121.3</ele>
        <time>2023-02-01T13:33:44Z</time>
      </trkpt>
      <trkpt lat="49.77252" lon="2.29057">
        <ele>121.3</ele>
        <time>2023-02-01T13:33:45Z</time>
      </trkpt>
      <trkpt lat="49.77252" lon="2.29057">
        <ele>121.3</ele>
        <time>2023-02-01T13:33:46Z</time>
      </trkpt>
      <trkpt lat="49.77252" lon="2.29057">
        <ele>121.3</ele>
        <time>2023-02-01T13:33:47Z</time>
      </trkpt>
      <trkpt lat="49.77252" lon="2.29057">
        <ele>121.3</ele>
        <time>2023-02-01T13:33:48Z</time>
      </trkpt>
      <trkpt lat="49.77252" lon="2.29057">
        <ele>121.3</ele>
        <time>2023-02-01T13:33:49Z</time>
      </trkpt>
      <trkpt lat="49.77252" lon="2.29057">
        <ele>121.3</ele>
        <time>2023-02-01T13:33:50Z</time>
      </trkpt>
      <trkpt lat="49.77252" lon="2.29057">
        <ele>121.3</ele>
        <time>2023-02-01T13:33:51Z</time>
      </trkpt>
      <trkpt lat="49.77252" lon="2.29057">
        <ele>121.3</ele>
        <time>2023-02-01T13:33:52Z</time>
      </trkpt>
      <trkpt lat="49.77252" lon="2.29057">
        <ele>121.3</ele>
        <time>2023-02-01T13:33:53Z</time>
      </trkpt>
      <trkpt lat="49.77252" lon="2.29057">
        <ele>121.3</ele>
        <time>2023-02-01T13:33:54Z</time>
      </trkpt>
      <trkpt lat="49.77252" lon="2.29057">
        <ele>121.3</ele>
        <time>2023-02-01T13:33:55Z</time>
      </trkpt>
      <trkpt lat="49.77252" lon="2.29057">
        <ele>121.3</ele>
        <time>2023-02-01T13:33:56Z</time>
      </trkpt>
      <trkpt lat="49.77252" lon="2.29057">
        <ele>121.3</ele>
        <time>2023-02-01T13:33:57Z</time>
      </trkpt>
      <trkpt lat="49.77251" lon="2.29058">
        <ele>121.2</ele>
        <time>2023-02-01T13:33:58Z</time>
      </trkpt>
      <trkpt lat="49.77249" lon="2.2906">
        <ele>121.2</ele>
        <time>2023-02-01T13:33:59Z</time>
      </trkpt>
      <trkpt lat="49.77249" lon="2.29061">
        <ele>121.2</ele>
        <time>2023-02-01T13:34:00Z</time>
      </trkpt>
      <trkpt lat="49.77249" lon="2.29062">
        <ele>121.2</ele>
        <time>2023-02-01T13:34:01Z</time>
      </trkpt>
      <trkpt lat="49.77249" lon="2.29063">
        <ele>121.2</ele>
        <time>2023-02-01T13:34:02Z</time>
      </trkpt>
      <trkpt lat="49.77249" lon="2.29065">
        <ele>121.2</ele>
        <time>2023-02-01T13:34:03Z</time>
      </trkpt>
      <trkpt lat="49.77249" lon="2.29066">
        <ele>121.2</ele>
        <time>2023-02-01T13:34:04Z</time>
      </trkpt>
      <trkpt lat="49.77248" lon="2.29068">
        <ele>121.2</ele>
        <time>2023-02-01T13:34:05Z</time>
      </trkpt>
      <trkpt lat="49.77248" lon="2.2907">
        <ele>121.2</ele>
        <time>2023-02-01T13:34:06Z</time>
      </trkpt>
      <trkpt lat="49.77248" lon="2.29071">
        <ele>121.2</ele>
        <time>2023-02-01T13:34:07Z</time>
      </trkpt>
      <trkpt lat="49.77248" lon="2.29073">
        <ele>121.1</ele>
        <time>2023-02-01T13:34:08Z</time>
      </trkpt>
      <trkpt lat="49.77248" lon="2.29075">
        <ele>121.1</ele>
        <time>2023-02-01T13:34:09Z</time>
      </trkpt>
      <trkpt lat="49.77247" lon="2.29078">
        <ele>121.1</ele>
        <time>2023-02-01T13:34:11Z</time>
      </trkpt>
      <trkpt lat="49.77247" lon="2.2908">
        <ele>121</ele>
        <time>2023-02-01T13:34:12Z</time>
      </trkpt>
      <trkpt lat="49.77247" lon="2.29081">
        <ele>121</ele>
        <time>2023-02-01T13:34:13Z</time>
      </trkpt>
      <trkpt lat="49.77247" lon="2.29082">
        <ele>121</ele>
        <time>2023-02-01T13:34:14Z</time>
      </trkpt>
      <trkpt lat="49.77247" lon="2.29083">
        <ele>120.9</ele>
        <time>2023-02-01T13:34:15Z</time>
      </trkpt>
      <trkpt lat="49.77247" lon="2.29085">
        <ele>120.9</ele>
        <time>2023-02-01T13:34:16Z</time>
      </trkpt>
      <trkpt lat="49.77247" lon="2.29087">
        <ele>120.9</ele>
        <time>2023-02-01T13:34:17Z</time>
      </trkpt>
      <trkpt lat="49.77247" lon="2.29088">
        <ele>120.8</ele>
        <time>2023-02-01T13:34:18Z</time>
      </trkpt>
      <trkpt lat="49.77246" lon="2.29091">
        <ele>120.8</ele>
        <time>2023-02-01T13:34:20Z</time>
      </trkpt>
      <trkpt lat="49.77246" lon="2.29093">
        <ele>120.7</ele>
        <time>2023-02-01T13:34:21Z</time>
      </trkpt>
      <trkpt lat="49.77246" lon="2.29094">
        <ele>120.7</ele>
        <time>2023-02-01T13:34:22Z</time>
      </trkpt>
      <trkpt lat="49.77246" lon="2.29096">
        <ele>120.6</ele>
        <time>2023-02-01T13:34:23Z</time>
      </trkpt>
      <trkpt lat="49.77245" lon="2.29097">
        <ele>120.6</ele>
        <time>2023-02-01T13:34:24Z</time>
      </trkpt>
      <trkpt lat="49.77245" lon="2.29101">
        <ele>120.5</ele>
        <time>2023-02-01T13:34:26Z</time>
      </trkpt>
      <trkpt lat="49.77245" lon="2.29102">
        <ele>120.5</ele>
        <time>2023-02-01T13:34:27Z</time>
      </trkpt>
      <trkpt lat="49.77244" lon="2.29106">
        <ele>120.4</ele>
        <time>2023-02-01T13:34:28Z</time>
      </trkpt>
      <trkpt lat="49.77244" lon="2.29108">
        <ele>120.3</ele>
        <time>2023-02-01T13:34:29Z</time>
      </trkpt>
      <trkpt lat="49.77244" lon="2.2911">
        <ele>120.2</ele>
        <time>2023-02-01T13:34:30Z</time>
      </trkpt>
      <trkpt lat="49.77244" lon="2.29113">
        <ele>120.2</ele>
        <time>2023-02-01T13:34:31Z</time>
      </trkpt>
      <trkpt lat="49.77244" lon="2.29115">
        <ele>120.1</ele>
        <time>2023-02-01T13:34:32Z</time>
      </trkpt>
      <trkpt lat="49.77244" lon="2.29118">
        <ele>120</ele>
        <time>2023-02-01T13:34:33Z</time>
      </trkpt>
      <trkpt lat="49.77244" lon="2.29121">
        <ele>119.9</ele>
        <time>2023-02-01T13:34:34Z</time>
      </trkpt>
      <trkpt lat="49.77244" lon="2.29123">
        <ele>119.9</ele>
        <time>2023-02-01T13:34:35Z</time>
      </trkpt>
      <trkpt lat="49.77244" lon="2.29125">
        <ele>119.8</ele>
        <time>2023-02-01T13:34:36Z</time>
      </trkpt>
      <trkpt lat="49.77244" lon="2.29127">
        <ele>119.7</ele>
        <time>2023-02-01T13:34:37Z</time>
      </trkpt>
      <trkpt lat="49.77244" lon="2.29129">
        <ele>119.7</ele>
        <time>2023-02-01T13:34:38Z</time>
      </trkpt>
      <trkpt lat="49.77244" lon="2.29132">
        <ele>119.6</ele>
        <time>2023-02-01T13:34:40Z</time>
      </trkpt>
      <trkpt lat="49.77244" lon="2.29134">
        <ele>119.5</ele>
        <time>2023-02-01T13:34:41Z</time>
      </trkpt>
      <trkpt lat="49.77244" lon="2.29135">
        <ele>119.5</ele>
        <time>2023-02-01T13:34:42Z</time>
      </trkpt>
      <trkpt lat="49.77245" lon="2.29137">
        <ele>119.4</ele>
        <time>2023-02-01T13:34:43Z</time>
      </trkpt>
      <trkpt lat="49.77245" lon="2.29138">
        <ele>119.4</ele>
        <time>2023-02-01T13:34:44Z</time>
      </trkpt>
      <trkpt lat="49.77245" lon="2.2914">
        <ele>119.3</ele>
        <time>2023-02-01T13:34:45Z</time>
      </trkpt>
      <trkpt lat="49.77245" lon="2.29142">
        <ele>119.2</ele>
        <time>2023-02-01T13:34:46Z</time>
      </trkpt>
      <trkpt lat="49.77245" lon="2.29145">
        <ele>119.1</ele>
        <time>2023-02-01T13:34:47Z</time>
      </trkpt>
      <trkpt lat="49.77245" lon="2.29147">
        <ele>119.1</ele>
        <time>2023-02-01T13:34:49Z</time>
      </trkpt>
      <trkpt lat="49.77245" lon="2.29148">
        <ele>119</ele>
        <time>2023-02-01T13:34:50Z</time>
      </trkpt>
      <trkpt lat="49.77246" lon="2.29152">
        <ele>118.9</ele>
        <time>2023-02-01T13:34:51Z</time>
      </trkpt>
      <trkpt lat="49.77246" lon="2.29153">
        <ele>118.8</ele>
        <time>2023-02-01T13:34:52Z</time>
      </trkpt>
      <trkpt lat="49.77246" lon="2.29155">
        <ele>118.8</ele>
        <time>2023-02-01T13:34:53Z</time>
      </trkpt>
      <trkpt lat="49.77246" lon="2.29159">
        <ele>118.6</ele>
        <time>2023-02-01T13:34:54Z</time>
      </trkpt>
      <trkpt lat="49.77246" lon="2.2916">
        <ele>118.5</ele>
        <time>2023-02-01T13:34:56Z</time>
      </trkpt>
      <trkpt lat="49.77246" lon="2.29162">
        <ele>118.5</ele>
        <time>2023-02-01T13:34:57Z</time>
      </trkpt>
      <trkpt lat="49.77246" lon="2.29163">
        <ele>118.4</ele>
        <time>2023-02-01T13:34:58Z</time>
      </trkpt>
      <trkpt lat="49.77246" lon="2.29165">
        <ele>118.3</ele>
        <time>2023-02-01T13:34:59Z</time>
      </trkpt>
      <trkpt lat="49.77246" lon="2.29167">
        <ele>118.2</ele>
        <time>2023-02-01T13:35:00Z</time>
      </trkpt>
      <trkpt lat="49.77246" lon="2.29169">
        <ele>118.2</ele>
        <time>2023-02-01T13:35:01Z</time>
      </trkpt>
      <trkpt lat="49.77246" lon="2.29172">
        <ele>118</ele>
        <time>2023-02-01T13:35:03Z</time>
      </trkpt>
      <trkpt lat="49.77246" lon="2.29174">
        <ele>118</ele>
        <time>2023-02-01T13:35:04Z</time>
      </trkpt>
      <trkpt lat="49.77246" lon="2.29176">
        <ele>117.8</ele>
        <time>2023-02-01T13:35:05Z</time>
      </trkpt>
      <trkpt lat="49.77246" lon="2.29178">
        <ele>117.8</ele>
        <time>2023-02-01T13:35:06Z</time>
      </trkpt>
      <trkpt lat="49.77247" lon="2.2918">
        <ele>117.7</ele>
        <time>2023-02-01T13:35:07Z</time>
      </trkpt>
      <trkpt lat="49.77247" lon="2.29183">
        <ele>117.5</ele>
        <time>2023-02-01T13:35:08Z</time>
      </trkpt>
      <trkpt lat="49.77248" lon="2.29186">
        <ele>117.4</ele>
        <time>2023-02-01T13:35:10Z</time>
      </trkpt>
      <trkpt lat="49.77248" lon="2.29187">
        <ele>117.3</ele>
        <time>2023-02-01T13:35:11Z</time>
      </trkpt>
      <trkpt lat="49.77248" lon="2.29191">
        <ele>117.1</ele>
        <time>2023-02-01T13:35:12Z</time>
      </trkpt>
      <trkpt lat="49.77249" lon="2.29192">
        <ele>117</ele>
        <time>2023-02-01T13:35:13Z</time>
      </trkpt>
      <trkpt lat="49.77249" lon="2.29194">
        <ele>116.9</ele>
        <time>2023-02-01T13:35:14Z</time>
      </trkpt>
      <trkpt lat="49.77249" lon="2.29196">
        <ele>116.8</ele>
        <time>2023-02-01T13:35:15Z</time>
      </trkpt>
      <trkpt lat="49.77249" lon="2.29198">
        <ele>116.7</ele>
        <time>2023-02-01T13:35:16Z</time>
      </trkpt>
      <trkpt lat="49.77249" lon="2.29201">
        <ele>116.5</ele>
        <time>2023-02-01T13:35:17Z</time>
      </trkpt>
      <trkpt lat="49.7725" lon="2.29203">
        <ele>116.4</ele>
        <time>2023-02-01T13:35:19Z</time>
      </trkpt>
      <trkpt lat="49.7725" lon="2.29206">
        <ele>116.3</ele>
        <time>2023-02-01T13:35:20Z</time>
      </trkpt>
      <trkpt lat="49.7725" lon="2.29208">
        <ele>116.1</ele>
        <time>2023-02-01T13:35:21Z</time>
      </trkpt>
      <trkpt lat="49.77251" lon="2.2921">
        <ele>116</ele>
        <time>2023-02-01T13:35:22Z</time>
      </trkpt>
      <trkpt lat="49.77251" lon="2.29212">
        <ele>115.9</ele>
        <time>2023-02-01T13:35:23Z</time>
      </trkpt>
      <trkpt lat="49.77251" lon="2.29213">
        <ele>115.8</ele>
        <time>2023-02-01T13:35:24Z</time>
      </trkpt>
      <trkpt lat="49.77252" lon="2.29216">
        <ele>115.7</ele>
        <time>2023-02-01T13:35:25Z</time>
      </trkpt>
      <trkpt lat="49.77252" lon="2.29217">
        <ele>115.6</ele>
        <time>2023-02-01T13:35:26Z</time>
      </trkpt>
      <trkpt lat="49.77252" lon="2.29219">
        <ele>115.5</ele>
        <time>2023-02-01T13:35:27Z</time>
      </trkpt>
      <trkpt lat="49.77253" lon="2.29221">
        <ele>115.4</ele>
        <time>2023-02-01T13:35:28Z</time>
      </trkpt>
      <trkpt lat="49.77253" lon="2.29223">
        <ele>115.3</ele>
        <time>2023-02-01T13:35:29Z</time>
      </trkpt>
      <trkpt lat="49.77253" lon="2.29225">
        <ele>115.2</ele>
        <time>2023-02-01T13:35:30Z</time>
      </trkpt>
      <trkpt lat="49.77254" lon="2.29227">
        <ele>115.1</ele>
        <time>2023-02-01T13:35:32Z</time>
      </trkpt>
      <trkpt lat="49.77254" lon="2.29229">
        <ele>115</ele>
        <time>2023-02-01T13:35:33Z</time>
      </trkpt>
      <trkpt lat="49.77255" lon="2.29231">
        <ele>114.9</ele>
        <time>2023-02-01T13:35:34Z</time>
      </trkpt>
      <trkpt lat="49.77255" lon="2.29234">
        <ele>114.7</ele>
        <time>2023-02-01T13:35:35Z</time>
      </trkpt>
      <trkpt lat="49.77256" lon="2.29236">
        <ele>114.6</ele>
        <time>2023-02-01T13:35:36Z</time>
      </trkpt>
      <trkpt lat="49.77256" lon="2.29237">
        <ele>114.6</ele>
        <time>2023-02-01T13:35:37Z</time>
      </trkpt>
      <trkpt lat="49.77256" lon="2.2924">
        <ele>114.4</ele>
        <time>2023-02-01T13:35:38Z</time>
      </trkpt>
      <trkpt lat="49.77256" lon="2.29242">
        <ele>114.3</ele>
        <time>2023-02-01T13:35:40Z</time>
      </trkpt>
      <trkpt lat="49.77256" lon="2.29243">
        <ele>114.3</ele>
        <time>2023-02-01T13:35:41Z</time>
      </trkpt>
      <trkpt lat="49.77256" lon="2.29244">
        <ele>114.2</ele>
        <time>2023-02-01T13:35:42Z</time>
      </trkpt>
      <trkpt lat="49.77256" lon="2.29247">
        <ele>114.1</ele>
        <time>2023-02-01T13:35:43Z</time>
      </trkpt>
      <trkpt lat="49.77257" lon="2.29248">
        <ele>114</ele>
        <time>2023-02-01T13:35:44Z</time>
      </trkpt>
      <trkpt lat="49.77257" lon="2.2925">
        <ele>113.9</ele>
        <time>2023-02-01T13:35:46Z</time>
      </trkpt>
      <trkpt lat="49.77257" lon="2.29252">
        <ele>113.8</ele>
        <time>2023-02-01T13:35:47Z</time>
      </trkpt>
      <trkpt lat="49.77257" lon="2.29254">
        <ele>113.8</ele>
        <time>2023-02-01T13:35:48Z</time>
      </trkpt>
      <trkpt lat="49.77258" lon="2.29257">
        <ele>113.6</ele>
        <time>2023-02-01T13:35:49Z</time>
      </trkpt>
      <trkpt lat="49.77258" lon="2.29259">
        <ele>113.5</ele>
        <time>2023-02-01T13:35:50Z</time>
      </trkpt>
      <trkpt lat="49.77258" lon="2.29261">
        <ele>113.4</ele>
        <time>2023-02-01T13:35:51Z</time>
      </trkpt>
      <trkpt lat="49.77258" lon="2.29263">
        <ele>113.3</ele>
        <time>2023-02-01T13:35:52Z</time>
      </trkpt>
      <trkpt lat="49.77258" lon="2.29267">
        <ele>113.2</ele>
        <time>2023-02-01T13:35:53Z</time>
      </trkpt>
      <trkpt lat="49.77258" lon="2.29268">
        <ele>113.1</ele>
        <time>2023-02-01T13:35:54Z</time>
      </trkpt>
      <trkpt lat="49.77257" lon="2.29269">
        <ele>113</ele>
        <time>2023-02-01T13:35:55Z</time>
      </trkpt>
      <trkpt lat="49.77257" lon="2.29271">
        <ele>112.9</ele>
        <time>2023-02-01T13:35:57Z</time>
      </trkpt>
      <trkpt lat="49.77256" lon="2.29273">
        <ele>112.8</ele>
        <time>2023-02-01T13:35:58Z</time>
      </trkpt>
      <trkpt lat="49.77256" lon="2.29276">
        <ele>112.7</ele>
        <time>2023-02-01T13:35:59Z</time>
      </trkpt>
      <trkpt lat="49.77255" lon="2.29278">
        <ele>112.6</ele>
        <time>2023-02-01T13:36:00Z</time>
      </trkpt>
      <trkpt lat="49.77255" lon="2.2928">
        <ele>112.5</ele>
        <time>2023-02-01T13:36:01Z</time>
      </trkpt>
      <trkpt lat="49.77254" lon="2.29287">
        <ele>112.1</ele>
        <time>2023-02-01T13:36:03Z</time>
      </trkpt>
      <trkpt lat="49.77254" lon="2.29289">
        <ele>112</ele>
        <time>2023-02-01T13:36:05Z</time>
      </trkpt>
      <trkpt lat="49.77253" lon="2.2929">
        <ele>111.9</ele>
        <time>2023-02-01T13:36:06Z</time>
      </trkpt>
      <trkpt lat="49.77253" lon="2.29292">
        <ele>111.8</ele>
        <time>2023-02-01T13:36:07Z</time>
      </trkpt>
      <trkpt lat="49.77253" lon="2.29295">
        <ele>111.6</ele>
        <time>2023-02-01T13:36:08Z</time>
      </trkpt>
      <trkpt lat="49.77252" lon="2.29297">
        <ele>111.6</ele>
        <time>2023-02-01T13:36:09Z</time>
      </trkpt>
      <trkpt lat="49.77252" lon="2.29299">
        <ele>111.4</ele>
        <time>2023-02-01T13:36:11Z</time>
      </trkpt>
      <trkpt lat="49.77251" lon="2.29301">
        <ele>111.3</ele>
        <time>2023-02-01T13:36:12Z</time>
      </trkpt>
      <trkpt lat="49.77251" lon="2.29302">
        <ele>111.2</ele>
        <time>2023-02-01T13:36:13Z</time>
      </trkpt>
      <trkpt lat="49.7725" lon="2.29304">
        <ele>111.1</ele>
        <time>2023-02-01T13:36:14Z</time>
      </trkpt>
      <trkpt lat="49.7725" lon="2.29305">
        <ele>111</ele>
        <time>2023-02-01T13:36:15Z</time>
      </trkpt>
      <trkpt lat="49.7725" lon="2.29307">
        <ele>110.9</ele>
        <time>2023-02-01T13:36:16Z</time>
      </trkpt>
      <trkpt lat="49.77249" lon="2.29309">
        <ele>110.8</ele>
        <time>2023-02-01T13:36:17Z</time>
      </trkpt>
      <trkpt lat="49.77248" lon="2.29312">
        <ele>110.6</ele>
        <time>2023-02-01T13:36:18Z</time>
      </trkpt>
      <trkpt lat="49.77248" lon="2.29313">
        <ele>110.5</ele>
        <time>2023-02-01T13:36:19Z</time>
      </trkpt>
      <trkpt lat="49.77247" lon="2.29317">
        <ele>110.2</ele>
        <time>2023-02-01T13:36:21Z</time>
      </trkpt>
      <trkpt lat="49.77247" lon="2.29318">
        <ele>110.2</ele>
        <time>2023-02-01T13:36:22Z</time>
      </trkpt>
      <trkpt lat="49.77246" lon="2.29319">
        <ele>110.1</ele>
        <time>2023-02-01T13:36:23Z</time>
      </trkpt>
      <trkpt lat="49.77246" lon="2.29322">
        <ele>109.9</ele>
        <time>2023-02-01T13:36:24Z</time>
      </trkpt>
      <trkpt lat="49.77245" lon="2.29323">
        <ele>109.8</ele>
        <time>2023-02-01T13:36:25Z</time>
      </trkpt>
      <trkpt lat="49.77245" lon="2.29326">
        <ele>109.6</ele>
        <time>2023-02-01T13:36:26Z</time>
      </trkpt>
      <trkpt lat="49.77244" lon="2.29328">
        <ele>109.5</ele>
        <time>2023-02-01T13:36:27Z</time>
      </trkpt>
      <trkpt lat="49.77244" lon="2.2933">
        <ele>109.3</ele>
        <time>2023-02-01T13:36:28Z</time>
      </trkpt>
      <trkpt lat="49.77243" lon="2.29332">
        <ele>109.2</ele>
        <time>2023-02-01T13:36:29Z</time>
      </trkpt>
      <trkpt lat="49.77243" lon="2.29335">
        <ele>109</ele>
        <time>2023-02-01T13:36:30Z</time>
      </trkpt>
      <trkpt lat="49.77243" lon="2.29336">
        <ele>108.9</ele>
        <time>2023-02-01T13:36:32Z</time>
      </trkpt>
      <trkpt lat="49.77242" lon="2.29337">
        <ele>108.8</ele>
        <time>2023-02-01T13:36:33Z</time>
      </trkpt>
      <trkpt lat="49.77242" lon="2.2934">
        <ele>108.6</ele>
        <time>2023-02-01T13:36:34Z</time>
      </trkpt>
      <trkpt lat="49.77242" lon="2.29341">
        <ele>108.5</ele>
        <time>2023-02-01T13:36:35Z</time>
      </trkpt>
      <trkpt lat="49.77241" lon="2.29344">
        <ele>108.3</ele>
        <time>2023-02-01T13:36:37Z</time>
      </trkpt>
      <trkpt lat="49.7724" lon="2.29346">
        <ele>108.2</ele>
        <time>2023-02-01T13:36:38Z</time>
      </trkpt>
      <trkpt lat="49.7724" lon="2.29348">
        <ele>108</ele>
        <time>2023-02-01T13:36:39Z</time>
      </trkpt>
      <trkpt lat="49.77239" lon="2.29349">
        <ele>108</ele>
        <time>2023-02-01T13:36:40Z</time>
      </trkpt>
      <trkpt lat="49.77239" lon="2.2935">
        <ele>107.9</ele>
        <time>2023-02-01T13:36:41Z</time>
      </trkpt>
      <trkpt lat="49.77239" lon="2.29352">
        <ele>107.7</ele>
        <time>2023-02-01T13:36:42Z</time>
      </trkpt>
      <trkpt lat="49.77238" lon="2.29355">
        <ele>107.6</ele>
        <time>2023-02-01T13:36:43Z</time>
      </trkpt>
      <trkpt lat="49.77238" lon="2.29356">
        <ele>107.5</ele>
        <time>2023-02-01T13:36:44Z</time>
      </trkpt>
      <trkpt lat="49.77237" lon="2.29357">
        <ele>107.4</ele>
        <time>2023-02-01T13:36:45Z</time>
      </trkpt>
      <trkpt lat="49.77237" lon="2.29359">
        <ele>107.2</ele>
        <time>2023-02-01T13:36:46Z</time>
      </trkpt>
      <trkpt lat="49.77236" lon="2.29361">
        <ele>107.1</ele>
        <time>2023-02-01T13:36:47Z</time>
      </trkpt>
      <trkpt lat="49.77235" lon="2.29365">
        <ele>106.8</ele>
        <time>2023-02-01T13:36:49Z</time>
      </trkpt>
      <trkpt lat="49.77235" lon="2.29366">
        <ele>106.8</ele>
        <time>2023-02-01T13:36:50Z</time>
      </trkpt>
      <trkpt lat="49.77234" lon="2.29369">
        <ele>106.5</ele>
        <time>2023-02-01T13:36:51Z</time>
      </trkpt>
      <trkpt lat="49.77234" lon="2.2937">
        <ele>106.4</ele>
        <time>2023-02-01T13:36:52Z</time>
      </trkpt>
      <trkpt lat="49.77233" lon="2.29371">
        <ele>106.4</ele>
        <time>2023-02-01T13:36:53Z</time>
      </trkpt>
      <trkpt lat="49.77233" lon="2.29372">
        <ele>106.3</ele>
        <time>2023-02-01T13:36:54Z</time>
      </trkpt>
      <trkpt lat="49.77233" lon="2.29374">
        <ele>106.2</ele>
        <time>2023-02-01T13:36:55Z</time>
      </trkpt>
      <trkpt lat="49.77233" lon="2.29376">
        <ele>106.1</ele>
        <time>2023-02-01T13:36:56Z</time>
      </trkpt>
      <trkpt lat="49.77232" lon="2.29378">
        <ele>105.9</ele>
        <time>2023-02-01T13:36:57Z</time>
      </trkpt>
      <trkpt lat="49.77232" lon="2.29381">
        <ele>105.7</ele>
        <time>2023-02-01T13:36:58Z</time>
      </trkpt>
      <trkpt lat="49.77231" lon="2.29384">
        <ele>105.5</ele>
        <time>2023-02-01T13:37:00Z</time>
      </trkpt>
      <trkpt lat="49.7723" lon="2.29385">
        <ele>105.4</ele>
        <time>2023-02-01T13:37:01Z</time>
      </trkpt>
      <trkpt lat="49.7723" lon="2.29387">
        <ele>105.4</ele>
        <time>2023-02-01T13:37:02Z</time>
      </trkpt>
      <trkpt lat="49.77229" lon="2.29389">
        <ele>105.2</ele>
        <time>2023-02-01T13:37:03Z</time>
      </trkpt>
      <trkpt lat="49.77228" lon="2.29392">
        <ele>105</ele>
        <time>2023-02-01T13:37:04Z</time>
      </trkpt>
      <trkpt lat="49.77228" lon="2.29394">
        <ele>104.9</ele>
        <time>2023-02-01T13:37:06Z</time>
      </trkpt>
      <trkpt lat="49.77227" lon="2.29395">
        <ele>104.7</ele>
        <time>2023-02-01T13:37:07Z</time>
      </trkpt>
      <trkpt lat="49.77227" lon="2.29397">
        <ele>104.6</ele>
        <time>2023-02-01T13:37:08Z</time>
      </trkpt>
      <trkpt lat="49.77226" lon="2.29401">
        <ele>104.4</ele>
        <time>2023-02-01T13:37:09Z</time>
      </trkpt>
      <trkpt lat="49.77226" lon="2.29402">
        <ele>104.3</ele>
        <time>2023-02-01T13:37:10Z</time>
      </trkpt>
      <trkpt lat="49.77226" lon="2.29403">
        <ele>104.2</ele>
        <time>2023-02-01T13:37:11Z</time>
      </trkpt>
      <trkpt lat="49.77225" lon="2.29405">
        <ele>104.1</ele>
        <time>2023-02-01T13:37:12Z</time>
      </trkpt>
      <trkpt lat="49.77225" lon="2.29407">
        <ele>104</ele>
        <time>2023-02-01T13:37:14Z</time>
      </trkpt>
      <trkpt lat="49.77224" lon="2.29409">
        <ele>103.9</ele>
        <time>2023-02-01T13:37:15Z</time>
      </trkpt>
      <trkpt lat="49.77224" lon="2.29411">
        <ele>103.8</ele>
        <time>2023-02-01T13:37:16Z</time>
      </trkpt>
      <trkpt lat="49.77223" lon="2.29413">
        <ele>103.7</ele>
        <time>2023-02-01T13:37:17Z</time>
      </trkpt>
      <trkpt lat="49.77223" lon="2.29415">
        <ele>103.6</ele>
        <time>2023-02-01T13:37:18Z</time>
      </trkpt>
      <trkpt lat="49.77222" lon="2.29417">
        <ele>103.4</ele>
        <time>2023-02-01T13:37:19Z</time>
      </trkpt>
      <trkpt lat="49.77222" lon="2.2942">
        <ele>103.2</ele>
        <time>2023-02-01T13:37:21Z</time>
      </trkpt>
      <trkpt lat="49.77221" lon="2.29422">
        <ele>103.1</ele>
        <time>2023-02-01T13:37:22Z</time>
      </trkpt>
      <trkpt lat="49.7722" lon="2.29424">
        <ele>103</ele>
        <time>2023-02-01T13:37:23Z</time>
      </trkpt>
      <trkpt lat="49.7722" lon="2.29427">
        <ele>102.8</ele>
        <time>2023-02-01T13:37:24Z</time>
      </trkpt>
      <trkpt lat="49.7722" lon="2.29429">
        <ele>102.8</ele>
        <time>2023-02-01T13:37:25Z</time>
      </trkpt>
      <trkpt lat="49.77219" lon="2.2943">
        <ele>102.7</ele>
        <time>2023-02-01T13:37:26Z</time>
      </trkpt>
      <trkpt lat="49.77219" lon="2.29433">
        <ele>102.6</ele>
        <time>2023-02-01T13:37:27Z</time>
      </trkpt>
      <trkpt lat="49.77218" lon="2.29435">
        <ele>102.4</ele>
        <time>2023-02-01T13:37:28Z</time>
      </trkpt>
      <trkpt lat="49.77218" lon="2.29437">
        <ele>102.3</ele>
        <time>2023-02-01T13:37:29Z</time>
      </trkpt>
      <trkpt lat="49.77216" lon="2.29441">
        <ele>102.1</ele>
        <time>2023-02-01T13:37:31Z</time>
      </trkpt>
      <trkpt lat="49.77216" lon="2.29443">
        <ele>102</ele>
        <time>2023-02-01T13:37:32Z</time>
      </trkpt>
      <trkpt lat="49.77215" lon="2.29445">
        <ele>101.9</ele>
        <time>2023-02-01T13:37:34Z</time>
      </trkpt>
      <trkpt lat="49.77214" lon="2.29446">
        <ele>101.8</ele>
        <time>2023-02-01T13:37:35Z</time>
      </trkpt>
      <trkpt lat="49.77213" lon="2.29448">
        <ele>101.7</ele>
        <time>2023-02-01T13:37:36Z</time>
      </trkpt>
      <trkpt lat="49.77213" lon="2.2945">
        <ele>101.6</ele>
        <time>2023-02-01T13:37:37Z</time>
      </trkpt>
      <trkpt lat="49.77212" lon="2.29452">
        <ele>101.5</ele>
        <time>2023-02-01T13:37:38Z</time>
      </trkpt>
      <trkpt lat="49.77211" lon="2.29454">
        <ele>101.3</ele>
        <time>2023-02-01T13:37:40Z</time>
      </trkpt>
      <trkpt lat="49.7721" lon="2.29458">
        <ele>101.1</ele>
        <time>2023-02-01T13:37:41Z</time>
      </trkpt>
      <trkpt lat="49.7721" lon="2.29459">
        <ele>101.1</ele>
        <time>2023-02-01T13:37:42Z</time>
      </trkpt>
      <trkpt lat="49.7721" lon="2.2946">
        <ele>101</ele>
        <time>2023-02-01T13:37:43Z</time>
      </trkpt>
      <trkpt lat="49.7721" lon="2.29462">
        <ele>100.9</ele>
        <time>2023-02-01T13:37:44Z</time>
      </trkpt>
      <trkpt lat="49.7721" lon="2.29464">
        <ele>100.8</ele>
        <time>2023-02-01T13:37:45Z</time>
      </trkpt>
      <trkpt lat="49.7721" lon="2.29467">
        <ele>100.7</ele>
        <time>2023-02-01T13:37:46Z</time>
      </trkpt>
      <trkpt lat="49.77209" lon="2.29469">
        <ele>100.6</ele>
        <time>2023-02-01T13:37:47Z</time>
      </trkpt>
      <trkpt lat="49.77209" lon="2.29472">
        <ele>100.5</ele>
        <time>2023-02-01T13:37:48Z</time>
      </trkpt>
      <trkpt lat="49.77209" lon="2.29474">
        <ele>100.4</ele>
        <time>2023-02-01T13:37:49Z</time>
      </trkpt>
      <trkpt lat="49.77208" lon="2.29476">
        <ele>100.3</ele>
        <time>2023-02-01T13:37:51Z</time>
      </trkpt>
      <trkpt lat="49.77208" lon="2.29478">
        <ele>100.2</ele>
        <time>2023-02-01T13:37:52Z</time>
      </trkpt>
      <trkpt lat="49.77207" lon="2.2948">
        <ele>100.1</ele>
        <time>2023-02-01T13:37:53Z</time>
      </trkpt>
      <trkpt lat="49.77207" lon="2.29483">
        <ele>100</ele>
        <time>2023-02-01T13:37:54Z</time>
      </trkpt>
      <trkpt lat="49.77206" lon="2.29485">
        <ele>99.9</ele>
        <time>2023-02-01T13:37:55Z</time>
      </trkpt>
      <trkpt lat="49.77206" lon="2.29488">
        <ele>99.8</ele>
        <time>2023-02-01T13:37:56Z</time>
      </trkpt>
      <trkpt lat="49.77205" lon="2.2949">
        <ele>99.7</ele>
        <time>2023-02-01T13:37:58Z</time>
      </trkpt>
      <trkpt lat="49.77205" lon="2.29492">
        <ele>99.7</ele>
        <time>2023-02-01T13:37:59Z</time>
      </trkpt>
      <trkpt lat="49.77205" lon="2.29495">
        <ele>99.6</ele>
        <time>2023-02-01T13:38:00Z</time>
      </trkpt>
      <trkpt lat="49.77205" lon="2.29497">
        <ele>99.5</ele>
        <time>2023-02-01T13:38:01Z</time>
      </trkpt>
      <trkpt lat="49.77204" lon="2.29499">
        <ele>99.4</ele>
        <time>2023-02-01T13:38:02Z</time>
      </trkpt>
      <trkpt lat="49.77204" lon="2.29501">
        <ele>99.4</ele>
        <time>2023-02-01T13:38:03Z</time>
      </trkpt>
      <trkpt lat="49.77203" lon="2.29503">
        <ele>99.3</ele>
        <time>2023-02-01T13:38:04Z</time>
      </trkpt>
      <trkpt lat="49.77203" lon="2.29506">
        <ele>99.2</ele>
        <time>2023-02-01T13:38:06Z</time>
      </trkpt>
      <trkpt lat="49.77202" lon="2.29508">
        <ele>99.1</ele>
        <time>2023-02-01T13:38:07Z</time>
      </trkpt>
      <trkpt lat="49.77201" lon="2.2951">
        <ele>99</ele>
        <time>2023-02-01T13:38:08Z</time>
      </trkpt>
      <trkpt lat="49.77201" lon="2.29512">
        <ele>99</ele>
        <time>2023-02-01T13:38:09Z</time>
      </trkpt>
      <trkpt lat="49.772" lon="2.29514">
        <ele>98.9</ele>
        <time>2023-02-01T13:38:10Z</time>
      </trkpt>
      <trkpt lat="49.772" lon="2.29517">
        <ele>98.8</ele>
        <time>2023-02-01T13:38:12Z</time>
      </trkpt>
      <trkpt lat="49.77199" lon="2.29519">
        <ele>98.7</ele>
        <time>2023-02-01T13:38:13Z</time>
      </trkpt>
      <trkpt lat="49.77198" lon="2.29521">
        <ele>98.7</ele>
        <time>2023-02-01T13:38:14Z</time>
      </trkpt>
      <trkpt lat="49.77198" lon="2.29523">
        <ele>98.6</ele>
        <time>2023-02-01T13:38:15Z</time>
      </trkpt>
      <trkpt lat="49.77198" lon="2.29524">
        <ele>98.6</ele>
        <time>2023-02-01T13:38:16Z</time>
      </trkpt>
      <trkpt lat="49.77197" lon="2.29527">
        <ele>98.5</ele>
        <time>2023-02-01T13:38:17Z</time>
      </trkpt>
      <trkpt lat="49.77196" lon="2.29529">
        <ele>98.4</ele>
        <time>2023-02-01T13:38:18Z</time>
      </trkpt>
      <trkpt lat="49.77195" lon="2.29531">
        <ele>98.4</ele>
        <time>2023-02-01T13:38:19Z</time>
      </trkpt>
      <trkpt lat="49.77195" lon="2.29532">
        <ele>98.3</ele>
        <time>2023-02-01T13:38:20Z</time>
      </trkpt>
      <trkpt lat="49.77194" lon="2.29534">
        <ele>98.3</ele>
        <time>2023-02-01T13:38:22Z</time>
      </trkpt>
      <trkpt lat="49.77194" lon="2.29537">
        <ele>98.2</ele>
        <time>2023-02-01T13:38:23Z</time>
      </trkpt>
      <trkpt lat="49.77194" lon="2.29539">
        <ele>98.1</ele>
        <time>2023-02-01T13:38:24Z</time>
      </trkpt>
      <trkpt lat="49.77194" lon="2.29543">
        <ele>98</ele>
        <time>2023-02-01T13:38:26Z</time>
      </trkpt>
      <trkpt lat="49.77194" lon="2.29544">
        <ele>98</ele>
        <time>2023-02-01T13:38:27Z</time>
      </trkpt>
      <trkpt lat="49.77194" lon="2.29545">
        <ele>98</ele>
        <time>2023-02-01T13:38:28Z</time>
      </trkpt>
      <trkpt lat="49.77194" lon="2.29548">
        <ele>97.9</ele>
        <time>2023-02-01T13:38:29Z</time>
      </trkpt>
      <trkpt lat="49.77194" lon="2.2955">
        <ele>97.8</ele>
        <time>2023-02-01T13:38:30Z</time>
      </trkpt>
      <trkpt lat="49.77194" lon="2.29551">
        <ele>97.8</ele>
        <time>2023-02-01T13:38:31Z</time>
      </trkpt>
      <trkpt lat="49.77194" lon="2.29554">
        <ele>97.7</ele>
        <time>2023-02-01T13:38:32Z</time>
      </trkpt>
      <trkpt lat="49.77195" lon="2.29555">
        <ele>97.6</ele>
        <time>2023-02-01T13:38:33Z</time>
      </trkpt>
      <trkpt lat="49.77195" lon="2.29559">
        <ele>97.5</ele>
        <time>2023-02-01T13:38:35Z</time>
      </trkpt>
      <trkpt lat="49.77195" lon="2.2956">
        <ele>97.5</ele>
        <time>2023-02-01T13:38:36Z</time>
      </trkpt>
      <trkpt lat="49.77195" lon="2.29562">
        <ele>97.4</ele>
        <time>2023-02-01T13:38:37Z</time>
      </trkpt>
      <trkpt lat="49.77194" lon="2.29564">
        <ele>97.4</ele>
        <time>2023-02-01T13:38:38Z</time>
      </trkpt>
      <trkpt lat="49.77194" lon="2.29566">
        <ele>97.3</ele>
        <time>2023-02-01T13:38:39Z</time>
      </trkpt>
      <trkpt lat="49.77194" lon="2.29569">
        <ele>97.2</ele>
        <time>2023-02-01T13:38:40Z</time>
      </trkpt>
      <trkpt lat="49.77194" lon="2.29571">
        <ele>97.2</ele>
        <time>2023-02-01T13:38:41Z</time>
      </trkpt>
      <trkpt lat="49.77194" lon="2.29574">
        <ele>97.1</ele>
        <time>2023-02-01T13:38:42Z</time>
      </trkpt>
      <trkpt lat="49.77193" lon="2.29575">
        <ele>97</ele>
        <time>2023-02-01T13:38:43Z</time>
      </trkpt>
      <trkpt lat="49.77193" lon="2.29578">
        <ele>97</ele>
        <time>2023-02-01T13:38:45Z</time>
      </trkpt>
      <trkpt lat="49.77193" lon="2.2958">
        <ele>96.9</ele>
        <time>2023-02-01T13:38:46Z</time>
      </trkpt>
      <trkpt lat="49.77193" lon="2.29582">
        <ele>96.8</ele>
        <time>2023-02-01T13:38:48Z</time>
      </trkpt>
      <trkpt lat="49.77192" lon="2.29584">
        <ele>96.8</ele>
        <time>2023-02-01T13:38:49Z</time>
      </trkpt>
      <trkpt lat="49.77192" lon="2.29585">
        <ele>96.7</ele>
        <time>2023-02-01T13:38:50Z</time>
      </trkpt>
      <trkpt lat="49.77192" lon="2.29587">
        <ele>96.7</ele>
        <time>2023-02-01T13:38:51Z</time>
      </trkpt>
      <trkpt lat="49.77192" lon="2.29589">
        <ele>96.6</ele>
        <time>2023-02-01T13:38:52Z</time>
      </trkpt>
      <trkpt lat="49.77191" lon="2.29592">
        <ele>96.6</ele>
        <time>2023-02-01T13:38:53Z</time>
      </trkpt>
      <trkpt lat="49.77191" lon="2.29595">
        <ele>96.5</ele>
        <time>2023-02-01T13:38:55Z</time>
      </trkpt>
      <trkpt lat="49.77191" lon="2.29596">
        <ele>96.4</ele>
        <time>2023-02-01T13:38:56Z</time>
      </trkpt>
      <trkpt lat="49.77191" lon="2.29598">
        <ele>96.4</ele>
        <time>2023-02-01T13:38:57Z</time>
      </trkpt>
      <trkpt lat="49.7719" lon="2.29602">
        <ele>96.3</ele>
        <time>2023-02-01T13:38:58Z</time>
      </trkpt>
      <trkpt lat="49.77191" lon="2.29604">
        <ele>96.3</ele>
        <time>2023-02-01T13:38:59Z</time>
      </trkpt>
      <trkpt lat="49.77191" lon="2.29606">
        <ele>96.2</ele>
        <time>2023-02-01T13:39:01Z</time>
      </trkpt>
      <trkpt lat="49.77191" lon="2.29609">
        <ele>96.1</ele>
        <time>2023-02-01T13:39:02Z</time>
      </trkpt>
      <trkpt lat="49.7719" lon="2.29611">
        <ele>96.1</ele>
        <time>2023-02-01T13:39:03Z</time>
      </trkpt>
      <trkpt lat="49.7719" lon="2.29612">
        <ele>96.1</ele>
        <time>2023-02-01T13:39:04Z</time>
      </trkpt>
      <trkpt lat="49.7719" lon="2.29614">
        <ele>96</ele>
        <time>2023-02-01T13:39:05Z</time>
      </trkpt>
      <trkpt lat="49.7719" lon="2.29616">
        <ele>96</ele>
        <time>2023-02-01T13:39:06Z</time>
      </trkpt>
      <trkpt lat="49.7719" lon="2.29619">
        <ele>95.9</ele>
        <time>2023-02-01T13:39:07Z</time>
      </trkpt>
      <trkpt lat="49.7719" lon="2.29622">
        <ele>95.8</ele>
        <time>2023-02-01T13:39:09Z</time>
      </trkpt>
      <trkpt lat="49.7719" lon="2.29624">
        <ele>95.8</ele>
        <time>2023-02-01T13:39:10Z</time>
      </trkpt>
      <trkpt lat="49.7719" lon="2.29626">
        <ele>95.7</ele>
        <time>2023-02-01T13:39:11Z</time>
      </trkpt>
      <trkpt lat="49.7719" lon="2.2963">
        <ele>95.6</ele>
        <time>2023-02-01T13:39:12Z</time>
      </trkpt>
      <trkpt lat="49.7719" lon="2.29632">
        <ele>95.5</ele>
        <time>2023-02-01T13:39:13Z</time>
      </trkpt>
      <trkpt lat="49.77189" lon="2.29635">
        <ele>95.4</ele>
        <time>2023-02-01T13:39:14Z</time>
      </trkpt>
      <trkpt lat="49.77189" lon="2.29637">
        <ele>95.4</ele>
        <time>2023-02-01T13:39:16Z</time>
      </trkpt>
      <trkpt lat="49.77189" lon="2.29638">
        <ele>95.4</ele>
        <time>2023-02-01T13:39:17Z</time>
      </trkpt>
      <trkpt lat="49.77189" lon="2.2964">
        <ele>95.3</ele>
        <time>2023-02-01T13:39:18Z</time>
      </trkpt>
      <trkpt lat="49.77188" lon="2.29642">
        <ele>95.3</ele>
        <time>2023-02-01T13:39:19Z</time>
      </trkpt>
      <trkpt lat="49.77188" lon="2.29644">
        <ele>95.2</ele>
        <time>2023-02-01T13:39:20Z</time>
      </trkpt>
      <trkpt lat="49.77188" lon="2.29645">
        <ele>95.2</ele>
        <time>2023-02-01T13:39:21Z</time>
      </trkpt>
      <trkpt lat="49.77188" lon="2.29647">
        <ele>95.1</ele>
        <time>2023-02-01T13:39:22Z</time>
      </trkpt>
      <trkpt lat="49.77188" lon="2.29651">
        <ele>95</ele>
        <time>2023-02-01T13:39:23Z</time>
      </trkpt>
      <trkpt lat="49.77188" lon="2.29652">
        <ele>95</ele>
        <time>2023-02-01T13:39:24Z</time>
      </trkpt>
      <trkpt lat="49.77188" lon="2.29655">
        <ele>94.9</ele>
        <time>2023-02-01T13:39:26Z</time>
      </trkpt>
      <trkpt lat="49.77188" lon="2.29657">
        <ele>94.9</ele>
        <time>2023-02-01T13:39:27Z</time>
      </trkpt>
      <trkpt lat="49.77188" lon="2.29658">
        <ele>94.8</ele>
        <time>2023-02-01T13:39:28Z</time>
      </trkpt>
      <trkpt lat="49.77188" lon="2.29661">
        <ele>94.8</ele>
        <time>2023-02-01T13:39:29Z</time>
      </trkpt>
      <trkpt lat="49.77188" lon="2.29663">
        <ele>94.7</ele>
        <time>2023-02-01T13:39:30Z</time>
      </trkpt>
      <trkpt lat="49.77188" lon="2.29666">
        <ele>94.6</ele>
        <time>2023-02-01T13:39:31Z</time>
      </trkpt>
      <trkpt lat="49.77187" lon="2.29667">
        <ele>94.6</ele>
        <time>2023-02-01T13:39:33Z</time>
      </trkpt>
      <trkpt lat="49.77187" lon="2.29669">
        <ele>94.6</ele>
        <time>2023-02-01T13:39:34Z</time>
      </trkpt>
      <trkpt lat="49.77187" lon="2.29671">
        <ele>94.5</ele>
        <time>2023-02-01T13:39:35Z</time>
      </trkpt>
      <trkpt lat="49.77187" lon="2.29674">
        <ele>94.4</ele>
        <time>2023-02-01T13:39:36Z</time>
      </trkpt>
      <trkpt lat="49.77187" lon="2.29676">
        <ele>94.3</ele>
        <time>2023-02-01T13:39:37Z</time>
      </trkpt>
      <trkpt lat="49.77187" lon="2.29679">
        <ele>94.3</ele>
        <time>2023-02-01T13:39:38Z</time>
      </trkpt>
      <trkpt lat="49.77186" lon="2.29682">
        <ele>94.2</ele>
        <time>2023-02-01T13:39:39Z</time>
      </trkpt>
      <trkpt lat="49.77186" lon="2.29684">
        <ele>94.2</ele>
        <time>2023-02-01T13:39:40Z</time>
      </trkpt>
      <trkpt lat="49.77186" lon="2.29686">
        <ele>94.1</ele>
        <time>2023-02-01T13:39:41Z</time>
      </trkpt>
      <trkpt lat="49.77186" lon="2.29688">
        <ele>94</ele>
        <time>2023-02-01T13:39:43Z</time>
      </trkpt>
      <trkpt lat="49.77186" lon="2.2969">
        <ele>94</ele>
        <time>2023-02-01T13:39:44Z</time>
      </trkpt>
      <trkpt lat="49.77186" lon="2.29693">
        <ele>93.9</ele>
        <time>2023-02-01T13:39:45Z</time>
      </trkpt>
      <trkpt lat="49.77185" lon="2.29696">
        <ele>93.8</ele>
        <time>2023-02-01T13:39:46Z</time>
      </trkpt>
      <trkpt lat="49.77185" lon="2.29698">
        <ele>93.8</ele>
        <time>2023-02-01T13:39:47Z</time>
      </trkpt>
      <trkpt lat="49.77185" lon="2.297">
        <ele>93.7</ele>
        <time>2023-02-01T13:39:48Z</time>
      </trkpt>
      <trkpt lat="49.77185" lon="2.29702">
        <ele>93.7</ele>
        <time>2023-02-01T13:39:49Z</time>
      </trkpt>
      <trkpt lat="49.77185" lon="2.29705">
        <ele>93.6</ele>
        <time>2023-02-01T13:39:51Z</time>
      </trkpt>
      <trkpt lat="49.77185" lon="2.29707">
        <ele>93.5</ele>
        <time>2023-02-01T13:39:52Z</time>
      </trkpt>
      <trkpt lat="49.77185" lon="2.29708">
        <ele>93.5</ele>
        <time>2023-02-01T13:39:53Z</time>
      </trkpt>
      <trkpt lat="49.77185" lon="2.29709">
        <ele>93.5</ele>
        <time>2023-02-01T13:39:54Z</time>
      </trkpt>
      <trkpt lat="49.77185" lon="2.29711">
        <ele>93.4</ele>
        <time>2023-02-01T13:39:55Z</time>
      </trkpt>
      <trkpt lat="49.77185" lon="2.29714">
        <ele>93.4</ele>
        <time>2023-02-01T13:39:56Z</time>
      </trkpt>
      <trkpt lat="49.77184" lon="2.29716">
        <ele>93.3</ele>
        <time>2023-02-01T13:39:57Z</time>
      </trkpt>
      <trkpt lat="49.77184" lon="2.29718">
        <ele>93.3</ele>
        <time>2023-02-01T13:39:58Z</time>
      </trkpt>
      <trkpt lat="49.77184" lon="2.2972">
        <ele>93.2</ele>
        <time>2023-02-01T13:40:00Z</time>
      </trkpt>
      <trkpt lat="49.77183" lon="2.29722">
        <ele>93.2</ele>
        <time>2023-02-01T13:40:01Z</time>
      </trkpt>
      <trkpt lat="49.77183" lon="2.29724">
        <ele>93.1</ele>
        <time>2023-02-01T13:40:02Z</time>
      </trkpt>
      <trkpt lat="49.77182" lon="2.29727">
        <ele>93.1</ele>
        <time>2023-02-01T13:40:03Z</time>
      </trkpt>
      <trkpt lat="49.77182" lon="2.29728">
        <ele>93.1</ele>
        <time>2023-02-01T13:40:04Z</time>
      </trkpt>
      <trkpt lat="49.77182" lon="2.2973">
        <ele>93</ele>
        <time>2023-02-01T13:40:05Z</time>
      </trkpt>
      <trkpt lat="49.77181" lon="2.29732">
        <ele>93</ele>
        <time>2023-02-01T13:40:06Z</time>
      </trkpt>
      <trkpt lat="49.77181" lon="2.29733">
        <ele>93</ele>
        <time>2023-02-01T13:40:08Z</time>
      </trkpt>
      <trkpt lat="49.77181" lon="2.29734">
        <ele>93</ele>
        <time>2023-02-01T13:40:09Z</time>
      </trkpt>
      <trkpt lat="49.77181" lon="2.29736">
        <ele>92.9</ele>
        <time>2023-02-01T13:40:10Z</time>
      </trkpt>
      <trkpt lat="49.77181" lon="2.29737">
        <ele>92.9</ele>
        <time>2023-02-01T13:40:11Z</time>
      </trkpt>
      <trkpt lat="49.7718" lon="2.2974">
        <ele>92.9</ele>
        <time>2023-02-01T13:40:13Z</time>
      </trkpt>
      <trkpt lat="49.7718" lon="2.29741">
        <ele>92.8</ele>
        <time>2023-02-01T13:40:14Z</time>
      </trkpt>
      <trkpt lat="49.7718" lon="2.29741">
        <ele>92.8</ele>
        <time>2023-02-01T13:40:15Z</time>
      </trkpt>
      <trkpt lat="49.77179" lon="2.29742">
        <ele>92.8</ele>
        <time>2023-02-01T13:40:17Z</time>
      </trkpt>
      <trkpt lat="49.77179" lon="2.29742">
        <ele>92.8</ele>
        <time>2023-02-01T13:40:18Z</time>
      </trkpt>
      <trkpt lat="49.77179" lon="2.29741">
        <ele>92.8</ele>
        <time>2023-02-01T13:40:20Z</time>
      </trkpt>
      <trkpt lat="49.77179" lon="2.29741">
        <ele>92.8</ele>
        <time>2023-02-01T13:40:21Z</time>
      </trkpt>
      <trkpt lat="49.77179" lon="2.29741">
        <ele>92.8</ele>
        <time>2023-02-01T13:40:22Z</time>
      </trkpt>
      <trkpt lat="49.77179" lon="2.29741">
        <ele>92.8</ele>
        <time>2023-02-01T13:40:24Z</time>
      </trkpt>
      <trkpt lat="49.77179" lon="2.29741">
        <ele>92.8</ele>
        <time>2023-02-01T13:40:25Z</time>
      </trkpt>
      <trkpt lat="49.77179" lon="2.29741">
        <ele>92.8</ele>
        <time>2023-02-01T13:40:26Z</time>
      </trkpt>
      <trkpt lat="49.77179" lon="2.29741">
        <ele>92.8</ele>
        <time>2023-02-01T13:40:28Z</time>
      </trkpt>
      <trkpt lat="49.77179" lon="2.29741">
        <ele>92.8</ele>
        <time>2023-02-01T13:40:29Z</time>
      </trkpt>
      <trkpt lat="49.77179" lon="2.29741">
        <ele>92.8</ele>
        <time>2023-02-01T13:40:30Z</time>
      </trkpt>
      <trkpt lat="49.7718" lon="2.29741">
        <ele>92.8</ele>
        <time>2023-02-01T13:40:31Z</time>
      </trkpt>
      <trkpt lat="49.7718" lon="2.29741">
        <ele>92.8</ele>
        <time>2023-02-01T13:40:32Z</time>
      </trkpt>
      <trkpt lat="49.7718" lon="2.29741">
        <ele>92.8</ele>
        <time>2023-02-01T13:40:33Z</time>
      </trkpt>
      <trkpt lat="49.7718" lon="2.29741">
        <ele>92.8</ele>
        <time>2023-02-01T13:40:34Z</time>
      </trkpt>
      <trkpt lat="49.7718" lon="2.29741">
        <ele>92.8</ele>
        <time>2023-02-01T13:40:35Z</time>
      </trkpt>
      <trkpt lat="49.7718" lon="2.29741">
        <ele>92.8</ele>
        <time>2023-02-01T13:40:36Z</time>
      </trkpt>
      <trkpt lat="49.7718" lon="2.29741">
        <ele>92.8</ele>
        <time>2023-02-01T13:40:37Z</time>
      </trkpt>
      <trkpt lat="49.7718" lon="2.29741">
        <ele>92.8</ele>
        <time>2023-02-01T13:40:38Z</time>
      </trkpt>
      <trkpt lat="49.7718" lon="2.29741">
        <ele>92.8</ele>
        <time>2023-02-01T13:40:39Z</time>
      </trkpt>
      <trkpt lat="49.7718" lon="2.29741">
        <ele>92.8</ele>
        <time>2023-02-01T13:40:40Z</time>
      </trkpt>
      <trkpt lat="49.7718" lon="2.29741">
        <ele>92.8</ele>
        <time>2023-02-01T13:40:41Z</time>
      </trkpt>
      <trkpt lat="49.7718" lon="2.29741">
        <ele>92.8</ele>
        <time>2023-02-01T13:40:42Z</time>
      </trkpt>
      <trkpt lat="49.7718" lon="2.29741">
        <ele>92.8</ele>
        <time>2023-02-01T13:40:43Z</time>
      </trkpt>
      <trkpt lat="49.7718" lon="2.29741">
        <ele>92.8</ele>
        <time>2023-02-01T13:40:44Z</time>
      </trkpt>
      <trkpt lat="49.7718" lon="2.29741">
        <ele>92.8</ele>
        <time>2023-02-01T13:40:45Z</time>
      </trkpt>
      <trkpt lat="49.7718" lon="2.29741">
        <ele>92.8</ele>
        <time>2023-02-01T13:40:46Z</time>
      </trkpt>
      <trkpt lat="49.7718" lon="2.29741">
        <ele>92.8</ele>
        <time>2023-02-01T13:40:47Z</time>
      </trkpt>
      <trkpt lat="49.7718" lon="2.29741">
        <ele>92.8</ele>
        <time>2023-02-01T13:40:48Z</time>
      </trkpt>
      <trkpt lat="49.7718" lon="2.29741">
        <ele>92.8</ele>
        <time>2023-02-01T13:40:49Z</time>
      </trkpt>
      <trkpt lat="49.7718" lon="2.29741">
        <ele>92.8</ele>
        <time>2023-02-01T13:40:50Z</time>
      </trkpt>
      <trkpt lat="49.7718" lon="2.29741">
        <ele>92.8</ele>
        <time>2023-02-01T13:40:51Z</time>
      </trkpt>
      <trkpt lat="49.7718" lon="2.29741">
        <ele>92.8</ele>
        <time>2023-02-01T13:40:52Z</time>
      </trkpt>
      <trkpt lat="49.7718" lon="2.29741">
        <ele>92.8</ele>
        <time>2023-02-01T13:40:53Z</time>
      </trkpt>
      <trkpt lat="49.7718" lon="2.29741">
        <ele>92.8</ele>
        <time>2023-02-01T13:40:54Z</time>
      </trkpt>
      <trkpt lat="49.7718" lon="2.29741">
        <ele>92.8</ele>
        <time>2023-02-01T13:40:55Z</time>
      </trkpt>
      <trkpt lat="49.7718" lon="2.29741">
        <ele>92.8</ele>
        <time>2023-02-01T13:40:56Z</time>
      </trkpt>
      <trkpt lat="49.7718" lon="2.29741">
        <ele>92.8</ele>
        <time>2023-02-01T13:40:57Z</time>
      </trkpt>
      <trkpt lat="49.7718" lon="2.29741">
        <ele>92.8</ele>
        <time>2023-02-01T13:40:58Z</time>
      </trkpt>
      <trkpt lat="49.7718" lon="2.29741">
        <ele>92.8</ele>
        <time>2023-02-01T13:40:59Z</time>
      </trkpt>
      <trkpt lat="49.7718" lon="2.29741">
        <ele>92.8</ele>
        <time>2023-02-01T13:41:00Z</time>
      </trkpt>
      <trkpt lat="49.7718" lon="2.29741">
        <ele>92.8</ele>
        <time>2023-02-01T13:41:01Z</time>
      </trkpt>
      <trkpt lat="49.7718" lon="2.29741">
        <ele>92.8</ele>
        <time>2023-02-01T13:41:02Z</time>
      </trkpt>
      <trkpt lat="49.7718" lon="2.29741">
        <ele>92.8</ele>
        <time>2023-02-01T13:41:03Z</time>
      </trkpt>
      <trkpt lat="49.7718" lon="2.29741">
        <ele>92.8</ele>
        <time>2023-02-01T13:41:04Z</time>
      </trkpt>
      <trkpt lat="49.7718" lon="2.29741">
        <ele>92.8</ele>
        <time>2023-02-01T13:41:05Z</time>
      </trkpt>
      <trkpt lat="49.7718" lon="2.29741">
        <ele>92.8</ele>
        <time>2023-02-01T13:41:06Z</time>
      </trkpt>
      <trkpt lat="49.7718" lon="2.29741">
        <ele>92.8</ele>
        <time>2023-02-01T13:41:07Z</time>
      </trkpt>
      <trkpt lat="49.7718" lon="2.29741">
        <ele>92.8</ele>
        <time>2023-02-01T13:41:08Z</time>
      </trkpt>
      <trkpt lat="49.7718" lon="2.29741">
        <ele>92.8</ele>
        <time>2023-02-01T13:41:09Z</time>
      </trkpt>
      <trkpt lat="49.7718" lon="2.29741">
        <ele>92.8</ele>
        <time>2023-02-01T13:41:10Z</time>
      </trkpt>
      <trkpt lat="49.7718" lon="2.29741">
        <ele>92.8</ele>
        <time>2023-02-01T13:41:11Z</time>
      </trkpt>
      <trkpt lat="49.7718" lon="2.29741">
        <ele>92.8</ele>
        <time>2023-02-01T13:41:12Z</time>
      </trkpt>
      <trkpt lat="49.7718" lon="2.29741">
        <ele>92.8</ele>
        <time>2023-02-01T13:41:13Z</time>
      </trkpt>
      <trkpt lat="49.7718" lon="2.29741">
        <ele>92.8</ele>
        <time>2023-02-01T13:41:14Z</time>
      </trkpt>
      <trkpt lat="49.7718" lon="2.29741">
        <ele>92.8</ele>
        <time>2023-02-01T13:41:15Z</time>
      </trkpt>
      <trkpt lat="49.7718" lon="2.29741">
        <ele>92.8</ele>
        <time>2023-02-01T13:41:16Z</time>
      </trkpt>
      <trkpt lat="49.7718" lon="2.29741">
        <ele>92.8</ele>
        <time>2023-02-01T13:41:17Z</time>
      </trkpt>
      <trkpt lat="49.7718" lon="2.29739">
        <ele>92.8</ele>
        <time>2023-02-01T13:41:18Z</time>
      </trkpt>
      <trkpt lat="49.7718" lon="2.29737">
        <ele>92.7</ele>
        <time>2023-02-01T13:41:19Z</time>
      </trkpt>
      <trkpt lat="49.7718" lon="2.29737">
        <ele>92.7</ele>
        <time>2023-02-01T13:41:20Z</time>
      </trkpt>
      <trkpt lat="49.7718" lon="2.29738">
        <ele>92.7</ele>
        <time>2023-02-01T13:41:21Z</time>
      </trkpt>
      <trkpt lat="49.7718" lon="2.29739">
        <ele>92.7</ele>
        <time>2023-02-01T13:41:22Z</time>
      </trkpt>
      <trkpt lat="49.77179" lon="2.29741">
        <ele>92.7</ele>
        <time>2023-02-01T13:41:23Z</time>
      </trkpt>
      <trkpt lat="49.77179" lon="2.29742">
        <ele>92.7</ele>
        <time>2023-02-01T13:41:24Z</time>
      </trkpt>
      <trkpt lat="49.7718" lon="2.29743">
        <ele>92.7</ele>
        <time>2023-02-01T13:41:25Z</time>
      </trkpt>
      <trkpt lat="49.77179" lon="2.29745">
        <ele>92.6</ele>
        <time>2023-02-01T13:41:26Z</time>
      </trkpt>
      <trkpt lat="49.77179" lon="2.29748">
        <ele>92.6</ele>
        <time>2023-02-01T13:41:27Z</time>
      </trkpt>
      <trkpt lat="49.77178" lon="2.2975">
        <ele>92.6</ele>
        <time>2023-02-01T13:41:28Z</time>
      </trkpt>
      <trkpt lat="49.77178" lon="2.29751">
        <ele>92.5</ele>
        <time>2023-02-01T13:41:29Z</time>
      </trkpt>
      <trkpt lat="49.77177" lon="2.29756">
        <ele>92.5</ele>
        <time>2023-02-01T13:41:31Z</time>
      </trkpt>
      <trkpt lat="49.77177" lon="2.29757">
        <ele>92.5</ele>
        <time>2023-02-01T13:41:32Z</time>
      </trkpt>
      <trkpt lat="49.77176" lon="2.29761">
        <ele>92.4</ele>
        <time>2023-02-01T13:41:33Z</time>
      </trkpt>
      <trkpt lat="49.77175" lon="2.29762">
        <ele>92.4</ele>
        <time>2023-02-01T13:41:34Z</time>
      </trkpt>
      <trkpt lat="49.77175" lon="2.29765">
        <ele>92.4</ele>
        <time>2023-02-01T13:41:35Z</time>
      </trkpt>
      <trkpt lat="49.77175" lon="2.29767">
        <ele>92.4</ele>
        <time>2023-02-01T13:41:36Z</time>
      </trkpt>
      <trkpt lat="49.77174" lon="2.2977">
        <ele>92.3</ele>
        <time>2023-02-01T13:41:37Z</time>
      </trkpt>
      <trkpt lat="49.77174" lon="2.29771">
        <ele>92.3</ele>
        <time>2023-02-01T13:41:38Z</time>
      </trkpt>
      <trkpt lat="49.77174" lon="2.29772">
        <ele>92.3</ele>
        <time>2023-02-01T13:41:39Z</time>
      </trkpt>
      <trkpt lat="49.77173" lon="2.29776">
        <ele>92.3</ele>
        <time>2023-02-01T13:41:40Z</time>
      </trkpt>
      <trkpt lat="49.77173" lon="2.29778">
        <ele>92.2</ele>
        <time>2023-02-01T13:41:42Z</time>
      </trkpt>
      <trkpt lat="49.77173" lon="2.2978">
        <ele>92.2</ele>
        <time>2023-02-01T13:41:43Z</time>
      </trkpt>
      <trkpt lat="49.77172" lon="2.29781">
        <ele>92.2</ele>
        <time>2023-02-01T13:41:44Z</time>
      </trkpt>
      <trkpt lat="49.77172" lon="2.29783">
        <ele>92.2</ele>
        <time>2023-02-01T13:41:45Z</time>
      </trkpt>
      <trkpt lat="49.77171" lon="2.29785">
        <ele>92.2</ele>
        <time>2023-02-01T13:41:46Z</time>
      </trkpt>
      <trkpt lat="49.77171" lon="2.29786">
        <ele>92.2</ele>
        <time>2023-02-01T13:41:47Z</time>
      </trkpt>
      <trkpt lat="49.7717" lon="2.29788">
        <ele>92.1</ele>
        <time>2023-02-01T13:41:49Z</time>
      </trkpt>
      <trkpt lat="49.77169" lon="2.29791">
        <ele>92.1</ele>
        <time>2023-02-01T13:41:50Z</time>
      </trkpt>
      <trkpt lat="49.77169" lon="2.29792">
        <ele>92.1</ele>
        <time>2023-02-01T13:41:51Z</time>
      </trkpt>
      <trkpt lat="49.77168" lon="2.29794">
        <ele>92.1</ele>
        <time>2023-02-01T13:41:52Z</time>
      </trkpt>
      <trkpt lat="49.77167" lon="2.29796">
        <ele>92.1</ele>
        <time>2023-02-01T13:41:53Z</time>
      </trkpt>
      <trkpt lat="49.77166" lon="2.29797">
        <ele>92.1</ele>
        <time>2023-02-01T13:41:54Z</time>
      </trkpt>
      <trkpt lat="49.77166" lon="2.29799">
        <ele>92</ele>
        <time>2023-02-01T13:41:55Z</time>
      </trkpt>
      <trkpt lat="49.77165" lon="2.29801">
        <ele>92</ele>
        <time>2023-02-01T13:41:56Z</time>
      </trkpt>
      <trkpt lat="49.77164" lon="2.29802">
        <ele>92</ele>
        <time>2023-02-01T13:41:58Z</time>
      </trkpt>
      <trkpt lat="49.77164" lon="2.29804">
        <ele>92</ele>
        <time>2023-02-01T13:41:59Z</time>
      </trkpt>
      <trkpt lat="49.77163" lon="2.29807">
        <ele>92</ele>
        <time>2023-02-01T13:42:00Z</time>
      </trkpt>
      <trkpt lat="49.77163" lon="2.29808">
        <ele>92</ele>
        <time>2023-02-01T13:42:01Z</time>
      </trkpt>
      <trkpt lat="49.77162" lon="2.2981">
        <ele>92</ele>
        <time>2023-02-01T13:42:02Z</time>
      </trkpt>
      <trkpt lat="49.77162" lon="2.29812">
        <ele>91.9</ele>
        <time>2023-02-01T13:42:03Z</time>
      </trkpt>
      <trkpt lat="49.77161" lon="2.29813">
        <ele>91.9</ele>
        <time>2023-02-01T13:42:05Z</time>
      </trkpt>
      <trkpt lat="49.7716" lon="2.29816">
        <ele>91.9</ele>
        <time>2023-02-01T13:42:06Z</time>
      </trkpt>
      <trkpt lat="49.7716" lon="2.29818">
        <ele>91.9</ele>
        <time>2023-02-01T13:42:07Z</time>
      </trkpt>
      <trkpt lat="49.77159" lon="2.2982">
        <ele>91.9</ele>
        <time>2023-02-01T13:42:08Z</time>
      </trkpt>
      <trkpt lat="49.77159" lon="2.29822">
        <ele>91.9</ele>
        <time>2023-02-01T13:42:09Z</time>
      </trkpt>
      <trkpt lat="49.77157" lon="2.29826">
        <ele>91.9</ele>
        <time>2023-02-01T13:42:10Z</time>
      </trkpt>
      <trkpt lat="49.77157" lon="2.29827">
        <ele>91.9</ele>
        <time>2023-02-01T13:42:12Z</time>
      </trkpt>
      <trkpt lat="49.77157" lon="2.29829">
        <ele>91.8</ele>
        <time>2023-02-01T13:42:13Z</time>
      </trkpt>
      <trkpt lat="49.77157" lon="2.2983">
        <ele>91.8</ele>
        <time>2023-02-01T13:42:14Z</time>
      </trkpt>
      <trkpt lat="49.77156" lon="2.29831">
        <ele>91.8</ele>
        <time>2023-02-01T13:42:15Z</time>
      </trkpt>
      <trkpt lat="49.77156" lon="2.29833">
        <ele>91.8</ele>
        <time>2023-02-01T13:42:16Z</time>
      </trkpt>
      <trkpt lat="49.77156" lon="2.29835">
        <ele>91.8</ele>
        <time>2023-02-01T13:42:17Z</time>
      </trkpt>
      <trkpt lat="49.77156" lon="2.29837">
        <ele>91.8</ele>
        <time>2023-02-01T13:42:19Z</time>
      </trkpt>
      <trkpt lat="49.77156" lon="2.29839">
        <ele>91.8</ele>
        <time>2023-02-01T13:42:20Z</time>
      </trkpt>
      <trkpt lat="49.77156" lon="2.29842">
        <ele>91.8</ele>
        <time>2023-02-01T13:42:21Z</time>
      </trkpt>
      <trkpt lat="49.77156" lon="2.29844">
        <ele>91.7</ele>
        <time>2023-02-01T13:42:22Z</time>
      </trkpt>
      <trkpt lat="49.77156" lon="2.29848">
        <ele>91.7</ele>
        <time>2023-02-01T13:42:23Z</time>
      </trkpt>
      <trkpt lat="49.77155" lon="2.2985">
        <ele>91.7</ele>
        <time>2023-02-01T13:42:24Z</time>
      </trkpt>
      <trkpt lat="49.77155" lon="2.29853">
        <ele>91.7</ele>
        <time>2023-02-01T13:42:26Z</time>
      </trkpt>
      <trkpt lat="49.77155" lon="2.29855">
        <ele>91.7</ele>
        <time>2023-02-01T13:42:27Z</time>
      </trkpt>
      <trkpt lat="49.77155" lon="2.29857">
        <ele>91.7</ele>
        <time>2023-02-01T13:42:28Z</time>
      </trkpt>
      <trkpt lat="49.77156" lon="2.29862">
        <ele>91.6</ele>
        <time>2023-02-01T13:42:30Z</time>
      </trkpt>
      <trkpt lat="49.77156" lon="2.29863">
        <ele>91.6</ele>
        <time>2023-02-01T13:42:31Z</time>
      </trkpt>
      <trkpt lat="49.77156" lon="2.29866">
        <ele>91.6</ele>
        <time>2023-02-01T13:42:32Z</time>
      </trkpt>
      <trkpt lat="49.77156" lon="2.29867">
        <ele>91.6</ele>
        <time>2023-02-01T13:42:33Z</time>
      </trkpt>
      <trkpt lat="49.77156" lon="2.29869">
        <ele>91.6</ele>
        <time>2023-02-01T13:42:34Z</time>
      </trkpt>
      <trkpt lat="49.77157" lon="2.29872">
        <ele>91.6</ele>
        <time>2023-02-01T13:42:35Z</time>
      </trkpt>
      <trkpt lat="49.77157" lon="2.29873">
        <ele>91.6</ele>
        <time>2023-02-01T13:42:36Z</time>
      </trkpt>
      <trkpt lat="49.77157" lon="2.29875">
        <ele>91.5</ele>
        <time>2023-02-01T13:42:38Z</time>
      </trkpt>
      <trkpt lat="49.77157" lon="2.29877">
        <ele>91.5</ele>
        <time>2023-02-01T13:42:39Z</time>
      </trkpt>
      <trkpt lat="49.77158" lon="2.29881">
        <ele>91.5</ele>
        <time>2023-02-01T13:42:40Z</time>
      </trkpt>
      <trkpt lat="49.77158" lon="2.29882">
        <ele>91.5</ele>
        <time>2023-02-01T13:42:41Z</time>
      </trkpt>
      <trkpt lat="49.77158" lon="2.29885">
        <ele>91.5</ele>
        <time>2023-02-01T13:42:42Z</time>
      </trkpt>
      <trkpt lat="49.77158" lon="2.29887">
        <ele>91.4</ele>
        <time>2023-02-01T13:42:43Z</time>
      </trkpt>
      <trkpt lat="49.77159" lon="2.29888">
        <ele>91.4</ele>
        <time>2023-02-01T13:42:44Z</time>
      </trkpt>
      <trkpt lat="49.77159" lon="2.29892">
        <ele>91.4</ele>
        <time>2023-02-01T13:42:45Z</time>
      </trkpt>
      <trkpt lat="49.77159" lon="2.29894">
        <ele>91.4</ele>
        <time>2023-02-01T13:42:47Z</time>
      </trkpt>
      <trkpt lat="49.7716" lon="2.29896">
        <ele>91.4</ele>
        <time>2023-02-01T13:42:48Z</time>
      </trkpt>
      <trkpt lat="49.7716" lon="2.29897">
        <ele>91.4</ele>
        <time>2023-02-01T13:42:49Z</time>
      </trkpt>
      <trkpt lat="49.7716" lon="2.29899">
        <ele>91.3</ele>
        <time>2023-02-01T13:42:50Z</time>
      </trkpt>
      <trkpt lat="49.7716" lon="2.299">
        <ele>91.3</ele>
        <time>2023-02-01T13:42:51Z</time>
      </trkpt>
      <trkpt lat="49.7716" lon="2.29902">
        <ele>91.3</ele>
        <time>2023-02-01T13:42:52Z</time>
      </trkpt>
      <trkpt lat="49.77161" lon="2.29904">
        <ele>91.3</ele>
        <time>2023-02-01T13:42:54Z</time>
      </trkpt>
      <trkpt lat="49.77161" lon="2.29906">
        <ele>91.3</ele>
        <time>2023-02-01T13:42:55Z</time>
      </trkpt>
      <trkpt lat="49.77161" lon="2.29909">
        <ele>91.3</ele>
        <time>2023-02-01T13:42:56Z</time>
      </trkpt>
      <trkpt lat="49.7716" lon="2.2991">
        <ele>91.3</ele>
        <time>2023-02-01T13:42:57Z</time>
      </trkpt>
      <trkpt lat="49.7716" lon="2.29913">
        <ele>91.2</ele>
        <time>2023-02-01T13:42:58Z</time>
      </trkpt>
      <trkpt lat="49.7716" lon="2.29917">
        <ele>91.2</ele>
        <time>2023-02-01T13:42:59Z</time>
      </trkpt>
      <trkpt lat="49.7716" lon="2.29919">
        <ele>91.2</ele>
        <time>2023-02-01T13:43:00Z</time>
      </trkpt>
      <trkpt lat="49.7716" lon="2.29922">
        <ele>91.2</ele>
        <time>2023-02-01T13:43:01Z</time>
      </trkpt>
      <trkpt lat="49.7716" lon="2.29923">
        <ele>91.2</ele>
        <time>2023-02-01T13:43:03Z</time>
      </trkpt>
      <trkpt lat="49.7716" lon="2.29925">
        <ele>91.2</ele>
        <time>2023-02-01T13:43:04Z</time>
      </trkpt>
      <trkpt lat="49.7716" lon="2.29927">
        <ele>91.2</ele>
        <time>2023-02-01T13:43:05Z</time>
      </trkpt>
      <trkpt lat="49.7716" lon="2.29929">
        <ele>91.2</ele>
        <time>2023-02-01T13:43:06Z</time>
      </trkpt>
      <trkpt lat="49.7716" lon="2.29931">
        <ele>91.2</ele>
        <time>2023-02-01T13:43:07Z</time>
      </trkpt>
      <trkpt lat="49.7716" lon="2.29933">
        <ele>91.2</ele>
        <time>2023-02-01T13:43:08Z</time>
      </trkpt>
      <trkpt lat="49.7716" lon="2.29935">
        <ele>91.2</ele>
        <time>2023-02-01T13:43:09Z</time>
      </trkpt>
      <trkpt lat="49.77159" lon="2.29939">
        <ele>91.1</ele>
        <time>2023-02-01T13:43:10Z</time>
      </trkpt>
      <trkpt lat="49.77159" lon="2.2994">
        <ele>91.1</ele>
        <time>2023-02-01T13:43:11Z</time>
      </trkpt>
      <trkpt lat="49.77158" lon="2.29941">
        <ele>91.1</ele>
        <time>2023-02-01T13:43:13Z</time>
      </trkpt>
      <trkpt lat="49.77158" lon="2.29943">
        <ele>91.1</ele>
        <time>2023-02-01T13:43:14Z</time>
      </trkpt>
      <trkpt lat="49.77158" lon="2.29944">
        <ele>91.1</ele>
        <time>2023-02-01T13:43:15Z</time>
      </trkpt>
      <trkpt lat="49.77157" lon="2.29946">
        <ele>91.1</ele>
        <time>2023-02-01T13:43:16Z</time>
      </trkpt>
      <trkpt lat="49.77157" lon="2.29949">
        <ele>91.1</ele>
        <time>2023-02-01T13:43:17Z</time>
      </trkpt>
      <trkpt lat="49.77156" lon="2.2995">
        <ele>91.1</ele>
        <time>2023-02-01T13:43:18Z</time>
      </trkpt>
      <trkpt lat="49.77156" lon="2.29951">
        <ele>91.1</ele>
        <time>2023-02-01T13:43:19Z</time>
      </trkpt>
      <trkpt lat="49.77156" lon="2.29954">
        <ele>91.1</ele>
        <time>2023-02-01T13:43:20Z</time>
      </trkpt>
      <trkpt lat="49.77155" lon="2.29955">
        <ele>91.1</ele>
        <time>2023-02-01T13:43:21Z</time>
      </trkpt>
      <trkpt lat="49.77155" lon="2.29957">
        <ele>91.1</ele>
        <time>2023-02-01T13:43:22Z</time>
      </trkpt>
      <trkpt lat="49.77155" lon="2.29959">
        <ele>91.1</ele>
        <time>2023-02-01T13:43:24Z</time>
      </trkpt>
      <trkpt lat="49.77154" lon="2.29961">
        <ele>91.1</ele>
        <time>2023-02-01T13:43:25Z</time>
      </trkpt>
      <trkpt lat="49.77154" lon="2.29964">
        <ele>91.1</ele>
        <time>2023-02-01T13:43:26Z</time>
      </trkpt>
      <trkpt lat="49.77154" lon="2.29966">
        <ele>91.1</ele>
        <time>2023-02-01T13:43:27Z</time>
      </trkpt>
      <trkpt lat="49.77153" lon="2.29967">
        <ele>91.1</ele>
        <time>2023-02-01T13:43:28Z</time>
      </trkpt>
      <trkpt lat="49.77153" lon="2.2997">
        <ele>91.1</ele>
        <time>2023-02-01T13:43:30Z</time>
      </trkpt>
      <trkpt lat="49.77153" lon="2.29972">
        <ele>91.1</ele>
        <time>2023-02-01T13:43:31Z</time>
      </trkpt>
      <trkpt lat="49.77152" lon="2.29974">
        <ele>91.1</ele>
        <time>2023-02-01T13:43:32Z</time>
      </trkpt>
      <trkpt lat="49.77152" lon="2.29975">
        <ele>91.1</ele>
        <time>2023-02-01T13:43:33Z</time>
      </trkpt>
      <trkpt lat="49.77152" lon="2.29977">
        <ele>91.1</ele>
        <time>2023-02-01T13:43:34Z</time>
      </trkpt>
      <trkpt lat="49.77151" lon="2.29979">
        <ele>91.1</ele>
        <time>2023-02-01T13:43:35Z</time>
      </trkpt>
      <trkpt lat="49.7715" lon="2.29981">
        <ele>91.1</ele>
        <time>2023-02-01T13:43:36Z</time>
      </trkpt>
      <trkpt lat="49.77149" lon="2.29983">
        <ele>91.1</ele>
        <time>2023-02-01T13:43:37Z</time>
      </trkpt>
      <trkpt lat="49.77148" lon="2.29986">
        <ele>91.1</ele>
        <time>2023-02-01T13:43:38Z</time>
      </trkpt>
      <trkpt lat="49.77148" lon="2.29987">
        <ele>91.1</ele>
        <time>2023-02-01T13:43:40Z</time>
      </trkpt>
      <trkpt lat="49.77147" lon="2.29989">
        <ele>91.1</ele>
        <time>2023-02-01T13:43:41Z</time>
      </trkpt>
      <trkpt lat="49.77146" lon="2.2999">
        <ele>91.1</ele>
        <time>2023-02-01T13:43:42Z</time>
      </trkpt>
      <trkpt lat="49.77146" lon="2.29992">
        <ele>91.1</ele>
        <time>2023-02-01T13:43:43Z</time>
      </trkpt>
      <trkpt lat="49.77145" lon="2.29995">
        <ele>91.1</ele>
        <time>2023-02-01T13:43:44Z</time>
      </trkpt>
      <trkpt lat="49.77144" lon="2.29996">
        <ele>91.1</ele>
        <time>2023-02-01T13:43:46Z</time>
      </trkpt>
      <trkpt lat="49.77144" lon="2.29997">
        <ele>91.1</ele>
        <time>2023-02-01T13:43:47Z</time>
      </trkpt>
      <trkpt lat="49.77144" lon="2.29999">
        <ele>91.1</ele>
        <time>2023-02-01T13:43:48Z</time>
      </trkpt>
      <trkpt lat="49.77143" lon="2.3">
        <ele>91.1</ele>
        <time>2023-02-01T13:43:49Z</time>
      </trkpt>
      <trkpt lat="49.77143" lon="2.30001">
        <ele>91.1</ele>
        <time>2023-02-01T13:43:50Z</time>
      </trkpt>
      <trkpt lat="49.77143" lon="2.30005">
        <ele>91.1</ele>
        <time>2023-02-01T13:43:51Z</time>
      </trkpt>
      <trkpt lat="49.77143" lon="2.30006">
        <ele>91.1</ele>
        <time>2023-02-01T13:43:52Z</time>
      </trkpt>
      <trkpt lat="49.77143" lon="2.30007">
        <ele>91.1</ele>
        <time>2023-02-01T13:43:53Z</time>
      </trkpt>
      <trkpt lat="49.77143" lon="2.3001">
        <ele>91.1</ele>
        <time>2023-02-01T13:43:54Z</time>
      </trkpt>
      <trkpt lat="49.77142" lon="2.30013">
        <ele>91.1</ele>
        <time>2023-02-01T13:43:55Z</time>
      </trkpt>
      <trkpt lat="49.77142" lon="2.30016">
        <ele>91.1</ele>
        <time>2023-02-01T13:43:57Z</time>
      </trkpt>
      <trkpt lat="49.77142" lon="2.30018">
        <ele>91.1</ele>
        <time>2023-02-01T13:43:58Z</time>
      </trkpt>
      <trkpt lat="49.77142" lon="2.30019">
        <ele>91.1</ele>
        <time>2023-02-01T13:43:59Z</time>
      </trkpt>
      <trkpt lat="49.77142" lon="2.30022">
        <ele>91.1</ele>
        <time>2023-02-01T13:44:00Z</time>
      </trkpt>
      <trkpt lat="49.77142" lon="2.30024">
        <ele>91.2</ele>
        <time>2023-02-01T13:44:01Z</time>
      </trkpt>
      <trkpt lat="49.77142" lon="2.30027">
        <ele>91.2</ele>
        <time>2023-02-01T13:44:02Z</time>
      </trkpt>
      <trkpt lat="49.77142" lon="2.3003">
        <ele>91.2</ele>
        <time>2023-02-01T13:44:03Z</time>
      </trkpt>
      <trkpt lat="49.77142" lon="2.30034">
        <ele>91.2</ele>
        <time>2023-02-01T13:44:04Z</time>
      </trkpt>
      <trkpt lat="49.77141" lon="2.30036">
        <ele>91.2</ele>
        <time>2023-02-01T13:44:06Z</time>
      </trkpt>
      <trkpt lat="49.77141" lon="2.30038">
        <ele>91.2</ele>
        <time>2023-02-01T13:44:07Z</time>
      </trkpt>
      <trkpt lat="49.77141" lon="2.30039">
        <ele>91.2</ele>
        <time>2023-02-01T13:44:08Z</time>
      </trkpt>
      <trkpt lat="49.77141" lon="2.30041">
        <ele>91.2</ele>
        <time>2023-02-01T13:44:09Z</time>
      </trkpt>
      <trkpt lat="49.7714" lon="2.30043">
        <ele>91.2</ele>
        <time>2023-02-01T13:44:10Z</time>
      </trkpt>
      <trkpt lat="49.7714" lon="2.30045">
        <ele>91.2</ele>
        <time>2023-02-01T13:44:11Z</time>
      </trkpt>
      <trkpt lat="49.7714" lon="2.30047">
        <ele>91.2</ele>
        <time>2023-02-01T13:44:12Z</time>
      </trkpt>
      <trkpt lat="49.77139" lon="2.3005">
        <ele>91.3</ele>
        <time>2023-02-01T13:44:13Z</time>
      </trkpt>
      <trkpt lat="49.77139" lon="2.30051">
        <ele>91.4</ele>
        <time>2023-02-01T13:44:15Z</time>
      </trkpt>
      <trkpt lat="49.77138" lon="2.30053">
        <ele>91.5</ele>
        <time>2023-02-01T13:44:16Z</time>
      </trkpt>
      <trkpt lat="49.77138" lon="2.30055">
        <ele>91.5</ele>
        <time>2023-02-01T13:44:17Z</time>
      </trkpt>
      <trkpt lat="49.77138" lon="2.30057">
        <ele>91.6</ele>
        <time>2023-02-01T13:44:18Z</time>
      </trkpt>
      <trkpt lat="49.77137" lon="2.30059">
        <ele>91.7</ele>
        <time>2023-02-01T13:44:19Z</time>
      </trkpt>
      <trkpt lat="49.77137" lon="2.30062">
        <ele>91.8</ele>
        <time>2023-02-01T13:44:20Z</time>
      </trkpt>
      <trkpt lat="49.77136" lon="2.30063">
        <ele>91.9</ele>
        <time>2023-02-01T13:44:22Z</time>
      </trkpt>
      <trkpt lat="49.77136" lon="2.30065">
        <ele>91.9</ele>
        <time>2023-02-01T13:44:23Z</time>
      </trkpt>
      <trkpt lat="49.77135" lon="2.30066">
        <ele>92</ele>
        <time>2023-02-01T13:44:24Z</time>
      </trkpt>
      <trkpt lat="49.77135" lon="2.30068">
        <ele>92.1</ele>
        <time>2023-02-01T13:44:25Z</time>
      </trkpt>
      <trkpt lat="49.77134" lon="2.30069">
        <ele>92.2</ele>
        <time>2023-02-01T13:44:26Z</time>
      </trkpt>
      <trkpt lat="49.77134" lon="2.30071">
        <ele>92.1</ele>
        <time>2023-02-01T13:44:27Z</time>
      </trkpt>
      <trkpt lat="49.77133" lon="2.30074">
        <ele>92.1</ele>
        <time>2023-02-01T13:44:28Z</time>
      </trkpt>
      <trkpt lat="49.77132" lon="2.30075">
        <ele>92.1</ele>
        <time>2023-02-01T13:44:30Z</time>
      </trkpt>
      <trkpt lat="49.77131" lon="2.30075">
        <ele>92.1</ele>
        <time>2023-02-01T13:44:31Z</time>
      </trkpt>
      <trkpt lat="49.7713" lon="2.30075">
        <ele>92.1</ele>
        <time>2023-02-01T13:44:32Z</time>
      </trkpt>
      <trkpt lat="49.77129" lon="2.30076">
        <ele>92.1</ele>
        <time>2023-02-01T13:44:33Z</time>
      </trkpt>
      <trkpt lat="49.77128" lon="2.30076">
        <ele>92.1</ele>
        <time>2023-02-01T13:44:35Z</time>
      </trkpt>
      <trkpt lat="49.77127" lon="2.30077">
        <ele>92.1</ele>
        <time>2023-02-01T13:44:36Z</time>
      </trkpt>
      <trkpt lat="49.77126" lon="2.30078">
        <ele>92.1</ele>
        <time>2023-02-01T13:44:37Z</time>
      </trkpt>
      <trkpt lat="49.77125" lon="2.30078">
        <ele>92.1</ele>
        <time>2023-02-01T13:44:38Z</time>
      </trkpt>
      <trkpt lat="49.77124" lon="2.30079">
        <ele>92.1</ele>
        <time>2023-02-01T13:44:39Z</time>
      </trkpt>
      <trkpt lat="49.77123" lon="2.3008">
        <ele>92.1</ele>
        <time>2023-02-01T13:44:40Z</time>
      </trkpt>
      <trkpt lat="49.77122" lon="2.3008">
        <ele>92.1</ele>
        <time>2023-02-01T13:44:41Z</time>
      </trkpt>
      <trkpt lat="49.77122" lon="2.30081">
        <ele>92.1</ele>
        <time>2023-02-01T13:44:42Z</time>
      </trkpt>
      <trkpt lat="49.77121" lon="2.30081">
        <ele>92.1</ele>
        <time>2023-02-01T13:44:43Z</time>
      </trkpt>
      <trkpt lat="49.7712" lon="2.30082">
        <ele>92.1</ele>
        <time>2023-02-01T13:44:44Z</time>
      </trkpt>
      <trkpt lat="49.77119" lon="2.30082">
        <ele>92.1</ele>
        <time>2023-02-01T13:44:46Z</time>
      </trkpt>
      <trkpt lat="49.77119" lon="2.30082">
        <ele>92.1</ele>
        <time>2023-02-01T13:44:47Z</time>
      </trkpt>
      <trkpt lat="49.77118" lon="2.30082">
        <ele>92.1</ele>
        <time>2023-02-01T13:44:48Z</time>
      </trkpt>
      <trkpt lat="49.77116" lon="2.30083">
        <ele>92.1</ele>
        <time>2023-02-01T13:44:49Z</time>
      </trkpt>
      <trkpt lat="49.77115" lon="2.30084">
        <ele>92.2</ele>
        <time>2023-02-01T13:44:50Z</time>
      </trkpt>
      <trkpt lat="49.77114" lon="2.30084">
        <ele>92.2</ele>
        <time>2023-02-01T13:44:51Z</time>
      </trkpt>
      <trkpt lat="49.77112" lon="2.30085">
        <ele>92.2</ele>
        <time>2023-02-01T13:44:52Z</time>
      </trkpt>
      <trkpt lat="49.77111" lon="2.30086">
        <ele>92.2</ele>
        <time>2023-02-01T13:44:53Z</time>
      </trkpt>
      <trkpt lat="49.7711" lon="2.30086">
        <ele>92.2</ele>
        <time>2023-02-01T13:44:55Z</time>
      </trkpt>
      <trkpt lat="49.7711" lon="2.30086">
        <ele>92.2</ele>
        <time>2023-02-01T13:44:56Z</time>
      </trkpt>
      <trkpt lat="49.77109" lon="2.30087">
        <ele>92.2</ele>
        <time>2023-02-01T13:44:57Z</time>
      </trkpt>
      <trkpt lat="49.77108" lon="2.30087">
        <ele>92.2</ele>
        <time>2023-02-01T13:44:58Z</time>
      </trkpt>
      <trkpt lat="49.77106" lon="2.30089">
        <ele>92.3</ele>
        <time>2023-02-01T13:45:00Z</time>
      </trkpt>
      <trkpt lat="49.77105" lon="2.30089">
        <ele>92.3</ele>
        <time>2023-02-01T13:45:01Z</time>
      </trkpt>
      <trkpt lat="49.77103" lon="2.3009">
        <ele>92.4</ele>
        <time>2023-02-01T13:45:02Z</time>
      </trkpt>
      <trkpt lat="49.77102" lon="2.30091">
        <ele>92.4</ele>
        <time>2023-02-01T13:45:03Z</time>
      </trkpt>
      <trkpt lat="49.77101" lon="2.30091">
        <ele>92.4</ele>
        <time>2023-02-01T13:45:04Z</time>
      </trkpt>
      <trkpt lat="49.77099" lon="2.30092">
        <ele>92.5</ele>
        <time>2023-02-01T13:45:05Z</time>
      </trkpt>
      <trkpt lat="49.77098" lon="2.30093">
        <ele>92.5</ele>
        <time>2023-02-01T13:45:06Z</time>
      </trkpt>
      <trkpt lat="49.77097" lon="2.30093">
        <ele>92.5</ele>
        <time>2023-02-01T13:45:07Z</time>
      </trkpt>
      <trkpt lat="49.77096" lon="2.30094">
        <ele>92.6</ele>
        <time>2023-02-01T13:45:08Z</time>
      </trkpt>
      <trkpt lat="49.77094" lon="2.30095">
        <ele>92.6</ele>
        <time>2023-02-01T13:45:10Z</time>
      </trkpt>
      <trkpt lat="49.77093" lon="2.30095">
        <ele>92.6</ele>
        <time>2023-02-01T13:45:11Z</time>
      </trkpt>
      <trkpt lat="49.77092" lon="2.30096">
        <ele>92.7</ele>
        <time>2023-02-01T13:45:12Z</time>
      </trkpt>
      <trkpt lat="49.7709" lon="2.30097">
        <ele>92.7</ele>
        <time>2023-02-01T13:45:13Z</time>
      </trkpt>
      <trkpt lat="49.77089" lon="2.30097">
        <ele>92.8</ele>
        <time>2023-02-01T13:45:14Z</time>
      </trkpt>
      <trkpt lat="49.77088" lon="2.30098">
        <ele>92.8</ele>
        <time>2023-02-01T13:45:15Z</time>
      </trkpt>
      <trkpt lat="49.77087" lon="2.30099">
        <ele>92.9</ele>
        <time>2023-02-01T13:45:16Z</time>
      </trkpt>
      <trkpt lat="49.77085" lon="2.30099">
        <ele>92.9</ele>
        <time>2023-02-01T13:45:17Z</time>
      </trkpt>
      <trkpt lat="49.77084" lon="2.30099">
        <ele>93</ele>
        <time>2023-02-01T13:45:19Z</time>
      </trkpt>
      <trkpt lat="49.77083" lon="2.301">
        <ele>93</ele>
        <time>2023-02-01T13:45:20Z</time>
      </trkpt>
      <trkpt lat="49.77082" lon="2.301">
        <ele>93</ele>
        <time>2023-02-01T13:45:21Z</time>
      </trkpt>
      <trkpt lat="49.7708" lon="2.30101">
        <ele>93.1</ele>
        <time>2023-02-01T13:45:22Z</time>
      </trkpt>
      <trkpt lat="49.77079" lon="2.30102">
        <ele>93.1</ele>
        <time>2023-02-01T13:45:23Z</time>
      </trkpt>
      <trkpt lat="49.77078" lon="2.30103">
        <ele>93.2</ele>
        <time>2023-02-01T13:45:24Z</time>
      </trkpt>
      <trkpt lat="49.77076" lon="2.30104">
        <ele>93.3</ele>
        <time>2023-02-01T13:45:25Z</time>
      </trkpt>
      <trkpt lat="49.77075" lon="2.30105">
        <ele>93.3</ele>
        <time>2023-02-01T13:45:26Z</time>
      </trkpt>
      <trkpt lat="49.77074" lon="2.30106">
        <ele>93.4</ele>
        <time>2023-02-01T13:45:28Z</time>
      </trkpt>
      <trkpt lat="49.77073" lon="2.30106">
        <ele>93.4</ele>
        <time>2023-02-01T13:45:29Z</time>
      </trkpt>
      <trkpt lat="49.77072" lon="2.30107">
        <ele>93.4</ele>
        <time>2023-02-01T13:45:30Z</time>
      </trkpt>
      <trkpt lat="49.77072" lon="2.30108">
        <ele>93.5</ele>
        <time>2023-02-01T13:45:31Z</time>
      </trkpt>
      <trkpt lat="49.77071" lon="2.30109">
        <ele>93.5</ele>
        <time>2023-02-01T13:45:32Z</time>
      </trkpt>
      <trkpt lat="49.7707" lon="2.30109">
        <ele>93.6</ele>
        <time>2023-02-01T13:45:33Z</time>
      </trkpt>
      <trkpt lat="49.77068" lon="2.3011">
        <ele>93.6</ele>
        <time>2023-02-01T13:45:34Z</time>
      </trkpt>
      <trkpt lat="49.77067" lon="2.30111">
        <ele>93.7</ele>
        <time>2023-02-01T13:45:35Z</time>
      </trkpt>
      <trkpt lat="49.77066" lon="2.30111">
        <ele>93.7</ele>
        <time>2023-02-01T13:45:36Z</time>
      </trkpt>
      <trkpt lat="49.77065" lon="2.30112">
        <ele>93.8</ele>
        <time>2023-02-01T13:45:37Z</time>
      </trkpt>
      <trkpt lat="49.77063" lon="2.30112">
        <ele>93.8</ele>
        <time>2023-02-01T13:45:39Z</time>
      </trkpt>
      <trkpt lat="49.77062" lon="2.30113">
        <ele>93.9</ele>
        <time>2023-02-01T13:45:40Z</time>
      </trkpt>
      <trkpt lat="49.7706" lon="2.30113">
        <ele>94</ele>
        <time>2023-02-01T13:45:41Z</time>
      </trkpt>
      <trkpt lat="49.7706" lon="2.30113">
        <ele>94</ele>
        <time>2023-02-01T13:45:42Z</time>
      </trkpt>
      <trkpt lat="49.77059" lon="2.30113">
        <ele>94</ele>
        <time>2023-02-01T13:45:43Z</time>
      </trkpt>
      <trkpt lat="49.77057" lon="2.30114">
        <ele>94.1</ele>
        <time>2023-02-01T13:45:45Z</time>
      </trkpt>
      <trkpt lat="49.77056" lon="2.30114">
        <ele>94.2</ele>
        <time>2023-02-01T13:45:46Z</time>
      </trkpt>
      <trkpt lat="49.77054" lon="2.30115">
        <ele>94.2</ele>
        <time>2023-02-01T13:45:47Z</time>
      </trkpt>
      <trkpt lat="49.77053" lon="2.30115">
        <ele>94.3</ele>
        <time>2023-02-01T13:45:48Z</time>
      </trkpt>
      <trkpt lat="49.77051" lon="2.30116">
        <ele>94.4</ele>
        <time>2023-02-01T13:45:49Z</time>
      </trkpt>
      <trkpt lat="49.7705" lon="2.30117">
        <ele>94.4</ele>
        <time>2023-02-01T13:45:50Z</time>
      </trkpt>
      <trkpt lat="49.77048" lon="2.30118">
        <ele>94.5</ele>
        <time>2023-02-01T13:45:52Z</time>
      </trkpt>
      <trkpt lat="49.77047" lon="2.30119">
        <ele>94.6</ele>
        <time>2023-02-01T13:45:53Z</time>
      </trkpt>
      <trkpt lat="49.77046" lon="2.30119">
        <ele>94.6</ele>
        <time>2023-02-01T13:45:54Z</time>
      </trkpt>
      <trkpt lat="49.77045" lon="2.3012">
        <ele>94.6</ele>
        <time>2023-02-01T13:45:55Z</time>
      </trkpt>
      <trkpt lat="49.77044" lon="2.3012">
        <ele>94.7</ele>
        <time>2023-02-01T13:45:56Z</time>
      </trkpt>
      <trkpt lat="49.77043" lon="2.30121">
        <ele>94.8</ele>
        <time>2023-02-01T13:45:57Z</time>
      </trkpt>
      <trkpt lat="49.77042" lon="2.30122">
        <ele>94.8</ele>
        <time>2023-02-01T13:45:58Z</time>
      </trkpt>
      <trkpt lat="49.7704" lon="2.30122">
        <ele>94.9</ele>
        <time>2023-02-01T13:45:59Z</time>
      </trkpt>
      <trkpt lat="49.77039" lon="2.30123">
        <ele>94.9</ele>
        <time>2023-02-01T13:46:01Z</time>
      </trkpt>
      <trkpt lat="49.77038" lon="2.30123">
        <ele>95</ele>
        <time>2023-02-01T13:46:02Z</time>
      </trkpt>
      <trkpt lat="49.77037" lon="2.30124">
        <ele>95</ele>
        <time>2023-02-01T13:46:03Z</time>
      </trkpt>
      <trkpt lat="49.77035" lon="2.30124">
        <ele>95.1</ele>
        <time>2023-02-01T13:46:04Z</time>
      </trkpt>
      <trkpt lat="49.77034" lon="2.30125">
        <ele>95.1</ele>
        <time>2023-02-01T13:46:05Z</time>
      </trkpt>
      <trkpt lat="49.77033" lon="2.30126">
        <ele>95.2</ele>
        <time>2023-02-01T13:46:06Z</time>
      </trkpt>
      <trkpt lat="49.77032" lon="2.30126">
        <ele>95.2</ele>
        <time>2023-02-01T13:46:07Z</time>
      </trkpt>
      <trkpt lat="49.77031" lon="2.30126">
        <ele>95.3</ele>
        <time>2023-02-01T13:46:08Z</time>
      </trkpt>
      <trkpt lat="49.7703" lon="2.30126">
        <ele>95.3</ele>
        <time>2023-02-01T13:46:10Z</time>
      </trkpt>
      <trkpt lat="49.77029" lon="2.30126">
        <ele>95.4</ele>
        <time>2023-02-01T13:46:11Z</time>
      </trkpt>
      <trkpt lat="49.77028" lon="2.30126">
        <ele>95.4</ele>
        <time>2023-02-01T13:46:12Z</time>
      </trkpt>
      <trkpt lat="49.77027" lon="2.30126">
        <ele>95.5</ele>
        <time>2023-02-01T13:46:13Z</time>
      </trkpt>
      <trkpt lat="49.77025" lon="2.30125">
        <ele>95.6</ele>
        <time>2023-02-01T13:46:14Z</time>
      </trkpt>
      <trkpt lat="49.77024" lon="2.30125">
        <ele>95.6</ele>
        <time>2023-02-01T13:46:15Z</time>
      </trkpt>
      <trkpt lat="49.77023" lon="2.30125">
        <ele>95.6</ele>
        <time>2023-02-01T13:46:16Z</time>
      </trkpt>
      <trkpt lat="49.77021" lon="2.30125">
        <ele>95.7</ele>
        <time>2023-02-01T13:46:17Z</time>
      </trkpt>
      <trkpt lat="49.7702" lon="2.30125">
        <ele>95.8</ele>
        <time>2023-02-01T13:46:19Z</time>
      </trkpt>
      <trkpt lat="49.77019" lon="2.30125">
        <ele>95.8</ele>
        <time>2023-02-01T13:46:20Z</time>
      </trkpt>
      <trkpt lat="49.77018" lon="2.30125">
        <ele>95.9</ele>
        <time>2023-02-01T13:46:21Z</time>
      </trkpt>
      <trkpt lat="49.77017" lon="2.30125">
        <ele>95.9</ele>
        <time>2023-02-01T13:46:22Z</time>
      </trkpt>
      <trkpt lat="49.77016" lon="2.30124">
        <ele>96</ele>
        <time>2023-02-01T13:46:23Z</time>
      </trkpt>
      <trkpt lat="49.77014" lon="2.30124">
        <ele>96.1</ele>
        <time>2023-02-01T13:46:24Z</time>
      </trkpt>
      <trkpt lat="49.77013" lon="2.30124">
        <ele>96.1</ele>
        <time>2023-02-01T13:46:26Z</time>
      </trkpt>
      <trkpt lat="49.77012" lon="2.30124">
        <ele>96.2</ele>
        <time>2023-02-01T13:46:27Z</time>
      </trkpt>
      <trkpt lat="49.77011" lon="2.30123">
        <ele>96.2</ele>
        <time>2023-02-01T13:46:28Z</time>
      </trkpt>
      <trkpt lat="49.7701" lon="2.30123">
        <ele>96.3</ele>
        <time>2023-02-01T13:46:29Z</time>
      </trkpt>
      <trkpt lat="49.77009" lon="2.30123">
        <ele>96.3</ele>
        <time>2023-02-01T13:46:30Z</time>
      </trkpt>
      <trkpt lat="49.77008" lon="2.30123">
        <ele>96.4</ele>
        <time>2023-02-01T13:46:31Z</time>
      </trkpt>
      <trkpt lat="49.77006" lon="2.30122">
        <ele>96.5</ele>
        <time>2023-02-01T13:46:32Z</time>
      </trkpt>
      <trkpt lat="49.77005" lon="2.30122">
        <ele>96.5</ele>
        <time>2023-02-01T13:46:34Z</time>
      </trkpt>
      <trkpt lat="49.77004" lon="2.30121">
        <ele>96.6</ele>
        <time>2023-02-01T13:46:35Z</time>
      </trkpt>
      <trkpt lat="49.77003" lon="2.30121">
        <ele>96.7</ele>
        <time>2023-02-01T13:46:36Z</time>
      </trkpt>
      <trkpt lat="49.77002" lon="2.30121">
        <ele>96.7</ele>
        <time>2023-02-01T13:46:37Z</time>
      </trkpt>
      <trkpt lat="49.77001" lon="2.3012">
        <ele>96.8</ele>
        <time>2023-02-01T13:46:38Z</time>
      </trkpt>
      <trkpt lat="49.76999" lon="2.3012">
        <ele>96.8</ele>
        <time>2023-02-01T13:46:39Z</time>
      </trkpt>
      <trkpt lat="49.76998" lon="2.3012">
        <ele>96.9</ele>
        <time>2023-02-01T13:46:41Z</time>
      </trkpt>
      <trkpt lat="49.76997" lon="2.3012">
        <ele>96.9</ele>
        <time>2023-02-01T13:46:42Z</time>
      </trkpt>
      <trkpt lat="49.76996" lon="2.3012">
        <ele>97</ele>
        <time>2023-02-01T13:46:43Z</time>
      </trkpt>
      <trkpt lat="49.76995" lon="2.30119">
        <ele>97</ele>
        <time>2023-02-01T13:46:44Z</time>
      </trkpt>
      <trkpt lat="49.76994" lon="2.30119">
        <ele>97.1</ele>
        <time>2023-02-01T13:46:45Z</time>
      </trkpt>
      <trkpt lat="49.76992" lon="2.30119">
        <ele>97.2</ele>
        <time>2023-02-01T13:46:46Z</time>
      </trkpt>
      <trkpt lat="49.76991" lon="2.30119">
        <ele>97.3</ele>
        <time>2023-02-01T13:46:47Z</time>
      </trkpt>
      <trkpt lat="49.7699" lon="2.30119">
        <ele>97.3</ele>
        <time>2023-02-01T13:46:49Z</time>
      </trkpt>
      <trkpt lat="49.76988" lon="2.30119">
        <ele>97.4</ele>
        <time>2023-02-01T13:46:50Z</time>
      </trkpt>
      <trkpt lat="49.76986" lon="2.30119">
        <ele>97.5</ele>
        <time>2023-02-01T13:46:51Z</time>
      </trkpt>
      <trkpt lat="49.76985" lon="2.3012">
        <ele>97.5</ele>
        <time>2023-02-01T13:46:52Z</time>
      </trkpt>
      <trkpt lat="49.76984" lon="2.3012">
        <ele>97.6</ele>
        <time>2023-02-01T13:46:53Z</time>
      </trkpt>
      <trkpt lat="49.76983" lon="2.3012">
        <ele>97.7</ele>
        <time>2023-02-01T13:46:54Z</time>
      </trkpt>
      <trkpt lat="49.76981" lon="2.3012">
        <ele>97.7</ele>
        <time>2023-02-01T13:46:56Z</time>
      </trkpt>
      <trkpt lat="49.7698" lon="2.3012">
        <ele>97.8</ele>
        <time>2023-02-01T13:46:57Z</time>
      </trkpt>
      <trkpt lat="49.76979" lon="2.3012">
        <ele>97.8</ele>
        <time>2023-02-01T13:46:58Z</time>
      </trkpt>
      <trkpt lat="49.76979" lon="2.30121">
        <ele>97.9</ele>
        <time>2023-02-01T13:46:59Z</time>
      </trkpt>
      <trkpt lat="49.76977" lon="2.30121">
        <ele>97.9</ele>
        <time>2023-02-01T13:47:00Z</time>
      </trkpt>
      <trkpt lat="49.76976" lon="2.30122">
        <ele>98</ele>
        <time>2023-02-01T13:47:01Z</time>
      </trkpt>
      <trkpt lat="49.76975" lon="2.30122">
        <ele>98</ele>
        <time>2023-02-01T13:47:02Z</time>
      </trkpt>
      <trkpt lat="49.76974" lon="2.30122">
        <ele>98.1</ele>
        <time>2023-02-01T13:47:03Z</time>
      </trkpt>
      <trkpt lat="49.76973" lon="2.30123">
        <ele>98.2</ele>
        <time>2023-02-01T13:47:05Z</time>
      </trkpt>
      <trkpt lat="49.76972" lon="2.30123">
        <ele>98.2</ele>
        <time>2023-02-01T13:47:06Z</time>
      </trkpt>
      <trkpt lat="49.76971" lon="2.30123">
        <ele>98.2</ele>
        <time>2023-02-01T13:47:07Z</time>
      </trkpt>
      <trkpt lat="49.7697" lon="2.30123">
        <ele>98.3</ele>
        <time>2023-02-01T13:47:08Z</time>
      </trkpt>
      <trkpt lat="49.7697" lon="2.30123">
        <ele>98.3</ele>
        <time>2023-02-01T13:47:09Z</time>
      </trkpt>
      <trkpt lat="49.76967" lon="2.30124">
        <ele>98.4</ele>
        <time>2023-02-01T13:47:10Z</time>
      </trkpt>
      <trkpt lat="49.76966" lon="2.30124">
        <ele>98.5</ele>
        <time>2023-02-01T13:47:12Z</time>
      </trkpt>
      <trkpt lat="49.76965" lon="2.30124">
        <ele>98.5</ele>
        <time>2023-02-01T13:47:13Z</time>
      </trkpt>
      <trkpt lat="49.76964" lon="2.30124">
        <ele>98.6</ele>
        <time>2023-02-01T13:47:14Z</time>
      </trkpt>
      <trkpt lat="49.76963" lon="2.30124">
        <ele>98.6</ele>
        <time>2023-02-01T13:47:15Z</time>
      </trkpt>
      <trkpt lat="49.76962" lon="2.30124">
        <ele>98.7</ele>
        <time>2023-02-01T13:47:16Z</time>
      </trkpt>
      <trkpt lat="49.76961" lon="2.30124">
        <ele>98.7</ele>
        <time>2023-02-01T13:47:17Z</time>
      </trkpt>
      <trkpt lat="49.7696" lon="2.30124">
        <ele>98.8</ele>
        <time>2023-02-01T13:47:19Z</time>
      </trkpt>
      <trkpt lat="49.76958" lon="2.30124">
        <ele>98.9</ele>
        <time>2023-02-01T13:47:20Z</time>
      </trkpt>
      <trkpt lat="49.76957" lon="2.30124">
        <ele>98.9</ele>
        <time>2023-02-01T13:47:21Z</time>
      </trkpt>
      <trkpt lat="49.76956" lon="2.30123">
        <ele>99</ele>
        <time>2023-02-01T13:47:22Z</time>
      </trkpt>
      <trkpt lat="49.76955" lon="2.30123">
        <ele>99</ele>
        <time>2023-02-01T13:47:23Z</time>
      </trkpt>
      <trkpt lat="49.76954" lon="2.30123">
        <ele>99.1</ele>
        <time>2023-02-01T13:47:24Z</time>
      </trkpt>
      <trkpt lat="49.76953" lon="2.30123">
        <ele>99.1</ele>
        <time>2023-02-01T13:47:26Z</time>
      </trkpt>
      <trkpt lat="49.76952" lon="2.30123">
        <ele>99.2</ele>
        <time>2023-02-01T13:47:27Z</time>
      </trkpt>
      <trkpt lat="49.76951" lon="2.30123">
        <ele>99.2</ele>
        <time>2023-02-01T13:47:28Z</time>
      </trkpt>
      <trkpt lat="49.7695" lon="2.30123">
        <ele>99.3</ele>
        <time>2023-02-01T13:47:29Z</time>
      </trkpt>
      <trkpt lat="49.76949" lon="2.30122">
        <ele>99.3</ele>
        <time>2023-02-01T13:47:30Z</time>
      </trkpt>
      <trkpt lat="49.76949" lon="2.30122">
        <ele>99.4</ele>
        <time>2023-02-01T13:47:32Z</time>
      </trkpt>
      <trkpt lat="49.76948" lon="2.30122">
        <ele>99.4</ele>
        <time>2023-02-01T13:47:33Z</time>
      </trkpt>
      <trkpt lat="49.76946" lon="2.30121">
        <ele>99.5</ele>
        <time>2023-02-01T13:47:35Z</time>
      </trkpt>
      <trkpt lat="49.76945" lon="2.30121">
        <ele>99.5</ele>
        <time>2023-02-01T13:47:36Z</time>
      </trkpt>
      <trkpt lat="49.76945" lon="2.30121">
        <ele>99.6</ele>
        <time>2023-02-01T13:47:37Z</time>
      </trkpt>
      <trkpt lat="49.76943" lon="2.30121">
        <ele>99.7</ele>
        <time>2023-02-01T13:47:38Z</time>
      </trkpt>
      <trkpt lat="49.76942" lon="2.30121">
        <ele>99.7</ele>
        <time>2023-02-01T13:47:39Z</time>
      </trkpt>
      <trkpt lat="49.76941" lon="2.30121">
        <ele>99.8</ele>
        <time>2023-02-01T13:47:41Z</time>
      </trkpt>
      <trkpt lat="49.7694" lon="2.30121">
        <ele>99.8</ele>
        <time>2023-02-01T13:47:42Z</time>
      </trkpt>
      <trkpt lat="49.7694" lon="2.30121">
        <ele>99.9</ele>
        <time>2023-02-01T13:47:43Z</time>
      </trkpt>
      <trkpt lat="49.76939" lon="2.30121">
        <ele>99.9</ele>
        <time>2023-02-01T13:47:44Z</time>
      </trkpt>
      <trkpt lat="49.76938" lon="2.30121">
        <ele>99.9</ele>
        <time>2023-02-01T13:47:45Z</time>
      </trkpt>
      <trkpt lat="49.76936" lon="2.30121">
        <ele>100</ele>
        <time>2023-02-01T13:47:46Z</time>
      </trkpt>
      <trkpt lat="49.76935" lon="2.30121">
        <ele>100.1</ele>
        <time>2023-02-01T13:47:47Z</time>
      </trkpt>
      <trkpt lat="49.76934" lon="2.30121">
        <ele>100.1</ele>
        <time>2023-02-01T13:47:48Z</time>
      </trkpt>
      <trkpt lat="49.76933" lon="2.30121">
        <ele>100.2</ele>
        <time>2023-02-01T13:47:49Z</time>
      </trkpt>
      <trkpt lat="49.76932" lon="2.30121">
        <ele>100.3</ele>
        <time>2023-02-01T13:47:51Z</time>
      </trkpt>
      <trkpt lat="49.76931" lon="2.30122">
        <ele>100.3</ele>
        <time>2023-02-01T13:47:52Z</time>
      </trkpt>
      <trkpt lat="49.76929" lon="2.30122">
        <ele>100.4</ele>
        <time>2023-02-01T13:47:53Z</time>
      </trkpt>
      <trkpt lat="49.76928" lon="2.30122">
        <ele>100.4</ele>
        <time>2023-02-01T13:47:54Z</time>
      </trkpt>
      <trkpt lat="49.76927" lon="2.30123">
        <ele>100.5</ele>
        <time>2023-02-01T13:47:55Z</time>
      </trkpt>
      <trkpt lat="49.76926" lon="2.30123">
        <ele>100.6</ele>
        <time>2023-02-01T13:47:56Z</time>
      </trkpt>
      <trkpt lat="49.76925" lon="2.30123">
        <ele>100.6</ele>
        <time>2023-02-01T13:47:57Z</time>
      </trkpt>
      <trkpt lat="49.76924" lon="2.30123">
        <ele>100.7</ele>
        <time>2023-02-01T13:47:59Z</time>
      </trkpt>
      <trkpt lat="49.76923" lon="2.30123">
        <ele>100.7</ele>
        <time>2023-02-01T13:48:00Z</time>
      </trkpt>
      <trkpt lat="49.76922" lon="2.30124">
        <ele>100.8</ele>
        <time>2023-02-01T13:48:01Z</time>
      </trkpt>
      <trkpt lat="49.76921" lon="2.30124">
        <ele>100.9</ele>
        <time>2023-02-01T13:48:02Z</time>
      </trkpt>
      <trkpt lat="49.7692" lon="2.30125">
        <ele>100.9</ele>
        <time>2023-02-01T13:48:03Z</time>
      </trkpt>
      <trkpt lat="49.76919" lon="2.30125">
        <ele>101</ele>
        <time>2023-02-01T13:48:04Z</time>
      </trkpt>
      <trkpt lat="49.76918" lon="2.30125">
        <ele>101.1</ele>
        <time>2023-02-01T13:48:05Z</time>
      </trkpt>
      <trkpt lat="49.76916" lon="2.30126">
        <ele>101.2</ele>
        <time>2023-02-01T13:48:07Z</time>
      </trkpt>
      <trkpt lat="49.76915" lon="2.30126">
        <ele>101.2</ele>
        <time>2023-02-01T13:48:08Z</time>
      </trkpt>
      <trkpt lat="49.76914" lon="2.30126">
        <ele>101.3</ele>
        <time>2023-02-01T13:48:09Z</time>
      </trkpt>
      <trkpt lat="49.76912" lon="2.30126">
        <ele>101.4</ele>
        <time>2023-02-01T13:48:10Z</time>
      </trkpt>
      <trkpt lat="49.76911" lon="2.30126">
        <ele>101.5</ele>
        <time>2023-02-01T13:48:11Z</time>
      </trkpt>
      <trkpt lat="49.7691" lon="2.30126">
        <ele>101.5</ele>
        <time>2023-02-01T13:48:12Z</time>
      </trkpt>
      <trkpt lat="49.76908" lon="2.30127">
        <ele>101.6</ele>
        <time>2023-02-01T13:48:13Z</time>
      </trkpt>
      <trkpt lat="49.76907" lon="2.30127">
        <ele>101.7</ele>
        <time>2023-02-01T13:48:15Z</time>
      </trkpt>
      <trkpt lat="49.76906" lon="2.30127">
        <ele>101.7</ele>
        <time>2023-02-01T13:48:16Z</time>
      </trkpt>
      <trkpt lat="49.76904" lon="2.30127">
        <ele>101.9</ele>
        <time>2023-02-01T13:48:17Z</time>
      </trkpt>
      <trkpt lat="49.76903" lon="2.30127">
        <ele>101.9</ele>
        <time>2023-02-01T13:48:18Z</time>
      </trkpt>
      <trkpt lat="49.76902" lon="2.30127">
        <ele>102</ele>
        <time>2023-02-01T13:48:19Z</time>
      </trkpt>
      <trkpt lat="49.769" lon="2.30127">
        <ele>102.1</ele>
        <time>2023-02-01T13:48:21Z</time>
      </trkpt>
      <trkpt lat="49.76899" lon="2.30127">
        <ele>102.2</ele>
        <time>2023-02-01T13:48:22Z</time>
      </trkpt>
      <trkpt lat="49.76898" lon="2.30127">
        <ele>102.2</ele>
        <time>2023-02-01T13:48:23Z</time>
      </trkpt>
      <trkpt lat="49.76896" lon="2.30126">
        <ele>102.3</ele>
        <time>2023-02-01T13:48:24Z</time>
      </trkpt>
      <trkpt lat="49.76896" lon="2.30126">
        <ele>102.4</ele>
        <time>2023-02-01T13:48:25Z</time>
      </trkpt>
      <trkpt lat="49.76895" lon="2.30126">
        <ele>102.4</ele>
        <time>2023-02-01T13:48:26Z</time>
      </trkpt>
      <trkpt lat="49.76894" lon="2.30126">
        <ele>102.5</ele>
        <time>2023-02-01T13:48:27Z</time>
      </trkpt>
      <trkpt lat="49.76892" lon="2.30126">
        <ele>102.6</ele>
        <time>2023-02-01T13:48:28Z</time>
      </trkpt>
      <trkpt lat="49.76891" lon="2.30125">
        <ele>102.7</ele>
        <time>2023-02-01T13:48:30Z</time>
      </trkpt>
      <trkpt lat="49.76889" lon="2.30125">
        <ele>102.8</ele>
        <time>2023-02-01T13:48:31Z</time>
      </trkpt>
      <trkpt lat="49.76888" lon="2.30125">
        <ele>102.9</ele>
        <time>2023-02-01T13:48:32Z</time>
      </trkpt>
      <trkpt lat="49.76887" lon="2.30125">
        <ele>102.9</ele>
        <time>2023-02-01T13:48:33Z</time>
      </trkpt>
      <trkpt lat="49.76885" lon="2.30125">
        <ele>103</ele>
        <time>2023-02-01T13:48:34Z</time>
      </trkpt>
      <trkpt lat="49.76884" lon="2.30125">
        <ele>103.1</ele>
        <time>2023-02-01T13:48:35Z</time>
      </trkpt>
      <trkpt lat="49.76882" lon="2.30125">
        <ele>103.2</ele>
        <time>2023-02-01T13:48:37Z</time>
      </trkpt>
      <trkpt lat="49.76881" lon="2.30125">
        <ele>103.3</ele>
        <time>2023-02-01T13:48:38Z</time>
      </trkpt>
      <trkpt lat="49.7688" lon="2.30125">
        <ele>103.4</ele>
        <time>2023-02-01T13:48:39Z</time>
      </trkpt>
      <trkpt lat="49.76879" lon="2.30125">
        <ele>103.4</ele>
        <time>2023-02-01T13:48:40Z</time>
      </trkpt>
      <trkpt lat="49.76878" lon="2.30125">
        <ele>103.5</ele>
        <time>2023-02-01T13:48:41Z</time>
      </trkpt>
      <trkpt lat="49.76877" lon="2.30125">
        <ele>103.6</ele>
        <time>2023-02-01T13:48:42Z</time>
      </trkpt>
      <trkpt lat="49.76875" lon="2.30125">
        <ele>103.7</ele>
        <time>2023-02-01T13:48:44Z</time>
      </trkpt>
      <trkpt lat="49.76874" lon="2.30125">
        <ele>103.7</ele>
        <time>2023-02-01T13:48:45Z</time>
      </trkpt>
      <trkpt lat="49.76872" lon="2.30125">
        <ele>103.9</ele>
        <time>2023-02-01T13:48:46Z</time>
      </trkpt>
      <trkpt lat="49.76871" lon="2.30125">
        <ele>103.9</ele>
        <time>2023-02-01T13:48:47Z</time>
      </trkpt>
      <trkpt lat="49.76871" lon="2.30125">
        <ele>104</ele>
        <time>2023-02-01T13:48:48Z</time>
      </trkpt>
      <trkpt lat="49.76869" lon="2.30125">
        <ele>104.1</ele>
        <time>2023-02-01T13:48:49Z</time>
      </trkpt>
      <trkpt lat="49.76868" lon="2.30124">
        <ele>104.2</ele>
        <time>2023-02-01T13:48:51Z</time>
      </trkpt>
      <trkpt lat="49.76867" lon="2.30124">
        <ele>104.2</ele>
        <time>2023-02-01T13:48:52Z</time>
      </trkpt>
      <trkpt lat="49.76866" lon="2.30125">
        <ele>104.3</ele>
        <time>2023-02-01T13:48:53Z</time>
      </trkpt>
      <trkpt lat="49.76866" lon="2.30125">
        <ele>104.3</ele>
        <time>2023-02-01T13:48:54Z</time>
      </trkpt>
      <trkpt lat="49.76865" lon="2.30126">
        <ele>104.4</ele>
        <time>2023-02-01T13:48:55Z</time>
      </trkpt>
      <trkpt lat="49.76863" lon="2.30126">
        <ele>104.5</ele>
        <time>2023-02-01T13:48:57Z</time>
      </trkpt>
      <trkpt lat="49.76862" lon="2.30126">
        <ele>104.6</ele>
        <time>2023-02-01T13:48:58Z</time>
      </trkpt>
      <trkpt lat="49.76862" lon="2.30126">
        <ele>104.6</ele>
        <time>2023-02-01T13:48:59Z</time>
      </trkpt>
      <trkpt lat="49.7686" lon="2.30126">
        <ele>104.8</ele>
        <time>2023-02-01T13:49:00Z</time>
      </trkpt>
      <trkpt lat="49.76859" lon="2.30126">
        <ele>104.9</ele>
        <time>2023-02-01T13:49:02Z</time>
      </trkpt>
      <trkpt lat="49.76858" lon="2.30126">
        <ele>104.9</ele>
        <time>2023-02-01T13:49:03Z</time>
      </trkpt>
      <trkpt lat="49.76857" lon="2.30126">
        <ele>105</ele>
        <time>2023-02-01T13:49:04Z</time>
      </trkpt>
      <trkpt lat="49.76856" lon="2.30126">
        <ele>105.1</ele>
        <time>2023-02-01T13:49:05Z</time>
      </trkpt>
      <trkpt lat="49.76855" lon="2.30125">
        <ele>105.2</ele>
        <time>2023-02-01T13:49:06Z</time>
      </trkpt>
      <trkpt lat="49.76854" lon="2.30125">
        <ele>105.2</ele>
        <time>2023-02-01T13:49:08Z</time>
      </trkpt>
      <trkpt lat="49.76853" lon="2.30125">
        <ele>105.3</ele>
        <time>2023-02-01T13:49:09Z</time>
      </trkpt>
      <trkpt lat="49.76852" lon="2.30125">
        <ele>105.4</ele>
        <time>2023-02-01T13:49:10Z</time>
      </trkpt>
      <trkpt lat="49.76852" lon="2.30126">
        <ele>105.4</ele>
        <time>2023-02-01T13:49:11Z</time>
      </trkpt>
      <trkpt lat="49.76851" lon="2.30126">
        <ele>105.5</ele>
        <time>2023-02-01T13:49:12Z</time>
      </trkpt>
      <trkpt lat="49.76851" lon="2.30126">
        <ele>105.5</ele>
        <time>2023-02-01T13:49:14Z</time>
      </trkpt>
      <trkpt lat="49.7685" lon="2.30126">
        <ele>105.6</ele>
        <time>2023-02-01T13:49:15Z</time>
      </trkpt>
      <trkpt lat="49.76849" lon="2.30126">
        <ele>105.7</ele>
        <time>2023-02-01T13:49:17Z</time>
      </trkpt>
      <trkpt lat="49.76848" lon="2.30127">
        <ele>105.7</ele>
        <time>2023-02-01T13:49:18Z</time>
      </trkpt>
      <trkpt lat="49.76847" lon="2.30127">
        <ele>105.8</ele>
        <time>2023-02-01T13:49:19Z</time>
      </trkpt>
      <trkpt lat="49.76846" lon="2.30127">
        <ele>105.9</ele>
        <time>2023-02-01T13:49:20Z</time>
      </trkpt>
      <trkpt lat="49.76845" lon="2.30128">
        <ele>106</ele>
        <time>2023-02-01T13:49:21Z</time>
      </trkpt>
      <trkpt lat="49.76844" lon="2.30128">
        <ele>106.1</ele>
        <time>2023-02-01T13:49:22Z</time>
      </trkpt>
      <trkpt lat="49.76843" lon="2.30129">
        <ele>106.2</ele>
        <time>2023-02-01T13:49:24Z</time>
      </trkpt>
      <trkpt lat="49.76842" lon="2.30129">
        <ele>106.3</ele>
        <time>2023-02-01T13:49:25Z</time>
      </trkpt>
      <trkpt lat="49.76841" lon="2.30129">
        <ele>106.3</ele>
        <time>2023-02-01T13:49:26Z</time>
      </trkpt>
      <trkpt lat="49.7684" lon="2.3013">
        <ele>106.4</ele>
        <time>2023-02-01T13:49:27Z</time>
      </trkpt>
      <trkpt lat="49.76838" lon="2.3013">
        <ele>106.6</ele>
        <time>2023-02-01T13:49:28Z</time>
      </trkpt>
      <trkpt lat="49.76837" lon="2.3013">
        <ele>106.7</ele>
        <time>2023-02-01T13:49:30Z</time>
      </trkpt>
      <trkpt lat="49.76836" lon="2.3013">
        <ele>106.7</ele>
        <time>2023-02-01T13:49:31Z</time>
      </trkpt>
      <trkpt lat="49.76835" lon="2.30131">
        <ele>106.9</ele>
        <time>2023-02-01T13:49:32Z</time>
      </trkpt>
      <trkpt lat="49.76834" lon="2.30132">
        <ele>106.9</ele>
        <time>2023-02-01T13:49:33Z</time>
      </trkpt>
      <trkpt lat="49.76833" lon="2.30132">
        <ele>107</ele>
        <time>2023-02-01T13:49:34Z</time>
      </trkpt>
      <trkpt lat="49.76832" lon="2.30133">
        <ele>107.1</ele>
        <time>2023-02-01T13:49:35Z</time>
      </trkpt>
      <trkpt lat="49.76831" lon="2.30133">
        <ele>107.2</ele>
        <time>2023-02-01T13:49:37Z</time>
      </trkpt>
      <trkpt lat="49.7683" lon="2.30134">
        <ele>107.3</ele>
        <time>2023-02-01T13:49:38Z</time>
      </trkpt>
      <trkpt lat="49.7683" lon="2.30134">
        <ele>107.3</ele>
        <time>2023-02-01T13:49:39Z</time>
      </trkpt>
      <trkpt lat="49.76829" lon="2.30134">
        <ele>107.4</ele>
        <time>2023-02-01T13:49:40Z</time>
      </trkpt>
      <trkpt lat="49.76828" lon="2.30134">
        <ele>107.5</ele>
        <time>2023-02-01T13:49:41Z</time>
      </trkpt>
      <trkpt lat="49.76827" lon="2.30135">
        <ele>107.6</ele>
        <time>2023-02-01T13:49:42Z</time>
      </trkpt>
      <trkpt lat="49.76826" lon="2.30134">
        <ele>107.7</ele>
        <time>2023-02-01T13:49:44Z</time>
      </trkpt>
      <trkpt lat="49.76825" lon="2.30134">
        <ele>107.7</ele>
        <time>2023-02-01T13:49:45Z</time>
      </trkpt>
      <trkpt lat="49.76824" lon="2.30135">
        <ele>107.8</ele>
        <time>2023-02-01T13:49:46Z</time>
      </trkpt>
      <trkpt lat="49.76823" lon="2.30135">
        <ele>107.9</ele>
        <time>2023-02-01T13:49:47Z</time>
      </trkpt>
      <trkpt lat="49.76822" lon="2.30135">
        <ele>108</ele>
        <time>2023-02-01T13:49:48Z</time>
      </trkpt>
      <trkpt lat="49.76821" lon="2.30135">
        <ele>108.1</ele>
        <time>2023-02-01T13:49:50Z</time>
      </trkpt>
      <trkpt lat="49.7682" lon="2.30136">
        <ele>108.1</ele>
        <time>2023-02-01T13:49:51Z</time>
      </trkpt>
      <trkpt lat="49.7682" lon="2.30136">
        <ele>108.2</ele>
        <time>2023-02-01T13:49:52Z</time>
      </trkpt>
      <trkpt lat="49.76819" lon="2.30136">
        <ele>108.3</ele>
        <time>2023-02-01T13:49:53Z</time>
      </trkpt>
      <trkpt lat="49.76818" lon="2.30137">
        <ele>108.4</ele>
        <time>2023-02-01T13:49:54Z</time>
      </trkpt>
      <trkpt lat="49.76817" lon="2.30137">
        <ele>108.4</ele>
        <time>2023-02-01T13:49:55Z</time>
      </trkpt>
      <trkpt lat="49.76816" lon="2.30138">
        <ele>108.5</ele>
        <time>2023-02-01T13:49:56Z</time>
      </trkpt>
      <trkpt lat="49.76815" lon="2.30139">
        <ele>108.7</ele>
        <time>2023-02-01T13:49:58Z</time>
      </trkpt>
      <trkpt lat="49.76814" lon="2.30139">
        <ele>108.7</ele>
        <time>2023-02-01T13:50:00Z</time>
      </trkpt>
      <trkpt lat="49.76813" lon="2.3014">
        <ele>108.8</ele>
        <time>2023-02-01T13:50:01Z</time>
      </trkpt>
      <trkpt lat="49.76813" lon="2.3014">
        <ele>108.9</ele>
        <time>2023-02-01T13:50:02Z</time>
      </trkpt>
      <trkpt lat="49.76812" lon="2.30141">
        <ele>108.9</ele>
        <time>2023-02-01T13:50:03Z</time>
      </trkpt>
      <trkpt lat="49.76812" lon="2.30141">
        <ele>109</ele>
        <time>2023-02-01T13:50:04Z</time>
      </trkpt>
      <trkpt lat="49.76811" lon="2.30141">
        <ele>109.1</ele>
        <time>2023-02-01T13:50:05Z</time>
      </trkpt>
      <trkpt lat="49.7681" lon="2.30142">
        <ele>109.1</ele>
        <time>2023-02-01T13:50:07Z</time>
      </trkpt>
      <trkpt lat="49.76809" lon="2.30142">
        <ele>109.2</ele>
        <time>2023-02-01T13:50:08Z</time>
      </trkpt>
      <trkpt lat="49.76809" lon="2.30142">
        <ele>109.2</ele>
        <time>2023-02-01T13:50:09Z</time>
      </trkpt>
      <trkpt lat="49.76808" lon="2.30143">
        <ele>109.3</ele>
        <time>2023-02-01T13:50:11Z</time>
      </trkpt>
      <trkpt lat="49.76808" lon="2.30143">
        <ele>109.3</ele>
        <time>2023-02-01T13:50:12Z</time>
      </trkpt>
      <trkpt lat="49.76807" lon="2.30143">
        <ele>109.4</ele>
        <time>2023-02-01T13:50:14Z</time>
      </trkpt>
      <trkpt lat="49.76807" lon="2.30144">
        <ele>109.4</ele>
        <time>2023-02-01T13:50:15Z</time>
      </trkpt>
      <trkpt lat="49.76806" lon="2.30144">
        <ele>109.5</ele>
        <time>2023-02-01T13:50:16Z</time>
      </trkpt>
      <trkpt lat="49.76805" lon="2.30145">
        <ele>109.6</ele>
        <time>2023-02-01T13:50:18Z</time>
      </trkpt>
      <trkpt lat="49.76805" lon="2.30145">
        <ele>109.6</ele>
        <time>2023-02-01T13:50:19Z</time>
      </trkpt>
      <trkpt lat="49.76804" lon="2.30145">
        <ele>109.7</ele>
        <time>2023-02-01T13:50:20Z</time>
      </trkpt>
      <trkpt lat="49.76803" lon="2.30146">
        <ele>109.8</ele>
        <time>2023-02-01T13:50:22Z</time>
      </trkpt>
      <trkpt lat="49.76802" lon="2.30146">
        <ele>109.8</ele>
        <time>2023-02-01T13:50:23Z</time>
      </trkpt>
      <trkpt lat="49.76802" lon="2.30146">
        <ele>109.9</ele>
        <time>2023-02-01T13:50:24Z</time>
      </trkpt>
      <trkpt lat="49.76801" lon="2.30147">
        <ele>109.9</ele>
        <time>2023-02-01T13:50:25Z</time>
      </trkpt>
      <trkpt lat="49.76801" lon="2.30148">
        <ele>110</ele>
        <time>2023-02-01T13:50:26Z</time>
      </trkpt>
      <trkpt lat="49.768" lon="2.30148">
        <ele>110</ele>
        <time>2023-02-01T13:50:27Z</time>
      </trkpt>
      <trkpt lat="49.76799" lon="2.30149">
        <ele>110.1</ele>
        <time>2023-02-01T13:50:29Z</time>
      </trkpt>
      <trkpt lat="49.76798" lon="2.3015">
        <ele>110.2</ele>
        <time>2023-02-01T13:50:30Z</time>
      </trkpt>
      <trkpt lat="49.76797" lon="2.3015">
        <ele>110.3</ele>
        <time>2023-02-01T13:50:32Z</time>
      </trkpt>
      <trkpt lat="49.76796" lon="2.30151">
        <ele>110.4</ele>
        <time>2023-02-01T13:50:33Z</time>
      </trkpt>
      <trkpt lat="49.76795" lon="2.30151">
        <ele>110.4</ele>
        <time>2023-02-01T13:50:34Z</time>
      </trkpt>
      <trkpt lat="49.76794" lon="2.30151">
        <ele>110.5</ele>
        <time>2023-02-01T13:50:35Z</time>
      </trkpt>
      <trkpt lat="49.76792" lon="2.30152">
        <ele>110.6</ele>
        <time>2023-02-01T13:50:36Z</time>
      </trkpt>
      <trkpt lat="49.76791" lon="2.30153">
        <ele>110.7</ele>
        <time>2023-02-01T13:50:37Z</time>
      </trkpt>
      <trkpt lat="49.76789" lon="2.30153">
        <ele>110.8</ele>
        <time>2023-02-01T13:50:39Z</time>
      </trkpt>
      <trkpt lat="49.76788" lon="2.30154">
        <ele>110.9</ele>
        <time>2023-02-01T13:50:40Z</time>
      </trkpt>
      <trkpt lat="49.76787" lon="2.30155">
        <ele>111</ele>
        <time>2023-02-01T13:50:41Z</time>
      </trkpt>
      <trkpt lat="49.76785" lon="2.30155">
        <ele>111.1</ele>
        <time>2023-02-01T13:50:42Z</time>
      </trkpt>
      <trkpt lat="49.76784" lon="2.30156">
        <ele>111.3</ele>
        <time>2023-02-01T13:50:43Z</time>
      </trkpt>
      <trkpt lat="49.76782" lon="2.30157">
        <ele>111.4</ele>
        <time>2023-02-01T13:50:44Z</time>
      </trkpt>
      <trkpt lat="49.76781" lon="2.30158">
        <ele>111.5</ele>
        <time>2023-02-01T13:50:46Z</time>
      </trkpt>
      <trkpt lat="49.7678" lon="2.30159">
        <ele>111.6</ele>
        <time>2023-02-01T13:50:47Z</time>
      </trkpt>
      <trkpt lat="49.76779" lon="2.30159">
        <ele>111.7</ele>
        <time>2023-02-01T13:50:48Z</time>
      </trkpt>
      <trkpt lat="49.76778" lon="2.3016">
        <ele>111.7</ele>
        <time>2023-02-01T13:50:49Z</time>
      </trkpt>
      <trkpt lat="49.76776" lon="2.30161">
        <ele>111.8</ele>
        <time>2023-02-01T13:50:50Z</time>
      </trkpt>
      <trkpt lat="49.76775" lon="2.30161">
        <ele>111.9</ele>
        <time>2023-02-01T13:50:51Z</time>
      </trkpt>
      <trkpt lat="49.76774" lon="2.30162">
        <ele>112</ele>
        <time>2023-02-01T13:50:53Z</time>
      </trkpt>
      <trkpt lat="49.76774" lon="2.30162">
        <ele>112</ele>
        <time>2023-02-01T13:50:54Z</time>
      </trkpt>
      <trkpt lat="49.76773" lon="2.30163">
        <ele>112.1</ele>
        <time>2023-02-01T13:50:55Z</time>
      </trkpt>
      <trkpt lat="49.76772" lon="2.30163">
        <ele>112.2</ele>
        <time>2023-02-01T13:50:56Z</time>
      </trkpt>
      <trkpt lat="49.76771" lon="2.30164">
        <ele>112.2</ele>
        <time>2023-02-01T13:50:57Z</time>
      </trkpt>
      <trkpt lat="49.76769" lon="2.30165">
        <ele>112.4</ele>
        <time>2023-02-01T13:50:58Z</time>
      </trkpt>
      <trkpt lat="49.76768" lon="2.30165">
        <ele>112.5</ele>
        <time>2023-02-01T13:51:00Z</time>
      </trkpt>
      <trkpt lat="49.76767" lon="2.30166">
        <ele>112.5</ele>
        <time>2023-02-01T13:51:01Z</time>
      </trkpt>
      <trkpt lat="49.76766" lon="2.30166">
        <ele>112.6</ele>
        <time>2023-02-01T13:51:02Z</time>
      </trkpt>
      <trkpt lat="49.76765" lon="2.30167">
        <ele>112.7</ele>
        <time>2023-02-01T13:51:03Z</time>
      </trkpt>
      <trkpt lat="49.76763" lon="2.30167">
        <ele>112.8</ele>
        <time>2023-02-01T13:51:04Z</time>
      </trkpt>
      <trkpt lat="49.76762" lon="2.30168">
        <ele>112.9</ele>
        <time>2023-02-01T13:51:05Z</time>
      </trkpt>
      <trkpt lat="49.76761" lon="2.30168">
        <ele>113</ele>
        <time>2023-02-01T13:51:06Z</time>
      </trkpt>
      <trkpt lat="49.7676" lon="2.30169">
        <ele>113.1</ele>
        <time>2023-02-01T13:51:08Z</time>
      </trkpt>
      <trkpt lat="49.76758" lon="2.3017">
        <ele>113.2</ele>
        <time>2023-02-01T13:51:09Z</time>
      </trkpt>
      <trkpt lat="49.76757" lon="2.3017">
        <ele>113.3</ele>
        <time>2023-02-01T13:51:10Z</time>
      </trkpt>
      <trkpt lat="49.76756" lon="2.30171">
        <ele>113.4</ele>
        <time>2023-02-01T13:51:11Z</time>
      </trkpt>
      <trkpt lat="49.76755" lon="2.30171">
        <ele>113.5</ele>
        <time>2023-02-01T13:51:12Z</time>
      </trkpt>
      <trkpt lat="49.76753" lon="2.30172">
        <ele>113.6</ele>
        <time>2023-02-01T13:51:13Z</time>
      </trkpt>
      <trkpt lat="49.76752" lon="2.30172">
        <ele>113.8</ele>
        <time>2023-02-01T13:51:14Z</time>
      </trkpt>
      <trkpt lat="49.7675" lon="2.30173">
        <ele>113.9</ele>
        <time>2023-02-01T13:51:16Z</time>
      </trkpt>
      <trkpt lat="49.76748" lon="2.30173">
        <ele>114.1</ele>
        <time>2023-02-01T13:51:17Z</time>
      </trkpt>
      <trkpt lat="49.76746" lon="2.30174">
        <ele>114.2</ele>
        <time>2023-02-01T13:51:19Z</time>
      </trkpt>
      <trkpt lat="49.76744" lon="2.30174">
        <ele>114.4</ele>
        <time>2023-02-01T13:51:20Z</time>
      </trkpt>
      <trkpt lat="49.76743" lon="2.30175">
        <ele>114.5</ele>
        <time>2023-02-01T13:51:21Z</time>
      </trkpt>
      <trkpt lat="49.76742" lon="2.30175">
        <ele>114.6</ele>
        <time>2023-02-01T13:51:22Z</time>
      </trkpt>
      <trkpt lat="49.7674" lon="2.30176">
        <ele>114.7</ele>
        <time>2023-02-01T13:51:24Z</time>
      </trkpt>
      <trkpt lat="49.76739" lon="2.30176">
        <ele>114.8</ele>
        <time>2023-02-01T13:51:25Z</time>
      </trkpt>
      <trkpt lat="49.76738" lon="2.30176">
        <ele>114.9</ele>
        <time>2023-02-01T13:51:26Z</time>
      </trkpt>
      <trkpt lat="49.76737" lon="2.30176">
        <ele>115</ele>
        <time>2023-02-01T13:51:27Z</time>
      </trkpt>
      <trkpt lat="49.76735" lon="2.30176">
        <ele>115.2</ele>
        <time>2023-02-01T13:51:28Z</time>
      </trkpt>
      <trkpt lat="49.76734" lon="2.30177">
        <ele>115.3</ele>
        <time>2023-02-01T13:51:30Z</time>
      </trkpt>
      <trkpt lat="49.76733" lon="2.30177">
        <ele>115.3</ele>
        <time>2023-02-01T13:51:31Z</time>
      </trkpt>
      <trkpt lat="49.76732" lon="2.30177">
        <ele>115.4</ele>
        <time>2023-02-01T13:51:32Z</time>
      </trkpt>
      <trkpt lat="49.76731" lon="2.30177">
        <ele>115.6</ele>
        <time>2023-02-01T13:51:33Z</time>
      </trkpt>
      <trkpt lat="49.76729" lon="2.30177">
        <ele>115.7</ele>
        <time>2023-02-01T13:51:35Z</time>
      </trkpt>
      <trkpt lat="49.76728" lon="2.30176">
        <ele>115.8</ele>
        <time>2023-02-01T13:51:36Z</time>
      </trkpt>
      <trkpt lat="49.76727" lon="2.30176">
        <ele>115.8</ele>
        <time>2023-02-01T13:51:37Z</time>
      </trkpt>
      <trkpt lat="49.76726" lon="2.30176">
        <ele>116</ele>
        <time>2023-02-01T13:51:38Z</time>
      </trkpt>
      <trkpt lat="49.76725" lon="2.30176">
        <ele>116.1</ele>
        <time>2023-02-01T13:51:39Z</time>
      </trkpt>
      <trkpt lat="49.76724" lon="2.30176">
        <ele>116.2</ele>
        <time>2023-02-01T13:51:40Z</time>
      </trkpt>
      <trkpt lat="49.76722" lon="2.30176">
        <ele>116.3</ele>
        <time>2023-02-01T13:51:42Z</time>
      </trkpt>
      <trkpt lat="49.76721" lon="2.30176">
        <ele>116.4</ele>
        <time>2023-02-01T13:51:43Z</time>
      </trkpt>
      <trkpt lat="49.7672" lon="2.30176">
        <ele>116.5</ele>
        <time>2023-02-01T13:51:44Z</time>
      </trkpt>
      <trkpt lat="49.76719" lon="2.30176">
        <ele>116.6</ele>
        <time>2023-02-01T13:51:45Z</time>
      </trkpt>
      <trkpt lat="49.76718" lon="2.30176">
        <ele>116.6</ele>
        <time>2023-02-01T13:51:46Z</time>
      </trkpt>
      <trkpt lat="49.76717" lon="2.30176">
        <ele>116.7</ele>
        <time>2023-02-01T13:51:47Z</time>
      </trkpt>
      <trkpt lat="49.76716" lon="2.30176">
        <ele>116.8</ele>
        <time>2023-02-01T13:51:48Z</time>
      </trkpt>
      <trkpt lat="49.76715" lon="2.30176">
        <ele>116.9</ele>
        <time>2023-02-01T13:51:50Z</time>
      </trkpt>
      <trkpt lat="49.76714" lon="2.30176">
        <ele>117</ele>
        <time>2023-02-01T13:51:51Z</time>
      </trkpt>
      <trkpt lat="49.76714" lon="2.30177">
        <ele>117</ele>
        <time>2023-02-01T13:51:52Z</time>
      </trkpt>
      <trkpt lat="49.76713" lon="2.30177">
        <ele>117.1</ele>
        <time>2023-02-01T13:51:53Z</time>
      </trkpt>
      <trkpt lat="49.76712" lon="2.30177">
        <ele>117.2</ele>
        <time>2023-02-01T13:51:55Z</time>
      </trkpt>
      <trkpt lat="49.76711" lon="2.30178">
        <ele>117.3</ele>
        <time>2023-02-01T13:51:56Z</time>
      </trkpt>
      <trkpt lat="49.7671" lon="2.30179">
        <ele>117.4</ele>
        <time>2023-02-01T13:51:57Z</time>
      </trkpt>
      <trkpt lat="49.76709" lon="2.30179">
        <ele>117.5</ele>
        <time>2023-02-01T13:51:58Z</time>
      </trkpt>
      <trkpt lat="49.76708" lon="2.3018">
        <ele>117.6</ele>
        <time>2023-02-01T13:52:00Z</time>
      </trkpt>
      <trkpt lat="49.76706" lon="2.30181">
        <ele>117.7</ele>
        <time>2023-02-01T13:52:01Z</time>
      </trkpt>
      <trkpt lat="49.76705" lon="2.30181">
        <ele>117.9</ele>
        <time>2023-02-01T13:52:02Z</time>
      </trkpt>
      <trkpt lat="49.76704" lon="2.30182">
        <ele>118</ele>
        <time>2023-02-01T13:52:03Z</time>
      </trkpt>
      <trkpt lat="49.76702" lon="2.30182">
        <ele>118.2</ele>
        <time>2023-02-01T13:52:05Z</time>
      </trkpt>
      <trkpt lat="49.76701" lon="2.30182">
        <ele>118.3</ele>
        <time>2023-02-01T13:52:06Z</time>
      </trkpt>
      <trkpt lat="49.76699" lon="2.30183">
        <ele>118.5</ele>
        <time>2023-02-01T13:52:08Z</time>
      </trkpt>
      <trkpt lat="49.76697" lon="2.30183">
        <ele>118.6</ele>
        <time>2023-02-01T13:52:09Z</time>
      </trkpt>
      <trkpt lat="49.76696" lon="2.30183">
        <ele>118.8</ele>
        <time>2023-02-01T13:52:10Z</time>
      </trkpt>
      <trkpt lat="49.76694" lon="2.30183">
        <ele>119</ele>
        <time>2023-02-01T13:52:12Z</time>
      </trkpt>
      <trkpt lat="49.76692" lon="2.30184">
        <ele>119.1</ele>
        <time>2023-02-01T13:52:13Z</time>
      </trkpt>
      <trkpt lat="49.76691" lon="2.30184">
        <ele>119.3</ele>
        <time>2023-02-01T13:52:15Z</time>
      </trkpt>
      <trkpt lat="49.76689" lon="2.30185">
        <ele>119.5</ele>
        <time>2023-02-01T13:52:16Z</time>
      </trkpt>
      <trkpt lat="49.76688" lon="2.30186">
        <ele>119.6</ele>
        <time>2023-02-01T13:52:18Z</time>
      </trkpt>
      <trkpt lat="49.76687" lon="2.30186">
        <ele>119.7</ele>
        <time>2023-02-01T13:52:19Z</time>
      </trkpt>
      <trkpt lat="49.76686" lon="2.30187">
        <ele>119.7</ele>
        <time>2023-02-01T13:52:20Z</time>
      </trkpt>
      <trkpt lat="49.76686" lon="2.30188">
        <ele>119.8</ele>
        <time>2023-02-01T13:52:21Z</time>
      </trkpt>
      <trkpt lat="49.76685" lon="2.30189">
        <ele>119.9</ele>
        <time>2023-02-01T13:52:22Z</time>
      </trkpt>
      <trkpt lat="49.76684" lon="2.30191">
        <ele>120.1</ele>
        <time>2023-02-01T13:52:24Z</time>
      </trkpt>
      <trkpt lat="49.76684" lon="2.30193">
        <ele>120.3</ele>
        <time>2023-02-01T13:52:26Z</time>
      </trkpt>
      <trkpt lat="49.76684" lon="2.30194">
        <ele>120.3</ele>
        <time>2023-02-01T13:52:27Z</time>
      </trkpt>
      <trkpt lat="49.76683" lon="2.30195">
        <ele>120.3</ele>
        <time>2023-02-01T13:52:28Z</time>
      </trkpt>
      <trkpt lat="49.76683" lon="2.30197">
        <ele>120.4</ele>
        <time>2023-02-01T13:52:29Z</time>
      </trkpt>
      <trkpt lat="49.76683" lon="2.30199">
        <ele>120.4</ele>
        <time>2023-02-01T13:52:30Z</time>
      </trkpt>
      <trkpt lat="49.76684" lon="2.30202">
        <ele>120.5</ele>
        <time>2023-02-01T13:52:32Z</time>
      </trkpt>
      <trkpt lat="49.76684" lon="2.30203">
        <ele>120.6</ele>
        <time>2023-02-01T13:52:34Z</time>
      </trkpt>
      <trkpt lat="49.76684" lon="2.30205">
        <ele>120.6</ele>
        <time>2023-02-01T13:52:35Z</time>
      </trkpt>
      <trkpt lat="49.76684" lon="2.30206">
        <ele>120.6</ele>
        <time>2023-02-01T13:52:36Z</time>
      </trkpt>
      <trkpt lat="49.76684" lon="2.30207">
        <ele>120.7</ele>
        <time>2023-02-01T13:52:37Z</time>
      </trkpt>
      <trkpt lat="49.76684" lon="2.30208">
        <ele>120.7</ele>
        <time>2023-02-01T13:52:38Z</time>
      </trkpt>
      <trkpt lat="49.76685" lon="2.30209">
        <ele>120.8</ele>
        <time>2023-02-01T13:52:39Z</time>
      </trkpt>
      <trkpt lat="49.76685" lon="2.30211">
        <ele>120.8</ele>
        <time>2023-02-01T13:52:41Z</time>
      </trkpt>
      <trkpt lat="49.76685" lon="2.30211">
        <ele>120.8</ele>
        <time>2023-02-01T13:52:42Z</time>
      </trkpt>
      <trkpt lat="49.76685" lon="2.30212">
        <ele>120.8</ele>
        <time>2023-02-01T13:52:43Z</time>
      </trkpt>
      <trkpt lat="49.76685" lon="2.30212">
        <ele>120.8</ele>
        <time>2023-02-01T13:52:44Z</time>
      </trkpt>
      <trkpt lat="49.76685" lon="2.30213">
        <ele>120.9</ele>
        <time>2023-02-01T13:52:45Z</time>
      </trkpt>
      <trkpt lat="49.76685" lon="2.30215">
        <ele>120.9</ele>
        <time>2023-02-01T13:52:47Z</time>
      </trkpt>
      <trkpt lat="49.76684" lon="2.30216">
        <ele>121</ele>
        <time>2023-02-01T13:52:49Z</time>
      </trkpt>
      <trkpt lat="49.76684" lon="2.30217">
        <ele>121</ele>
        <time>2023-02-01T13:52:50Z</time>
      </trkpt>
      <trkpt lat="49.76684" lon="2.30218">
        <ele>121</ele>
        <time>2023-02-01T13:52:51Z</time>
      </trkpt>
      <trkpt lat="49.76683" lon="2.3022">
        <ele>121.1</ele>
        <time>2023-02-01T13:52:52Z</time>
      </trkpt>
      <trkpt lat="49.76683" lon="2.30221">
        <ele>121.1</ele>
        <time>2023-02-01T13:52:53Z</time>
      </trkpt>
      <trkpt lat="49.76683" lon="2.30224">
        <ele>121.2</ele>
        <time>2023-02-01T13:52:55Z</time>
      </trkpt>
      <trkpt lat="49.76683" lon="2.30225">
        <ele>121.2</ele>
        <time>2023-02-01T13:52:56Z</time>
      </trkpt>
      <trkpt lat="49.76682" lon="2.30226">
        <ele>121.3</ele>
        <time>2023-02-01T13:52:57Z</time>
      </trkpt>
      <trkpt lat="49.76682" lon="2.30228">
        <ele>121.3</ele>
        <time>2023-02-01T13:52:58Z</time>
      </trkpt>
      <trkpt lat="49.76682" lon="2.30228">
        <ele>121.3</ele>
        <time>2023-02-01T13:52:59Z</time>
      </trkpt>
      <trkpt lat="49.76681" lon="2.3023">
        <ele>121.4</ele>
        <time>2023-02-01T13:53:01Z</time>
      </trkpt>
      <trkpt lat="49.76681" lon="2.30232">
        <ele>121.4</ele>
        <time>2023-02-01T13:53:02Z</time>
      </trkpt>
      <trkpt lat="49.76681" lon="2.30232">
        <ele>121.5</ele>
        <time>2023-02-01T13:53:03Z</time>
      </trkpt>
      <trkpt lat="49.76681" lon="2.30234">
        <ele>121.5</ele>
        <time>2023-02-01T13:53:05Z</time>
      </trkpt>
      <trkpt lat="49.76681" lon="2.30235">
        <ele>121.5</ele>
        <time>2023-02-01T13:53:06Z</time>
      </trkpt>
      <trkpt lat="49.76681" lon="2.30236">
        <ele>121.6</ele>
        <time>2023-02-01T13:53:08Z</time>
      </trkpt>
      <trkpt lat="49.76681" lon="2.30236">
        <ele>121.6</ele>
        <time>2023-02-01T13:53:09Z</time>
      </trkpt>
      <trkpt lat="49.76681" lon="2.30236">
        <ele>121.6</ele>
        <time>2023-02-01T13:53:10Z</time>
      </trkpt>
      <trkpt lat="49.76682" lon="2.30236">
        <ele>121.6</ele>
        <time>2023-02-01T13:53:12Z</time>
      </trkpt>
      <trkpt lat="49.76682" lon="2.30236">
        <ele>121.6</ele>
        <time>2023-02-01T13:53:13Z</time>
      </trkpt>
      <trkpt lat="49.76682" lon="2.30236">
        <ele>121.6</ele>
        <time>2023-02-01T13:53:14Z</time>
      </trkpt>
      <trkpt lat="49.76682" lon="2.30236">
        <ele>121.6</ele>
        <time>2023-02-01T13:53:16Z</time>
      </trkpt>
      <trkpt lat="49.76682" lon="2.30236">
        <ele>121.6</ele>
        <time>2023-02-01T13:53:17Z</time>
      </trkpt>
      <trkpt lat="49.76682" lon="2.30236">
        <ele>121.6</ele>
        <time>2023-02-01T13:53:19Z</time>
      </trkpt>
      <trkpt lat="49.76682" lon="2.30236">
        <ele>121.6</ele>
        <time>2023-02-01T13:53:20Z</time>
      </trkpt>
      <trkpt lat="49.76682" lon="2.30236">
        <ele>121.6</ele>
        <time>2023-02-01T13:53:21Z</time>
      </trkpt>
      <trkpt lat="49.76682" lon="2.30235">
        <ele>121.6</ele>
        <time>2023-02-01T13:53:22Z</time>
      </trkpt>
      <trkpt lat="49.76682" lon="2.30235">
        <ele>121.6</ele>
        <time>2023-02-01T13:53:23Z</time>
      </trkpt>
      <trkpt lat="49.76682" lon="2.30235">
        <ele>121.6</ele>
        <time>2023-02-01T13:53:24Z</time>
      </trkpt>
      <trkpt lat="49.76682" lon="2.30234">
        <ele>121.6</ele>
        <time>2023-02-01T13:53:25Z</time>
      </trkpt>
      <trkpt lat="49.76682" lon="2.30234">
        <ele>121.6</ele>
        <time>2023-02-01T13:53:26Z</time>
      </trkpt>
      <trkpt lat="49.76682" lon="2.30234">
        <ele>121.6</ele>
        <time>2023-02-01T13:53:27Z</time>
      </trkpt>
      <trkpt lat="49.76682" lon="2.30234">
        <ele>121.6</ele>
        <time>2023-02-01T13:53:28Z</time>
      </trkpt>
      <trkpt lat="49.76682" lon="2.30234">
        <ele>121.6</ele>
        <time>2023-02-01T13:53:29Z</time>
      </trkpt>
      <trkpt lat="49.76682" lon="2.30234">
        <ele>121.6</ele>
        <time>2023-02-01T13:53:30Z</time>
      </trkpt>
      <trkpt lat="49.76682" lon="2.30234">
        <ele>121.6</ele>
        <time>2023-02-01T13:53:31Z</time>
      </trkpt>
      <trkpt lat="49.76682" lon="2.30234">
        <ele>121.6</ele>
        <time>2023-02-01T13:53:32Z</time>
      </trkpt>
      <trkpt lat="49.76682" lon="2.30234">
        <ele>121.6</ele>
        <time>2023-02-01T13:53:33Z</time>
      </trkpt>
      <trkpt lat="49.76682" lon="2.30234">
        <ele>121.6</ele>
        <time>2023-02-01T13:53:34Z</time>
      </trkpt>
      <trkpt lat="49.76682" lon="2.30234">
        <ele>121.6</ele>
        <time>2023-02-01T13:53:35Z</time>
      </trkpt>
      <trkpt lat="49.76682" lon="2.30234">
        <ele>121.7</ele>
        <time>2023-02-01T13:53:36Z</time>
      </trkpt>
      <trkpt lat="49.76682" lon="2.30234">
        <ele>121.7</ele>
        <time>2023-02-01T13:53:37Z</time>
      </trkpt>
      <trkpt lat="49.76682" lon="2.30234">
        <ele>121.7</ele>
        <time>2023-02-01T13:53:38Z</time>
      </trkpt>
      <trkpt lat="49.76682" lon="2.30234">
        <ele>121.7</ele>
        <time>2023-02-01T13:53:39Z</time>
      </trkpt>
      <trkpt lat="49.76682" lon="2.30234">
        <ele>121.7</ele>
        <time>2023-02-01T13:53:40Z</time>
      </trkpt>
      <trkpt lat="49.76682" lon="2.30234">
        <ele>121.7</ele>
        <time>2023-02-01T13:53:41Z</time>
      </trkpt>
      <trkpt lat="49.76682" lon="2.30231">
        <ele>121.7</ele>
        <time>2023-02-01T13:53:42Z</time>
      </trkpt>
      <trkpt lat="49.76683" lon="2.3023">
        <ele>121.8</ele>
        <time>2023-02-01T13:53:43Z</time>
      </trkpt>
      <trkpt lat="49.76683" lon="2.30229">
        <ele>121.8</ele>
        <time>2023-02-01T13:53:44Z</time>
      </trkpt>
      <trkpt lat="49.76684" lon="2.30229">
        <ele>121.8</ele>
        <time>2023-02-01T13:53:45Z</time>
      </trkpt>
      <trkpt lat="49.76684" lon="2.30229">
        <ele>121.8</ele>
        <time>2023-02-01T13:53:46Z</time>
      </trkpt>
      <trkpt lat="49.76684" lon="2.30229">
        <ele>121.8</ele>
        <time>2023-02-01T13:53:47Z</time>
      </trkpt>
      <trkpt lat="49.76684" lon="2.3023">
        <ele>121.8</ele>
        <time>2023-02-01T13:53:48Z</time>
      </trkpt>
      <trkpt lat="49.76684" lon="2.3023">
        <ele>121.9</ele>
        <time>2023-02-01T13:53:49Z</time>
      </trkpt>
      <trkpt lat="49.76685" lon="2.30231">
        <ele>121.9</ele>
        <time>2023-02-01T13:53:50Z</time>
      </trkpt>
      <trkpt lat="49.76685" lon="2.30232">
        <ele>121.9</ele>
        <time>2023-02-01T13:53:51Z</time>
      </trkpt>
      <trkpt lat="49.76685" lon="2.30232">
        <ele>121.9</ele>
        <time>2023-02-01T13:53:52Z</time>
      </trkpt>
      <trkpt lat="49.76685" lon="2.30232">
        <ele>121.9</ele>
        <time>2023-02-01T13:53:53Z</time>
      </trkpt>
      <trkpt lat="49.76685" lon="2.30233">
        <ele>121.9</ele>
        <time>2023-02-01T13:53:54Z</time>
      </trkpt>
      <trkpt lat="49.76685" lon="2.30233">
        <ele>121.9</ele>
        <time>2023-02-01T13:53:55Z</time>
      </trkpt>
      <trkpt lat="49.76685" lon="2.30233">
        <ele>121.9</ele>
        <time>2023-02-01T13:53:56Z</time>
      </trkpt>
      <trkpt lat="49.76685" lon="2.30233">
        <ele>121.9</ele>
        <time>2023-02-01T13:53:57Z</time>
      </trkpt>
      <trkpt lat="49.76685" lon="2.30233">
        <ele>121.9</ele>
        <time>2023-02-01T13:53:58Z</time>
      </trkpt>
      <trkpt lat="49.76685" lon="2.30233">
        <ele>121.9</ele>
        <time>2023-02-01T13:53:59Z</time>
      </trkpt>
      <trkpt lat="49.76685" lon="2.30233">
        <ele>121.9</ele>
        <time>2023-02-01T13:54:00Z</time>
      </trkpt>
      <trkpt lat="49.76685" lon="2.30233">
        <ele>121.9</ele>
        <time>2023-02-01T13:54:01Z</time>
      </trkpt>
      <trkpt lat="49.76685" lon="2.30233">
        <ele>121.9</ele>
        <time>2023-02-01T13:54:02Z</time>
      </trkpt>
      <trkpt lat="49.76685" lon="2.30233">
        <ele>121.9</ele>
        <time>2023-02-01T13:54:03Z</time>
      </trkpt>
      <trkpt lat="49.76685" lon="2.30233">
        <ele>121.9</ele>
        <time>2023-02-01T13:54:04Z</time>
      </trkpt>
      <trkpt lat="49.76685" lon="2.30233">
        <ele>121.9</ele>
        <time>2023-02-01T13:54:05Z</time>
      </trkpt>
      <trkpt lat="49.76685" lon="2.30233">
        <ele>121.9</ele>
        <time>2023-02-01T13:54:06Z</time>
      </trkpt>
      <trkpt lat="49.76685" lon="2.30233">
        <ele>121.9</ele>
        <time>2023-02-01T13:54:07Z</time>
      </trkpt>
      <trkpt lat="49.76685" lon="2.30233">
        <ele>121.9</ele>
        <time>2023-02-01T13:54:08Z</time>
      </trkpt>
      <trkpt lat="49.76685" lon="2.30233">
        <ele>121.9</ele>
        <time>2023-02-01T13:54:09Z</time>
      </trkpt>
      <trkpt lat="49.76685" lon="2.30233">
        <ele>122</ele>
        <time>2023-02-01T13:54:10Z</time>
      </trkpt>
      <trkpt lat="49.76685" lon="2.30233">
        <ele>122</ele>
        <time>2023-02-01T13:54:11Z</time>
      </trkpt>
      <trkpt lat="49.76685" lon="2.30233">
        <ele>122</ele>
        <time>2023-02-01T13:54:12Z</time>
      </trkpt>
      <trkpt lat="49.76685" lon="2.30233">
        <ele>122</ele>
        <time>2023-02-01T13:54:13Z</time>
      </trkpt>
      <trkpt lat="49.76685" lon="2.30233">
        <ele>122</ele>
        <time>2023-02-01T13:54:14Z</time>
      </trkpt>
      <trkpt lat="49.76685" lon="2.30233">
        <ele>122</ele>
        <time>2023-02-01T13:54:15Z</time>
      </trkpt>
      <trkpt lat="49.76685" lon="2.30233">
        <ele>122</ele>
        <time>2023-02-01T13:54:16Z</time>
      </trkpt>
      <trkpt lat="49.76685" lon="2.30233">
        <ele>122</ele>
        <time>2023-02-01T13:54:17Z</time>
      </trkpt>
      <trkpt lat="49.76685" lon="2.30233">
        <ele>122</ele>
        <time>2023-02-01T13:54:18Z</time>
      </trkpt>
      <trkpt lat="49.76685" lon="2.30233">
        <ele>122</ele>
        <time>2023-02-01T13:54:19Z</time>
      </trkpt>
      <trkpt lat="49.76685" lon="2.30233">
        <ele>122</ele>
        <time>2023-02-01T13:54:20Z</time>
      </trkpt>
      <trkpt lat="49.76685" lon="2.30233">
        <ele>122</ele>
        <time>2023-02-01T13:54:21Z</time>
      </trkpt>
      <trkpt lat="49.76685" lon="2.30233">
        <ele>122</ele>
        <time>2023-02-01T13:54:22Z</time>
      </trkpt>
      <trkpt lat="49.76685" lon="2.30233">
        <ele>122</ele>
        <time>2023-02-01T13:54:23Z</time>
      </trkpt>
      <trkpt lat="49.76685" lon="2.30233">
        <ele>122</ele>
        <time>2023-02-01T13:54:24Z</time>
      </trkpt>
      <trkpt lat="49.76685" lon="2.30233">
        <ele>122</ele>
        <time>2023-02-01T13:54:25Z</time>
      </trkpt>
      <trkpt lat="49.76685" lon="2.30233">
        <ele>122</ele>
        <time>2023-02-01T13:54:26Z</time>
      </trkpt>
      <trkpt lat="49.76685" lon="2.30233">
        <ele>122</ele>
        <time>2023-02-01T13:54:27Z</time>
      </trkpt>
      <trkpt lat="49.76685" lon="2.30233">
        <ele>122</ele>
        <time>2023-02-01T13:54:28Z</time>
      </trkpt>
      <trkpt lat="49.76685" lon="2.30233">
        <ele>122</ele>
        <time>2023-02-01T13:54:29Z</time>
      </trkpt>
      <trkpt lat="49.76685" lon="2.30233">
        <ele>122</ele>
        <time>2023-02-01T13:54:30Z</time>
      </trkpt>
      <trkpt lat="49.76685" lon="2.30233">
        <ele>122</ele>
        <time>2023-02-01T13:54:31Z</time>
      </trkpt>
      <trkpt lat="49.76685" lon="2.30233">
        <ele>122</ele>
        <time>2023-02-01T13:54:32Z</time>
      </trkpt>
      <trkpt lat="49.76685" lon="2.30233">
        <ele>122</ele>
        <time>2023-02-01T13:54:33Z</time>
      </trkpt>
      <trkpt lat="49.76685" lon="2.30233">
        <ele>122</ele>
        <time>2023-02-01T13:54:34Z</time>
      </trkpt>
      <trkpt lat="49.76685" lon="2.30233">
        <ele>122</ele>
        <time>2023-02-01T13:54:35Z</time>
      </trkpt>
      <trkpt lat="49.76685" lon="2.30232">
        <ele>122</ele>
        <time>2023-02-01T13:54:36Z</time>
      </trkpt>
      <trkpt lat="49.76684" lon="2.30231">
        <ele>122</ele>
        <time>2023-02-01T13:54:37Z</time>
      </trkpt>
      <trkpt lat="49.76684" lon="2.30232">
        <ele>122</ele>
        <time>2023-02-01T13:54:38Z</time>
      </trkpt>
      <trkpt lat="49.76684" lon="2.30233">
        <ele>122</ele>
        <time>2023-02-01T13:54:39Z</time>
      </trkpt>
      <trkpt lat="49.76684" lon="2.30233">
        <ele>122.1</ele>
        <time>2023-02-01T13:54:40Z</time>
      </trkpt>
      <trkpt lat="49.76684" lon="2.30234">
        <ele>122.1</ele>
        <time>2023-02-01T13:54:41Z</time>
      </trkpt>
      <trkpt lat="49.76685" lon="2.30235">
        <ele>122.1</ele>
        <time>2023-02-01T13:54:42Z</time>
      </trkpt>
      <trkpt lat="49.76685" lon="2.30236">
        <ele>122.1</ele>
        <time>2023-02-01T13:54:43Z</time>
      </trkpt>
      <trkpt lat="49.76685" lon="2.30238">
        <ele>122.2</ele>
        <time>2023-02-01T13:54:45Z</time>
      </trkpt>
      <trkpt lat="49.76686" lon="2.3024">
        <ele>122.2</ele>
        <time>2023-02-01T13:54:46Z</time>
      </trkpt>
      <trkpt lat="49.76686" lon="2.30242">
        <ele>122.3</ele>
        <time>2023-02-01T13:54:48Z</time>
      </trkpt>
      <trkpt lat="49.76686" lon="2.30244">
        <ele>122.3</ele>
        <time>2023-02-01T13:54:49Z</time>
      </trkpt>
      <trkpt lat="49.76687" lon="2.30247">
        <ele>122.4</ele>
        <time>2023-02-01T13:54:50Z</time>
      </trkpt>
      <trkpt lat="49.76687" lon="2.3025">
        <ele>122.5</ele>
        <time>2023-02-01T13:54:51Z</time>
      </trkpt>
      <trkpt lat="49.76687" lon="2.30252">
        <ele>122.5</ele>
        <time>2023-02-01T13:54:53Z</time>
      </trkpt>
      <trkpt lat="49.76687" lon="2.30253">
        <ele>122.6</ele>
        <time>2023-02-01T13:54:54Z</time>
      </trkpt>
      <trkpt lat="49.76687" lon="2.30255">
        <ele>122.6</ele>
        <time>2023-02-01T13:54:55Z</time>
      </trkpt>
      <trkpt lat="49.76687" lon="2.30257">
        <ele>122.6</ele>
        <time>2023-02-01T13:54:56Z</time>
      </trkpt>
      <trkpt lat="49.76687" lon="2.30259">
        <ele>122.7</ele>
        <time>2023-02-01T13:54:57Z</time>
      </trkpt>
      <trkpt lat="49.76686" lon="2.30261">
        <ele>122.7</ele>
        <time>2023-02-01T13:54:58Z</time>
      </trkpt>
      <trkpt lat="49.76686" lon="2.30263">
        <ele>122.8</ele>
        <time>2023-02-01T13:54:59Z</time>
      </trkpt>
      <trkpt lat="49.76686" lon="2.30265">
        <ele>122.8</ele>
        <time>2023-02-01T13:55:00Z</time>
      </trkpt>
      <trkpt lat="49.76686" lon="2.30269">
        <ele>122.9</ele>
        <time>2023-02-01T13:55:02Z</time>
      </trkpt>
      <trkpt lat="49.76686" lon="2.3027">
        <ele>122.9</ele>
        <time>2023-02-01T13:55:03Z</time>
      </trkpt>
      <trkpt lat="49.76686" lon="2.30271">
        <ele>123</ele>
        <time>2023-02-01T13:55:04Z</time>
      </trkpt>
      <trkpt lat="49.76686" lon="2.30273">
        <ele>123</ele>
        <time>2023-02-01T13:55:05Z</time>
      </trkpt>
      <trkpt lat="49.76686" lon="2.30275">
        <ele>123</ele>
        <time>2023-02-01T13:55:06Z</time>
      </trkpt>
      <trkpt lat="49.76686" lon="2.30276">
        <ele>123.1</ele>
        <time>2023-02-01T13:55:08Z</time>
      </trkpt>
      <trkpt lat="49.76686" lon="2.30278">
        <ele>123.1</ele>
        <time>2023-02-01T13:55:09Z</time>
      </trkpt>
      <trkpt lat="49.76686" lon="2.3028">
        <ele>123.1</ele>
        <time>2023-02-01T13:55:10Z</time>
      </trkpt>
      <trkpt lat="49.76686" lon="2.30282">
        <ele>123.2</ele>
        <time>2023-02-01T13:55:11Z</time>
      </trkpt>
      <trkpt lat="49.76686" lon="2.30284">
        <ele>123.2</ele>
        <time>2023-02-01T13:55:12Z</time>
      </trkpt>
      <trkpt lat="49.76686" lon="2.30286">
        <ele>123.2</ele>
        <time>2023-02-01T13:55:13Z</time>
      </trkpt>
      <trkpt lat="49.76687" lon="2.30289">
        <ele>123.3</ele>
        <time>2023-02-01T13:55:15Z</time>
      </trkpt>
      <trkpt lat="49.76687" lon="2.30293">
        <ele>123.3</ele>
        <time>2023-02-01T13:55:17Z</time>
      </trkpt>
      <trkpt lat="49.76687" lon="2.30294">
        <ele>123.3</ele>
        <time>2023-02-01T13:55:18Z</time>
      </trkpt>
      <trkpt lat="49.76686" lon="2.30297">
        <ele>123.4</ele>
        <time>2023-02-01T13:55:19Z</time>
      </trkpt>
      <trkpt lat="49.76686" lon="2.30298">
        <ele>123.4</ele>
        <time>2023-02-01T13:55:20Z</time>
      </trkpt>
      <trkpt lat="49.76686" lon="2.303">
        <ele>123.4</ele>
        <time>2023-02-01T13:55:21Z</time>
      </trkpt>
      <trkpt lat="49.76687" lon="2.30302">
        <ele>123.4</ele>
        <time>2023-02-01T13:55:23Z</time>
      </trkpt>
      <trkpt lat="49.76687" lon="2.30304">
        <ele>123.4</ele>
        <time>2023-02-01T13:55:24Z</time>
      </trkpt>
      <trkpt lat="49.76687" lon="2.30306">
        <ele>123.5</ele>
        <time>2023-02-01T13:55:25Z</time>
      </trkpt>
      <trkpt lat="49.76687" lon="2.30307">
        <ele>123.5</ele>
        <time>2023-02-01T13:55:26Z</time>
      </trkpt>
      <trkpt lat="49.76687" lon="2.30309">
        <ele>123.5</ele>
        <time>2023-02-01T13:55:27Z</time>
      </trkpt>
      <trkpt lat="49.76687" lon="2.30313">
        <ele>123.5</ele>
        <time>2023-02-01T13:55:29Z</time>
      </trkpt>
      <trkpt lat="49.76687" lon="2.30314">
        <ele>123.5</ele>
        <time>2023-02-01T13:55:30Z</time>
      </trkpt>
      <trkpt lat="49.76688" lon="2.30316">
        <ele>123.6</ele>
        <time>2023-02-01T13:55:31Z</time>
      </trkpt>
      <trkpt lat="49.76688" lon="2.30318">
        <ele>123.6</ele>
        <time>2023-02-01T13:55:33Z</time>
      </trkpt>
      <trkpt lat="49.76688" lon="2.3032">
        <ele>123.6</ele>
        <time>2023-02-01T13:55:34Z</time>
      </trkpt>
      <trkpt lat="49.76688" lon="2.30322">
        <ele>123.6</ele>
        <time>2023-02-01T13:55:35Z</time>
      </trkpt>
      <trkpt lat="49.76688" lon="2.30323">
        <ele>123.6</ele>
        <time>2023-02-01T13:55:36Z</time>
      </trkpt>
      <trkpt lat="49.76688" lon="2.30325">
        <ele>123.7</ele>
        <time>2023-02-01T13:55:37Z</time>
      </trkpt>
      <trkpt lat="49.76688" lon="2.30326">
        <ele>123.7</ele>
        <time>2023-02-01T13:55:39Z</time>
      </trkpt>
      <trkpt lat="49.76688" lon="2.30328">
        <ele>123.7</ele>
        <time>2023-02-01T13:55:40Z</time>
      </trkpt>
      <trkpt lat="49.76688" lon="2.30329">
        <ele>123.7</ele>
        <time>2023-02-01T13:55:41Z</time>
      </trkpt>
      <trkpt lat="49.76688" lon="2.30331">
        <ele>123.7</ele>
        <time>2023-02-01T13:55:42Z</time>
      </trkpt>
      <trkpt lat="49.76688" lon="2.30333">
        <ele>123.7</ele>
        <time>2023-02-01T13:55:43Z</time>
      </trkpt>
      <trkpt lat="49.76688" lon="2.30335">
        <ele>123.7</ele>
        <time>2023-02-01T13:55:44Z</time>
      </trkpt>
      <trkpt lat="49.76688" lon="2.30337">
        <ele>123.8</ele>
        <time>2023-02-01T13:55:46Z</time>
      </trkpt>
      <trkpt lat="49.76689" lon="2.30338">
        <ele>123.8</ele>
        <time>2023-02-01T13:55:47Z</time>
      </trkpt>
      <trkpt lat="49.76689" lon="2.3034">
        <ele>123.8</ele>
        <time>2023-02-01T13:55:48Z</time>
      </trkpt>
      <trkpt lat="49.76689" lon="2.30341">
        <ele>123.8</ele>
        <time>2023-02-01T13:55:49Z</time>
      </trkpt>
      <trkpt lat="49.76689" lon="2.30343">
        <ele>123.8</ele>
        <time>2023-02-01T13:55:50Z</time>
      </trkpt>
      <trkpt lat="49.76689" lon="2.30345">
        <ele>123.8</ele>
        <time>2023-02-01T13:55:51Z</time>
      </trkpt>
      <trkpt lat="49.76689" lon="2.30347">
        <ele>123.8</ele>
        <time>2023-02-01T13:55:53Z</time>
      </trkpt>
      <trkpt lat="49.76689" lon="2.30349">
        <ele>123.8</ele>
        <time>2023-02-01T13:55:54Z</time>
      </trkpt>
      <trkpt lat="49.76689" lon="2.30351">
        <ele>123.8</ele>
        <time>2023-02-01T13:55:55Z</time>
      </trkpt>
      <trkpt lat="49.76689" lon="2.30354">
        <ele>123.9</ele>
        <time>2023-02-01T13:55:56Z</time>
      </trkpt>
      <trkpt lat="49.76689" lon="2.30355">
        <ele>123.9</ele>
        <time>2023-02-01T13:55:57Z</time>
      </trkpt>
      <trkpt lat="49.76689" lon="2.30357">
        <ele>123.9</ele>
        <time>2023-02-01T13:55:58Z</time>
      </trkpt>
      <trkpt lat="49.76689" lon="2.30358">
        <ele>123.9</ele>
        <time>2023-02-01T13:55:59Z</time>
      </trkpt>
      <trkpt lat="49.76689" lon="2.3036">
        <ele>123.9</ele>
        <time>2023-02-01T13:56:01Z</time>
      </trkpt>
      <trkpt lat="49.76689" lon="2.30362">
        <ele>123.9</ele>
        <time>2023-02-01T13:56:02Z</time>
      </trkpt>
      <trkpt lat="49.76689" lon="2.30364">
        <ele>123.9</ele>
        <time>2023-02-01T13:56:03Z</time>
      </trkpt>
      <trkpt lat="49.76689" lon="2.30366">
        <ele>123.9</ele>
        <time>2023-02-01T13:56:04Z</time>
      </trkpt>
      <trkpt lat="49.76689" lon="2.30368">
        <ele>123.9</ele>
        <time>2023-02-01T13:56:05Z</time>
      </trkpt>
      <trkpt lat="49.76689" lon="2.30369">
        <ele>123.9</ele>
        <time>2023-02-01T13:56:06Z</time>
      </trkpt>
      <trkpt lat="49.7669" lon="2.30372">
        <ele>123.9</ele>
        <time>2023-02-01T13:56:08Z</time>
      </trkpt>
      <trkpt lat="49.7669" lon="2.30373">
        <ele>123.9</ele>
        <time>2023-02-01T13:56:09Z</time>
      </trkpt>
      <trkpt lat="49.7669" lon="2.30375">
        <ele>123.9</ele>
        <time>2023-02-01T13:56:10Z</time>
      </trkpt>
      <trkpt lat="49.7669" lon="2.30377">
        <ele>123.8</ele>
        <time>2023-02-01T13:56:11Z</time>
      </trkpt>
      <trkpt lat="49.7669" lon="2.30378">
        <ele>123.8</ele>
        <time>2023-02-01T13:56:12Z</time>
      </trkpt>
      <trkpt lat="49.7669" lon="2.3038">
        <ele>123.8</ele>
        <time>2023-02-01T13:56:13Z</time>
      </trkpt>
      <trkpt lat="49.7669" lon="2.30382">
        <ele>123.8</ele>
        <time>2023-02-01T13:56:15Z</time>
      </trkpt>
      <trkpt lat="49.7669" lon="2.30383">
        <ele>123.8</ele>
        <time>2023-02-01T13:56:16Z</time>
      </trkpt>
      <trkpt lat="49.76689" lon="2.30387">
        <ele>123.8</ele>
        <time>2023-02-01T13:56:17Z</time>
      </trkpt>
      <trkpt lat="49.76689" lon="2.30388">
        <ele>123.8</ele>
        <time>2023-02-01T13:56:18Z</time>
      </trkpt>
      <trkpt lat="49.76689" lon="2.30389">
        <ele>123.8</ele>
        <time>2023-02-01T13:56:19Z</time>
      </trkpt>
      <trkpt lat="49.76689" lon="2.30391">
        <ele>123.8</ele>
        <time>2023-02-01T13:56:20Z</time>
      </trkpt>
      <trkpt lat="49.76689" lon="2.30393">
        <ele>123.8</ele>
        <time>2023-02-01T13:56:21Z</time>
      </trkpt>
      <trkpt lat="49.76689" lon="2.30395">
        <ele>123.8</ele>
        <time>2023-02-01T13:56:23Z</time>
      </trkpt>
      <trkpt lat="49.76688" lon="2.30397">
        <ele>123.8</ele>
        <time>2023-02-01T13:56:24Z</time>
      </trkpt>
      <trkpt lat="49.76688" lon="2.30399">
        <ele>123.8</ele>
        <time>2023-02-01T13:56:25Z</time>
      </trkpt>
      <trkpt lat="49.76688" lon="2.30402">
        <ele>123.8</ele>
        <time>2023-02-01T13:56:26Z</time>
      </trkpt>
      <trkpt lat="49.76688" lon="2.30404">
        <ele>123.8</ele>
        <time>2023-02-01T13:56:27Z</time>
      </trkpt>
      <trkpt lat="49.76687" lon="2.30406">
        <ele>123.8</ele>
        <time>2023-02-01T13:56:28Z</time>
      </trkpt>
      <trkpt lat="49.76687" lon="2.30408">
        <ele>123.8</ele>
        <time>2023-02-01T13:56:29Z</time>
      </trkpt>
      <trkpt lat="49.76687" lon="2.3041">
        <ele>123.8</ele>
        <time>2023-02-01T13:56:31Z</time>
      </trkpt>
      <trkpt lat="49.76687" lon="2.30412">
        <ele>123.8</ele>
        <time>2023-02-01T13:56:32Z</time>
      </trkpt>
      <trkpt lat="49.76687" lon="2.30413">
        <ele>123.8</ele>
        <time>2023-02-01T13:56:33Z</time>
      </trkpt>
      <trkpt lat="49.76687" lon="2.30415">
        <ele>123.8</ele>
        <time>2023-02-01T13:56:34Z</time>
      </trkpt>
      <trkpt lat="49.76687" lon="2.30417">
        <ele>123.8</ele>
        <time>2023-02-01T13:56:35Z</time>
      </trkpt>
      <trkpt lat="49.76687" lon="2.30418">
        <ele>123.8</ele>
        <time>2023-02-01T13:56:36Z</time>
      </trkpt>
      <trkpt lat="49.76687" lon="2.3042">
        <ele>123.8</ele>
        <time>2023-02-01T13:56:37Z</time>
      </trkpt>
      <trkpt lat="49.76687" lon="2.30421">
        <ele>123.8</ele>
        <time>2023-02-01T13:56:39Z</time>
      </trkpt>
      <trkpt lat="49.76687" lon="2.30423">
        <ele>123.8</ele>
        <time>2023-02-01T13:56:40Z</time>
      </trkpt>
      <trkpt lat="49.76687" lon="2.30425">
        <ele>123.8</ele>
        <time>2023-02-01T13:56:41Z</time>
      </trkpt>
      <trkpt lat="49.76687" lon="2.30426">
        <ele>123.8</ele>
        <time>2023-02-01T13:56:42Z</time>
      </trkpt>
      <trkpt lat="49.76687" lon="2.30428">
        <ele>123.8</ele>
        <time>2023-02-01T13:56:43Z</time>
      </trkpt>
      <trkpt lat="49.76687" lon="2.30429">
        <ele>123.8</ele>
        <time>2023-02-01T13:56:44Z</time>
      </trkpt>
      <trkpt lat="49.76687" lon="2.30431">
        <ele>123.8</ele>
        <time>2023-02-01T13:56:46Z</time>
      </trkpt>
      <trkpt lat="49.76687" lon="2.30433">
        <ele>123.8</ele>
        <time>2023-02-01T13:56:47Z</time>
      </trkpt>
      <trkpt lat="49.76687" lon="2.30434">
        <ele>123.8</ele>
        <time>2023-02-01T13:56:48Z</time>
      </trkpt>
      <trkpt lat="49.76687" lon="2.30436">
        <ele>123.8</ele>
        <time>2023-02-01T13:56:49Z</time>
      </trkpt>
      <trkpt lat="49.76687" lon="2.30437">
        <ele>123.8</ele>
        <time>2023-02-01T13:56:50Z</time>
      </trkpt>
      <trkpt lat="49.76687" lon="2.30439">
        <ele>123.8</ele>
        <time>2023-02-01T13:56:51Z</time>
      </trkpt>
      <trkpt lat="49.76687" lon="2.3044">
        <ele>123.8</ele>
        <time>2023-02-01T13:56:52Z</time>
      </trkpt>
      <trkpt lat="49.76688" lon="2.30442">
        <ele>123.8</ele>
        <time>2023-02-01T13:56:53Z</time>
      </trkpt>
      <trkpt lat="49.76688" lon="2.30443">
        <ele>123.8</ele>
        <time>2023-02-01T13:56:55Z</time>
      </trkpt>
      <trkpt lat="49.76688" lon="2.30445">
        <ele>123.7</ele>
        <time>2023-02-01T13:56:56Z</time>
      </trkpt>
      <trkpt lat="49.76688" lon="2.30446">
        <ele>123.7</ele>
        <time>2023-02-01T13:56:57Z</time>
      </trkpt>
      <trkpt lat="49.76689" lon="2.30448">
        <ele>123.7</ele>
        <time>2023-02-01T13:56:58Z</time>
      </trkpt>
      <trkpt lat="49.76689" lon="2.3045">
        <ele>123.7</ele>
        <time>2023-02-01T13:56:59Z</time>
      </trkpt>
      <trkpt lat="49.7669" lon="2.30451">
        <ele>123.7</ele>
        <time>2023-02-01T13:57:00Z</time>
      </trkpt>
      <trkpt lat="49.7669" lon="2.30453">
        <ele>123.7</ele>
        <time>2023-02-01T13:57:01Z</time>
      </trkpt>
      <trkpt lat="49.7669" lon="2.30455">
        <ele>123.7</ele>
        <time>2023-02-01T13:57:02Z</time>
      </trkpt>
      <trkpt lat="49.7669" lon="2.30456">
        <ele>123.7</ele>
        <time>2023-02-01T13:57:03Z</time>
      </trkpt>
      <trkpt lat="49.7669" lon="2.30458">
        <ele>123.7</ele>
        <time>2023-02-01T13:57:05Z</time>
      </trkpt>
      <trkpt lat="49.76691" lon="2.3046">
        <ele>123.7</ele>
        <time>2023-02-01T13:57:06Z</time>
      </trkpt>
      <trkpt lat="49.76691" lon="2.30463">
        <ele>123.7</ele>
        <time>2023-02-01T13:57:07Z</time>
      </trkpt>
      <trkpt lat="49.76691" lon="2.30465">
        <ele>123.7</ele>
        <time>2023-02-01T13:57:08Z</time>
      </trkpt>
      <trkpt lat="49.76691" lon="2.30466">
        <ele>123.7</ele>
        <time>2023-02-01T13:57:09Z</time>
      </trkpt>
      <trkpt lat="49.76691" lon="2.30468">
        <ele>123.6</ele>
        <time>2023-02-01T13:57:10Z</time>
      </trkpt>
      <trkpt lat="49.76691" lon="2.3047">
        <ele>123.6</ele>
        <time>2023-02-01T13:57:11Z</time>
      </trkpt>
      <trkpt lat="49.76691" lon="2.30472">
        <ele>123.6</ele>
        <time>2023-02-01T13:57:12Z</time>
      </trkpt>
      <trkpt lat="49.76691" lon="2.30475">
        <ele>123.6</ele>
        <time>2023-02-01T13:57:13Z</time>
      </trkpt>
      <trkpt lat="49.76691" lon="2.30476">
        <ele>123.6</ele>
        <time>2023-02-01T13:57:15Z</time>
      </trkpt>
      <trkpt lat="49.76691" lon="2.30477">
        <ele>123.6</ele>
        <time>2023-02-01T13:57:16Z</time>
      </trkpt>
      <trkpt lat="49.76691" lon="2.3048">
        <ele>123.6</ele>
        <time>2023-02-01T13:57:17Z</time>
      </trkpt>
      <trkpt lat="49.7669" lon="2.30482">
        <ele>123.6</ele>
        <time>2023-02-01T13:57:18Z</time>
      </trkpt>
      <trkpt lat="49.7669" lon="2.30484">
        <ele>123.6</ele>
        <time>2023-02-01T13:57:19Z</time>
      </trkpt>
      <trkpt lat="49.7669" lon="2.30487">
        <ele>123.7</ele>
        <time>2023-02-01T13:57:21Z</time>
      </trkpt>
      <trkpt lat="49.7669" lon="2.30489">
        <ele>123.7</ele>
        <time>2023-02-01T13:57:22Z</time>
      </trkpt>
      <trkpt lat="49.7669" lon="2.30491">
        <ele>123.7</ele>
        <time>2023-02-01T13:57:23Z</time>
      </trkpt>
      <trkpt lat="49.7669" lon="2.30494">
        <ele>123.7</ele>
        <time>2023-02-01T13:57:24Z</time>
      </trkpt>
      <trkpt lat="49.76689" lon="2.30496">
        <ele>123.7</ele>
        <time>2023-02-01T13:57:25Z</time>
      </trkpt>
      <trkpt lat="49.76689" lon="2.30498">
        <ele>123.7</ele>
        <time>2023-02-01T13:57:27Z</time>
      </trkpt>
      <trkpt lat="49.76689" lon="2.305">
        <ele>123.8</ele>
        <time>2023-02-01T13:57:28Z</time>
      </trkpt>
      <trkpt lat="49.76689" lon="2.30503">
        <ele>123.8</ele>
        <time>2023-02-01T13:57:29Z</time>
      </trkpt>
      <trkpt lat="49.76689" lon="2.30505">
        <ele>123.8</ele>
        <time>2023-02-01T13:57:30Z</time>
      </trkpt>
      <trkpt lat="49.76688" lon="2.30508">
        <ele>123.8</ele>
        <time>2023-02-01T13:57:31Z</time>
      </trkpt>
      <trkpt lat="49.76689" lon="2.30509">
        <ele>123.8</ele>
        <time>2023-02-01T13:57:32Z</time>
      </trkpt>
      <trkpt lat="49.76689" lon="2.3051">
        <ele>123.8</ele>
        <time>2023-02-01T13:57:33Z</time>
      </trkpt>
      <trkpt lat="49.76689" lon="2.30512">
        <ele>123.8</ele>
        <time>2023-02-01T13:57:34Z</time>
      </trkpt>
      <trkpt lat="49.76689" lon="2.30514">
        <ele>123.8</ele>
        <time>2023-02-01T13:57:35Z</time>
      </trkpt>
      <trkpt lat="49.76689" lon="2.30516">
        <ele>123.8</ele>
        <time>2023-02-01T13:57:37Z</time>
      </trkpt>
      <trkpt lat="49.76689" lon="2.30519">
        <ele>123.8</ele>
        <time>2023-02-01T13:57:38Z</time>
      </trkpt>
      <trkpt lat="49.76689" lon="2.30521">
        <ele>123.8</ele>
        <time>2023-02-01T13:57:39Z</time>
      </trkpt>
      <trkpt lat="49.76689" lon="2.30523">
        <ele>123.9</ele>
        <time>2023-02-01T13:57:40Z</time>
      </trkpt>
      <trkpt lat="49.7669" lon="2.30526">
        <ele>123.9</ele>
        <time>2023-02-01T13:57:41Z</time>
      </trkpt>
      <trkpt lat="49.7669" lon="2.30528">
        <ele>123.9</ele>
        <time>2023-02-01T13:57:43Z</time>
      </trkpt>
      <trkpt lat="49.7669" lon="2.3053">
        <ele>123.9</ele>
        <time>2023-02-01T13:57:44Z</time>
      </trkpt>
      <trkpt lat="49.7669" lon="2.30532">
        <ele>123.9</ele>
        <time>2023-02-01T13:57:45Z</time>
      </trkpt>
      <trkpt lat="49.7669" lon="2.30534">
        <ele>123.9</ele>
        <time>2023-02-01T13:57:46Z</time>
      </trkpt>
      <trkpt lat="49.7669" lon="2.30536">
        <ele>123.9</ele>
        <time>2023-02-01T13:57:47Z</time>
      </trkpt>
      <trkpt lat="49.76691" lon="2.30539">
        <ele>123.9</ele>
        <time>2023-02-01T13:57:48Z</time>
      </trkpt>
      <trkpt lat="49.76691" lon="2.3054">
        <ele>123.9</ele>
        <time>2023-02-01T13:57:49Z</time>
      </trkpt>
      <trkpt lat="49.76691" lon="2.30541">
        <ele>123.9</ele>
        <time>2023-02-01T13:57:50Z</time>
      </trkpt>
      <trkpt lat="49.76691" lon="2.30543">
        <ele>123.9</ele>
        <time>2023-02-01T13:57:51Z</time>
      </trkpt>
      <trkpt lat="49.76691" lon="2.30545">
        <ele>123.9</ele>
        <time>2023-02-01T13:57:53Z</time>
      </trkpt>
      <trkpt lat="49.76691" lon="2.30546">
        <ele>123.9</ele>
        <time>2023-02-01T13:57:54Z</time>
      </trkpt>
      <trkpt lat="49.76692" lon="2.30548">
        <ele>123.9</ele>
        <time>2023-02-01T13:57:55Z</time>
      </trkpt>
      <trkpt lat="49.76692" lon="2.3055">
        <ele>123.9</ele>
        <time>2023-02-01T13:57:56Z</time>
      </trkpt>
      <trkpt lat="49.76692" lon="2.30551">
        <ele>123.9</ele>
        <time>2023-02-01T13:57:57Z</time>
      </trkpt>
      <trkpt lat="49.76692" lon="2.30555">
        <ele>123.9</ele>
        <time>2023-02-01T13:57:58Z</time>
      </trkpt>
      <trkpt lat="49.76692" lon="2.30556">
        <ele>123.9</ele>
        <time>2023-02-01T13:57:59Z</time>
      </trkpt>
      <trkpt lat="49.76692" lon="2.30557">
        <ele>123.9</ele>
        <time>2023-02-01T13:58:00Z</time>
      </trkpt>
      <trkpt lat="49.76692" lon="2.30561">
        <ele>123.9</ele>
        <time>2023-02-01T13:58:02Z</time>
      </trkpt>
      <trkpt lat="49.76693" lon="2.30562">
        <ele>123.9</ele>
        <time>2023-02-01T13:58:03Z</time>
      </trkpt>
      <trkpt lat="49.76693" lon="2.30563">
        <ele>124</ele>
        <time>2023-02-01T13:58:04Z</time>
      </trkpt>
      <trkpt lat="49.76693" lon="2.30565">
        <ele>124</ele>
        <time>2023-02-01T13:58:05Z</time>
      </trkpt>
      <trkpt lat="49.76693" lon="2.30566">
        <ele>124</ele>
        <time>2023-02-01T13:58:06Z</time>
      </trkpt>
      <trkpt lat="49.76692" lon="2.30568">
        <ele>124</ele>
        <time>2023-02-01T13:58:07Z</time>
      </trkpt>
      <trkpt lat="49.76692" lon="2.30571">
        <ele>124</ele>
        <time>2023-02-01T13:58:08Z</time>
      </trkpt>
      <trkpt lat="49.76692" lon="2.30572">
        <ele>124</ele>
        <time>2023-02-01T13:58:09Z</time>
      </trkpt>
      <trkpt lat="49.76692" lon="2.30575">
        <ele>124</ele>
        <time>2023-02-01T13:58:10Z</time>
      </trkpt>
      <trkpt lat="49.76692" lon="2.30577">
        <ele>124</ele>
        <time>2023-02-01T13:58:11Z</time>
      </trkpt>
      <trkpt lat="49.76692" lon="2.30579">
        <ele>124</ele>
        <time>2023-02-01T13:58:13Z</time>
      </trkpt>
      <trkpt lat="49.76692" lon="2.30581">
        <ele>124</ele>
        <time>2023-02-01T13:58:14Z</time>
      </trkpt>
      <trkpt lat="49.76692" lon="2.30583">
        <ele>124</ele>
        <time>2023-02-01T13:58:15Z</time>
      </trkpt>
      <trkpt lat="49.76692" lon="2.30585">
        <ele>124</ele>
        <time>2023-02-01T13:58:16Z</time>
      </trkpt>
      <trkpt lat="49.76692" lon="2.30586">
        <ele>124</ele>
        <time>2023-02-01T13:58:17Z</time>
      </trkpt>
      <trkpt lat="49.76692" lon="2.30588">
        <ele>124</ele>
        <time>2023-02-01T13:58:18Z</time>
      </trkpt>
      <trkpt lat="49.76692" lon="2.3059">
        <ele>124</ele>
        <time>2023-02-01T13:58:19Z</time>
      </trkpt>
      <trkpt lat="49.76692" lon="2.30593">
        <ele>124</ele>
        <time>2023-02-01T13:58:20Z</time>
      </trkpt>
      <trkpt lat="49.76692" lon="2.30594">
        <ele>124</ele>
        <time>2023-02-01T13:58:21Z</time>
      </trkpt>
      <trkpt lat="49.76692" lon="2.30596">
        <ele>124</ele>
        <time>2023-02-01T13:58:22Z</time>
      </trkpt>
      <trkpt lat="49.76693" lon="2.30599">
        <ele>124</ele>
        <time>2023-02-01T13:58:24Z</time>
      </trkpt>
      <trkpt lat="49.76693" lon="2.306">
        <ele>124</ele>
        <time>2023-02-01T13:58:25Z</time>
      </trkpt>
      <trkpt lat="49.76693" lon="2.30602">
        <ele>124</ele>
        <time>2023-02-01T13:58:26Z</time>
      </trkpt>
      <trkpt lat="49.76692" lon="2.30603">
        <ele>124</ele>
        <time>2023-02-01T13:58:27Z</time>
      </trkpt>
      <trkpt lat="49.76692" lon="2.30605">
        <ele>124</ele>
        <time>2023-02-01T13:58:28Z</time>
      </trkpt>
      <trkpt lat="49.76692" lon="2.30607">
        <ele>124</ele>
        <time>2023-02-01T13:58:29Z</time>
      </trkpt>
      <trkpt lat="49.76692" lon="2.30609">
        <ele>124</ele>
        <time>2023-02-01T13:58:30Z</time>
      </trkpt>
      <trkpt lat="49.76692" lon="2.30611">
        <ele>124</ele>
        <time>2023-02-01T13:58:31Z</time>
      </trkpt>
      <trkpt lat="49.76692" lon="2.30615">
        <ele>124</ele>
        <time>2023-02-01T13:58:32Z</time>
      </trkpt>
      <trkpt lat="49.76692" lon="2.30616">
        <ele>124</ele>
        <time>2023-02-01T13:58:34Z</time>
      </trkpt>
      <trkpt lat="49.76692" lon="2.30617">
        <ele>124</ele>
        <time>2023-02-01T13:58:35Z</time>
      </trkpt>
      <trkpt lat="49.76692" lon="2.30619">
        <ele>124</ele>
        <time>2023-02-01T13:58:36Z</time>
      </trkpt>
      <trkpt lat="49.76692" lon="2.3062">
        <ele>124</ele>
        <time>2023-02-01T13:58:37Z</time>
      </trkpt>
      <trkpt lat="49.76692" lon="2.30622">
        <ele>124</ele>
        <time>2023-02-01T13:58:38Z</time>
      </trkpt>
      <trkpt lat="49.76692" lon="2.30624">
        <ele>124</ele>
        <time>2023-02-01T13:58:39Z</time>
      </trkpt>
      <trkpt lat="49.76691" lon="2.30626">
        <ele>124</ele>
        <time>2023-02-01T13:58:40Z</time>
      </trkpt>
      <trkpt lat="49.76691" lon="2.30628">
        <ele>124</ele>
        <time>2023-02-01T13:58:41Z</time>
      </trkpt>
      <trkpt lat="49.76691" lon="2.30631">
        <ele>124</ele>
        <time>2023-02-01T13:58:42Z</time>
      </trkpt>
      <trkpt lat="49.76691" lon="2.30632">
        <ele>124</ele>
        <time>2023-02-01T13:58:44Z</time>
      </trkpt>
      <trkpt lat="49.76691" lon="2.30634">
        <ele>124</ele>
        <time>2023-02-01T13:58:45Z</time>
      </trkpt>
      <trkpt lat="49.76691" lon="2.30635">
        <ele>124</ele>
        <time>2023-02-01T13:58:46Z</time>
      </trkpt>
      <trkpt lat="49.76691" lon="2.30637">
        <ele>124</ele>
        <time>2023-02-01T13:58:47Z</time>
      </trkpt>
      <trkpt lat="49.7669" lon="2.30639">
        <ele>124</ele>
        <time>2023-02-01T13:58:48Z</time>
      </trkpt>
      <trkpt lat="49.76691" lon="2.30642">
        <ele>124</ele>
        <time>2023-02-01T13:58:49Z</time>
      </trkpt>
      <trkpt lat="49.76691" lon="2.30643">
        <ele>124</ele>
        <time>2023-02-01T13:58:50Z</time>
      </trkpt>
      <trkpt lat="49.76692" lon="2.30645">
        <ele>124</ele>
        <time>2023-02-01T13:58:51Z</time>
      </trkpt>
      <trkpt lat="49.76692" lon="2.30646">
        <ele>124</ele>
        <time>2023-02-01T13:58:52Z</time>
      </trkpt>
      <trkpt lat="49.76692" lon="2.30648">
        <ele>124.1</ele>
        <time>2023-02-01T13:58:53Z</time>
      </trkpt>
      <trkpt lat="49.76692" lon="2.3065">
        <ele>124.1</ele>
        <time>2023-02-01T13:58:55Z</time>
      </trkpt>
      <trkpt lat="49.76693" lon="2.30652">
        <ele>124.1</ele>
        <time>2023-02-01T13:58:56Z</time>
      </trkpt>
      <trkpt lat="49.76693" lon="2.30654">
        <ele>124.1</ele>
        <time>2023-02-01T13:58:57Z</time>
      </trkpt>
      <trkpt lat="49.76693" lon="2.30656">
        <ele>124.1</ele>
        <time>2023-02-01T13:58:58Z</time>
      </trkpt>
      <trkpt lat="49.76693" lon="2.30658">
        <ele>124.1</ele>
        <time>2023-02-01T13:58:59Z</time>
      </trkpt>
      <trkpt lat="49.76693" lon="2.30659">
        <ele>124.1</ele>
        <time>2023-02-01T13:59:00Z</time>
      </trkpt>
      <trkpt lat="49.76694" lon="2.3066">
        <ele>124.1</ele>
        <time>2023-02-01T13:59:01Z</time>
      </trkpt>
      <trkpt lat="49.76694" lon="2.30662">
        <ele>124.1</ele>
        <time>2023-02-01T13:59:03Z</time>
      </trkpt>
      <trkpt lat="49.76694" lon="2.30664">
        <ele>124.1</ele>
        <time>2023-02-01T13:59:04Z</time>
      </trkpt>
      <trkpt lat="49.76694" lon="2.30666">
        <ele>124</ele>
        <time>2023-02-01T13:59:05Z</time>
      </trkpt>
      <trkpt lat="49.76694" lon="2.30667">
        <ele>124</ele>
        <time>2023-02-01T13:59:06Z</time>
      </trkpt>
      <trkpt lat="49.76694" lon="2.30669">
        <ele>124</ele>
        <time>2023-02-01T13:59:07Z</time>
      </trkpt>
      <trkpt lat="49.76694" lon="2.30671">
        <ele>124</ele>
        <time>2023-02-01T13:59:08Z</time>
      </trkpt>
      <trkpt lat="49.76694" lon="2.30673">
        <ele>124</ele>
        <time>2023-02-01T13:59:09Z</time>
      </trkpt>
      <trkpt lat="49.76694" lon="2.30675">
        <ele>124</ele>
        <time>2023-02-01T13:59:10Z</time>
      </trkpt>
      <trkpt lat="49.76694" lon="2.30679">
        <ele>124</ele>
        <time>2023-02-01T13:59:12Z</time>
      </trkpt>
      <trkpt lat="49.76694" lon="2.3068">
        <ele>124</ele>
        <time>2023-02-01T13:59:13Z</time>
      </trkpt>
      <trkpt lat="49.76694" lon="2.30681">
        <ele>124</ele>
        <time>2023-02-01T13:59:14Z</time>
      </trkpt>
      <trkpt lat="49.76694" lon="2.30683">
        <ele>124</ele>
        <time>2023-02-01T13:59:15Z</time>
      </trkpt>
      <trkpt lat="49.76693" lon="2.30684">
        <ele>124</ele>
        <time>2023-02-01T13:59:16Z</time>
      </trkpt>
      <trkpt lat="49.76693" lon="2.30686">
        <ele>124</ele>
        <time>2023-02-01T13:59:17Z</time>
      </trkpt>
      <trkpt lat="49.76693" lon="2.30688">
        <ele>124</ele>
        <time>2023-02-01T13:59:18Z</time>
      </trkpt>
      <trkpt lat="49.76693" lon="2.3069">
        <ele>124</ele>
        <time>2023-02-01T13:59:19Z</time>
      </trkpt>
      <trkpt lat="49.76693" lon="2.30692">
        <ele>124</ele>
        <time>2023-02-01T13:59:21Z</time>
      </trkpt>
      <trkpt lat="49.76694" lon="2.30694">
        <ele>124</ele>
        <time>2023-02-01T13:59:22Z</time>
      </trkpt>
      <trkpt lat="49.76694" lon="2.30695">
        <ele>123.9</ele>
        <time>2023-02-01T13:59:23Z</time>
      </trkpt>
      <trkpt lat="49.76694" lon="2.30697">
        <ele>123.9</ele>
        <time>2023-02-01T13:59:24Z</time>
      </trkpt>
      <trkpt lat="49.76694" lon="2.30699">
        <ele>123.9</ele>
        <time>2023-02-01T13:59:25Z</time>
      </trkpt>
      <trkpt lat="49.76694" lon="2.307">
        <ele>123.9</ele>
        <time>2023-02-01T13:59:26Z</time>
      </trkpt>
      <trkpt lat="49.76694" lon="2.30702">
        <ele>123.9</ele>
        <time>2023-02-01T13:59:27Z</time>
      </trkpt>
      <trkpt lat="49.76694" lon="2.30705">
        <ele>123.9</ele>
        <time>2023-02-01T13:59:28Z</time>
      </trkpt>
      <trkpt lat="49.76694" lon="2.30706">
        <ele>123.9</ele>
        <time>2023-02-01T13:59:30Z</time>
      </trkpt>
      <trkpt lat="49.76694" lon="2.30707">
        <ele>123.9</ele>
        <time>2023-02-01T13:59:31Z</time>
      </trkpt>
      <trkpt lat="49.76694" lon="2.30709">
        <ele>123.9</ele>
        <time>2023-02-01T13:59:32Z</time>
      </trkpt>
      <trkpt lat="49.76694" lon="2.30711">
        <ele>123.9</ele>
        <time>2023-02-01T13:59:33Z</time>
      </trkpt>
      <trkpt lat="49.76694" lon="2.30713">
        <ele>123.9</ele>
        <time>2023-02-01T13:59:34Z</time>
      </trkpt>
      <trkpt lat="49.76694" lon="2.30715">
        <ele>123.9</ele>
        <time>2023-02-01T13:59:35Z</time>
      </trkpt>
      <trkpt lat="49.76694" lon="2.30717">
        <ele>123.8</ele>
        <time>2023-02-01T13:59:36Z</time>
      </trkpt>
      <trkpt lat="49.76694" lon="2.30719">
        <ele>123.8</ele>
        <time>2023-02-01T13:59:37Z</time>
      </trkpt>
      <trkpt lat="49.76694" lon="2.30721">
        <ele>123.8</ele>
        <time>2023-02-01T13:59:38Z</time>
      </trkpt>
      <trkpt lat="49.76694" lon="2.30723">
        <ele>123.8</ele>
        <time>2023-02-01T13:59:40Z</time>
      </trkpt>
      <trkpt lat="49.76694" lon="2.30727">
        <ele>123.7</ele>
        <time>2023-02-01T13:59:41Z</time>
      </trkpt>
      <trkpt lat="49.76694" lon="2.30728">
        <ele>123.7</ele>
        <time>2023-02-01T13:59:42Z</time>
      </trkpt>
      <trkpt lat="49.76694" lon="2.3073">
        <ele>123.7</ele>
        <time>2023-02-01T13:59:43Z</time>
      </trkpt>
      <trkpt lat="49.76693" lon="2.30734">
        <ele>123.7</ele>
        <time>2023-02-01T13:59:44Z</time>
      </trkpt>
      <trkpt lat="49.76693" lon="2.30735">
        <ele>123.6</ele>
        <time>2023-02-01T13:59:46Z</time>
      </trkpt>
      <trkpt lat="49.76693" lon="2.30737">
        <ele>123.6</ele>
        <time>2023-02-01T13:59:47Z</time>
      </trkpt>
      <trkpt lat="49.76693" lon="2.30739">
        <ele>123.6</ele>
        <time>2023-02-01T13:59:48Z</time>
      </trkpt>
      <trkpt lat="49.76693" lon="2.30741">
        <ele>123.6</ele>
        <time>2023-02-01T13:59:49Z</time>
      </trkpt>
      <trkpt lat="49.76693" lon="2.30743">
        <ele>123.6</ele>
        <time>2023-02-01T13:59:50Z</time>
      </trkpt>
      <trkpt lat="49.76693" lon="2.30745">
        <ele>123.5</ele>
        <time>2023-02-01T13:59:51Z</time>
      </trkpt>
      <trkpt lat="49.76693" lon="2.30747">
        <ele>123.5</ele>
        <time>2023-02-01T13:59:52Z</time>
      </trkpt>
      <trkpt lat="49.76694" lon="2.30748">
        <ele>123.5</ele>
        <time>2023-02-01T13:59:53Z</time>
      </trkpt>
      <trkpt lat="49.76694" lon="2.3075">
        <ele>123.5</ele>
        <time>2023-02-01T13:59:54Z</time>
      </trkpt>
      <trkpt lat="49.76694" lon="2.30753">
        <ele>123.5</ele>
        <time>2023-02-01T13:59:56Z</time>
      </trkpt>
      <trkpt lat="49.76694" lon="2.30755">
        <ele>123.5</ele>
        <time>2023-02-01T13:59:57Z</time>
      </trkpt>
      <trkpt lat="49.76694" lon="2.30756">
        <ele>123.5</ele>
        <time>2023-02-01T13:59:58Z</time>
      </trkpt>
      <trkpt lat="49.76695" lon="2.30758">
        <ele>123.5</ele>
        <time>2023-02-01T13:59:59Z</time>
      </trkpt>
      <trkpt lat="49.76695" lon="2.30761">
        <ele>123.5</ele>
        <time>2023-02-01T14:00:01Z</time>
      </trkpt>
      <trkpt lat="49.76695" lon="2.30762">
        <ele>123.5</ele>
        <time>2023-02-01T14:00:02Z</time>
      </trkpt>
      <trkpt lat="49.76695" lon="2.30764">
        <ele>123.4</ele>
        <time>2023-02-01T14:00:03Z</time>
      </trkpt>
      <trkpt lat="49.76696" lon="2.30765">
        <ele>123.4</ele>
        <time>2023-02-01T14:00:04Z</time>
      </trkpt>
      <trkpt lat="49.76696" lon="2.30769">
        <ele>123.4</ele>
        <time>2023-02-01T14:00:05Z</time>
      </trkpt>
      <trkpt lat="49.76696" lon="2.3077">
        <ele>123.4</ele>
        <time>2023-02-01T14:00:06Z</time>
      </trkpt>
      <trkpt lat="49.76696" lon="2.30772">
        <ele>123.4</ele>
        <time>2023-02-01T14:00:07Z</time>
      </trkpt>
      <trkpt lat="49.76696" lon="2.30774">
        <ele>123.4</ele>
        <time>2023-02-01T14:00:08Z</time>
      </trkpt>
      <trkpt lat="49.76696" lon="2.30776">
        <ele>123.4</ele>
        <time>2023-02-01T14:00:09Z</time>
      </trkpt>
      <trkpt lat="49.76696" lon="2.30779">
        <ele>123.4</ele>
        <time>2023-02-01T14:00:11Z</time>
      </trkpt>
      <trkpt lat="49.76696" lon="2.3078">
        <ele>123.4</ele>
        <time>2023-02-01T14:00:12Z</time>
      </trkpt>
      <trkpt lat="49.76696" lon="2.30784">
        <ele>123.4</ele>
        <time>2023-02-01T14:00:13Z</time>
      </trkpt>
      <trkpt lat="49.76696" lon="2.30785">
        <ele>123.4</ele>
        <time>2023-02-01T14:00:14Z</time>
      </trkpt>
      <trkpt lat="49.76696" lon="2.30787">
        <ele>123.4</ele>
        <time>2023-02-01T14:00:15Z</time>
      </trkpt>
      <trkpt lat="49.76696" lon="2.30788">
        <ele>123.4</ele>
        <time>2023-02-01T14:00:16Z</time>
      </trkpt>
      <trkpt lat="49.76696" lon="2.3079">
        <ele>123.4</ele>
        <time>2023-02-01T14:00:18Z</time>
      </trkpt>
      <trkpt lat="49.76696" lon="2.30791">
        <ele>123.4</ele>
        <time>2023-02-01T14:00:19Z</time>
      </trkpt>
      <trkpt lat="49.76696" lon="2.30793">
        <ele>123.4</ele>
        <time>2023-02-01T14:00:20Z</time>
      </trkpt>
      <trkpt lat="49.76696" lon="2.30796">
        <ele>123.4</ele>
        <time>2023-02-01T14:00:21Z</time>
      </trkpt>
      <trkpt lat="49.76697" lon="2.30798">
        <ele>123.4</ele>
        <time>2023-02-01T14:00:22Z</time>
      </trkpt>
      <trkpt lat="49.76697" lon="2.308">
        <ele>123.4</ele>
        <time>2023-02-01T14:00:23Z</time>
      </trkpt>
      <trkpt lat="49.76697" lon="2.30801">
        <ele>123.4</ele>
        <time>2023-02-01T14:00:24Z</time>
      </trkpt>
      <trkpt lat="49.76697" lon="2.30805">
        <ele>123.4</ele>
        <time>2023-02-01T14:00:25Z</time>
      </trkpt>
      <trkpt lat="49.76697" lon="2.30806">
        <ele>123.4</ele>
        <time>2023-02-01T14:00:26Z</time>
      </trkpt>
      <trkpt lat="49.76697" lon="2.30807">
        <ele>123.4</ele>
        <time>2023-02-01T14:00:27Z</time>
      </trkpt>
      <trkpt lat="49.76698" lon="2.3081">
        <ele>123.4</ele>
        <time>2023-02-01T14:00:29Z</time>
      </trkpt>
      <trkpt lat="49.76698" lon="2.30812">
        <ele>123.4</ele>
        <time>2023-02-01T14:00:30Z</time>
      </trkpt>
      <trkpt lat="49.76698" lon="2.30814">
        <ele>123.4</ele>
        <time>2023-02-01T14:00:31Z</time>
      </trkpt>
      <trkpt lat="49.76698" lon="2.30816">
        <ele>123.4</ele>
        <time>2023-02-01T14:00:32Z</time>
      </trkpt>
      <trkpt lat="49.76698" lon="2.30818">
        <ele>123.4</ele>
        <time>2023-02-01T14:00:33Z</time>
      </trkpt>
      <trkpt lat="49.76697" lon="2.30821">
        <ele>123.4</ele>
        <time>2023-02-01T14:00:35Z</time>
      </trkpt>
      <trkpt lat="49.76698" lon="2.30824">
        <ele>123.4</ele>
        <time>2023-02-01T14:00:36Z</time>
      </trkpt>
      <trkpt lat="49.76698" lon="2.30825">
        <ele>123.4</ele>
        <time>2023-02-01T14:00:37Z</time>
      </trkpt>
      <trkpt lat="49.76697" lon="2.30829">
        <ele>123.4</ele>
        <time>2023-02-01T14:00:38Z</time>
      </trkpt>
      <trkpt lat="49.76697" lon="2.3083">
        <ele>123.4</ele>
        <time>2023-02-01T14:00:39Z</time>
      </trkpt>
      <trkpt lat="49.76697" lon="2.30832">
        <ele>123.4</ele>
        <time>2023-02-01T14:00:40Z</time>
      </trkpt>
      <trkpt lat="49.76697" lon="2.30833">
        <ele>123.4</ele>
        <time>2023-02-01T14:00:41Z</time>
      </trkpt>
      <trkpt lat="49.76697" lon="2.30835">
        <ele>123.4</ele>
        <time>2023-02-01T14:00:42Z</time>
      </trkpt>
      <trkpt lat="49.76697" lon="2.30837">
        <ele>123.4</ele>
        <time>2023-02-01T14:00:43Z</time>
      </trkpt>
      <trkpt lat="49.76697" lon="2.30838">
        <ele>123.4</ele>
        <time>2023-02-01T14:00:45Z</time>
      </trkpt>
      <trkpt lat="49.76697" lon="2.30841">
        <ele>123.4</ele>
        <time>2023-02-01T14:00:46Z</time>
      </trkpt>
      <trkpt lat="49.76697" lon="2.30842">
        <ele>123.4</ele>
        <time>2023-02-01T14:00:47Z</time>
      </trkpt>
      <trkpt lat="49.76697" lon="2.30843">
        <ele>123.4</ele>
        <time>2023-02-01T14:00:48Z</time>
      </trkpt>
      <trkpt lat="49.76697" lon="2.30844">
        <ele>123.4</ele>
        <time>2023-02-01T14:00:49Z</time>
      </trkpt>
      <trkpt lat="49.76697" lon="2.30846">
        <ele>123.4</ele>
        <time>2023-02-01T14:00:50Z</time>
      </trkpt>
      <trkpt lat="49.76696" lon="2.30849">
        <ele>123.4</ele>
        <time>2023-02-01T14:00:51Z</time>
      </trkpt>
      <trkpt lat="49.76696" lon="2.3085">
        <ele>123.4</ele>
        <time>2023-02-01T14:00:52Z</time>
      </trkpt>
      <trkpt lat="49.76696" lon="2.30852">
        <ele>123.4</ele>
        <time>2023-02-01T14:00:53Z</time>
      </trkpt>
      <trkpt lat="49.76696" lon="2.30855">
        <ele>123.3</ele>
        <time>2023-02-01T14:00:54Z</time>
      </trkpt>
      <trkpt lat="49.76695" lon="2.30857">
        <ele>123.3</ele>
        <time>2023-02-01T14:00:56Z</time>
      </trkpt>
      <trkpt lat="49.76695" lon="2.30859">
        <ele>123.3</ele>
        <time>2023-02-01T14:00:57Z</time>
      </trkpt>
      <trkpt lat="49.76695" lon="2.3086">
        <ele>123.3</ele>
        <time>2023-02-01T14:00:58Z</time>
      </trkpt>
      <trkpt lat="49.76695" lon="2.30862">
        <ele>123.3</ele>
        <time>2023-02-01T14:00:59Z</time>
      </trkpt>
      <trkpt lat="49.76695" lon="2.30865">
        <ele>123.3</ele>
        <time>2023-02-01T14:01:00Z</time>
      </trkpt>
      <trkpt lat="49.76694" lon="2.30867">
        <ele>123.3</ele>
        <time>2023-02-01T14:01:01Z</time>
      </trkpt>
      <trkpt lat="49.76694" lon="2.30868">
        <ele>123.3</ele>
        <time>2023-02-01T14:01:02Z</time>
      </trkpt>
      <trkpt lat="49.76694" lon="2.3087">
        <ele>123.3</ele>
        <time>2023-02-01T14:01:03Z</time>
      </trkpt>
      <trkpt lat="49.76694" lon="2.30872">
        <ele>123.3</ele>
        <time>2023-02-01T14:01:04Z</time>
      </trkpt>
      <trkpt lat="49.76694" lon="2.30875">
        <ele>123.3</ele>
        <time>2023-02-01T14:01:05Z</time>
      </trkpt>
      <trkpt lat="49.76694" lon="2.30877">
        <ele>123.3</ele>
        <time>2023-02-01T14:01:06Z</time>
      </trkpt>
      <trkpt lat="49.76694" lon="2.30879">
        <ele>123.3</ele>
        <time>2023-02-01T14:01:08Z</time>
      </trkpt>
      <trkpt lat="49.76693" lon="2.30881">
        <ele>123.2</ele>
        <time>2023-02-01T14:01:09Z</time>
      </trkpt>
      <trkpt lat="49.76693" lon="2.30883">
        <ele>123.2</ele>
        <time>2023-02-01T14:01:10Z</time>
      </trkpt>
      <trkpt lat="49.76694" lon="2.30886">
        <ele>123.2</ele>
        <time>2023-02-01T14:01:11Z</time>
      </trkpt>
      <trkpt lat="49.76694" lon="2.30889">
        <ele>123.2</ele>
        <time>2023-02-01T14:01:12Z</time>
      </trkpt>
      <trkpt lat="49.76694" lon="2.3089">
        <ele>123.2</ele>
        <time>2023-02-01T14:01:13Z</time>
      </trkpt>
      <trkpt lat="49.76695" lon="2.30892">
        <ele>123.2</ele>
        <time>2023-02-01T14:01:15Z</time>
      </trkpt>
      <trkpt lat="49.76695" lon="2.30894">
        <ele>123.2</ele>
        <time>2023-02-01T14:01:17Z</time>
      </trkpt>
      <trkpt lat="49.76695" lon="2.30896">
        <ele>123.2</ele>
        <time>2023-02-01T14:01:18Z</time>
      </trkpt>
      <trkpt lat="49.76696" lon="2.30899">
        <ele>123.2</ele>
        <time>2023-02-01T14:01:19Z</time>
      </trkpt>
      <trkpt lat="49.76696" lon="2.30901">
        <ele>123.2</ele>
        <time>2023-02-01T14:01:20Z</time>
      </trkpt>
      <trkpt lat="49.76696" lon="2.30902">
        <ele>123.2</ele>
        <time>2023-02-01T14:01:21Z</time>
      </trkpt>
      <trkpt lat="49.76696" lon="2.30905">
        <ele>123.2</ele>
        <time>2023-02-01T14:01:22Z</time>
      </trkpt>
      <trkpt lat="49.76696" lon="2.30907">
        <ele>123.2</ele>
        <time>2023-02-01T14:01:23Z</time>
      </trkpt>
      <trkpt lat="49.76696" lon="2.30908">
        <ele>123.2</ele>
        <time>2023-02-01T14:01:24Z</time>
      </trkpt>
      <trkpt lat="49.76696" lon="2.30912">
        <ele>123.2</ele>
        <time>2023-02-01T14:01:25Z</time>
      </trkpt>
      <trkpt lat="49.76696" lon="2.30913">
        <ele>123.2</ele>
        <time>2023-02-01T14:01:27Z</time>
      </trkpt>
      <trkpt lat="49.76696" lon="2.30914">
        <ele>123.2</ele>
        <time>2023-02-01T14:01:28Z</time>
      </trkpt>
      <trkpt lat="49.76696" lon="2.30917">
        <ele>123.2</ele>
        <time>2023-02-01T14:01:29Z</time>
      </trkpt>
      <trkpt lat="49.76696" lon="2.30919">
        <ele>123.3</ele>
        <time>2023-02-01T14:01:30Z</time>
      </trkpt>
      <trkpt lat="49.76696" lon="2.3092">
        <ele>123.3</ele>
        <time>2023-02-01T14:01:31Z</time>
      </trkpt>
      <trkpt lat="49.76696" lon="2.30922">
        <ele>123.3</ele>
        <time>2023-02-01T14:01:32Z</time>
      </trkpt>
      <trkpt lat="49.76696" lon="2.30923">
        <ele>123.3</ele>
        <time>2023-02-01T14:01:33Z</time>
      </trkpt>
      <trkpt lat="49.76696" lon="2.30925">
        <ele>123.3</ele>
        <time>2023-02-01T14:01:34Z</time>
      </trkpt>
      <trkpt lat="49.76696" lon="2.30928">
        <ele>123.3</ele>
        <time>2023-02-01T14:01:35Z</time>
      </trkpt>
      <trkpt lat="49.76696" lon="2.3093">
        <ele>123.3</ele>
        <time>2023-02-01T14:01:36Z</time>
      </trkpt>
      <trkpt lat="49.76696" lon="2.30931">
        <ele>123.4</ele>
        <time>2023-02-01T14:01:37Z</time>
      </trkpt>
      <trkpt lat="49.76696" lon="2.30935">
        <ele>123.4</ele>
        <time>2023-02-01T14:01:39Z</time>
      </trkpt>
      <trkpt lat="49.76696" lon="2.30936">
        <ele>123.4</ele>
        <time>2023-02-01T14:01:40Z</time>
      </trkpt>
      <trkpt lat="49.76696" lon="2.30938">
        <ele>123.4</ele>
        <time>2023-02-01T14:01:41Z</time>
      </trkpt>
      <trkpt lat="49.76695" lon="2.30941">
        <ele>123.5</ele>
        <time>2023-02-01T14:01:42Z</time>
      </trkpt>
      <trkpt lat="49.76695" lon="2.30942">
        <ele>123.5</ele>
        <time>2023-02-01T14:01:43Z</time>
      </trkpt>
      <trkpt lat="49.76695" lon="2.30944">
        <ele>123.5</ele>
        <time>2023-02-01T14:01:44Z</time>
      </trkpt>
      <trkpt lat="49.76694" lon="2.30947">
        <ele>123.5</ele>
        <time>2023-02-01T14:01:45Z</time>
      </trkpt>
      <trkpt lat="49.76694" lon="2.30948">
        <ele>123.5</ele>
        <time>2023-02-01T14:01:46Z</time>
      </trkpt>
      <trkpt lat="49.76694" lon="2.30949">
        <ele>123.6</ele>
        <time>2023-02-01T14:01:47Z</time>
      </trkpt>
      <trkpt lat="49.76694" lon="2.30952">
        <ele>123.6</ele>
        <time>2023-02-01T14:01:49Z</time>
      </trkpt>
      <trkpt lat="49.76694" lon="2.30954">
        <ele>123.6</ele>
        <time>2023-02-01T14:01:50Z</time>
      </trkpt>
      <trkpt lat="49.76694" lon="2.30955">
        <ele>123.7</ele>
        <time>2023-02-01T14:01:51Z</time>
      </trkpt>
      <trkpt lat="49.76693" lon="2.30957">
        <ele>123.7</ele>
        <time>2023-02-01T14:01:52Z</time>
      </trkpt>
      <trkpt lat="49.76693" lon="2.30958">
        <ele>123.7</ele>
        <time>2023-02-01T14:01:53Z</time>
      </trkpt>
      <trkpt lat="49.76693" lon="2.3096">
        <ele>123.7</ele>
        <time>2023-02-01T14:01:54Z</time>
      </trkpt>
      <trkpt lat="49.76693" lon="2.30962">
        <ele>123.8</ele>
        <time>2023-02-01T14:01:55Z</time>
      </trkpt>
      <trkpt lat="49.76693" lon="2.30964">
        <ele>123.8</ele>
        <time>2023-02-01T14:01:56Z</time>
      </trkpt>
      <trkpt lat="49.76694" lon="2.30966">
        <ele>123.9</ele>
        <time>2023-02-01T14:01:58Z</time>
      </trkpt>
      <trkpt lat="49.76694" lon="2.30969">
        <ele>123.9</ele>
        <time>2023-02-01T14:01:59Z</time>
      </trkpt>
      <trkpt lat="49.76695" lon="2.30971">
        <ele>124</ele>
        <time>2023-02-01T14:02:00Z</time>
      </trkpt>
      <trkpt lat="49.76695" lon="2.30972">
        <ele>124</ele>
        <time>2023-02-01T14:02:01Z</time>
      </trkpt>
      <trkpt lat="49.76695" lon="2.30975">
        <ele>124.1</ele>
        <time>2023-02-01T14:02:02Z</time>
      </trkpt>
      <trkpt lat="49.76696" lon="2.30976">
        <ele>124.1</ele>
        <time>2023-02-01T14:02:03Z</time>
      </trkpt>
      <trkpt lat="49.76696" lon="2.30977">
        <ele>124.1</ele>
        <time>2023-02-01T14:02:04Z</time>
      </trkpt>
      <trkpt lat="49.76696" lon="2.30979">
        <ele>124.2</ele>
        <time>2023-02-01T14:02:06Z</time>
      </trkpt>
      <trkpt lat="49.76696" lon="2.30981">
        <ele>124.2</ele>
        <time>2023-02-01T14:02:07Z</time>
      </trkpt>
      <trkpt lat="49.76696" lon="2.30983">
        <ele>124.3</ele>
        <time>2023-02-01T14:02:08Z</time>
      </trkpt>
      <trkpt lat="49.76696" lon="2.30985">
        <ele>124.3</ele>
        <time>2023-02-01T14:02:09Z</time>
      </trkpt>
      <trkpt lat="49.76697" lon="2.30986">
        <ele>124.4</ele>
        <time>2023-02-01T14:02:10Z</time>
      </trkpt>
      <trkpt lat="49.76697" lon="2.30988">
        <ele>124.4</ele>
        <time>2023-02-01T14:02:11Z</time>
      </trkpt>
      <trkpt lat="49.76697" lon="2.3099">
        <ele>124.5</ele>
        <time>2023-02-01T14:02:13Z</time>
      </trkpt>
      <trkpt lat="49.76697" lon="2.30992">
        <ele>124.5</ele>
        <time>2023-02-01T14:02:14Z</time>
      </trkpt>
      <trkpt lat="49.76697" lon="2.30994">
        <ele>124.6</ele>
        <time>2023-02-01T14:02:15Z</time>
      </trkpt>
      <trkpt lat="49.76698" lon="2.30997">
        <ele>124.7</ele>
        <time>2023-02-01T14:02:16Z</time>
      </trkpt>
      <trkpt lat="49.76698" lon="2.30998">
        <ele>124.7</ele>
        <time>2023-02-01T14:02:17Z</time>
      </trkpt>
      <trkpt lat="49.76698" lon="2.30999">
        <ele>124.7</ele>
        <time>2023-02-01T14:02:18Z</time>
      </trkpt>
      <trkpt lat="49.76698" lon="2.31001">
        <ele>124.8</ele>
        <time>2023-02-01T14:02:20Z</time>
      </trkpt>
      <trkpt lat="49.76698" lon="2.31004">
        <ele>124.8</ele>
        <time>2023-02-01T14:02:21Z</time>
      </trkpt>
      <trkpt lat="49.76698" lon="2.31005">
        <ele>124.9</ele>
        <time>2023-02-01T14:02:23Z</time>
      </trkpt>
      <trkpt lat="49.76698" lon="2.31007">
        <ele>124.9</ele>
        <time>2023-02-01T14:02:24Z</time>
      </trkpt>
      <trkpt lat="49.76697" lon="2.31009">
        <ele>125</ele>
        <time>2023-02-01T14:02:25Z</time>
      </trkpt>
      <trkpt lat="49.76697" lon="2.31011">
        <ele>125</ele>
        <time>2023-02-01T14:02:27Z</time>
      </trkpt>
      <trkpt lat="49.76696" lon="2.31012">
        <ele>125</ele>
        <time>2023-02-01T14:02:28Z</time>
      </trkpt>
      <trkpt lat="49.76695" lon="2.31013">
        <ele>125</ele>
        <time>2023-02-01T14:02:30Z</time>
      </trkpt>
      <trkpt lat="49.76694" lon="2.31014">
        <ele>125</ele>
        <time>2023-02-01T14:02:31Z</time>
      </trkpt>
      <trkpt lat="49.76693" lon="2.31014">
        <ele>125</ele>
        <time>2023-02-01T14:02:32Z</time>
      </trkpt>
      <trkpt lat="49.76692" lon="2.31015">
        <ele>125</ele>
        <time>2023-02-01T14:02:34Z</time>
      </trkpt>
      <trkpt lat="49.76692" lon="2.31015">
        <ele>125</ele>
        <time>2023-02-01T14:02:35Z</time>
      </trkpt>
      <trkpt lat="49.76692" lon="2.31016">
        <ele>125</ele>
        <time>2023-02-01T14:02:36Z</time>
      </trkpt>
      <trkpt lat="49.76692" lon="2.31017">
        <ele>125</ele>
        <time>2023-02-01T14:02:38Z</time>
      </trkpt>
      <trkpt lat="49.76692" lon="2.31017">
        <ele>125</ele>
        <time>2023-02-01T14:02:39Z</time>
      </trkpt>
      <trkpt lat="49.76692" lon="2.31018">
        <ele>125</ele>
        <time>2023-02-01T14:02:41Z</time>
      </trkpt>
      <trkpt lat="49.76692" lon="2.31018">
        <ele>125</ele>
        <time>2023-02-01T14:02:42Z</time>
      </trkpt>
      <trkpt lat="49.76692" lon="2.31017">
        <ele>125</ele>
        <time>2023-02-01T14:02:44Z</time>
      </trkpt>
      <trkpt lat="49.76692" lon="2.31017">
        <ele>125</ele>
        <time>2023-02-01T14:02:45Z</time>
      </trkpt>
      <trkpt lat="49.76692" lon="2.31017">
        <ele>125</ele>
        <time>2023-02-01T14:02:47Z</time>
      </trkpt>
      <trkpt lat="49.76692" lon="2.31017">
        <ele>125</ele>
        <time>2023-02-01T14:02:48Z</time>
      </trkpt>
      <trkpt lat="49.76692" lon="2.31017">
        <ele>125</ele>
        <time>2023-02-01T14:02:49Z</time>
      </trkpt>
      <trkpt lat="49.76692" lon="2.31016">
        <ele>125</ele>
        <time>2023-02-01T14:02:50Z</time>
      </trkpt>
      <trkpt lat="49.76692" lon="2.31016">
        <ele>125</ele>
        <time>2023-02-01T14:02:51Z</time>
      </trkpt>
      <trkpt lat="49.76692" lon="2.31016">
        <ele>125</ele>
        <time>2023-02-01T14:02:52Z</time>
      </trkpt>
      <trkpt lat="49.76692" lon="2.31016">
        <ele>125</ele>
        <time>2023-02-01T14:02:53Z</time>
      </trkpt>
      <trkpt lat="49.76692" lon="2.31015">
        <ele>125</ele>
        <time>2023-02-01T14:02:54Z</time>
      </trkpt>
      <trkpt lat="49.76692" lon="2.31015">
        <ele>125</ele>
        <time>2023-02-01T14:02:55Z</time>
      </trkpt>
      <trkpt lat="49.76692" lon="2.31015">
        <ele>125</ele>
        <time>2023-02-01T14:02:56Z</time>
      </trkpt>
      <trkpt lat="49.76692" lon="2.31015">
        <ele>125</ele>
        <time>2023-02-01T14:02:57Z</time>
      </trkpt>
      <trkpt lat="49.76692" lon="2.31015">
        <ele>125</ele>
        <time>2023-02-01T14:02:58Z</time>
      </trkpt>
      <trkpt lat="49.76692" lon="2.31015">
        <ele>125</ele>
        <time>2023-02-01T14:02:59Z</time>
      </trkpt>
      <trkpt lat="49.76692" lon="2.31015">
        <ele>125</ele>
        <time>2023-02-01T14:03:00Z</time>
      </trkpt>
      <trkpt lat="49.76692" lon="2.31015">
        <ele>125</ele>
        <time>2023-02-01T14:03:01Z</time>
      </trkpt>
      <trkpt lat="49.76692" lon="2.31015">
        <ele>125</ele>
        <time>2023-02-01T14:03:02Z</time>
      </trkpt>
      <trkpt lat="49.76692" lon="2.31015">
        <ele>125</ele>
        <time>2023-02-01T14:03:03Z</time>
      </trkpt>
      <trkpt lat="49.76692" lon="2.31015">
        <ele>125</ele>
        <time>2023-02-01T14:03:04Z</time>
      </trkpt>
      <trkpt lat="49.76692" lon="2.31015">
        <ele>125</ele>
        <time>2023-02-01T14:03:05Z</time>
      </trkpt>
      <trkpt lat="49.76692" lon="2.31015">
        <ele>125</ele>
        <time>2023-02-01T14:03:06Z</time>
      </trkpt>
      <trkpt lat="49.76692" lon="2.31015">
        <ele>125</ele>
        <time>2023-02-01T14:03:07Z</time>
      </trkpt>
      <trkpt lat="49.76692" lon="2.31015">
        <ele>125</ele>
        <time>2023-02-01T14:03:08Z</time>
      </trkpt>
      <trkpt lat="49.76692" lon="2.31015">
        <ele>125</ele>
        <time>2023-02-01T14:03:09Z</time>
      </trkpt>
      <trkpt lat="49.76692" lon="2.31015">
        <ele>125</ele>
        <time>2023-02-01T14:03:10Z</time>
      </trkpt>
      <trkpt lat="49.76692" lon="2.31015">
        <ele>125</ele>
        <time>2023-02-01T14:03:11Z</time>
      </trkpt>
      <trkpt lat="49.76692" lon="2.31015">
        <ele>125</ele>
        <time>2023-02-01T14:03:12Z</time>
      </trkpt>
      <trkpt lat="49.76692" lon="2.31015">
        <ele>125</ele>
        <time>2023-02-01T14:03:13Z</time>
      </trkpt>
      <trkpt lat="49.76692" lon="2.31015">
        <ele>125</ele>
        <time>2023-02-01T14:03:14Z</time>
      </trkpt>
      <trkpt lat="49.76692" lon="2.31015">
        <ele>125</ele>
        <time>2023-02-01T14:03:15Z</time>
      </trkpt>
      <trkpt lat="49.76692" lon="2.31015">
        <ele>125</ele>
        <time>2023-02-01T14:03:16Z</time>
      </trkpt>
      <trkpt lat="49.76692" lon="2.31015">
        <ele>125</ele>
        <time>2023-02-01T14:03:17Z</time>
      </trkpt>
      <trkpt lat="49.76692" lon="2.31015">
        <ele>125</ele>
        <time>2023-02-01T14:03:18Z</time>
      </trkpt>
      <trkpt lat="49.76692" lon="2.31015">
        <ele>125</ele>
        <time>2023-02-01T14:03:19Z</time>
      </trkpt>
      <trkpt lat="49.76692" lon="2.31015">
        <ele>125</ele>
        <time>2023-02-01T14:03:20Z</time>
      </trkpt>
      <trkpt lat="49.76692" lon="2.31015">
        <ele>125</ele>
        <time>2023-02-01T14:03:21Z</time>
      </trkpt>
      <trkpt lat="49.76692" lon="2.31015">
        <ele>125</ele>
        <time>2023-02-01T14:03:22Z</time>
      </trkpt>
      <trkpt lat="49.76692" lon="2.31015">
        <ele>125</ele>
        <time>2023-02-01T14:03:23Z</time>
      </trkpt>
      <trkpt lat="49.76692" lon="2.31015">
        <ele>125</ele>
        <time>2023-02-01T14:03:24Z</time>
      </trkpt>
      <trkpt lat="49.76692" lon="2.31015">
        <ele>125</ele>
        <time>2023-02-01T14:03:25Z</time>
      </trkpt>
      <trkpt lat="49.76692" lon="2.31015">
        <ele>125</ele>
        <time>2023-02-01T14:03:26Z</time>
      </trkpt>
      <trkpt lat="49.76692" lon="2.31015">
        <ele>125</ele>
        <time>2023-02-01T14:03:27Z</time>
      </trkpt>
      <trkpt lat="49.76692" lon="2.31015">
        <ele>125</ele>
        <time>2023-02-01T14:03:28Z</time>
      </trkpt>
      <trkpt lat="49.76692" lon="2.31015">
        <ele>125</ele>
        <time>2023-02-01T14:03:29Z</time>
      </trkpt>
      <trkpt lat="49.76692" lon="2.31015">
        <ele>125</ele>
        <time>2023-02-01T14:03:30Z</time>
      </trkpt>
      <trkpt lat="49.76692" lon="2.31015">
        <ele>125</ele>
        <time>2023-02-01T14:03:31Z</time>
      </trkpt>
      <trkpt lat="49.76692" lon="2.31015">
        <ele>125</ele>
        <time>2023-02-01T14:03:32Z</time>
      </trkpt>
      <trkpt lat="49.76692" lon="2.31015">
        <ele>125</ele>
        <time>2023-02-01T14:03:33Z</time>
      </trkpt>
      <trkpt lat="49.76692" lon="2.31015">
        <ele>125</ele>
        <time>2023-02-01T14:03:34Z</time>
      </trkpt>
      <trkpt lat="49.76692" lon="2.31015">
        <ele>125</ele>
        <time>2023-02-01T14:03:35Z</time>
      </trkpt>
      <trkpt lat="49.76692" lon="2.31015">
        <ele>125</ele>
        <time>2023-02-01T14:03:36Z</time>
      </trkpt>
      <trkpt lat="49.76692" lon="2.31015">
        <ele>125</ele>
        <time>2023-02-01T14:03:37Z</time>
      </trkpt>
      <trkpt lat="49.76692" lon="2.31015">
        <ele>125</ele>
        <time>2023-02-01T14:03:38Z</time>
      </trkpt>
      <trkpt lat="49.76692" lon="2.31015">
        <ele>125</ele>
        <time>2023-02-01T14:03:39Z</time>
      </trkpt>
      <trkpt lat="49.76692" lon="2.31015">
        <ele>125</ele>
        <time>2023-02-01T14:03:40Z</time>
      </trkpt>
      <trkpt lat="49.76692" lon="2.31015">
        <ele>125</ele>
        <time>2023-02-01T14:03:41Z</time>
      </trkpt>
      <trkpt lat="49.76692" lon="2.31015">
        <ele>125</ele>
        <time>2023-02-01T14:03:42Z</time>
      </trkpt>
      <trkpt lat="49.76692" lon="2.31015">
        <ele>125</ele>
        <time>2023-02-01T14:03:43Z</time>
      </trkpt>
      <trkpt lat="49.76692" lon="2.31015">
        <ele>125</ele>
        <time>2023-02-01T14:03:44Z</time>
      </trkpt>
      <trkpt lat="49.76692" lon="2.31015">
        <ele>125</ele>
        <time>2023-02-01T14:03:45Z</time>
      </trkpt>
      <trkpt lat="49.76692" lon="2.31015">
        <ele>125</ele>
        <time>2023-02-01T14:03:46Z</time>
      </trkpt>
      <trkpt lat="49.76692" lon="2.31015">
        <ele>125</ele>
        <time>2023-02-01T14:03:47Z</time>
      </trkpt>
      <trkpt lat="49.76692" lon="2.31015">
        <ele>125</ele>
        <time>2023-02-01T14:03:48Z</time>
      </trkpt>
      <trkpt lat="49.76692" lon="2.31015">
        <ele>125</ele>
        <time>2023-02-01T14:03:49Z</time>
      </trkpt>
      <trkpt lat="49.76692" lon="2.31015">
        <ele>125</ele>
        <time>2023-02-01T14:03:50Z</time>
      </trkpt>
      <trkpt lat="49.76692" lon="2.31015">
        <ele>125</ele>
        <time>2023-02-01T14:03:51Z</time>
      </trkpt>
      <trkpt lat="49.76692" lon="2.31015">
        <ele>125</ele>
        <time>2023-02-01T14:03:52Z</time>
      </trkpt>
      <trkpt lat="49.76692" lon="2.31015">
        <ele>125</ele>
        <time>2023-02-01T14:03:53Z</time>
      </trkpt>
      <trkpt lat="49.76692" lon="2.31015">
        <ele>125</ele>
        <time>2023-02-01T14:03:54Z</time>
      </trkpt>
      <trkpt lat="49.76692" lon="2.31015">
        <ele>125</ele>
        <time>2023-02-01T14:03:55Z</time>
      </trkpt>
      <trkpt lat="49.76692" lon="2.31015">
        <ele>125</ele>
        <time>2023-02-01T14:03:56Z</time>
      </trkpt>
      <trkpt lat="49.76692" lon="2.31015">
        <ele>125</ele>
        <time>2023-02-01T14:03:57Z</time>
      </trkpt>
      <trkpt lat="49.76692" lon="2.31015">
        <ele>125</ele>
        <time>2023-02-01T14:03:58Z</time>
      </trkpt>
      <trkpt lat="49.76692" lon="2.31015">
        <ele>125</ele>
        <time>2023-02-01T14:03:59Z</time>
      </trkpt>
      <trkpt lat="49.76692" lon="2.31015">
        <ele>125</ele>
        <time>2023-02-01T14:04:00Z</time>
      </trkpt>
      <trkpt lat="49.76692" lon="2.31015">
        <ele>125</ele>
        <time>2023-02-01T14:04:01Z</time>
      </trkpt>
      <trkpt lat="49.76692" lon="2.31015">
        <ele>125</ele>
        <time>2023-02-01T14:04:02Z</time>
      </trkpt>
      <trkpt lat="49.76692" lon="2.31015">
        <ele>125</ele>
        <time>2023-02-01T14:04:03Z</time>
      </trkpt>
      <trkpt lat="49.76692" lon="2.31015">
        <ele>125</ele>
        <time>2023-02-01T14:04:04Z</time>
      </trkpt>
      <trkpt lat="49.76692" lon="2.31015">
        <ele>125</ele>
        <time>2023-02-01T14:04:05Z</time>
      </trkpt>
      <trkpt lat="49.76692" lon="2.31015">
        <ele>125</ele>
        <time>2023-02-01T14:04:06Z</time>
      </trkpt>
      <trkpt lat="49.76692" lon="2.31015">
        <ele>125</ele>
        <time>2023-02-01T14:04:07Z</time>
      </trkpt>
      <trkpt lat="49.76692" lon="2.31015">
        <ele>125</ele>
        <time>2023-02-01T14:04:08Z</time>
      </trkpt>
      <trkpt lat="49.76692" lon="2.31015">
        <ele>125</ele>
        <time>2023-02-01T14:04:09Z</time>
      </trkpt>
      <trkpt lat="49.76692" lon="2.31015">
        <ele>125</ele>
        <time>2023-02-01T14:04:10Z</time>
      </trkpt>
      <trkpt lat="49.76692" lon="2.31015">
        <ele>125</ele>
        <time>2023-02-01T14:04:11Z</time>
      </trkpt>
      <trkpt lat="49.76692" lon="2.31015">
        <ele>125</ele>
        <time>2023-02-01T14:04:12Z</time>
      </trkpt>
      <trkpt lat="49.76693" lon="2.31014">
        <ele>125</ele>
        <time>2023-02-01T14:04:13Z</time>
      </trkpt>
      <trkpt lat="49.76694" lon="2.31013">
        <ele>125</ele>
        <time>2023-02-01T14:04:14Z</time>
      </trkpt>
      <trkpt lat="49.76695" lon="2.31014">
        <ele>125</ele>
        <time>2023-02-01T14:04:15Z</time>
      </trkpt>
      <trkpt lat="49.76695" lon="2.31015">
        <ele>125</ele>
        <time>2023-02-01T14:04:16Z</time>
      </trkpt>
      <trkpt lat="49.76697" lon="2.31016">
        <ele>125</ele>
        <time>2023-02-01T14:04:17Z</time>
      </trkpt>
      <trkpt lat="49.76698" lon="2.31017">
        <ele>124.9</ele>
        <time>2023-02-01T14:04:18Z</time>
      </trkpt>
      <trkpt lat="49.767" lon="2.31017">
        <ele>124.9</ele>
        <time>2023-02-01T14:04:19Z</time>
      </trkpt>
      <trkpt lat="49.767" lon="2.31017">
        <ele>124.9</ele>
        <time>2023-02-01T14:04:20Z</time>
      </trkpt>
      <trkpt lat="49.76701" lon="2.31018">
        <ele>124.9</ele>
        <time>2023-02-01T14:04:21Z</time>
      </trkpt>
      <trkpt lat="49.76703" lon="2.31018">
        <ele>124.9</ele>
        <time>2023-02-01T14:04:22Z</time>
      </trkpt>
      <trkpt lat="49.76703" lon="2.31018">
        <ele>124.9</ele>
        <time>2023-02-01T14:04:23Z</time>
      </trkpt>
      <trkpt lat="49.76704" lon="2.31018">
        <ele>124.9</ele>
        <time>2023-02-01T14:04:24Z</time>
      </trkpt>
      <trkpt lat="49.76705" lon="2.31018">
        <ele>124.9</ele>
        <time>2023-02-01T14:04:25Z</time>
      </trkpt>
      <trkpt lat="49.76706" lon="2.31018">
        <ele>124.9</ele>
        <time>2023-02-01T14:04:26Z</time>
      </trkpt>
      <trkpt lat="49.76708" lon="2.31018">
        <ele>124.9</ele>
        <time>2023-02-01T14:04:27Z</time>
      </trkpt>
      <trkpt lat="49.76708" lon="2.31018">
        <ele>124.9</ele>
        <time>2023-02-01T14:04:28Z</time>
      </trkpt>
      <trkpt lat="49.76709" lon="2.31019">
        <ele>124.9</ele>
        <time>2023-02-01T14:04:29Z</time>
      </trkpt>
      <trkpt lat="49.7671" lon="2.31019">
        <ele>124.9</ele>
        <time>2023-02-01T14:04:30Z</time>
      </trkpt>
      <trkpt lat="49.76711" lon="2.31019">
        <ele>124.8</ele>
        <time>2023-02-01T14:04:31Z</time>
      </trkpt>
      <trkpt lat="49.76712" lon="2.3102">
        <ele>124.8</ele>
        <time>2023-02-01T14:04:32Z</time>
      </trkpt>
      <trkpt lat="49.76713" lon="2.3102">
        <ele>124.8</ele>
        <time>2023-02-01T14:04:33Z</time>
      </trkpt>
      <trkpt lat="49.76714" lon="2.3102">
        <ele>124.8</ele>
        <time>2023-02-01T14:04:34Z</time>
      </trkpt>
      <trkpt lat="49.76715" lon="2.3102">
        <ele>124.8</ele>
        <time>2023-02-01T14:04:35Z</time>
      </trkpt>
      <trkpt lat="49.76716" lon="2.31021">
        <ele>124.8</ele>
        <time>2023-02-01T14:04:36Z</time>
      </trkpt>
      <trkpt lat="49.76717" lon="2.31021">
        <ele>124.8</ele>
        <time>2023-02-01T14:04:37Z</time>
      </trkpt>
      <trkpt lat="49.76718" lon="2.31021">
        <ele>124.8</ele>
        <time>2023-02-01T14:04:38Z</time>
      </trkpt>
      <trkpt lat="49.76718" lon="2.31021">
        <ele>124.8</ele>
        <time>2023-02-01T14:04:39Z</time>
      </trkpt>
      <trkpt lat="49.76719" lon="2.31022">
        <ele>124.7</ele>
        <time>2023-02-01T14:04:40Z</time>
      </trkpt>
      <trkpt lat="49.7672" lon="2.31022">
        <ele>124.7</ele>
        <time>2023-02-01T14:04:41Z</time>
      </trkpt>
      <trkpt lat="49.76722" lon="2.31023">
        <ele>124.7</ele>
        <time>2023-02-01T14:04:42Z</time>
      </trkpt>
      <trkpt lat="49.76723" lon="2.31024">
        <ele>124.7</ele>
        <time>2023-02-01T14:04:43Z</time>
      </trkpt>
      <trkpt lat="49.76724" lon="2.31024">
        <ele>124.7</ele>
        <time>2023-02-01T14:04:44Z</time>
      </trkpt>
      <trkpt lat="49.76726" lon="2.31024">
        <ele>124.7</ele>
        <time>2023-02-01T14:04:45Z</time>
      </trkpt>
      <trkpt lat="49.76727" lon="2.31025">
        <ele>124.6</ele>
        <time>2023-02-01T14:04:46Z</time>
      </trkpt>
      <trkpt lat="49.76729" lon="2.31026">
        <ele>124.6</ele>
        <time>2023-02-01T14:04:47Z</time>
      </trkpt>
      <trkpt lat="49.7673" lon="2.31027">
        <ele>124.6</ele>
        <time>2023-02-01T14:04:48Z</time>
      </trkpt>
      <trkpt lat="49.7673" lon="2.31027">
        <ele>124.6</ele>
        <time>2023-02-01T14:04:49Z</time>
      </trkpt>
      <trkpt lat="49.76732" lon="2.31029">
        <ele>124.6</ele>
        <time>2023-02-01T14:04:50Z</time>
      </trkpt>
      <trkpt lat="49.76733" lon="2.31029">
        <ele>124.6</ele>
        <time>2023-02-01T14:04:52Z</time>
      </trkpt>
      <trkpt lat="49.76734" lon="2.3103">
        <ele>124.6</ele>
        <time>2023-02-01T14:04:53Z</time>
      </trkpt>
      <trkpt lat="49.76735" lon="2.31031">
        <ele>124.5</ele>
        <time>2023-02-01T14:04:54Z</time>
      </trkpt>
      <trkpt lat="49.76736" lon="2.31032">
        <ele>124.5</ele>
        <time>2023-02-01T14:04:56Z</time>
      </trkpt>
      <trkpt lat="49.76737" lon="2.31032">
        <ele>124.5</ele>
        <time>2023-02-01T14:04:57Z</time>
      </trkpt>
      <trkpt lat="49.76739" lon="2.31033">
        <ele>124.5</ele>
        <time>2023-02-01T14:04:58Z</time>
      </trkpt>
      <trkpt lat="49.7674" lon="2.31034">
        <ele>124.5</ele>
        <time>2023-02-01T14:04:59Z</time>
      </trkpt>
      <trkpt lat="49.7674" lon="2.31035">
        <ele>124.4</ele>
        <time>2023-02-01T14:05:00Z</time>
      </trkpt>
      <trkpt lat="49.76741" lon="2.31035">
        <ele>124.4</ele>
        <time>2023-02-01T14:05:01Z</time>
      </trkpt>
      <trkpt lat="49.76743" lon="2.31037">
        <ele>124.4</ele>
        <time>2023-02-01T14:05:02Z</time>
      </trkpt>
      <trkpt lat="49.76744" lon="2.31037">
        <ele>124.4</ele>
        <time>2023-02-01T14:05:03Z</time>
      </trkpt>
      <trkpt lat="49.76745" lon="2.31037">
        <ele>124.4</ele>
        <time>2023-02-01T14:05:04Z</time>
      </trkpt>
      <trkpt lat="49.76747" lon="2.31039">
        <ele>124.3</ele>
        <time>2023-02-01T14:05:05Z</time>
      </trkpt>
      <trkpt lat="49.76747" lon="2.31039">
        <ele>124.3</ele>
        <time>2023-02-01T14:05:07Z</time>
      </trkpt>
      <trkpt lat="49.76748" lon="2.31039">
        <ele>124.3</ele>
        <time>2023-02-01T14:05:08Z</time>
      </trkpt>
      <trkpt lat="49.76749" lon="2.3104">
        <ele>124.3</ele>
        <time>2023-02-01T14:05:09Z</time>
      </trkpt>
      <trkpt lat="49.7675" lon="2.3104">
        <ele>124.3</ele>
        <time>2023-02-01T14:05:10Z</time>
      </trkpt>
      <trkpt lat="49.76751" lon="2.3104">
        <ele>124.3</ele>
        <time>2023-02-01T14:05:11Z</time>
      </trkpt>
      <trkpt lat="49.76753" lon="2.3104">
        <ele>124.2</ele>
        <time>2023-02-01T14:05:12Z</time>
      </trkpt>
      <trkpt lat="49.76754" lon="2.3104">
        <ele>124.2</ele>
        <time>2023-02-01T14:05:13Z</time>
      </trkpt>
      <trkpt lat="49.76755" lon="2.3104">
        <ele>124.2</ele>
        <time>2023-02-01T14:05:14Z</time>
      </trkpt>
      <trkpt lat="49.76757" lon="2.31041">
        <ele>124.2</ele>
        <time>2023-02-01T14:05:15Z</time>
      </trkpt>
      <trkpt lat="49.76758" lon="2.3104">
        <ele>124.2</ele>
        <time>2023-02-01T14:05:17Z</time>
      </trkpt>
      <trkpt lat="49.76758" lon="2.3104">
        <ele>124.1</ele>
        <time>2023-02-01T14:05:18Z</time>
      </trkpt>
      <trkpt lat="49.76759" lon="2.3104">
        <ele>124.1</ele>
        <time>2023-02-01T14:05:19Z</time>
      </trkpt>
      <trkpt lat="49.7676" lon="2.3104">
        <ele>124.1</ele>
        <time>2023-02-01T14:05:20Z</time>
      </trkpt>
      <trkpt lat="49.76762" lon="2.3104">
        <ele>124.1</ele>
        <time>2023-02-01T14:05:21Z</time>
      </trkpt>
      <trkpt lat="49.76764" lon="2.31039">
        <ele>124</ele>
        <time>2023-02-01T14:05:22Z</time>
      </trkpt>
      <trkpt lat="49.76765" lon="2.31039">
        <ele>124</ele>
        <time>2023-02-01T14:05:23Z</time>
      </trkpt>
      <trkpt lat="49.76765" lon="2.31039">
        <ele>124</ele>
        <time>2023-02-01T14:05:24Z</time>
      </trkpt>
      <trkpt lat="49.76767" lon="2.31038">
        <ele>124</ele>
        <time>2023-02-01T14:05:25Z</time>
      </trkpt>
      <trkpt lat="49.76768" lon="2.31038">
        <ele>123.9</ele>
        <time>2023-02-01T14:05:26Z</time>
      </trkpt>
      <trkpt lat="49.76771" lon="2.31039">
        <ele>123.9</ele>
        <time>2023-02-01T14:05:27Z</time>
      </trkpt>
      <trkpt lat="49.76772" lon="2.31039">
        <ele>123.8</ele>
        <time>2023-02-01T14:05:29Z</time>
      </trkpt>
      <trkpt lat="49.76773" lon="2.31039">
        <ele>123.8</ele>
        <time>2023-02-01T14:05:30Z</time>
      </trkpt>
      <trkpt lat="49.76774" lon="2.31039">
        <ele>123.8</ele>
        <time>2023-02-01T14:05:31Z</time>
      </trkpt>
      <trkpt lat="49.76776" lon="2.31039">
        <ele>123.7</ele>
        <time>2023-02-01T14:05:32Z</time>
      </trkpt>
      <trkpt lat="49.76777" lon="2.31039">
        <ele>123.7</ele>
        <time>2023-02-01T14:05:33Z</time>
      </trkpt>
      <trkpt lat="49.76778" lon="2.31039">
        <ele>123.7</ele>
        <time>2023-02-01T14:05:34Z</time>
      </trkpt>
      <trkpt lat="49.76779" lon="2.31039">
        <ele>123.6</ele>
        <time>2023-02-01T14:05:36Z</time>
      </trkpt>
      <trkpt lat="49.76781" lon="2.31039">
        <ele>123.6</ele>
        <time>2023-02-01T14:05:37Z</time>
      </trkpt>
      <trkpt lat="49.76782" lon="2.31039">
        <ele>123.5</ele>
        <time>2023-02-01T14:05:38Z</time>
      </trkpt>
      <trkpt lat="49.76784" lon="2.31039">
        <ele>123.5</ele>
        <time>2023-02-01T14:05:39Z</time>
      </trkpt>
      <trkpt lat="49.76786" lon="2.31039">
        <ele>123.4</ele>
        <time>2023-02-01T14:05:41Z</time>
      </trkpt>
      <trkpt lat="49.76787" lon="2.31039">
        <ele>123.4</ele>
        <time>2023-02-01T14:05:42Z</time>
      </trkpt>
      <trkpt lat="49.76788" lon="2.31039">
        <ele>123.3</ele>
        <time>2023-02-01T14:05:43Z</time>
      </trkpt>
      <trkpt lat="49.76789" lon="2.31039">
        <ele>123.3</ele>
        <time>2023-02-01T14:05:44Z</time>
      </trkpt>
      <trkpt lat="49.76791" lon="2.31039">
        <ele>123.3</ele>
        <time>2023-02-01T14:05:45Z</time>
      </trkpt>
      <trkpt lat="49.76792" lon="2.31039">
        <ele>123.2</ele>
        <time>2023-02-01T14:05:46Z</time>
      </trkpt>
      <trkpt lat="49.76794" lon="2.31039">
        <ele>123.2</ele>
        <time>2023-02-01T14:05:48Z</time>
      </trkpt>
      <trkpt lat="49.76795" lon="2.31038">
        <ele>123.1</ele>
        <time>2023-02-01T14:05:49Z</time>
      </trkpt>
      <trkpt lat="49.76797" lon="2.31038">
        <ele>123</ele>
        <time>2023-02-01T14:05:50Z</time>
      </trkpt>
      <trkpt lat="49.76798" lon="2.31037">
        <ele>123</ele>
        <time>2023-02-01T14:05:51Z</time>
      </trkpt>
      <trkpt lat="49.76799" lon="2.31037">
        <ele>123</ele>
        <time>2023-02-01T14:05:52Z</time>
      </trkpt>
      <trkpt lat="49.768" lon="2.31036">
        <ele>122.9</ele>
        <time>2023-02-01T14:05:53Z</time>
      </trkpt>
      <trkpt lat="49.76802" lon="2.31036">
        <ele>122.9</ele>
        <time>2023-02-01T14:05:54Z</time>
      </trkpt>
      <trkpt lat="49.76803" lon="2.31035">
        <ele>122.8</ele>
        <time>2023-02-01T14:05:55Z</time>
      </trkpt>
      <trkpt lat="49.76804" lon="2.31035">
        <ele>122.8</ele>
        <time>2023-02-01T14:05:56Z</time>
      </trkpt>
      <trkpt lat="49.76806" lon="2.31035">
        <ele>122.7</ele>
        <time>2023-02-01T14:05:58Z</time>
      </trkpt>
      <trkpt lat="49.76806" lon="2.31034">
        <ele>122.7</ele>
        <time>2023-02-01T14:05:59Z</time>
      </trkpt>
      <trkpt lat="49.76807" lon="2.31034">
        <ele>122.6</ele>
        <time>2023-02-01T14:06:00Z</time>
      </trkpt>
      <trkpt lat="49.76809" lon="2.31033">
        <ele>122.6</ele>
        <time>2023-02-01T14:06:01Z</time>
      </trkpt>
      <trkpt lat="49.7681" lon="2.31033">
        <ele>122.6</ele>
        <time>2023-02-01T14:06:02Z</time>
      </trkpt>
      <trkpt lat="49.76811" lon="2.31032">
        <ele>122.5</ele>
        <time>2023-02-01T14:06:03Z</time>
      </trkpt>
      <trkpt lat="49.76812" lon="2.31032">
        <ele>122.4</ele>
        <time>2023-02-01T14:06:04Z</time>
      </trkpt>
      <trkpt lat="49.76814" lon="2.31031">
        <ele>122.4</ele>
        <time>2023-02-01T14:06:05Z</time>
      </trkpt>
      <trkpt lat="49.76814" lon="2.31031">
        <ele>122.3</ele>
        <time>2023-02-01T14:06:06Z</time>
      </trkpt>
      <trkpt lat="49.76816" lon="2.3103">
        <ele>122.3</ele>
        <time>2023-02-01T14:06:08Z</time>
      </trkpt>
      <trkpt lat="49.76817" lon="2.3103">
        <ele>122.2</ele>
        <time>2023-02-01T14:06:09Z</time>
      </trkpt>
      <trkpt lat="49.76818" lon="2.3103">
        <ele>122.2</ele>
        <time>2023-02-01T14:06:10Z</time>
      </trkpt>
      <trkpt lat="49.76819" lon="2.31029">
        <ele>122.1</ele>
        <time>2023-02-01T14:06:11Z</time>
      </trkpt>
      <trkpt lat="49.76821" lon="2.31029">
        <ele>122.1</ele>
        <time>2023-02-01T14:06:12Z</time>
      </trkpt>
      <trkpt lat="49.76823" lon="2.31028">
        <ele>122</ele>
        <time>2023-02-01T14:06:14Z</time>
      </trkpt>
      <trkpt lat="49.76824" lon="2.31027">
        <ele>121.9</ele>
        <time>2023-02-01T14:06:16Z</time>
      </trkpt>
      <trkpt lat="49.76825" lon="2.31027">
        <ele>121.9</ele>
        <time>2023-02-01T14:06:17Z</time>
      </trkpt>
      <trkpt lat="49.76827" lon="2.31026">
        <ele>121.8</ele>
        <time>2023-02-01T14:06:18Z</time>
      </trkpt>
      <trkpt lat="49.76829" lon="2.31026">
        <ele>121.8</ele>
        <time>2023-02-01T14:06:19Z</time>
      </trkpt>
      <trkpt lat="49.7683" lon="2.31025">
        <ele>121.7</ele>
        <time>2023-02-01T14:06:20Z</time>
      </trkpt>
      <trkpt lat="49.76832" lon="2.31025">
        <ele>121.7</ele>
        <time>2023-02-01T14:06:22Z</time>
      </trkpt>
      <trkpt lat="49.76833" lon="2.31024">
        <ele>121.6</ele>
        <time>2023-02-01T14:06:23Z</time>
      </trkpt>
      <trkpt lat="49.76835" lon="2.31024">
        <ele>121.6</ele>
        <time>2023-02-01T14:06:24Z</time>
      </trkpt>
      <trkpt lat="49.76836" lon="2.31024">
        <ele>121.5</ele>
        <time>2023-02-01T14:06:25Z</time>
      </trkpt>
      <trkpt lat="49.76837" lon="2.31023">
        <ele>121.5</ele>
        <time>2023-02-01T14:06:26Z</time>
      </trkpt>
      <trkpt lat="49.76838" lon="2.31023">
        <ele>121.5</ele>
        <time>2023-02-01T14:06:27Z</time>
      </trkpt>
      <trkpt lat="49.7684" lon="2.31023">
        <ele>121.4</ele>
        <time>2023-02-01T14:06:28Z</time>
      </trkpt>
      <trkpt lat="49.76841" lon="2.31023">
        <ele>121.4</ele>
        <time>2023-02-01T14:06:29Z</time>
      </trkpt>
      <trkpt lat="49.76842" lon="2.31023">
        <ele>121.3</ele>
        <time>2023-02-01T14:06:31Z</time>
      </trkpt>
      <trkpt lat="49.76843" lon="2.31024">
        <ele>121.3</ele>
        <time>2023-02-01T14:06:32Z</time>
      </trkpt>
      <trkpt lat="49.76845" lon="2.31024">
        <ele>121.3</ele>
        <time>2023-02-01T14:06:33Z</time>
      </trkpt>
      <trkpt lat="49.76846" lon="2.31024">
        <ele>121.2</ele>
        <time>2023-02-01T14:06:34Z</time>
      </trkpt>
      <trkpt lat="49.76848" lon="2.31024">
        <ele>121.2</ele>
        <time>2023-02-01T14:06:35Z</time>
      </trkpt>
      <trkpt lat="49.76849" lon="2.31023">
        <ele>121.2</ele>
        <time>2023-02-01T14:06:36Z</time>
      </trkpt>
      <trkpt lat="49.76851" lon="2.31023">
        <ele>121.1</ele>
        <time>2023-02-01T14:06:37Z</time>
      </trkpt>
      <trkpt lat="49.76853" lon="2.31022">
        <ele>121.1</ele>
        <time>2023-02-01T14:06:39Z</time>
      </trkpt>
      <trkpt lat="49.76854" lon="2.31022">
        <ele>121</ele>
        <time>2023-02-01T14:06:40Z</time>
      </trkpt>
      <trkpt lat="49.76855" lon="2.31022">
        <ele>121</ele>
        <time>2023-02-01T14:06:41Z</time>
      </trkpt>
      <trkpt lat="49.76857" lon="2.31022">
        <ele>121</ele>
        <time>2023-02-01T14:06:42Z</time>
      </trkpt>
      <trkpt lat="49.76858" lon="2.31021">
        <ele>120.9</ele>
        <time>2023-02-01T14:06:43Z</time>
      </trkpt>
      <trkpt lat="49.7686" lon="2.3102">
        <ele>120.9</ele>
        <time>2023-02-01T14:06:44Z</time>
      </trkpt>
      <trkpt lat="49.76861" lon="2.3102">
        <ele>120.9</ele>
        <time>2023-02-01T14:06:45Z</time>
      </trkpt>
      <trkpt lat="49.76863" lon="2.31019">
        <ele>120.8</ele>
        <time>2023-02-01T14:06:47Z</time>
      </trkpt>
      <trkpt lat="49.76865" lon="2.31018">
        <ele>120.8</ele>
        <time>2023-02-01T14:06:49Z</time>
      </trkpt>
      <trkpt lat="49.76866" lon="2.31018">
        <ele>120.8</ele>
        <time>2023-02-01T14:06:50Z</time>
      </trkpt>
      <trkpt lat="49.76867" lon="2.31018">
        <ele>120.8</ele>
        <time>2023-02-01T14:06:51Z</time>
      </trkpt>
      <trkpt lat="49.76868" lon="2.31017">
        <ele>120.7</ele>
        <time>2023-02-01T14:06:52Z</time>
      </trkpt>
      <trkpt lat="49.7687" lon="2.31016">
        <ele>120.7</ele>
        <time>2023-02-01T14:06:53Z</time>
      </trkpt>
      <trkpt lat="49.76871" lon="2.31016">
        <ele>120.7</ele>
        <time>2023-02-01T14:06:55Z</time>
      </trkpt>
      <trkpt lat="49.76872" lon="2.31016">
        <ele>120.7</ele>
        <time>2023-02-01T14:06:56Z</time>
      </trkpt>
      <trkpt lat="49.76873" lon="2.31015">
        <ele>120.7</ele>
        <time>2023-02-01T14:06:57Z</time>
      </trkpt>
      <trkpt lat="49.76874" lon="2.31015">
        <ele>120.6</ele>
        <time>2023-02-01T14:06:58Z</time>
      </trkpt>
      <trkpt lat="49.76875" lon="2.31015">
        <ele>120.6</ele>
        <time>2023-02-01T14:06:59Z</time>
      </trkpt>
      <trkpt lat="49.76876" lon="2.31014">
        <ele>120.6</ele>
        <time>2023-02-01T14:07:00Z</time>
      </trkpt>
      <trkpt lat="49.76877" lon="2.31013">
        <ele>120.6</ele>
        <time>2023-02-01T14:07:02Z</time>
      </trkpt>
      <trkpt lat="49.76878" lon="2.31012">
        <ele>120.6</ele>
        <time>2023-02-01T14:07:03Z</time>
      </trkpt>
      <trkpt lat="49.7688" lon="2.31011">
        <ele>120.6</ele>
        <time>2023-02-01T14:07:04Z</time>
      </trkpt>
      <trkpt lat="49.76881" lon="2.31011">
        <ele>120.5</ele>
        <time>2023-02-01T14:07:05Z</time>
      </trkpt>
      <trkpt lat="49.76882" lon="2.31011">
        <ele>120.5</ele>
        <time>2023-02-01T14:07:06Z</time>
      </trkpt>
      <trkpt lat="49.76883" lon="2.31011">
        <ele>120.5</ele>
        <time>2023-02-01T14:07:07Z</time>
      </trkpt>
      <trkpt lat="49.76885" lon="2.31011">
        <ele>120.5</ele>
        <time>2023-02-01T14:07:09Z</time>
      </trkpt>
      <trkpt lat="49.76886" lon="2.3101">
        <ele>120.5</ele>
        <time>2023-02-01T14:07:10Z</time>
      </trkpt>
      <trkpt lat="49.76887" lon="2.3101">
        <ele>120.5</ele>
        <time>2023-02-01T14:07:11Z</time>
      </trkpt>
      <trkpt lat="49.76888" lon="2.31009">
        <ele>120.5</ele>
        <time>2023-02-01T14:07:12Z</time>
      </trkpt>
      <trkpt lat="49.7689" lon="2.31009">
        <ele>120.4</ele>
        <time>2023-02-01T14:07:13Z</time>
      </trkpt>
      <trkpt lat="49.76891" lon="2.31008">
        <ele>120.4</ele>
        <time>2023-02-01T14:07:14Z</time>
      </trkpt>
      <trkpt lat="49.76892" lon="2.31008">
        <ele>120.4</ele>
        <time>2023-02-01T14:07:15Z</time>
      </trkpt>
      <trkpt lat="49.76894" lon="2.31008">
        <ele>120.4</ele>
        <time>2023-02-01T14:07:16Z</time>
      </trkpt>
      <trkpt lat="49.76895" lon="2.31007">
        <ele>120.4</ele>
        <time>2023-02-01T14:07:17Z</time>
      </trkpt>
      <trkpt lat="49.76896" lon="2.31007">
        <ele>120.4</ele>
        <time>2023-02-01T14:07:18Z</time>
      </trkpt>
      <trkpt lat="49.76897" lon="2.31007">
        <ele>120.3</ele>
        <time>2023-02-01T14:07:20Z</time>
      </trkpt>
      <trkpt lat="49.76898" lon="2.31007">
        <ele>120.3</ele>
        <time>2023-02-01T14:07:21Z</time>
      </trkpt>
      <trkpt lat="49.76899" lon="2.31007">
        <ele>120.3</ele>
        <time>2023-02-01T14:07:22Z</time>
      </trkpt>
      <trkpt lat="49.76901" lon="2.31007">
        <ele>120.3</ele>
        <time>2023-02-01T14:07:23Z</time>
      </trkpt>
      <trkpt lat="49.76902" lon="2.31007">
        <ele>120.3</ele>
        <time>2023-02-01T14:07:24Z</time>
      </trkpt>
      <trkpt lat="49.76904" lon="2.31007">
        <ele>120.2</ele>
        <time>2023-02-01T14:07:26Z</time>
      </trkpt>
      <trkpt lat="49.76906" lon="2.31007">
        <ele>120.2</ele>
        <time>2023-02-01T14:07:27Z</time>
      </trkpt>
      <trkpt lat="49.76906" lon="2.31007">
        <ele>120.2</ele>
        <time>2023-02-01T14:07:28Z</time>
      </trkpt>
      <trkpt lat="49.76907" lon="2.31007">
        <ele>120.2</ele>
        <time>2023-02-01T14:07:29Z</time>
      </trkpt>
      <trkpt lat="49.76908" lon="2.31007">
        <ele>120.1</ele>
        <time>2023-02-01T14:07:30Z</time>
      </trkpt>
      <trkpt lat="49.7691" lon="2.31007">
        <ele>120.1</ele>
        <time>2023-02-01T14:07:32Z</time>
      </trkpt>
      <trkpt lat="49.76911" lon="2.31007">
        <ele>120.1</ele>
        <time>2023-02-01T14:07:33Z</time>
      </trkpt>
      <trkpt lat="49.76912" lon="2.31007">
        <ele>120.1</ele>
        <time>2023-02-01T14:07:34Z</time>
      </trkpt>
      <trkpt lat="49.76913" lon="2.31007">
        <ele>120.1</ele>
        <time>2023-02-01T14:07:35Z</time>
      </trkpt>
      <trkpt lat="49.76915" lon="2.31008">
        <ele>120</ele>
        <time>2023-02-01T14:07:37Z</time>
      </trkpt>
      <trkpt lat="49.76916" lon="2.31008">
        <ele>120</ele>
        <time>2023-02-01T14:07:38Z</time>
      </trkpt>
      <trkpt lat="49.76919" lon="2.31009">
        <ele>120</ele>
        <time>2023-02-01T14:07:39Z</time>
      </trkpt>
      <trkpt lat="49.76919" lon="2.31009">
        <ele>120</ele>
        <time>2023-02-01T14:07:40Z</time>
      </trkpt>
      <trkpt lat="49.7692" lon="2.31009">
        <ele>120</ele>
        <time>2023-02-01T14:07:41Z</time>
      </trkpt>
      <trkpt lat="49.76921" lon="2.3101">
        <ele>119.9</ele>
        <time>2023-02-01T14:07:42Z</time>
      </trkpt>
      <trkpt lat="49.76923" lon="2.31009">
        <ele>119.9</ele>
        <time>2023-02-01T14:07:43Z</time>
      </trkpt>
      <trkpt lat="49.76924" lon="2.31009">
        <ele>119.9</ele>
        <time>2023-02-01T14:07:44Z</time>
      </trkpt>
      <trkpt lat="49.76925" lon="2.31009">
        <ele>119.9</ele>
        <time>2023-02-01T14:07:45Z</time>
      </trkpt>
      <trkpt lat="49.76927" lon="2.31009">
        <ele>119.9</ele>
        <time>2023-02-01T14:07:46Z</time>
      </trkpt>
      <trkpt lat="49.76928" lon="2.31009">
        <ele>119.9</ele>
        <time>2023-02-01T14:07:47Z</time>
      </trkpt>
      <trkpt lat="49.7693" lon="2.31008">
        <ele>119.8</ele>
        <time>2023-02-01T14:07:49Z</time>
      </trkpt>
      <trkpt lat="49.76931" lon="2.31008">
        <ele>119.8</ele>
        <time>2023-02-01T14:07:50Z</time>
      </trkpt>
      <trkpt lat="49.76932" lon="2.31007">
        <ele>119.8</ele>
        <time>2023-02-01T14:07:51Z</time>
      </trkpt>
      <trkpt lat="49.76933" lon="2.31007">
        <ele>119.8</ele>
        <time>2023-02-01T14:07:52Z</time>
      </trkpt>
      <trkpt lat="49.76935" lon="2.31006">
        <ele>119.8</ele>
        <time>2023-02-01T14:07:53Z</time>
      </trkpt>
      <trkpt lat="49.76936" lon="2.31006">
        <ele>119.7</ele>
        <time>2023-02-01T14:07:54Z</time>
      </trkpt>
      <trkpt lat="49.76938" lon="2.31005">
        <ele>119.7</ele>
        <time>2023-02-01T14:07:55Z</time>
      </trkpt>
      <trkpt lat="49.76939" lon="2.31005">
        <ele>119.7</ele>
        <time>2023-02-01T14:07:56Z</time>
      </trkpt>
      <trkpt lat="49.7694" lon="2.31005">
        <ele>119.7</ele>
        <time>2023-02-01T14:07:57Z</time>
      </trkpt>
      <trkpt lat="49.76942" lon="2.31004">
        <ele>119.7</ele>
        <time>2023-02-01T14:07:58Z</time>
      </trkpt>
      <trkpt lat="49.76942" lon="2.31004">
        <ele>119.6</ele>
        <time>2023-02-01T14:08:00Z</time>
      </trkpt>
      <trkpt lat="49.76943" lon="2.31004">
        <ele>119.6</ele>
        <time>2023-02-01T14:08:01Z</time>
      </trkpt>
      <trkpt lat="49.76945" lon="2.31003">
        <ele>119.6</ele>
        <time>2023-02-01T14:08:02Z</time>
      </trkpt>
      <trkpt lat="49.76946" lon="2.31003">
        <ele>119.6</ele>
        <time>2023-02-01T14:08:03Z</time>
      </trkpt>
      <trkpt lat="49.76947" lon="2.31002">
        <ele>119.6</ele>
        <time>2023-02-01T14:08:04Z</time>
      </trkpt>
      <trkpt lat="49.76948" lon="2.31002">
        <ele>119.6</ele>
        <time>2023-02-01T14:08:05Z</time>
      </trkpt>
      <trkpt lat="49.76949" lon="2.31001">
        <ele>119.6</ele>
        <time>2023-02-01T14:08:06Z</time>
      </trkpt>
      <trkpt lat="49.7695" lon="2.31001">
        <ele>119.6</ele>
        <time>2023-02-01T14:08:07Z</time>
      </trkpt>
      <trkpt lat="49.76952" lon="2.31">
        <ele>119.5</ele>
        <time>2023-02-01T14:08:08Z</time>
      </trkpt>
      <trkpt lat="49.76953" lon="2.31">
        <ele>119.5</ele>
        <time>2023-02-01T14:08:10Z</time>
      </trkpt>
      <trkpt lat="49.76954" lon="2.31">
        <ele>119.5</ele>
        <time>2023-02-01T14:08:11Z</time>
      </trkpt>
      <trkpt lat="49.76955" lon="2.30999">
        <ele>119.5</ele>
        <time>2023-02-01T14:08:12Z</time>
      </trkpt>
      <trkpt lat="49.76956" lon="2.30998">
        <ele>119.5</ele>
        <time>2023-02-01T14:08:13Z</time>
      </trkpt>
      <trkpt lat="49.76957" lon="2.30998">
        <ele>119.5</ele>
        <time>2023-02-01T14:08:14Z</time>
      </trkpt>
      <trkpt lat="49.76958" lon="2.30997">
        <ele>119.5</ele>
        <time>2023-02-01T14:08:16Z</time>
      </trkpt>
      <trkpt lat="49.76959" lon="2.30997">
        <ele>119.5</ele>
        <time>2023-02-01T14:08:17Z</time>
      </trkpt>
      <trkpt lat="49.7696" lon="2.30996">
        <ele>119.5</ele>
        <time>2023-02-01T14:08:18Z</time>
      </trkpt>
      <trkpt lat="49.76962" lon="2.30995">
        <ele>119.5</ele>
        <time>2023-02-01T14:08:20Z</time>
      </trkpt>
      <trkpt lat="49.76963" lon="2.30994">
        <ele>119.4</ele>
        <time>2023-02-01T14:08:21Z</time>
      </trkpt>
      <trkpt lat="49.76964" lon="2.30994">
        <ele>119.4</ele>
        <time>2023-02-01T14:08:22Z</time>
      </trkpt>
      <trkpt lat="49.76965" lon="2.30993">
        <ele>119.4</ele>
        <time>2023-02-01T14:08:23Z</time>
      </trkpt>
      <trkpt lat="49.76966" lon="2.30993">
        <ele>119.4</ele>
        <time>2023-02-01T14:08:24Z</time>
      </trkpt>
      <trkpt lat="49.76967" lon="2.30993">
        <ele>119.4</ele>
        <time>2023-02-01T14:08:25Z</time>
      </trkpt>
      <trkpt lat="49.76968" lon="2.30992">
        <ele>119.4</ele>
        <time>2023-02-01T14:08:26Z</time>
      </trkpt>
      <trkpt lat="49.76969" lon="2.30991">
        <ele>119.4</ele>
        <time>2023-02-01T14:08:27Z</time>
      </trkpt>
      <trkpt lat="49.76971" lon="2.3099">
        <ele>119.4</ele>
        <time>2023-02-01T14:08:28Z</time>
      </trkpt>
      <trkpt lat="49.76972" lon="2.3099">
        <ele>119.4</ele>
        <time>2023-02-01T14:08:29Z</time>
      </trkpt>
      <trkpt lat="49.76973" lon="2.30989">
        <ele>119.4</ele>
        <time>2023-02-01T14:08:31Z</time>
      </trkpt>
      <trkpt lat="49.76974" lon="2.30988">
        <ele>119.4</ele>
        <time>2023-02-01T14:08:32Z</time>
      </trkpt>
      <trkpt lat="49.76975" lon="2.30988">
        <ele>119.4</ele>
        <time>2023-02-01T14:08:33Z</time>
      </trkpt>
      <trkpt lat="49.76976" lon="2.30987">
        <ele>119.4</ele>
        <time>2023-02-01T14:08:34Z</time>
      </trkpt>
      <trkpt lat="49.76977" lon="2.30986">
        <ele>119.4</ele>
        <time>2023-02-01T14:08:36Z</time>
      </trkpt>
      <trkpt lat="49.76979" lon="2.30984">
        <ele>119.4</ele>
        <time>2023-02-01T14:08:37Z</time>
      </trkpt>
      <trkpt lat="49.7698" lon="2.30983">
        <ele>119.4</ele>
        <time>2023-02-01T14:08:38Z</time>
      </trkpt>
      <trkpt lat="49.76981" lon="2.30982">
        <ele>119.4</ele>
        <time>2023-02-01T14:08:39Z</time>
      </trkpt>
      <trkpt lat="49.76981" lon="2.30981">
        <ele>119.4</ele>
        <time>2023-02-01T14:08:40Z</time>
      </trkpt>
      <trkpt lat="49.76982" lon="2.3098">
        <ele>119.4</ele>
        <time>2023-02-01T14:08:41Z</time>
      </trkpt>
      <trkpt lat="49.76983" lon="2.30978">
        <ele>119.4</ele>
        <time>2023-02-01T14:08:42Z</time>
      </trkpt>
      <trkpt lat="49.76984" lon="2.30977">
        <ele>119.4</ele>
        <time>2023-02-01T14:08:43Z</time>
      </trkpt>
      <trkpt lat="49.76985" lon="2.30975">
        <ele>119.4</ele>
        <time>2023-02-01T14:08:44Z</time>
      </trkpt>
      <trkpt lat="49.76985" lon="2.30974">
        <ele>119.4</ele>
        <time>2023-02-01T14:08:46Z</time>
      </trkpt>
      <trkpt lat="49.76986" lon="2.30973">
        <ele>119.4</ele>
        <time>2023-02-01T14:08:47Z</time>
      </trkpt>
      <trkpt lat="49.76986" lon="2.30971">
        <ele>119.5</ele>
        <time>2023-02-01T14:08:48Z</time>
      </trkpt>
      <trkpt lat="49.76987" lon="2.30969">
        <ele>119.5</ele>
        <time>2023-02-01T14:08:49Z</time>
      </trkpt>
      <trkpt lat="49.76988" lon="2.30967">
        <ele>119.5</ele>
        <time>2023-02-01T14:08:50Z</time>
      </trkpt>
      <trkpt lat="49.76988" lon="2.30965">
        <ele>119.5</ele>
        <time>2023-02-01T14:08:51Z</time>
      </trkpt>
      <trkpt lat="49.76988" lon="2.30964">
        <ele>119.5</ele>
        <time>2023-02-01T14:08:52Z</time>
      </trkpt>
      <trkpt lat="49.76989" lon="2.30961">
        <ele>119.5</ele>
        <time>2023-02-01T14:08:53Z</time>
      </trkpt>
      <trkpt lat="49.76989" lon="2.3096">
        <ele>119.6</ele>
        <time>2023-02-01T14:08:55Z</time>
      </trkpt>
      <trkpt lat="49.7699" lon="2.30959">
        <ele>119.6</ele>
        <time>2023-02-01T14:08:56Z</time>
      </trkpt>
      <trkpt lat="49.76991" lon="2.30956">
        <ele>119.6</ele>
        <time>2023-02-01T14:08:57Z</time>
      </trkpt>
      <trkpt lat="49.76991" lon="2.30954">
        <ele>119.6</ele>
        <time>2023-02-01T14:08:58Z</time>
      </trkpt>
      <trkpt lat="49.76991" lon="2.30953">
        <ele>119.6</ele>
        <time>2023-02-01T14:08:59Z</time>
      </trkpt>
      <trkpt lat="49.76992" lon="2.30952">
        <ele>119.7</ele>
        <time>2023-02-01T14:09:00Z</time>
      </trkpt>
      <trkpt lat="49.76992" lon="2.3095">
        <ele>119.7</ele>
        <time>2023-02-01T14:09:01Z</time>
      </trkpt>
      <trkpt lat="49.76992" lon="2.30948">
        <ele>119.7</ele>
        <time>2023-02-01T14:09:03Z</time>
      </trkpt>
      <trkpt lat="49.76993" lon="2.30946">
        <ele>119.7</ele>
        <time>2023-02-01T14:09:04Z</time>
      </trkpt>
      <trkpt lat="49.76993" lon="2.30945">
        <ele>119.8</ele>
        <time>2023-02-01T14:09:05Z</time>
      </trkpt>
      <trkpt lat="49.76994" lon="2.30944">
        <ele>119.8</ele>
        <time>2023-02-01T14:09:06Z</time>
      </trkpt>
      <trkpt lat="49.76994" lon="2.30941">
        <ele>119.8</ele>
        <time>2023-02-01T14:09:07Z</time>
      </trkpt>
      <trkpt lat="49.76994" lon="2.3094">
        <ele>119.8</ele>
        <time>2023-02-01T14:09:08Z</time>
      </trkpt>
      <trkpt lat="49.76995" lon="2.30938">
        <ele>119.9</ele>
        <time>2023-02-01T14:09:09Z</time>
      </trkpt>
      <trkpt lat="49.76995" lon="2.30935">
        <ele>119.9</ele>
        <time>2023-02-01T14:09:11Z</time>
      </trkpt>
      <trkpt lat="49.76995" lon="2.30934">
        <ele>119.9</ele>
        <time>2023-02-01T14:09:12Z</time>
      </trkpt>
      <trkpt lat="49.76995" lon="2.30933">
        <ele>119.9</ele>
        <time>2023-02-01T14:09:13Z</time>
      </trkpt>
      <trkpt lat="49.76996" lon="2.30929">
        <ele>120</ele>
        <time>2023-02-01T14:09:14Z</time>
      </trkpt>
      <trkpt lat="49.76996" lon="2.30928">
        <ele>120</ele>
        <time>2023-02-01T14:09:15Z</time>
      </trkpt>
      <trkpt lat="49.76996" lon="2.30927">
        <ele>120</ele>
        <time>2023-02-01T14:09:16Z</time>
      </trkpt>
      <trkpt lat="49.76996" lon="2.30925">
        <ele>120</ele>
        <time>2023-02-01T14:09:17Z</time>
      </trkpt>
      <trkpt lat="49.76996" lon="2.30923">
        <ele>120.1</ele>
        <time>2023-02-01T14:09:19Z</time>
      </trkpt>
      <trkpt lat="49.76996" lon="2.30921">
        <ele>120.1</ele>
        <time>2023-02-01T14:09:20Z</time>
      </trkpt>
      <trkpt lat="49.76996" lon="2.3092">
        <ele>120.1</ele>
        <time>2023-02-01T14:09:21Z</time>
      </trkpt>
      <trkpt lat="49.76996" lon="2.30918">
        <ele>120.1</ele>
        <time>2023-02-01T14:09:22Z</time>
      </trkpt>
      <trkpt lat="49.76997" lon="2.30915">
        <ele>120.1</ele>
        <time>2023-02-01T14:09:23Z</time>
      </trkpt>
      <trkpt lat="49.76997" lon="2.30914">
        <ele>120.1</ele>
        <time>2023-02-01T14:09:24Z</time>
      </trkpt>
      <trkpt lat="49.76997" lon="2.30912">
        <ele>120.1</ele>
        <time>2023-02-01T14:09:25Z</time>
      </trkpt>
      <trkpt lat="49.76997" lon="2.30909">
        <ele>120.1</ele>
        <time>2023-02-01T14:09:26Z</time>
      </trkpt>
      <trkpt lat="49.76997" lon="2.30907">
        <ele>120.1</ele>
        <time>2023-02-01T14:09:28Z</time>
      </trkpt>
      <trkpt lat="49.76997" lon="2.30905">
        <ele>120.1</ele>
        <time>2023-02-01T14:09:29Z</time>
      </trkpt>
      <trkpt lat="49.76997" lon="2.30902">
        <ele>120.1</ele>
        <time>2023-02-01T14:09:30Z</time>
      </trkpt>
      <trkpt lat="49.76996" lon="2.30901">
        <ele>120.1</ele>
        <time>2023-02-01T14:09:31Z</time>
      </trkpt>
      <trkpt lat="49.76996" lon="2.30899">
        <ele>120.1</ele>
        <time>2023-02-01T14:09:32Z</time>
      </trkpt>
      <trkpt lat="49.76996" lon="2.30897">
        <ele>120.1</ele>
        <time>2023-02-01T14:09:33Z</time>
      </trkpt>
      <trkpt lat="49.76996" lon="2.30895">
        <ele>120</ele>
        <time>2023-02-01T14:09:34Z</time>
      </trkpt>
      <trkpt lat="49.76996" lon="2.30893">
        <ele>120</ele>
        <time>2023-02-01T14:09:36Z</time>
      </trkpt>
      <trkpt lat="49.76996" lon="2.30891">
        <ele>120</ele>
        <time>2023-02-01T14:09:37Z</time>
      </trkpt>
      <trkpt lat="49.76997" lon="2.30889">
        <ele>120</ele>
        <time>2023-02-01T14:09:38Z</time>
      </trkpt>
      <trkpt lat="49.76997" lon="2.30886">
        <ele>120</ele>
        <time>2023-02-01T14:09:39Z</time>
      </trkpt>
      <trkpt lat="49.76997" lon="2.30885">
        <ele>119.9</ele>
        <time>2023-02-01T14:09:40Z</time>
      </trkpt>
      <trkpt lat="49.76997" lon="2.30884">
        <ele>119.9</ele>
        <time>2023-02-01T14:09:41Z</time>
      </trkpt>
      <trkpt lat="49.76997" lon="2.30882">
        <ele>119.9</ele>
        <time>2023-02-01T14:09:42Z</time>
      </trkpt>
      <trkpt lat="49.76996" lon="2.3088">
        <ele>119.9</ele>
        <time>2023-02-01T14:09:43Z</time>
      </trkpt>
      <trkpt lat="49.76996" lon="2.30878">
        <ele>119.9</ele>
        <time>2023-02-01T14:09:45Z</time>
      </trkpt>
      <trkpt lat="49.76997" lon="2.30875">
        <ele>119.8</ele>
        <time>2023-02-01T14:09:46Z</time>
      </trkpt>
      <trkpt lat="49.76997" lon="2.30873">
        <ele>119.8</ele>
        <time>2023-02-01T14:09:47Z</time>
      </trkpt>
      <trkpt lat="49.76997" lon="2.30872">
        <ele>119.8</ele>
        <time>2023-02-01T14:09:48Z</time>
      </trkpt>
      <trkpt lat="49.76997" lon="2.30869">
        <ele>119.7</ele>
        <time>2023-02-01T14:09:50Z</time>
      </trkpt>
      <trkpt lat="49.76998" lon="2.30867">
        <ele>119.7</ele>
        <time>2023-02-01T14:09:51Z</time>
      </trkpt>
      <trkpt lat="49.76998" lon="2.30864">
        <ele>119.7</ele>
        <time>2023-02-01T14:09:52Z</time>
      </trkpt>
      <trkpt lat="49.76998" lon="2.30862">
        <ele>119.7</ele>
        <time>2023-02-01T14:09:53Z</time>
      </trkpt>
      <trkpt lat="49.76999" lon="2.3086">
        <ele>119.7</ele>
        <time>2023-02-01T14:09:54Z</time>
      </trkpt>
      <trkpt lat="49.76999" lon="2.30857">
        <ele>119.6</ele>
        <time>2023-02-01T14:09:55Z</time>
      </trkpt>
      <trkpt lat="49.77" lon="2.30856">
        <ele>119.6</ele>
        <time>2023-02-01T14:09:56Z</time>
      </trkpt>
      <trkpt lat="49.77" lon="2.30855">
        <ele>119.6</ele>
        <time>2023-02-01T14:09:57Z</time>
      </trkpt>
      <trkpt lat="49.77001" lon="2.30853">
        <ele>119.6</ele>
        <time>2023-02-01T14:09:59Z</time>
      </trkpt>
      <trkpt lat="49.77001" lon="2.30851">
        <ele>119.6</ele>
        <time>2023-02-01T14:10:00Z</time>
      </trkpt>
      <trkpt lat="49.77002" lon="2.30849">
        <ele>119.6</ele>
        <time>2023-02-01T14:10:01Z</time>
      </trkpt>
      <trkpt lat="49.77003" lon="2.30848">
        <ele>119.6</ele>
        <time>2023-02-01T14:10:02Z</time>
      </trkpt>
      <trkpt lat="49.77003" lon="2.30847">
        <ele>119.5</ele>
        <time>2023-02-01T14:10:03Z</time>
      </trkpt>
      <trkpt lat="49.77004" lon="2.30845">
        <ele>119.5</ele>
        <time>2023-02-01T14:10:04Z</time>
      </trkpt>
      <trkpt lat="49.77004" lon="2.30843">
        <ele>119.5</ele>
        <time>2023-02-01T14:10:06Z</time>
      </trkpt>
      <trkpt lat="49.77004" lon="2.30842">
        <ele>119.5</ele>
        <time>2023-02-01T14:10:07Z</time>
      </trkpt>
      <trkpt lat="49.77004" lon="2.3084">
        <ele>119.5</ele>
        <time>2023-02-01T14:10:08Z</time>
      </trkpt>
      <trkpt lat="49.77004" lon="2.30838">
        <ele>119.5</ele>
        <time>2023-02-01T14:10:09Z</time>
      </trkpt>
      <trkpt lat="49.77004" lon="2.30837">
        <ele>119.5</ele>
        <time>2023-02-01T14:10:10Z</time>
      </trkpt>
      <trkpt lat="49.77004" lon="2.30835">
        <ele>119.5</ele>
        <time>2023-02-01T14:10:11Z</time>
      </trkpt>
      <trkpt lat="49.77004" lon="2.30834">
        <ele>119.5</ele>
        <time>2023-02-01T14:10:13Z</time>
      </trkpt>
      <trkpt lat="49.77003" lon="2.30833">
        <ele>119.5</ele>
        <time>2023-02-01T14:10:14Z</time>
      </trkpt>
      <trkpt lat="49.77002" lon="2.30831">
        <ele>119.5</ele>
        <time>2023-02-01T14:10:15Z</time>
      </trkpt>
      <trkpt lat="49.77002" lon="2.3083">
        <ele>119.5</ele>
        <time>2023-02-01T14:10:16Z</time>
      </trkpt>
      <trkpt lat="49.77001" lon="2.30829">
        <ele>119.5</ele>
        <time>2023-02-01T14:10:17Z</time>
      </trkpt>
      <trkpt lat="49.77001" lon="2.30827">
        <ele>119.5</ele>
        <time>2023-02-01T14:10:18Z</time>
      </trkpt>
      <trkpt lat="49.77001" lon="2.30825">
        <ele>119.5</ele>
        <time>2023-02-01T14:10:19Z</time>
      </trkpt>
      <trkpt lat="49.77001" lon="2.30824">
        <ele>119.5</ele>
        <time>2023-02-01T14:10:21Z</time>
      </trkpt>
      <trkpt lat="49.77001" lon="2.30822">
        <ele>119.5</ele>
        <time>2023-02-01T14:10:22Z</time>
      </trkpt>
      <trkpt lat="49.77001" lon="2.30821">
        <ele>119.5</ele>
        <time>2023-02-01T14:10:23Z</time>
      </trkpt>
      <trkpt lat="49.77001" lon="2.30818">
        <ele>119.5</ele>
        <time>2023-02-01T14:10:24Z</time>
      </trkpt>
      <trkpt lat="49.77002" lon="2.30817">
        <ele>119.5</ele>
        <time>2023-02-01T14:10:25Z</time>
      </trkpt>
      <trkpt lat="49.77002" lon="2.30815">
        <ele>119.5</ele>
        <time>2023-02-01T14:10:27Z</time>
      </trkpt>
      <trkpt lat="49.77003" lon="2.30815">
        <ele>119.4</ele>
        <time>2023-02-01T14:10:29Z</time>
      </trkpt>
      <trkpt lat="49.77004" lon="2.30814">
        <ele>119.4</ele>
        <time>2023-02-01T14:10:30Z</time>
      </trkpt>
      <trkpt lat="49.77005" lon="2.30814">
        <ele>119.4</ele>
        <time>2023-02-01T14:10:31Z</time>
      </trkpt>
      <trkpt lat="49.77006" lon="2.30814">
        <ele>119.3</ele>
        <time>2023-02-01T14:10:33Z</time>
      </trkpt>
      <trkpt lat="49.77007" lon="2.30814">
        <ele>119.3</ele>
        <time>2023-02-01T14:10:34Z</time>
      </trkpt>
      <trkpt lat="49.77008" lon="2.30815">
        <ele>119.3</ele>
        <time>2023-02-01T14:10:35Z</time>
      </trkpt>
      <trkpt lat="49.77008" lon="2.30817">
        <ele>119.2</ele>
        <time>2023-02-01T14:10:37Z</time>
      </trkpt>
      <trkpt lat="49.77008" lon="2.30818">
        <ele>119.2</ele>
        <time>2023-02-01T14:10:38Z</time>
      </trkpt>
      <trkpt lat="49.77008" lon="2.30819">
        <ele>119.2</ele>
        <time>2023-02-01T14:10:40Z</time>
      </trkpt>
      <trkpt lat="49.77008" lon="2.30819">
        <ele>119.2</ele>
        <time>2023-02-01T14:10:41Z</time>
      </trkpt>
      <trkpt lat="49.77008" lon="2.30819">
        <ele>119.2</ele>
        <time>2023-02-01T14:10:42Z</time>
      </trkpt>
      <trkpt lat="49.77008" lon="2.3082">
        <ele>119.2</ele>
        <time>2023-02-01T14:10:44Z</time>
      </trkpt>
      <trkpt lat="49.77007" lon="2.3082">
        <ele>119.2</ele>
        <time>2023-02-01T14:10:45Z</time>
      </trkpt>
      <trkpt lat="49.77007" lon="2.3082">
        <ele>119.1</ele>
        <time>2023-02-01T14:10:46Z</time>
      </trkpt>
      <trkpt lat="49.77007" lon="2.30821">
        <ele>119.1</ele>
        <time>2023-02-01T14:10:48Z</time>
      </trkpt>
      <trkpt lat="49.77007" lon="2.30821">
        <ele>119.1</ele>
        <time>2023-02-01T14:10:49Z</time>
      </trkpt>
      <trkpt lat="49.77007" lon="2.30821">
        <ele>119.1</ele>
        <time>2023-02-01T14:10:50Z</time>
      </trkpt>
      <trkpt lat="49.77007" lon="2.3082">
        <ele>119.1</ele>
        <time>2023-02-01T14:10:51Z</time>
      </trkpt>
      <trkpt lat="49.77007" lon="2.3082">
        <ele>119.1</ele>
        <time>2023-02-01T14:10:52Z</time>
      </trkpt>
      <trkpt lat="49.77007" lon="2.3082">
        <ele>119.1</ele>
        <time>2023-02-01T14:10:53Z</time>
      </trkpt>
      <trkpt lat="49.77007" lon="2.3082">
        <ele>119.1</ele>
        <time>2023-02-01T14:10:54Z</time>
      </trkpt>
      <trkpt lat="49.77007" lon="2.3082">
        <ele>119.1</ele>
        <time>2023-02-01T14:10:55Z</time>
      </trkpt>
      <trkpt lat="49.77007" lon="2.3082">
        <ele>119.1</ele>
        <time>2023-02-01T14:10:56Z</time>
      </trkpt>
      <trkpt lat="49.77007" lon="2.3082">
        <ele>119.1</ele>
        <time>2023-02-01T14:10:57Z</time>
      </trkpt>
      <trkpt lat="49.77007" lon="2.3082">
        <ele>119.1</ele>
        <time>2023-02-01T14:10:58Z</time>
      </trkpt>
      <trkpt lat="49.77007" lon="2.3082">
        <ele>119.1</ele>
        <time>2023-02-01T14:10:59Z</time>
      </trkpt>
      <trkpt lat="49.77007" lon="2.3082">
        <ele>119.1</ele>
        <time>2023-02-01T14:11:00Z</time>
      </trkpt>
      <trkpt lat="49.77007" lon="2.3082">
        <ele>119.1</ele>
        <time>2023-02-01T14:11:01Z</time>
      </trkpt>
      <trkpt lat="49.77007" lon="2.3082">
        <ele>119.1</ele>
        <time>2023-02-01T14:11:02Z</time>
      </trkpt>
      <trkpt lat="49.77007" lon="2.3082">
        <ele>119.1</ele>
        <time>2023-02-01T14:11:03Z</time>
      </trkpt>
      <trkpt lat="49.77007" lon="2.3082">
        <ele>119.1</ele>
        <time>2023-02-01T14:11:04Z</time>
      </trkpt>
      <trkpt lat="49.77007" lon="2.3082">
        <ele>119.1</ele>
        <time>2023-02-01T14:11:05Z</time>
      </trkpt>
      <trkpt lat="49.77007" lon="2.3082">
        <ele>119.1</ele>
        <time>2023-02-01T14:11:06Z</time>
      </trkpt>
      <trkpt lat="49.77007" lon="2.3082">
        <ele>119.1</ele>
        <time>2023-02-01T14:11:07Z</time>
      </trkpt>
      <trkpt lat="49.77007" lon="2.3082">
        <ele>119.1</ele>
        <time>2023-02-01T14:11:08Z</time>
      </trkpt>
      <trkpt lat="49.77007" lon="2.3082">
        <ele>119.1</ele>
        <time>2023-02-01T14:11:09Z</time>
      </trkpt>
      <trkpt lat="49.77007" lon="2.3082">
        <ele>119.1</ele>
        <time>2023-02-01T14:11:10Z</time>
      </trkpt>
      <trkpt lat="49.77007" lon="2.3082">
        <ele>119.1</ele>
        <time>2023-02-01T14:11:11Z</time>
      </trkpt>
      <trkpt lat="49.77007" lon="2.3082">
        <ele>119.1</ele>
        <time>2023-02-01T14:11:12Z</time>
      </trkpt>
      <trkpt lat="49.77007" lon="2.3082">
        <ele>119.1</ele>
        <time>2023-02-01T14:11:13Z</time>
      </trkpt>
      <trkpt lat="49.77007" lon="2.3082">
        <ele>119.1</ele>
        <time>2023-02-01T14:11:14Z</time>
      </trkpt>
      <trkpt lat="49.77005" lon="2.3082">
        <ele>119.1</ele>
        <time>2023-02-01T14:11:15Z</time>
      </trkpt>
      <trkpt lat="49.77004" lon="2.30819">
        <ele>119.1</ele>
        <time>2023-02-01T14:11:16Z</time>
      </trkpt>
      <trkpt lat="49.77004" lon="2.30818">
        <ele>119</ele>
        <time>2023-02-01T14:11:17Z</time>
      </trkpt>
      <trkpt lat="49.77004" lon="2.30818">
        <ele>119</ele>
        <time>2023-02-01T14:11:18Z</time>
      </trkpt>
      <trkpt lat="49.77004" lon="2.30816">
        <ele>119</ele>
        <time>2023-02-01T14:11:19Z</time>
      </trkpt>
      <trkpt lat="49.77004" lon="2.30815">
        <ele>119</ele>
        <time>2023-02-01T14:11:20Z</time>
      </trkpt>
      <trkpt lat="49.77004" lon="2.30813">
        <ele>119</ele>
        <time>2023-02-01T14:11:21Z</time>
      </trkpt>
      <trkpt lat="49.77004" lon="2.30812">
        <ele>119</ele>
        <time>2023-02-01T14:11:22Z</time>
      </trkpt>
      <trkpt lat="49.77003" lon="2.3081">
        <ele>118.9</ele>
        <time>2023-02-01T14:11:23Z</time>
      </trkpt>
      <trkpt lat="49.77003" lon="2.30808">
        <ele>118.9</ele>
        <time>2023-02-01T14:11:24Z</time>
      </trkpt>
      <trkpt lat="49.77003" lon="2.30807">
        <ele>118.9</ele>
        <time>2023-02-01T14:11:25Z</time>
      </trkpt>
      <trkpt lat="49.77002" lon="2.30805">
        <ele>118.9</ele>
        <time>2023-02-01T14:11:26Z</time>
      </trkpt>
      <trkpt lat="49.77002" lon="2.30804">
        <ele>118.9</ele>
        <time>2023-02-01T14:11:27Z</time>
      </trkpt>
      <trkpt lat="49.77002" lon="2.30803">
        <ele>118.9</ele>
        <time>2023-02-01T14:11:28Z</time>
      </trkpt>
      <trkpt lat="49.77002" lon="2.30801">
        <ele>118.8</ele>
        <time>2023-02-01T14:11:29Z</time>
      </trkpt>
      <trkpt lat="49.77002" lon="2.308">
        <ele>118.8</ele>
        <time>2023-02-01T14:11:30Z</time>
      </trkpt>
      <trkpt lat="49.77002" lon="2.30798">
        <ele>118.8</ele>
        <time>2023-02-01T14:11:31Z</time>
      </trkpt>
      <trkpt lat="49.77002" lon="2.30797">
        <ele>118.8</ele>
        <time>2023-02-01T14:11:32Z</time>
      </trkpt>
      <trkpt lat="49.77002" lon="2.30795">
        <ele>118.8</ele>
        <time>2023-02-01T14:11:33Z</time>
      </trkpt>
      <trkpt lat="49.77002" lon="2.30794">
        <ele>118.8</ele>
        <time>2023-02-01T14:11:34Z</time>
      </trkpt>
      <trkpt lat="49.77002" lon="2.30792">
        <ele>118.8</ele>
        <time>2023-02-01T14:11:35Z</time>
      </trkpt>
      <trkpt lat="49.77002" lon="2.30788">
        <ele>118.8</ele>
        <time>2023-02-01T14:11:36Z</time>
      </trkpt>
      <trkpt lat="49.77002" lon="2.30786">
        <ele>118.7</ele>
        <time>2023-02-01T14:11:38Z</time>
      </trkpt>
      <trkpt lat="49.77003" lon="2.30784">
        <ele>118.7</ele>
        <time>2023-02-01T14:11:39Z</time>
      </trkpt>
      <trkpt lat="49.77003" lon="2.30782">
        <ele>118.7</ele>
        <time>2023-02-01T14:11:40Z</time>
      </trkpt>
      <trkpt lat="49.77003" lon="2.30781">
        <ele>118.7</ele>
        <time>2023-02-01T14:11:41Z</time>
      </trkpt>
      <trkpt lat="49.77004" lon="2.30779">
        <ele>118.7</ele>
        <time>2023-02-01T14:11:42Z</time>
      </trkpt>
      <trkpt lat="49.77004" lon="2.30778">
        <ele>118.7</ele>
        <time>2023-02-01T14:11:43Z</time>
      </trkpt>
      <trkpt lat="49.77004" lon="2.30774">
        <ele>118.7</ele>
        <time>2023-02-01T14:11:45Z</time>
      </trkpt>
      <trkpt lat="49.77005" lon="2.30773">
        <ele>118.7</ele>
        <time>2023-02-01T14:11:46Z</time>
      </trkpt>
      <trkpt lat="49.77005" lon="2.30772">
        <ele>118.7</ele>
        <time>2023-02-01T14:11:47Z</time>
      </trkpt>
      <trkpt lat="49.77005" lon="2.30769">
        <ele>118.7</ele>
        <time>2023-02-01T14:11:48Z</time>
      </trkpt>
      <trkpt lat="49.77005" lon="2.30767">
        <ele>118.7</ele>
        <time>2023-02-01T14:11:49Z</time>
      </trkpt>
      <trkpt lat="49.77005" lon="2.30766">
        <ele>118.7</ele>
        <time>2023-02-01T14:11:50Z</time>
      </trkpt>
      <trkpt lat="49.77006" lon="2.30763">
        <ele>118.7</ele>
        <time>2023-02-01T14:11:51Z</time>
      </trkpt>
      <trkpt lat="49.77006" lon="2.30761">
        <ele>118.7</ele>
        <time>2023-02-01T14:11:53Z</time>
      </trkpt>
      <trkpt lat="49.77006" lon="2.3076">
        <ele>118.7</ele>
        <time>2023-02-01T14:11:54Z</time>
      </trkpt>
      <trkpt lat="49.77006" lon="2.30758">
        <ele>118.7</ele>
        <time>2023-02-01T14:11:55Z</time>
      </trkpt>
      <trkpt lat="49.77006" lon="2.30757">
        <ele>118.7</ele>
        <time>2023-02-01T14:11:56Z</time>
      </trkpt>
      <trkpt lat="49.77006" lon="2.30755">
        <ele>118.7</ele>
        <time>2023-02-01T14:11:57Z</time>
      </trkpt>
      <trkpt lat="49.77007" lon="2.30752">
        <ele>118.7</ele>
        <time>2023-02-01T14:11:58Z</time>
      </trkpt>
      <trkpt lat="49.77007" lon="2.30751">
        <ele>118.7</ele>
        <time>2023-02-01T14:11:59Z</time>
      </trkpt>
      <trkpt lat="49.77007" lon="2.3075">
        <ele>118.7</ele>
        <time>2023-02-01T14:12:00Z</time>
      </trkpt>
      <trkpt lat="49.77007" lon="2.30748">
        <ele>118.7</ele>
        <time>2023-02-01T14:12:01Z</time>
      </trkpt>
      <trkpt lat="49.77007" lon="2.30747">
        <ele>118.7</ele>
        <time>2023-02-01T14:12:02Z</time>
      </trkpt>
      <trkpt lat="49.77008" lon="2.30745">
        <ele>118.7</ele>
        <time>2023-02-01T14:12:04Z</time>
      </trkpt>
      <trkpt lat="49.77008" lon="2.30743">
        <ele>118.7</ele>
        <time>2023-02-01T14:12:05Z</time>
      </trkpt>
      <trkpt lat="49.77008" lon="2.30742">
        <ele>118.7</ele>
        <time>2023-02-01T14:12:06Z</time>
      </trkpt>
      <trkpt lat="49.77009" lon="2.3074">
        <ele>118.7</ele>
        <time>2023-02-01T14:12:07Z</time>
      </trkpt>
      <trkpt lat="49.77009" lon="2.30738">
        <ele>118.7</ele>
        <time>2023-02-01T14:12:08Z</time>
      </trkpt>
      <trkpt lat="49.77009" lon="2.30737">
        <ele>118.7</ele>
        <time>2023-02-01T14:12:09Z</time>
      </trkpt>
      <trkpt lat="49.77009" lon="2.30735">
        <ele>118.7</ele>
        <time>2023-02-01T14:12:10Z</time>
      </trkpt>
      <trkpt lat="49.77009" lon="2.30734">
        <ele>118.7</ele>
        <time>2023-02-01T14:12:12Z</time>
      </trkpt>
      <trkpt lat="49.7701" lon="2.30732">
        <ele>118.7</ele>
        <time>2023-02-01T14:12:13Z</time>
      </trkpt>
      <trkpt lat="49.7701" lon="2.30731">
        <ele>118.6</ele>
        <time>2023-02-01T14:12:14Z</time>
      </trkpt>
      <trkpt lat="49.7701" lon="2.30729">
        <ele>118.6</ele>
        <time>2023-02-01T14:12:15Z</time>
      </trkpt>
      <trkpt lat="49.77011" lon="2.30728">
        <ele>118.6</ele>
        <time>2023-02-01T14:12:16Z</time>
      </trkpt>
      <trkpt lat="49.77011" lon="2.30726">
        <ele>118.6</ele>
        <time>2023-02-01T14:12:17Z</time>
      </trkpt>
      <trkpt lat="49.7701" lon="2.30724">
        <ele>118.6</ele>
        <time>2023-02-01T14:12:19Z</time>
      </trkpt>
      <trkpt lat="49.77011" lon="2.30722">
        <ele>118.5</ele>
        <time>2023-02-01T14:12:21Z</time>
      </trkpt>
      <trkpt lat="49.77011" lon="2.3072">
        <ele>118.5</ele>
        <time>2023-02-01T14:12:22Z</time>
      </trkpt>
      <trkpt lat="49.77011" lon="2.30719">
        <ele>118.5</ele>
        <time>2023-02-01T14:12:23Z</time>
      </trkpt>
      <trkpt lat="49.77011" lon="2.30717">
        <ele>118.4</ele>
        <time>2023-02-01T14:12:24Z</time>
      </trkpt>
      <trkpt lat="49.77011" lon="2.30715">
        <ele>118.4</ele>
        <time>2023-02-01T14:12:26Z</time>
      </trkpt>
      <trkpt lat="49.77011" lon="2.30713">
        <ele>118.4</ele>
        <time>2023-02-01T14:12:27Z</time>
      </trkpt>
      <trkpt lat="49.77011" lon="2.30712">
        <ele>118.3</ele>
        <time>2023-02-01T14:12:29Z</time>
      </trkpt>
      <trkpt lat="49.77011" lon="2.3071">
        <ele>118.3</ele>
        <time>2023-02-01T14:12:30Z</time>
      </trkpt>
      <trkpt lat="49.77011" lon="2.30709">
        <ele>118.3</ele>
        <time>2023-02-01T14:12:31Z</time>
      </trkpt>
      <trkpt lat="49.77011" lon="2.30707">
        <ele>118.2</ele>
        <time>2023-02-01T14:12:32Z</time>
      </trkpt>
      <trkpt lat="49.77011" lon="2.30706">
        <ele>118.2</ele>
        <time>2023-02-01T14:12:34Z</time>
      </trkpt>
      <trkpt lat="49.77011" lon="2.30704">
        <ele>118.1</ele>
        <time>2023-02-01T14:12:35Z</time>
      </trkpt>
      <trkpt lat="49.7701" lon="2.30702">
        <ele>118.1</ele>
        <time>2023-02-01T14:12:36Z</time>
      </trkpt>
      <trkpt lat="49.7701" lon="2.30699">
        <ele>118</ele>
        <time>2023-02-01T14:12:37Z</time>
      </trkpt>
      <trkpt lat="49.7701" lon="2.30698">
        <ele>117.9</ele>
        <time>2023-02-01T14:12:38Z</time>
      </trkpt>
      <trkpt lat="49.7701" lon="2.30697">
        <ele>117.9</ele>
        <time>2023-02-01T14:12:39Z</time>
      </trkpt>
      <trkpt lat="49.7701" lon="2.30694">
        <ele>117.8</ele>
        <time>2023-02-01T14:12:40Z</time>
      </trkpt>
      <trkpt lat="49.7701" lon="2.30693">
        <ele>117.7</ele>
        <time>2023-02-01T14:12:41Z</time>
      </trkpt>
      <trkpt lat="49.7701" lon="2.30691">
        <ele>117.6</ele>
        <time>2023-02-01T14:12:43Z</time>
      </trkpt>
      <trkpt lat="49.7701" lon="2.30689">
        <ele>117.5</ele>
        <time>2023-02-01T14:12:44Z</time>
      </trkpt>
      <trkpt lat="49.7701" lon="2.30686">
        <ele>117.4</ele>
        <time>2023-02-01T14:12:45Z</time>
      </trkpt>
      <trkpt lat="49.7701" lon="2.30683">
        <ele>117.2</ele>
        <time>2023-02-01T14:12:46Z</time>
      </trkpt>
      <trkpt lat="49.7701" lon="2.30682">
        <ele>117.2</ele>
        <time>2023-02-01T14:12:47Z</time>
      </trkpt>
      <trkpt lat="49.7701" lon="2.3068">
        <ele>117.1</ele>
        <time>2023-02-01T14:12:48Z</time>
      </trkpt>
      <trkpt lat="49.7701" lon="2.30677">
        <ele>116.9</ele>
        <time>2023-02-01T14:12:49Z</time>
      </trkpt>
      <trkpt lat="49.7701" lon="2.30675">
        <ele>116.8</ele>
        <time>2023-02-01T14:12:50Z</time>
      </trkpt>
      <trkpt lat="49.7701" lon="2.30673">
        <ele>116.7</ele>
        <time>2023-02-01T14:12:52Z</time>
      </trkpt>
      <trkpt lat="49.7701" lon="2.30672">
        <ele>116.6</ele>
        <time>2023-02-01T14:12:53Z</time>
      </trkpt>
      <trkpt lat="49.7701" lon="2.3067">
        <ele>116.5</ele>
        <time>2023-02-01T14:12:54Z</time>
      </trkpt>
      <trkpt lat="49.7701" lon="2.30669">
        <ele>116.4</ele>
        <time>2023-02-01T14:12:55Z</time>
      </trkpt>
      <trkpt lat="49.7701" lon="2.30668">
        <ele>116.3</ele>
        <time>2023-02-01T14:12:56Z</time>
      </trkpt>
      <trkpt lat="49.7701" lon="2.30666">
        <ele>116.3</ele>
        <time>2023-02-01T14:12:57Z</time>
      </trkpt>
      <trkpt lat="49.77011" lon="2.30665">
        <ele>116.1</ele>
        <time>2023-02-01T14:12:58Z</time>
      </trkpt>
      <trkpt lat="49.77011" lon="2.30663">
        <ele>116.1</ele>
        <time>2023-02-01T14:12:59Z</time>
      </trkpt>
      <trkpt lat="49.77011" lon="2.30661">
        <ele>115.9</ele>
        <time>2023-02-01T14:13:01Z</time>
      </trkpt>
      <trkpt lat="49.77011" lon="2.3066">
        <ele>115.8</ele>
        <time>2023-02-01T14:13:02Z</time>
      </trkpt>
      <trkpt lat="49.77011" lon="2.30657">
        <ele>115.6</ele>
        <time>2023-02-01T14:13:03Z</time>
      </trkpt>
      <trkpt lat="49.77011" lon="2.30655">
        <ele>115.5</ele>
        <time>2023-02-01T14:13:04Z</time>
      </trkpt>
      <trkpt lat="49.77011" lon="2.30654">
        <ele>115.4</ele>
        <time>2023-02-01T14:13:05Z</time>
      </trkpt>
      <trkpt lat="49.77011" lon="2.30652">
        <ele>115.3</ele>
        <time>2023-02-01T14:13:06Z</time>
      </trkpt>
      <trkpt lat="49.77011" lon="2.30651">
        <ele>115.2</ele>
        <time>2023-02-01T14:13:08Z</time>
      </trkpt>
      <trkpt lat="49.77011" lon="2.30649">
        <ele>115.1</ele>
        <time>2023-02-01T14:13:09Z</time>
      </trkpt>
      <trkpt lat="49.77011" lon="2.30647">
        <ele>114.9</ele>
        <time>2023-02-01T14:13:10Z</time>
      </trkpt>
      <trkpt lat="49.77011" lon="2.30645">
        <ele>114.8</ele>
        <time>2023-02-01T14:13:11Z</time>
      </trkpt>
      <trkpt lat="49.77011" lon="2.30643">
        <ele>114.6</ele>
        <time>2023-02-01T14:13:12Z</time>
      </trkpt>
      <trkpt lat="49.77012" lon="2.30642">
        <ele>114.5</ele>
        <time>2023-02-01T14:13:14Z</time>
      </trkpt>
      <trkpt lat="49.77012" lon="2.3064">
        <ele>114.4</ele>
        <time>2023-02-01T14:13:15Z</time>
      </trkpt>
      <trkpt lat="49.77012" lon="2.30638">
        <ele>114.3</ele>
        <time>2023-02-01T14:13:16Z</time>
      </trkpt>
      <trkpt lat="49.77012" lon="2.30637">
        <ele>114.2</ele>
        <time>2023-02-01T14:13:17Z</time>
      </trkpt>
      <trkpt lat="49.77012" lon="2.30636">
        <ele>114.1</ele>
        <time>2023-02-01T14:13:18Z</time>
      </trkpt>
      <trkpt lat="49.77012" lon="2.30633">
        <ele>113.9</ele>
        <time>2023-02-01T14:13:19Z</time>
      </trkpt>
      <trkpt lat="49.77013" lon="2.30632">
        <ele>113.8</ele>
        <time>2023-02-01T14:13:20Z</time>
      </trkpt>
      <trkpt lat="49.77013" lon="2.3063">
        <ele>113.7</ele>
        <time>2023-02-01T14:13:21Z</time>
      </trkpt>
      <trkpt lat="49.77013" lon="2.30629">
        <ele>113.6</ele>
        <time>2023-02-01T14:13:22Z</time>
      </trkpt>
      <trkpt lat="49.77013" lon="2.30627">
        <ele>113.5</ele>
        <time>2023-02-01T14:13:24Z</time>
      </trkpt>
      <trkpt lat="49.77013" lon="2.30625">
        <ele>113.4</ele>
        <time>2023-02-01T14:13:25Z</time>
      </trkpt>
      <trkpt lat="49.77013" lon="2.30623">
        <ele>113.2</ele>
        <time>2023-02-01T14:13:26Z</time>
      </trkpt>
      <trkpt lat="49.77013" lon="2.30622">
        <ele>113.1</ele>
        <time>2023-02-01T14:13:27Z</time>
      </trkpt>
      <trkpt lat="49.77013" lon="2.3062">
        <ele>113</ele>
        <time>2023-02-01T14:13:28Z</time>
      </trkpt>
      <trkpt lat="49.77013" lon="2.30618">
        <ele>112.9</ele>
        <time>2023-02-01T14:13:29Z</time>
      </trkpt>
      <trkpt lat="49.77014" lon="2.30615">
        <ele>112.7</ele>
        <time>2023-02-01T14:13:31Z</time>
      </trkpt>
      <trkpt lat="49.77014" lon="2.30613">
        <ele>112.6</ele>
        <time>2023-02-01T14:13:32Z</time>
      </trkpt>
      <trkpt lat="49.77014" lon="2.30612">
        <ele>112.5</ele>
        <time>2023-02-01T14:13:33Z</time>
      </trkpt>
      <trkpt lat="49.77014" lon="2.3061">
        <ele>112.4</ele>
        <time>2023-02-01T14:13:34Z</time>
      </trkpt>
      <trkpt lat="49.77014" lon="2.30607">
        <ele>112.2</ele>
        <time>2023-02-01T14:13:35Z</time>
      </trkpt>
      <trkpt lat="49.77014" lon="2.30606">
        <ele>112.2</ele>
        <time>2023-02-01T14:13:36Z</time>
      </trkpt>
      <trkpt lat="49.77014" lon="2.30604">
        <ele>112.1</ele>
        <time>2023-02-01T14:13:37Z</time>
      </trkpt>
      <trkpt lat="49.77014" lon="2.30602">
        <ele>111.9</ele>
        <time>2023-02-01T14:13:38Z</time>
      </trkpt>
      <trkpt lat="49.77014" lon="2.306">
        <ele>111.8</ele>
        <time>2023-02-01T14:13:40Z</time>
      </trkpt>
      <trkpt lat="49.77014" lon="2.30599">
        <ele>111.8</ele>
        <time>2023-02-01T14:13:41Z</time>
      </trkpt>
      <trkpt lat="49.77014" lon="2.30598">
        <ele>111.7</ele>
        <time>2023-02-01T14:13:42Z</time>
      </trkpt>
      <trkpt lat="49.77014" lon="2.30596">
        <ele>111.6</ele>
        <time>2023-02-01T14:13:43Z</time>
      </trkpt>
      <trkpt lat="49.77014" lon="2.30594">
        <ele>111.5</ele>
        <time>2023-02-01T14:13:44Z</time>
      </trkpt>
      <trkpt lat="49.77014" lon="2.30591">
        <ele>111.3</ele>
        <time>2023-02-01T14:13:46Z</time>
      </trkpt>
      <trkpt lat="49.77014" lon="2.30589">
        <ele>111.2</ele>
        <time>2023-02-01T14:13:47Z</time>
      </trkpt>
      <trkpt lat="49.77015" lon="2.30588">
        <ele>111.1</ele>
        <time>2023-02-01T14:13:49Z</time>
      </trkpt>
      <trkpt lat="49.77015" lon="2.30586">
        <ele>111.1</ele>
        <time>2023-02-01T14:13:50Z</time>
      </trkpt>
      <trkpt lat="49.77015" lon="2.30585">
        <ele>111</ele>
        <time>2023-02-01T14:13:51Z</time>
      </trkpt>
      <trkpt lat="49.77015" lon="2.30584">
        <ele>110.9</ele>
        <time>2023-02-01T14:13:52Z</time>
      </trkpt>
      <trkpt lat="49.77015" lon="2.30582">
        <ele>110.8</ele>
        <time>2023-02-01T14:13:53Z</time>
      </trkpt>
      <trkpt lat="49.77015" lon="2.30581">
        <ele>110.8</ele>
        <time>2023-02-01T14:13:54Z</time>
      </trkpt>
      <trkpt lat="49.77015" lon="2.3058">
        <ele>110.7</ele>
        <time>2023-02-01T14:13:55Z</time>
      </trkpt>
      <trkpt lat="49.77015" lon="2.30579">
        <ele>110.7</ele>
        <time>2023-02-01T14:13:57Z</time>
      </trkpt>
      <trkpt lat="49.77015" lon="2.30578">
        <ele>110.7</ele>
        <time>2023-02-01T14:13:58Z</time>
      </trkpt>
      <trkpt lat="49.77015" lon="2.30577">
        <ele>110.6</ele>
        <time>2023-02-01T14:13:59Z</time>
      </trkpt>
      <trkpt lat="49.77015" lon="2.30576">
        <ele>110.6</ele>
        <time>2023-02-01T14:14:00Z</time>
      </trkpt>
      <trkpt lat="49.77015" lon="2.30575">
        <ele>110.5</ele>
        <time>2023-02-01T14:14:01Z</time>
      </trkpt>
      <trkpt lat="49.77015" lon="2.30572">
        <ele>110.4</ele>
        <time>2023-02-01T14:14:02Z</time>
      </trkpt>
      <trkpt lat="49.77015" lon="2.30571">
        <ele>110.3</ele>
        <time>2023-02-01T14:14:03Z</time>
      </trkpt>
      <trkpt lat="49.77015" lon="2.30569">
        <ele>110.2</ele>
        <time>2023-02-01T14:14:05Z</time>
      </trkpt>
      <trkpt lat="49.77015" lon="2.30568">
        <ele>110.2</ele>
        <time>2023-02-01T14:14:06Z</time>
      </trkpt>
      <trkpt lat="49.77015" lon="2.30567">
        <ele>110.1</ele>
        <time>2023-02-01T14:14:07Z</time>
      </trkpt>
      <trkpt lat="49.77015" lon="2.30566">
        <ele>110.1</ele>
        <time>2023-02-01T14:14:08Z</time>
      </trkpt>
      <trkpt lat="49.77016" lon="2.30564">
        <ele>110</ele>
        <time>2023-02-01T14:14:10Z</time>
      </trkpt>
      <trkpt lat="49.77016" lon="2.30561">
        <ele>109.9</ele>
        <time>2023-02-01T14:14:11Z</time>
      </trkpt>
      <trkpt lat="49.77016" lon="2.3056">
        <ele>109.8</ele>
        <time>2023-02-01T14:14:12Z</time>
      </trkpt>
      <trkpt lat="49.77016" lon="2.30559">
        <ele>109.8</ele>
        <time>2023-02-01T14:14:13Z</time>
      </trkpt>
      <trkpt lat="49.77017" lon="2.30558">
        <ele>109.7</ele>
        <time>2023-02-01T14:14:14Z</time>
      </trkpt>
      <trkpt lat="49.77017" lon="2.30556">
        <ele>109.7</ele>
        <time>2023-02-01T14:14:15Z</time>
      </trkpt>
      <trkpt lat="49.77017" lon="2.30553">
        <ele>109.6</ele>
        <time>2023-02-01T14:14:17Z</time>
      </trkpt>
      <trkpt lat="49.77016" lon="2.3055">
        <ele>109.4</ele>
        <time>2023-02-01T14:14:18Z</time>
      </trkpt>
      <trkpt lat="49.77016" lon="2.30549">
        <ele>109.4</ele>
        <time>2023-02-01T14:14:19Z</time>
      </trkpt>
      <trkpt lat="49.77016" lon="2.30548">
        <ele>109.3</ele>
        <time>2023-02-01T14:14:20Z</time>
      </trkpt>
      <trkpt lat="49.77016" lon="2.30545">
        <ele>109.2</ele>
        <time>2023-02-01T14:14:21Z</time>
      </trkpt>
      <trkpt lat="49.77016" lon="2.30544">
        <ele>109.1</ele>
        <time>2023-02-01T14:14:22Z</time>
      </trkpt>
      <trkpt lat="49.77015" lon="2.3054">
        <ele>109</ele>
        <time>2023-02-01T14:14:23Z</time>
      </trkpt>
      <trkpt lat="49.77015" lon="2.30539">
        <ele>109</ele>
        <time>2023-02-01T14:14:25Z</time>
      </trkpt>
      <trkpt lat="49.77015" lon="2.30538">
        <ele>108.9</ele>
        <time>2023-02-01T14:14:26Z</time>
      </trkpt>
      <trkpt lat="49.77015" lon="2.30536">
        <ele>108.8</ele>
        <time>2023-02-01T14:14:27Z</time>
      </trkpt>
      <trkpt lat="49.77015" lon="2.30535">
        <ele>108.8</ele>
        <time>2023-02-01T14:14:28Z</time>
      </trkpt>
      <trkpt lat="49.77014" lon="2.30533">
        <ele>108.7</ele>
        <time>2023-02-01T14:14:29Z</time>
      </trkpt>
      <trkpt lat="49.77014" lon="2.30532">
        <ele>108.7</ele>
        <time>2023-02-01T14:14:30Z</time>
      </trkpt>
      <trkpt lat="49.77014" lon="2.3053">
        <ele>108.6</ele>
        <time>2023-02-01T14:14:31Z</time>
      </trkpt>
      <trkpt lat="49.77014" lon="2.30529">
        <ele>108.6</ele>
        <time>2023-02-01T14:14:33Z</time>
      </trkpt>
      <trkpt lat="49.77014" lon="2.30528">
        <ele>108.5</ele>
        <time>2023-02-01T14:14:34Z</time>
      </trkpt>
      <trkpt lat="49.77014" lon="2.30526">
        <ele>108.5</ele>
        <time>2023-02-01T14:14:35Z</time>
      </trkpt>
      <trkpt lat="49.77015" lon="2.30525">
        <ele>108.4</ele>
        <time>2023-02-01T14:14:36Z</time>
      </trkpt>
      <trkpt lat="49.77015" lon="2.30523">
        <ele>108.4</ele>
        <time>2023-02-01T14:14:37Z</time>
      </trkpt>
      <trkpt lat="49.77015" lon="2.30521">
        <ele>108.3</ele>
        <time>2023-02-01T14:14:38Z</time>
      </trkpt>
      <trkpt lat="49.77015" lon="2.3052">
        <ele>108.2</ele>
        <time>2023-02-01T14:14:39Z</time>
      </trkpt>
      <trkpt lat="49.77015" lon="2.30518">
        <ele>108.2</ele>
        <time>2023-02-01T14:14:40Z</time>
      </trkpt>
      <trkpt lat="49.77015" lon="2.30517">
        <ele>108.1</ele>
        <time>2023-02-01T14:14:41Z</time>
      </trkpt>
      <trkpt lat="49.77015" lon="2.30516">
        <ele>108.1</ele>
        <time>2023-02-01T14:14:43Z</time>
      </trkpt>
      <trkpt lat="49.77015" lon="2.30515">
        <ele>108</ele>
        <time>2023-02-01T14:14:44Z</time>
      </trkpt>
      <trkpt lat="49.77015" lon="2.30513">
        <ele>108</ele>
        <time>2023-02-01T14:14:45Z</time>
      </trkpt>
      <trkpt lat="49.77015" lon="2.30512">
        <ele>107.9</ele>
        <time>2023-02-01T14:14:46Z</time>
      </trkpt>
      <trkpt lat="49.77015" lon="2.3051">
        <ele>107.8</ele>
        <time>2023-02-01T14:14:47Z</time>
      </trkpt>
      <trkpt lat="49.77015" lon="2.30508">
        <ele>107.8</ele>
        <time>2023-02-01T14:14:48Z</time>
      </trkpt>
      <trkpt lat="49.77016" lon="2.30505">
        <ele>107.7</ele>
        <time>2023-02-01T14:14:49Z</time>
      </trkpt>
      <trkpt lat="49.77016" lon="2.30503">
        <ele>107.6</ele>
        <time>2023-02-01T14:14:50Z</time>
      </trkpt>
      <trkpt lat="49.77016" lon="2.30502">
        <ele>107.5</ele>
        <time>2023-02-01T14:14:52Z</time>
      </trkpt>
      <trkpt lat="49.77017" lon="2.305">
        <ele>107.5</ele>
        <time>2023-02-01T14:14:53Z</time>
      </trkpt>
      <trkpt lat="49.77017" lon="2.30499">
        <ele>107.4</ele>
        <time>2023-02-01T14:14:54Z</time>
      </trkpt>
      <trkpt lat="49.77017" lon="2.30497">
        <ele>107.3</ele>
        <time>2023-02-01T14:14:55Z</time>
      </trkpt>
      <trkpt lat="49.77018" lon="2.30495">
        <ele>107.2</ele>
        <time>2023-02-01T14:14:56Z</time>
      </trkpt>
      <trkpt lat="49.77018" lon="2.30493">
        <ele>107.2</ele>
        <time>2023-02-01T14:14:57Z</time>
      </trkpt>
      <trkpt lat="49.77019" lon="2.30491">
        <ele>107.1</ele>
        <time>2023-02-01T14:14:58Z</time>
      </trkpt>
      <trkpt lat="49.77019" lon="2.30489">
        <ele>107</ele>
        <time>2023-02-01T14:14:59Z</time>
      </trkpt>
      <trkpt lat="49.77019" lon="2.30487">
        <ele>106.9</ele>
        <time>2023-02-01T14:15:01Z</time>
      </trkpt>
      <trkpt lat="49.7702" lon="2.30485">
        <ele>106.8</ele>
        <time>2023-02-01T14:15:02Z</time>
      </trkpt>
      <trkpt lat="49.7702" lon="2.30484">
        <ele>106.8</ele>
        <time>2023-02-01T14:15:03Z</time>
      </trkpt>
      <trkpt lat="49.77021" lon="2.30482">
        <ele>106.7</ele>
        <time>2023-02-01T14:15:04Z</time>
      </trkpt>
      <trkpt lat="49.77021" lon="2.3048">
        <ele>106.6</ele>
        <time>2023-02-01T14:15:05Z</time>
      </trkpt>
      <trkpt lat="49.77021" lon="2.30478">
        <ele>106.5</ele>
        <time>2023-02-01T14:15:06Z</time>
      </trkpt>
      <trkpt lat="49.77022" lon="2.30477">
        <ele>106.5</ele>
        <time>2023-02-01T14:15:07Z</time>
      </trkpt>
      <trkpt lat="49.77022" lon="2.30476">
        <ele>106.4</ele>
        <time>2023-02-01T14:15:08Z</time>
      </trkpt>
      <trkpt lat="49.77022" lon="2.30475">
        <ele>106.4</ele>
        <time>2023-02-01T14:15:10Z</time>
      </trkpt>
      <trkpt lat="49.77023" lon="2.30473">
        <ele>106.3</ele>
        <time>2023-02-01T14:15:11Z</time>
      </trkpt>
      <trkpt lat="49.77023" lon="2.30472">
        <ele>106.2</ele>
        <time>2023-02-01T14:15:12Z</time>
      </trkpt>
      <trkpt lat="49.77023" lon="2.3047">
        <ele>106.2</ele>
        <time>2023-02-01T14:15:13Z</time>
      </trkpt>
      <trkpt lat="49.77024" lon="2.30467">
        <ele>106</ele>
        <time>2023-02-01T14:15:15Z</time>
      </trkpt>
      <trkpt lat="49.77024" lon="2.30465">
        <ele>105.9</ele>
        <time>2023-02-01T14:15:16Z</time>
      </trkpt>
      <trkpt lat="49.77025" lon="2.30464">
        <ele>105.9</ele>
        <time>2023-02-01T14:15:17Z</time>
      </trkpt>
      <trkpt lat="49.77025" lon="2.30463">
        <ele>105.8</ele>
        <time>2023-02-01T14:15:18Z</time>
      </trkpt>
      <trkpt lat="49.77025" lon="2.3046">
        <ele>105.7</ele>
        <time>2023-02-01T14:15:20Z</time>
      </trkpt>
      <trkpt lat="49.77025" lon="2.30458">
        <ele>105.7</ele>
        <time>2023-02-01T14:15:21Z</time>
      </trkpt>
      <trkpt lat="49.77025" lon="2.30457">
        <ele>105.6</ele>
        <time>2023-02-01T14:15:22Z</time>
      </trkpt>
      <trkpt lat="49.77025" lon="2.30454">
        <ele>105.5</ele>
        <time>2023-02-01T14:15:24Z</time>
      </trkpt>
      <trkpt lat="49.77025" lon="2.30452">
        <ele>105.4</ele>
        <time>2023-02-01T14:15:25Z</time>
      </trkpt>
      <trkpt lat="49.77025" lon="2.30451">
        <ele>105.4</ele>
        <time>2023-02-01T14:15:26Z</time>
      </trkpt>
      <trkpt lat="49.77026" lon="2.3045">
        <ele>105.3</ele>
        <time>2023-02-01T14:15:27Z</time>
      </trkpt>
      <trkpt lat="49.77026" lon="2.30448">
        <ele>105.2</ele>
        <time>2023-02-01T14:15:28Z</time>
      </trkpt>
      <trkpt lat="49.77026" lon="2.30446">
        <ele>105.2</ele>
        <time>2023-02-01T14:15:29Z</time>
      </trkpt>
      <trkpt lat="49.77027" lon="2.30442">
        <ele>105</ele>
        <time>2023-02-01T14:15:30Z</time>
      </trkpt>
      <trkpt lat="49.77027" lon="2.3044">
        <ele>105</ele>
        <time>2023-02-01T14:15:32Z</time>
      </trkpt>
      <trkpt lat="49.77028" lon="2.30439">
        <ele>104.9</ele>
        <time>2023-02-01T14:15:33Z</time>
      </trkpt>
      <trkpt lat="49.77028" lon="2.30437">
        <ele>104.8</ele>
        <time>2023-02-01T14:15:34Z</time>
      </trkpt>
      <trkpt lat="49.77028" lon="2.30435">
        <ele>104.8</ele>
        <time>2023-02-01T14:15:35Z</time>
      </trkpt>
      <trkpt lat="49.77029" lon="2.30432">
        <ele>104.7</ele>
        <time>2023-02-01T14:15:36Z</time>
      </trkpt>
      <trkpt lat="49.77029" lon="2.3043">
        <ele>104.6</ele>
        <time>2023-02-01T14:15:37Z</time>
      </trkpt>
      <trkpt lat="49.77029" lon="2.30428">
        <ele>104.6</ele>
        <time>2023-02-01T14:15:38Z</time>
      </trkpt>
      <trkpt lat="49.77029" lon="2.30426">
        <ele>104.5</ele>
        <time>2023-02-01T14:15:39Z</time>
      </trkpt>
      <trkpt lat="49.7703" lon="2.30423">
        <ele>104.4</ele>
        <time>2023-02-01T14:15:41Z</time>
      </trkpt>
      <trkpt lat="49.7703" lon="2.30421">
        <ele>104.4</ele>
        <time>2023-02-01T14:15:42Z</time>
      </trkpt>
      <trkpt lat="49.7703" lon="2.30419">
        <ele>104.3</ele>
        <time>2023-02-01T14:15:43Z</time>
      </trkpt>
      <trkpt lat="49.7703" lon="2.30417">
        <ele>104.3</ele>
        <time>2023-02-01T14:15:44Z</time>
      </trkpt>
      <trkpt lat="49.7703" lon="2.30415">
        <ele>104.2</ele>
        <time>2023-02-01T14:15:45Z</time>
      </trkpt>
      <trkpt lat="49.7703" lon="2.30412">
        <ele>104.2</ele>
        <time>2023-02-01T14:15:46Z</time>
      </trkpt>
      <trkpt lat="49.7703" lon="2.3041">
        <ele>104.1</ele>
        <time>2023-02-01T14:15:47Z</time>
      </trkpt>
      <trkpt lat="49.7703" lon="2.30408">
        <ele>104.1</ele>
        <time>2023-02-01T14:15:48Z</time>
      </trkpt>
      <trkpt lat="49.7703" lon="2.30406">
        <ele>104</ele>
        <time>2023-02-01T14:15:50Z</time>
      </trkpt>
      <trkpt lat="49.7703" lon="2.30403">
        <ele>104</ele>
        <time>2023-02-01T14:15:51Z</time>
      </trkpt>
      <trkpt lat="49.7703" lon="2.30401">
        <ele>103.9</ele>
        <time>2023-02-01T14:15:52Z</time>
      </trkpt>
      <trkpt lat="49.7703" lon="2.30398">
        <ele>103.9</ele>
        <time>2023-02-01T14:15:53Z</time>
      </trkpt>
      <trkpt lat="49.77031" lon="2.30397">
        <ele>103.8</ele>
        <time>2023-02-01T14:15:54Z</time>
      </trkpt>
      <trkpt lat="49.77031" lon="2.30395">
        <ele>103.8</ele>
        <time>2023-02-01T14:15:55Z</time>
      </trkpt>
      <trkpt lat="49.77031" lon="2.30392">
        <ele>103.8</ele>
        <time>2023-02-01T14:15:56Z</time>
      </trkpt>
      <trkpt lat="49.77031" lon="2.30391">
        <ele>103.7</ele>
        <time>2023-02-01T14:15:57Z</time>
      </trkpt>
      <trkpt lat="49.77032" lon="2.30388">
        <ele>103.7</ele>
        <time>2023-02-01T14:15:58Z</time>
      </trkpt>
      <trkpt lat="49.77032" lon="2.30386">
        <ele>103.6</ele>
        <time>2023-02-01T14:16:00Z</time>
      </trkpt>
      <trkpt lat="49.77033" lon="2.30385">
        <ele>103.6</ele>
        <time>2023-02-01T14:16:01Z</time>
      </trkpt>
      <trkpt lat="49.77033" lon="2.30383">
        <ele>103.6</ele>
        <time>2023-02-01T14:16:02Z</time>
      </trkpt>
      <trkpt lat="49.77034" lon="2.30381">
        <ele>103.5</ele>
        <time>2023-02-01T14:16:03Z</time>
      </trkpt>
      <trkpt lat="49.77035" lon="2.30378">
        <ele>103.4</ele>
        <time>2023-02-01T14:16:05Z</time>
      </trkpt>
      <trkpt lat="49.77036" lon="2.30375">
        <ele>103.4</ele>
        <time>2023-02-01T14:16:06Z</time>
      </trkpt>
      <trkpt lat="49.77036" lon="2.30374">
        <ele>103.3</ele>
        <time>2023-02-01T14:16:07Z</time>
      </trkpt>
      <trkpt lat="49.77036" lon="2.30372">
        <ele>103.3</ele>
        <time>2023-02-01T14:16:09Z</time>
      </trkpt>
      <trkpt lat="49.77037" lon="2.30371">
        <ele>103.3</ele>
        <time>2023-02-01T14:16:10Z</time>
      </trkpt>
      <trkpt lat="49.77037" lon="2.3037">
        <ele>103.2</ele>
        <time>2023-02-01T14:16:11Z</time>
      </trkpt>
      <trkpt lat="49.77038" lon="2.30368">
        <ele>103.2</ele>
        <time>2023-02-01T14:16:12Z</time>
      </trkpt>
      <trkpt lat="49.77039" lon="2.30368">
        <ele>103.1</ele>
        <time>2023-02-01T14:16:13Z</time>
      </trkpt>
      <trkpt lat="49.77039" lon="2.30366">
        <ele>103.1</ele>
        <time>2023-02-01T14:16:14Z</time>
      </trkpt>
      <trkpt lat="49.7704" lon="2.30365">
        <ele>103</ele>
        <time>2023-02-01T14:16:16Z</time>
      </trkpt>
      <trkpt lat="49.77041" lon="2.30363">
        <ele>103</ele>
        <time>2023-02-01T14:16:17Z</time>
      </trkpt>
      <trkpt lat="49.77042" lon="2.30362">
        <ele>102.9</ele>
        <time>2023-02-01T14:16:18Z</time>
      </trkpt>
      <trkpt lat="49.77043" lon="2.30361">
        <ele>102.9</ele>
        <time>2023-02-01T14:16:19Z</time>
      </trkpt>
      <trkpt lat="49.77044" lon="2.30359">
        <ele>102.8</ele>
        <time>2023-02-01T14:16:20Z</time>
      </trkpt>
      <trkpt lat="49.77045" lon="2.30357">
        <ele>102.7</ele>
        <time>2023-02-01T14:16:21Z</time>
      </trkpt>
      <trkpt lat="49.77045" lon="2.30356">
        <ele>102.7</ele>
        <time>2023-02-01T14:16:22Z</time>
      </trkpt>
      <trkpt lat="49.77046" lon="2.30354">
        <ele>102.6</ele>
        <time>2023-02-01T14:16:24Z</time>
      </trkpt>
      <trkpt lat="49.77046" lon="2.30353">
        <ele>102.6</ele>
        <time>2023-02-01T14:16:25Z</time>
      </trkpt>
      <trkpt lat="49.77047" lon="2.30352">
        <ele>102.5</ele>
        <time>2023-02-01T14:16:26Z</time>
      </trkpt>
      <trkpt lat="49.77047" lon="2.3035">
        <ele>102.4</ele>
        <time>2023-02-01T14:16:27Z</time>
      </trkpt>
      <trkpt lat="49.77048" lon="2.30347">
        <ele>102.3</ele>
        <time>2023-02-01T14:16:28Z</time>
      </trkpt>
      <trkpt lat="49.77049" lon="2.30346">
        <ele>102.3</ele>
        <time>2023-02-01T14:16:29Z</time>
      </trkpt>
      <trkpt lat="49.77049" lon="2.30345">
        <ele>102.2</ele>
        <time>2023-02-01T14:16:30Z</time>
      </trkpt>
      <trkpt lat="49.77051" lon="2.30341">
        <ele>102</ele>
        <time>2023-02-01T14:16:31Z</time>
      </trkpt>
      <trkpt lat="49.77051" lon="2.3034">
        <ele>102</ele>
        <time>2023-02-01T14:16:33Z</time>
      </trkpt>
      <trkpt lat="49.77051" lon="2.30338">
        <ele>101.9</ele>
        <time>2023-02-01T14:16:34Z</time>
      </trkpt>
      <trkpt lat="49.77052" lon="2.30337">
        <ele>101.8</ele>
        <time>2023-02-01T14:16:35Z</time>
      </trkpt>
      <trkpt lat="49.77052" lon="2.30335">
        <ele>101.8</ele>
        <time>2023-02-01T14:16:36Z</time>
      </trkpt>
      <trkpt lat="49.77053" lon="2.30334">
        <ele>101.7</ele>
        <time>2023-02-01T14:16:37Z</time>
      </trkpt>
      <trkpt lat="49.77053" lon="2.30332">
        <ele>101.6</ele>
        <time>2023-02-01T14:16:38Z</time>
      </trkpt>
      <trkpt lat="49.77053" lon="2.30331">
        <ele>101.5</ele>
        <time>2023-02-01T14:16:39Z</time>
      </trkpt>
      <trkpt lat="49.77053" lon="2.30329">
        <ele>101.4</ele>
        <time>2023-02-01T14:16:41Z</time>
      </trkpt>
      <trkpt lat="49.77054" lon="2.30326">
        <ele>101.3</ele>
        <time>2023-02-01T14:16:42Z</time>
      </trkpt>
      <trkpt lat="49.77054" lon="2.30325">
        <ele>101.2</ele>
        <time>2023-02-01T14:16:43Z</time>
      </trkpt>
      <trkpt lat="49.77054" lon="2.30323">
        <ele>101.1</ele>
        <time>2023-02-01T14:16:44Z</time>
      </trkpt>
      <trkpt lat="49.77054" lon="2.30321">
        <ele>101.1</ele>
        <time>2023-02-01T14:16:45Z</time>
      </trkpt>
      <trkpt lat="49.77054" lon="2.30319">
        <ele>100.9</ele>
        <time>2023-02-01T14:16:46Z</time>
      </trkpt>
      <trkpt lat="49.77054" lon="2.30317">
        <ele>100.8</ele>
        <time>2023-02-01T14:16:47Z</time>
      </trkpt>
      <trkpt lat="49.77054" lon="2.30316">
        <ele>100.7</ele>
        <time>2023-02-01T14:16:49Z</time>
      </trkpt>
      <trkpt lat="49.77054" lon="2.30312">
        <ele>100.6</ele>
        <time>2023-02-01T14:16:50Z</time>
      </trkpt>
      <trkpt lat="49.77054" lon="2.30311">
        <ele>100.5</ele>
        <time>2023-02-01T14:16:51Z</time>
      </trkpt>
      <trkpt lat="49.77055" lon="2.3031">
        <ele>100.4</ele>
        <time>2023-02-01T14:16:52Z</time>
      </trkpt>
      <trkpt lat="49.77055" lon="2.30307">
        <ele>100.3</ele>
        <time>2023-02-01T14:16:53Z</time>
      </trkpt>
      <trkpt lat="49.77055" lon="2.30306">
        <ele>100.2</ele>
        <time>2023-02-01T14:16:54Z</time>
      </trkpt>
      <trkpt lat="49.77055" lon="2.30304">
        <ele>100.1</ele>
        <time>2023-02-01T14:16:55Z</time>
      </trkpt>
      <trkpt lat="49.77056" lon="2.30301">
        <ele>99.9</ele>
        <time>2023-02-01T14:16:57Z</time>
      </trkpt>
      <trkpt lat="49.77056" lon="2.303">
        <ele>99.9</ele>
        <time>2023-02-01T14:16:58Z</time>
      </trkpt>
      <trkpt lat="49.77056" lon="2.30299">
        <ele>99.8</ele>
        <time>2023-02-01T14:16:59Z</time>
      </trkpt>
      <trkpt lat="49.77056" lon="2.30295">
        <ele>99.6</ele>
        <time>2023-02-01T14:17:00Z</time>
      </trkpt>
      <trkpt lat="49.77056" lon="2.30294">
        <ele>99.5</ele>
        <time>2023-02-01T14:17:01Z</time>
      </trkpt>
      <trkpt lat="49.77056" lon="2.30292">
        <ele>99.5</ele>
        <time>2023-02-01T14:17:02Z</time>
      </trkpt>
      <trkpt lat="49.77056" lon="2.3029">
        <ele>99.4</ele>
        <time>2023-02-01T14:17:03Z</time>
      </trkpt>
      <trkpt lat="49.77056" lon="2.30288">
        <ele>99.2</ele>
        <time>2023-02-01T14:17:04Z</time>
      </trkpt>
      <trkpt lat="49.77057" lon="2.30285">
        <ele>99.1</ele>
        <time>2023-02-01T14:17:06Z</time>
      </trkpt>
      <trkpt lat="49.77057" lon="2.30282">
        <ele>99</ele>
        <time>2023-02-01T14:17:07Z</time>
      </trkpt>
      <trkpt lat="49.77057" lon="2.30281">
        <ele>98.9</ele>
        <time>2023-02-01T14:17:08Z</time>
      </trkpt>
      <trkpt lat="49.77057" lon="2.30279">
        <ele>98.8</ele>
        <time>2023-02-01T14:17:09Z</time>
      </trkpt>
      <trkpt lat="49.77057" lon="2.30277">
        <ele>98.7</ele>
        <time>2023-02-01T14:17:10Z</time>
      </trkpt>
      <trkpt lat="49.77058" lon="2.30274">
        <ele>98.6</ele>
        <time>2023-02-01T14:17:11Z</time>
      </trkpt>
      <trkpt lat="49.77058" lon="2.30273">
        <ele>98.5</ele>
        <time>2023-02-01T14:17:12Z</time>
      </trkpt>
      <trkpt lat="49.77058" lon="2.30271">
        <ele>98.4</ele>
        <time>2023-02-01T14:17:13Z</time>
      </trkpt>
      <trkpt lat="49.77058" lon="2.30269">
        <ele>98.3</ele>
        <time>2023-02-01T14:17:15Z</time>
      </trkpt>
      <trkpt lat="49.77058" lon="2.30268">
        <ele>98.2</ele>
        <time>2023-02-01T14:17:16Z</time>
      </trkpt>
      <trkpt lat="49.77059" lon="2.30266">
        <ele>98.2</ele>
        <time>2023-02-01T14:17:17Z</time>
      </trkpt>
      <trkpt lat="49.77059" lon="2.30265">
        <ele>98.1</ele>
        <time>2023-02-01T14:17:18Z</time>
      </trkpt>
      <trkpt lat="49.77059" lon="2.30264">
        <ele>98</ele>
        <time>2023-02-01T14:17:19Z</time>
      </trkpt>
      <trkpt lat="49.7706" lon="2.30262">
        <ele>97.9</ele>
        <time>2023-02-01T14:17:20Z</time>
      </trkpt>
      <trkpt lat="49.7706" lon="2.30261">
        <ele>97.9</ele>
        <time>2023-02-01T14:17:21Z</time>
      </trkpt>
      <trkpt lat="49.77061" lon="2.30259">
        <ele>97.8</ele>
        <time>2023-02-01T14:17:22Z</time>
      </trkpt>
      <trkpt lat="49.77061" lon="2.30257">
        <ele>97.7</ele>
        <time>2023-02-01T14:17:23Z</time>
      </trkpt>
      <trkpt lat="49.77062" lon="2.30256">
        <ele>97.6</ele>
        <time>2023-02-01T14:17:25Z</time>
      </trkpt>
      <trkpt lat="49.77062" lon="2.30255">
        <ele>97.6</ele>
        <time>2023-02-01T14:17:26Z</time>
      </trkpt>
      <trkpt lat="49.77062" lon="2.30254">
        <ele>97.5</ele>
        <time>2023-02-01T14:17:27Z</time>
      </trkpt>
      <trkpt lat="49.77062" lon="2.30253">
        <ele>97.5</ele>
        <time>2023-02-01T14:17:28Z</time>
      </trkpt>
      <trkpt lat="49.77063" lon="2.30252">
        <ele>97.4</ele>
        <time>2023-02-01T14:17:29Z</time>
      </trkpt>
      <trkpt lat="49.77063" lon="2.30251">
        <ele>97.4</ele>
        <time>2023-02-01T14:17:30Z</time>
      </trkpt>
      <trkpt lat="49.77063" lon="2.30249">
        <ele>97.3</ele>
        <time>2023-02-01T14:17:31Z</time>
      </trkpt>
      <trkpt lat="49.77063" lon="2.30247">
        <ele>97.2</ele>
        <time>2023-02-01T14:17:32Z</time>
      </trkpt>
      <trkpt lat="49.77064" lon="2.30246">
        <ele>97.2</ele>
        <time>2023-02-01T14:17:34Z</time>
      </trkpt>
      <trkpt lat="49.77064" lon="2.30244">
        <ele>97.1</ele>
        <time>2023-02-01T14:17:35Z</time>
      </trkpt>
      <trkpt lat="49.77065" lon="2.30243">
        <ele>97</ele>
        <time>2023-02-01T14:17:36Z</time>
      </trkpt>
      <trkpt lat="49.77065" lon="2.30241">
        <ele>96.9</ele>
        <time>2023-02-01T14:17:37Z</time>
      </trkpt>
      <trkpt lat="49.77065" lon="2.3024">
        <ele>96.9</ele>
        <time>2023-02-01T14:17:38Z</time>
      </trkpt>
      <trkpt lat="49.77066" lon="2.30237">
        <ele>96.8</ele>
        <time>2023-02-01T14:17:39Z</time>
      </trkpt>
      <trkpt lat="49.77067" lon="2.30236">
        <ele>96.7</ele>
        <time>2023-02-01T14:17:40Z</time>
      </trkpt>
      <trkpt lat="49.77067" lon="2.30235">
        <ele>96.7</ele>
        <time>2023-02-01T14:17:41Z</time>
      </trkpt>
      <trkpt lat="49.77068" lon="2.30233">
        <ele>96.6</ele>
        <time>2023-02-01T14:17:42Z</time>
      </trkpt>
      <trkpt lat="49.77069" lon="2.30232">
        <ele>96.5</ele>
        <time>2023-02-01T14:17:44Z</time>
      </trkpt>
      <trkpt lat="49.77069" lon="2.30231">
        <ele>96.5</ele>
        <time>2023-02-01T14:17:45Z</time>
      </trkpt>
      <trkpt lat="49.7707" lon="2.30229">
        <ele>96.4</ele>
        <time>2023-02-01T14:17:46Z</time>
      </trkpt>
      <trkpt lat="49.7707" lon="2.30227">
        <ele>96.4</ele>
        <time>2023-02-01T14:17:47Z</time>
      </trkpt>
      <trkpt lat="49.77071" lon="2.30226">
        <ele>96.3</ele>
        <time>2023-02-01T14:17:48Z</time>
      </trkpt>
      <trkpt lat="49.77072" lon="2.30224">
        <ele>96.2</ele>
        <time>2023-02-01T14:17:49Z</time>
      </trkpt>
      <trkpt lat="49.77072" lon="2.30222">
        <ele>96.1</ele>
        <time>2023-02-01T14:17:50Z</time>
      </trkpt>
      <trkpt lat="49.77072" lon="2.30221">
        <ele>96.1</ele>
        <time>2023-02-01T14:17:51Z</time>
      </trkpt>
      <trkpt lat="49.77073" lon="2.3022">
        <ele>96</ele>
        <time>2023-02-01T14:17:52Z</time>
      </trkpt>
      <trkpt lat="49.77074" lon="2.30219">
        <ele>96</ele>
        <time>2023-02-01T14:17:54Z</time>
      </trkpt>
      <trkpt lat="49.77075" lon="2.30218">
        <ele>95.9</ele>
        <time>2023-02-01T14:17:55Z</time>
      </trkpt>
      <trkpt lat="49.77076" lon="2.30216">
        <ele>95.9</ele>
        <time>2023-02-01T14:17:56Z</time>
      </trkpt>
      <trkpt lat="49.77077" lon="2.30214">
        <ele>95.8</ele>
        <time>2023-02-01T14:17:57Z</time>
      </trkpt>
      <trkpt lat="49.77077" lon="2.30213">
        <ele>95.7</ele>
        <time>2023-02-01T14:17:59Z</time>
      </trkpt>
      <trkpt lat="49.77078" lon="2.30212">
        <ele>95.7</ele>
        <time>2023-02-01T14:18:00Z</time>
      </trkpt>
      <trkpt lat="49.77078" lon="2.3021">
        <ele>95.6</ele>
        <time>2023-02-01T14:18:01Z</time>
      </trkpt>
      <trkpt lat="49.77079" lon="2.30207">
        <ele>95.5</ele>
        <time>2023-02-01T14:18:02Z</time>
      </trkpt>
      <trkpt lat="49.7708" lon="2.30206">
        <ele>95.5</ele>
        <time>2023-02-01T14:18:03Z</time>
      </trkpt>
      <trkpt lat="49.7708" lon="2.30205">
        <ele>95.4</ele>
        <time>2023-02-01T14:18:04Z</time>
      </trkpt>
      <trkpt lat="49.77081" lon="2.30203">
        <ele>95.3</ele>
        <time>2023-02-01T14:18:05Z</time>
      </trkpt>
      <trkpt lat="49.77081" lon="2.30202">
        <ele>95.3</ele>
        <time>2023-02-01T14:18:06Z</time>
      </trkpt>
      <trkpt lat="49.77082" lon="2.302">
        <ele>95.2</ele>
        <time>2023-02-01T14:18:07Z</time>
      </trkpt>
      <trkpt lat="49.77082" lon="2.30199">
        <ele>95.2</ele>
        <time>2023-02-01T14:18:08Z</time>
      </trkpt>
      <trkpt lat="49.77083" lon="2.30198">
        <ele>95.1</ele>
        <time>2023-02-01T14:18:10Z</time>
      </trkpt>
      <trkpt lat="49.77083" lon="2.30196">
        <ele>95.1</ele>
        <time>2023-02-01T14:18:11Z</time>
      </trkpt>
      <trkpt lat="49.77084" lon="2.30194">
        <ele>95</ele>
        <time>2023-02-01T14:18:12Z</time>
      </trkpt>
      <trkpt lat="49.77084" lon="2.30193">
        <ele>95</ele>
        <time>2023-02-01T14:18:13Z</time>
      </trkpt>
      <trkpt lat="49.77085" lon="2.30191">
        <ele>94.9</ele>
        <time>2023-02-01T14:18:14Z</time>
      </trkpt>
      <trkpt lat="49.77085" lon="2.3019">
        <ele>94.9</ele>
        <time>2023-02-01T14:18:15Z</time>
      </trkpt>
      <trkpt lat="49.77087" lon="2.30185">
        <ele>94.7</ele>
        <time>2023-02-01T14:18:17Z</time>
      </trkpt>
      <trkpt lat="49.77087" lon="2.30185">
        <ele>94.7</ele>
        <time>2023-02-01T14:18:18Z</time>
      </trkpt>
      <trkpt lat="49.77088" lon="2.30182">
        <ele>94.6</ele>
        <time>2023-02-01T14:18:19Z</time>
      </trkpt>
      <trkpt lat="49.77089" lon="2.30181">
        <ele>94.6</ele>
        <time>2023-02-01T14:18:21Z</time>
      </trkpt>
      <trkpt lat="49.77089" lon="2.3018">
        <ele>94.5</ele>
        <time>2023-02-01T14:18:22Z</time>
      </trkpt>
      <trkpt lat="49.7709" lon="2.30179">
        <ele>94.5</ele>
        <time>2023-02-01T14:18:23Z</time>
      </trkpt>
      <trkpt lat="49.7709" lon="2.30177">
        <ele>94.5</ele>
        <time>2023-02-01T14:18:24Z</time>
      </trkpt>
      <trkpt lat="49.77091" lon="2.30176">
        <ele>94.4</ele>
        <time>2023-02-01T14:18:25Z</time>
      </trkpt>
      <trkpt lat="49.77092" lon="2.30172">
        <ele>94.3</ele>
        <time>2023-02-01T14:18:27Z</time>
      </trkpt>
      <trkpt lat="49.77093" lon="2.30171">
        <ele>94.2</ele>
        <time>2023-02-01T14:18:29Z</time>
      </trkpt>
      <trkpt lat="49.77093" lon="2.30168">
        <ele>94.2</ele>
        <time>2023-02-01T14:18:30Z</time>
      </trkpt>
      <trkpt lat="49.77094" lon="2.30167">
        <ele>94.1</ele>
        <time>2023-02-01T14:18:31Z</time>
      </trkpt>
      <trkpt lat="49.77094" lon="2.30165">
        <ele>94.1</ele>
        <time>2023-02-01T14:18:32Z</time>
      </trkpt>
      <trkpt lat="49.77095" lon="2.30163">
        <ele>94</ele>
        <time>2023-02-01T14:18:33Z</time>
      </trkpt>
      <trkpt lat="49.77095" lon="2.30161">
        <ele>94</ele>
        <time>2023-02-01T14:18:34Z</time>
      </trkpt>
      <trkpt lat="49.77095" lon="2.3016">
        <ele>93.9</ele>
        <time>2023-02-01T14:18:35Z</time>
      </trkpt>
      <trkpt lat="49.77096" lon="2.30158">
        <ele>93.9</ele>
        <time>2023-02-01T14:18:36Z</time>
      </trkpt>
      <trkpt lat="49.77096" lon="2.30156">
        <ele>93.8</ele>
        <time>2023-02-01T14:18:37Z</time>
      </trkpt>
      <trkpt lat="49.77096" lon="2.30155">
        <ele>93.8</ele>
        <time>2023-02-01T14:18:38Z</time>
      </trkpt>
      <trkpt lat="49.77097" lon="2.30152">
        <ele>93.7</ele>
        <time>2023-02-01T14:18:40Z</time>
      </trkpt>
      <trkpt lat="49.77097" lon="2.30151">
        <ele>93.6</ele>
        <time>2023-02-01T14:18:41Z</time>
      </trkpt>
      <trkpt lat="49.77098" lon="2.30149">
        <ele>93.6</ele>
        <time>2023-02-01T14:18:42Z</time>
      </trkpt>
      <trkpt lat="49.77098" lon="2.30147">
        <ele>93.5</ele>
        <time>2023-02-01T14:18:43Z</time>
      </trkpt>
      <trkpt lat="49.77099" lon="2.30145">
        <ele>93.5</ele>
        <time>2023-02-01T14:18:44Z</time>
      </trkpt>
      <trkpt lat="49.771" lon="2.30142">
        <ele>93.4</ele>
        <time>2023-02-01T14:18:45Z</time>
      </trkpt>
      <trkpt lat="49.771" lon="2.30141">
        <ele>93.3</ele>
        <time>2023-02-01T14:18:46Z</time>
      </trkpt>
      <trkpt lat="49.77101" lon="2.3014">
        <ele>93.3</ele>
        <time>2023-02-01T14:18:47Z</time>
      </trkpt>
      <trkpt lat="49.77102" lon="2.30139">
        <ele>93.3</ele>
        <time>2023-02-01T14:18:49Z</time>
      </trkpt>
      <trkpt lat="49.77102" lon="2.30137">
        <ele>93.2</ele>
        <time>2023-02-01T14:18:50Z</time>
      </trkpt>
      <trkpt lat="49.77103" lon="2.30136">
        <ele>93.2</ele>
        <time>2023-02-01T14:18:51Z</time>
      </trkpt>
      <trkpt lat="49.77105" lon="2.30134">
        <ele>93.1</ele>
        <time>2023-02-01T14:18:52Z</time>
      </trkpt>
      <trkpt lat="49.77106" lon="2.30133">
        <ele>93.1</ele>
        <time>2023-02-01T14:18:53Z</time>
      </trkpt>
      <trkpt lat="49.77107" lon="2.30131">
        <ele>93</ele>
        <time>2023-02-01T14:18:54Z</time>
      </trkpt>
      <trkpt lat="49.77108" lon="2.3013">
        <ele>92.9</ele>
        <time>2023-02-01T14:18:55Z</time>
      </trkpt>
      <trkpt lat="49.77109" lon="2.30129">
        <ele>92.9</ele>
        <time>2023-02-01T14:18:56Z</time>
      </trkpt>
      <trkpt lat="49.77111" lon="2.30126">
        <ele>92.8</ele>
        <time>2023-02-01T14:18:57Z</time>
      </trkpt>
      <trkpt lat="49.77112" lon="2.30125">
        <ele>92.8</ele>
        <time>2023-02-01T14:18:59Z</time>
      </trkpt>
      <trkpt lat="49.77112" lon="2.30124">
        <ele>92.7</ele>
        <time>2023-02-01T14:19:00Z</time>
      </trkpt>
      <trkpt lat="49.77113" lon="2.30123">
        <ele>92.7</ele>
        <time>2023-02-01T14:19:01Z</time>
      </trkpt>
      <trkpt lat="49.77114" lon="2.30122">
        <ele>92.7</ele>
        <time>2023-02-01T14:19:02Z</time>
      </trkpt>
      <trkpt lat="49.77116" lon="2.3012">
        <ele>92.6</ele>
        <time>2023-02-01T14:19:03Z</time>
      </trkpt>
      <trkpt lat="49.77116" lon="2.30119">
        <ele>92.6</ele>
        <time>2023-02-01T14:19:05Z</time>
      </trkpt>
      <trkpt lat="49.77117" lon="2.30118">
        <ele>92.6</ele>
        <time>2023-02-01T14:19:06Z</time>
      </trkpt>
      <trkpt lat="49.77119" lon="2.30116">
        <ele>92.5</ele>
        <time>2023-02-01T14:19:07Z</time>
      </trkpt>
      <trkpt lat="49.77119" lon="2.30115">
        <ele>92.5</ele>
        <time>2023-02-01T14:19:08Z</time>
      </trkpt>
      <trkpt lat="49.7712" lon="2.30114">
        <ele>92.4</ele>
        <time>2023-02-01T14:19:09Z</time>
      </trkpt>
      <trkpt lat="49.77121" lon="2.30111">
        <ele>92.4</ele>
        <time>2023-02-01T14:19:10Z</time>
      </trkpt>
      <trkpt lat="49.77122" lon="2.3011">
        <ele>92.4</ele>
        <time>2023-02-01T14:19:12Z</time>
      </trkpt>
      <trkpt lat="49.77122" lon="2.30109">
        <ele>92.4</ele>
        <time>2023-02-01T14:19:13Z</time>
      </trkpt>
      <trkpt lat="49.77123" lon="2.30108">
        <ele>92.3</ele>
        <time>2023-02-01T14:19:14Z</time>
      </trkpt>
      <trkpt lat="49.77124" lon="2.30107">
        <ele>92.3</ele>
        <time>2023-02-01T14:19:15Z</time>
      </trkpt>
      <trkpt lat="49.77124" lon="2.30106">
        <ele>92.3</ele>
        <time>2023-02-01T14:19:16Z</time>
      </trkpt>
      <trkpt lat="49.77125" lon="2.30104">
        <ele>92.3</ele>
        <time>2023-02-01T14:19:17Z</time>
      </trkpt>
      <trkpt lat="49.77126" lon="2.30103">
        <ele>92.3</ele>
        <time>2023-02-01T14:19:18Z</time>
      </trkpt>
      <trkpt lat="49.77126" lon="2.30101">
        <ele>92.2</ele>
        <time>2023-02-01T14:19:19Z</time>
      </trkpt>
      <trkpt lat="49.77127" lon="2.301">
        <ele>92.2</ele>
        <time>2023-02-01T14:19:20Z</time>
      </trkpt>
      <trkpt lat="49.77127" lon="2.30099">
        <ele>92.2</ele>
        <time>2023-02-01T14:19:22Z</time>
      </trkpt>
      <trkpt lat="49.77128" lon="2.30097">
        <ele>92.2</ele>
        <time>2023-02-01T14:19:23Z</time>
      </trkpt>
      <trkpt lat="49.77129" lon="2.30095">
        <ele>92.2</ele>
        <time>2023-02-01T14:19:24Z</time>
      </trkpt>
      <trkpt lat="49.77129" lon="2.30094">
        <ele>92.2</ele>
        <time>2023-02-01T14:19:25Z</time>
      </trkpt>
      <trkpt lat="49.7713" lon="2.30093">
        <ele>92.2</ele>
        <time>2023-02-01T14:19:26Z</time>
      </trkpt>
      <trkpt lat="49.7713" lon="2.30092">
        <ele>92.1</ele>
        <time>2023-02-01T14:19:27Z</time>
      </trkpt>
      <trkpt lat="49.77131" lon="2.3009">
        <ele>92.1</ele>
        <time>2023-02-01T14:19:28Z</time>
      </trkpt>
      <trkpt lat="49.77131" lon="2.30089">
        <ele>92.1</ele>
        <time>2023-02-01T14:19:29Z</time>
      </trkpt>
      <trkpt lat="49.77132" lon="2.30087">
        <ele>92.1</ele>
        <time>2023-02-01T14:19:31Z</time>
      </trkpt>
      <trkpt lat="49.77132" lon="2.30085">
        <ele>92.1</ele>
        <time>2023-02-01T14:19:32Z</time>
      </trkpt>
      <trkpt lat="49.77133" lon="2.30082">
        <ele>92.1</ele>
        <time>2023-02-01T14:19:33Z</time>
      </trkpt>
      <trkpt lat="49.77133" lon="2.3008">
        <ele>92.1</ele>
        <time>2023-02-01T14:19:34Z</time>
      </trkpt>
      <trkpt lat="49.77133" lon="2.30078">
        <ele>92.1</ele>
        <time>2023-02-01T14:19:35Z</time>
      </trkpt>
      <trkpt lat="49.77134" lon="2.30075">
        <ele>92.1</ele>
        <time>2023-02-01T14:19:36Z</time>
      </trkpt>
      <trkpt lat="49.77135" lon="2.30073">
        <ele>92.1</ele>
        <time>2023-02-01T14:19:37Z</time>
      </trkpt>
      <trkpt lat="49.77135" lon="2.3007">
        <ele>92.1</ele>
        <time>2023-02-01T14:19:39Z</time>
      </trkpt>
      <trkpt lat="49.77135" lon="2.30069">
        <ele>92.1</ele>
        <time>2023-02-01T14:19:40Z</time>
      </trkpt>
      <trkpt lat="49.77136" lon="2.30067">
        <ele>92.1</ele>
        <time>2023-02-01T14:19:41Z</time>
      </trkpt>
      <trkpt lat="49.77136" lon="2.30065">
        <ele>92</ele>
        <time>2023-02-01T14:19:42Z</time>
      </trkpt>
      <trkpt lat="49.77137" lon="2.30063">
        <ele>92</ele>
        <time>2023-02-01T14:19:43Z</time>
      </trkpt>
      <trkpt lat="49.77137" lon="2.30062">
        <ele>91.9</ele>
        <time>2023-02-01T14:19:44Z</time>
      </trkpt>
      <trkpt lat="49.77138" lon="2.30059">
        <ele>91.8</ele>
        <time>2023-02-01T14:19:45Z</time>
      </trkpt>
      <trkpt lat="49.77138" lon="2.30058">
        <ele>91.7</ele>
        <time>2023-02-01T14:19:47Z</time>
      </trkpt>
      <trkpt lat="49.77138" lon="2.30056">
        <ele>91.7</ele>
        <time>2023-02-01T14:19:48Z</time>
      </trkpt>
      <trkpt lat="49.77139" lon="2.30054">
        <ele>91.6</ele>
        <time>2023-02-01T14:19:49Z</time>
      </trkpt>
      <trkpt lat="49.77139" lon="2.30053">
        <ele>91.6</ele>
        <time>2023-02-01T14:19:50Z</time>
      </trkpt>
      <trkpt lat="49.77139" lon="2.30052">
        <ele>91.5</ele>
        <time>2023-02-01T14:19:51Z</time>
      </trkpt>
      <trkpt lat="49.77139" lon="2.30051">
        <ele>91.5</ele>
        <time>2023-02-01T14:19:52Z</time>
      </trkpt>
      <trkpt lat="49.77139" lon="2.3005">
        <ele>91.4</ele>
        <time>2023-02-01T14:19:53Z</time>
      </trkpt>
      <trkpt lat="49.7714" lon="2.30049">
        <ele>91.4</ele>
        <time>2023-02-01T14:19:55Z</time>
      </trkpt>
      <trkpt lat="49.77141" lon="2.3005">
        <ele>91.3</ele>
        <time>2023-02-01T14:19:56Z</time>
      </trkpt>
      <trkpt lat="49.77142" lon="2.30049">
        <ele>91.3</ele>
        <time>2023-02-01T14:19:57Z</time>
      </trkpt>
      <trkpt lat="49.77143" lon="2.30049">
        <ele>91.1</ele>
        <time>2023-02-01T14:19:59Z</time>
      </trkpt>
      <trkpt lat="49.77143" lon="2.3005">
        <ele>91.1</ele>
        <time>2023-02-01T14:20:01Z</time>
      </trkpt>
      <trkpt lat="49.77143" lon="2.30051">
        <ele>91.1</ele>
        <time>2023-02-01T14:20:02Z</time>
      </trkpt>
      <trkpt lat="49.77143" lon="2.3005">
        <ele>91.1</ele>
        <time>2023-02-01T14:20:04Z</time>
      </trkpt>
      <trkpt lat="49.77143" lon="2.3005">
        <ele>91</ele>
        <time>2023-02-01T14:20:05Z</time>
      </trkpt>
      <trkpt lat="49.77143" lon="2.30049">
        <ele>91</ele>
        <time>2023-02-01T14:20:07Z</time>
      </trkpt>
      <trkpt lat="49.77143" lon="2.30049">
        <ele>91</ele>
        <time>2023-02-01T14:20:08Z</time>
      </trkpt>
      <trkpt lat="49.77143" lon="2.30049">
        <ele>91</ele>
        <time>2023-02-01T14:20:09Z</time>
      </trkpt>
      <trkpt lat="49.77143" lon="2.30049">
        <ele>91</ele>
        <time>2023-02-01T14:20:11Z</time>
      </trkpt>
      <trkpt lat="49.77143" lon="2.30049">
        <ele>91</ele>
        <time>2023-02-01T14:20:12Z</time>
      </trkpt>
      <trkpt lat="49.77143" lon="2.30049">
        <ele>91</ele>
        <time>2023-02-01T14:20:13Z</time>
      </trkpt>
      <trkpt lat="49.77143" lon="2.30049">
        <ele>91</ele>
        <time>2023-02-01T14:20:15Z</time>
      </trkpt>
      <trkpt lat="49.77143" lon="2.30049">
        <ele>91</ele>
        <time>2023-02-01T14:20:16Z</time>
      </trkpt>
      <trkpt lat="49.77143" lon="2.30049">
        <ele>91</ele>
        <time>2023-02-01T14:20:17Z</time>
      </trkpt>
      <trkpt lat="49.77143" lon="2.30049">
        <ele>91</ele>
        <time>2023-02-01T14:20:18Z</time>
      </trkpt>
      <trkpt lat="49.77143" lon="2.30049">
        <ele>91</ele>
        <time>2023-02-01T14:20:19Z</time>
      </trkpt>
      <trkpt lat="49.77142" lon="2.30049">
        <ele>91</ele>
        <time>2023-02-01T14:20:20Z</time>
      </trkpt>
      <trkpt lat="49.77142" lon="2.30049">
        <ele>91</ele>
        <time>2023-02-01T14:20:21Z</time>
      </trkpt>
      <trkpt lat="49.77142" lon="2.30049">
        <ele>91</ele>
        <time>2023-02-01T14:20:22Z</time>
      </trkpt>
      <trkpt lat="49.77142" lon="2.30049">
        <ele>91</ele>
        <time>2023-02-01T14:20:23Z</time>
      </trkpt>
      <trkpt lat="49.77142" lon="2.30049">
        <ele>91</ele>
        <time>2023-02-01T14:20:24Z</time>
      </trkpt>
      <trkpt lat="49.77142" lon="2.30049">
        <ele>91</ele>
        <time>2023-02-01T14:20:25Z</time>
      </trkpt>
      <trkpt lat="49.77142" lon="2.30049">
        <ele>91</ele>
        <time>2023-02-01T14:20:26Z</time>
      </trkpt>
      <trkpt lat="49.77142" lon="2.30049">
        <ele>91</ele>
        <time>2023-02-01T14:20:27Z</time>
      </trkpt>
      <trkpt lat="49.77142" lon="2.30049">
        <ele>91</ele>
        <time>2023-02-01T14:20:28Z</time>
      </trkpt>
      <trkpt lat="49.77142" lon="2.30049">
        <ele>91</ele>
        <time>2023-02-01T14:20:29Z</time>
      </trkpt>
      <trkpt lat="49.77142" lon="2.30049">
        <ele>91</ele>
        <time>2023-02-01T14:20:30Z</time>
      </trkpt>
      <trkpt lat="49.77142" lon="2.30049">
        <ele>91</ele>
        <time>2023-02-01T14:20:31Z</time>
      </trkpt>
      <trkpt lat="49.77142" lon="2.30049">
        <ele>91</ele>
        <time>2023-02-01T14:20:32Z</time>
      </trkpt>
      <trkpt lat="49.77142" lon="2.30049">
        <ele>91</ele>
        <time>2023-02-01T14:20:33Z</time>
      </trkpt>
      <trkpt lat="49.77142" lon="2.30049">
        <ele>91</ele>
        <time>2023-02-01T14:20:34Z</time>
      </trkpt>
      <trkpt lat="49.77142" lon="2.30049">
        <ele>91</ele>
        <time>2023-02-01T14:20:35Z</time>
      </trkpt>
      <trkpt lat="49.77142" lon="2.30049">
        <ele>91</ele>
        <time>2023-02-01T14:20:36Z</time>
      </trkpt>
      <trkpt lat="49.77142" lon="2.30049">
        <ele>91</ele>
        <time>2023-02-01T14:20:37Z</time>
      </trkpt>
      <trkpt lat="49.77142" lon="2.30049">
        <ele>91</ele>
        <time>2023-02-01T14:20:38Z</time>
      </trkpt>
      <trkpt lat="49.77142" lon="2.30049">
        <ele>91</ele>
        <time>2023-02-01T14:20:39Z</time>
      </trkpt>
      <trkpt lat="49.77142" lon="2.30049">
        <ele>91</ele>
        <time>2023-02-01T14:20:40Z</time>
      </trkpt>
      <trkpt lat="49.77142" lon="2.30049">
        <ele>91</ele>
        <time>2023-02-01T14:20:41Z</time>
      </trkpt>
      <trkpt lat="49.77142" lon="2.30049">
        <ele>91</ele>
        <time>2023-02-01T14:20:42Z</time>
      </trkpt>
      <trkpt lat="49.77142" lon="2.30049">
        <ele>91</ele>
        <time>2023-02-01T14:20:43Z</time>
      </trkpt>
      <trkpt lat="49.77142" lon="2.30049">
        <ele>91</ele>
        <time>2023-02-01T14:20:44Z</time>
      </trkpt>
      <trkpt lat="49.77142" lon="2.30049">
        <ele>91</ele>
        <time>2023-02-01T14:20:45Z</time>
      </trkpt>
      <trkpt lat="49.77142" lon="2.30049">
        <ele>91</ele>
        <time>2023-02-01T14:20:46Z</time>
      </trkpt>
      <trkpt lat="49.77142" lon="2.30049">
        <ele>91</ele>
        <time>2023-02-01T14:20:47Z</time>
      </trkpt>
      <trkpt lat="49.77142" lon="2.30049">
        <ele>91</ele>
        <time>2023-02-01T14:20:48Z</time>
      </trkpt>
      <trkpt lat="49.77142" lon="2.30049">
        <ele>91</ele>
        <time>2023-02-01T14:20:49Z</time>
      </trkpt>
      <trkpt lat="49.77142" lon="2.30049">
        <ele>91</ele>
        <time>2023-02-01T14:20:50Z</time>
      </trkpt>
      <trkpt lat="49.77142" lon="2.30049">
        <ele>91</ele>
        <time>2023-02-01T14:20:51Z</time>
      </trkpt>
      <trkpt lat="49.77142" lon="2.30049">
        <ele>91</ele>
        <time>2023-02-01T14:20:52Z</time>
      </trkpt>
      <trkpt lat="49.77142" lon="2.30049">
        <ele>91</ele>
        <time>2023-02-01T14:20:53Z</time>
      </trkpt>
      <trkpt lat="49.77142" lon="2.30049">
        <ele>91</ele>
        <time>2023-02-01T14:20:54Z</time>
      </trkpt>
      <trkpt lat="49.77142" lon="2.30049">
        <ele>91</ele>
        <time>2023-02-01T14:20:55Z</time>
      </trkpt>
      <trkpt lat="49.77142" lon="2.30049">
        <ele>91</ele>
        <time>2023-02-01T14:20:56Z</time>
      </trkpt>
      <trkpt lat="49.77142" lon="2.30049">
        <ele>91</ele>
        <time>2023-02-01T14:20:57Z</time>
      </trkpt>
      <trkpt lat="49.77142" lon="2.30049">
        <ele>91</ele>
        <time>2023-02-01T14:20:58Z</time>
      </trkpt>
      <trkpt lat="49.77142" lon="2.30049">
        <ele>91</ele>
        <time>2023-02-01T14:20:59Z</time>
      </trkpt>
      <trkpt lat="49.77142" lon="2.30049">
        <ele>91</ele>
        <time>2023-02-01T14:21:00Z</time>
      </trkpt>
      <trkpt lat="49.77142" lon="2.30049">
        <ele>91</ele>
        <time>2023-02-01T14:21:01Z</time>
      </trkpt>
      <trkpt lat="49.77142" lon="2.30049">
        <ele>91</ele>
        <time>2023-02-01T14:21:02Z</time>
      </trkpt>
      <trkpt lat="49.77142" lon="2.30049">
        <ele>91</ele>
        <time>2023-02-01T14:21:03Z</time>
      </trkpt>
      <trkpt lat="49.77142" lon="2.30049">
        <ele>91</ele>
        <time>2023-02-01T14:21:04Z</time>
      </trkpt>
      <trkpt lat="49.77142" lon="2.30049">
        <ele>91</ele>
        <time>2023-02-01T14:21:05Z</time>
      </trkpt>
      <trkpt lat="49.77142" lon="2.30049">
        <ele>91</ele>
        <time>2023-02-01T14:21:06Z</time>
      </trkpt>
      <trkpt lat="49.77142" lon="2.30049">
        <ele>91</ele>
        <time>2023-02-01T14:21:07Z</time>
      </trkpt>
      <trkpt lat="49.77142" lon="2.30049">
        <ele>91</ele>
        <time>2023-02-01T14:21:08Z</time>
      </trkpt>
      <trkpt lat="49.77142" lon="2.30049">
        <ele>91</ele>
        <time>2023-02-01T14:21:09Z</time>
      </trkpt>
      <trkpt lat="49.77142" lon="2.30049">
        <ele>91</ele>
        <time>2023-02-01T14:21:10Z</time>
      </trkpt>
      <trkpt lat="49.77142" lon="2.30049">
        <ele>91</ele>
        <time>2023-02-01T14:21:11Z</time>
      </trkpt>
      <trkpt lat="49.77142" lon="2.30049">
        <ele>91</ele>
        <time>2023-02-01T14:21:12Z</time>
      </trkpt>
      <trkpt lat="49.77142" lon="2.30049">
        <ele>91</ele>
        <time>2023-02-01T14:21:13Z</time>
      </trkpt>
      <trkpt lat="49.77142" lon="2.30049">
        <ele>91</ele>
        <time>2023-02-01T14:21:14Z</time>
      </trkpt>
      <trkpt lat="49.77142" lon="2.30049">
        <ele>91</ele>
        <time>2023-02-01T14:21:15Z</time>
      </trkpt>
      <trkpt lat="49.77142" lon="2.30049">
        <ele>91</ele>
        <time>2023-02-01T14:21:16Z</time>
      </trkpt>
      <trkpt lat="49.77142" lon="2.30049">
        <ele>91</ele>
        <time>2023-02-01T14:21:17Z</time>
      </trkpt>
      <trkpt lat="49.77142" lon="2.30049">
        <ele>91</ele>
        <time>2023-02-01T14:21:18Z</time>
      </trkpt>
      <trkpt lat="49.77142" lon="2.30049">
        <ele>91</ele>
        <time>2023-02-01T14:21:19Z</time>
      </trkpt>
      <trkpt lat="49.77142" lon="2.30049">
        <ele>91</ele>
        <time>2023-02-01T14:21:20Z</time>
      </trkpt>
      <trkpt lat="49.77142" lon="2.30049">
        <ele>91</ele>
        <time>2023-02-01T14:21:21Z</time>
      </trkpt>
      <trkpt lat="49.77142" lon="2.30049">
        <ele>91</ele>
        <time>2023-02-01T14:21:22Z</time>
      </trkpt>
      <trkpt lat="49.77142" lon="2.30049">
        <ele>91</ele>
        <time>2023-02-01T14:21:23Z</time>
      </trkpt>
      <trkpt lat="49.77142" lon="2.30049">
        <ele>91</ele>
        <time>2023-02-01T14:21:24Z</time>
      </trkpt>
      <trkpt lat="49.77142" lon="2.30049">
        <ele>91</ele>
        <time>2023-02-01T14:21:25Z</time>
      </trkpt>
      <trkpt lat="49.77142" lon="2.30049">
        <ele>91</ele>
        <time>2023-02-01T14:21:26Z</time>
      </trkpt>
      <trkpt lat="49.77142" lon="2.30049">
        <ele>91</ele>
        <time>2023-02-01T14:21:27Z</time>
      </trkpt>
      <trkpt lat="49.77142" lon="2.30049">
        <ele>91</ele>
        <time>2023-02-01T14:21:28Z</time>
      </trkpt>
      <trkpt lat="49.77142" lon="2.30049">
        <ele>91</ele>
        <time>2023-02-01T14:21:29Z</time>
      </trkpt>
      <trkpt lat="49.77142" lon="2.30049">
        <ele>91</ele>
        <time>2023-02-01T14:21:30Z</time>
      </trkpt>
      <trkpt lat="49.77142" lon="2.30049">
        <ele>91</ele>
        <time>2023-02-01T14:21:31Z</time>
      </trkpt>
      <trkpt lat="49.77142" lon="2.30049">
        <ele>91</ele>
        <time>2023-02-01T14:21:32Z</time>
      </trkpt>
      <trkpt lat="49.77142" lon="2.30049">
        <ele>91</ele>
        <time>2023-02-01T14:21:33Z</time>
      </trkpt>
      <trkpt lat="49.77142" lon="2.30049">
        <ele>91</ele>
        <time>2023-02-01T14:21:34Z</time>
      </trkpt>
      <trkpt lat="49.77142" lon="2.30049">
        <ele>91</ele>
        <time>2023-02-01T14:21:35Z</time>
      </trkpt>
      <trkpt lat="49.77142" lon="2.30049">
        <ele>91</ele>
        <time>2023-02-01T14:21:36Z</time>
      </trkpt>
      <trkpt lat="49.77142" lon="2.30049">
        <ele>91</ele>
        <time>2023-02-01T14:21:37Z</time>
      </trkpt>
      <trkpt lat="49.77142" lon="2.30049">
        <ele>91</ele>
        <time>2023-02-01T14:21:38Z</time>
      </trkpt>
      <trkpt lat="49.77142" lon="2.30049">
        <ele>91</ele>
        <time>2023-02-01T14:21:39Z</time>
      </trkpt>
      <trkpt lat="49.77142" lon="2.30049">
        <ele>91</ele>
        <time>2023-02-01T14:21:40Z</time>
      </trkpt>
      <trkpt lat="49.77142" lon="2.30049">
        <ele>91</ele>
        <time>2023-02-01T14:21:41Z</time>
      </trkpt>
      <trkpt lat="49.77142" lon="2.30049">
        <ele>91</ele>
        <time>2023-02-01T14:21:42Z</time>
      </trkpt>
      <trkpt lat="49.77142" lon="2.30049">
        <ele>91</ele>
        <time>2023-02-01T14:21:43Z</time>
      </trkpt>
      <trkpt lat="49.77142" lon="2.30049">
        <ele>91</ele>
        <time>2023-02-01T14:21:44Z</time>
      </trkpt>
      <trkpt lat="49.77142" lon="2.30049">
        <ele>91</ele>
        <time>2023-02-01T14:21:45Z</time>
      </trkpt>
      <trkpt lat="49.77142" lon="2.30049">
        <ele>91</ele>
        <time>2023-02-01T14:21:46Z</time>
      </trkpt>
      <trkpt lat="49.77142" lon="2.30049">
        <ele>91</ele>
        <time>2023-02-01T14:21:47Z</time>
      </trkpt>
      <trkpt lat="49.77142" lon="2.30049">
        <ele>91</ele>
        <time>2023-02-01T14:21:48Z</time>
      </trkpt>
      <trkpt lat="49.77142" lon="2.30049">
        <ele>91</ele>
        <time>2023-02-01T14:21:49Z</time>
      </trkpt>
      <trkpt lat="49.77142" lon="2.30049">
        <ele>91</ele>
        <time>2023-02-01T14:21:50Z</time>
      </trkpt>
      <trkpt lat="49.77142" lon="2.30049">
        <ele>91</ele>
        <time>2023-02-01T14:21:51Z</time>
      </trkpt>
      <trkpt lat="49.77142" lon="2.30049">
        <ele>91</ele>
        <time>2023-02-01T14:21:52Z</time>
      </trkpt>
      <trkpt lat="49.77142" lon="2.30049">
        <ele>91</ele>
        <time>2023-02-01T14:21:53Z</time>
      </trkpt>
      <trkpt lat="49.77142" lon="2.30049">
        <ele>91</ele>
        <time>2023-02-01T14:21:54Z</time>
      </trkpt>
      <trkpt lat="49.77142" lon="2.30049">
        <ele>91</ele>
        <time>2023-02-01T14:21:55Z</time>
      </trkpt>
      <trkpt lat="49.77142" lon="2.30049">
        <ele>91</ele>
        <time>2023-02-01T14:21:56Z</time>
      </trkpt>
      <trkpt lat="49.77142" lon="2.30049">
        <ele>91</ele>
        <time>2023-02-01T14:21:57Z</time>
      </trkpt>
      <trkpt lat="49.77142" lon="2.30049">
        <ele>91</ele>
        <time>2023-02-01T14:21:58Z</time>
      </trkpt>
      <trkpt lat="49.77142" lon="2.30049">
        <ele>91</ele>
        <time>2023-02-01T14:21:59Z</time>
      </trkpt>
      <trkpt lat="49.77142" lon="2.30049">
        <ele>91</ele>
        <time>2023-02-01T14:22:00Z</time>
      </trkpt>
      <trkpt lat="49.77142" lon="2.30049">
        <ele>91</ele>
        <time>2023-02-01T14:22:01Z</time>
      </trkpt>
      <trkpt lat="49.77142" lon="2.30049">
        <ele>91</ele>
        <time>2023-02-01T14:22:02Z</time>
      </trkpt>
      <trkpt lat="49.77142" lon="2.30049">
        <ele>91</ele>
        <time>2023-02-01T14:22:03Z</time>
      </trkpt>
      <trkpt lat="49.77142" lon="2.30049">
        <ele>91</ele>
        <time>2023-02-01T14:22:04Z</time>
      </trkpt>
      <trkpt lat="49.77142" lon="2.30049">
        <ele>91</ele>
        <time>2023-02-01T14:22:05Z</time>
      </trkpt>
      <trkpt lat="49.77142" lon="2.30049">
        <ele>91</ele>
        <time>2023-02-01T14:22:06Z</time>
      </trkpt>
      <trkpt lat="49.77142" lon="2.30049">
        <ele>91</ele>
        <time>2023-02-01T14:22:07Z</time>
      </trkpt>
      <trkpt lat="49.77142" lon="2.30049">
        <ele>91</ele>
        <time>2023-02-01T14:22:08Z</time>
      </trkpt>
      <trkpt lat="49.77142" lon="2.30049">
        <ele>91</ele>
        <time>2023-02-01T14:22:09Z</time>
      </trkpt>
      <trkpt lat="49.77142" lon="2.30049">
        <ele>91</ele>
        <time>2023-02-01T14:22:10Z</time>
      </trkpt>
      <trkpt lat="49.77142" lon="2.30049">
        <ele>91</ele>
        <time>2023-02-01T14:22:11Z</time>
      </trkpt>
      <trkpt lat="49.77142" lon="2.30049">
        <ele>91</ele>
        <time>2023-02-01T14:22:12Z</time>
      </trkpt>
      <trkpt lat="49.77142" lon="2.30049">
        <ele>91</ele>
        <time>2023-02-01T14:22:13Z</time>
      </trkpt>
      <trkpt lat="49.77142" lon="2.30049">
        <ele>91</ele>
        <time>2023-02-01T14:22:14Z</time>
      </trkpt>
      <trkpt lat="49.77142" lon="2.30049">
        <ele>91</ele>
        <time>2023-02-01T14:22:15Z</time>
      </trkpt>
      <trkpt lat="49.77142" lon="2.30049">
        <ele>91</ele>
        <time>2023-02-01T14:22:16Z</time>
      </trkpt>
      <trkpt lat="49.77142" lon="2.30049">
        <ele>91</ele>
        <time>2023-02-01T14:22:17Z</time>
      </trkpt>
      <trkpt lat="49.77142" lon="2.30049">
        <ele>91</ele>
        <time>2023-02-01T14:22:18Z</time>
      </trkpt>
      <trkpt lat="49.77142" lon="2.30049">
        <ele>91</ele>
        <time>2023-02-01T14:22:19Z</time>
      </trkpt>
      <trkpt lat="49.77142" lon="2.30049">
        <ele>91</ele>
        <time>2023-02-01T14:22:20Z</time>
      </trkpt>
      <trkpt lat="49.77142" lon="2.30049">
        <ele>91</ele>
        <time>2023-02-01T14:22:21Z</time>
      </trkpt>
      <trkpt lat="49.77142" lon="2.30049">
        <ele>91</ele>
        <time>2023-02-01T14:22:22Z</time>
      </trkpt>
      <trkpt lat="49.77142" lon="2.30049">
        <ele>91</ele>
        <time>2023-02-01T14:22:23Z</time>
      </trkpt>
      <trkpt lat="49.77142" lon="2.30049">
        <ele>91</ele>
        <time>2023-02-01T14:22:24Z</time>
      </trkpt>
      <trkpt lat="49.77142" lon="2.30049">
        <ele>91</ele>
        <time>2023-02-01T14:22:25Z</time>
      </trkpt>
      <trkpt lat="49.77142" lon="2.30049">
        <ele>91</ele>
        <time>2023-02-01T14:22:26Z</time>
      </trkpt>
      <trkpt lat="49.77142" lon="2.30049">
        <ele>91</ele>
        <time>2023-02-01T14:22:27Z</time>
      </trkpt>
      <trkpt lat="49.77142" lon="2.30049">
        <ele>91</ele>
        <time>2023-02-01T14:22:28Z</time>
      </trkpt>
      <trkpt lat="49.77142" lon="2.30049">
        <ele>91</ele>
        <time>2023-02-01T14:22:29Z</time>
      </trkpt>
      <trkpt lat="49.77142" lon="2.30049">
        <ele>91</ele>
        <time>2023-02-01T14:22:30Z</time>
      </trkpt>
      <trkpt lat="49.77142" lon="2.30049">
        <ele>91</ele>
        <time>2023-02-01T14:22:31Z</time>
      </trkpt>
      <trkpt lat="49.77142" lon="2.30049">
        <ele>91</ele>
        <time>2023-02-01T14:22:32Z</time>
      </trkpt>
      <trkpt lat="49.77142" lon="2.30049">
        <ele>91</ele>
        <time>2023-02-01T14:22:33Z</time>
      </trkpt>
      <trkpt lat="49.77142" lon="2.30049">
        <ele>91</ele>
        <time>2023-02-01T14:22:34Z</time>
      </trkpt>
      <trkpt lat="49.77142" lon="2.30049">
        <ele>91</ele>
        <time>2023-02-01T14:22:35Z</time>
      </trkpt>
      <trkpt lat="49.77142" lon="2.30049">
        <ele>91</ele>
        <time>2023-02-01T14:22:36Z</time>
      </trkpt>
      <trkpt lat="49.77142" lon="2.30049">
        <ele>91</ele>
        <time>2023-02-01T14:22:37Z</time>
      </trkpt>
      <trkpt lat="49.77142" lon="2.30049">
        <ele>91</ele>
        <time>2023-02-01T14:22:38Z</time>
      </trkpt>
      <trkpt lat="49.77142" lon="2.30049">
        <ele>91</ele>
        <time>2023-02-01T14:22:39Z</time>
      </trkpt>
      <trkpt lat="49.77142" lon="2.30049">
        <ele>91</ele>
        <time>2023-02-01T14:22:40Z</time>
      </trkpt>
      <trkpt lat="49.77142" lon="2.30049">
        <ele>91</ele>
        <time>2023-02-01T14:22:41Z</time>
      </trkpt>
      <trkpt lat="49.77142" lon="2.30049">
        <ele>91</ele>
        <time>2023-02-01T14:22:42Z</time>
      </trkpt>
      <trkpt lat="49.77142" lon="2.30049">
        <ele>91</ele>
        <time>2023-02-01T14:22:43Z</time>
      </trkpt>
      <trkpt lat="49.77142" lon="2.30049">
        <ele>91</ele>
        <time>2023-02-01T14:22:44Z</time>
      </trkpt>
      <trkpt lat="49.77142" lon="2.30049">
        <ele>91</ele>
        <time>2023-02-01T14:22:45Z</time>
      </trkpt>
      <trkpt lat="49.77142" lon="2.30049">
        <ele>91</ele>
        <time>2023-02-01T14:22:46Z</time>
      </trkpt>
      <trkpt lat="49.77142" lon="2.30049">
        <ele>91</ele>
        <time>2023-02-01T14:22:47Z</time>
      </trkpt>
      <trkpt lat="49.77142" lon="2.30049">
        <ele>91</ele>
        <time>2023-02-01T14:22:48Z</time>
      </trkpt>
      <trkpt lat="49.77142" lon="2.30049">
        <ele>91</ele>
        <time>2023-02-01T14:22:49Z</time>
      </trkpt>
      <trkpt lat="49.77142" lon="2.30049">
        <ele>91</ele>
        <time>2023-02-01T14:22:50Z</time>
      </trkpt>
      <trkpt lat="49.77142" lon="2.30049">
        <ele>91</ele>
        <time>2023-02-01T14:22:51Z</time>
      </trkpt>
      <trkpt lat="49.77142" lon="2.30049">
        <ele>91</ele>
        <time>2023-02-01T14:22:52Z</time>
      </trkpt>
      <trkpt lat="49.77142" lon="2.30049">
        <ele>91</ele>
        <time>2023-02-01T14:22:53Z</time>
      </trkpt>
      <trkpt lat="49.77142" lon="2.30049">
        <ele>91</ele>
        <time>2023-02-01T14:22:54Z</time>
      </trkpt>
      <trkpt lat="49.77142" lon="2.30049">
        <ele>91</ele>
        <time>2023-02-01T14:22:55Z</time>
      </trkpt>
      <trkpt lat="49.77142" lon="2.30049">
        <ele>91</ele>
        <time>2023-02-01T14:22:56Z</time>
      </trkpt>
      <trkpt lat="49.77142" lon="2.30049">
        <ele>91</ele>
        <time>2023-02-01T14:22:57Z</time>
      </trkpt>
      <trkpt lat="49.77142" lon="2.30049">
        <ele>91</ele>
        <time>2023-02-01T14:22:58Z</time>
      </trkpt>
      <trkpt lat="49.77142" lon="2.30049">
        <ele>91</ele>
        <time>2023-02-01T14:22:59Z</time>
      </trkpt>
      <trkpt lat="49.77142" lon="2.30049">
        <ele>91</ele>
        <time>2023-02-01T14:23:00Z</time>
      </trkpt>
      <trkpt lat="49.77142" lon="2.30049">
        <ele>91</ele>
        <time>2023-02-01T14:23:01Z</time>
      </trkpt>
      <trkpt lat="49.77142" lon="2.30049">
        <ele>91</ele>
        <time>2023-02-01T14:23:02Z</time>
      </trkpt>
      <trkpt lat="49.77142" lon="2.30049">
        <ele>91</ele>
        <time>2023-02-01T14:23:03Z</time>
      </trkpt>
      <trkpt lat="49.77142" lon="2.30049">
        <ele>91</ele>
        <time>2023-02-01T14:23:04Z</time>
      </trkpt>
      <trkpt lat="49.77142" lon="2.30049">
        <ele>91</ele>
        <time>2023-02-01T14:23:05Z</time>
      </trkpt>
      <trkpt lat="49.77142" lon="2.30049">
        <ele>91</ele>
        <time>2023-02-01T14:23:06Z</time>
      </trkpt>
      <trkpt lat="49.77142" lon="2.30049">
        <ele>91</ele>
        <time>2023-02-01T14:23:07Z</time>
      </trkpt>
      <trkpt lat="49.77142" lon="2.30049">
        <ele>91</ele>
        <time>2023-02-01T14:23:08Z</time>
      </trkpt>
      <trkpt lat="49.77142" lon="2.30049">
        <ele>91</ele>
        <time>2023-02-01T14:23:09Z</time>
      </trkpt>
      <trkpt lat="49.77142" lon="2.30049">
        <ele>91</ele>
        <time>2023-02-01T14:23:10Z</time>
      </trkpt>
      <trkpt lat="49.77142" lon="2.30049">
        <ele>91</ele>
        <time>2023-02-01T14:23:11Z</time>
      </trkpt>
      <trkpt lat="49.77142" lon="2.30049">
        <ele>90.9</ele>
        <time>2023-02-01T14:23:12Z</time>
      </trkpt>
      <trkpt lat="49.77141" lon="2.30048">
        <ele>90.9</ele>
        <time>2023-02-01T14:23:13Z</time>
      </trkpt>
      <trkpt lat="49.7714" lon="2.30048">
        <ele>90.9</ele>
        <time>2023-02-01T14:23:14Z</time>
      </trkpt>
      <trkpt lat="49.77141" lon="2.30048">
        <ele>90.9</ele>
        <time>2023-02-01T14:23:15Z</time>
      </trkpt>
      <trkpt lat="49.77141" lon="2.30048">
        <ele>90.8</ele>
        <time>2023-02-01T14:23:16Z</time>
      </trkpt>
      <trkpt lat="49.77142" lon="2.30048">
        <ele>90.8</ele>
        <time>2023-02-01T14:23:17Z</time>
      </trkpt>
      <trkpt lat="49.77142" lon="2.30048">
        <ele>90.8</ele>
        <time>2023-02-01T14:23:18Z</time>
      </trkpt>
      <trkpt lat="49.77143" lon="2.30048">
        <ele>90.8</ele>
        <time>2023-02-01T14:23:19Z</time>
      </trkpt>
      <trkpt lat="49.77143" lon="2.30047">
        <ele>90.8</ele>
        <time>2023-02-01T14:23:20Z</time>
      </trkpt>
      <trkpt lat="49.77144" lon="2.30046">
        <ele>90.7</ele>
        <time>2023-02-01T14:23:21Z</time>
      </trkpt>
      <trkpt lat="49.77145" lon="2.30046">
        <ele>90.7</ele>
        <time>2023-02-01T14:23:23Z</time>
      </trkpt>
      <trkpt lat="49.77147" lon="2.30046">
        <ele>90.6</ele>
        <time>2023-02-01T14:23:24Z</time>
      </trkpt>
      <trkpt lat="49.77148" lon="2.30046">
        <ele>90.5</ele>
        <time>2023-02-01T14:23:25Z</time>
      </trkpt>
      <trkpt lat="49.7715" lon="2.30046">
        <ele>90.5</ele>
        <time>2023-02-01T14:23:26Z</time>
      </trkpt>
      <trkpt lat="49.77152" lon="2.30046">
        <ele>90.4</ele>
        <time>2023-02-01T14:23:28Z</time>
      </trkpt>
      <trkpt lat="49.77153" lon="2.30046">
        <ele>90.4</ele>
        <time>2023-02-01T14:23:29Z</time>
      </trkpt>
      <trkpt lat="49.77155" lon="2.30046">
        <ele>90.3</ele>
        <time>2023-02-01T14:23:30Z</time>
      </trkpt>
      <trkpt lat="49.77157" lon="2.30047">
        <ele>90.3</ele>
        <time>2023-02-01T14:23:32Z</time>
      </trkpt>
      <trkpt lat="49.77157" lon="2.30047">
        <ele>90.2</ele>
        <time>2023-02-01T14:23:33Z</time>
      </trkpt>
      <trkpt lat="49.77158" lon="2.30047">
        <ele>90.2</ele>
        <time>2023-02-01T14:23:34Z</time>
      </trkpt>
      <trkpt lat="49.7716" lon="2.30047">
        <ele>90.2</ele>
        <time>2023-02-01T14:23:35Z</time>
      </trkpt>
      <trkpt lat="49.77161" lon="2.30047">
        <ele>90.1</ele>
        <time>2023-02-01T14:23:36Z</time>
      </trkpt>
      <trkpt lat="49.77162" lon="2.30047">
        <ele>90.1</ele>
        <time>2023-02-01T14:23:38Z</time>
      </trkpt>
      <trkpt lat="49.77163" lon="2.30047">
        <ele>90.1</ele>
        <time>2023-02-01T14:23:39Z</time>
      </trkpt>
      <trkpt lat="49.77164" lon="2.30047">
        <ele>90.1</ele>
        <time>2023-02-01T14:23:40Z</time>
      </trkpt>
      <trkpt lat="49.77165" lon="2.30047">
        <ele>90</ele>
        <time>2023-02-01T14:23:41Z</time>
      </trkpt>
      <trkpt lat="49.77168" lon="2.30048">
        <ele>90</ele>
        <time>2023-02-01T14:23:42Z</time>
      </trkpt>
      <trkpt lat="49.77168" lon="2.30048">
        <ele>90</ele>
        <time>2023-02-01T14:23:43Z</time>
      </trkpt>
      <trkpt lat="49.77169" lon="2.30048">
        <ele>89.9</ele>
        <time>2023-02-01T14:23:44Z</time>
      </trkpt>
      <trkpt lat="49.7717" lon="2.30048">
        <ele>89.9</ele>
        <time>2023-02-01T14:23:46Z</time>
      </trkpt>
      <trkpt lat="49.77171" lon="2.30049">
        <ele>89.9</ele>
        <time>2023-02-01T14:23:47Z</time>
      </trkpt>
      <trkpt lat="49.77172" lon="2.30049">
        <ele>89.9</ele>
        <time>2023-02-01T14:23:48Z</time>
      </trkpt>
      <trkpt lat="49.77175" lon="2.3005">
        <ele>89.8</ele>
        <time>2023-02-01T14:23:49Z</time>
      </trkpt>
      <trkpt lat="49.77176" lon="2.30051">
        <ele>89.8</ele>
        <time>2023-02-01T14:23:51Z</time>
      </trkpt>
      <trkpt lat="49.77177" lon="2.30051">
        <ele>89.8</ele>
        <time>2023-02-01T14:23:52Z</time>
      </trkpt>
      <trkpt lat="49.77178" lon="2.30051">
        <ele>89.7</ele>
        <time>2023-02-01T14:23:54Z</time>
      </trkpt>
      <trkpt lat="49.7718" lon="2.30052">
        <ele>89.7</ele>
        <time>2023-02-01T14:23:55Z</time>
      </trkpt>
      <trkpt lat="49.77181" lon="2.30052">
        <ele>89.7</ele>
        <time>2023-02-01T14:23:56Z</time>
      </trkpt>
      <trkpt lat="49.77182" lon="2.30053">
        <ele>89.7</ele>
        <time>2023-02-01T14:23:57Z</time>
      </trkpt>
      <trkpt lat="49.77183" lon="2.30053">
        <ele>89.6</ele>
        <time>2023-02-01T14:23:58Z</time>
      </trkpt>
      <trkpt lat="49.77185" lon="2.30054">
        <ele>89.6</ele>
        <time>2023-02-01T14:23:59Z</time>
      </trkpt>
      <trkpt lat="49.77186" lon="2.30054">
        <ele>89.6</ele>
        <time>2023-02-01T14:24:00Z</time>
      </trkpt>
      <trkpt lat="49.77186" lon="2.30054">
        <ele>89.6</ele>
        <time>2023-02-01T14:24:01Z</time>
      </trkpt>
      <trkpt lat="49.77188" lon="2.30054">
        <ele>89.6</ele>
        <time>2023-02-01T14:24:03Z</time>
      </trkpt>
      <trkpt lat="49.77189" lon="2.30054">
        <ele>89.6</ele>
        <time>2023-02-01T14:24:04Z</time>
      </trkpt>
      <trkpt lat="49.7719" lon="2.30054">
        <ele>89.5</ele>
        <time>2023-02-01T14:24:05Z</time>
      </trkpt>
      <trkpt lat="49.7719" lon="2.30054">
        <ele>89.5</ele>
        <time>2023-02-01T14:24:06Z</time>
      </trkpt>
      <trkpt lat="49.77192" lon="2.30055">
        <ele>89.5</ele>
        <time>2023-02-01T14:24:07Z</time>
      </trkpt>
      <trkpt lat="49.77193" lon="2.30056">
        <ele>89.5</ele>
        <time>2023-02-01T14:24:08Z</time>
      </trkpt>
      <trkpt lat="49.77194" lon="2.30056">
        <ele>89.5</ele>
        <time>2023-02-01T14:24:09Z</time>
      </trkpt>
      <trkpt lat="49.77194" lon="2.30057">
        <ele>89.5</ele>
        <time>2023-02-01T14:24:11Z</time>
      </trkpt>
      <trkpt lat="49.77195" lon="2.30057">
        <ele>89.5</ele>
        <time>2023-02-01T14:24:12Z</time>
      </trkpt>
      <trkpt lat="49.77197" lon="2.30057">
        <ele>89.5</ele>
        <time>2023-02-01T14:24:13Z</time>
      </trkpt>
      <trkpt lat="49.77198" lon="2.30058">
        <ele>89.4</ele>
        <time>2023-02-01T14:24:14Z</time>
      </trkpt>
      <trkpt lat="49.77199" lon="2.30058">
        <ele>89.4</ele>
        <time>2023-02-01T14:24:15Z</time>
      </trkpt>
      <trkpt lat="49.772" lon="2.30058">
        <ele>89.4</ele>
        <time>2023-02-01T14:24:16Z</time>
      </trkpt>
      <trkpt lat="49.77201" lon="2.30059">
        <ele>89.4</ele>
        <time>2023-02-01T14:24:17Z</time>
      </trkpt>
      <trkpt lat="49.77202" lon="2.30059">
        <ele>89.4</ele>
        <time>2023-02-01T14:24:18Z</time>
      </trkpt>
      <trkpt lat="49.77204" lon="2.30059">
        <ele>89.4</ele>
        <time>2023-02-01T14:24:20Z</time>
      </trkpt>
      <trkpt lat="49.77205" lon="2.3006">
        <ele>89.4</ele>
        <time>2023-02-01T14:24:21Z</time>
      </trkpt>
      <trkpt lat="49.77206" lon="2.30061">
        <ele>89.4</ele>
        <time>2023-02-01T14:24:22Z</time>
      </trkpt>
      <trkpt lat="49.77206" lon="2.30061">
        <ele>89.4</ele>
        <time>2023-02-01T14:24:23Z</time>
      </trkpt>
      <trkpt lat="49.77208" lon="2.30062">
        <ele>89.3</ele>
        <time>2023-02-01T14:24:24Z</time>
      </trkpt>
      <trkpt lat="49.77209" lon="2.30063">
        <ele>89.3</ele>
        <time>2023-02-01T14:24:26Z</time>
      </trkpt>
      <trkpt lat="49.7721" lon="2.30064">
        <ele>89.3</ele>
        <time>2023-02-01T14:24:27Z</time>
      </trkpt>
      <trkpt lat="49.77211" lon="2.30065">
        <ele>89.3</ele>
        <time>2023-02-01T14:24:28Z</time>
      </trkpt>
      <trkpt lat="49.77213" lon="2.30066">
        <ele>89.3</ele>
        <time>2023-02-01T14:24:30Z</time>
      </trkpt>
      <trkpt lat="49.77214" lon="2.30068">
        <ele>89.2</ele>
        <time>2023-02-01T14:24:31Z</time>
      </trkpt>
      <trkpt lat="49.77215" lon="2.30069">
        <ele>89.2</ele>
        <time>2023-02-01T14:24:32Z</time>
      </trkpt>
      <trkpt lat="49.77216" lon="2.30069">
        <ele>89.2</ele>
        <time>2023-02-01T14:24:33Z</time>
      </trkpt>
      <trkpt lat="49.77217" lon="2.30071">
        <ele>89.2</ele>
        <time>2023-02-01T14:24:34Z</time>
      </trkpt>
      <trkpt lat="49.77218" lon="2.30072">
        <ele>89.2</ele>
        <time>2023-02-01T14:24:35Z</time>
      </trkpt>
      <trkpt lat="49.77219" lon="2.30072">
        <ele>89.2</ele>
        <time>2023-02-01T14:24:36Z</time>
      </trkpt>
      <trkpt lat="49.77221" lon="2.30073">
        <ele>89.1</ele>
        <time>2023-02-01T14:24:37Z</time>
      </trkpt>
      <trkpt lat="49.77222" lon="2.30074">
        <ele>89.1</ele>
        <time>2023-02-01T14:24:39Z</time>
      </trkpt>
      <trkpt lat="49.77223" lon="2.30074">
        <ele>89.1</ele>
        <time>2023-02-01T14:24:40Z</time>
      </trkpt>
      <trkpt lat="49.77224" lon="2.30074">
        <ele>89.1</ele>
        <time>2023-02-01T14:24:41Z</time>
      </trkpt>
      <trkpt lat="49.77225" lon="2.30075">
        <ele>89.1</ele>
        <time>2023-02-01T14:24:42Z</time>
      </trkpt>
      <trkpt lat="49.77226" lon="2.30075">
        <ele>89.1</ele>
        <time>2023-02-01T14:24:43Z</time>
      </trkpt>
      <trkpt lat="49.77227" lon="2.30076">
        <ele>89.1</ele>
        <time>2023-02-01T14:24:44Z</time>
      </trkpt>
      <trkpt lat="49.77229" lon="2.30077">
        <ele>89</ele>
        <time>2023-02-01T14:24:45Z</time>
      </trkpt>
      <trkpt lat="49.77231" lon="2.30078">
        <ele>89</ele>
        <time>2023-02-01T14:24:47Z</time>
      </trkpt>
      <trkpt lat="49.77231" lon="2.30079">
        <ele>89</ele>
        <time>2023-02-01T14:24:48Z</time>
      </trkpt>
      <trkpt lat="49.77232" lon="2.30079">
        <ele>89</ele>
        <time>2023-02-01T14:24:49Z</time>
      </trkpt>
      <trkpt lat="49.77233" lon="2.3008">
        <ele>89</ele>
        <time>2023-02-01T14:24:50Z</time>
      </trkpt>
      <trkpt lat="49.77234" lon="2.30081">
        <ele>89</ele>
        <time>2023-02-01T14:24:51Z</time>
      </trkpt>
      <trkpt lat="49.77235" lon="2.30082">
        <ele>89</ele>
        <time>2023-02-01T14:24:52Z</time>
      </trkpt>
      <trkpt lat="49.77236" lon="2.30083">
        <ele>89</ele>
        <time>2023-02-01T14:24:53Z</time>
      </trkpt>
      <trkpt lat="49.77238" lon="2.30084">
        <ele>88.9</ele>
        <time>2023-02-01T14:24:55Z</time>
      </trkpt>
      <trkpt lat="49.77239" lon="2.30084">
        <ele>88.9</ele>
        <time>2023-02-01T14:24:56Z</time>
      </trkpt>
      <trkpt lat="49.7724" lon="2.30085">
        <ele>88.9</ele>
        <time>2023-02-01T14:24:57Z</time>
      </trkpt>
      <trkpt lat="49.77241" lon="2.30085">
        <ele>88.9</ele>
        <time>2023-02-01T14:24:58Z</time>
      </trkpt>
      <trkpt lat="49.77243" lon="2.30086">
        <ele>88.9</ele>
        <time>2023-02-01T14:24:59Z</time>
      </trkpt>
      <trkpt lat="49.77244" lon="2.30086">
        <ele>88.9</ele>
        <time>2023-02-01T14:25:00Z</time>
      </trkpt>
      <trkpt lat="49.77245" lon="2.30087">
        <ele>88.9</ele>
        <time>2023-02-01T14:25:01Z</time>
      </trkpt>
      <trkpt lat="49.77247" lon="2.30088">
        <ele>88.8</ele>
        <time>2023-02-01T14:25:02Z</time>
      </trkpt>
      <trkpt lat="49.77247" lon="2.30088">
        <ele>88.8</ele>
        <time>2023-02-01T14:25:04Z</time>
      </trkpt>
      <trkpt lat="49.77248" lon="2.30089">
        <ele>88.8</ele>
        <time>2023-02-01T14:25:05Z</time>
      </trkpt>
      <trkpt lat="49.7725" lon="2.3009">
        <ele>88.8</ele>
        <time>2023-02-01T14:25:06Z</time>
      </trkpt>
      <trkpt lat="49.7725" lon="2.3009">
        <ele>88.8</ele>
        <time>2023-02-01T14:25:07Z</time>
      </trkpt>
      <trkpt lat="49.77251" lon="2.30091">
        <ele>88.8</ele>
        <time>2023-02-01T14:25:08Z</time>
      </trkpt>
      <trkpt lat="49.77252" lon="2.30091">
        <ele>88.8</ele>
        <time>2023-02-01T14:25:09Z</time>
      </trkpt>
      <trkpt lat="49.77253" lon="2.30092">
        <ele>88.8</ele>
        <time>2023-02-01T14:25:10Z</time>
      </trkpt>
      <trkpt lat="49.77254" lon="2.30092">
        <ele>88.8</ele>
        <time>2023-02-01T14:25:11Z</time>
      </trkpt>
      <trkpt lat="49.77254" lon="2.30093">
        <ele>88.8</ele>
        <time>2023-02-01T14:25:13Z</time>
      </trkpt>
      <trkpt lat="49.77255" lon="2.30094">
        <ele>88.7</ele>
        <time>2023-02-01T14:25:14Z</time>
      </trkpt>
      <trkpt lat="49.77257" lon="2.30095">
        <ele>88.7</ele>
        <time>2023-02-01T14:25:15Z</time>
      </trkpt>
      <trkpt lat="49.77257" lon="2.30096">
        <ele>88.7</ele>
        <time>2023-02-01T14:25:16Z</time>
      </trkpt>
      <trkpt lat="49.77259" lon="2.30098">
        <ele>88.7</ele>
        <time>2023-02-01T14:25:17Z</time>
      </trkpt>
      <trkpt lat="49.7726" lon="2.30098">
        <ele>88.7</ele>
        <time>2023-02-01T14:25:18Z</time>
      </trkpt>
      <trkpt lat="49.77261" lon="2.30099">
        <ele>88.7</ele>
        <time>2023-02-01T14:25:19Z</time>
      </trkpt>
      <trkpt lat="49.77262" lon="2.301">
        <ele>88.7</ele>
        <time>2023-02-01T14:25:20Z</time>
      </trkpt>
      <trkpt lat="49.77263" lon="2.30101">
        <ele>88.6</ele>
        <time>2023-02-01T14:25:21Z</time>
      </trkpt>
      <trkpt lat="49.77265" lon="2.30103">
        <ele>88.6</ele>
        <time>2023-02-01T14:25:22Z</time>
      </trkpt>
      <trkpt lat="49.77266" lon="2.30104">
        <ele>88.6</ele>
        <time>2023-02-01T14:25:24Z</time>
      </trkpt>
      <trkpt lat="49.77267" lon="2.30105">
        <ele>88.6</ele>
        <time>2023-02-01T14:25:25Z</time>
      </trkpt>
      <trkpt lat="49.77268" lon="2.30105">
        <ele>88.6</ele>
        <time>2023-02-01T14:25:26Z</time>
      </trkpt>
      <trkpt lat="49.77268" lon="2.30106">
        <ele>88.6</ele>
        <time>2023-02-01T14:25:27Z</time>
      </trkpt>
      <trkpt lat="49.7727" lon="2.30106">
        <ele>88.6</ele>
        <time>2023-02-01T14:25:29Z</time>
      </trkpt>
      <trkpt lat="49.77272" lon="2.30107">
        <ele>88.5</ele>
        <time>2023-02-01T14:25:30Z</time>
      </trkpt>
      <trkpt lat="49.77273" lon="2.30108">
        <ele>88.5</ele>
        <time>2023-02-01T14:25:31Z</time>
      </trkpt>
      <trkpt lat="49.77275" lon="2.30108">
        <ele>88.5</ele>
        <time>2023-02-01T14:25:32Z</time>
      </trkpt>
      <trkpt lat="49.77276" lon="2.30109">
        <ele>88.5</ele>
        <time>2023-02-01T14:25:33Z</time>
      </trkpt>
      <trkpt lat="49.77278" lon="2.3011">
        <ele>88.5</ele>
        <time>2023-02-01T14:25:34Z</time>
      </trkpt>
      <trkpt lat="49.77279" lon="2.3011">
        <ele>88.4</ele>
        <time>2023-02-01T14:25:35Z</time>
      </trkpt>
      <trkpt lat="49.77282" lon="2.30111">
        <ele>88.4</ele>
        <time>2023-02-01T14:25:36Z</time>
      </trkpt>
      <trkpt lat="49.77283" lon="2.30112">
        <ele>88.4</ele>
        <time>2023-02-01T14:25:38Z</time>
      </trkpt>
      <trkpt lat="49.77284" lon="2.30113">
        <ele>88.4</ele>
        <time>2023-02-01T14:25:39Z</time>
      </trkpt>
      <trkpt lat="49.77285" lon="2.30113">
        <ele>88.4</ele>
        <time>2023-02-01T14:25:40Z</time>
      </trkpt>
      <trkpt lat="49.77287" lon="2.30114">
        <ele>88.3</ele>
        <time>2023-02-01T14:25:41Z</time>
      </trkpt>
      <trkpt lat="49.77288" lon="2.30115">
        <ele>88.3</ele>
        <time>2023-02-01T14:25:43Z</time>
      </trkpt>
      <trkpt lat="49.77289" lon="2.30116">
        <ele>88.3</ele>
        <time>2023-02-01T14:25:44Z</time>
      </trkpt>
      <trkpt lat="49.77291" lon="2.30117">
        <ele>88.3</ele>
        <time>2023-02-01T14:25:45Z</time>
      </trkpt>
      <trkpt lat="49.77291" lon="2.30118">
        <ele>88.3</ele>
        <time>2023-02-01T14:25:46Z</time>
      </trkpt>
      <trkpt lat="49.77292" lon="2.30119">
        <ele>88.3</ele>
        <time>2023-02-01T14:25:47Z</time>
      </trkpt>
      <trkpt lat="49.77293" lon="2.3012">
        <ele>88.2</ele>
        <time>2023-02-01T14:25:48Z</time>
      </trkpt>
      <trkpt lat="49.77294" lon="2.30121">
        <ele>88.2</ele>
        <time>2023-02-01T14:25:49Z</time>
      </trkpt>
      <trkpt lat="49.77296" lon="2.30122">
        <ele>88.2</ele>
        <time>2023-02-01T14:25:50Z</time>
      </trkpt>
      <trkpt lat="49.77297" lon="2.30123">
        <ele>88.2</ele>
        <time>2023-02-01T14:25:51Z</time>
      </trkpt>
      <trkpt lat="49.77297" lon="2.30124">
        <ele>88.2</ele>
        <time>2023-02-01T14:25:52Z</time>
      </trkpt>
      <trkpt lat="49.77298" lon="2.30125">
        <ele>88.2</ele>
        <time>2023-02-01T14:25:54Z</time>
      </trkpt>
      <trkpt lat="49.77299" lon="2.30126">
        <ele>88.2</ele>
        <time>2023-02-01T14:25:55Z</time>
      </trkpt>
      <trkpt lat="49.773" lon="2.30127">
        <ele>88.1</ele>
        <time>2023-02-01T14:25:56Z</time>
      </trkpt>
      <trkpt lat="49.773" lon="2.30129">
        <ele>88.1</ele>
        <time>2023-02-01T14:25:57Z</time>
      </trkpt>
      <trkpt lat="49.77302" lon="2.3013">
        <ele>88.1</ele>
        <time>2023-02-01T14:25:58Z</time>
      </trkpt>
      <trkpt lat="49.77303" lon="2.30131">
        <ele>88.1</ele>
        <time>2023-02-01T14:25:59Z</time>
      </trkpt>
      <trkpt lat="49.77304" lon="2.30132">
        <ele>88.1</ele>
        <time>2023-02-01T14:26:00Z</time>
      </trkpt>
      <trkpt lat="49.77306" lon="2.30132">
        <ele>88</ele>
        <time>2023-02-01T14:26:02Z</time>
      </trkpt>
      <trkpt lat="49.77307" lon="2.30133">
        <ele>88</ele>
        <time>2023-02-01T14:26:04Z</time>
      </trkpt>
      <trkpt lat="49.77309" lon="2.30134">
        <ele>88</ele>
        <time>2023-02-01T14:26:05Z</time>
      </trkpt>
      <trkpt lat="49.7731" lon="2.30134">
        <ele>88</ele>
        <time>2023-02-01T14:26:06Z</time>
      </trkpt>
      <trkpt lat="49.77311" lon="2.30135">
        <ele>88</ele>
        <time>2023-02-01T14:26:07Z</time>
      </trkpt>
      <trkpt lat="49.77313" lon="2.30136">
        <ele>88</ele>
        <time>2023-02-01T14:26:09Z</time>
      </trkpt>
      <trkpt lat="49.77314" lon="2.30137">
        <ele>87.9</ele>
        <time>2023-02-01T14:26:10Z</time>
      </trkpt>
      <trkpt lat="49.77315" lon="2.30138">
        <ele>87.9</ele>
        <time>2023-02-01T14:26:11Z</time>
      </trkpt>
      <trkpt lat="49.77317" lon="2.30139">
        <ele>87.9</ele>
        <time>2023-02-01T14:26:12Z</time>
      </trkpt>
      <trkpt lat="49.77318" lon="2.3014">
        <ele>87.9</ele>
        <time>2023-02-01T14:26:14Z</time>
      </trkpt>
      <trkpt lat="49.77319" lon="2.30141">
        <ele>87.9</ele>
        <time>2023-02-01T14:26:15Z</time>
      </trkpt>
      <trkpt lat="49.7732" lon="2.30141">
        <ele>87.9</ele>
        <time>2023-02-01T14:26:16Z</time>
      </trkpt>
      <trkpt lat="49.77321" lon="2.30142">
        <ele>87.9</ele>
        <time>2023-02-01T14:26:17Z</time>
      </trkpt>
      <trkpt lat="49.77322" lon="2.30143">
        <ele>87.9</ele>
        <time>2023-02-01T14:26:18Z</time>
      </trkpt>
      <trkpt lat="49.77323" lon="2.30144">
        <ele>87.8</ele>
        <time>2023-02-01T14:26:19Z</time>
      </trkpt>
      <trkpt lat="49.77325" lon="2.30145">
        <ele>87.8</ele>
        <time>2023-02-01T14:26:20Z</time>
      </trkpt>
      <trkpt lat="49.77326" lon="2.30146">
        <ele>87.8</ele>
        <time>2023-02-01T14:26:22Z</time>
      </trkpt>
      <trkpt lat="49.77327" lon="2.30147">
        <ele>87.8</ele>
        <time>2023-02-01T14:26:23Z</time>
      </trkpt>
      <trkpt lat="49.77328" lon="2.30148">
        <ele>87.8</ele>
        <time>2023-02-01T14:26:24Z</time>
      </trkpt>
      <trkpt lat="49.7733" lon="2.30149">
        <ele>87.8</ele>
        <time>2023-02-01T14:26:25Z</time>
      </trkpt>
      <trkpt lat="49.7733" lon="2.30149">
        <ele>87.8</ele>
        <time>2023-02-01T14:26:26Z</time>
      </trkpt>
      <trkpt lat="49.77331" lon="2.3015">
        <ele>87.8</ele>
        <time>2023-02-01T14:26:27Z</time>
      </trkpt>
      <trkpt lat="49.77333" lon="2.30152">
        <ele>87.8</ele>
        <time>2023-02-01T14:26:28Z</time>
      </trkpt>
      <trkpt lat="49.77334" lon="2.30153">
        <ele>87.8</ele>
        <time>2023-02-01T14:26:29Z</time>
      </trkpt>
      <trkpt lat="49.77335" lon="2.30153">
        <ele>87.8</ele>
        <time>2023-02-01T14:26:30Z</time>
      </trkpt>
      <trkpt lat="49.77335" lon="2.30154">
        <ele>87.8</ele>
        <time>2023-02-01T14:26:32Z</time>
      </trkpt>
      <trkpt lat="49.77336" lon="2.30156">
        <ele>87.8</ele>
        <time>2023-02-01T14:26:33Z</time>
      </trkpt>
      <trkpt lat="49.77337" lon="2.30157">
        <ele>87.8</ele>
        <time>2023-02-01T14:26:34Z</time>
      </trkpt>
      <trkpt lat="49.77339" lon="2.30159">
        <ele>87.8</ele>
        <time>2023-02-01T14:26:35Z</time>
      </trkpt>
      <trkpt lat="49.77339" lon="2.3016">
        <ele>87.8</ele>
        <time>2023-02-01T14:26:36Z</time>
      </trkpt>
      <trkpt lat="49.7734" lon="2.3016">
        <ele>87.7</ele>
        <time>2023-02-01T14:26:37Z</time>
      </trkpt>
      <trkpt lat="49.77342" lon="2.30162">
        <ele>87.7</ele>
        <time>2023-02-01T14:26:38Z</time>
      </trkpt>
      <trkpt lat="49.77343" lon="2.30163">
        <ele>87.7</ele>
        <time>2023-02-01T14:26:39Z</time>
      </trkpt>
      <trkpt lat="49.77343" lon="2.30164">
        <ele>87.7</ele>
        <time>2023-02-01T14:26:40Z</time>
      </trkpt>
      <trkpt lat="49.77345" lon="2.30165">
        <ele>87.7</ele>
        <time>2023-02-01T14:26:42Z</time>
      </trkpt>
      <trkpt lat="49.77346" lon="2.30166">
        <ele>87.7</ele>
        <time>2023-02-01T14:26:43Z</time>
      </trkpt>
      <trkpt lat="49.77347" lon="2.30167">
        <ele>87.7</ele>
        <time>2023-02-01T14:26:44Z</time>
      </trkpt>
      <trkpt lat="49.77348" lon="2.30168">
        <ele>87.7</ele>
        <time>2023-02-01T14:26:45Z</time>
      </trkpt>
      <trkpt lat="49.77349" lon="2.30169">
        <ele>87.7</ele>
        <time>2023-02-01T14:26:46Z</time>
      </trkpt>
      <trkpt lat="49.77351" lon="2.30171">
        <ele>87.7</ele>
        <time>2023-02-01T14:26:47Z</time>
      </trkpt>
      <trkpt lat="49.77352" lon="2.30171">
        <ele>87.7</ele>
        <time>2023-02-01T14:26:49Z</time>
      </trkpt>
      <trkpt lat="49.77352" lon="2.30172">
        <ele>87.7</ele>
        <time>2023-02-01T14:26:50Z</time>
      </trkpt>
      <trkpt lat="49.77354" lon="2.30175">
        <ele>87.6</ele>
        <time>2023-02-01T14:26:51Z</time>
      </trkpt>
      <trkpt lat="49.77355" lon="2.30175">
        <ele>87.6</ele>
        <time>2023-02-01T14:26:52Z</time>
      </trkpt>
      <trkpt lat="49.77355" lon="2.30176">
        <ele>87.6</ele>
        <time>2023-02-01T14:26:53Z</time>
      </trkpt>
      <trkpt lat="49.77356" lon="2.30177">
        <ele>87.6</ele>
        <time>2023-02-01T14:26:54Z</time>
      </trkpt>
      <trkpt lat="49.77357" lon="2.30178">
        <ele>87.6</ele>
        <time>2023-02-01T14:26:55Z</time>
      </trkpt>
      <trkpt lat="49.77358" lon="2.30179">
        <ele>87.6</ele>
        <time>2023-02-01T14:26:56Z</time>
      </trkpt>
      <trkpt lat="49.77359" lon="2.3018">
        <ele>87.6</ele>
        <time>2023-02-01T14:26:57Z</time>
      </trkpt>
      <trkpt lat="49.7736" lon="2.30181">
        <ele>87.6</ele>
        <time>2023-02-01T14:26:59Z</time>
      </trkpt>
      <trkpt lat="49.77361" lon="2.30182">
        <ele>87.5</ele>
        <time>2023-02-01T14:27:00Z</time>
      </trkpt>
      <trkpt lat="49.77362" lon="2.30184">
        <ele>87.5</ele>
        <time>2023-02-01T14:27:01Z</time>
      </trkpt>
      <trkpt lat="49.77363" lon="2.30185">
        <ele>87.5</ele>
        <time>2023-02-01T14:27:02Z</time>
      </trkpt>
      <trkpt lat="49.77364" lon="2.30186">
        <ele>87.5</ele>
        <time>2023-02-01T14:27:03Z</time>
      </trkpt>
      <trkpt lat="49.77365" lon="2.30187">
        <ele>87.5</ele>
        <time>2023-02-01T14:27:04Z</time>
      </trkpt>
      <trkpt lat="49.77366" lon="2.30189">
        <ele>87.4</ele>
        <time>2023-02-01T14:27:05Z</time>
      </trkpt>
      <trkpt lat="49.77367" lon="2.30189">
        <ele>87.4</ele>
        <time>2023-02-01T14:27:06Z</time>
      </trkpt>
      <trkpt lat="49.77368" lon="2.3019">
        <ele>87.4</ele>
        <time>2023-02-01T14:27:07Z</time>
      </trkpt>
      <trkpt lat="49.77369" lon="2.30191">
        <ele>87.4</ele>
        <time>2023-02-01T14:27:09Z</time>
      </trkpt>
      <trkpt lat="49.7737" lon="2.30192">
        <ele>87.3</ele>
        <time>2023-02-01T14:27:10Z</time>
      </trkpt>
      <trkpt lat="49.77371" lon="2.30193">
        <ele>87.3</ele>
        <time>2023-02-01T14:27:11Z</time>
      </trkpt>
      <trkpt lat="49.77372" lon="2.30194">
        <ele>87.3</ele>
        <time>2023-02-01T14:27:12Z</time>
      </trkpt>
      <trkpt lat="49.77372" lon="2.30195">
        <ele>87.3</ele>
        <time>2023-02-01T14:27:13Z</time>
      </trkpt>
      <trkpt lat="49.77373" lon="2.30196">
        <ele>87.3</ele>
        <time>2023-02-01T14:27:14Z</time>
      </trkpt>
      <trkpt lat="49.77376" lon="2.30198">
        <ele>87.3</ele>
        <time>2023-02-01T14:27:15Z</time>
      </trkpt>
      <trkpt lat="49.77376" lon="2.30199">
        <ele>87.2</ele>
        <time>2023-02-01T14:27:16Z</time>
      </trkpt>
      <trkpt lat="49.77377" lon="2.302">
        <ele>87.2</ele>
        <time>2023-02-01T14:27:18Z</time>
      </trkpt>
      <trkpt lat="49.77378" lon="2.30201">
        <ele>87.2</ele>
        <time>2023-02-01T14:27:19Z</time>
      </trkpt>
      <trkpt lat="49.77379" lon="2.30202">
        <ele>87.2</ele>
        <time>2023-02-01T14:27:20Z</time>
      </trkpt>
      <trkpt lat="49.77379" lon="2.30203">
        <ele>87.2</ele>
        <time>2023-02-01T14:27:21Z</time>
      </trkpt>
      <trkpt lat="49.7738" lon="2.30204">
        <ele>87.2</ele>
        <time>2023-02-01T14:27:22Z</time>
      </trkpt>
      <trkpt lat="49.77381" lon="2.30205">
        <ele>87.2</ele>
        <time>2023-02-01T14:27:23Z</time>
      </trkpt>
      <trkpt lat="49.77382" lon="2.30206">
        <ele>87.2</ele>
        <time>2023-02-01T14:27:24Z</time>
      </trkpt>
      <trkpt lat="49.77384" lon="2.30209">
        <ele>87.2</ele>
        <time>2023-02-01T14:27:25Z</time>
      </trkpt>
      <trkpt lat="49.77384" lon="2.3021">
        <ele>87.1</ele>
        <time>2023-02-01T14:27:26Z</time>
      </trkpt>
      <trkpt lat="49.77385" lon="2.30211">
        <ele>87.1</ele>
        <time>2023-02-01T14:27:28Z</time>
      </trkpt>
      <trkpt lat="49.77386" lon="2.30212">
        <ele>87.1</ele>
        <time>2023-02-01T14:27:29Z</time>
      </trkpt>
      <trkpt lat="49.77386" lon="2.30213">
        <ele>87.1</ele>
        <time>2023-02-01T14:27:30Z</time>
      </trkpt>
      <trkpt lat="49.77387" lon="2.30213">
        <ele>87.1</ele>
        <time>2023-02-01T14:27:31Z</time>
      </trkpt>
      <trkpt lat="49.77388" lon="2.30215">
        <ele>87.1</ele>
        <time>2023-02-01T14:27:32Z</time>
      </trkpt>
      <trkpt lat="49.77389" lon="2.30216">
        <ele>87.1</ele>
        <time>2023-02-01T14:27:33Z</time>
      </trkpt>
      <trkpt lat="49.7739" lon="2.30217">
        <ele>87.1</ele>
        <time>2023-02-01T14:27:34Z</time>
      </trkpt>
      <trkpt lat="49.77392" lon="2.3022">
        <ele>87.1</ele>
        <time>2023-02-01T14:27:35Z</time>
      </trkpt>
      <trkpt lat="49.77392" lon="2.30221">
        <ele>87</ele>
        <time>2023-02-01T14:27:36Z</time>
      </trkpt>
      <trkpt lat="49.77393" lon="2.30222">
        <ele>87</ele>
        <time>2023-02-01T14:27:38Z</time>
      </trkpt>
      <trkpt lat="49.77394" lon="2.30223">
        <ele>87</ele>
        <time>2023-02-01T14:27:39Z</time>
      </trkpt>
      <trkpt lat="49.77394" lon="2.30224">
        <ele>87</ele>
        <time>2023-02-01T14:27:40Z</time>
      </trkpt>
      <trkpt lat="49.77395" lon="2.30224">
        <ele>87</ele>
        <time>2023-02-01T14:27:41Z</time>
      </trkpt>
      <trkpt lat="49.77395" lon="2.30226">
        <ele>87</ele>
        <time>2023-02-01T14:27:42Z</time>
      </trkpt>
      <trkpt lat="49.77396" lon="2.30227">
        <ele>87</ele>
        <time>2023-02-01T14:27:43Z</time>
      </trkpt>
      <trkpt lat="49.77397" lon="2.30228">
        <ele>87</ele>
        <time>2023-02-01T14:27:44Z</time>
      </trkpt>
      <trkpt lat="49.77397" lon="2.30228">
        <ele>87</ele>
        <time>2023-02-01T14:27:45Z</time>
      </trkpt>
      <trkpt lat="49.77399" lon="2.30229">
        <ele>87</ele>
        <time>2023-02-01T14:27:47Z</time>
      </trkpt>
      <trkpt lat="49.77399" lon="2.3023">
        <ele>86.9</ele>
        <time>2023-02-01T14:27:48Z</time>
      </trkpt>
      <trkpt lat="49.774" lon="2.30231">
        <ele>86.9</ele>
        <time>2023-02-01T14:27:49Z</time>
      </trkpt>
      <trkpt lat="49.77401" lon="2.30232">
        <ele>86.9</ele>
        <time>2023-02-01T14:27:50Z</time>
      </trkpt>
      <trkpt lat="49.77402" lon="2.30233">
        <ele>86.9</ele>
        <time>2023-02-01T14:27:51Z</time>
      </trkpt>
      <trkpt lat="49.77403" lon="2.30234">
        <ele>86.9</ele>
        <time>2023-02-01T14:27:52Z</time>
      </trkpt>
      <trkpt lat="49.77404" lon="2.30235">
        <ele>86.9</ele>
        <time>2023-02-01T14:27:53Z</time>
      </trkpt>
      <trkpt lat="49.77404" lon="2.30236">
        <ele>86.9</ele>
        <time>2023-02-01T14:27:54Z</time>
      </trkpt>
      <trkpt lat="49.77405" lon="2.30236">
        <ele>86.9</ele>
        <time>2023-02-01T14:27:56Z</time>
      </trkpt>
      <trkpt lat="49.77406" lon="2.30236">
        <ele>86.8</ele>
        <time>2023-02-01T14:27:57Z</time>
      </trkpt>
      <trkpt lat="49.77408" lon="2.30237">
        <ele>86.8</ele>
        <time>2023-02-01T14:27:58Z</time>
      </trkpt>
      <trkpt lat="49.77409" lon="2.30237">
        <ele>86.8</ele>
        <time>2023-02-01T14:27:59Z</time>
      </trkpt>
      <trkpt lat="49.7741" lon="2.30238">
        <ele>86.8</ele>
        <time>2023-02-01T14:28:00Z</time>
      </trkpt>
      <trkpt lat="49.77412" lon="2.30239">
        <ele>86.8</ele>
        <time>2023-02-01T14:28:02Z</time>
      </trkpt>
      <trkpt lat="49.77413" lon="2.30239">
        <ele>86.8</ele>
        <time>2023-02-01T14:28:03Z</time>
      </trkpt>
      <trkpt lat="49.77414" lon="2.3024">
        <ele>86.7</ele>
        <time>2023-02-01T14:28:04Z</time>
      </trkpt>
      <trkpt lat="49.77415" lon="2.30241">
        <ele>86.7</ele>
        <time>2023-02-01T14:28:05Z</time>
      </trkpt>
      <trkpt lat="49.77417" lon="2.30242">
        <ele>86.7</ele>
        <time>2023-02-01T14:28:06Z</time>
      </trkpt>
      <trkpt lat="49.77417" lon="2.30242">
        <ele>86.7</ele>
        <time>2023-02-01T14:28:07Z</time>
      </trkpt>
      <trkpt lat="49.77418" lon="2.30243">
        <ele>86.7</ele>
        <time>2023-02-01T14:28:08Z</time>
      </trkpt>
      <trkpt lat="49.77419" lon="2.30243">
        <ele>86.7</ele>
        <time>2023-02-01T14:28:09Z</time>
      </trkpt>
      <trkpt lat="49.77421" lon="2.30244">
        <ele>86.6</ele>
        <time>2023-02-01T14:28:10Z</time>
      </trkpt>
      <trkpt lat="49.77422" lon="2.30245">
        <ele>86.6</ele>
        <time>2023-02-01T14:28:12Z</time>
      </trkpt>
      <trkpt lat="49.77423" lon="2.30246">
        <ele>86.6</ele>
        <time>2023-02-01T14:28:13Z</time>
      </trkpt>
      <trkpt lat="49.77424" lon="2.30247">
        <ele>86.6</ele>
        <time>2023-02-01T14:28:14Z</time>
      </trkpt>
      <trkpt lat="49.77425" lon="2.30247">
        <ele>86.6</ele>
        <time>2023-02-01T14:28:15Z</time>
      </trkpt>
      <trkpt lat="49.77426" lon="2.30248">
        <ele>86.6</ele>
        <time>2023-02-01T14:28:17Z</time>
      </trkpt>
      <trkpt lat="49.77427" lon="2.30249">
        <ele>86.6</ele>
        <time>2023-02-01T14:28:18Z</time>
      </trkpt>
      <trkpt lat="49.77429" lon="2.30251">
        <ele>86.6</ele>
        <time>2023-02-01T14:28:19Z</time>
      </trkpt>
      <trkpt lat="49.7743" lon="2.30252">
        <ele>86.5</ele>
        <time>2023-02-01T14:28:20Z</time>
      </trkpt>
      <trkpt lat="49.7743" lon="2.30253">
        <ele>86.5</ele>
        <time>2023-02-01T14:28:22Z</time>
      </trkpt>
      <trkpt lat="49.77431" lon="2.30254">
        <ele>86.5</ele>
        <time>2023-02-01T14:28:23Z</time>
      </trkpt>
      <trkpt lat="49.77432" lon="2.30255">
        <ele>86.5</ele>
        <time>2023-02-01T14:28:25Z</time>
      </trkpt>
      <trkpt lat="49.77433" lon="2.30256">
        <ele>86.5</ele>
        <time>2023-02-01T14:28:26Z</time>
      </trkpt>
      <trkpt lat="49.77434" lon="2.30257">
        <ele>86.5</ele>
        <time>2023-02-01T14:28:27Z</time>
      </trkpt>
      <trkpt lat="49.77435" lon="2.30259">
        <ele>86.5</ele>
        <time>2023-02-01T14:28:28Z</time>
      </trkpt>
      <trkpt lat="49.77436" lon="2.3026">
        <ele>86.5</ele>
        <time>2023-02-01T14:28:29Z</time>
      </trkpt>
      <trkpt lat="49.77437" lon="2.30261">
        <ele>86.5</ele>
        <time>2023-02-01T14:28:30Z</time>
      </trkpt>
      <trkpt lat="49.7744" lon="2.30263">
        <ele>86.5</ele>
        <time>2023-02-01T14:28:31Z</time>
      </trkpt>
      <trkpt lat="49.77441" lon="2.30264">
        <ele>86.5</ele>
        <time>2023-02-01T14:28:33Z</time>
      </trkpt>
      <trkpt lat="49.77442" lon="2.30265">
        <ele>86.4</ele>
        <time>2023-02-01T14:28:34Z</time>
      </trkpt>
      <trkpt lat="49.77443" lon="2.30266">
        <ele>86.4</ele>
        <time>2023-02-01T14:28:35Z</time>
      </trkpt>
      <trkpt lat="49.77443" lon="2.30266">
        <ele>86.4</ele>
        <time>2023-02-01T14:28:36Z</time>
      </trkpt>
      <trkpt lat="49.77445" lon="2.30268">
        <ele>86.4</ele>
        <time>2023-02-01T14:28:37Z</time>
      </trkpt>
      <trkpt lat="49.77446" lon="2.30268">
        <ele>86.4</ele>
        <time>2023-02-01T14:28:39Z</time>
      </trkpt>
      <trkpt lat="49.77447" lon="2.30269">
        <ele>86.4</ele>
        <time>2023-02-01T14:28:40Z</time>
      </trkpt>
      <trkpt lat="49.77448" lon="2.3027">
        <ele>86.4</ele>
        <time>2023-02-01T14:28:41Z</time>
      </trkpt>
      <trkpt lat="49.77449" lon="2.30271">
        <ele>86.4</ele>
        <time>2023-02-01T14:28:42Z</time>
      </trkpt>
      <trkpt lat="49.77449" lon="2.30272">
        <ele>86.4</ele>
        <time>2023-02-01T14:28:43Z</time>
      </trkpt>
      <trkpt lat="49.7745" lon="2.30273">
        <ele>86.4</ele>
        <time>2023-02-01T14:28:44Z</time>
      </trkpt>
      <trkpt lat="49.77451" lon="2.30274">
        <ele>86.4</ele>
        <time>2023-02-01T14:28:45Z</time>
      </trkpt>
      <trkpt lat="49.77452" lon="2.30275">
        <ele>86.4</ele>
        <time>2023-02-01T14:28:46Z</time>
      </trkpt>
      <trkpt lat="49.77453" lon="2.30276">
        <ele>86.4</ele>
        <time>2023-02-01T14:28:48Z</time>
      </trkpt>
      <trkpt lat="49.77454" lon="2.30277">
        <ele>86.4</ele>
        <time>2023-02-01T14:28:49Z</time>
      </trkpt>
      <trkpt lat="49.77455" lon="2.30278">
        <ele>86.4</ele>
        <time>2023-02-01T14:28:50Z</time>
      </trkpt>
      <trkpt lat="49.77457" lon="2.30279">
        <ele>86.4</ele>
        <time>2023-02-01T14:28:51Z</time>
      </trkpt>
      <trkpt lat="49.77458" lon="2.3028">
        <ele>86.4</ele>
        <time>2023-02-01T14:28:52Z</time>
      </trkpt>
      <trkpt lat="49.77458" lon="2.30281">
        <ele>86.4</ele>
        <time>2023-02-01T14:28:53Z</time>
      </trkpt>
      <trkpt lat="49.7746" lon="2.30282">
        <ele>86.4</ele>
        <time>2023-02-01T14:28:54Z</time>
      </trkpt>
      <trkpt lat="49.77461" lon="2.30283">
        <ele>86.4</ele>
        <time>2023-02-01T14:28:55Z</time>
      </trkpt>
      <trkpt lat="49.77462" lon="2.30284">
        <ele>86.3</ele>
        <time>2023-02-01T14:28:57Z</time>
      </trkpt>
      <trkpt lat="49.77463" lon="2.30285">
        <ele>86.3</ele>
        <time>2023-02-01T14:28:58Z</time>
      </trkpt>
      <trkpt lat="49.77464" lon="2.30285">
        <ele>86.3</ele>
        <time>2023-02-01T14:28:59Z</time>
      </trkpt>
      <trkpt lat="49.77465" lon="2.30286">
        <ele>86.3</ele>
        <time>2023-02-01T14:29:00Z</time>
      </trkpt>
      <trkpt lat="49.77467" lon="2.30287">
        <ele>86.3</ele>
        <time>2023-02-01T14:29:01Z</time>
      </trkpt>
      <trkpt lat="49.77468" lon="2.30287">
        <ele>86.3</ele>
        <time>2023-02-01T14:29:02Z</time>
      </trkpt>
      <trkpt lat="49.7747" lon="2.30289">
        <ele>86.3</ele>
        <time>2023-02-01T14:29:03Z</time>
      </trkpt>
      <trkpt lat="49.77471" lon="2.30289">
        <ele>86.3</ele>
        <time>2023-02-01T14:29:05Z</time>
      </trkpt>
      <trkpt lat="49.77472" lon="2.3029">
        <ele>86.3</ele>
        <time>2023-02-01T14:29:06Z</time>
      </trkpt>
      <trkpt lat="49.77473" lon="2.30291">
        <ele>86.3</ele>
        <time>2023-02-01T14:29:07Z</time>
      </trkpt>
      <trkpt lat="49.77474" lon="2.30291">
        <ele>86.3</ele>
        <time>2023-02-01T14:29:08Z</time>
      </trkpt>
      <trkpt lat="49.77476" lon="2.30292">
        <ele>86.3</ele>
        <time>2023-02-01T14:29:09Z</time>
      </trkpt>
      <trkpt lat="49.77477" lon="2.30293">
        <ele>86.3</ele>
        <time>2023-02-01T14:29:10Z</time>
      </trkpt>
      <trkpt lat="49.77479" lon="2.30294">
        <ele>86.2</ele>
        <time>2023-02-01T14:29:11Z</time>
      </trkpt>
      <trkpt lat="49.7748" lon="2.30295">
        <ele>86.2</ele>
        <time>2023-02-01T14:29:12Z</time>
      </trkpt>
      <trkpt lat="49.77482" lon="2.30296">
        <ele>86.2</ele>
        <time>2023-02-01T14:29:13Z</time>
      </trkpt>
      <trkpt lat="49.77482" lon="2.30297">
        <ele>86.2</ele>
        <time>2023-02-01T14:29:15Z</time>
      </trkpt>
      <trkpt lat="49.77483" lon="2.30298">
        <ele>86.2</ele>
        <time>2023-02-01T14:29:16Z</time>
      </trkpt>
      <trkpt lat="49.77485" lon="2.30299">
        <ele>86.2</ele>
        <time>2023-02-01T14:29:17Z</time>
      </trkpt>
      <trkpt lat="49.77485" lon="2.30299">
        <ele>86.2</ele>
        <time>2023-02-01T14:29:18Z</time>
      </trkpt>
      <trkpt lat="49.77486" lon="2.303">
        <ele>86.2</ele>
        <time>2023-02-01T14:29:19Z</time>
      </trkpt>
      <trkpt lat="49.77487" lon="2.30301">
        <ele>86.2</ele>
        <time>2023-02-01T14:29:20Z</time>
      </trkpt>
      <trkpt lat="49.77489" lon="2.30301">
        <ele>86.2</ele>
        <time>2023-02-01T14:29:21Z</time>
      </trkpt>
      <trkpt lat="49.77489" lon="2.30302">
        <ele>86.2</ele>
        <time>2023-02-01T14:29:22Z</time>
      </trkpt>
      <trkpt lat="49.7749" lon="2.30302">
        <ele>86.2</ele>
        <time>2023-02-01T14:29:24Z</time>
      </trkpt>
      <trkpt lat="49.77491" lon="2.30302">
        <ele>86.2</ele>
        <time>2023-02-01T14:29:25Z</time>
      </trkpt>
      <trkpt lat="49.77492" lon="2.30303">
        <ele>86.2</ele>
        <time>2023-02-01T14:29:26Z</time>
      </trkpt>
      <trkpt lat="49.77494" lon="2.30303">
        <ele>86.2</ele>
        <time>2023-02-01T14:29:27Z</time>
      </trkpt>
      <trkpt lat="49.77494" lon="2.30304">
        <ele>86.1</ele>
        <time>2023-02-01T14:29:28Z</time>
      </trkpt>
      <trkpt lat="49.77495" lon="2.30304">
        <ele>86.1</ele>
        <time>2023-02-01T14:29:29Z</time>
      </trkpt>
      <trkpt lat="49.77497" lon="2.30305">
        <ele>86.1</ele>
        <time>2023-02-01T14:29:30Z</time>
      </trkpt>
      <trkpt lat="49.77498" lon="2.30305">
        <ele>86.1</ele>
        <time>2023-02-01T14:29:31Z</time>
      </trkpt>
      <trkpt lat="49.77499" lon="2.30305">
        <ele>86.1</ele>
        <time>2023-02-01T14:29:33Z</time>
      </trkpt>
      <trkpt lat="49.775" lon="2.30306">
        <ele>86.1</ele>
        <time>2023-02-01T14:29:34Z</time>
      </trkpt>
      <trkpt lat="49.77501" lon="2.30306">
        <ele>86.1</ele>
        <time>2023-02-01T14:29:35Z</time>
      </trkpt>
      <trkpt lat="49.77502" lon="2.30306">
        <ele>86.1</ele>
        <time>2023-02-01T14:29:36Z</time>
      </trkpt>
      <trkpt lat="49.77504" lon="2.30307">
        <ele>86.1</ele>
        <time>2023-02-01T14:29:37Z</time>
      </trkpt>
      <trkpt lat="49.77505" lon="2.30308">
        <ele>86</ele>
        <time>2023-02-01T14:29:38Z</time>
      </trkpt>
      <trkpt lat="49.77506" lon="2.30308">
        <ele>86</ele>
        <time>2023-02-01T14:29:39Z</time>
      </trkpt>
      <trkpt lat="49.77507" lon="2.30309">
        <ele>86</ele>
        <time>2023-02-01T14:29:40Z</time>
      </trkpt>
      <trkpt lat="49.77509" lon="2.30309">
        <ele>86</ele>
        <time>2023-02-01T14:29:41Z</time>
      </trkpt>
      <trkpt lat="49.7751" lon="2.3031">
        <ele>86</ele>
        <time>2023-02-01T14:29:42Z</time>
      </trkpt>
      <trkpt lat="49.77511" lon="2.3031">
        <ele>86</ele>
        <time>2023-02-01T14:29:44Z</time>
      </trkpt>
      <trkpt lat="49.77512" lon="2.3031">
        <ele>86</ele>
        <time>2023-02-01T14:29:45Z</time>
      </trkpt>
      <trkpt lat="49.77514" lon="2.30311">
        <ele>85.9</ele>
        <time>2023-02-01T14:29:46Z</time>
      </trkpt>
      <trkpt lat="49.77515" lon="2.30311">
        <ele>85.9</ele>
        <time>2023-02-01T14:29:47Z</time>
      </trkpt>
      <trkpt lat="49.77516" lon="2.30312">
        <ele>85.9</ele>
        <time>2023-02-01T14:29:48Z</time>
      </trkpt>
      <trkpt lat="49.77518" lon="2.30312">
        <ele>85.9</ele>
        <time>2023-02-01T14:29:49Z</time>
      </trkpt>
      <trkpt lat="49.77519" lon="2.30313">
        <ele>85.9</ele>
        <time>2023-02-01T14:29:50Z</time>
      </trkpt>
      <trkpt lat="49.7752" lon="2.30314">
        <ele>85.9</ele>
        <time>2023-02-01T14:29:51Z</time>
      </trkpt>
      <trkpt lat="49.77521" lon="2.30314">
        <ele>85.9</ele>
        <time>2023-02-01T14:29:52Z</time>
      </trkpt>
      <trkpt lat="49.77522" lon="2.30315">
        <ele>85.9</ele>
        <time>2023-02-01T14:29:53Z</time>
      </trkpt>
      <trkpt lat="49.77524" lon="2.30316">
        <ele>85.9</ele>
        <time>2023-02-01T14:29:55Z</time>
      </trkpt>
      <trkpt lat="49.77525" lon="2.30317">
        <ele>85.9</ele>
        <time>2023-02-01T14:29:56Z</time>
      </trkpt>
      <trkpt lat="49.77525" lon="2.30317">
        <ele>85.9</ele>
        <time>2023-02-01T14:29:57Z</time>
      </trkpt>
      <trkpt lat="49.77526" lon="2.30318">
        <ele>85.9</ele>
        <time>2023-02-01T14:29:58Z</time>
      </trkpt>
      <trkpt lat="49.77527" lon="2.30319">
        <ele>85.9</ele>
        <time>2023-02-01T14:29:59Z</time>
      </trkpt>
      <trkpt lat="49.77528" lon="2.3032">
        <ele>85.9</ele>
        <time>2023-02-01T14:30:00Z</time>
      </trkpt>
      <trkpt lat="49.77529" lon="2.30321">
        <ele>85.9</ele>
        <time>2023-02-01T14:30:01Z</time>
      </trkpt>
      <trkpt lat="49.77531" lon="2.30322">
        <ele>85.9</ele>
        <time>2023-02-01T14:30:02Z</time>
      </trkpt>
      <trkpt lat="49.77532" lon="2.30323">
        <ele>85.8</ele>
        <time>2023-02-01T14:30:03Z</time>
      </trkpt>
      <trkpt lat="49.77533" lon="2.30324">
        <ele>85.8</ele>
        <time>2023-02-01T14:30:04Z</time>
      </trkpt>
      <trkpt lat="49.77534" lon="2.30325">
        <ele>85.8</ele>
        <time>2023-02-01T14:30:06Z</time>
      </trkpt>
      <trkpt lat="49.77535" lon="2.30326">
        <ele>85.8</ele>
        <time>2023-02-01T14:30:07Z</time>
      </trkpt>
      <trkpt lat="49.77536" lon="2.30327">
        <ele>85.8</ele>
        <time>2023-02-01T14:30:08Z</time>
      </trkpt>
      <trkpt lat="49.77538" lon="2.30329">
        <ele>85.8</ele>
        <time>2023-02-01T14:30:09Z</time>
      </trkpt>
      <trkpt lat="49.77539" lon="2.3033">
        <ele>85.8</ele>
        <time>2023-02-01T14:30:10Z</time>
      </trkpt>
      <trkpt lat="49.7754" lon="2.30331">
        <ele>85.8</ele>
        <time>2023-02-01T14:30:11Z</time>
      </trkpt>
      <trkpt lat="49.77541" lon="2.30332">
        <ele>85.8</ele>
        <time>2023-02-01T14:30:13Z</time>
      </trkpt>
      <trkpt lat="49.77542" lon="2.30333">
        <ele>85.8</ele>
        <time>2023-02-01T14:30:14Z</time>
      </trkpt>
      <trkpt lat="49.77542" lon="2.30333">
        <ele>85.8</ele>
        <time>2023-02-01T14:30:15Z</time>
      </trkpt>
      <trkpt lat="49.77543" lon="2.30334">
        <ele>85.8</ele>
        <time>2023-02-01T14:30:16Z</time>
      </trkpt>
      <trkpt lat="49.77544" lon="2.30336">
        <ele>85.8</ele>
        <time>2023-02-01T14:30:17Z</time>
      </trkpt>
      <trkpt lat="49.77545" lon="2.30337">
        <ele>85.8</ele>
        <time>2023-02-01T14:30:18Z</time>
      </trkpt>
      <trkpt lat="49.77546" lon="2.30338">
        <ele>85.8</ele>
        <time>2023-02-01T14:30:19Z</time>
      </trkpt>
      <trkpt lat="49.77547" lon="2.30339">
        <ele>85.8</ele>
        <time>2023-02-01T14:30:20Z</time>
      </trkpt>
      <trkpt lat="49.77548" lon="2.3034">
        <ele>85.8</ele>
        <time>2023-02-01T14:30:22Z</time>
      </trkpt>
      <trkpt lat="49.77549" lon="2.30341">
        <ele>85.8</ele>
        <time>2023-02-01T14:30:23Z</time>
      </trkpt>
      <trkpt lat="49.7755" lon="2.30342">
        <ele>85.8</ele>
        <time>2023-02-01T14:30:24Z</time>
      </trkpt>
      <trkpt lat="49.77551" lon="2.30343">
        <ele>85.8</ele>
        <time>2023-02-01T14:30:25Z</time>
      </trkpt>
      <trkpt lat="49.77551" lon="2.30343">
        <ele>85.8</ele>
        <time>2023-02-01T14:30:26Z</time>
      </trkpt>
      <trkpt lat="49.77553" lon="2.30345">
        <ele>85.8</ele>
        <time>2023-02-01T14:30:27Z</time>
      </trkpt>
      <trkpt lat="49.77554" lon="2.30346">
        <ele>85.8</ele>
        <time>2023-02-01T14:30:28Z</time>
      </trkpt>
      <trkpt lat="49.77554" lon="2.30347">
        <ele>85.8</ele>
        <time>2023-02-01T14:30:29Z</time>
      </trkpt>
      <trkpt lat="49.77555" lon="2.30348">
        <ele>85.8</ele>
        <time>2023-02-01T14:30:30Z</time>
      </trkpt>
      <trkpt lat="49.77556" lon="2.30349">
        <ele>85.8</ele>
        <time>2023-02-01T14:30:32Z</time>
      </trkpt>
      <trkpt lat="49.77557" lon="2.3035">
        <ele>85.8</ele>
        <time>2023-02-01T14:30:33Z</time>
      </trkpt>
      <trkpt lat="49.77558" lon="2.30351">
        <ele>85.8</ele>
        <time>2023-02-01T14:30:34Z</time>
      </trkpt>
      <trkpt lat="49.77559" lon="2.30352">
        <ele>85.8</ele>
        <time>2023-02-01T14:30:35Z</time>
      </trkpt>
      <trkpt lat="49.7756" lon="2.30354">
        <ele>85.8</ele>
        <time>2023-02-01T14:30:36Z</time>
      </trkpt>
      <trkpt lat="49.77561" lon="2.30355">
        <ele>85.8</ele>
        <time>2023-02-01T14:30:37Z</time>
      </trkpt>
      <trkpt lat="49.77561" lon="2.30356">
        <ele>85.8</ele>
        <time>2023-02-01T14:30:38Z</time>
      </trkpt>
      <trkpt lat="49.77562" lon="2.30357">
        <ele>85.8</ele>
        <time>2023-02-01T14:30:39Z</time>
      </trkpt>
      <trkpt lat="49.77563" lon="2.30359">
        <ele>85.7</ele>
        <time>2023-02-01T14:30:40Z</time>
      </trkpt>
      <trkpt lat="49.77564" lon="2.30361">
        <ele>85.7</ele>
        <time>2023-02-01T14:30:42Z</time>
      </trkpt>
      <trkpt lat="49.77565" lon="2.30363">
        <ele>85.7</ele>
        <time>2023-02-01T14:30:43Z</time>
      </trkpt>
      <trkpt lat="49.77566" lon="2.30364">
        <ele>85.7</ele>
        <time>2023-02-01T14:30:44Z</time>
      </trkpt>
      <trkpt lat="49.77566" lon="2.30364">
        <ele>85.7</ele>
        <time>2023-02-01T14:30:45Z</time>
      </trkpt>
      <trkpt lat="49.77567" lon="2.30365">
        <ele>85.7</ele>
        <time>2023-02-01T14:30:46Z</time>
      </trkpt>
      <trkpt lat="49.77568" lon="2.30367">
        <ele>85.7</ele>
        <time>2023-02-01T14:30:48Z</time>
      </trkpt>
      <trkpt lat="49.77569" lon="2.30368">
        <ele>85.7</ele>
        <time>2023-02-01T14:30:49Z</time>
      </trkpt>
      <trkpt lat="49.7757" lon="2.3037">
        <ele>85.8</ele>
        <time>2023-02-01T14:30:50Z</time>
      </trkpt>
      <trkpt lat="49.77571" lon="2.30371">
        <ele>85.8</ele>
        <time>2023-02-01T14:30:51Z</time>
      </trkpt>
      <trkpt lat="49.77572" lon="2.30373">
        <ele>85.8</ele>
        <time>2023-02-01T14:30:52Z</time>
      </trkpt>
      <trkpt lat="49.77573" lon="2.30374">
        <ele>85.8</ele>
        <time>2023-02-01T14:30:53Z</time>
      </trkpt>
      <trkpt lat="49.77574" lon="2.30375">
        <ele>85.8</ele>
        <time>2023-02-01T14:30:54Z</time>
      </trkpt>
      <trkpt lat="49.77575" lon="2.30376">
        <ele>85.8</ele>
        <time>2023-02-01T14:30:55Z</time>
      </trkpt>
      <trkpt lat="49.77577" lon="2.30378">
        <ele>85.8</ele>
        <time>2023-02-01T14:30:57Z</time>
      </trkpt>
      <trkpt lat="49.77577" lon="2.30379">
        <ele>85.8</ele>
        <time>2023-02-01T14:30:58Z</time>
      </trkpt>
      <trkpt lat="49.77578" lon="2.3038">
        <ele>85.8</ele>
        <time>2023-02-01T14:30:59Z</time>
      </trkpt>
      <trkpt lat="49.77579" lon="2.30382">
        <ele>85.8</ele>
        <time>2023-02-01T14:31:00Z</time>
      </trkpt>
      <trkpt lat="49.77579" lon="2.30384">
        <ele>85.8</ele>
        <time>2023-02-01T14:31:01Z</time>
      </trkpt>
      <trkpt lat="49.7758" lon="2.30386">
        <ele>85.8</ele>
        <time>2023-02-01T14:31:02Z</time>
      </trkpt>
      <trkpt lat="49.77581" lon="2.30387">
        <ele>85.8</ele>
        <time>2023-02-01T14:31:03Z</time>
      </trkpt>
      <trkpt lat="49.77582" lon="2.30389">
        <ele>85.8</ele>
        <time>2023-02-01T14:31:04Z</time>
      </trkpt>
      <trkpt lat="49.77582" lon="2.3039">
        <ele>85.8</ele>
        <time>2023-02-01T14:31:06Z</time>
      </trkpt>
      <trkpt lat="49.77584" lon="2.30391">
        <ele>85.8</ele>
        <time>2023-02-01T14:31:07Z</time>
      </trkpt>
      <trkpt lat="49.77584" lon="2.30392">
        <ele>85.8</ele>
        <time>2023-02-01T14:31:08Z</time>
      </trkpt>
      <trkpt lat="49.77585" lon="2.30393">
        <ele>85.8</ele>
        <time>2023-02-01T14:31:09Z</time>
      </trkpt>
      <trkpt lat="49.77586" lon="2.30396">
        <ele>85.8</ele>
        <time>2023-02-01T14:31:10Z</time>
      </trkpt>
      <trkpt lat="49.77587" lon="2.30397">
        <ele>85.8</ele>
        <time>2023-02-01T14:31:11Z</time>
      </trkpt>
      <trkpt lat="49.77588" lon="2.30398">
        <ele>85.8</ele>
        <time>2023-02-01T14:31:12Z</time>
      </trkpt>
      <trkpt lat="49.77588" lon="2.30398">
        <ele>85.8</ele>
        <time>2023-02-01T14:31:14Z</time>
      </trkpt>
      <trkpt lat="49.77589" lon="2.304">
        <ele>85.8</ele>
        <time>2023-02-01T14:31:15Z</time>
      </trkpt>
      <trkpt lat="49.7759" lon="2.30401">
        <ele>85.7</ele>
        <time>2023-02-01T14:31:16Z</time>
      </trkpt>
      <trkpt lat="49.77592" lon="2.30403">
        <ele>85.7</ele>
        <time>2023-02-01T14:31:17Z</time>
      </trkpt>
      <trkpt lat="49.77592" lon="2.30404">
        <ele>85.7</ele>
        <time>2023-02-01T14:31:18Z</time>
      </trkpt>
      <trkpt lat="49.77593" lon="2.30405">
        <ele>85.7</ele>
        <time>2023-02-01T14:31:19Z</time>
      </trkpt>
      <trkpt lat="49.77594" lon="2.30406">
        <ele>85.7</ele>
        <time>2023-02-01T14:31:20Z</time>
      </trkpt>
      <trkpt lat="49.77594" lon="2.30407">
        <ele>85.7</ele>
        <time>2023-02-01T14:31:22Z</time>
      </trkpt>
      <trkpt lat="49.77594" lon="2.30409">
        <ele>85.7</ele>
        <time>2023-02-01T14:31:23Z</time>
      </trkpt>
      <trkpt lat="49.77595" lon="2.30411">
        <ele>85.7</ele>
        <time>2023-02-01T14:31:24Z</time>
      </trkpt>
      <trkpt lat="49.77595" lon="2.30412">
        <ele>85.7</ele>
        <time>2023-02-01T14:31:25Z</time>
      </trkpt>
      <trkpt lat="49.77595" lon="2.30413">
        <ele>85.7</ele>
        <time>2023-02-01T14:31:27Z</time>
      </trkpt>
      <trkpt lat="49.77596" lon="2.30414">
        <ele>85.7</ele>
        <time>2023-02-01T14:31:28Z</time>
      </trkpt>
      <trkpt lat="49.77596" lon="2.30414">
        <ele>85.7</ele>
        <time>2023-02-01T14:31:29Z</time>
      </trkpt>
      <trkpt lat="49.77596" lon="2.30414">
        <ele>85.7</ele>
        <time>2023-02-01T14:31:31Z</time>
      </trkpt>
      <trkpt lat="49.77596" lon="2.30414">
        <ele>85.7</ele>
        <time>2023-02-01T14:31:32Z</time>
      </trkpt>
      <trkpt lat="49.77596" lon="2.30414">
        <ele>85.7</ele>
        <time>2023-02-01T14:31:33Z</time>
      </trkpt>
      <trkpt lat="49.77595" lon="2.30413">
        <ele>85.7</ele>
        <time>2023-02-01T14:31:35Z</time>
      </trkpt>
      <trkpt lat="49.77595" lon="2.30413">
        <ele>85.7</ele>
        <time>2023-02-01T14:31:36Z</time>
      </trkpt>
      <trkpt lat="49.77595" lon="2.30413">
        <ele>85.7</ele>
        <time>2023-02-01T14:31:38Z</time>
      </trkpt>
      <trkpt lat="49.77595" lon="2.30413">
        <ele>85.7</ele>
        <time>2023-02-01T14:31:39Z</time>
      </trkpt>
      <trkpt lat="49.77595" lon="2.30413">
        <ele>85.7</ele>
        <time>2023-02-01T14:31:40Z</time>
      </trkpt>
      <trkpt lat="49.77595" lon="2.30413">
        <ele>85.7</ele>
        <time>2023-02-01T14:31:42Z</time>
      </trkpt>
      <trkpt lat="49.77595" lon="2.30412">
        <ele>85.6</ele>
        <time>2023-02-01T14:31:43Z</time>
      </trkpt>
      <trkpt lat="49.77595" lon="2.30412">
        <ele>85.6</ele>
        <time>2023-02-01T14:31:44Z</time>
      </trkpt>
      <trkpt lat="49.77595" lon="2.30412">
        <ele>85.6</ele>
        <time>2023-02-01T14:31:45Z</time>
      </trkpt>
      <trkpt lat="49.77595" lon="2.30412">
        <ele>85.6</ele>
        <time>2023-02-01T14:31:46Z</time>
      </trkpt>
      <trkpt lat="49.77595" lon="2.30412">
        <ele>85.6</ele>
        <time>2023-02-01T14:31:47Z</time>
      </trkpt>
      <trkpt lat="49.77595" lon="2.30412">
        <ele>85.6</ele>
        <time>2023-02-01T14:31:48Z</time>
      </trkpt>
      <trkpt lat="49.77595" lon="2.30412">
        <ele>85.6</ele>
        <time>2023-02-01T14:31:49Z</time>
      </trkpt>
      <trkpt lat="49.77595" lon="2.30412">
        <ele>85.6</ele>
        <time>2023-02-01T14:31:50Z</time>
      </trkpt>
      <trkpt lat="49.77595" lon="2.30412">
        <ele>85.6</ele>
        <time>2023-02-01T14:31:51Z</time>
      </trkpt>
      <trkpt lat="49.77595" lon="2.30411">
        <ele>85.6</ele>
        <time>2023-02-01T14:31:52Z</time>
      </trkpt>
      <trkpt lat="49.77595" lon="2.30411">
        <ele>85.6</ele>
        <time>2023-02-01T14:31:53Z</time>
      </trkpt>
      <trkpt lat="49.77595" lon="2.30411">
        <ele>85.6</ele>
        <time>2023-02-01T14:31:54Z</time>
      </trkpt>
      <trkpt lat="49.77595" lon="2.30411">
        <ele>85.6</ele>
        <time>2023-02-01T14:31:55Z</time>
      </trkpt>
      <trkpt lat="49.77595" lon="2.30411">
        <ele>85.6</ele>
        <time>2023-02-01T14:31:56Z</time>
      </trkpt>
      <trkpt lat="49.77595" lon="2.30411">
        <ele>85.6</ele>
        <time>2023-02-01T14:31:57Z</time>
      </trkpt>
      <trkpt lat="49.77595" lon="2.30411">
        <ele>85.6</ele>
        <time>2023-02-01T14:31:58Z</time>
      </trkpt>
      <trkpt lat="49.77595" lon="2.30411">
        <ele>85.6</ele>
        <time>2023-02-01T14:31:59Z</time>
      </trkpt>
      <trkpt lat="49.77595" lon="2.30411">
        <ele>85.6</ele>
        <time>2023-02-01T14:32:00Z</time>
      </trkpt>
      <trkpt lat="49.77595" lon="2.30411">
        <ele>85.6</ele>
        <time>2023-02-01T14:32:01Z</time>
      </trkpt>
      <trkpt lat="49.77595" lon="2.30411">
        <ele>85.6</ele>
        <time>2023-02-01T14:32:02Z</time>
      </trkpt>
      <trkpt lat="49.77595" lon="2.30411">
        <ele>85.6</ele>
        <time>2023-02-01T14:32:03Z</time>
      </trkpt>
      <trkpt lat="49.77595" lon="2.30411">
        <ele>85.6</ele>
        <time>2023-02-01T14:32:04Z</time>
      </trkpt>
      <trkpt lat="49.77595" lon="2.30411">
        <ele>85.6</ele>
        <time>2023-02-01T14:32:05Z</time>
      </trkpt>
      <trkpt lat="49.77595" lon="2.30411">
        <ele>85.6</ele>
        <time>2023-02-01T14:32:06Z</time>
      </trkpt>
      <trkpt lat="49.77595" lon="2.30411">
        <ele>85.6</ele>
        <time>2023-02-01T14:32:07Z</time>
      </trkpt>
      <trkpt lat="49.77595" lon="2.30411">
        <ele>85.6</ele>
        <time>2023-02-01T14:32:08Z</time>
      </trkpt>
      <trkpt lat="49.77595" lon="2.30411">
        <ele>85.6</ele>
        <time>2023-02-01T14:32:09Z</time>
      </trkpt>
      <trkpt lat="49.77595" lon="2.30411">
        <ele>85.6</ele>
        <time>2023-02-01T14:32:10Z</time>
      </trkpt>
      <trkpt lat="49.77595" lon="2.30411">
        <ele>85.6</ele>
        <time>2023-02-01T14:32:11Z</time>
      </trkpt>
      <trkpt lat="49.77595" lon="2.30411">
        <ele>85.6</ele>
        <time>2023-02-01T14:32:12Z</time>
      </trkpt>
      <trkpt lat="49.77595" lon="2.30411">
        <ele>85.6</ele>
        <time>2023-02-01T14:32:13Z</time>
      </trkpt>
      <trkpt lat="49.77595" lon="2.30411">
        <ele>85.6</ele>
        <time>2023-02-01T14:32:14Z</time>
      </trkpt>
      <trkpt lat="49.77595" lon="2.30411">
        <ele>85.6</ele>
        <time>2023-02-01T14:32:15Z</time>
      </trkpt>
      <trkpt lat="49.77595" lon="2.30411">
        <ele>85.6</ele>
        <time>2023-02-01T14:32:16Z</time>
      </trkpt>
      <trkpt lat="49.77595" lon="2.30411">
        <ele>85.6</ele>
        <time>2023-02-01T14:32:17Z</time>
      </trkpt>
      <trkpt lat="49.77595" lon="2.30411">
        <ele>85.6</ele>
        <time>2023-02-01T14:32:18Z</time>
      </trkpt>
      <trkpt lat="49.77595" lon="2.30411">
        <ele>85.6</ele>
        <time>2023-02-01T14:32:19Z</time>
      </trkpt>
      <trkpt lat="49.77595" lon="2.30411">
        <ele>85.6</ele>
        <time>2023-02-01T14:32:20Z</time>
      </trkpt>
      <trkpt lat="49.77595" lon="2.30411">
        <ele>85.6</ele>
        <time>2023-02-01T14:32:21Z</time>
      </trkpt>
      <trkpt lat="49.77595" lon="2.30411">
        <ele>85.6</ele>
        <time>2023-02-01T14:32:22Z</time>
      </trkpt>
      <trkpt lat="49.77595" lon="2.30411">
        <ele>85.6</ele>
        <time>2023-02-01T14:32:23Z</time>
      </trkpt>
      <trkpt lat="49.77595" lon="2.30411">
        <ele>85.6</ele>
        <time>2023-02-01T14:32:24Z</time>
      </trkpt>
      <trkpt lat="49.77595" lon="2.30411">
        <ele>85.6</ele>
        <time>2023-02-01T14:32:25Z</time>
      </trkpt>
      <trkpt lat="49.77595" lon="2.3041">
        <ele>85.6</ele>
        <time>2023-02-01T14:32:26Z</time>
      </trkpt>
      <trkpt lat="49.77596" lon="2.30409">
        <ele>85.6</ele>
        <time>2023-02-01T14:32:27Z</time>
      </trkpt>
      <trkpt lat="49.77597" lon="2.3041">
        <ele>85.6</ele>
        <time>2023-02-01T14:32:28Z</time>
      </trkpt>
      <trkpt lat="49.77598" lon="2.30411">
        <ele>85.6</ele>
        <time>2023-02-01T14:32:29Z</time>
      </trkpt>
      <trkpt lat="49.77598" lon="2.30411">
        <ele>85.6</ele>
        <time>2023-02-01T14:32:31Z</time>
      </trkpt>
      <trkpt lat="49.77599" lon="2.30412">
        <ele>85.6</ele>
        <time>2023-02-01T14:32:32Z</time>
      </trkpt>
      <trkpt lat="49.77601" lon="2.30414">
        <ele>85.6</ele>
        <time>2023-02-01T14:32:33Z</time>
      </trkpt>
      <trkpt lat="49.77602" lon="2.30416">
        <ele>85.5</ele>
        <time>2023-02-01T14:32:34Z</time>
      </trkpt>
      <trkpt lat="49.77603" lon="2.30417">
        <ele>85.5</ele>
        <time>2023-02-01T14:32:35Z</time>
      </trkpt>
      <trkpt lat="49.77605" lon="2.30418">
        <ele>85.5</ele>
        <time>2023-02-01T14:32:36Z</time>
      </trkpt>
      <trkpt lat="49.77606" lon="2.3042">
        <ele>85.5</ele>
        <time>2023-02-01T14:32:37Z</time>
      </trkpt>
      <trkpt lat="49.77608" lon="2.30422">
        <ele>85.5</ele>
        <time>2023-02-01T14:32:39Z</time>
      </trkpt>
      <trkpt lat="49.77608" lon="2.30423">
        <ele>85.5</ele>
        <time>2023-02-01T14:32:40Z</time>
      </trkpt>
      <trkpt lat="49.77609" lon="2.30424">
        <ele>85.4</ele>
        <time>2023-02-01T14:32:41Z</time>
      </trkpt>
      <trkpt lat="49.77612" lon="2.30427">
        <ele>85.4</ele>
        <time>2023-02-01T14:32:42Z</time>
      </trkpt>
      <trkpt lat="49.77612" lon="2.30428">
        <ele>85.4</ele>
        <time>2023-02-01T14:32:44Z</time>
      </trkpt>
      <trkpt lat="49.77613" lon="2.30429">
        <ele>85.4</ele>
        <time>2023-02-01T14:32:45Z</time>
      </trkpt>
      <trkpt lat="49.77614" lon="2.30431">
        <ele>85.4</ele>
        <time>2023-02-01T14:32:46Z</time>
      </trkpt>
      <trkpt lat="49.77614" lon="2.30432">
        <ele>85.4</ele>
        <time>2023-02-01T14:32:47Z</time>
      </trkpt>
      <trkpt lat="49.77616" lon="2.30433">
        <ele>85.3</ele>
        <time>2023-02-01T14:32:48Z</time>
      </trkpt>
      <trkpt lat="49.77617" lon="2.30435">
        <ele>85.3</ele>
        <time>2023-02-01T14:32:49Z</time>
      </trkpt>
      <trkpt lat="49.77618" lon="2.30436">
        <ele>85.3</ele>
        <time>2023-02-01T14:32:50Z</time>
      </trkpt>
      <trkpt lat="49.7762" lon="2.30439">
        <ele>85.3</ele>
        <time>2023-02-01T14:32:52Z</time>
      </trkpt>
      <trkpt lat="49.77621" lon="2.30441">
        <ele>85.3</ele>
        <time>2023-02-01T14:32:53Z</time>
      </trkpt>
      <trkpt lat="49.77622" lon="2.30442">
        <ele>85.3</ele>
        <time>2023-02-01T14:32:55Z</time>
      </trkpt>
      <trkpt lat="49.77623" lon="2.30444">
        <ele>85.3</ele>
        <time>2023-02-01T14:32:56Z</time>
      </trkpt>
      <trkpt lat="49.77624" lon="2.30445">
        <ele>85.3</ele>
        <time>2023-02-01T14:32:57Z</time>
      </trkpt>
      <trkpt lat="49.77624" lon="2.30446">
        <ele>85.3</ele>
        <time>2023-02-01T14:32:58Z</time>
      </trkpt>
      <trkpt lat="49.77625" lon="2.30447">
        <ele>85.3</ele>
        <time>2023-02-01T14:32:59Z</time>
      </trkpt>
      <trkpt lat="49.77626" lon="2.30448">
        <ele>85.3</ele>
        <time>2023-02-01T14:33:00Z</time>
      </trkpt>
      <trkpt lat="49.77627" lon="2.3045">
        <ele>85.3</ele>
        <time>2023-02-01T14:33:01Z</time>
      </trkpt>
      <trkpt lat="49.77628" lon="2.30452">
        <ele>85.3</ele>
        <time>2023-02-01T14:33:02Z</time>
      </trkpt>
      <trkpt lat="49.77629" lon="2.30453">
        <ele>85.3</ele>
        <time>2023-02-01T14:33:03Z</time>
      </trkpt>
      <trkpt lat="49.77629" lon="2.30454">
        <ele>85.3</ele>
        <time>2023-02-01T14:33:05Z</time>
      </trkpt>
      <trkpt lat="49.77631" lon="2.30456">
        <ele>85.3</ele>
        <time>2023-02-01T14:33:06Z</time>
      </trkpt>
      <trkpt lat="49.77632" lon="2.30457">
        <ele>85.3</ele>
        <time>2023-02-01T14:33:07Z</time>
      </trkpt>
      <trkpt lat="49.77632" lon="2.30457">
        <ele>85.3</ele>
        <time>2023-02-01T14:33:08Z</time>
      </trkpt>
      <trkpt lat="49.77633" lon="2.30458">
        <ele>85.3</ele>
        <time>2023-02-01T14:33:09Z</time>
      </trkpt>
      <trkpt lat="49.77634" lon="2.30459">
        <ele>85.3</ele>
        <time>2023-02-01T14:33:10Z</time>
      </trkpt>
      <trkpt lat="49.77635" lon="2.30461">
        <ele>85.3</ele>
        <time>2023-02-01T14:33:11Z</time>
      </trkpt>
      <trkpt lat="49.77636" lon="2.30462">
        <ele>85.3</ele>
        <time>2023-02-01T14:33:12Z</time>
      </trkpt>
      <trkpt lat="49.77637" lon="2.30464">
        <ele>85.3</ele>
        <time>2023-02-01T14:33:13Z</time>
      </trkpt>
      <trkpt lat="49.77637" lon="2.30465">
        <ele>85.3</ele>
        <time>2023-02-01T14:33:14Z</time>
      </trkpt>
      <trkpt lat="49.77638" lon="2.30467">
        <ele>85.3</ele>
        <time>2023-02-01T14:33:15Z</time>
      </trkpt>
      <trkpt lat="49.77639" lon="2.30469">
        <ele>85.3</ele>
        <time>2023-02-01T14:33:17Z</time>
      </trkpt>
      <trkpt lat="49.77641" lon="2.30472">
        <ele>85.3</ele>
        <time>2023-02-01T14:33:18Z</time>
      </trkpt>
      <trkpt lat="49.77641" lon="2.30473">
        <ele>85.3</ele>
        <time>2023-02-01T14:33:19Z</time>
      </trkpt>
      <trkpt lat="49.77642" lon="2.30474">
        <ele>85.3</ele>
        <time>2023-02-01T14:33:20Z</time>
      </trkpt>
      <trkpt lat="49.77642" lon="2.30476">
        <ele>85.3</ele>
        <time>2023-02-01T14:33:22Z</time>
      </trkpt>
      <trkpt lat="49.77644" lon="2.30478">
        <ele>85.3</ele>
        <time>2023-02-01T14:33:23Z</time>
      </trkpt>
      <trkpt lat="49.77644" lon="2.30479">
        <ele>85.3</ele>
        <time>2023-02-01T14:33:24Z</time>
      </trkpt>
      <trkpt lat="49.77645" lon="2.30481">
        <ele>85.3</ele>
        <time>2023-02-01T14:33:25Z</time>
      </trkpt>
      <trkpt lat="49.77645" lon="2.30483">
        <ele>85.3</ele>
        <time>2023-02-01T14:33:26Z</time>
      </trkpt>
      <trkpt lat="49.77646" lon="2.30484">
        <ele>85.3</ele>
        <time>2023-02-01T14:33:27Z</time>
      </trkpt>
      <trkpt lat="49.77647" lon="2.30486">
        <ele>85.3</ele>
        <time>2023-02-01T14:33:28Z</time>
      </trkpt>
      <trkpt lat="49.77648" lon="2.30487">
        <ele>85.3</ele>
        <time>2023-02-01T14:33:29Z</time>
      </trkpt>
      <trkpt lat="49.77649" lon="2.3049">
        <ele>85.3</ele>
        <time>2023-02-01T14:33:31Z</time>
      </trkpt>
      <trkpt lat="49.7765" lon="2.30491">
        <ele>85.3</ele>
        <time>2023-02-01T14:33:32Z</time>
      </trkpt>
      <trkpt lat="49.7765" lon="2.30492">
        <ele>85.3</ele>
        <time>2023-02-01T14:33:33Z</time>
      </trkpt>
      <trkpt lat="49.7765" lon="2.30493">
        <ele>85.3</ele>
        <time>2023-02-01T14:33:34Z</time>
      </trkpt>
      <trkpt lat="49.77651" lon="2.30495">
        <ele>85.3</ele>
        <time>2023-02-01T14:33:35Z</time>
      </trkpt>
      <trkpt lat="49.77652" lon="2.30497">
        <ele>85.3</ele>
        <time>2023-02-01T14:33:36Z</time>
      </trkpt>
      <trkpt lat="49.77653" lon="2.30499">
        <ele>85.3</ele>
        <time>2023-02-01T14:33:37Z</time>
      </trkpt>
      <trkpt lat="49.77653" lon="2.305">
        <ele>85.3</ele>
        <time>2023-02-01T14:33:39Z</time>
      </trkpt>
      <trkpt lat="49.77654" lon="2.30502">
        <ele>85.3</ele>
        <time>2023-02-01T14:33:40Z</time>
      </trkpt>
      <trkpt lat="49.77654" lon="2.30503">
        <ele>85.3</ele>
        <time>2023-02-01T14:33:41Z</time>
      </trkpt>
      <trkpt lat="49.77655" lon="2.30505">
        <ele>85.3</ele>
        <time>2023-02-01T14:33:42Z</time>
      </trkpt>
      <trkpt lat="49.77655" lon="2.30506">
        <ele>85.3</ele>
        <time>2023-02-01T14:33:43Z</time>
      </trkpt>
      <trkpt lat="49.77655" lon="2.30507">
        <ele>85.3</ele>
        <time>2023-02-01T14:33:44Z</time>
      </trkpt>
      <trkpt lat="49.77656" lon="2.30509">
        <ele>85.3</ele>
        <time>2023-02-01T14:33:45Z</time>
      </trkpt>
      <trkpt lat="49.77656" lon="2.3051">
        <ele>85.3</ele>
        <time>2023-02-01T14:33:46Z</time>
      </trkpt>
      <trkpt lat="49.77657" lon="2.30512">
        <ele>85.3</ele>
        <time>2023-02-01T14:33:47Z</time>
      </trkpt>
      <trkpt lat="49.77658" lon="2.30513">
        <ele>85.3</ele>
        <time>2023-02-01T14:33:49Z</time>
      </trkpt>
      <trkpt lat="49.77659" lon="2.30514">
        <ele>85.3</ele>
        <time>2023-02-01T14:33:50Z</time>
      </trkpt>
      <trkpt lat="49.7766" lon="2.30517">
        <ele>85.3</ele>
        <time>2023-02-01T14:33:51Z</time>
      </trkpt>
      <trkpt lat="49.77661" lon="2.30518">
        <ele>85.3</ele>
        <time>2023-02-01T14:33:52Z</time>
      </trkpt>
      <trkpt lat="49.77661" lon="2.30519">
        <ele>85.3</ele>
        <time>2023-02-01T14:33:53Z</time>
      </trkpt>
      <trkpt lat="49.77662" lon="2.30522">
        <ele>85.2</ele>
        <time>2023-02-01T14:33:55Z</time>
      </trkpt>
      <trkpt lat="49.77663" lon="2.30523">
        <ele>85.2</ele>
        <time>2023-02-01T14:33:56Z</time>
      </trkpt>
      <trkpt lat="49.77663" lon="2.30524">
        <ele>85.2</ele>
        <time>2023-02-01T14:33:57Z</time>
      </trkpt>
      <trkpt lat="49.77665" lon="2.30526">
        <ele>85.2</ele>
        <time>2023-02-01T14:33:58Z</time>
      </trkpt>
      <trkpt lat="49.77665" lon="2.30528">
        <ele>85.2</ele>
        <time>2023-02-01T14:33:59Z</time>
      </trkpt>
      <trkpt lat="49.77666" lon="2.30529">
        <ele>85.2</ele>
        <time>2023-02-01T14:34:00Z</time>
      </trkpt>
      <trkpt lat="49.77666" lon="2.30531">
        <ele>85.2</ele>
        <time>2023-02-01T14:34:01Z</time>
      </trkpt>
      <trkpt lat="49.77667" lon="2.30533">
        <ele>85.2</ele>
        <time>2023-02-01T14:34:02Z</time>
      </trkpt>
      <trkpt lat="49.77668" lon="2.30535">
        <ele>85.1</ele>
        <time>2023-02-01T14:34:03Z</time>
      </trkpt>
      <trkpt lat="49.77669" lon="2.30536">
        <ele>85.1</ele>
        <time>2023-02-01T14:34:05Z</time>
      </trkpt>
      <trkpt lat="49.7767" lon="2.30537">
        <ele>85.1</ele>
        <time>2023-02-01T14:34:06Z</time>
      </trkpt>
      <trkpt lat="49.7767" lon="2.30539">
        <ele>85.1</ele>
        <time>2023-02-01T14:34:07Z</time>
      </trkpt>
      <trkpt lat="49.77672" lon="2.30542">
        <ele>85</ele>
        <time>2023-02-01T14:34:08Z</time>
      </trkpt>
      <trkpt lat="49.77672" lon="2.30542">
        <ele>85</ele>
        <time>2023-02-01T14:34:09Z</time>
      </trkpt>
      <trkpt lat="49.77673" lon="2.30543">
        <ele>85</ele>
        <time>2023-02-01T14:34:10Z</time>
      </trkpt>
      <trkpt lat="49.77674" lon="2.30545">
        <ele>85</ele>
        <time>2023-02-01T14:34:11Z</time>
      </trkpt>
      <trkpt lat="49.77675" lon="2.30546">
        <ele>84.9</ele>
        <time>2023-02-01T14:34:13Z</time>
      </trkpt>
      <trkpt lat="49.77676" lon="2.30547">
        <ele>84.9</ele>
        <time>2023-02-01T14:34:14Z</time>
      </trkpt>
      <trkpt lat="49.77676" lon="2.30548">
        <ele>84.9</ele>
        <time>2023-02-01T14:34:15Z</time>
      </trkpt>
      <trkpt lat="49.77677" lon="2.30549">
        <ele>84.9</ele>
        <time>2023-02-01T14:34:16Z</time>
      </trkpt>
      <trkpt lat="49.77678" lon="2.3055">
        <ele>84.9</ele>
        <time>2023-02-01T14:34:17Z</time>
      </trkpt>
      <trkpt lat="49.77679" lon="2.30552">
        <ele>84.8</ele>
        <time>2023-02-01T14:34:18Z</time>
      </trkpt>
      <trkpt lat="49.7768" lon="2.30553">
        <ele>84.8</ele>
        <time>2023-02-01T14:34:19Z</time>
      </trkpt>
      <trkpt lat="49.77681" lon="2.30555">
        <ele>84.8</ele>
        <time>2023-02-01T14:34:20Z</time>
      </trkpt>
      <trkpt lat="49.77682" lon="2.30556">
        <ele>84.8</ele>
        <time>2023-02-01T14:34:21Z</time>
      </trkpt>
      <trkpt lat="49.77683" lon="2.30557">
        <ele>84.7</ele>
        <time>2023-02-01T14:34:23Z</time>
      </trkpt>
      <trkpt lat="49.77685" lon="2.30559">
        <ele>84.7</ele>
        <time>2023-02-01T14:34:24Z</time>
      </trkpt>
      <trkpt lat="49.77685" lon="2.3056">
        <ele>84.7</ele>
        <time>2023-02-01T14:34:25Z</time>
      </trkpt>
      <trkpt lat="49.77686" lon="2.30562">
        <ele>84.7</ele>
        <time>2023-02-01T14:34:26Z</time>
      </trkpt>
      <trkpt lat="49.77687" lon="2.30563">
        <ele>84.6</ele>
        <time>2023-02-01T14:34:27Z</time>
      </trkpt>
      <trkpt lat="49.77688" lon="2.30565">
        <ele>84.6</ele>
        <time>2023-02-01T14:34:29Z</time>
      </trkpt>
      <trkpt lat="49.7769" lon="2.30568">
        <ele>84.6</ele>
        <time>2023-02-01T14:34:30Z</time>
      </trkpt>
      <trkpt lat="49.77691" lon="2.30569">
        <ele>84.6</ele>
        <time>2023-02-01T14:34:31Z</time>
      </trkpt>
      <trkpt lat="49.77691" lon="2.3057">
        <ele>84.5</ele>
        <time>2023-02-01T14:34:32Z</time>
      </trkpt>
      <trkpt lat="49.77693" lon="2.30572">
        <ele>84.5</ele>
        <time>2023-02-01T14:34:33Z</time>
      </trkpt>
      <trkpt lat="49.77693" lon="2.30573">
        <ele>84.5</ele>
        <time>2023-02-01T14:34:34Z</time>
      </trkpt>
      <trkpt lat="49.77695" lon="2.30576">
        <ele>84.5</ele>
        <time>2023-02-01T14:34:35Z</time>
      </trkpt>
      <trkpt lat="49.77695" lon="2.30577">
        <ele>84.5</ele>
        <time>2023-02-01T14:34:36Z</time>
      </trkpt>
      <trkpt lat="49.77696" lon="2.30578">
        <ele>84.4</ele>
        <time>2023-02-01T14:34:37Z</time>
      </trkpt>
      <trkpt lat="49.77696" lon="2.30579">
        <ele>84.4</ele>
        <time>2023-02-01T14:34:39Z</time>
      </trkpt>
      <trkpt lat="49.77697" lon="2.3058">
        <ele>84.4</ele>
        <time>2023-02-01T14:34:40Z</time>
      </trkpt>
      <trkpt lat="49.77698" lon="2.30582">
        <ele>84.4</ele>
        <time>2023-02-01T14:34:41Z</time>
      </trkpt>
      <trkpt lat="49.77698" lon="2.30583">
        <ele>84.4</ele>
        <time>2023-02-01T14:34:42Z</time>
      </trkpt>
      <trkpt lat="49.77699" lon="2.30585">
        <ele>84.4</ele>
        <time>2023-02-01T14:34:43Z</time>
      </trkpt>
      <trkpt lat="49.777" lon="2.30586">
        <ele>84.3</ele>
        <time>2023-02-01T14:34:44Z</time>
      </trkpt>
      <trkpt lat="49.777" lon="2.30587">
        <ele>84.3</ele>
        <time>2023-02-01T14:34:46Z</time>
      </trkpt>
      <trkpt lat="49.77701" lon="2.30589">
        <ele>84.3</ele>
        <time>2023-02-01T14:34:47Z</time>
      </trkpt>
      <trkpt lat="49.77702" lon="2.3059">
        <ele>84.3</ele>
        <time>2023-02-01T14:34:48Z</time>
      </trkpt>
      <trkpt lat="49.77703" lon="2.30592">
        <ele>84.2</ele>
        <time>2023-02-01T14:34:49Z</time>
      </trkpt>
      <trkpt lat="49.77704" lon="2.30594">
        <ele>84.2</ele>
        <time>2023-02-01T14:34:50Z</time>
      </trkpt>
      <trkpt lat="49.77705" lon="2.30596">
        <ele>84.2</ele>
        <time>2023-02-01T14:34:52Z</time>
      </trkpt>
      <trkpt lat="49.77706" lon="2.30598">
        <ele>84.1</ele>
        <time>2023-02-01T14:34:53Z</time>
      </trkpt>
      <trkpt lat="49.77707" lon="2.30599">
        <ele>84.1</ele>
        <time>2023-02-01T14:34:54Z</time>
      </trkpt>
      <trkpt lat="49.77708" lon="2.30601">
        <ele>84.1</ele>
        <time>2023-02-01T14:34:55Z</time>
      </trkpt>
      <trkpt lat="49.77709" lon="2.30602">
        <ele>84</ele>
        <time>2023-02-01T14:34:56Z</time>
      </trkpt>
      <trkpt lat="49.77709" lon="2.30603">
        <ele>84</ele>
        <time>2023-02-01T14:34:57Z</time>
      </trkpt>
      <trkpt lat="49.77711" lon="2.30604">
        <ele>84</ele>
        <time>2023-02-01T14:34:58Z</time>
      </trkpt>
      <trkpt lat="49.77712" lon="2.30605">
        <ele>84</ele>
        <time>2023-02-01T14:34:59Z</time>
      </trkpt>
      <trkpt lat="49.77713" lon="2.30606">
        <ele>84</ele>
        <time>2023-02-01T14:35:00Z</time>
      </trkpt>
      <trkpt lat="49.77714" lon="2.30607">
        <ele>83.9</ele>
        <time>2023-02-01T14:35:01Z</time>
      </trkpt>
      <trkpt lat="49.77715" lon="2.30609">
        <ele>83.9</ele>
        <time>2023-02-01T14:35:02Z</time>
      </trkpt>
      <trkpt lat="49.77716" lon="2.30611">
        <ele>83.9</ele>
        <time>2023-02-01T14:35:04Z</time>
      </trkpt>
      <trkpt lat="49.77717" lon="2.30612">
        <ele>83.9</ele>
        <time>2023-02-01T14:35:05Z</time>
      </trkpt>
      <trkpt lat="49.77718" lon="2.30615">
        <ele>83.8</ele>
        <time>2023-02-01T14:35:06Z</time>
      </trkpt>
      <trkpt lat="49.77719" lon="2.30616">
        <ele>83.8</ele>
        <time>2023-02-01T14:35:07Z</time>
      </trkpt>
      <trkpt lat="49.77719" lon="2.30617">
        <ele>83.8</ele>
        <time>2023-02-01T14:35:08Z</time>
      </trkpt>
      <trkpt lat="49.77719" lon="2.30618">
        <ele>83.8</ele>
        <time>2023-02-01T14:35:09Z</time>
      </trkpt>
      <trkpt lat="49.7772" lon="2.3062">
        <ele>83.8</ele>
        <time>2023-02-01T14:35:10Z</time>
      </trkpt>
      <trkpt lat="49.77721" lon="2.30621">
        <ele>83.7</ele>
        <time>2023-02-01T14:35:11Z</time>
      </trkpt>
      <trkpt lat="49.77721" lon="2.30623">
        <ele>83.7</ele>
        <time>2023-02-01T14:35:12Z</time>
      </trkpt>
      <trkpt lat="49.77722" lon="2.30626">
        <ele>83.7</ele>
        <time>2023-02-01T14:35:13Z</time>
      </trkpt>
      <trkpt lat="49.77723" lon="2.30627">
        <ele>83.7</ele>
        <time>2023-02-01T14:35:14Z</time>
      </trkpt>
      <trkpt lat="49.77723" lon="2.30628">
        <ele>83.7</ele>
        <time>2023-02-01T14:35:16Z</time>
      </trkpt>
      <trkpt lat="49.77723" lon="2.3063">
        <ele>83.6</ele>
        <time>2023-02-01T14:35:17Z</time>
      </trkpt>
      <trkpt lat="49.77724" lon="2.30632">
        <ele>83.6</ele>
        <time>2023-02-01T14:35:18Z</time>
      </trkpt>
      <trkpt lat="49.77725" lon="2.30634">
        <ele>83.6</ele>
        <time>2023-02-01T14:35:19Z</time>
      </trkpt>
      <trkpt lat="49.77726" lon="2.30636">
        <ele>83.6</ele>
        <time>2023-02-01T14:35:20Z</time>
      </trkpt>
      <trkpt lat="49.77727" lon="2.30637">
        <ele>83.6</ele>
        <time>2023-02-01T14:35:22Z</time>
      </trkpt>
      <trkpt lat="49.77727" lon="2.30638">
        <ele>83.5</ele>
        <time>2023-02-01T14:35:23Z</time>
      </trkpt>
      <trkpt lat="49.77729" lon="2.30639">
        <ele>83.5</ele>
        <time>2023-02-01T14:35:24Z</time>
      </trkpt>
      <trkpt lat="49.77729" lon="2.3064">
        <ele>83.5</ele>
        <time>2023-02-01T14:35:25Z</time>
      </trkpt>
      <trkpt lat="49.7773" lon="2.30642">
        <ele>83.5</ele>
        <time>2023-02-01T14:35:26Z</time>
      </trkpt>
      <trkpt lat="49.7773" lon="2.30643">
        <ele>83.5</ele>
        <time>2023-02-01T14:35:27Z</time>
      </trkpt>
      <trkpt lat="49.77731" lon="2.30645">
        <ele>83.4</ele>
        <time>2023-02-01T14:35:28Z</time>
      </trkpt>
      <trkpt lat="49.77733" lon="2.30647">
        <ele>83.4</ele>
        <time>2023-02-01T14:35:29Z</time>
      </trkpt>
      <trkpt lat="49.77733" lon="2.30648">
        <ele>83.4</ele>
        <time>2023-02-01T14:35:31Z</time>
      </trkpt>
      <trkpt lat="49.77734" lon="2.30649">
        <ele>83.4</ele>
        <time>2023-02-01T14:35:32Z</time>
      </trkpt>
      <trkpt lat="49.77735" lon="2.30651">
        <ele>83.4</ele>
        <time>2023-02-01T14:35:33Z</time>
      </trkpt>
      <trkpt lat="49.77736" lon="2.30653">
        <ele>83.4</ele>
        <time>2023-02-01T14:35:34Z</time>
      </trkpt>
      <trkpt lat="49.77738" lon="2.30654">
        <ele>83.3</ele>
        <time>2023-02-01T14:35:35Z</time>
      </trkpt>
      <trkpt lat="49.77738" lon="2.30655">
        <ele>83.3</ele>
        <time>2023-02-01T14:35:36Z</time>
      </trkpt>
      <trkpt lat="49.77739" lon="2.30656">
        <ele>83.3</ele>
        <time>2023-02-01T14:35:37Z</time>
      </trkpt>
      <trkpt lat="49.77741" lon="2.30658">
        <ele>83.3</ele>
        <time>2023-02-01T14:35:38Z</time>
      </trkpt>
      <trkpt lat="49.77741" lon="2.30659">
        <ele>83.3</ele>
        <time>2023-02-01T14:35:40Z</time>
      </trkpt>
      <trkpt lat="49.77742" lon="2.30661">
        <ele>83.3</ele>
        <time>2023-02-01T14:35:41Z</time>
      </trkpt>
      <trkpt lat="49.77744" lon="2.30663">
        <ele>83.2</ele>
        <time>2023-02-01T14:35:42Z</time>
      </trkpt>
      <trkpt lat="49.77745" lon="2.30664">
        <ele>83.2</ele>
        <time>2023-02-01T14:35:43Z</time>
      </trkpt>
      <trkpt lat="49.77746" lon="2.30666">
        <ele>83.2</ele>
        <time>2023-02-01T14:35:44Z</time>
      </trkpt>
      <trkpt lat="49.77747" lon="2.30668">
        <ele>83.2</ele>
        <time>2023-02-01T14:35:45Z</time>
      </trkpt>
      <trkpt lat="49.77748" lon="2.30669">
        <ele>83.2</ele>
        <time>2023-02-01T14:35:46Z</time>
      </trkpt>
      <trkpt lat="49.77748" lon="2.3067">
        <ele>83.2</ele>
        <time>2023-02-01T14:35:47Z</time>
      </trkpt>
      <trkpt lat="49.7775" lon="2.30673">
        <ele>83.2</ele>
        <time>2023-02-01T14:35:49Z</time>
      </trkpt>
      <trkpt lat="49.77751" lon="2.30673">
        <ele>83.1</ele>
        <time>2023-02-01T14:35:50Z</time>
      </trkpt>
      <trkpt lat="49.77751" lon="2.30674">
        <ele>83.1</ele>
        <time>2023-02-01T14:35:51Z</time>
      </trkpt>
      <trkpt lat="49.77753" lon="2.30677">
        <ele>83.1</ele>
        <time>2023-02-01T14:35:52Z</time>
      </trkpt>
      <trkpt lat="49.77753" lon="2.30678">
        <ele>83.1</ele>
        <time>2023-02-01T14:35:53Z</time>
      </trkpt>
      <trkpt lat="49.77754" lon="2.30679">
        <ele>83.1</ele>
        <time>2023-02-01T14:35:54Z</time>
      </trkpt>
      <trkpt lat="49.77756" lon="2.30682">
        <ele>83.1</ele>
        <time>2023-02-01T14:35:56Z</time>
      </trkpt>
      <trkpt lat="49.77756" lon="2.30683">
        <ele>83.1</ele>
        <time>2023-02-01T14:35:57Z</time>
      </trkpt>
      <trkpt lat="49.77757" lon="2.30684">
        <ele>83.1</ele>
        <time>2023-02-01T14:35:58Z</time>
      </trkpt>
      <trkpt lat="49.77758" lon="2.30686">
        <ele>83.1</ele>
        <time>2023-02-01T14:35:59Z</time>
      </trkpt>
      <trkpt lat="49.77758" lon="2.30687">
        <ele>83.1</ele>
        <time>2023-02-01T14:36:00Z</time>
      </trkpt>
      <trkpt lat="49.77759" lon="2.30688">
        <ele>83.1</ele>
        <time>2023-02-01T14:36:01Z</time>
      </trkpt>
      <trkpt lat="49.7776" lon="2.3069">
        <ele>83.1</ele>
        <time>2023-02-01T14:36:02Z</time>
      </trkpt>
      <trkpt lat="49.77761" lon="2.30691">
        <ele>83.1</ele>
        <time>2023-02-01T14:36:03Z</time>
      </trkpt>
      <trkpt lat="49.77761" lon="2.30692">
        <ele>83.1</ele>
        <time>2023-02-01T14:36:04Z</time>
      </trkpt>
      <trkpt lat="49.77762" lon="2.30694">
        <ele>83.1</ele>
        <time>2023-02-01T14:36:06Z</time>
      </trkpt>
      <trkpt lat="49.77764" lon="2.30696">
        <ele>83.1</ele>
        <time>2023-02-01T14:36:07Z</time>
      </trkpt>
      <trkpt lat="49.77765" lon="2.30699">
        <ele>83.1</ele>
        <time>2023-02-01T14:36:09Z</time>
      </trkpt>
      <trkpt lat="49.77766" lon="2.307">
        <ele>83.1</ele>
        <time>2023-02-01T14:36:10Z</time>
      </trkpt>
      <trkpt lat="49.77766" lon="2.307">
        <ele>83</ele>
        <time>2023-02-01T14:36:11Z</time>
      </trkpt>
      <trkpt lat="49.77767" lon="2.30701">
        <ele>83</ele>
        <time>2023-02-01T14:36:12Z</time>
      </trkpt>
      <trkpt lat="49.77768" lon="2.30702">
        <ele>83</ele>
        <time>2023-02-01T14:36:13Z</time>
      </trkpt>
      <trkpt lat="49.7777" lon="2.30704">
        <ele>83</ele>
        <time>2023-02-01T14:36:14Z</time>
      </trkpt>
      <trkpt lat="49.77771" lon="2.30705">
        <ele>83</ele>
        <time>2023-02-01T14:36:15Z</time>
      </trkpt>
      <trkpt lat="49.77771" lon="2.30706">
        <ele>83</ele>
        <time>2023-02-01T14:36:16Z</time>
      </trkpt>
      <trkpt lat="49.77773" lon="2.30708">
        <ele>83</ele>
        <time>2023-02-01T14:36:17Z</time>
      </trkpt>
      <trkpt lat="49.77774" lon="2.30709">
        <ele>83</ele>
        <time>2023-02-01T14:36:19Z</time>
      </trkpt>
      <trkpt lat="49.77775" lon="2.3071">
        <ele>83</ele>
        <time>2023-02-01T14:36:20Z</time>
      </trkpt>
      <trkpt lat="49.77776" lon="2.30711">
        <ele>83</ele>
        <time>2023-02-01T14:36:21Z</time>
      </trkpt>
      <trkpt lat="49.77777" lon="2.30712">
        <ele>83</ele>
        <time>2023-02-01T14:36:22Z</time>
      </trkpt>
      <trkpt lat="49.77778" lon="2.30713">
        <ele>83</ele>
        <time>2023-02-01T14:36:23Z</time>
      </trkpt>
      <trkpt lat="49.77779" lon="2.30715">
        <ele>83</ele>
        <time>2023-02-01T14:36:24Z</time>
      </trkpt>
      <trkpt lat="49.7778" lon="2.30717">
        <ele>83</ele>
        <time>2023-02-01T14:36:26Z</time>
      </trkpt>
      <trkpt lat="49.77781" lon="2.30719">
        <ele>83</ele>
        <time>2023-02-01T14:36:27Z</time>
      </trkpt>
      <trkpt lat="49.77782" lon="2.3072">
        <ele>83</ele>
        <time>2023-02-01T14:36:28Z</time>
      </trkpt>
      <trkpt lat="49.77783" lon="2.30723">
        <ele>83</ele>
        <time>2023-02-01T14:36:29Z</time>
      </trkpt>
      <trkpt lat="49.77785" lon="2.30725">
        <ele>83</ele>
        <time>2023-02-01T14:36:30Z</time>
      </trkpt>
      <trkpt lat="49.77785" lon="2.30726">
        <ele>83</ele>
        <time>2023-02-01T14:36:31Z</time>
      </trkpt>
      <trkpt lat="49.77786" lon="2.30727">
        <ele>83</ele>
        <time>2023-02-01T14:36:32Z</time>
      </trkpt>
      <trkpt lat="49.77787" lon="2.30728">
        <ele>83</ele>
        <time>2023-02-01T14:36:33Z</time>
      </trkpt>
      <trkpt lat="49.77788" lon="2.30729">
        <ele>83</ele>
        <time>2023-02-01T14:36:34Z</time>
      </trkpt>
      <trkpt lat="49.77789" lon="2.3073">
        <ele>83</ele>
        <time>2023-02-01T14:36:36Z</time>
      </trkpt>
      <trkpt lat="49.77791" lon="2.30732">
        <ele>83</ele>
        <time>2023-02-01T14:36:37Z</time>
      </trkpt>
      <trkpt lat="49.77792" lon="2.30733">
        <ele>83</ele>
        <time>2023-02-01T14:36:38Z</time>
      </trkpt>
      <trkpt lat="49.77793" lon="2.30734">
        <ele>83</ele>
        <time>2023-02-01T14:36:39Z</time>
      </trkpt>
      <trkpt lat="49.77794" lon="2.30735">
        <ele>83</ele>
        <time>2023-02-01T14:36:40Z</time>
      </trkpt>
      <trkpt lat="49.77795" lon="2.30736">
        <ele>83</ele>
        <time>2023-02-01T14:36:41Z</time>
      </trkpt>
      <trkpt lat="49.77796" lon="2.30737">
        <ele>83</ele>
        <time>2023-02-01T14:36:42Z</time>
      </trkpt>
      <trkpt lat="49.77796" lon="2.30738">
        <ele>83</ele>
        <time>2023-02-01T14:36:43Z</time>
      </trkpt>
      <trkpt lat="49.77797" lon="2.30739">
        <ele>83</ele>
        <time>2023-02-01T14:36:44Z</time>
      </trkpt>
      <trkpt lat="49.77798" lon="2.3074">
        <ele>82.9</ele>
        <time>2023-02-01T14:36:46Z</time>
      </trkpt>
      <trkpt lat="49.77799" lon="2.30741">
        <ele>82.9</ele>
        <time>2023-02-01T14:36:47Z</time>
      </trkpt>
      <trkpt lat="49.77799" lon="2.30743">
        <ele>82.9</ele>
        <time>2023-02-01T14:36:48Z</time>
      </trkpt>
      <trkpt lat="49.778" lon="2.30744">
        <ele>82.9</ele>
        <time>2023-02-01T14:36:49Z</time>
      </trkpt>
      <trkpt lat="49.77801" lon="2.30745">
        <ele>82.9</ele>
        <time>2023-02-01T14:36:50Z</time>
      </trkpt>
      <trkpt lat="49.77801" lon="2.30747">
        <ele>82.9</ele>
        <time>2023-02-01T14:36:51Z</time>
      </trkpt>
      <trkpt lat="49.77802" lon="2.30749">
        <ele>82.9</ele>
        <time>2023-02-01T14:36:52Z</time>
      </trkpt>
      <trkpt lat="49.77803" lon="2.30751">
        <ele>82.9</ele>
        <time>2023-02-01T14:36:53Z</time>
      </trkpt>
      <trkpt lat="49.77803" lon="2.30753">
        <ele>82.9</ele>
        <time>2023-02-01T14:36:54Z</time>
      </trkpt>
      <trkpt lat="49.77804" lon="2.30754">
        <ele>82.9</ele>
        <time>2023-02-01T14:36:56Z</time>
      </trkpt>
      <trkpt lat="49.77805" lon="2.30755">
        <ele>82.9</ele>
        <time>2023-02-01T14:36:57Z</time>
      </trkpt>
      <trkpt lat="49.77805" lon="2.30756">
        <ele>82.9</ele>
        <time>2023-02-01T14:36:58Z</time>
      </trkpt>
      <trkpt lat="49.77806" lon="2.30758">
        <ele>82.9</ele>
        <time>2023-02-01T14:36:59Z</time>
      </trkpt>
      <trkpt lat="49.77807" lon="2.30758">
        <ele>82.9</ele>
        <time>2023-02-01T14:37:00Z</time>
      </trkpt>
      <trkpt lat="49.77807" lon="2.30759">
        <ele>82.9</ele>
        <time>2023-02-01T14:37:01Z</time>
      </trkpt>
      <trkpt lat="49.77808" lon="2.3076">
        <ele>82.9</ele>
        <time>2023-02-01T14:37:02Z</time>
      </trkpt>
      <trkpt lat="49.7781" lon="2.30762">
        <ele>82.9</ele>
        <time>2023-02-01T14:37:04Z</time>
      </trkpt>
      <trkpt lat="49.77811" lon="2.30763">
        <ele>82.9</ele>
        <time>2023-02-01T14:37:05Z</time>
      </trkpt>
      <trkpt lat="49.77812" lon="2.30765">
        <ele>82.9</ele>
        <time>2023-02-01T14:37:06Z</time>
      </trkpt>
      <trkpt lat="49.77812" lon="2.30766">
        <ele>82.9</ele>
        <time>2023-02-01T14:37:07Z</time>
      </trkpt>
      <trkpt lat="49.77813" lon="2.30767">
        <ele>82.8</ele>
        <time>2023-02-01T14:37:08Z</time>
      </trkpt>
      <trkpt lat="49.77815" lon="2.3077">
        <ele>82.8</ele>
        <time>2023-02-01T14:37:09Z</time>
      </trkpt>
      <trkpt lat="49.77815" lon="2.30771">
        <ele>82.8</ele>
        <time>2023-02-01T14:37:10Z</time>
      </trkpt>
      <trkpt lat="49.77816" lon="2.30772">
        <ele>82.8</ele>
        <time>2023-02-01T14:37:11Z</time>
      </trkpt>
      <trkpt lat="49.77817" lon="2.30774">
        <ele>82.8</ele>
        <time>2023-02-01T14:37:12Z</time>
      </trkpt>
      <trkpt lat="49.77818" lon="2.30775">
        <ele>82.8</ele>
        <time>2023-02-01T14:37:13Z</time>
      </trkpt>
      <trkpt lat="49.77818" lon="2.30776">
        <ele>82.8</ele>
        <time>2023-02-01T14:37:14Z</time>
      </trkpt>
      <trkpt lat="49.77819" lon="2.30778">
        <ele>82.8</ele>
        <time>2023-02-01T14:37:16Z</time>
      </trkpt>
      <trkpt lat="49.7782" lon="2.30779">
        <ele>82.8</ele>
        <time>2023-02-01T14:37:17Z</time>
      </trkpt>
      <trkpt lat="49.77821" lon="2.3078">
        <ele>82.8</ele>
        <time>2023-02-01T14:37:18Z</time>
      </trkpt>
      <trkpt lat="49.77822" lon="2.30781">
        <ele>82.8</ele>
        <time>2023-02-01T14:37:19Z</time>
      </trkpt>
      <trkpt lat="49.77823" lon="2.30782">
        <ele>82.8</ele>
        <time>2023-02-01T14:37:20Z</time>
      </trkpt>
      <trkpt lat="49.77824" lon="2.30783">
        <ele>82.8</ele>
        <time>2023-02-01T14:37:21Z</time>
      </trkpt>
      <trkpt lat="49.77825" lon="2.30785">
        <ele>82.8</ele>
        <time>2023-02-01T14:37:22Z</time>
      </trkpt>
      <trkpt lat="49.77826" lon="2.30786">
        <ele>82.8</ele>
        <time>2023-02-01T14:37:23Z</time>
      </trkpt>
      <trkpt lat="49.77827" lon="2.30787">
        <ele>82.7</ele>
        <time>2023-02-01T14:37:24Z</time>
      </trkpt>
      <trkpt lat="49.77828" lon="2.30789">
        <ele>82.7</ele>
        <time>2023-02-01T14:37:26Z</time>
      </trkpt>
      <trkpt lat="49.77829" lon="2.3079">
        <ele>82.7</ele>
        <time>2023-02-01T14:37:27Z</time>
      </trkpt>
      <trkpt lat="49.7783" lon="2.30792">
        <ele>82.7</ele>
        <time>2023-02-01T14:37:28Z</time>
      </trkpt>
      <trkpt lat="49.77831" lon="2.30793">
        <ele>82.7</ele>
        <time>2023-02-01T14:37:30Z</time>
      </trkpt>
      <trkpt lat="49.77832" lon="2.30794">
        <ele>82.7</ele>
        <time>2023-02-01T14:37:31Z</time>
      </trkpt>
      <trkpt lat="49.77834" lon="2.30796">
        <ele>82.7</ele>
        <time>2023-02-01T14:37:32Z</time>
      </trkpt>
      <trkpt lat="49.77834" lon="2.30797">
        <ele>82.7</ele>
        <time>2023-02-01T14:37:33Z</time>
      </trkpt>
      <trkpt lat="49.77835" lon="2.30798">
        <ele>82.7</ele>
        <time>2023-02-01T14:37:34Z</time>
      </trkpt>
      <trkpt lat="49.77836" lon="2.308">
        <ele>82.7</ele>
        <time>2023-02-01T14:37:35Z</time>
      </trkpt>
      <trkpt lat="49.77837" lon="2.30802">
        <ele>82.7</ele>
        <time>2023-02-01T14:37:36Z</time>
      </trkpt>
      <trkpt lat="49.77839" lon="2.30804">
        <ele>82.6</ele>
        <time>2023-02-01T14:37:37Z</time>
      </trkpt>
      <trkpt lat="49.77839" lon="2.30805">
        <ele>82.6</ele>
        <time>2023-02-01T14:37:38Z</time>
      </trkpt>
      <trkpt lat="49.7784" lon="2.30806">
        <ele>82.6</ele>
        <time>2023-02-01T14:37:39Z</time>
      </trkpt>
      <trkpt lat="49.7784" lon="2.30807">
        <ele>82.6</ele>
        <time>2023-02-01T14:37:40Z</time>
      </trkpt>
      <trkpt lat="49.77841" lon="2.30808">
        <ele>82.6</ele>
        <time>2023-02-01T14:37:41Z</time>
      </trkpt>
      <trkpt lat="49.77842" lon="2.3081">
        <ele>82.6</ele>
        <time>2023-02-01T14:37:42Z</time>
      </trkpt>
      <trkpt lat="49.77843" lon="2.30811">
        <ele>82.6</ele>
        <time>2023-02-01T14:37:44Z</time>
      </trkpt>
      <trkpt lat="49.77844" lon="2.30812">
        <ele>82.6</ele>
        <time>2023-02-01T14:37:45Z</time>
      </trkpt>
      <trkpt lat="49.77845" lon="2.30814">
        <ele>82.6</ele>
        <time>2023-02-01T14:37:46Z</time>
      </trkpt>
      <trkpt lat="49.77845" lon="2.30815">
        <ele>82.6</ele>
        <time>2023-02-01T14:37:47Z</time>
      </trkpt>
      <trkpt lat="49.77846" lon="2.30816">
        <ele>82.6</ele>
        <time>2023-02-01T14:37:48Z</time>
      </trkpt>
      <trkpt lat="49.77847" lon="2.30817">
        <ele>82.6</ele>
        <time>2023-02-01T14:37:49Z</time>
      </trkpt>
      <trkpt lat="49.77848" lon="2.30819">
        <ele>82.6</ele>
        <time>2023-02-01T14:37:50Z</time>
      </trkpt>
      <trkpt lat="49.77849" lon="2.3082">
        <ele>82.6</ele>
        <time>2023-02-01T14:37:52Z</time>
      </trkpt>
      <trkpt lat="49.7785" lon="2.30821">
        <ele>82.6</ele>
        <time>2023-02-01T14:37:53Z</time>
      </trkpt>
      <trkpt lat="49.77852" lon="2.30823">
        <ele>82.6</ele>
        <time>2023-02-01T14:37:54Z</time>
      </trkpt>
      <trkpt lat="49.77852" lon="2.30824">
        <ele>82.6</ele>
        <time>2023-02-01T14:37:55Z</time>
      </trkpt>
      <trkpt lat="49.77854" lon="2.30826">
        <ele>82.6</ele>
        <time>2023-02-01T14:37:57Z</time>
      </trkpt>
      <trkpt lat="49.77855" lon="2.30827">
        <ele>82.6</ele>
        <time>2023-02-01T14:37:58Z</time>
      </trkpt>
      <trkpt lat="49.77856" lon="2.30828">
        <ele>82.6</ele>
        <time>2023-02-01T14:37:59Z</time>
      </trkpt>
      <trkpt lat="49.77857" lon="2.3083">
        <ele>82.6</ele>
        <time>2023-02-01T14:38:00Z</time>
      </trkpt>
      <trkpt lat="49.77858" lon="2.30832">
        <ele>82.6</ele>
        <time>2023-02-01T14:38:01Z</time>
      </trkpt>
      <trkpt lat="49.77859" lon="2.30833">
        <ele>82.6</ele>
        <time>2023-02-01T14:38:02Z</time>
      </trkpt>
      <trkpt lat="49.7786" lon="2.30834">
        <ele>82.6</ele>
        <time>2023-02-01T14:38:03Z</time>
      </trkpt>
      <trkpt lat="49.77861" lon="2.30836">
        <ele>82.6</ele>
        <time>2023-02-01T14:38:04Z</time>
      </trkpt>
      <trkpt lat="49.77862" lon="2.30837">
        <ele>82.6</ele>
        <time>2023-02-01T14:38:05Z</time>
      </trkpt>
      <trkpt lat="49.77863" lon="2.30838">
        <ele>82.6</ele>
        <time>2023-02-01T14:38:07Z</time>
      </trkpt>
      <trkpt lat="49.77864" lon="2.30839">
        <ele>82.6</ele>
        <time>2023-02-01T14:38:08Z</time>
      </trkpt>
      <trkpt lat="49.77864" lon="2.3084">
        <ele>82.6</ele>
        <time>2023-02-01T14:38:09Z</time>
      </trkpt>
      <trkpt lat="49.77866" lon="2.30841">
        <ele>82.6</ele>
        <time>2023-02-01T14:38:10Z</time>
      </trkpt>
      <trkpt lat="49.77867" lon="2.30842">
        <ele>82.6</ele>
        <time>2023-02-01T14:38:11Z</time>
      </trkpt>
      <trkpt lat="49.77868" lon="2.30843">
        <ele>82.6</ele>
        <time>2023-02-01T14:38:13Z</time>
      </trkpt>
      <trkpt lat="49.77869" lon="2.30844">
        <ele>82.6</ele>
        <time>2023-02-01T14:38:14Z</time>
      </trkpt>
      <trkpt lat="49.7787" lon="2.30845">
        <ele>82.6</ele>
        <time>2023-02-01T14:38:15Z</time>
      </trkpt>
      <trkpt lat="49.77871" lon="2.30846">
        <ele>82.6</ele>
        <time>2023-02-01T14:38:16Z</time>
      </trkpt>
      <trkpt lat="49.77872" lon="2.30849">
        <ele>82.7</ele>
        <time>2023-02-01T14:38:17Z</time>
      </trkpt>
      <trkpt lat="49.77873" lon="2.3085">
        <ele>82.7</ele>
        <time>2023-02-01T14:38:18Z</time>
      </trkpt>
      <trkpt lat="49.77874" lon="2.30851">
        <ele>82.7</ele>
        <time>2023-02-01T14:38:19Z</time>
      </trkpt>
      <trkpt lat="49.77874" lon="2.30852">
        <ele>82.7</ele>
        <time>2023-02-01T14:38:20Z</time>
      </trkpt>
      <trkpt lat="49.77875" lon="2.30853">
        <ele>82.7</ele>
        <time>2023-02-01T14:38:22Z</time>
      </trkpt>
      <trkpt lat="49.77876" lon="2.30854">
        <ele>82.7</ele>
        <time>2023-02-01T14:38:23Z</time>
      </trkpt>
      <trkpt lat="49.77877" lon="2.30856">
        <ele>82.7</ele>
        <time>2023-02-01T14:38:24Z</time>
      </trkpt>
      <trkpt lat="49.77878" lon="2.30857">
        <ele>82.7</ele>
        <time>2023-02-01T14:38:25Z</time>
      </trkpt>
      <trkpt lat="49.77878" lon="2.30858">
        <ele>82.7</ele>
        <time>2023-02-01T14:38:26Z</time>
      </trkpt>
      <trkpt lat="49.77879" lon="2.30859">
        <ele>82.7</ele>
        <time>2023-02-01T14:38:27Z</time>
      </trkpt>
      <trkpt lat="49.7788" lon="2.30861">
        <ele>82.7</ele>
        <time>2023-02-01T14:38:28Z</time>
      </trkpt>
      <trkpt lat="49.7788" lon="2.30862">
        <ele>82.8</ele>
        <time>2023-02-01T14:38:29Z</time>
      </trkpt>
      <trkpt lat="49.77881" lon="2.30863">
        <ele>82.8</ele>
        <time>2023-02-01T14:38:31Z</time>
      </trkpt>
      <trkpt lat="49.77881" lon="2.30864">
        <ele>82.8</ele>
        <time>2023-02-01T14:38:32Z</time>
      </trkpt>
      <trkpt lat="49.77882" lon="2.30866">
        <ele>82.8</ele>
        <time>2023-02-01T14:38:33Z</time>
      </trkpt>
      <trkpt lat="49.77882" lon="2.30867">
        <ele>82.8</ele>
        <time>2023-02-01T14:38:34Z</time>
      </trkpt>
      <trkpt lat="49.77883" lon="2.30869">
        <ele>82.8</ele>
        <time>2023-02-01T14:38:35Z</time>
      </trkpt>
      <trkpt lat="49.77883" lon="2.3087">
        <ele>82.8</ele>
        <time>2023-02-01T14:38:36Z</time>
      </trkpt>
      <trkpt lat="49.77885" lon="2.30873">
        <ele>82.9</ele>
        <time>2023-02-01T14:38:38Z</time>
      </trkpt>
      <trkpt lat="49.77886" lon="2.30874">
        <ele>82.9</ele>
        <time>2023-02-01T14:38:39Z</time>
      </trkpt>
      <trkpt lat="49.77887" lon="2.30875">
        <ele>82.9</ele>
        <time>2023-02-01T14:38:41Z</time>
      </trkpt>
      <trkpt lat="49.77887" lon="2.30876">
        <ele>82.9</ele>
        <time>2023-02-01T14:38:42Z</time>
      </trkpt>
      <trkpt lat="49.77888" lon="2.30877">
        <ele>83</ele>
        <time>2023-02-01T14:38:43Z</time>
      </trkpt>
      <trkpt lat="49.77889" lon="2.30878">
        <ele>83</ele>
        <time>2023-02-01T14:38:44Z</time>
      </trkpt>
      <trkpt lat="49.77891" lon="2.3088">
        <ele>83.1</ele>
        <time>2023-02-01T14:38:45Z</time>
      </trkpt>
      <trkpt lat="49.77892" lon="2.30881">
        <ele>83.1</ele>
        <time>2023-02-01T14:38:46Z</time>
      </trkpt>
      <trkpt lat="49.77893" lon="2.30881">
        <ele>83.1</ele>
        <time>2023-02-01T14:38:47Z</time>
      </trkpt>
      <trkpt lat="49.77893" lon="2.30883">
        <ele>83.2</ele>
        <time>2023-02-01T14:38:48Z</time>
      </trkpt>
      <trkpt lat="49.77895" lon="2.30884">
        <ele>83.2</ele>
        <time>2023-02-01T14:38:50Z</time>
      </trkpt>
      <trkpt lat="49.77895" lon="2.30885">
        <ele>83.2</ele>
        <time>2023-02-01T14:38:51Z</time>
      </trkpt>
      <trkpt lat="49.77896" lon="2.30886">
        <ele>83.3</ele>
        <time>2023-02-01T14:38:52Z</time>
      </trkpt>
      <trkpt lat="49.77897" lon="2.30888">
        <ele>83.3</ele>
        <time>2023-02-01T14:38:53Z</time>
      </trkpt>
      <trkpt lat="49.77898" lon="2.30889">
        <ele>83.4</ele>
        <time>2023-02-01T14:38:54Z</time>
      </trkpt>
      <trkpt lat="49.779" lon="2.3089">
        <ele>83.4</ele>
        <time>2023-02-01T14:38:55Z</time>
      </trkpt>
      <trkpt lat="49.77901" lon="2.30892">
        <ele>83.5</ele>
        <time>2023-02-01T14:38:56Z</time>
      </trkpt>
      <trkpt lat="49.77902" lon="2.30893">
        <ele>83.6</ele>
        <time>2023-02-01T14:38:57Z</time>
      </trkpt>
      <trkpt lat="49.77903" lon="2.30894">
        <ele>83.6</ele>
        <time>2023-02-01T14:38:58Z</time>
      </trkpt>
      <trkpt lat="49.77904" lon="2.30896">
        <ele>83.7</ele>
        <time>2023-02-01T14:39:00Z</time>
      </trkpt>
      <trkpt lat="49.77905" lon="2.30897">
        <ele>83.7</ele>
        <time>2023-02-01T14:39:01Z</time>
      </trkpt>
      <trkpt lat="49.77906" lon="2.309">
        <ele>83.8</ele>
        <time>2023-02-01T14:39:02Z</time>
      </trkpt>
      <trkpt lat="49.77907" lon="2.30901">
        <ele>83.8</ele>
        <time>2023-02-01T14:39:03Z</time>
      </trkpt>
      <trkpt lat="49.77907" lon="2.30902">
        <ele>83.9</ele>
        <time>2023-02-01T14:39:04Z</time>
      </trkpt>
      <trkpt lat="49.77908" lon="2.30904">
        <ele>83.8</ele>
        <time>2023-02-01T14:39:05Z</time>
      </trkpt>
      <trkpt lat="49.77909" lon="2.30905">
        <ele>83.8</ele>
        <time>2023-02-01T14:39:06Z</time>
      </trkpt>
      <trkpt lat="49.77911" lon="2.30906">
        <ele>83.7</ele>
        <time>2023-02-01T14:39:08Z</time>
      </trkpt>
      <trkpt lat="49.77912" lon="2.30907">
        <ele>83.7</ele>
        <time>2023-02-01T14:39:09Z</time>
      </trkpt>
      <trkpt lat="49.77913" lon="2.30907">
        <ele>83.6</ele>
        <time>2023-02-01T14:39:10Z</time>
      </trkpt>
      <trkpt lat="49.77914" lon="2.30908">
        <ele>83.6</ele>
        <time>2023-02-01T14:39:11Z</time>
      </trkpt>
      <trkpt lat="49.77915" lon="2.30908">
        <ele>83.5</ele>
        <time>2023-02-01T14:39:12Z</time>
      </trkpt>
      <trkpt lat="49.77916" lon="2.30909">
        <ele>83.5</ele>
        <time>2023-02-01T14:39:13Z</time>
      </trkpt>
      <trkpt lat="49.77918" lon="2.3091">
        <ele>83.4</ele>
        <time>2023-02-01T14:39:14Z</time>
      </trkpt>
      <trkpt lat="49.77919" lon="2.3091">
        <ele>83.3</ele>
        <time>2023-02-01T14:39:16Z</time>
      </trkpt>
      <trkpt lat="49.77921" lon="2.30911">
        <ele>83.2</ele>
        <time>2023-02-01T14:39:17Z</time>
      </trkpt>
      <trkpt lat="49.77922" lon="2.30912">
        <ele>83.2</ele>
        <time>2023-02-01T14:39:18Z</time>
      </trkpt>
      <trkpt lat="49.77923" lon="2.30912">
        <ele>83.1</ele>
        <time>2023-02-01T14:39:19Z</time>
      </trkpt>
      <trkpt lat="49.77924" lon="2.30913">
        <ele>83.1</ele>
        <time>2023-02-01T14:39:20Z</time>
      </trkpt>
      <trkpt lat="49.77926" lon="2.30914">
        <ele>83</ele>
        <time>2023-02-01T14:39:21Z</time>
      </trkpt>
      <trkpt lat="49.77928" lon="2.30914">
        <ele>82.9</ele>
        <time>2023-02-01T14:39:22Z</time>
      </trkpt>
      <trkpt lat="49.77929" lon="2.30915">
        <ele>82.8</ele>
        <time>2023-02-01T14:39:24Z</time>
      </trkpt>
      <trkpt lat="49.7793" lon="2.30915">
        <ele>82.8</ele>
        <time>2023-02-01T14:39:25Z</time>
      </trkpt>
      <trkpt lat="49.77931" lon="2.30915">
        <ele>82.7</ele>
        <time>2023-02-01T14:39:26Z</time>
      </trkpt>
      <trkpt lat="49.77932" lon="2.30915">
        <ele>82.7</ele>
        <time>2023-02-01T14:39:27Z</time>
      </trkpt>
      <trkpt lat="49.77934" lon="2.30917">
        <ele>82.6</ele>
        <time>2023-02-01T14:39:28Z</time>
      </trkpt>
      <trkpt lat="49.77935" lon="2.30917">
        <ele>82.5</ele>
        <time>2023-02-01T14:39:29Z</time>
      </trkpt>
      <trkpt lat="49.77936" lon="2.30918">
        <ele>82.5</ele>
        <time>2023-02-01T14:39:30Z</time>
      </trkpt>
      <trkpt lat="49.77937" lon="2.30919">
        <ele>82.5</ele>
        <time>2023-02-01T14:39:31Z</time>
      </trkpt>
      <trkpt lat="49.77937" lon="2.30919">
        <ele>82.4</ele>
        <time>2023-02-01T14:39:33Z</time>
      </trkpt>
      <trkpt lat="49.77938" lon="2.3092">
        <ele>82.4</ele>
        <time>2023-02-01T14:39:34Z</time>
      </trkpt>
      <trkpt lat="49.7794" lon="2.30921">
        <ele>82.3</ele>
        <time>2023-02-01T14:39:35Z</time>
      </trkpt>
      <trkpt lat="49.7794" lon="2.30922">
        <ele>82.3</ele>
        <time>2023-02-01T14:39:36Z</time>
      </trkpt>
      <trkpt lat="49.77942" lon="2.30922">
        <ele>82.3</ele>
        <time>2023-02-01T14:39:37Z</time>
      </trkpt>
      <trkpt lat="49.77944" lon="2.30923">
        <ele>82.2</ele>
        <time>2023-02-01T14:39:38Z</time>
      </trkpt>
      <trkpt lat="49.77944" lon="2.30924">
        <ele>82.2</ele>
        <time>2023-02-01T14:39:39Z</time>
      </trkpt>
      <trkpt lat="49.77945" lon="2.30924">
        <ele>82.2</ele>
        <time>2023-02-01T14:39:40Z</time>
      </trkpt>
      <trkpt lat="49.77946" lon="2.30925">
        <ele>82.1</ele>
        <time>2023-02-01T14:39:42Z</time>
      </trkpt>
      <trkpt lat="49.77947" lon="2.30926">
        <ele>82.1</ele>
        <time>2023-02-01T14:39:43Z</time>
      </trkpt>
      <trkpt lat="49.77948" lon="2.30927">
        <ele>82.1</ele>
        <time>2023-02-01T14:39:44Z</time>
      </trkpt>
      <trkpt lat="49.77948" lon="2.30929">
        <ele>82</ele>
        <time>2023-02-01T14:39:45Z</time>
      </trkpt>
      <trkpt lat="49.77949" lon="2.30931">
        <ele>82</ele>
        <time>2023-02-01T14:39:46Z</time>
      </trkpt>
      <trkpt lat="49.7795" lon="2.30932">
        <ele>82</ele>
        <time>2023-02-01T14:39:47Z</time>
      </trkpt>
      <trkpt lat="49.77951" lon="2.30932">
        <ele>82</ele>
        <time>2023-02-01T14:39:48Z</time>
      </trkpt>
      <trkpt lat="49.77952" lon="2.30933">
        <ele>81.9</ele>
        <time>2023-02-01T14:39:49Z</time>
      </trkpt>
      <trkpt lat="49.77953" lon="2.30934">
        <ele>81.9</ele>
        <time>2023-02-01T14:39:51Z</time>
      </trkpt>
      <trkpt lat="49.77955" lon="2.30934">
        <ele>81.9</ele>
        <time>2023-02-01T14:39:52Z</time>
      </trkpt>
      <trkpt lat="49.77955" lon="2.30935">
        <ele>81.9</ele>
        <time>2023-02-01T14:39:53Z</time>
      </trkpt>
      <trkpt lat="49.77956" lon="2.30935">
        <ele>81.9</ele>
        <time>2023-02-01T14:39:54Z</time>
      </trkpt>
      <trkpt lat="49.77958" lon="2.30937">
        <ele>81.9</ele>
        <time>2023-02-01T14:39:55Z</time>
      </trkpt>
      <trkpt lat="49.77959" lon="2.30937">
        <ele>81.9</ele>
        <time>2023-02-01T14:39:56Z</time>
      </trkpt>
      <trkpt lat="49.7796" lon="2.30938">
        <ele>81.8</ele>
        <time>2023-02-01T14:39:57Z</time>
      </trkpt>
      <trkpt lat="49.77962" lon="2.3094">
        <ele>81.8</ele>
        <time>2023-02-01T14:39:58Z</time>
      </trkpt>
      <trkpt lat="49.77962" lon="2.3094">
        <ele>81.8</ele>
        <time>2023-02-01T14:40:00Z</time>
      </trkpt>
      <trkpt lat="49.77963" lon="2.30941">
        <ele>81.8</ele>
        <time>2023-02-01T14:40:01Z</time>
      </trkpt>
      <trkpt lat="49.77964" lon="2.30942">
        <ele>81.8</ele>
        <time>2023-02-01T14:40:02Z</time>
      </trkpt>
      <trkpt lat="49.77965" lon="2.30942">
        <ele>81.8</ele>
        <time>2023-02-01T14:40:03Z</time>
      </trkpt>
      <trkpt lat="49.77966" lon="2.30943">
        <ele>81.8</ele>
        <time>2023-02-01T14:40:04Z</time>
      </trkpt>
      <trkpt lat="49.77967" lon="2.30945">
        <ele>81.8</ele>
        <time>2023-02-01T14:40:05Z</time>
      </trkpt>
      <trkpt lat="49.77968" lon="2.30945">
        <ele>81.8</ele>
        <time>2023-02-01T14:40:06Z</time>
      </trkpt>
      <trkpt lat="49.77969" lon="2.30946">
        <ele>81.7</ele>
        <time>2023-02-01T14:40:08Z</time>
      </trkpt>
      <trkpt lat="49.7797" lon="2.30947">
        <ele>81.7</ele>
        <time>2023-02-01T14:40:09Z</time>
      </trkpt>
      <trkpt lat="49.77971" lon="2.30948">
        <ele>81.7</ele>
        <time>2023-02-01T14:40:10Z</time>
      </trkpt>
      <trkpt lat="49.77972" lon="2.30948">
        <ele>81.7</ele>
        <time>2023-02-01T14:40:11Z</time>
      </trkpt>
      <trkpt lat="49.77973" lon="2.30949">
        <ele>81.7</ele>
        <time>2023-02-01T14:40:12Z</time>
      </trkpt>
      <trkpt lat="49.77974" lon="2.3095">
        <ele>81.7</ele>
        <time>2023-02-01T14:40:13Z</time>
      </trkpt>
      <trkpt lat="49.77975" lon="2.30951">
        <ele>81.7</ele>
        <time>2023-02-01T14:40:14Z</time>
      </trkpt>
      <trkpt lat="49.77976" lon="2.30951">
        <ele>81.7</ele>
        <time>2023-02-01T14:40:15Z</time>
      </trkpt>
      <trkpt lat="49.77978" lon="2.30952">
        <ele>81.7</ele>
        <time>2023-02-01T14:40:17Z</time>
      </trkpt>
      <trkpt lat="49.77979" lon="2.30952">
        <ele>81.7</ele>
        <time>2023-02-01T14:40:18Z</time>
      </trkpt>
      <trkpt lat="49.77981" lon="2.30953">
        <ele>81.7</ele>
        <time>2023-02-01T14:40:19Z</time>
      </trkpt>
      <trkpt lat="49.77983" lon="2.30954">
        <ele>81.6</ele>
        <time>2023-02-01T14:40:20Z</time>
      </trkpt>
      <trkpt lat="49.77984" lon="2.30954">
        <ele>81.6</ele>
        <time>2023-02-01T14:40:22Z</time>
      </trkpt>
      <trkpt lat="49.77986" lon="2.30955">
        <ele>81.6</ele>
        <time>2023-02-01T14:40:23Z</time>
      </trkpt>
      <trkpt lat="49.77987" lon="2.30955">
        <ele>81.6</ele>
        <time>2023-02-01T14:40:24Z</time>
      </trkpt>
      <trkpt lat="49.77988" lon="2.30956">
        <ele>81.6</ele>
        <time>2023-02-01T14:40:25Z</time>
      </trkpt>
      <trkpt lat="49.77989" lon="2.30956">
        <ele>81.6</ele>
        <time>2023-02-01T14:40:26Z</time>
      </trkpt>
      <trkpt lat="49.77989" lon="2.30957">
        <ele>81.6</ele>
        <time>2023-02-01T14:40:27Z</time>
      </trkpt>
      <trkpt lat="49.7799" lon="2.30957">
        <ele>81.6</ele>
        <time>2023-02-01T14:40:29Z</time>
      </trkpt>
      <trkpt lat="49.77991" lon="2.30958">
        <ele>81.6</ele>
        <time>2023-02-01T14:40:30Z</time>
      </trkpt>
      <trkpt lat="49.77993" lon="2.30959">
        <ele>81.6</ele>
        <time>2023-02-01T14:40:31Z</time>
      </trkpt>
      <trkpt lat="49.77994" lon="2.30959">
        <ele>81.6</ele>
        <time>2023-02-01T14:40:32Z</time>
      </trkpt>
      <trkpt lat="49.77995" lon="2.30959">
        <ele>81.6</ele>
        <time>2023-02-01T14:40:33Z</time>
      </trkpt>
      <trkpt lat="49.77996" lon="2.3096">
        <ele>81.6</ele>
        <time>2023-02-01T14:40:34Z</time>
      </trkpt>
      <trkpt lat="49.77998" lon="2.3096">
        <ele>81.5</ele>
        <time>2023-02-01T14:40:36Z</time>
      </trkpt>
      <trkpt lat="49.77999" lon="2.30961">
        <ele>81.5</ele>
        <time>2023-02-01T14:40:37Z</time>
      </trkpt>
      <trkpt lat="49.77999" lon="2.30962">
        <ele>81.5</ele>
        <time>2023-02-01T14:40:38Z</time>
      </trkpt>
      <trkpt lat="49.78001" lon="2.30962">
        <ele>81.5</ele>
        <time>2023-02-01T14:40:39Z</time>
      </trkpt>
      <trkpt lat="49.78003" lon="2.30963">
        <ele>81.5</ele>
        <time>2023-02-01T14:40:40Z</time>
      </trkpt>
      <trkpt lat="49.78003" lon="2.30963">
        <ele>81.5</ele>
        <time>2023-02-01T14:40:41Z</time>
      </trkpt>
      <trkpt lat="49.78004" lon="2.30963">
        <ele>81.5</ele>
        <time>2023-02-01T14:40:42Z</time>
      </trkpt>
      <trkpt lat="49.78006" lon="2.30963">
        <ele>81.5</ele>
        <time>2023-02-01T14:40:43Z</time>
      </trkpt>
      <trkpt lat="49.78008" lon="2.30964">
        <ele>81.4</ele>
        <time>2023-02-01T14:40:45Z</time>
      </trkpt>
      <trkpt lat="49.78009" lon="2.30964">
        <ele>81.4</ele>
        <time>2023-02-01T14:40:47Z</time>
      </trkpt>
      <trkpt lat="49.78011" lon="2.30964">
        <ele>81.4</ele>
        <time>2023-02-01T14:40:48Z</time>
      </trkpt>
      <trkpt lat="49.78012" lon="2.30964">
        <ele>81.4</ele>
        <time>2023-02-01T14:40:49Z</time>
      </trkpt>
      <trkpt lat="49.78014" lon="2.30965">
        <ele>81.4</ele>
        <time>2023-02-01T14:40:50Z</time>
      </trkpt>
      <trkpt lat="49.78015" lon="2.30965">
        <ele>81.3</ele>
        <time>2023-02-01T14:40:52Z</time>
      </trkpt>
      <trkpt lat="49.78017" lon="2.30966">
        <ele>81.3</ele>
        <time>2023-02-01T14:40:53Z</time>
      </trkpt>
      <trkpt lat="49.78018" lon="2.30966">
        <ele>81.3</ele>
        <time>2023-02-01T14:40:54Z</time>
      </trkpt>
      <trkpt lat="49.78019" lon="2.30966">
        <ele>81.3</ele>
        <time>2023-02-01T14:40:55Z</time>
      </trkpt>
      <trkpt lat="49.78021" lon="2.30967">
        <ele>81.2</ele>
        <time>2023-02-01T14:40:56Z</time>
      </trkpt>
      <trkpt lat="49.78022" lon="2.30967">
        <ele>81.2</ele>
        <time>2023-02-01T14:40:57Z</time>
      </trkpt>
      <trkpt lat="49.78024" lon="2.30968">
        <ele>81.2</ele>
        <time>2023-02-01T14:40:58Z</time>
      </trkpt>
      <trkpt lat="49.78026" lon="2.30968">
        <ele>81.1</ele>
        <time>2023-02-01T14:41:00Z</time>
      </trkpt>
      <trkpt lat="49.78027" lon="2.30969">
        <ele>81.1</ele>
        <time>2023-02-01T14:41:01Z</time>
      </trkpt>
      <trkpt lat="49.78028" lon="2.30969">
        <ele>81.1</ele>
        <time>2023-02-01T14:41:02Z</time>
      </trkpt>
      <trkpt lat="49.78029" lon="2.30969">
        <ele>81.1</ele>
        <time>2023-02-01T14:41:03Z</time>
      </trkpt>
      <trkpt lat="49.7803" lon="2.3097">
        <ele>81</ele>
        <time>2023-02-01T14:41:04Z</time>
      </trkpt>
      <trkpt lat="49.78031" lon="2.3097">
        <ele>81</ele>
        <time>2023-02-01T14:41:05Z</time>
      </trkpt>
      <trkpt lat="49.78032" lon="2.3097">
        <ele>81</ele>
        <time>2023-02-01T14:41:06Z</time>
      </trkpt>
      <trkpt lat="49.78033" lon="2.3097">
        <ele>81</ele>
        <time>2023-02-01T14:41:07Z</time>
      </trkpt>
      <trkpt lat="49.78034" lon="2.30971">
        <ele>80.9</ele>
        <time>2023-02-01T14:41:09Z</time>
      </trkpt>
      <trkpt lat="49.78035" lon="2.30971">
        <ele>80.9</ele>
        <time>2023-02-01T14:41:10Z</time>
      </trkpt>
      <trkpt lat="49.78036" lon="2.30971">
        <ele>80.9</ele>
        <time>2023-02-01T14:41:11Z</time>
      </trkpt>
      <trkpt lat="49.78037" lon="2.30972">
        <ele>80.9</ele>
        <time>2023-02-01T14:41:12Z</time>
      </trkpt>
      <trkpt lat="49.78038" lon="2.30973">
        <ele>80.8</ele>
        <time>2023-02-01T14:41:13Z</time>
      </trkpt>
      <trkpt lat="49.78039" lon="2.30974">
        <ele>80.8</ele>
        <time>2023-02-01T14:41:14Z</time>
      </trkpt>
      <trkpt lat="49.78041" lon="2.30975">
        <ele>80.8</ele>
        <time>2023-02-01T14:41:15Z</time>
      </trkpt>
      <trkpt lat="49.78041" lon="2.30975">
        <ele>80.8</ele>
        <time>2023-02-01T14:41:17Z</time>
      </trkpt>
      <trkpt lat="49.78042" lon="2.30975">
        <ele>80.7</ele>
        <time>2023-02-01T14:41:18Z</time>
      </trkpt>
      <trkpt lat="49.78044" lon="2.30977">
        <ele>80.7</ele>
        <time>2023-02-01T14:41:19Z</time>
      </trkpt>
      <trkpt lat="49.78045" lon="2.30977">
        <ele>80.7</ele>
        <time>2023-02-01T14:41:20Z</time>
      </trkpt>
      <trkpt lat="49.78046" lon="2.30978">
        <ele>80.7</ele>
        <time>2023-02-01T14:41:21Z</time>
      </trkpt>
      <trkpt lat="49.78047" lon="2.30978">
        <ele>80.7</ele>
        <time>2023-02-01T14:41:22Z</time>
      </trkpt>
      <trkpt lat="49.78048" lon="2.30979">
        <ele>80.6</ele>
        <time>2023-02-01T14:41:23Z</time>
      </trkpt>
      <trkpt lat="49.78049" lon="2.3098">
        <ele>80.6</ele>
        <time>2023-02-01T14:41:24Z</time>
      </trkpt>
      <trkpt lat="49.78051" lon="2.30981">
        <ele>80.6</ele>
        <time>2023-02-01T14:41:26Z</time>
      </trkpt>
      <trkpt lat="49.78052" lon="2.30981">
        <ele>80.6</ele>
        <time>2023-02-01T14:41:27Z</time>
      </trkpt>
      <trkpt lat="49.78053" lon="2.30982">
        <ele>80.6</ele>
        <time>2023-02-01T14:41:28Z</time>
      </trkpt>
      <trkpt lat="49.78054" lon="2.30982">
        <ele>80.6</ele>
        <time>2023-02-01T14:41:29Z</time>
      </trkpt>
      <trkpt lat="49.78055" lon="2.30983">
        <ele>80.5</ele>
        <time>2023-02-01T14:41:30Z</time>
      </trkpt>
      <trkpt lat="49.78057" lon="2.30984">
        <ele>80.5</ele>
        <time>2023-02-01T14:41:31Z</time>
      </trkpt>
      <trkpt lat="49.78058" lon="2.30985">
        <ele>80.5</ele>
        <time>2023-02-01T14:41:32Z</time>
      </trkpt>
      <trkpt lat="49.78059" lon="2.30986">
        <ele>80.5</ele>
        <time>2023-02-01T14:41:33Z</time>
      </trkpt>
      <trkpt lat="49.7806" lon="2.30987">
        <ele>80.5</ele>
        <time>2023-02-01T14:41:34Z</time>
      </trkpt>
      <trkpt lat="49.78062" lon="2.30988">
        <ele>80.5</ele>
        <time>2023-02-01T14:41:36Z</time>
      </trkpt>
      <trkpt lat="49.78063" lon="2.30989">
        <ele>80.5</ele>
        <time>2023-02-01T14:41:37Z</time>
      </trkpt>
      <trkpt lat="49.78064" lon="2.30989">
        <ele>80.5</ele>
        <time>2023-02-01T14:41:38Z</time>
      </trkpt>
      <trkpt lat="49.78065" lon="2.3099">
        <ele>80.5</ele>
        <time>2023-02-01T14:41:39Z</time>
      </trkpt>
      <trkpt lat="49.78067" lon="2.30991">
        <ele>80.5</ele>
        <time>2023-02-01T14:41:40Z</time>
      </trkpt>
      <trkpt lat="49.78067" lon="2.30992">
        <ele>80.4</ele>
        <time>2023-02-01T14:41:41Z</time>
      </trkpt>
      <trkpt lat="49.78068" lon="2.30992">
        <ele>80.4</ele>
        <time>2023-02-01T14:41:42Z</time>
      </trkpt>
      <trkpt lat="49.78069" lon="2.30993">
        <ele>80.4</ele>
        <time>2023-02-01T14:41:44Z</time>
      </trkpt>
      <trkpt lat="49.7807" lon="2.30993">
        <ele>80.4</ele>
        <time>2023-02-01T14:41:45Z</time>
      </trkpt>
      <trkpt lat="49.78071" lon="2.30995">
        <ele>80.4</ele>
        <time>2023-02-01T14:41:46Z</time>
      </trkpt>
      <trkpt lat="49.78072" lon="2.30995">
        <ele>80.4</ele>
        <time>2023-02-01T14:41:47Z</time>
      </trkpt>
      <trkpt lat="49.78073" lon="2.30995">
        <ele>80.4</ele>
        <time>2023-02-01T14:41:48Z</time>
      </trkpt>
      <trkpt lat="49.78074" lon="2.30996">
        <ele>80.4</ele>
        <time>2023-02-01T14:41:49Z</time>
      </trkpt>
      <trkpt lat="49.78074" lon="2.30997">
        <ele>80.4</ele>
        <time>2023-02-01T14:41:50Z</time>
      </trkpt>
      <trkpt lat="49.78076" lon="2.30998">
        <ele>80.4</ele>
        <time>2023-02-01T14:41:51Z</time>
      </trkpt>
      <trkpt lat="49.78076" lon="2.30999">
        <ele>80.4</ele>
        <time>2023-02-01T14:41:52Z</time>
      </trkpt>
      <trkpt lat="49.78077" lon="2.31">
        <ele>80.4</ele>
        <time>2023-02-01T14:41:53Z</time>
      </trkpt>
      <trkpt lat="49.78078" lon="2.31001">
        <ele>80.4</ele>
        <time>2023-02-01T14:41:54Z</time>
      </trkpt>
      <trkpt lat="49.78079" lon="2.31003">
        <ele>80.4</ele>
        <time>2023-02-01T14:41:56Z</time>
      </trkpt>
      <trkpt lat="49.78079" lon="2.31004">
        <ele>80.4</ele>
        <time>2023-02-01T14:41:57Z</time>
      </trkpt>
      <trkpt lat="49.7808" lon="2.31005">
        <ele>80.4</ele>
        <time>2023-02-01T14:41:58Z</time>
      </trkpt>
      <trkpt lat="49.78081" lon="2.31006">
        <ele>80.4</ele>
        <time>2023-02-01T14:41:59Z</time>
      </trkpt>
      <trkpt lat="49.78082" lon="2.31007">
        <ele>80.4</ele>
        <time>2023-02-01T14:42:00Z</time>
      </trkpt>
      <trkpt lat="49.78084" lon="2.31008">
        <ele>80.4</ele>
        <time>2023-02-01T14:42:01Z</time>
      </trkpt>
      <trkpt lat="49.78085" lon="2.3101">
        <ele>80.4</ele>
        <time>2023-02-01T14:42:02Z</time>
      </trkpt>
      <trkpt lat="49.78086" lon="2.31011">
        <ele>80.4</ele>
        <time>2023-02-01T14:42:03Z</time>
      </trkpt>
      <trkpt lat="49.78087" lon="2.31012">
        <ele>80.4</ele>
        <time>2023-02-01T14:42:05Z</time>
      </trkpt>
      <trkpt lat="49.78088" lon="2.31013">
        <ele>80.4</ele>
        <time>2023-02-01T14:42:06Z</time>
      </trkpt>
      <trkpt lat="49.78088" lon="2.31014">
        <ele>80.4</ele>
        <time>2023-02-01T14:42:07Z</time>
      </trkpt>
      <trkpt lat="49.78089" lon="2.31015">
        <ele>80.3</ele>
        <time>2023-02-01T14:42:08Z</time>
      </trkpt>
      <trkpt lat="49.7809" lon="2.31017">
        <ele>80.3</ele>
        <time>2023-02-01T14:42:09Z</time>
      </trkpt>
      <trkpt lat="49.78091" lon="2.31018">
        <ele>80.3</ele>
        <time>2023-02-01T14:42:10Z</time>
      </trkpt>
      <trkpt lat="49.78093" lon="2.31019">
        <ele>80.3</ele>
        <time>2023-02-01T14:42:11Z</time>
      </trkpt>
      <trkpt lat="49.78094" lon="2.3102">
        <ele>80.3</ele>
        <time>2023-02-01T14:42:12Z</time>
      </trkpt>
      <trkpt lat="49.78096" lon="2.31022">
        <ele>80.3</ele>
        <time>2023-02-01T14:42:14Z</time>
      </trkpt>
      <trkpt lat="49.78096" lon="2.31022">
        <ele>80.3</ele>
        <time>2023-02-01T14:42:15Z</time>
      </trkpt>
      <trkpt lat="49.78097" lon="2.31023">
        <ele>80.3</ele>
        <time>2023-02-01T14:42:16Z</time>
      </trkpt>
      <trkpt lat="49.78098" lon="2.31024">
        <ele>80.2</ele>
        <time>2023-02-01T14:42:17Z</time>
      </trkpt>
      <trkpt lat="49.781" lon="2.31025">
        <ele>80.2</ele>
        <time>2023-02-01T14:42:18Z</time>
      </trkpt>
      <trkpt lat="49.78102" lon="2.31027">
        <ele>80.2</ele>
        <time>2023-02-01T14:42:19Z</time>
      </trkpt>
      <trkpt lat="49.78102" lon="2.31028">
        <ele>80.2</ele>
        <time>2023-02-01T14:42:21Z</time>
      </trkpt>
      <trkpt lat="49.78103" lon="2.31028">
        <ele>80.2</ele>
        <time>2023-02-01T14:42:22Z</time>
      </trkpt>
      <trkpt lat="49.78105" lon="2.3103">
        <ele>80.2</ele>
        <time>2023-02-01T14:42:23Z</time>
      </trkpt>
      <trkpt lat="49.78106" lon="2.31031">
        <ele>80.1</ele>
        <time>2023-02-01T14:42:25Z</time>
      </trkpt>
      <trkpt lat="49.78107" lon="2.31032">
        <ele>80.1</ele>
        <time>2023-02-01T14:42:26Z</time>
      </trkpt>
      <trkpt lat="49.78108" lon="2.31033">
        <ele>80.1</ele>
        <time>2023-02-01T14:42:27Z</time>
      </trkpt>
      <trkpt lat="49.7811" lon="2.31034">
        <ele>80.1</ele>
        <time>2023-02-01T14:42:28Z</time>
      </trkpt>
      <trkpt lat="49.7811" lon="2.31035">
        <ele>80.1</ele>
        <time>2023-02-01T14:42:29Z</time>
      </trkpt>
      <trkpt lat="49.78111" lon="2.31037">
        <ele>80.1</ele>
        <time>2023-02-01T14:42:30Z</time>
      </trkpt>
      <trkpt lat="49.78113" lon="2.31039">
        <ele>80.1</ele>
        <time>2023-02-01T14:42:31Z</time>
      </trkpt>
      <trkpt lat="49.78113" lon="2.3104">
        <ele>80.1</ele>
        <time>2023-02-01T14:42:32Z</time>
      </trkpt>
      <trkpt lat="49.78114" lon="2.31041">
        <ele>80.1</ele>
        <time>2023-02-01T14:42:33Z</time>
      </trkpt>
      <trkpt lat="49.78115" lon="2.31042">
        <ele>80.1</ele>
        <time>2023-02-01T14:42:34Z</time>
      </trkpt>
      <trkpt lat="49.78116" lon="2.31044">
        <ele>80.1</ele>
        <time>2023-02-01T14:42:36Z</time>
      </trkpt>
      <trkpt lat="49.78118" lon="2.31046">
        <ele>80.1</ele>
        <time>2023-02-01T14:42:37Z</time>
      </trkpt>
      <trkpt lat="49.78118" lon="2.31047">
        <ele>80.1</ele>
        <time>2023-02-01T14:42:38Z</time>
      </trkpt>
      <trkpt lat="49.78119" lon="2.31048">
        <ele>80.1</ele>
        <time>2023-02-01T14:42:39Z</time>
      </trkpt>
      <trkpt lat="49.78119" lon="2.31049">
        <ele>80.1</ele>
        <time>2023-02-01T14:42:40Z</time>
      </trkpt>
      <trkpt lat="49.78121" lon="2.31051">
        <ele>80.1</ele>
        <time>2023-02-01T14:42:41Z</time>
      </trkpt>
      <trkpt lat="49.78122" lon="2.31052">
        <ele>80.1</ele>
        <time>2023-02-01T14:42:42Z</time>
      </trkpt>
      <trkpt lat="49.78123" lon="2.31053">
        <ele>80.1</ele>
        <time>2023-02-01T14:42:43Z</time>
      </trkpt>
      <trkpt lat="49.78124" lon="2.31054">
        <ele>80.1</ele>
        <time>2023-02-01T14:42:44Z</time>
      </trkpt>
      <trkpt lat="49.78125" lon="2.31055">
        <ele>80.1</ele>
        <time>2023-02-01T14:42:46Z</time>
      </trkpt>
      <trkpt lat="49.78126" lon="2.31057">
        <ele>80.1</ele>
        <time>2023-02-01T14:42:47Z</time>
      </trkpt>
      <trkpt lat="49.78128" lon="2.31058">
        <ele>80.1</ele>
        <time>2023-02-01T14:42:48Z</time>
      </trkpt>
      <trkpt lat="49.78129" lon="2.31059">
        <ele>80.1</ele>
        <time>2023-02-01T14:42:49Z</time>
      </trkpt>
      <trkpt lat="49.7813" lon="2.31059">
        <ele>80.1</ele>
        <time>2023-02-01T14:42:50Z</time>
      </trkpt>
      <trkpt lat="49.78131" lon="2.31061">
        <ele>80.1</ele>
        <time>2023-02-01T14:42:51Z</time>
      </trkpt>
      <trkpt lat="49.78133" lon="2.31061">
        <ele>80.1</ele>
        <time>2023-02-01T14:42:52Z</time>
      </trkpt>
      <trkpt lat="49.78134" lon="2.31062">
        <ele>80.1</ele>
        <time>2023-02-01T14:42:53Z</time>
      </trkpt>
      <trkpt lat="49.78135" lon="2.31063">
        <ele>80.1</ele>
        <time>2023-02-01T14:42:54Z</time>
      </trkpt>
      <trkpt lat="49.78136" lon="2.31064">
        <ele>80.1</ele>
        <time>2023-02-01T14:42:56Z</time>
      </trkpt>
      <trkpt lat="49.78138" lon="2.31065">
        <ele>80.1</ele>
        <time>2023-02-01T14:42:57Z</time>
      </trkpt>
      <trkpt lat="49.78139" lon="2.31065">
        <ele>80.1</ele>
        <time>2023-02-01T14:42:58Z</time>
      </trkpt>
      <trkpt lat="49.7814" lon="2.31066">
        <ele>80.2</ele>
        <time>2023-02-01T14:42:59Z</time>
      </trkpt>
      <trkpt lat="49.78141" lon="2.31067">
        <ele>80.2</ele>
        <time>2023-02-01T14:43:00Z</time>
      </trkpt>
      <trkpt lat="49.78142" lon="2.31068">
        <ele>80.2</ele>
        <time>2023-02-01T14:43:01Z</time>
      </trkpt>
      <trkpt lat="49.78143" lon="2.31068">
        <ele>80.2</ele>
        <time>2023-02-01T14:43:02Z</time>
      </trkpt>
      <trkpt lat="49.78144" lon="2.31069">
        <ele>80.2</ele>
        <time>2023-02-01T14:43:04Z</time>
      </trkpt>
      <trkpt lat="49.78145" lon="2.3107">
        <ele>80.2</ele>
        <time>2023-02-01T14:43:05Z</time>
      </trkpt>
      <trkpt lat="49.78146" lon="2.31071">
        <ele>80.2</ele>
        <time>2023-02-01T14:43:06Z</time>
      </trkpt>
      <trkpt lat="49.78148" lon="2.31072">
        <ele>80.3</ele>
        <time>2023-02-01T14:43:07Z</time>
      </trkpt>
      <trkpt lat="49.78149" lon="2.31074">
        <ele>80.3</ele>
        <time>2023-02-01T14:43:08Z</time>
      </trkpt>
      <trkpt lat="49.7815" lon="2.31074">
        <ele>80.3</ele>
        <time>2023-02-01T14:43:09Z</time>
      </trkpt>
      <trkpt lat="49.7815" lon="2.31075">
        <ele>80.3</ele>
        <time>2023-02-01T14:43:10Z</time>
      </trkpt>
      <trkpt lat="49.78152" lon="2.31076">
        <ele>80.3</ele>
        <time>2023-02-01T14:43:11Z</time>
      </trkpt>
      <trkpt lat="49.78153" lon="2.31077">
        <ele>80.3</ele>
        <time>2023-02-01T14:43:13Z</time>
      </trkpt>
      <trkpt lat="49.78153" lon="2.31079">
        <ele>80.4</ele>
        <time>2023-02-01T14:43:14Z</time>
      </trkpt>
      <trkpt lat="49.78154" lon="2.31082">
        <ele>80.4</ele>
        <time>2023-02-01T14:43:15Z</time>
      </trkpt>
      <trkpt lat="49.78154" lon="2.31083">
        <ele>80.4</ele>
        <time>2023-02-01T14:43:16Z</time>
      </trkpt>
      <trkpt lat="49.78155" lon="2.31085">
        <ele>80.4</ele>
        <time>2023-02-01T14:43:17Z</time>
      </trkpt>
      <trkpt lat="49.78155" lon="2.31086">
        <ele>80.4</ele>
        <time>2023-02-01T14:43:18Z</time>
      </trkpt>
      <trkpt lat="49.78156" lon="2.31087">
        <ele>80.4</ele>
        <time>2023-02-01T14:43:19Z</time>
      </trkpt>
      <trkpt lat="49.78157" lon="2.31088">
        <ele>80.5</ele>
        <time>2023-02-01T14:43:20Z</time>
      </trkpt>
      <trkpt lat="49.78159" lon="2.3109">
        <ele>80.5</ele>
        <time>2023-02-01T14:43:21Z</time>
      </trkpt>
      <trkpt lat="49.7816" lon="2.31091">
        <ele>80.5</ele>
        <time>2023-02-01T14:43:23Z</time>
      </trkpt>
      <trkpt lat="49.7816" lon="2.31091">
        <ele>80.5</ele>
        <time>2023-02-01T14:43:24Z</time>
      </trkpt>
      <trkpt lat="49.78161" lon="2.31092">
        <ele>80.5</ele>
        <time>2023-02-01T14:43:25Z</time>
      </trkpt>
      <trkpt lat="49.78162" lon="2.31092">
        <ele>80.5</ele>
        <time>2023-02-01T14:43:26Z</time>
      </trkpt>
      <trkpt lat="49.78163" lon="2.31093">
        <ele>80.6</ele>
        <time>2023-02-01T14:43:27Z</time>
      </trkpt>
      <trkpt lat="49.78164" lon="2.31093">
        <ele>80.6</ele>
        <time>2023-02-01T14:43:28Z</time>
      </trkpt>
      <trkpt lat="49.78165" lon="2.31094">
        <ele>80.6</ele>
        <time>2023-02-01T14:43:29Z</time>
      </trkpt>
      <trkpt lat="49.78166" lon="2.31095">
        <ele>80.6</ele>
        <time>2023-02-01T14:43:31Z</time>
      </trkpt>
      <trkpt lat="49.78168" lon="2.31096">
        <ele>80.7</ele>
        <time>2023-02-01T14:43:32Z</time>
      </trkpt>
      <trkpt lat="49.78168" lon="2.31096">
        <ele>80.7</ele>
        <time>2023-02-01T14:43:33Z</time>
      </trkpt>
      <trkpt lat="49.78169" lon="2.31097">
        <ele>80.7</ele>
        <time>2023-02-01T14:43:34Z</time>
      </trkpt>
      <trkpt lat="49.7817" lon="2.31098">
        <ele>80.7</ele>
        <time>2023-02-01T14:43:35Z</time>
      </trkpt>
      <trkpt lat="49.78172" lon="2.31099">
        <ele>80.8</ele>
        <time>2023-02-01T14:43:36Z</time>
      </trkpt>
      <trkpt lat="49.78173" lon="2.311">
        <ele>80.8</ele>
        <time>2023-02-01T14:43:37Z</time>
      </trkpt>
      <trkpt lat="49.78174" lon="2.311">
        <ele>80.8</ele>
        <time>2023-02-01T14:43:39Z</time>
      </trkpt>
      <trkpt lat="49.78175" lon="2.31101">
        <ele>80.9</ele>
        <time>2023-02-01T14:43:40Z</time>
      </trkpt>
      <trkpt lat="49.78176" lon="2.31102">
        <ele>80.9</ele>
        <time>2023-02-01T14:43:41Z</time>
      </trkpt>
      <trkpt lat="49.78177" lon="2.31103">
        <ele>80.9</ele>
        <time>2023-02-01T14:43:42Z</time>
      </trkpt>
      <trkpt lat="49.78178" lon="2.31104">
        <ele>80.9</ele>
        <time>2023-02-01T14:43:43Z</time>
      </trkpt>
      <trkpt lat="49.7818" lon="2.31105">
        <ele>81</ele>
        <time>2023-02-01T14:43:44Z</time>
      </trkpt>
      <trkpt lat="49.78181" lon="2.31105">
        <ele>81</ele>
        <time>2023-02-01T14:43:45Z</time>
      </trkpt>
      <trkpt lat="49.78182" lon="2.31106">
        <ele>81</ele>
        <time>2023-02-01T14:43:46Z</time>
      </trkpt>
      <trkpt lat="49.78183" lon="2.31107">
        <ele>81.1</ele>
        <time>2023-02-01T14:43:48Z</time>
      </trkpt>
      <trkpt lat="49.78184" lon="2.31108">
        <ele>81.1</ele>
        <time>2023-02-01T14:43:49Z</time>
      </trkpt>
      <trkpt lat="49.78185" lon="2.31108">
        <ele>81.1</ele>
        <time>2023-02-01T14:43:50Z</time>
      </trkpt>
      <trkpt lat="49.78186" lon="2.31109">
        <ele>81.1</ele>
        <time>2023-02-01T14:43:51Z</time>
      </trkpt>
      <trkpt lat="49.78187" lon="2.3111">
        <ele>81.1</ele>
        <time>2023-02-01T14:43:52Z</time>
      </trkpt>
      <trkpt lat="49.78187" lon="2.31112">
        <ele>81.2</ele>
        <time>2023-02-01T14:43:53Z</time>
      </trkpt>
      <trkpt lat="49.78188" lon="2.31113">
        <ele>81.2</ele>
        <time>2023-02-01T14:43:55Z</time>
      </trkpt>
      <trkpt lat="49.78189" lon="2.31114">
        <ele>81.2</ele>
        <time>2023-02-01T14:43:56Z</time>
      </trkpt>
      <trkpt lat="49.78189" lon="2.31115">
        <ele>81.2</ele>
        <time>2023-02-01T14:43:57Z</time>
      </trkpt>
      <trkpt lat="49.7819" lon="2.31116">
        <ele>81.2</ele>
        <time>2023-02-01T14:43:58Z</time>
      </trkpt>
      <trkpt lat="49.78191" lon="2.31117">
        <ele>81.2</ele>
        <time>2023-02-01T14:43:59Z</time>
      </trkpt>
      <trkpt lat="49.78192" lon="2.31118">
        <ele>81.2</ele>
        <time>2023-02-01T14:44:00Z</time>
      </trkpt>
      <trkpt lat="49.78193" lon="2.3112">
        <ele>81.2</ele>
        <time>2023-02-01T14:44:02Z</time>
      </trkpt>
      <trkpt lat="49.78194" lon="2.31121">
        <ele>81.2</ele>
        <time>2023-02-01T14:44:03Z</time>
      </trkpt>
      <trkpt lat="49.78194" lon="2.31122">
        <ele>81.2</ele>
        <time>2023-02-01T14:44:04Z</time>
      </trkpt>
      <trkpt lat="49.78195" lon="2.31123">
        <ele>81.2</ele>
        <time>2023-02-01T14:44:05Z</time>
      </trkpt>
      <trkpt lat="49.78196" lon="2.31124">
        <ele>81.2</ele>
        <time>2023-02-01T14:44:06Z</time>
      </trkpt>
      <trkpt lat="49.78197" lon="2.31125">
        <ele>81.2</ele>
        <time>2023-02-01T14:44:07Z</time>
      </trkpt>
      <trkpt lat="49.78198" lon="2.31126">
        <ele>81.2</ele>
        <time>2023-02-01T14:44:08Z</time>
      </trkpt>
      <trkpt lat="49.78199" lon="2.31127">
        <ele>81.2</ele>
        <time>2023-02-01T14:44:09Z</time>
      </trkpt>
      <trkpt lat="49.782" lon="2.31128">
        <ele>81.1</ele>
        <time>2023-02-01T14:44:11Z</time>
      </trkpt>
      <trkpt lat="49.78201" lon="2.31129">
        <ele>81.1</ele>
        <time>2023-02-01T14:44:12Z</time>
      </trkpt>
      <trkpt lat="49.78202" lon="2.31129">
        <ele>81.1</ele>
        <time>2023-02-01T14:44:13Z</time>
      </trkpt>
      <trkpt lat="49.78203" lon="2.3113">
        <ele>81.1</ele>
        <time>2023-02-01T14:44:14Z</time>
      </trkpt>
      <trkpt lat="49.78205" lon="2.31131">
        <ele>81.1</ele>
        <time>2023-02-01T14:44:15Z</time>
      </trkpt>
      <trkpt lat="49.78206" lon="2.31132">
        <ele>81</ele>
        <time>2023-02-01T14:44:17Z</time>
      </trkpt>
      <trkpt lat="49.78207" lon="2.31133">
        <ele>81</ele>
        <time>2023-02-01T14:44:18Z</time>
      </trkpt>
      <trkpt lat="49.78209" lon="2.31134">
        <ele>81</ele>
        <time>2023-02-01T14:44:19Z</time>
      </trkpt>
      <trkpt lat="49.7821" lon="2.31135">
        <ele>81</ele>
        <time>2023-02-01T14:44:20Z</time>
      </trkpt>
      <trkpt lat="49.78211" lon="2.31136">
        <ele>80.9</ele>
        <time>2023-02-01T14:44:21Z</time>
      </trkpt>
      <trkpt lat="49.78212" lon="2.31137">
        <ele>80.9</ele>
        <time>2023-02-01T14:44:22Z</time>
      </trkpt>
      <trkpt lat="49.78213" lon="2.31138">
        <ele>80.9</ele>
        <time>2023-02-01T14:44:23Z</time>
      </trkpt>
      <trkpt lat="49.78214" lon="2.31138">
        <ele>80.8</ele>
        <time>2023-02-01T14:44:24Z</time>
      </trkpt>
      <trkpt lat="49.78216" lon="2.31139">
        <ele>80.8</ele>
        <time>2023-02-01T14:44:26Z</time>
      </trkpt>
      <trkpt lat="49.78217" lon="2.3114">
        <ele>80.7</ele>
        <time>2023-02-01T14:44:27Z</time>
      </trkpt>
      <trkpt lat="49.78218" lon="2.31141">
        <ele>80.7</ele>
        <time>2023-02-01T14:44:28Z</time>
      </trkpt>
      <trkpt lat="49.78219" lon="2.31142">
        <ele>80.7</ele>
        <time>2023-02-01T14:44:29Z</time>
      </trkpt>
      <trkpt lat="49.7822" lon="2.31144">
        <ele>80.6</ele>
        <time>2023-02-01T14:44:30Z</time>
      </trkpt>
      <trkpt lat="49.78221" lon="2.31145">
        <ele>80.6</ele>
        <time>2023-02-01T14:44:31Z</time>
      </trkpt>
      <trkpt lat="49.78223" lon="2.31147">
        <ele>80.5</ele>
        <time>2023-02-01T14:44:32Z</time>
      </trkpt>
      <trkpt lat="49.78224" lon="2.31148">
        <ele>80.5</ele>
        <time>2023-02-01T14:44:34Z</time>
      </trkpt>
      <trkpt lat="49.78225" lon="2.31149">
        <ele>80.4</ele>
        <time>2023-02-01T14:44:35Z</time>
      </trkpt>
      <trkpt lat="49.78226" lon="2.3115">
        <ele>80.4</ele>
        <time>2023-02-01T14:44:36Z</time>
      </trkpt>
      <trkpt lat="49.78227" lon="2.3115">
        <ele>80.4</ele>
        <time>2023-02-01T14:44:37Z</time>
      </trkpt>
      <trkpt lat="49.78227" lon="2.31151">
        <ele>80.4</ele>
        <time>2023-02-01T14:44:38Z</time>
      </trkpt>
      <trkpt lat="49.7823" lon="2.31153">
        <ele>80.3</ele>
        <time>2023-02-01T14:44:40Z</time>
      </trkpt>
      <trkpt lat="49.78231" lon="2.31154">
        <ele>80.3</ele>
        <time>2023-02-01T14:44:41Z</time>
      </trkpt>
      <trkpt lat="49.78232" lon="2.31155">
        <ele>80.2</ele>
        <time>2023-02-01T14:44:42Z</time>
      </trkpt>
      <trkpt lat="49.78233" lon="2.31156">
        <ele>80.2</ele>
        <time>2023-02-01T14:44:43Z</time>
      </trkpt>
      <trkpt lat="49.78235" lon="2.31157">
        <ele>80.1</ele>
        <time>2023-02-01T14:44:45Z</time>
      </trkpt>
      <trkpt lat="49.78236" lon="2.31158">
        <ele>80.1</ele>
        <time>2023-02-01T14:44:46Z</time>
      </trkpt>
      <trkpt lat="49.78236" lon="2.31159">
        <ele>80.1</ele>
        <time>2023-02-01T14:44:47Z</time>
      </trkpt>
      <trkpt lat="49.78237" lon="2.31159">
        <ele>80.1</ele>
        <time>2023-02-01T14:44:48Z</time>
      </trkpt>
      <trkpt lat="49.78238" lon="2.3116">
        <ele>80</ele>
        <time>2023-02-01T14:44:49Z</time>
      </trkpt>
      <trkpt lat="49.7824" lon="2.31161">
        <ele>80</ele>
        <time>2023-02-01T14:44:50Z</time>
      </trkpt>
      <trkpt lat="49.78241" lon="2.31162">
        <ele>80</ele>
        <time>2023-02-01T14:44:51Z</time>
      </trkpt>
      <trkpt lat="49.78242" lon="2.31163">
        <ele>80</ele>
        <time>2023-02-01T14:44:52Z</time>
      </trkpt>
      <trkpt lat="49.78243" lon="2.31164">
        <ele>80</ele>
        <time>2023-02-01T14:44:53Z</time>
      </trkpt>
      <trkpt lat="49.78244" lon="2.31165">
        <ele>79.9</ele>
        <time>2023-02-01T14:44:54Z</time>
      </trkpt>
      <trkpt lat="49.78245" lon="2.31166">
        <ele>79.9</ele>
        <time>2023-02-01T14:44:55Z</time>
      </trkpt>
      <trkpt lat="49.78246" lon="2.31168">
        <ele>79.9</ele>
        <time>2023-02-01T14:44:57Z</time>
      </trkpt>
      <trkpt lat="49.78247" lon="2.31169">
        <ele>79.9</ele>
        <time>2023-02-01T14:44:58Z</time>
      </trkpt>
      <trkpt lat="49.78249" lon="2.3117">
        <ele>79.9</ele>
        <time>2023-02-01T14:44:59Z</time>
      </trkpt>
      <trkpt lat="49.7825" lon="2.31171">
        <ele>79.9</ele>
        <time>2023-02-01T14:45:00Z</time>
      </trkpt>
      <trkpt lat="49.7825" lon="2.31172">
        <ele>79.8</ele>
        <time>2023-02-01T14:45:01Z</time>
      </trkpt>
      <trkpt lat="49.78252" lon="2.31173">
        <ele>79.8</ele>
        <time>2023-02-01T14:45:02Z</time>
      </trkpt>
      <trkpt lat="49.78253" lon="2.31174">
        <ele>79.8</ele>
        <time>2023-02-01T14:45:03Z</time>
      </trkpt>
      <trkpt lat="49.78254" lon="2.31175">
        <ele>79.8</ele>
        <time>2023-02-01T14:45:04Z</time>
      </trkpt>
      <trkpt lat="49.78255" lon="2.31176">
        <ele>79.8</ele>
        <time>2023-02-01T14:45:05Z</time>
      </trkpt>
      <trkpt lat="49.78255" lon="2.31176">
        <ele>79.8</ele>
        <time>2023-02-01T14:45:06Z</time>
      </trkpt>
      <trkpt lat="49.78257" lon="2.31178">
        <ele>79.8</ele>
        <time>2023-02-01T14:45:07Z</time>
      </trkpt>
      <trkpt lat="49.78258" lon="2.31179">
        <ele>79.7</ele>
        <time>2023-02-01T14:45:09Z</time>
      </trkpt>
      <trkpt lat="49.78259" lon="2.31179">
        <ele>79.7</ele>
        <time>2023-02-01T14:45:10Z</time>
      </trkpt>
      <trkpt lat="49.7826" lon="2.3118">
        <ele>79.7</ele>
        <time>2023-02-01T14:45:11Z</time>
      </trkpt>
      <trkpt lat="49.78262" lon="2.31182">
        <ele>79.7</ele>
        <time>2023-02-01T14:45:12Z</time>
      </trkpt>
      <trkpt lat="49.78263" lon="2.31183">
        <ele>79.7</ele>
        <time>2023-02-01T14:45:13Z</time>
      </trkpt>
      <trkpt lat="49.78265" lon="2.31185">
        <ele>79.7</ele>
        <time>2023-02-01T14:45:14Z</time>
      </trkpt>
      <trkpt lat="49.78266" lon="2.31186">
        <ele>79.6</ele>
        <time>2023-02-01T14:45:16Z</time>
      </trkpt>
      <trkpt lat="49.78267" lon="2.31187">
        <ele>79.6</ele>
        <time>2023-02-01T14:45:18Z</time>
      </trkpt>
      <trkpt lat="49.78268" lon="2.31188">
        <ele>79.6</ele>
        <time>2023-02-01T14:45:19Z</time>
      </trkpt>
      <trkpt lat="49.7827" lon="2.3119">
        <ele>79.6</ele>
        <time>2023-02-01T14:45:20Z</time>
      </trkpt>
      <trkpt lat="49.78271" lon="2.31191">
        <ele>79.6</ele>
        <time>2023-02-01T14:45:21Z</time>
      </trkpt>
      <trkpt lat="49.78272" lon="2.31192">
        <ele>79.6</ele>
        <time>2023-02-01T14:45:22Z</time>
      </trkpt>
      <trkpt lat="49.78273" lon="2.31193">
        <ele>79.6</ele>
        <time>2023-02-01T14:45:23Z</time>
      </trkpt>
      <trkpt lat="49.78274" lon="2.31194">
        <ele>79.6</ele>
        <time>2023-02-01T14:45:24Z</time>
      </trkpt>
      <trkpt lat="49.78275" lon="2.31195">
        <ele>79.6</ele>
        <time>2023-02-01T14:45:25Z</time>
      </trkpt>
      <trkpt lat="49.78277" lon="2.31197">
        <ele>79.5</ele>
        <time>2023-02-01T14:45:27Z</time>
      </trkpt>
      <trkpt lat="49.78278" lon="2.31198">
        <ele>79.5</ele>
        <time>2023-02-01T14:45:28Z</time>
      </trkpt>
      <trkpt lat="49.78278" lon="2.31198">
        <ele>79.5</ele>
        <time>2023-02-01T14:45:29Z</time>
      </trkpt>
      <trkpt lat="49.7828" lon="2.312">
        <ele>79.5</ele>
        <time>2023-02-01T14:45:31Z</time>
      </trkpt>
      <trkpt lat="49.78281" lon="2.31201">
        <ele>79.5</ele>
        <time>2023-02-01T14:45:32Z</time>
      </trkpt>
      <trkpt lat="49.78282" lon="2.31201">
        <ele>79.5</ele>
        <time>2023-02-01T14:45:33Z</time>
      </trkpt>
      <trkpt lat="49.78284" lon="2.31203">
        <ele>79.5</ele>
        <time>2023-02-01T14:45:34Z</time>
      </trkpt>
      <trkpt lat="49.78284" lon="2.31204">
        <ele>79.5</ele>
        <time>2023-02-01T14:45:35Z</time>
      </trkpt>
      <trkpt lat="49.78285" lon="2.31205">
        <ele>79.4</ele>
        <time>2023-02-01T14:45:36Z</time>
      </trkpt>
      <trkpt lat="49.78287" lon="2.31207">
        <ele>79.4</ele>
        <time>2023-02-01T14:45:37Z</time>
      </trkpt>
      <trkpt lat="49.78288" lon="2.31207">
        <ele>79.4</ele>
        <time>2023-02-01T14:45:38Z</time>
      </trkpt>
      <trkpt lat="49.78288" lon="2.31208">
        <ele>79.4</ele>
        <time>2023-02-01T14:45:39Z</time>
      </trkpt>
      <trkpt lat="49.78289" lon="2.31209">
        <ele>79.4</ele>
        <time>2023-02-01T14:45:40Z</time>
      </trkpt>
      <trkpt lat="49.7829" lon="2.3121">
        <ele>79.4</ele>
        <time>2023-02-01T14:45:41Z</time>
      </trkpt>
      <trkpt lat="49.78291" lon="2.31211">
        <ele>79.3</ele>
        <time>2023-02-01T14:45:42Z</time>
      </trkpt>
      <trkpt lat="49.78293" lon="2.31213">
        <ele>79.3</ele>
        <time>2023-02-01T14:45:44Z</time>
      </trkpt>
      <trkpt lat="49.78294" lon="2.31214">
        <ele>79.3</ele>
        <time>2023-02-01T14:45:45Z</time>
      </trkpt>
      <trkpt lat="49.78294" lon="2.31215">
        <ele>79.3</ele>
        <time>2023-02-01T14:45:46Z</time>
      </trkpt>
      <trkpt lat="49.78296" lon="2.31216">
        <ele>79.2</ele>
        <time>2023-02-01T14:45:47Z</time>
      </trkpt>
      <trkpt lat="49.78297" lon="2.31218">
        <ele>79.2</ele>
        <time>2023-02-01T14:45:48Z</time>
      </trkpt>
      <trkpt lat="49.78298" lon="2.31219">
        <ele>79.2</ele>
        <time>2023-02-01T14:45:50Z</time>
      </trkpt>
      <trkpt lat="49.78299" lon="2.3122">
        <ele>79.1</ele>
        <time>2023-02-01T14:45:51Z</time>
      </trkpt>
      <trkpt lat="49.78299" lon="2.31221">
        <ele>79.1</ele>
        <time>2023-02-01T14:45:52Z</time>
      </trkpt>
      <trkpt lat="49.783" lon="2.31222">
        <ele>79.1</ele>
        <time>2023-02-01T14:45:53Z</time>
      </trkpt>
      <trkpt lat="49.78301" lon="2.31222">
        <ele>79.1</ele>
        <time>2023-02-01T14:45:54Z</time>
      </trkpt>
      <trkpt lat="49.78302" lon="2.31223">
        <ele>79</ele>
        <time>2023-02-01T14:45:55Z</time>
      </trkpt>
      <trkpt lat="49.78303" lon="2.31225">
        <ele>79</ele>
        <time>2023-02-01T14:45:57Z</time>
      </trkpt>
      <trkpt lat="49.78304" lon="2.31227">
        <ele>78.9</ele>
        <time>2023-02-01T14:45:58Z</time>
      </trkpt>
      <trkpt lat="49.78305" lon="2.31228">
        <ele>78.9</ele>
        <time>2023-02-01T14:45:59Z</time>
      </trkpt>
      <trkpt lat="49.78306" lon="2.31229">
        <ele>78.9</ele>
        <time>2023-02-01T14:46:00Z</time>
      </trkpt>
      <trkpt lat="49.78307" lon="2.31231">
        <ele>78.8</ele>
        <time>2023-02-01T14:46:01Z</time>
      </trkpt>
      <trkpt lat="49.78308" lon="2.31233">
        <ele>78.8</ele>
        <time>2023-02-01T14:46:03Z</time>
      </trkpt>
      <trkpt lat="49.78309" lon="2.31234">
        <ele>78.8</ele>
        <time>2023-02-01T14:46:04Z</time>
      </trkpt>
      <trkpt lat="49.7831" lon="2.31235">
        <ele>78.7</ele>
        <time>2023-02-01T14:46:05Z</time>
      </trkpt>
      <trkpt lat="49.78311" lon="2.31236">
        <ele>78.7</ele>
        <time>2023-02-01T14:46:06Z</time>
      </trkpt>
      <trkpt lat="49.78311" lon="2.31237">
        <ele>78.7</ele>
        <time>2023-02-01T14:46:07Z</time>
      </trkpt>
      <trkpt lat="49.78313" lon="2.31239">
        <ele>78.7</ele>
        <time>2023-02-01T14:46:08Z</time>
      </trkpt>
      <trkpt lat="49.78314" lon="2.3124">
        <ele>78.7</ele>
        <time>2023-02-01T14:46:09Z</time>
      </trkpt>
      <trkpt lat="49.78315" lon="2.31241">
        <ele>78.6</ele>
        <time>2023-02-01T14:46:10Z</time>
      </trkpt>
      <trkpt lat="49.78316" lon="2.31242">
        <ele>78.6</ele>
        <time>2023-02-01T14:46:11Z</time>
      </trkpt>
      <trkpt lat="49.78318" lon="2.31245">
        <ele>78.6</ele>
        <time>2023-02-01T14:46:12Z</time>
      </trkpt>
      <trkpt lat="49.78319" lon="2.31246">
        <ele>78.6</ele>
        <time>2023-02-01T14:46:14Z</time>
      </trkpt>
      <trkpt lat="49.7832" lon="2.31247">
        <ele>78.5</ele>
        <time>2023-02-01T14:46:15Z</time>
      </trkpt>
      <trkpt lat="49.78321" lon="2.31248">
        <ele>78.5</ele>
        <time>2023-02-01T14:46:16Z</time>
      </trkpt>
      <trkpt lat="49.78322" lon="2.31249">
        <ele>78.5</ele>
        <time>2023-02-01T14:46:17Z</time>
      </trkpt>
      <trkpt lat="49.78323" lon="2.3125">
        <ele>78.5</ele>
        <time>2023-02-01T14:46:18Z</time>
      </trkpt>
      <trkpt lat="49.78324" lon="2.31251">
        <ele>78.5</ele>
        <time>2023-02-01T14:46:20Z</time>
      </trkpt>
      <trkpt lat="49.78325" lon="2.31252">
        <ele>78.5</ele>
        <time>2023-02-01T14:46:21Z</time>
      </trkpt>
      <trkpt lat="49.78326" lon="2.31253">
        <ele>78.5</ele>
        <time>2023-02-01T14:46:22Z</time>
      </trkpt>
      <trkpt lat="49.78327" lon="2.31253">
        <ele>78.5</ele>
        <time>2023-02-01T14:46:23Z</time>
      </trkpt>
      <trkpt lat="49.78328" lon="2.31254">
        <ele>78.5</ele>
        <time>2023-02-01T14:46:24Z</time>
      </trkpt>
      <trkpt lat="49.7833" lon="2.31254">
        <ele>78.5</ele>
        <time>2023-02-01T14:46:25Z</time>
      </trkpt>
      <trkpt lat="49.78331" lon="2.31255">
        <ele>78.4</ele>
        <time>2023-02-01T14:46:26Z</time>
      </trkpt>
      <trkpt lat="49.78333" lon="2.31256">
        <ele>78.4</ele>
        <time>2023-02-01T14:46:27Z</time>
      </trkpt>
      <trkpt lat="49.78333" lon="2.31257">
        <ele>78.4</ele>
        <time>2023-02-01T14:46:28Z</time>
      </trkpt>
      <trkpt lat="49.78334" lon="2.31258">
        <ele>78.4</ele>
        <time>2023-02-01T14:46:30Z</time>
      </trkpt>
      <trkpt lat="49.78335" lon="2.31259">
        <ele>78.4</ele>
        <time>2023-02-01T14:46:31Z</time>
      </trkpt>
      <trkpt lat="49.78336" lon="2.31259">
        <ele>78.4</ele>
        <time>2023-02-01T14:46:32Z</time>
      </trkpt>
      <trkpt lat="49.78336" lon="2.3126">
        <ele>78.4</ele>
        <time>2023-02-01T14:46:33Z</time>
      </trkpt>
      <trkpt lat="49.78337" lon="2.31261">
        <ele>78.4</ele>
        <time>2023-02-01T14:46:34Z</time>
      </trkpt>
      <trkpt lat="49.78338" lon="2.31261">
        <ele>78.4</ele>
        <time>2023-02-01T14:46:35Z</time>
      </trkpt>
      <trkpt lat="49.78339" lon="2.31262">
        <ele>78.4</ele>
        <time>2023-02-01T14:46:36Z</time>
      </trkpt>
      <trkpt lat="49.78341" lon="2.31263">
        <ele>78.4</ele>
        <time>2023-02-01T14:46:37Z</time>
      </trkpt>
      <trkpt lat="49.78341" lon="2.31264">
        <ele>78.4</ele>
        <time>2023-02-01T14:46:39Z</time>
      </trkpt>
      <trkpt lat="49.78342" lon="2.31264">
        <ele>78.4</ele>
        <time>2023-02-01T14:46:40Z</time>
      </trkpt>
      <trkpt lat="49.78344" lon="2.31266">
        <ele>78.3</ele>
        <time>2023-02-01T14:46:41Z</time>
      </trkpt>
      <trkpt lat="49.78345" lon="2.31266">
        <ele>78.3</ele>
        <time>2023-02-01T14:46:42Z</time>
      </trkpt>
      <trkpt lat="49.78346" lon="2.31267">
        <ele>78.3</ele>
        <time>2023-02-01T14:46:43Z</time>
      </trkpt>
      <trkpt lat="49.78347" lon="2.31267">
        <ele>78.3</ele>
        <time>2023-02-01T14:46:44Z</time>
      </trkpt>
      <trkpt lat="49.78348" lon="2.31268">
        <ele>78.3</ele>
        <time>2023-02-01T14:46:45Z</time>
      </trkpt>
      <trkpt lat="49.7835" lon="2.31268">
        <ele>78.3</ele>
        <time>2023-02-01T14:46:46Z</time>
      </trkpt>
      <trkpt lat="49.78351" lon="2.31269">
        <ele>78.3</ele>
        <time>2023-02-01T14:46:47Z</time>
      </trkpt>
      <trkpt lat="49.78352" lon="2.31269">
        <ele>78.3</ele>
        <time>2023-02-01T14:46:49Z</time>
      </trkpt>
      <trkpt lat="49.78354" lon="2.3127">
        <ele>78.3</ele>
        <time>2023-02-01T14:46:50Z</time>
      </trkpt>
      <trkpt lat="49.78355" lon="2.31271">
        <ele>78.3</ele>
        <time>2023-02-01T14:46:51Z</time>
      </trkpt>
      <trkpt lat="49.78356" lon="2.31272">
        <ele>78.3</ele>
        <time>2023-02-01T14:46:52Z</time>
      </trkpt>
      <trkpt lat="49.78358" lon="2.31273">
        <ele>78.3</ele>
        <time>2023-02-01T14:46:53Z</time>
      </trkpt>
      <trkpt lat="49.7836" lon="2.31275">
        <ele>78.3</ele>
        <time>2023-02-01T14:46:54Z</time>
      </trkpt>
      <trkpt lat="49.78361" lon="2.31275">
        <ele>78.3</ele>
        <time>2023-02-01T14:46:55Z</time>
      </trkpt>
      <trkpt lat="49.78362" lon="2.31276">
        <ele>78.3</ele>
        <time>2023-02-01T14:46:56Z</time>
      </trkpt>
      <trkpt lat="49.78364" lon="2.31277">
        <ele>78.3</ele>
        <time>2023-02-01T14:46:58Z</time>
      </trkpt>
      <trkpt lat="49.78364" lon="2.31278">
        <ele>78.3</ele>
        <time>2023-02-01T14:46:59Z</time>
      </trkpt>
      <trkpt lat="49.78365" lon="2.31278">
        <ele>78.3</ele>
        <time>2023-02-01T14:47:00Z</time>
      </trkpt>
      <trkpt lat="49.78366" lon="2.31279">
        <ele>78.3</ele>
        <time>2023-02-01T14:47:01Z</time>
      </trkpt>
      <trkpt lat="49.78368" lon="2.31279">
        <ele>78.2</ele>
        <time>2023-02-01T14:47:02Z</time>
      </trkpt>
      <trkpt lat="49.7837" lon="2.31281">
        <ele>78.2</ele>
        <time>2023-02-01T14:47:04Z</time>
      </trkpt>
      <trkpt lat="49.78371" lon="2.31281">
        <ele>78.2</ele>
        <time>2023-02-01T14:47:05Z</time>
      </trkpt>
      <trkpt lat="49.78373" lon="2.31282">
        <ele>78.2</ele>
        <time>2023-02-01T14:47:06Z</time>
      </trkpt>
      <trkpt lat="49.78374" lon="2.31283">
        <ele>78.2</ele>
        <time>2023-02-01T14:47:07Z</time>
      </trkpt>
      <trkpt lat="49.78375" lon="2.31283">
        <ele>78.2</ele>
        <time>2023-02-01T14:47:08Z</time>
      </trkpt>
      <trkpt lat="49.78376" lon="2.31286">
        <ele>78.2</ele>
        <time>2023-02-01T14:47:09Z</time>
      </trkpt>
      <trkpt lat="49.78377" lon="2.31287">
        <ele>78.2</ele>
        <time>2023-02-01T14:47:10Z</time>
      </trkpt>
      <trkpt lat="49.78378" lon="2.31288">
        <ele>78.1</ele>
        <time>2023-02-01T14:47:11Z</time>
      </trkpt>
      <trkpt lat="49.7838" lon="2.31289">
        <ele>78.1</ele>
        <time>2023-02-01T14:47:12Z</time>
      </trkpt>
      <trkpt lat="49.78381" lon="2.31289">
        <ele>78.1</ele>
        <time>2023-02-01T14:47:14Z</time>
      </trkpt>
      <trkpt lat="49.78381" lon="2.3129">
        <ele>78.1</ele>
        <time>2023-02-01T14:47:15Z</time>
      </trkpt>
      <trkpt lat="49.78383" lon="2.31291">
        <ele>78.1</ele>
        <time>2023-02-01T14:47:16Z</time>
      </trkpt>
      <trkpt lat="49.78384" lon="2.31291">
        <ele>78.1</ele>
        <time>2023-02-01T14:47:17Z</time>
      </trkpt>
      <trkpt lat="49.78385" lon="2.31291">
        <ele>78.1</ele>
        <time>2023-02-01T14:47:18Z</time>
      </trkpt>
      <trkpt lat="49.78387" lon="2.31292">
        <ele>78</ele>
        <time>2023-02-01T14:47:19Z</time>
      </trkpt>
      <trkpt lat="49.78388" lon="2.31293">
        <ele>78</ele>
        <time>2023-02-01T14:47:20Z</time>
      </trkpt>
      <trkpt lat="49.78389" lon="2.31293">
        <ele>78</ele>
        <time>2023-02-01T14:47:22Z</time>
      </trkpt>
      <trkpt lat="49.78391" lon="2.31294">
        <ele>78</ele>
        <time>2023-02-01T14:47:23Z</time>
      </trkpt>
      <trkpt lat="49.78391" lon="2.31294">
        <ele>78</ele>
        <time>2023-02-01T14:47:24Z</time>
      </trkpt>
      <trkpt lat="49.78392" lon="2.31295">
        <ele>78</ele>
        <time>2023-02-01T14:47:25Z</time>
      </trkpt>
      <trkpt lat="49.78393" lon="2.31296">
        <ele>78</ele>
        <time>2023-02-01T14:47:26Z</time>
      </trkpt>
      <trkpt lat="49.78394" lon="2.31296">
        <ele>78</ele>
        <time>2023-02-01T14:47:27Z</time>
      </trkpt>
      <trkpt lat="49.78396" lon="2.31298">
        <ele>78</ele>
        <time>2023-02-01T14:47:29Z</time>
      </trkpt>
      <trkpt lat="49.78397" lon="2.31299">
        <ele>78</ele>
        <time>2023-02-01T14:47:31Z</time>
      </trkpt>
      <trkpt lat="49.78397" lon="2.31299">
        <ele>78</ele>
        <time>2023-02-01T14:47:32Z</time>
      </trkpt>
      <trkpt lat="49.78399" lon="2.313">
        <ele>78</ele>
        <time>2023-02-01T14:47:33Z</time>
      </trkpt>
      <trkpt lat="49.78399" lon="2.31301">
        <ele>78</ele>
        <time>2023-02-01T14:47:34Z</time>
      </trkpt>
      <trkpt lat="49.784" lon="2.31302">
        <ele>78</ele>
        <time>2023-02-01T14:47:35Z</time>
      </trkpt>
      <trkpt lat="49.784" lon="2.31302">
        <ele>78</ele>
        <time>2023-02-01T14:47:37Z</time>
      </trkpt>
      <trkpt lat="49.78401" lon="2.31303">
        <ele>78</ele>
        <time>2023-02-01T14:47:38Z</time>
      </trkpt>
      <trkpt lat="49.78401" lon="2.31304">
        <ele>78</ele>
        <time>2023-02-01T14:47:39Z</time>
      </trkpt>
      <trkpt lat="49.78401" lon="2.31305">
        <ele>78</ele>
        <time>2023-02-01T14:47:40Z</time>
      </trkpt>
      <trkpt lat="49.78401" lon="2.31305">
        <ele>78</ele>
        <time>2023-02-01T14:47:41Z</time>
      </trkpt>
      <trkpt lat="49.78402" lon="2.31306">
        <ele>78</ele>
        <time>2023-02-01T14:47:42Z</time>
      </trkpt>
      <trkpt lat="49.78402" lon="2.31307">
        <ele>78</ele>
        <time>2023-02-01T14:47:44Z</time>
      </trkpt>
      <trkpt lat="49.78403" lon="2.31308">
        <ele>78</ele>
        <time>2023-02-01T14:47:45Z</time>
      </trkpt>
      <trkpt lat="49.78404" lon="2.31309">
        <ele>78</ele>
        <time>2023-02-01T14:47:46Z</time>
      </trkpt>
      <trkpt lat="49.78404" lon="2.3131">
        <ele>78</ele>
        <time>2023-02-01T14:47:47Z</time>
      </trkpt>
      <trkpt lat="49.78405" lon="2.31312">
        <ele>78</ele>
        <time>2023-02-01T14:47:48Z</time>
      </trkpt>
      <trkpt lat="49.78406" lon="2.31314">
        <ele>77.9</ele>
        <time>2023-02-01T14:47:50Z</time>
      </trkpt>
      <trkpt lat="49.78407" lon="2.31315">
        <ele>77.9</ele>
        <time>2023-02-01T14:47:51Z</time>
      </trkpt>
      <trkpt lat="49.78408" lon="2.31316">
        <ele>77.9</ele>
        <time>2023-02-01T14:47:52Z</time>
      </trkpt>
      <trkpt lat="49.78408" lon="2.31318">
        <ele>77.9</ele>
        <time>2023-02-01T14:47:54Z</time>
      </trkpt>
      <trkpt lat="49.78409" lon="2.31318">
        <ele>77.9</ele>
        <time>2023-02-01T14:47:55Z</time>
      </trkpt>
      <trkpt lat="49.78409" lon="2.31318">
        <ele>77.9</ele>
        <time>2023-02-01T14:47:57Z</time>
      </trkpt>
      <trkpt lat="49.78409" lon="2.31318">
        <ele>77.9</ele>
        <time>2023-02-01T14:47:58Z</time>
      </trkpt>
      <trkpt lat="49.78409" lon="2.31318">
        <ele>77.9</ele>
        <time>2023-02-01T14:47:59Z</time>
      </trkpt>
      <trkpt lat="49.78409" lon="2.31318">
        <ele>77.9</ele>
        <time>2023-02-01T14:48:01Z</time>
      </trkpt>
      <trkpt lat="49.78409" lon="2.31317">
        <ele>77.9</ele>
        <time>2023-02-01T14:48:02Z</time>
      </trkpt>
      <trkpt lat="49.78408" lon="2.31317">
        <ele>77.8</ele>
        <time>2023-02-01T14:48:04Z</time>
      </trkpt>
      <trkpt lat="49.78407" lon="2.31316">
        <ele>77.8</ele>
        <time>2023-02-01T14:48:05Z</time>
      </trkpt>
      <trkpt lat="49.78407" lon="2.31316">
        <ele>77.8</ele>
        <time>2023-02-01T14:48:06Z</time>
      </trkpt>
      <trkpt lat="49.78407" lon="2.31316">
        <ele>77.8</ele>
        <time>2023-02-01T14:48:08Z</time>
      </trkpt>
      <trkpt lat="49.78407" lon="2.31316">
        <ele>77.8</ele>
        <time>2023-02-01T14:48:09Z</time>
      </trkpt>
      <trkpt lat="49.78407" lon="2.31316">
        <ele>77.8</ele>
        <time>2023-02-01T14:48:10Z</time>
      </trkpt>
      <trkpt lat="49.78407" lon="2.31316">
        <ele>77.8</ele>
        <time>2023-02-01T14:48:12Z</time>
      </trkpt>
      <trkpt lat="49.78407" lon="2.31316">
        <ele>77.8</ele>
        <time>2023-02-01T14:48:13Z</time>
      </trkpt>
      <trkpt lat="49.78407" lon="2.31316">
        <ele>77.8</ele>
        <time>2023-02-01T14:48:14Z</time>
      </trkpt>
      <trkpt lat="49.78407" lon="2.31316">
        <ele>77.8</ele>
        <time>2023-02-01T14:48:15Z</time>
      </trkpt>
      <trkpt lat="49.78407" lon="2.31316">
        <ele>77.8</ele>
        <time>2023-02-01T14:48:16Z</time>
      </trkpt>
      <trkpt lat="49.78407" lon="2.31316">
        <ele>77.8</ele>
        <time>2023-02-01T14:48:17Z</time>
      </trkpt>
      <trkpt lat="49.78407" lon="2.31316">
        <ele>77.8</ele>
        <time>2023-02-01T14:48:18Z</time>
      </trkpt>
      <trkpt lat="49.78407" lon="2.31316">
        <ele>77.8</ele>
        <time>2023-02-01T14:48:19Z</time>
      </trkpt>
      <trkpt lat="49.78407" lon="2.31316">
        <ele>77.8</ele>
        <time>2023-02-01T14:48:20Z</time>
      </trkpt>
      <trkpt lat="49.78407" lon="2.31316">
        <ele>77.8</ele>
        <time>2023-02-01T14:48:21Z</time>
      </trkpt>
      <trkpt lat="49.78407" lon="2.31316">
        <ele>77.8</ele>
        <time>2023-02-01T14:48:22Z</time>
      </trkpt>
      <trkpt lat="49.78407" lon="2.31316">
        <ele>77.8</ele>
        <time>2023-02-01T14:48:23Z</time>
      </trkpt>
      <trkpt lat="49.78407" lon="2.31316">
        <ele>77.8</ele>
        <time>2023-02-01T14:48:24Z</time>
      </trkpt>
      <trkpt lat="49.78407" lon="2.31316">
        <ele>77.8</ele>
        <time>2023-02-01T14:48:25Z</time>
      </trkpt>
      <trkpt lat="49.78407" lon="2.31316">
        <ele>77.8</ele>
        <time>2023-02-01T14:48:26Z</time>
      </trkpt>
      <trkpt lat="49.78407" lon="2.31316">
        <ele>77.8</ele>
        <time>2023-02-01T14:48:27Z</time>
      </trkpt>
      <trkpt lat="49.78407" lon="2.31316">
        <ele>77.8</ele>
        <time>2023-02-01T14:48:28Z</time>
      </trkpt>
      <trkpt lat="49.78407" lon="2.31316">
        <ele>77.8</ele>
        <time>2023-02-01T14:48:29Z</time>
      </trkpt>
      <trkpt lat="49.78407" lon="2.31316">
        <ele>77.8</ele>
        <time>2023-02-01T14:48:30Z</time>
      </trkpt>
      <trkpt lat="49.78407" lon="2.31316">
        <ele>77.8</ele>
        <time>2023-02-01T14:48:31Z</time>
      </trkpt>
      <trkpt lat="49.78407" lon="2.31316">
        <ele>77.8</ele>
        <time>2023-02-01T14:48:32Z</time>
      </trkpt>
      <trkpt lat="49.78407" lon="2.31316">
        <ele>77.8</ele>
        <time>2023-02-01T14:48:33Z</time>
      </trkpt>
      <trkpt lat="49.78407" lon="2.31316">
        <ele>77.8</ele>
        <time>2023-02-01T14:48:34Z</time>
      </trkpt>
      <trkpt lat="49.78407" lon="2.31316">
        <ele>77.8</ele>
        <time>2023-02-01T14:48:35Z</time>
      </trkpt>
      <trkpt lat="49.78407" lon="2.31316">
        <ele>77.8</ele>
        <time>2023-02-01T14:48:36Z</time>
      </trkpt>
      <trkpt lat="49.78407" lon="2.31316">
        <ele>77.8</ele>
        <time>2023-02-01T14:48:37Z</time>
      </trkpt>
      <trkpt lat="49.78407" lon="2.31316">
        <ele>77.8</ele>
        <time>2023-02-01T14:48:38Z</time>
      </trkpt>
      <trkpt lat="49.78407" lon="2.31316">
        <ele>77.8</ele>
        <time>2023-02-01T14:48:39Z</time>
      </trkpt>
      <trkpt lat="49.78407" lon="2.31316">
        <ele>77.8</ele>
        <time>2023-02-01T14:48:40Z</time>
      </trkpt>
      <trkpt lat="49.78407" lon="2.31316">
        <ele>77.8</ele>
        <time>2023-02-01T14:48:41Z</time>
      </trkpt>
      <trkpt lat="49.78407" lon="2.31316">
        <ele>77.8</ele>
        <time>2023-02-01T14:48:42Z</time>
      </trkpt>
      <trkpt lat="49.78407" lon="2.31316">
        <ele>77.8</ele>
        <time>2023-02-01T14:48:43Z</time>
      </trkpt>
      <trkpt lat="49.78407" lon="2.31316">
        <ele>77.8</ele>
        <time>2023-02-01T14:48:44Z</time>
      </trkpt>
      <trkpt lat="49.78407" lon="2.31316">
        <ele>77.8</ele>
        <time>2023-02-01T14:48:45Z</time>
      </trkpt>
      <trkpt lat="49.78407" lon="2.31316">
        <ele>77.8</ele>
        <time>2023-02-01T14:48:46Z</time>
      </trkpt>
      <trkpt lat="49.78407" lon="2.31316">
        <ele>77.8</ele>
        <time>2023-02-01T14:48:47Z</time>
      </trkpt>
      <trkpt lat="49.78407" lon="2.31316">
        <ele>77.8</ele>
        <time>2023-02-01T14:48:48Z</time>
      </trkpt>
      <trkpt lat="49.78407" lon="2.31316">
        <ele>77.8</ele>
        <time>2023-02-01T14:48:49Z</time>
      </trkpt>
      <trkpt lat="49.78407" lon="2.31316">
        <ele>77.8</ele>
        <time>2023-02-01T14:48:50Z</time>
      </trkpt>
      <trkpt lat="49.78407" lon="2.31316">
        <ele>77.8</ele>
        <time>2023-02-01T14:48:51Z</time>
      </trkpt>
      <trkpt lat="49.78407" lon="2.31316">
        <ele>77.8</ele>
        <time>2023-02-01T14:48:52Z</time>
      </trkpt>
      <trkpt lat="49.78407" lon="2.31316">
        <ele>77.8</ele>
        <time>2023-02-01T14:48:53Z</time>
      </trkpt>
      <trkpt lat="49.78407" lon="2.31316">
        <ele>77.8</ele>
        <time>2023-02-01T14:48:54Z</time>
      </trkpt>
      <trkpt lat="49.78407" lon="2.31316">
        <ele>77.8</ele>
        <time>2023-02-01T14:48:55Z</time>
      </trkpt>
      <trkpt lat="49.78407" lon="2.31316">
        <ele>77.8</ele>
        <time>2023-02-01T14:48:56Z</time>
      </trkpt>
      <trkpt lat="49.78407" lon="2.31316">
        <ele>77.8</ele>
        <time>2023-02-01T14:48:57Z</time>
      </trkpt>
      <trkpt lat="49.78407" lon="2.31316">
        <ele>77.8</ele>
        <time>2023-02-01T14:48:58Z</time>
      </trkpt>
      <trkpt lat="49.78407" lon="2.31316">
        <ele>77.8</ele>
        <time>2023-02-01T14:48:59Z</time>
      </trkpt>
      <trkpt lat="49.78407" lon="2.31316">
        <ele>77.8</ele>
        <time>2023-02-01T14:49:00Z</time>
      </trkpt>
      <trkpt lat="49.78407" lon="2.31316">
        <ele>77.8</ele>
        <time>2023-02-01T14:49:01Z</time>
      </trkpt>
      <trkpt lat="49.78407" lon="2.31316">
        <ele>77.8</ele>
        <time>2023-02-01T14:49:02Z</time>
      </trkpt>
      <trkpt lat="49.78407" lon="2.31316">
        <ele>77.8</ele>
        <time>2023-02-01T14:49:03Z</time>
      </trkpt>
      <trkpt lat="49.78407" lon="2.31316">
        <ele>77.8</ele>
        <time>2023-02-01T14:49:04Z</time>
      </trkpt>
      <trkpt lat="49.78407" lon="2.31316">
        <ele>77.8</ele>
        <time>2023-02-01T14:49:05Z</time>
      </trkpt>
      <trkpt lat="49.78407" lon="2.31316">
        <ele>77.8</ele>
        <time>2023-02-01T14:49:06Z</time>
      </trkpt>
      <trkpt lat="49.78407" lon="2.31316">
        <ele>77.8</ele>
        <time>2023-02-01T14:49:07Z</time>
      </trkpt>
      <trkpt lat="49.78407" lon="2.31316">
        <ele>77.8</ele>
        <time>2023-02-01T14:49:08Z</time>
      </trkpt>
      <trkpt lat="49.78407" lon="2.31316">
        <ele>77.8</ele>
        <time>2023-02-01T14:49:09Z</time>
      </trkpt>
      <trkpt lat="49.78407" lon="2.31316">
        <ele>77.8</ele>
        <time>2023-02-01T14:49:10Z</time>
      </trkpt>
      <trkpt lat="49.78407" lon="2.31316">
        <ele>77.8</ele>
        <time>2023-02-01T14:49:11Z</time>
      </trkpt>
      <trkpt lat="49.78406" lon="2.31315">
        <ele>77.8</ele>
        <time>2023-02-01T14:49:12Z</time>
      </trkpt>
      <trkpt lat="49.78405" lon="2.31315">
        <ele>77.8</ele>
        <time>2023-02-01T14:49:13Z</time>
      </trkpt>
      <trkpt lat="49.78405" lon="2.31315">
        <ele>77.8</ele>
        <time>2023-02-01T14:49:14Z</time>
      </trkpt>
      <trkpt lat="49.78405" lon="2.31315">
        <ele>77.8</ele>
        <time>2023-02-01T14:49:15Z</time>
      </trkpt>
      <trkpt lat="49.78406" lon="2.31315">
        <ele>77.8</ele>
        <time>2023-02-01T14:49:16Z</time>
      </trkpt>
      <trkpt lat="49.78406" lon="2.31315">
        <ele>77.8</ele>
        <time>2023-02-01T14:49:17Z</time>
      </trkpt>
      <trkpt lat="49.78407" lon="2.31314">
        <ele>77.8</ele>
        <time>2023-02-01T14:49:18Z</time>
      </trkpt>
      <trkpt lat="49.78409" lon="2.31312">
        <ele>77.8</ele>
        <time>2023-02-01T14:49:20Z</time>
      </trkpt>
      <trkpt lat="49.7841" lon="2.31311">
        <ele>77.7</ele>
        <time>2023-02-01T14:49:22Z</time>
      </trkpt>
      <trkpt lat="49.78411" lon="2.3131">
        <ele>77.7</ele>
        <time>2023-02-01T14:49:23Z</time>
      </trkpt>
      <trkpt lat="49.78411" lon="2.31309">
        <ele>77.7</ele>
        <time>2023-02-01T14:49:24Z</time>
      </trkpt>
      <trkpt lat="49.78412" lon="2.31307">
        <ele>77.7</ele>
        <time>2023-02-01T14:49:25Z</time>
      </trkpt>
      <trkpt lat="49.78413" lon="2.31305">
        <ele>77.7</ele>
        <time>2023-02-01T14:49:26Z</time>
      </trkpt>
      <trkpt lat="49.78413" lon="2.31304">
        <ele>77.7</ele>
        <time>2023-02-01T14:49:27Z</time>
      </trkpt>
      <trkpt lat="49.78414" lon="2.31302">
        <ele>77.7</ele>
        <time>2023-02-01T14:49:28Z</time>
      </trkpt>
      <trkpt lat="49.78414" lon="2.313">
        <ele>77.7</ele>
        <time>2023-02-01T14:49:30Z</time>
      </trkpt>
      <trkpt lat="49.78415" lon="2.31298">
        <ele>77.7</ele>
        <time>2023-02-01T14:49:31Z</time>
      </trkpt>
      <trkpt lat="49.78416" lon="2.31297">
        <ele>77.8</ele>
        <time>2023-02-01T14:49:32Z</time>
      </trkpt>
      <trkpt lat="49.78418" lon="2.31295">
        <ele>77.8</ele>
        <time>2023-02-01T14:49:33Z</time>
      </trkpt>
      <trkpt lat="49.78419" lon="2.31294">
        <ele>77.8</ele>
        <time>2023-02-01T14:49:34Z</time>
      </trkpt>
      <trkpt lat="49.7842" lon="2.31292">
        <ele>77.8</ele>
        <time>2023-02-01T14:49:36Z</time>
      </trkpt>
      <trkpt lat="49.78421" lon="2.31291">
        <ele>77.8</ele>
        <time>2023-02-01T14:49:37Z</time>
      </trkpt>
      <trkpt lat="49.78422" lon="2.3129">
        <ele>77.8</ele>
        <time>2023-02-01T14:49:38Z</time>
      </trkpt>
      <trkpt lat="49.78423" lon="2.31287">
        <ele>77.9</ele>
        <time>2023-02-01T14:49:39Z</time>
      </trkpt>
      <trkpt lat="49.78424" lon="2.31287">
        <ele>77.9</ele>
        <time>2023-02-01T14:49:40Z</time>
      </trkpt>
      <trkpt lat="49.78424" lon="2.31286">
        <ele>77.9</ele>
        <time>2023-02-01T14:49:41Z</time>
      </trkpt>
      <trkpt lat="49.78426" lon="2.31283">
        <ele>78</ele>
        <time>2023-02-01T14:49:42Z</time>
      </trkpt>
      <trkpt lat="49.78426" lon="2.31282">
        <ele>78</ele>
        <time>2023-02-01T14:49:44Z</time>
      </trkpt>
      <trkpt lat="49.78427" lon="2.31281">
        <ele>78</ele>
        <time>2023-02-01T14:49:45Z</time>
      </trkpt>
      <trkpt lat="49.78427" lon="2.31279">
        <ele>78.1</ele>
        <time>2023-02-01T14:49:46Z</time>
      </trkpt>
      <trkpt lat="49.78428" lon="2.31278">
        <ele>78.1</ele>
        <time>2023-02-01T14:49:47Z</time>
      </trkpt>
      <trkpt lat="49.78428" lon="2.31276">
        <ele>78.1</ele>
        <time>2023-02-01T14:49:49Z</time>
      </trkpt>
      <trkpt lat="49.78429" lon="2.31275">
        <ele>78.2</ele>
        <time>2023-02-01T14:49:50Z</time>
      </trkpt>
      <trkpt lat="49.78429" lon="2.31274">
        <ele>78.2</ele>
        <time>2023-02-01T14:49:51Z</time>
      </trkpt>
      <trkpt lat="49.7843" lon="2.31272">
        <ele>78.3</ele>
        <time>2023-02-01T14:49:52Z</time>
      </trkpt>
      <trkpt lat="49.7843" lon="2.31271">
        <ele>78.3</ele>
        <time>2023-02-01T14:49:53Z</time>
      </trkpt>
      <trkpt lat="49.7843" lon="2.3127">
        <ele>78.4</ele>
        <time>2023-02-01T14:49:54Z</time>
      </trkpt>
      <trkpt lat="49.78431" lon="2.31268">
        <ele>78.4</ele>
        <time>2023-02-01T14:49:55Z</time>
      </trkpt>
      <trkpt lat="49.78431" lon="2.31267">
        <ele>78.5</ele>
        <time>2023-02-01T14:49:56Z</time>
      </trkpt>
      <trkpt lat="49.78432" lon="2.31265">
        <ele>78.5</ele>
        <time>2023-02-01T14:49:58Z</time>
      </trkpt>
      <trkpt lat="49.78432" lon="2.31264">
        <ele>78.6</ele>
        <time>2023-02-01T14:49:59Z</time>
      </trkpt>
      <trkpt lat="49.78433" lon="2.31262">
        <ele>78.6</ele>
        <time>2023-02-01T14:50:00Z</time>
      </trkpt>
      <trkpt lat="49.78433" lon="2.31261">
        <ele>78.7</ele>
        <time>2023-02-01T14:50:01Z</time>
      </trkpt>
      <trkpt lat="49.78434" lon="2.31259">
        <ele>78.8</ele>
        <time>2023-02-01T14:50:02Z</time>
      </trkpt>
      <trkpt lat="49.78435" lon="2.31257">
        <ele>78.9</ele>
        <time>2023-02-01T14:50:04Z</time>
      </trkpt>
      <trkpt lat="49.78436" lon="2.31256">
        <ele>78.9</ele>
        <time>2023-02-01T14:50:05Z</time>
      </trkpt>
      <trkpt lat="49.78436" lon="2.31254">
        <ele>79</ele>
        <time>2023-02-01T14:50:06Z</time>
      </trkpt>
      <trkpt lat="49.78437" lon="2.31253">
        <ele>79</ele>
        <time>2023-02-01T14:50:07Z</time>
      </trkpt>
      <trkpt lat="49.78438" lon="2.31251">
        <ele>79.1</ele>
        <time>2023-02-01T14:50:09Z</time>
      </trkpt>
      <trkpt lat="49.78438" lon="2.31251">
        <ele>79.2</ele>
        <time>2023-02-01T14:50:10Z</time>
      </trkpt>
      <trkpt lat="49.7844" lon="2.31248">
        <ele>79.3</ele>
        <time>2023-02-01T14:50:11Z</time>
      </trkpt>
      <trkpt lat="49.7844" lon="2.31247">
        <ele>79.4</ele>
        <time>2023-02-01T14:50:12Z</time>
      </trkpt>
      <trkpt lat="49.78441" lon="2.31245">
        <ele>79.4</ele>
        <time>2023-02-01T14:50:14Z</time>
      </trkpt>
      <trkpt lat="49.78441" lon="2.31244">
        <ele>79.5</ele>
        <time>2023-02-01T14:50:15Z</time>
      </trkpt>
      <trkpt lat="49.78442" lon="2.31243">
        <ele>79.6</ele>
        <time>2023-02-01T14:50:16Z</time>
      </trkpt>
      <trkpt lat="49.78443" lon="2.31242">
        <ele>79.6</ele>
        <time>2023-02-01T14:50:18Z</time>
      </trkpt>
      <trkpt lat="49.78443" lon="2.3124">
        <ele>79.7</ele>
        <time>2023-02-01T14:50:19Z</time>
      </trkpt>
      <trkpt lat="49.78444" lon="2.31239">
        <ele>79.8</ele>
        <time>2023-02-01T14:50:20Z</time>
      </trkpt>
      <trkpt lat="49.78445" lon="2.31238">
        <ele>79.8</ele>
        <time>2023-02-01T14:50:21Z</time>
      </trkpt>
      <trkpt lat="49.78445" lon="2.31236">
        <ele>79.9</ele>
        <time>2023-02-01T14:50:23Z</time>
      </trkpt>
      <trkpt lat="49.78446" lon="2.31235">
        <ele>80</ele>
        <time>2023-02-01T14:50:24Z</time>
      </trkpt>
      <trkpt lat="49.78447" lon="2.31233">
        <ele>80.1</ele>
        <time>2023-02-01T14:50:26Z</time>
      </trkpt>
      <trkpt lat="49.78447" lon="2.31232">
        <ele>80.2</ele>
        <time>2023-02-01T14:50:27Z</time>
      </trkpt>
      <trkpt lat="49.78448" lon="2.3123">
        <ele>80.2</ele>
        <time>2023-02-01T14:50:28Z</time>
      </trkpt>
      <trkpt lat="49.78448" lon="2.31229">
        <ele>80.3</ele>
        <time>2023-02-01T14:50:29Z</time>
      </trkpt>
      <trkpt lat="49.78449" lon="2.31228">
        <ele>80.4</ele>
        <time>2023-02-01T14:50:30Z</time>
      </trkpt>
      <trkpt lat="49.7845" lon="2.31227">
        <ele>80.5</ele>
        <time>2023-02-01T14:50:32Z</time>
      </trkpt>
      <trkpt lat="49.7845" lon="2.31226">
        <ele>80.5</ele>
        <time>2023-02-01T14:50:33Z</time>
      </trkpt>
      <trkpt lat="49.78452" lon="2.31224">
        <ele>80.7</ele>
        <time>2023-02-01T14:50:34Z</time>
      </trkpt>
      <trkpt lat="49.78452" lon="2.31223">
        <ele>80.8</ele>
        <time>2023-02-01T14:50:36Z</time>
      </trkpt>
      <trkpt lat="49.78453" lon="2.31222">
        <ele>80.9</ele>
        <time>2023-02-01T14:50:37Z</time>
      </trkpt>
      <trkpt lat="49.78454" lon="2.31221">
        <ele>81</ele>
        <time>2023-02-01T14:50:38Z</time>
      </trkpt>
      <trkpt lat="49.78454" lon="2.31219">
        <ele>81.1</ele>
        <time>2023-02-01T14:50:39Z</time>
      </trkpt>
      <trkpt lat="49.78455" lon="2.31217">
        <ele>81.2</ele>
        <time>2023-02-01T14:50:41Z</time>
      </trkpt>
      <trkpt lat="49.78455" lon="2.31216">
        <ele>81.3</ele>
        <time>2023-02-01T14:50:42Z</time>
      </trkpt>
      <trkpt lat="49.78456" lon="2.31215">
        <ele>81.4</ele>
        <time>2023-02-01T14:50:43Z</time>
      </trkpt>
      <trkpt lat="49.78457" lon="2.31213">
        <ele>81.5</ele>
        <time>2023-02-01T14:50:45Z</time>
      </trkpt>
      <trkpt lat="49.78457" lon="2.31211">
        <ele>81.6</ele>
        <time>2023-02-01T14:50:46Z</time>
      </trkpt>
      <trkpt lat="49.78458" lon="2.3121">
        <ele>81.7</ele>
        <time>2023-02-01T14:50:47Z</time>
      </trkpt>
      <trkpt lat="49.78459" lon="2.31208">
        <ele>81.8</ele>
        <time>2023-02-01T14:50:49Z</time>
      </trkpt>
      <trkpt lat="49.78459" lon="2.31207">
        <ele>81.9</ele>
        <time>2023-02-01T14:50:50Z</time>
      </trkpt>
      <trkpt lat="49.7846" lon="2.31205">
        <ele>82.1</ele>
        <time>2023-02-01T14:50:51Z</time>
      </trkpt>
      <trkpt lat="49.7846" lon="2.31204">
        <ele>82.1</ele>
        <time>2023-02-01T14:50:52Z</time>
      </trkpt>
      <trkpt lat="49.78461" lon="2.31203">
        <ele>82.2</ele>
        <time>2023-02-01T14:50:53Z</time>
      </trkpt>
      <trkpt lat="49.78461" lon="2.31202">
        <ele>82.3</ele>
        <time>2023-02-01T14:50:55Z</time>
      </trkpt>
      <trkpt lat="49.78461" lon="2.31201">
        <ele>82.4</ele>
        <time>2023-02-01T14:50:56Z</time>
      </trkpt>
      <trkpt lat="49.78461" lon="2.31199">
        <ele>82.4</ele>
        <time>2023-02-01T14:50:57Z</time>
      </trkpt>
      <trkpt lat="49.78462" lon="2.31198">
        <ele>82.5</ele>
        <time>2023-02-01T14:50:58Z</time>
      </trkpt>
      <trkpt lat="49.78462" lon="2.31197">
        <ele>82.6</ele>
        <time>2023-02-01T14:50:59Z</time>
      </trkpt>
      <trkpt lat="49.78462" lon="2.31196">
        <ele>82.7</ele>
        <time>2023-02-01T14:51:00Z</time>
      </trkpt>
      <trkpt lat="49.78463" lon="2.31195">
        <ele>82.8</ele>
        <time>2023-02-01T14:51:01Z</time>
      </trkpt>
      <trkpt lat="49.78463" lon="2.31193">
        <ele>82.9</ele>
        <time>2023-02-01T14:51:03Z</time>
      </trkpt>
      <trkpt lat="49.78464" lon="2.31192">
        <ele>82.9</ele>
        <time>2023-02-01T14:51:04Z</time>
      </trkpt>
      <trkpt lat="49.78464" lon="2.31191">
        <ele>83</ele>
        <time>2023-02-01T14:51:05Z</time>
      </trkpt>
      <trkpt lat="49.78465" lon="2.3119">
        <ele>83.1</ele>
        <time>2023-02-01T14:51:06Z</time>
      </trkpt>
      <trkpt lat="49.78466" lon="2.31188">
        <ele>83.3</ele>
        <time>2023-02-01T14:51:08Z</time>
      </trkpt>
      <trkpt lat="49.78466" lon="2.31187">
        <ele>83.4</ele>
        <time>2023-02-01T14:51:09Z</time>
      </trkpt>
      <trkpt lat="49.78467" lon="2.31186">
        <ele>83.4</ele>
        <time>2023-02-01T14:51:10Z</time>
      </trkpt>
      <trkpt lat="49.78467" lon="2.31185">
        <ele>83.5</ele>
        <time>2023-02-01T14:51:11Z</time>
      </trkpt>
      <trkpt lat="49.78468" lon="2.31183">
        <ele>83.6</ele>
        <time>2023-02-01T14:51:12Z</time>
      </trkpt>
      <trkpt lat="49.78469" lon="2.31183">
        <ele>83.7</ele>
        <time>2023-02-01T14:51:14Z</time>
      </trkpt>
      <trkpt lat="49.7847" lon="2.31183">
        <ele>83.8</ele>
        <time>2023-02-01T14:51:15Z</time>
      </trkpt>
      <trkpt lat="49.7847" lon="2.31183">
        <ele>83.9</ele>
        <time>2023-02-01T14:51:16Z</time>
      </trkpt>
      <trkpt lat="49.78471" lon="2.31182">
        <ele>83.9</ele>
        <time>2023-02-01T14:51:17Z</time>
      </trkpt>
      <trkpt lat="49.78471" lon="2.31181">
        <ele>84</ele>
        <time>2023-02-01T14:51:18Z</time>
      </trkpt>
      <trkpt lat="49.78472" lon="2.31181">
        <ele>84.1</ele>
        <time>2023-02-01T14:51:19Z</time>
      </trkpt>
      <trkpt lat="49.78473" lon="2.3118">
        <ele>84.2</ele>
        <time>2023-02-01T14:51:20Z</time>
      </trkpt>
      <trkpt lat="49.78474" lon="2.31178">
        <ele>84.3</ele>
        <time>2023-02-01T14:51:22Z</time>
      </trkpt>
      <trkpt lat="49.78474" lon="2.31177">
        <ele>84.4</ele>
        <time>2023-02-01T14:51:23Z</time>
      </trkpt>
      <trkpt lat="49.78475" lon="2.31175">
        <ele>84.5</ele>
        <time>2023-02-01T14:51:25Z</time>
      </trkpt>
      <trkpt lat="49.78475" lon="2.31174">
        <ele>84.6</ele>
        <time>2023-02-01T14:51:27Z</time>
      </trkpt>
      <trkpt lat="49.78476" lon="2.31173">
        <ele>84.7</ele>
        <time>2023-02-01T14:51:28Z</time>
      </trkpt>
      <trkpt lat="49.78476" lon="2.31172">
        <ele>84.7</ele>
        <time>2023-02-01T14:51:29Z</time>
      </trkpt>
      <trkpt lat="49.78477" lon="2.31171">
        <ele>84.8</ele>
        <time>2023-02-01T14:51:30Z</time>
      </trkpt>
      <trkpt lat="49.78477" lon="2.3117">
        <ele>84.9</ele>
        <time>2023-02-01T14:51:31Z</time>
      </trkpt>
      <trkpt lat="49.78478" lon="2.31169">
        <ele>85</ele>
        <time>2023-02-01T14:51:33Z</time>
      </trkpt>
      <trkpt lat="49.78479" lon="2.31167">
        <ele>85.1</ele>
        <time>2023-02-01T14:51:35Z</time>
      </trkpt>
      <trkpt lat="49.78479" lon="2.31166">
        <ele>85.2</ele>
        <time>2023-02-01T14:51:36Z</time>
      </trkpt>
      <trkpt lat="49.78479" lon="2.31165">
        <ele>85.3</ele>
        <time>2023-02-01T14:51:37Z</time>
      </trkpt>
      <trkpt lat="49.78479" lon="2.31164">
        <ele>85.4</ele>
        <time>2023-02-01T14:51:38Z</time>
      </trkpt>
      <trkpt lat="49.78479" lon="2.31162">
        <ele>85.5</ele>
        <time>2023-02-01T14:51:39Z</time>
      </trkpt>
      <trkpt lat="49.7848" lon="2.31161">
        <ele>85.6</ele>
        <time>2023-02-01T14:51:40Z</time>
      </trkpt>
      <trkpt lat="49.7848" lon="2.3116">
        <ele>85.6</ele>
        <time>2023-02-01T14:51:41Z</time>
      </trkpt>
      <trkpt lat="49.7848" lon="2.31158">
        <ele>85.7</ele>
        <time>2023-02-01T14:51:43Z</time>
      </trkpt>
      <trkpt lat="49.7848" lon="2.31156">
        <ele>85.8</ele>
        <time>2023-02-01T14:51:44Z</time>
      </trkpt>
      <trkpt lat="49.78481" lon="2.31155">
        <ele>85.9</ele>
        <time>2023-02-01T14:51:45Z</time>
      </trkpt>
      <trkpt lat="49.78481" lon="2.31154">
        <ele>86</ele>
        <time>2023-02-01T14:51:46Z</time>
      </trkpt>
      <trkpt lat="49.78482" lon="2.31152">
        <ele>86.1</ele>
        <time>2023-02-01T14:51:47Z</time>
      </trkpt>
      <trkpt lat="49.78482" lon="2.3115">
        <ele>86.2</ele>
        <time>2023-02-01T14:51:49Z</time>
      </trkpt>
      <trkpt lat="49.78483" lon="2.31149">
        <ele>86.3</ele>
        <time>2023-02-01T14:51:50Z</time>
      </trkpt>
      <trkpt lat="49.78483" lon="2.31148">
        <ele>86.4</ele>
        <time>2023-02-01T14:51:51Z</time>
      </trkpt>
      <trkpt lat="49.78484" lon="2.31147">
        <ele>86.5</ele>
        <time>2023-02-01T14:51:52Z</time>
      </trkpt>
      <trkpt lat="49.78485" lon="2.31146">
        <ele>86.5</ele>
        <time>2023-02-01T14:51:53Z</time>
      </trkpt>
      <trkpt lat="49.78485" lon="2.31145">
        <ele>86.6</ele>
        <time>2023-02-01T14:51:54Z</time>
      </trkpt>
      <trkpt lat="49.78486" lon="2.31143">
        <ele>86.7</ele>
        <time>2023-02-01T14:51:56Z</time>
      </trkpt>
      <trkpt lat="49.78486" lon="2.31143">
        <ele>86.8</ele>
        <time>2023-02-01T14:51:57Z</time>
      </trkpt>
      <trkpt lat="49.78487" lon="2.31142">
        <ele>86.8</ele>
        <time>2023-02-01T14:51:58Z</time>
      </trkpt>
      <trkpt lat="49.78487" lon="2.31141">
        <ele>86.9</ele>
        <time>2023-02-01T14:51:59Z</time>
      </trkpt>
      <trkpt lat="49.78488" lon="2.3114">
        <ele>86.9</ele>
        <time>2023-02-01T14:52:00Z</time>
      </trkpt>
      <trkpt lat="49.78488" lon="2.31139">
        <ele>87</ele>
        <time>2023-02-01T14:52:01Z</time>
      </trkpt>
      <trkpt lat="49.78489" lon="2.31138">
        <ele>87.1</ele>
        <time>2023-02-01T14:52:02Z</time>
      </trkpt>
      <trkpt lat="49.78489" lon="2.31136">
        <ele>87.2</ele>
        <time>2023-02-01T14:52:04Z</time>
      </trkpt>
      <trkpt lat="49.7849" lon="2.31136">
        <ele>87.3</ele>
        <time>2023-02-01T14:52:05Z</time>
      </trkpt>
      <trkpt lat="49.78491" lon="2.31136">
        <ele>87.3</ele>
        <time>2023-02-01T14:52:06Z</time>
      </trkpt>
      <trkpt lat="49.78492" lon="2.31134">
        <ele>87.4</ele>
        <time>2023-02-01T14:52:07Z</time>
      </trkpt>
      <trkpt lat="49.78492" lon="2.31133">
        <ele>87.5</ele>
        <time>2023-02-01T14:52:09Z</time>
      </trkpt>
      <trkpt lat="49.78492" lon="2.31132">
        <ele>87.5</ele>
        <time>2023-02-01T14:52:10Z</time>
      </trkpt>
      <trkpt lat="49.78492" lon="2.31131">
        <ele>87.6</ele>
        <time>2023-02-01T14:52:11Z</time>
      </trkpt>
      <trkpt lat="49.78493" lon="2.3113">
        <ele>87.7</ele>
        <time>2023-02-01T14:52:12Z</time>
      </trkpt>
      <trkpt lat="49.78493" lon="2.31128">
        <ele>87.7</ele>
        <time>2023-02-01T14:52:13Z</time>
      </trkpt>
      <trkpt lat="49.78493" lon="2.31128">
        <ele>87.8</ele>
        <time>2023-02-01T14:52:14Z</time>
      </trkpt>
      <trkpt lat="49.78493" lon="2.31127">
        <ele>87.8</ele>
        <time>2023-02-01T14:52:15Z</time>
      </trkpt>
      <trkpt lat="49.78494" lon="2.31124">
        <ele>88</ele>
        <time>2023-02-01T14:52:17Z</time>
      </trkpt>
      <trkpt lat="49.78494" lon="2.31123">
        <ele>88</ele>
        <time>2023-02-01T14:52:18Z</time>
      </trkpt>
      <trkpt lat="49.78495" lon="2.31122">
        <ele>88.1</ele>
        <time>2023-02-01T14:52:19Z</time>
      </trkpt>
      <trkpt lat="49.78496" lon="2.3112">
        <ele>88.2</ele>
        <time>2023-02-01T14:52:21Z</time>
      </trkpt>
      <trkpt lat="49.78496" lon="2.31119">
        <ele>88.3</ele>
        <time>2023-02-01T14:52:22Z</time>
      </trkpt>
      <trkpt lat="49.78497" lon="2.31118">
        <ele>88.4</ele>
        <time>2023-02-01T14:52:23Z</time>
      </trkpt>
      <trkpt lat="49.78498" lon="2.31116">
        <ele>88.5</ele>
        <time>2023-02-01T14:52:25Z</time>
      </trkpt>
      <trkpt lat="49.78499" lon="2.31115">
        <ele>88.6</ele>
        <time>2023-02-01T14:52:26Z</time>
      </trkpt>
      <trkpt lat="49.785" lon="2.31113">
        <ele>88.7</ele>
        <time>2023-02-01T14:52:27Z</time>
      </trkpt>
      <trkpt lat="49.78501" lon="2.31111">
        <ele>88.9</ele>
        <time>2023-02-01T14:52:29Z</time>
      </trkpt>
      <trkpt lat="49.78502" lon="2.3111">
        <ele>89</ele>
        <time>2023-02-01T14:52:31Z</time>
      </trkpt>
      <trkpt lat="49.78503" lon="2.31109">
        <ele>89.1</ele>
        <time>2023-02-01T14:52:32Z</time>
      </trkpt>
      <trkpt lat="49.78503" lon="2.31108">
        <ele>89.2</ele>
        <time>2023-02-01T14:52:33Z</time>
      </trkpt>
      <trkpt lat="49.78505" lon="2.31106">
        <ele>89.3</ele>
        <time>2023-02-01T14:52:35Z</time>
      </trkpt>
      <trkpt lat="49.78506" lon="2.31105">
        <ele>89.5</ele>
        <time>2023-02-01T14:52:36Z</time>
      </trkpt>
      <trkpt lat="49.78506" lon="2.31103">
        <ele>89.5</ele>
        <time>2023-02-01T14:52:38Z</time>
      </trkpt>
      <trkpt lat="49.78507" lon="2.31102">
        <ele>89.6</ele>
        <time>2023-02-01T14:52:39Z</time>
      </trkpt>
      <trkpt lat="49.78508" lon="2.31101">
        <ele>89.7</ele>
        <time>2023-02-01T14:52:40Z</time>
      </trkpt>
      <trkpt lat="49.78509" lon="2.31099">
        <ele>89.8</ele>
        <time>2023-02-01T14:52:41Z</time>
      </trkpt>
      <trkpt lat="49.78509" lon="2.31098">
        <ele>89.9</ele>
        <time>2023-02-01T14:52:43Z</time>
      </trkpt>
      <trkpt lat="49.7851" lon="2.31096">
        <ele>90</ele>
        <time>2023-02-01T14:52:44Z</time>
      </trkpt>
      <trkpt lat="49.7851" lon="2.31095">
        <ele>90</ele>
        <time>2023-02-01T14:52:45Z</time>
      </trkpt>
      <trkpt lat="49.78511" lon="2.31094">
        <ele>90.1</ele>
        <time>2023-02-01T14:52:46Z</time>
      </trkpt>
      <trkpt lat="49.78512" lon="2.31093">
        <ele>90.2</ele>
        <time>2023-02-01T14:52:47Z</time>
      </trkpt>
      <trkpt lat="49.78513" lon="2.31092">
        <ele>90.2</ele>
        <time>2023-02-01T14:52:48Z</time>
      </trkpt>
      <trkpt lat="49.78513" lon="2.31091">
        <ele>90.3</ele>
        <time>2023-02-01T14:52:49Z</time>
      </trkpt>
      <trkpt lat="49.78513" lon="2.3109">
        <ele>90.3</ele>
        <time>2023-02-01T14:52:50Z</time>
      </trkpt>
      <trkpt lat="49.78514" lon="2.31089">
        <ele>90.4</ele>
        <time>2023-02-01T14:52:52Z</time>
      </trkpt>
      <trkpt lat="49.78515" lon="2.31087">
        <ele>90.5</ele>
        <time>2023-02-01T14:52:53Z</time>
      </trkpt>
      <trkpt lat="49.78515" lon="2.31086">
        <ele>90.5</ele>
        <time>2023-02-01T14:52:54Z</time>
      </trkpt>
      <trkpt lat="49.78516" lon="2.31084">
        <ele>90.6</ele>
        <time>2023-02-01T14:52:55Z</time>
      </trkpt>
      <trkpt lat="49.78516" lon="2.31083">
        <ele>90.6</ele>
        <time>2023-02-01T14:52:56Z</time>
      </trkpt>
      <trkpt lat="49.78517" lon="2.31082">
        <ele>90.7</ele>
        <time>2023-02-01T14:52:57Z</time>
      </trkpt>
      <trkpt lat="49.78518" lon="2.3108">
        <ele>90.8</ele>
        <time>2023-02-01T14:52:59Z</time>
      </trkpt>
      <trkpt lat="49.78519" lon="2.31078">
        <ele>90.9</ele>
        <time>2023-02-01T14:53:01Z</time>
      </trkpt>
      <trkpt lat="49.78519" lon="2.31077">
        <ele>90.9</ele>
        <time>2023-02-01T14:53:02Z</time>
      </trkpt>
      <trkpt lat="49.7852" lon="2.31076">
        <ele>91</ele>
        <time>2023-02-01T14:53:03Z</time>
      </trkpt>
      <trkpt lat="49.7852" lon="2.31074">
        <ele>91</ele>
        <time>2023-02-01T14:53:04Z</time>
      </trkpt>
      <trkpt lat="49.78521" lon="2.31073">
        <ele>91.1</ele>
        <time>2023-02-01T14:53:06Z</time>
      </trkpt>
      <trkpt lat="49.78521" lon="2.31071">
        <ele>91.2</ele>
        <time>2023-02-01T14:53:07Z</time>
      </trkpt>
      <trkpt lat="49.78521" lon="2.3107">
        <ele>91.2</ele>
        <time>2023-02-01T14:53:08Z</time>
      </trkpt>
      <trkpt lat="49.78522" lon="2.31069">
        <ele>91.3</ele>
        <time>2023-02-01T14:53:09Z</time>
      </trkpt>
      <trkpt lat="49.78522" lon="2.31067">
        <ele>91.3</ele>
        <time>2023-02-01T14:53:10Z</time>
      </trkpt>
      <trkpt lat="49.78523" lon="2.31066">
        <ele>91.4</ele>
        <time>2023-02-01T14:53:11Z</time>
      </trkpt>
      <trkpt lat="49.78523" lon="2.31065">
        <ele>91.4</ele>
        <time>2023-02-01T14:53:12Z</time>
      </trkpt>
      <trkpt lat="49.78524" lon="2.31062">
        <ele>91.6</ele>
        <time>2023-02-01T14:53:14Z</time>
      </trkpt>
      <trkpt lat="49.78524" lon="2.3106">
        <ele>91.6</ele>
        <time>2023-02-01T14:53:16Z</time>
      </trkpt>
      <trkpt lat="49.78525" lon="2.31059">
        <ele>91.7</ele>
        <time>2023-02-01T14:53:17Z</time>
      </trkpt>
      <trkpt lat="49.78525" lon="2.31058">
        <ele>91.7</ele>
        <time>2023-02-01T14:53:18Z</time>
      </trkpt>
      <trkpt lat="49.78526" lon="2.31057">
        <ele>91.8</ele>
        <time>2023-02-01T14:53:19Z</time>
      </trkpt>
      <trkpt lat="49.78526" lon="2.31056">
        <ele>91.8</ele>
        <time>2023-02-01T14:53:20Z</time>
      </trkpt>
      <trkpt lat="49.78527" lon="2.31054">
        <ele>91.9</ele>
        <time>2023-02-01T14:53:21Z</time>
      </trkpt>
      <trkpt lat="49.78528" lon="2.31053">
        <ele>92</ele>
        <time>2023-02-01T14:53:23Z</time>
      </trkpt>
      <trkpt lat="49.78529" lon="2.31052">
        <ele>92</ele>
        <time>2023-02-01T14:53:24Z</time>
      </trkpt>
      <trkpt lat="49.78529" lon="2.31051">
        <ele>92.1</ele>
        <time>2023-02-01T14:53:25Z</time>
      </trkpt>
      <trkpt lat="49.78531" lon="2.31049">
        <ele>92.2</ele>
        <time>2023-02-01T14:53:27Z</time>
      </trkpt>
      <trkpt lat="49.78531" lon="2.31047">
        <ele>92.3</ele>
        <time>2023-02-01T14:53:28Z</time>
      </trkpt>
      <trkpt lat="49.78532" lon="2.31046">
        <ele>92.3</ele>
        <time>2023-02-01T14:53:30Z</time>
      </trkpt>
      <trkpt lat="49.78533" lon="2.31045">
        <ele>92.4</ele>
        <time>2023-02-01T14:53:31Z</time>
      </trkpt>
      <trkpt lat="49.78533" lon="2.31044">
        <ele>92.4</ele>
        <time>2023-02-01T14:53:32Z</time>
      </trkpt>
      <trkpt lat="49.78534" lon="2.31043">
        <ele>92.5</ele>
        <time>2023-02-01T14:53:33Z</time>
      </trkpt>
      <trkpt lat="49.78535" lon="2.31042">
        <ele>92.6</ele>
        <time>2023-02-01T14:53:34Z</time>
      </trkpt>
      <trkpt lat="49.78536" lon="2.31041">
        <ele>92.6</ele>
        <time>2023-02-01T14:53:36Z</time>
      </trkpt>
      <trkpt lat="49.78536" lon="2.31039">
        <ele>92.7</ele>
        <time>2023-02-01T14:53:37Z</time>
      </trkpt>
      <trkpt lat="49.78537" lon="2.31038">
        <ele>92.8</ele>
        <time>2023-02-01T14:53:38Z</time>
      </trkpt>
      <trkpt lat="49.78538" lon="2.31037">
        <ele>92.8</ele>
        <time>2023-02-01T14:53:39Z</time>
      </trkpt>
      <trkpt lat="49.78539" lon="2.31035">
        <ele>92.9</ele>
        <time>2023-02-01T14:53:41Z</time>
      </trkpt>
      <trkpt lat="49.7854" lon="2.31033">
        <ele>93</ele>
        <time>2023-02-01T14:53:43Z</time>
      </trkpt>
      <trkpt lat="49.7854" lon="2.31032">
        <ele>93.1</ele>
        <time>2023-02-01T14:53:44Z</time>
      </trkpt>
      <trkpt lat="49.78541" lon="2.31031">
        <ele>93.1</ele>
        <time>2023-02-01T14:53:45Z</time>
      </trkpt>
      <trkpt lat="49.78541" lon="2.31029">
        <ele>93.2</ele>
        <time>2023-02-01T14:53:46Z</time>
      </trkpt>
      <trkpt lat="49.78542" lon="2.31027">
        <ele>93.3</ele>
        <time>2023-02-01T14:53:47Z</time>
      </trkpt>
      <trkpt lat="49.78543" lon="2.31025">
        <ele>93.4</ele>
        <time>2023-02-01T14:53:49Z</time>
      </trkpt>
      <trkpt lat="49.78543" lon="2.31024">
        <ele>93.4</ele>
        <time>2023-02-01T14:53:50Z</time>
      </trkpt>
      <trkpt lat="49.78544" lon="2.31022">
        <ele>93.6</ele>
        <time>2023-02-01T14:53:51Z</time>
      </trkpt>
      <trkpt lat="49.78545" lon="2.31021">
        <ele>93.7</ele>
        <time>2023-02-01T14:53:53Z</time>
      </trkpt>
      <trkpt lat="49.78545" lon="2.31019">
        <ele>93.7</ele>
        <time>2023-02-01T14:53:54Z</time>
      </trkpt>
      <trkpt lat="49.78547" lon="2.31017">
        <ele>93.9</ele>
        <time>2023-02-01T14:53:55Z</time>
      </trkpt>
      <trkpt lat="49.78547" lon="2.31016">
        <ele>93.9</ele>
        <time>2023-02-01T14:53:57Z</time>
      </trkpt>
      <trkpt lat="49.78548" lon="2.31015">
        <ele>94</ele>
        <time>2023-02-01T14:53:58Z</time>
      </trkpt>
      <trkpt lat="49.78549" lon="2.31014">
        <ele>94.1</ele>
        <time>2023-02-01T14:53:59Z</time>
      </trkpt>
      <trkpt lat="49.78549" lon="2.31012">
        <ele>94.2</ele>
        <time>2023-02-01T14:54:01Z</time>
      </trkpt>
      <trkpt lat="49.7855" lon="2.31011">
        <ele>94.3</ele>
        <time>2023-02-01T14:54:02Z</time>
      </trkpt>
      <trkpt lat="49.78551" lon="2.3101">
        <ele>94.3</ele>
        <time>2023-02-01T14:54:03Z</time>
      </trkpt>
      <trkpt lat="49.78551" lon="2.31008">
        <ele>94.4</ele>
        <time>2023-02-01T14:54:04Z</time>
      </trkpt>
      <trkpt lat="49.78552" lon="2.31007">
        <ele>94.5</ele>
        <time>2023-02-01T14:54:05Z</time>
      </trkpt>
      <trkpt lat="49.78553" lon="2.31005">
        <ele>94.7</ele>
        <time>2023-02-01T14:54:07Z</time>
      </trkpt>
      <trkpt lat="49.78554" lon="2.31004">
        <ele>94.7</ele>
        <time>2023-02-01T14:54:09Z</time>
      </trkpt>
      <trkpt lat="49.78554" lon="2.31003">
        <ele>94.8</ele>
        <time>2023-02-01T14:54:10Z</time>
      </trkpt>
      <trkpt lat="49.78555" lon="2.31002">
        <ele>94.8</ele>
        <time>2023-02-01T14:54:11Z</time>
      </trkpt>
      <trkpt lat="49.78555" lon="2.31001">
        <ele>94.9</ele>
        <time>2023-02-01T14:54:12Z</time>
      </trkpt>
      <trkpt lat="49.78556" lon="2.31">
        <ele>95</ele>
        <time>2023-02-01T14:54:13Z</time>
      </trkpt>
      <trkpt lat="49.78557" lon="2.30999">
        <ele>95.1</ele>
        <time>2023-02-01T14:54:15Z</time>
      </trkpt>
      <trkpt lat="49.78557" lon="2.30997">
        <ele>95.1</ele>
        <time>2023-02-01T14:54:16Z</time>
      </trkpt>
      <trkpt lat="49.78558" lon="2.30997">
        <ele>95.2</ele>
        <time>2023-02-01T14:54:17Z</time>
      </trkpt>
      <trkpt lat="49.78558" lon="2.30996">
        <ele>95.2</ele>
        <time>2023-02-01T14:54:18Z</time>
      </trkpt>
      <trkpt lat="49.78559" lon="2.30995">
        <ele>95.3</ele>
        <time>2023-02-01T14:54:19Z</time>
      </trkpt>
      <trkpt lat="49.78559" lon="2.30993">
        <ele>95.4</ele>
        <time>2023-02-01T14:54:21Z</time>
      </trkpt>
      <trkpt lat="49.7856" lon="2.30992">
        <ele>95.5</ele>
        <time>2023-02-01T14:54:22Z</time>
      </trkpt>
      <trkpt lat="49.78561" lon="2.3099">
        <ele>95.6</ele>
        <time>2023-02-01T14:54:24Z</time>
      </trkpt>
      <trkpt lat="49.78561" lon="2.30988">
        <ele>95.7</ele>
        <time>2023-02-01T14:54:26Z</time>
      </trkpt>
      <trkpt lat="49.78561" lon="2.30987">
        <ele>95.8</ele>
        <time>2023-02-01T14:54:27Z</time>
      </trkpt>
      <trkpt lat="49.78561" lon="2.30986">
        <ele>95.8</ele>
        <time>2023-02-01T14:54:28Z</time>
      </trkpt>
      <trkpt lat="49.78561" lon="2.30985">
        <ele>95.9</ele>
        <time>2023-02-01T14:54:29Z</time>
      </trkpt>
      <trkpt lat="49.78562" lon="2.30984">
        <ele>95.9</ele>
        <time>2023-02-01T14:54:30Z</time>
      </trkpt>
      <trkpt lat="49.78562" lon="2.30982">
        <ele>96</ele>
        <time>2023-02-01T14:54:32Z</time>
      </trkpt>
      <trkpt lat="49.78563" lon="2.30981">
        <ele>96.1</ele>
        <time>2023-02-01T14:54:34Z</time>
      </trkpt>
      <trkpt lat="49.78563" lon="2.30979">
        <ele>96.2</ele>
        <time>2023-02-01T14:54:35Z</time>
      </trkpt>
      <trkpt lat="49.78564" lon="2.30978">
        <ele>96.3</ele>
        <time>2023-02-01T14:54:36Z</time>
      </trkpt>
      <trkpt lat="49.78564" lon="2.30976">
        <ele>96.4</ele>
        <time>2023-02-01T14:54:38Z</time>
      </trkpt>
      <trkpt lat="49.78564" lon="2.30975">
        <ele>96.5</ele>
        <time>2023-02-01T14:54:39Z</time>
      </trkpt>
      <trkpt lat="49.78564" lon="2.30973">
        <ele>96.6</ele>
        <time>2023-02-01T14:54:41Z</time>
      </trkpt>
      <trkpt lat="49.78565" lon="2.30971">
        <ele>96.7</ele>
        <time>2023-02-01T14:54:42Z</time>
      </trkpt>
      <trkpt lat="49.78565" lon="2.3097">
        <ele>96.8</ele>
        <time>2023-02-01T14:54:43Z</time>
      </trkpt>
      <trkpt lat="49.78566" lon="2.30968">
        <ele>96.9</ele>
        <time>2023-02-01T14:54:45Z</time>
      </trkpt>
      <trkpt lat="49.78566" lon="2.30967">
        <ele>97</ele>
        <time>2023-02-01T14:54:47Z</time>
      </trkpt>
      <trkpt lat="49.78567" lon="2.30966">
        <ele>97</ele>
        <time>2023-02-01T14:54:48Z</time>
      </trkpt>
      <trkpt lat="49.78567" lon="2.30965">
        <ele>97.1</ele>
        <time>2023-02-01T14:54:49Z</time>
      </trkpt>
      <trkpt lat="49.78568" lon="2.30964">
        <ele>97.2</ele>
        <time>2023-02-01T14:54:50Z</time>
      </trkpt>
      <trkpt lat="49.78569" lon="2.30962">
        <ele>97.3</ele>
        <time>2023-02-01T14:54:51Z</time>
      </trkpt>
      <trkpt lat="49.78569" lon="2.30961">
        <ele>97.4</ele>
        <time>2023-02-01T14:54:53Z</time>
      </trkpt>
      <trkpt lat="49.7857" lon="2.3096">
        <ele>97.5</ele>
        <time>2023-02-01T14:54:54Z</time>
      </trkpt>
      <trkpt lat="49.7857" lon="2.30959">
        <ele>97.5</ele>
        <time>2023-02-01T14:54:55Z</time>
      </trkpt>
      <trkpt lat="49.78571" lon="2.30958">
        <ele>97.6</ele>
        <time>2023-02-01T14:54:57Z</time>
      </trkpt>
      <trkpt lat="49.78572" lon="2.30957">
        <ele>97.7</ele>
        <time>2023-02-01T14:54:59Z</time>
      </trkpt>
      <trkpt lat="49.78572" lon="2.30957">
        <ele>97.8</ele>
        <time>2023-02-01T14:55:00Z</time>
      </trkpt>
      <trkpt lat="49.78573" lon="2.30956">
        <ele>97.9</ele>
        <time>2023-02-01T14:55:01Z</time>
      </trkpt>
      <trkpt lat="49.78574" lon="2.30955">
        <ele>97.9</ele>
        <time>2023-02-01T14:55:02Z</time>
      </trkpt>
      <trkpt lat="49.78574" lon="2.30954">
        <ele>98</ele>
        <time>2023-02-01T14:55:03Z</time>
      </trkpt>
      <trkpt lat="49.78575" lon="2.30953">
        <ele>98.1</ele>
        <time>2023-02-01T14:55:04Z</time>
      </trkpt>
      <trkpt lat="49.78576" lon="2.30952">
        <ele>98.2</ele>
        <time>2023-02-01T14:55:06Z</time>
      </trkpt>
      <trkpt lat="49.78576" lon="2.30951">
        <ele>98.3</ele>
        <time>2023-02-01T14:55:07Z</time>
      </trkpt>
      <trkpt lat="49.78577" lon="2.3095">
        <ele>98.4</ele>
        <time>2023-02-01T14:55:08Z</time>
      </trkpt>
      <trkpt lat="49.78577" lon="2.30949">
        <ele>98.5</ele>
        <time>2023-02-01T14:55:09Z</time>
      </trkpt>
      <trkpt lat="49.78578" lon="2.30948">
        <ele>98.5</ele>
        <time>2023-02-01T14:55:10Z</time>
      </trkpt>
      <trkpt lat="49.78579" lon="2.30947">
        <ele>98.6</ele>
        <time>2023-02-01T14:55:11Z</time>
      </trkpt>
      <trkpt lat="49.78579" lon="2.30945">
        <ele>98.7</ele>
        <time>2023-02-01T14:55:12Z</time>
      </trkpt>
      <trkpt lat="49.7858" lon="2.30943">
        <ele>98.9</ele>
        <time>2023-02-01T14:55:14Z</time>
      </trkpt>
      <trkpt lat="49.78581" lon="2.30942">
        <ele>99</ele>
        <time>2023-02-01T14:55:16Z</time>
      </trkpt>
      <trkpt lat="49.78582" lon="2.30941">
        <ele>99.1</ele>
        <time>2023-02-01T14:55:17Z</time>
      </trkpt>
      <trkpt lat="49.78582" lon="2.3094">
        <ele>99.2</ele>
        <time>2023-02-01T14:55:18Z</time>
      </trkpt>
      <trkpt lat="49.78583" lon="2.30938">
        <ele>99.3</ele>
        <time>2023-02-01T14:55:19Z</time>
      </trkpt>
      <trkpt lat="49.78584" lon="2.30936">
        <ele>99.4</ele>
        <time>2023-02-01T14:55:21Z</time>
      </trkpt>
      <trkpt lat="49.78584" lon="2.30934">
        <ele>99.6</ele>
        <time>2023-02-01T14:55:23Z</time>
      </trkpt>
      <trkpt lat="49.78585" lon="2.30933">
        <ele>99.6</ele>
        <time>2023-02-01T14:55:24Z</time>
      </trkpt>
      <trkpt lat="49.78585" lon="2.30932">
        <ele>99.7</ele>
        <time>2023-02-01T14:55:25Z</time>
      </trkpt>
      <trkpt lat="49.78586" lon="2.30931">
        <ele>99.8</ele>
        <time>2023-02-01T14:55:26Z</time>
      </trkpt>
      <trkpt lat="49.78587" lon="2.3093">
        <ele>99.9</ele>
        <time>2023-02-01T14:55:27Z</time>
      </trkpt>
      <trkpt lat="49.78588" lon="2.30928">
        <ele>100</ele>
        <time>2023-02-01T14:55:29Z</time>
      </trkpt>
      <trkpt lat="49.78588" lon="2.30926">
        <ele>100.1</ele>
        <time>2023-02-01T14:55:30Z</time>
      </trkpt>
      <trkpt lat="49.78589" lon="2.30925">
        <ele>100.2</ele>
        <time>2023-02-01T14:55:32Z</time>
      </trkpt>
      <trkpt lat="49.78589" lon="2.30923">
        <ele>100.3</ele>
        <time>2023-02-01T14:55:33Z</time>
      </trkpt>
      <trkpt lat="49.7859" lon="2.30922">
        <ele>100.4</ele>
        <time>2023-02-01T14:55:34Z</time>
      </trkpt>
      <trkpt lat="49.7859" lon="2.3092">
        <ele>100.4</ele>
        <time>2023-02-01T14:55:35Z</time>
      </trkpt>
      <trkpt lat="49.7859" lon="2.30919">
        <ele>100.5</ele>
        <time>2023-02-01T14:55:36Z</time>
      </trkpt>
      <trkpt lat="49.78591" lon="2.30917">
        <ele>100.6</ele>
        <time>2023-02-01T14:55:37Z</time>
      </trkpt>
      <trkpt lat="49.78591" lon="2.30916">
        <ele>100.7</ele>
        <time>2023-02-01T14:55:38Z</time>
      </trkpt>
      <trkpt lat="49.78592" lon="2.30914">
        <ele>100.8</ele>
        <time>2023-02-01T14:55:39Z</time>
      </trkpt>
      <trkpt lat="49.78592" lon="2.30913">
        <ele>100.8</ele>
        <time>2023-02-01T14:55:41Z</time>
      </trkpt>
      <trkpt lat="49.78593" lon="2.30912">
        <ele>100.9</ele>
        <time>2023-02-01T14:55:42Z</time>
      </trkpt>
      <trkpt lat="49.78593" lon="2.3091">
        <ele>101</ele>
        <time>2023-02-01T14:55:43Z</time>
      </trkpt>
      <trkpt lat="49.78594" lon="2.30908">
        <ele>101.1</ele>
        <time>2023-02-01T14:55:44Z</time>
      </trkpt>
      <trkpt lat="49.78595" lon="2.30906">
        <ele>101.2</ele>
        <time>2023-02-01T14:55:46Z</time>
      </trkpt>
      <trkpt lat="49.78595" lon="2.30905">
        <ele>101.2</ele>
        <time>2023-02-01T14:55:48Z</time>
      </trkpt>
      <trkpt lat="49.78596" lon="2.30904">
        <ele>101.3</ele>
        <time>2023-02-01T14:55:49Z</time>
      </trkpt>
      <trkpt lat="49.78596" lon="2.30903">
        <ele>101.4</ele>
        <time>2023-02-01T14:55:50Z</time>
      </trkpt>
      <trkpt lat="49.78597" lon="2.30902">
        <ele>101.4</ele>
        <time>2023-02-01T14:55:51Z</time>
      </trkpt>
      <trkpt lat="49.78597" lon="2.30901">
        <ele>101.5</ele>
        <time>2023-02-01T14:55:52Z</time>
      </trkpt>
      <trkpt lat="49.78597" lon="2.309">
        <ele>101.5</ele>
        <time>2023-02-01T14:55:53Z</time>
      </trkpt>
      <trkpt lat="49.78598" lon="2.30898">
        <ele>101.6</ele>
        <time>2023-02-01T14:55:54Z</time>
      </trkpt>
      <trkpt lat="49.78599" lon="2.30896">
        <ele>101.7</ele>
        <time>2023-02-01T14:55:56Z</time>
      </trkpt>
      <trkpt lat="49.78599" lon="2.30895">
        <ele>101.8</ele>
        <time>2023-02-01T14:55:58Z</time>
      </trkpt>
      <trkpt lat="49.786" lon="2.30894">
        <ele>101.8</ele>
        <time>2023-02-01T14:55:59Z</time>
      </trkpt>
      <trkpt lat="49.78601" lon="2.30893">
        <ele>101.9</ele>
        <time>2023-02-01T14:56:00Z</time>
      </trkpt>
      <trkpt lat="49.78602" lon="2.30893">
        <ele>101.9</ele>
        <time>2023-02-01T14:56:01Z</time>
      </trkpt>
      <trkpt lat="49.78603" lon="2.30892">
        <ele>102</ele>
        <time>2023-02-01T14:56:02Z</time>
      </trkpt>
      <trkpt lat="49.78604" lon="2.30891">
        <ele>102.1</ele>
        <time>2023-02-01T14:56:04Z</time>
      </trkpt>
      <trkpt lat="49.78604" lon="2.3089">
        <ele>102.1</ele>
        <time>2023-02-01T14:56:05Z</time>
      </trkpt>
      <trkpt lat="49.78605" lon="2.30889">
        <ele>102.2</ele>
        <time>2023-02-01T14:56:06Z</time>
      </trkpt>
      <trkpt lat="49.78606" lon="2.30888">
        <ele>102.3</ele>
        <time>2023-02-01T14:56:08Z</time>
      </trkpt>
      <trkpt lat="49.78607" lon="2.30887">
        <ele>102.3</ele>
        <time>2023-02-01T14:56:09Z</time>
      </trkpt>
      <trkpt lat="49.78608" lon="2.30886">
        <ele>102.4</ele>
        <time>2023-02-01T14:56:10Z</time>
      </trkpt>
      <trkpt lat="49.78608" lon="2.30885">
        <ele>102.4</ele>
        <time>2023-02-01T14:56:11Z</time>
      </trkpt>
      <trkpt lat="49.78609" lon="2.30884">
        <ele>102.5</ele>
        <time>2023-02-01T14:56:12Z</time>
      </trkpt>
      <trkpt lat="49.78609" lon="2.30882">
        <ele>102.5</ele>
        <time>2023-02-01T14:56:13Z</time>
      </trkpt>
      <trkpt lat="49.7861" lon="2.3088">
        <ele>102.6</ele>
        <time>2023-02-01T14:56:15Z</time>
      </trkpt>
      <trkpt lat="49.78611" lon="2.30878">
        <ele>102.7</ele>
        <time>2023-02-01T14:56:16Z</time>
      </trkpt>
      <trkpt lat="49.78611" lon="2.30876">
        <ele>102.8</ele>
        <time>2023-02-01T14:56:18Z</time>
      </trkpt>
      <trkpt lat="49.78612" lon="2.30875">
        <ele>102.9</ele>
        <time>2023-02-01T14:56:19Z</time>
      </trkpt>
      <trkpt lat="49.78612" lon="2.30873">
        <ele>102.9</ele>
        <time>2023-02-01T14:56:20Z</time>
      </trkpt>
      <trkpt lat="49.78613" lon="2.30872">
        <ele>103</ele>
        <time>2023-02-01T14:56:21Z</time>
      </trkpt>
      <trkpt lat="49.78613" lon="2.3087">
        <ele>103</ele>
        <time>2023-02-01T14:56:22Z</time>
      </trkpt>
      <trkpt lat="49.78614" lon="2.30868">
        <ele>103.1</ele>
        <time>2023-02-01T14:56:23Z</time>
      </trkpt>
      <trkpt lat="49.78614" lon="2.30867">
        <ele>103.2</ele>
        <time>2023-02-01T14:56:25Z</time>
      </trkpt>
      <trkpt lat="49.78614" lon="2.30866">
        <ele>103.2</ele>
        <time>2023-02-01T14:56:26Z</time>
      </trkpt>
      <trkpt lat="49.78615" lon="2.30864">
        <ele>103.3</ele>
        <time>2023-02-01T14:56:27Z</time>
      </trkpt>
      <trkpt lat="49.78616" lon="2.30863">
        <ele>103.3</ele>
        <time>2023-02-01T14:56:28Z</time>
      </trkpt>
      <trkpt lat="49.78616" lon="2.30862">
        <ele>103.4</ele>
        <time>2023-02-01T14:56:29Z</time>
      </trkpt>
      <trkpt lat="49.78617" lon="2.3086">
        <ele>103.4</ele>
        <time>2023-02-01T14:56:30Z</time>
      </trkpt>
      <trkpt lat="49.78618" lon="2.30859">
        <ele>103.5</ele>
        <time>2023-02-01T14:56:32Z</time>
      </trkpt>
      <trkpt lat="49.78618" lon="2.30858">
        <ele>103.5</ele>
        <time>2023-02-01T14:56:33Z</time>
      </trkpt>
      <trkpt lat="49.78619" lon="2.30856">
        <ele>103.6</ele>
        <time>2023-02-01T14:56:34Z</time>
      </trkpt>
      <trkpt lat="49.78619" lon="2.30855">
        <ele>103.6</ele>
        <time>2023-02-01T14:56:35Z</time>
      </trkpt>
      <trkpt lat="49.7862" lon="2.30854">
        <ele>103.7</ele>
        <time>2023-02-01T14:56:36Z</time>
      </trkpt>
      <trkpt lat="49.7862" lon="2.30852">
        <ele>103.7</ele>
        <time>2023-02-01T14:56:37Z</time>
      </trkpt>
      <trkpt lat="49.78621" lon="2.30851">
        <ele>103.8</ele>
        <time>2023-02-01T14:56:38Z</time>
      </trkpt>
      <trkpt lat="49.78621" lon="2.30849">
        <ele>103.8</ele>
        <time>2023-02-01T14:56:40Z</time>
      </trkpt>
      <trkpt lat="49.78621" lon="2.30848">
        <ele>103.9</ele>
        <time>2023-02-01T14:56:41Z</time>
      </trkpt>
      <trkpt lat="49.78622" lon="2.30846">
        <ele>103.9</ele>
        <time>2023-02-01T14:56:42Z</time>
      </trkpt>
      <trkpt lat="49.78622" lon="2.30845">
        <ele>104</ele>
        <time>2023-02-01T14:56:43Z</time>
      </trkpt>
      <trkpt lat="49.78623" lon="2.30844">
        <ele>104</ele>
        <time>2023-02-01T14:56:44Z</time>
      </trkpt>
      <trkpt lat="49.78624" lon="2.30842">
        <ele>104.1</ele>
        <time>2023-02-01T14:56:45Z</time>
      </trkpt>
      <trkpt lat="49.78625" lon="2.30841">
        <ele>104.1</ele>
        <time>2023-02-01T14:56:47Z</time>
      </trkpt>
      <trkpt lat="49.78625" lon="2.3084">
        <ele>104.2</ele>
        <time>2023-02-01T14:56:48Z</time>
      </trkpt>
      <trkpt lat="49.78626" lon="2.30839">
        <ele>104.2</ele>
        <time>2023-02-01T14:56:49Z</time>
      </trkpt>
      <trkpt lat="49.78627" lon="2.30837">
        <ele>104.3</ele>
        <time>2023-02-01T14:56:50Z</time>
      </trkpt>
      <trkpt lat="49.78628" lon="2.30835">
        <ele>104.4</ele>
        <time>2023-02-01T14:56:51Z</time>
      </trkpt>
      <trkpt lat="49.78629" lon="2.30834">
        <ele>104.4</ele>
        <time>2023-02-01T14:56:53Z</time>
      </trkpt>
      <trkpt lat="49.78629" lon="2.30833">
        <ele>104.4</ele>
        <time>2023-02-01T14:56:54Z</time>
      </trkpt>
      <trkpt lat="49.7863" lon="2.30831">
        <ele>104.5</ele>
        <time>2023-02-01T14:56:55Z</time>
      </trkpt>
      <trkpt lat="49.78631" lon="2.3083">
        <ele>104.5</ele>
        <time>2023-02-01T14:56:56Z</time>
      </trkpt>
      <trkpt lat="49.78632" lon="2.30828">
        <ele>104.6</ele>
        <time>2023-02-01T14:56:58Z</time>
      </trkpt>
      <trkpt lat="49.78632" lon="2.30827">
        <ele>104.7</ele>
        <time>2023-02-01T14:56:59Z</time>
      </trkpt>
      <trkpt lat="49.78633" lon="2.30825">
        <ele>104.7</ele>
        <time>2023-02-01T14:57:00Z</time>
      </trkpt>
      <trkpt lat="49.78634" lon="2.30824">
        <ele>104.8</ele>
        <time>2023-02-01T14:57:01Z</time>
      </trkpt>
      <trkpt lat="49.78634" lon="2.30822">
        <ele>104.8</ele>
        <time>2023-02-01T14:57:03Z</time>
      </trkpt>
      <trkpt lat="49.78635" lon="2.30821">
        <ele>104.8</ele>
        <time>2023-02-01T14:57:04Z</time>
      </trkpt>
      <trkpt lat="49.78636" lon="2.3082">
        <ele>104.9</ele>
        <time>2023-02-01T14:57:05Z</time>
      </trkpt>
      <trkpt lat="49.78636" lon="2.30818">
        <ele>104.9</ele>
        <time>2023-02-01T14:57:06Z</time>
      </trkpt>
      <trkpt lat="49.78637" lon="2.30817">
        <ele>105</ele>
        <time>2023-02-01T14:57:08Z</time>
      </trkpt>
      <trkpt lat="49.78638" lon="2.30816">
        <ele>105</ele>
        <time>2023-02-01T14:57:09Z</time>
      </trkpt>
      <trkpt lat="49.78638" lon="2.30815">
        <ele>105.1</ele>
        <time>2023-02-01T14:57:10Z</time>
      </trkpt>
      <trkpt lat="49.78639" lon="2.30814">
        <ele>105.1</ele>
        <time>2023-02-01T14:57:11Z</time>
      </trkpt>
      <trkpt lat="49.78639" lon="2.30812">
        <ele>105.1</ele>
        <time>2023-02-01T14:57:12Z</time>
      </trkpt>
      <trkpt lat="49.7864" lon="2.30811">
        <ele>105.2</ele>
        <time>2023-02-01T14:57:13Z</time>
      </trkpt>
      <trkpt lat="49.78641" lon="2.30809">
        <ele>105.2</ele>
        <time>2023-02-01T14:57:14Z</time>
      </trkpt>
      <trkpt lat="49.78642" lon="2.30808">
        <ele>105.3</ele>
        <time>2023-02-01T14:57:15Z</time>
      </trkpt>
      <trkpt lat="49.78643" lon="2.30806">
        <ele>105.4</ele>
        <time>2023-02-01T14:57:17Z</time>
      </trkpt>
      <trkpt lat="49.78643" lon="2.30805">
        <ele>105.4</ele>
        <time>2023-02-01T14:57:18Z</time>
      </trkpt>
      <trkpt lat="49.78644" lon="2.30803">
        <ele>105.4</ele>
        <time>2023-02-01T14:57:19Z</time>
      </trkpt>
      <trkpt lat="49.78645" lon="2.308">
        <ele>105.5</ele>
        <time>2023-02-01T14:57:20Z</time>
      </trkpt>
      <trkpt lat="49.78645" lon="2.30799">
        <ele>105.6</ele>
        <time>2023-02-01T14:57:21Z</time>
      </trkpt>
      <trkpt lat="49.78646" lon="2.30798">
        <ele>105.6</ele>
        <time>2023-02-01T14:57:22Z</time>
      </trkpt>
      <trkpt lat="49.78647" lon="2.30795">
        <ele>105.7</ele>
        <time>2023-02-01T14:57:24Z</time>
      </trkpt>
      <trkpt lat="49.78647" lon="2.30794">
        <ele>105.7</ele>
        <time>2023-02-01T14:57:25Z</time>
      </trkpt>
      <trkpt lat="49.78647" lon="2.30793">
        <ele>105.7</ele>
        <time>2023-02-01T14:57:26Z</time>
      </trkpt>
      <trkpt lat="49.78648" lon="2.3079">
        <ele>105.8</ele>
        <time>2023-02-01T14:57:27Z</time>
      </trkpt>
      <trkpt lat="49.78649" lon="2.30788">
        <ele>105.8</ele>
        <time>2023-02-01T14:57:28Z</time>
      </trkpt>
      <trkpt lat="49.78649" lon="2.30787">
        <ele>105.9</ele>
        <time>2023-02-01T14:57:29Z</time>
      </trkpt>
      <trkpt lat="49.7865" lon="2.30784">
        <ele>105.9</ele>
        <time>2023-02-01T14:57:31Z</time>
      </trkpt>
      <trkpt lat="49.7865" lon="2.30783">
        <ele>105.9</ele>
        <time>2023-02-01T14:57:32Z</time>
      </trkpt>
      <trkpt lat="49.78651" lon="2.30782">
        <ele>106</ele>
        <time>2023-02-01T14:57:33Z</time>
      </trkpt>
      <trkpt lat="49.78652" lon="2.30779">
        <ele>106</ele>
        <time>2023-02-01T14:57:34Z</time>
      </trkpt>
      <trkpt lat="49.78652" lon="2.30778">
        <ele>106.1</ele>
        <time>2023-02-01T14:57:36Z</time>
      </trkpt>
      <trkpt lat="49.78653" lon="2.30777">
        <ele>106.1</ele>
        <time>2023-02-01T14:57:37Z</time>
      </trkpt>
      <trkpt lat="49.78654" lon="2.30774">
        <ele>106.1</ele>
        <time>2023-02-01T14:57:38Z</time>
      </trkpt>
      <trkpt lat="49.78654" lon="2.30773">
        <ele>106.2</ele>
        <time>2023-02-01T14:57:39Z</time>
      </trkpt>
      <trkpt lat="49.78655" lon="2.30772">
        <ele>106.2</ele>
        <time>2023-02-01T14:57:40Z</time>
      </trkpt>
      <trkpt lat="49.78655" lon="2.30771">
        <ele>106.2</ele>
        <time>2023-02-01T14:57:42Z</time>
      </trkpt>
      <trkpt lat="49.78656" lon="2.30769">
        <ele>106.2</ele>
        <time>2023-02-01T14:57:43Z</time>
      </trkpt>
      <trkpt lat="49.78657" lon="2.30768">
        <ele>106.2</ele>
        <time>2023-02-01T14:57:44Z</time>
      </trkpt>
      <trkpt lat="49.78657" lon="2.30767">
        <ele>106.3</ele>
        <time>2023-02-01T14:57:45Z</time>
      </trkpt>
      <trkpt lat="49.78658" lon="2.30765">
        <ele>106.3</ele>
        <time>2023-02-01T14:57:46Z</time>
      </trkpt>
      <trkpt lat="49.78659" lon="2.30764">
        <ele>106.3</ele>
        <time>2023-02-01T14:57:47Z</time>
      </trkpt>
      <trkpt lat="49.78659" lon="2.30763">
        <ele>106.3</ele>
        <time>2023-02-01T14:57:48Z</time>
      </trkpt>
      <trkpt lat="49.7866" lon="2.30761">
        <ele>106.4</ele>
        <time>2023-02-01T14:57:49Z</time>
      </trkpt>
      <trkpt lat="49.7866" lon="2.3076">
        <ele>106.4</ele>
        <time>2023-02-01T14:57:51Z</time>
      </trkpt>
      <trkpt lat="49.78661" lon="2.30758">
        <ele>106.4</ele>
        <time>2023-02-01T14:57:52Z</time>
      </trkpt>
      <trkpt lat="49.78662" lon="2.30757">
        <ele>106.4</ele>
        <time>2023-02-01T14:57:53Z</time>
      </trkpt>
      <trkpt lat="49.78662" lon="2.30755">
        <ele>106.4</ele>
        <time>2023-02-01T14:57:54Z</time>
      </trkpt>
      <trkpt lat="49.78663" lon="2.30754">
        <ele>106.5</ele>
        <time>2023-02-01T14:57:55Z</time>
      </trkpt>
      <trkpt lat="49.78664" lon="2.30752">
        <ele>106.5</ele>
        <time>2023-02-01T14:57:56Z</time>
      </trkpt>
      <trkpt lat="49.78664" lon="2.30751">
        <ele>106.5</ele>
        <time>2023-02-01T14:57:58Z</time>
      </trkpt>
      <trkpt lat="49.78665" lon="2.30749">
        <ele>106.6</ele>
        <time>2023-02-01T14:57:59Z</time>
      </trkpt>
      <trkpt lat="49.78666" lon="2.30748">
        <ele>106.6</ele>
        <time>2023-02-01T14:58:00Z</time>
      </trkpt>
      <trkpt lat="49.78666" lon="2.30746">
        <ele>106.6</ele>
        <time>2023-02-01T14:58:01Z</time>
      </trkpt>
      <trkpt lat="49.78668" lon="2.30743">
        <ele>106.7</ele>
        <time>2023-02-01T14:58:02Z</time>
      </trkpt>
      <trkpt lat="49.78668" lon="2.30742">
        <ele>106.7</ele>
        <time>2023-02-01T14:58:04Z</time>
      </trkpt>
      <trkpt lat="49.78669" lon="2.30741">
        <ele>106.7</ele>
        <time>2023-02-01T14:58:05Z</time>
      </trkpt>
      <trkpt lat="49.7867" lon="2.30739">
        <ele>106.8</ele>
        <time>2023-02-01T14:58:06Z</time>
      </trkpt>
      <trkpt lat="49.78671" lon="2.30738">
        <ele>106.8</ele>
        <time>2023-02-01T14:58:07Z</time>
      </trkpt>
      <trkpt lat="49.78671" lon="2.30737">
        <ele>106.8</ele>
        <time>2023-02-01T14:58:08Z</time>
      </trkpt>
      <trkpt lat="49.78672" lon="2.30736">
        <ele>106.8</ele>
        <time>2023-02-01T14:58:09Z</time>
      </trkpt>
      <trkpt lat="49.78673" lon="2.30734">
        <ele>106.9</ele>
        <time>2023-02-01T14:58:11Z</time>
      </trkpt>
      <trkpt lat="49.78673" lon="2.30733">
        <ele>106.9</ele>
        <time>2023-02-01T14:58:12Z</time>
      </trkpt>
      <trkpt lat="49.78674" lon="2.30731">
        <ele>106.9</ele>
        <time>2023-02-01T14:58:13Z</time>
      </trkpt>
      <trkpt lat="49.78675" lon="2.3073">
        <ele>106.9</ele>
        <time>2023-02-01T14:58:14Z</time>
      </trkpt>
      <trkpt lat="49.78675" lon="2.30729">
        <ele>106.9</ele>
        <time>2023-02-01T14:58:15Z</time>
      </trkpt>
      <trkpt lat="49.78676" lon="2.30727">
        <ele>107</ele>
        <time>2023-02-01T14:58:16Z</time>
      </trkpt>
      <trkpt lat="49.78677" lon="2.30726">
        <ele>107</ele>
        <time>2023-02-01T14:58:17Z</time>
      </trkpt>
      <trkpt lat="49.78678" lon="2.30724">
        <ele>107</ele>
        <time>2023-02-01T14:58:19Z</time>
      </trkpt>
      <trkpt lat="49.78678" lon="2.30723">
        <ele>107</ele>
        <time>2023-02-01T14:58:20Z</time>
      </trkpt>
      <trkpt lat="49.78679" lon="2.30723">
        <ele>107</ele>
        <time>2023-02-01T14:58:21Z</time>
      </trkpt>
      <trkpt lat="49.7868" lon="2.30722">
        <ele>107</ele>
        <time>2023-02-01T14:58:22Z</time>
      </trkpt>
      <trkpt lat="49.78681" lon="2.3072">
        <ele>107</ele>
        <time>2023-02-01T14:58:23Z</time>
      </trkpt>
      <trkpt lat="49.78681" lon="2.30719">
        <ele>107.1</ele>
        <time>2023-02-01T14:58:24Z</time>
      </trkpt>
      <trkpt lat="49.78682" lon="2.30717">
        <ele>107.1</ele>
        <time>2023-02-01T14:58:26Z</time>
      </trkpt>
      <trkpt lat="49.78683" lon="2.30716">
        <ele>107.1</ele>
        <time>2023-02-01T14:58:27Z</time>
      </trkpt>
      <trkpt lat="49.78683" lon="2.30715">
        <ele>107.1</ele>
        <time>2023-02-01T14:58:28Z</time>
      </trkpt>
      <trkpt lat="49.78684" lon="2.30714">
        <ele>107.1</ele>
        <time>2023-02-01T14:58:29Z</time>
      </trkpt>
      <trkpt lat="49.78685" lon="2.30713">
        <ele>107.1</ele>
        <time>2023-02-01T14:58:30Z</time>
      </trkpt>
      <trkpt lat="49.78686" lon="2.30711">
        <ele>107.1</ele>
        <time>2023-02-01T14:58:31Z</time>
      </trkpt>
      <trkpt lat="49.78686" lon="2.3071">
        <ele>107.1</ele>
        <time>2023-02-01T14:58:32Z</time>
      </trkpt>
      <trkpt lat="49.78687" lon="2.30709">
        <ele>107.1</ele>
        <time>2023-02-01T14:58:33Z</time>
      </trkpt>
      <trkpt lat="49.78688" lon="2.30707">
        <ele>107.1</ele>
        <time>2023-02-01T14:58:35Z</time>
      </trkpt>
      <trkpt lat="49.78688" lon="2.30706">
        <ele>107.2</ele>
        <time>2023-02-01T14:58:36Z</time>
      </trkpt>
      <trkpt lat="49.78689" lon="2.30704">
        <ele>107.2</ele>
        <time>2023-02-01T14:58:37Z</time>
      </trkpt>
      <trkpt lat="49.78689" lon="2.30703">
        <ele>107.2</ele>
        <time>2023-02-01T14:58:38Z</time>
      </trkpt>
      <trkpt lat="49.7869" lon="2.30701">
        <ele>107.2</ele>
        <time>2023-02-01T14:58:39Z</time>
      </trkpt>
      <trkpt lat="49.7869" lon="2.30698">
        <ele>107.2</ele>
        <time>2023-02-01T14:58:40Z</time>
      </trkpt>
      <trkpt lat="49.78691" lon="2.30697">
        <ele>107.2</ele>
        <time>2023-02-01T14:58:41Z</time>
      </trkpt>
      <trkpt lat="49.78691" lon="2.30696">
        <ele>107.2</ele>
        <time>2023-02-01T14:58:42Z</time>
      </trkpt>
      <trkpt lat="49.78691" lon="2.30694">
        <ele>107.2</ele>
        <time>2023-02-01T14:58:43Z</time>
      </trkpt>
      <trkpt lat="49.78691" lon="2.30692">
        <ele>107.2</ele>
        <time>2023-02-01T14:58:45Z</time>
      </trkpt>
      <trkpt lat="49.78691" lon="2.3069">
        <ele>107.2</ele>
        <time>2023-02-01T14:58:46Z</time>
      </trkpt>
      <trkpt lat="49.78692" lon="2.30687">
        <ele>107.3</ele>
        <time>2023-02-01T14:58:47Z</time>
      </trkpt>
      <trkpt lat="49.78692" lon="2.30686">
        <ele>107.3</ele>
        <time>2023-02-01T14:58:48Z</time>
      </trkpt>
      <trkpt lat="49.78693" lon="2.30685">
        <ele>107.3</ele>
        <time>2023-02-01T14:58:49Z</time>
      </trkpt>
      <trkpt lat="49.78693" lon="2.30683">
        <ele>107.3</ele>
        <time>2023-02-01T14:58:50Z</time>
      </trkpt>
      <trkpt lat="49.78694" lon="2.30681">
        <ele>107.3</ele>
        <time>2023-02-01T14:58:51Z</time>
      </trkpt>
      <trkpt lat="49.78695" lon="2.3068">
        <ele>107.3</ele>
        <time>2023-02-01T14:58:53Z</time>
      </trkpt>
      <trkpt lat="49.78696" lon="2.30678">
        <ele>107.3</ele>
        <time>2023-02-01T14:58:54Z</time>
      </trkpt>
      <trkpt lat="49.78697" lon="2.30675">
        <ele>107.3</ele>
        <time>2023-02-01T14:58:55Z</time>
      </trkpt>
      <trkpt lat="49.78698" lon="2.30674">
        <ele>107.3</ele>
        <time>2023-02-01T14:58:56Z</time>
      </trkpt>
      <trkpt lat="49.78698" lon="2.30673">
        <ele>107.3</ele>
        <time>2023-02-01T14:58:57Z</time>
      </trkpt>
      <trkpt lat="49.78699" lon="2.30672">
        <ele>107.3</ele>
        <time>2023-02-01T14:58:59Z</time>
      </trkpt>
      <trkpt lat="49.787" lon="2.30671">
        <ele>107.3</ele>
        <time>2023-02-01T14:59:00Z</time>
      </trkpt>
      <trkpt lat="49.787" lon="2.3067">
        <ele>107.3</ele>
        <time>2023-02-01T14:59:01Z</time>
      </trkpt>
      <trkpt lat="49.78701" lon="2.30669">
        <ele>107.3</ele>
        <time>2023-02-01T14:59:02Z</time>
      </trkpt>
      <trkpt lat="49.78702" lon="2.30669">
        <ele>107.3</ele>
        <time>2023-02-01T14:59:03Z</time>
      </trkpt>
      <trkpt lat="49.78702" lon="2.30667">
        <ele>107.3</ele>
        <time>2023-02-01T14:59:04Z</time>
      </trkpt>
      <trkpt lat="49.78702" lon="2.30666">
        <ele>107.3</ele>
        <time>2023-02-01T14:59:05Z</time>
      </trkpt>
      <trkpt lat="49.78703" lon="2.30664">
        <ele>107.3</ele>
        <time>2023-02-01T14:59:07Z</time>
      </trkpt>
      <trkpt lat="49.78703" lon="2.30663">
        <ele>107.2</ele>
        <time>2023-02-01T14:59:08Z</time>
      </trkpt>
      <trkpt lat="49.78704" lon="2.30661">
        <ele>107.2</ele>
        <time>2023-02-01T14:59:09Z</time>
      </trkpt>
      <trkpt lat="49.78704" lon="2.3066">
        <ele>107.2</ele>
        <time>2023-02-01T14:59:10Z</time>
      </trkpt>
      <trkpt lat="49.78705" lon="2.30658">
        <ele>107.2</ele>
        <time>2023-02-01T14:59:12Z</time>
      </trkpt>
      <trkpt lat="49.78705" lon="2.30657">
        <ele>107.2</ele>
        <time>2023-02-01T14:59:13Z</time>
      </trkpt>
      <trkpt lat="49.78706" lon="2.30656">
        <ele>107.2</ele>
        <time>2023-02-01T14:59:14Z</time>
      </trkpt>
      <trkpt lat="49.78707" lon="2.30655">
        <ele>107.2</ele>
        <time>2023-02-01T14:59:15Z</time>
      </trkpt>
      <trkpt lat="49.78707" lon="2.30654">
        <ele>107.2</ele>
        <time>2023-02-01T14:59:16Z</time>
      </trkpt>
      <trkpt lat="49.78708" lon="2.30653">
        <ele>107.1</ele>
        <time>2023-02-01T14:59:17Z</time>
      </trkpt>
      <trkpt lat="49.78709" lon="2.30652">
        <ele>107.1</ele>
        <time>2023-02-01T14:59:18Z</time>
      </trkpt>
      <trkpt lat="49.78709" lon="2.30651">
        <ele>107.1</ele>
        <time>2023-02-01T14:59:20Z</time>
      </trkpt>
      <trkpt lat="49.7871" lon="2.3065">
        <ele>107.1</ele>
        <time>2023-02-01T14:59:21Z</time>
      </trkpt>
      <trkpt lat="49.78711" lon="2.30648">
        <ele>107</ele>
        <time>2023-02-01T14:59:22Z</time>
      </trkpt>
      <trkpt lat="49.78712" lon="2.30647">
        <ele>107</ele>
        <time>2023-02-01T14:59:23Z</time>
      </trkpt>
      <trkpt lat="49.78712" lon="2.30646">
        <ele>107</ele>
        <time>2023-02-01T14:59:24Z</time>
      </trkpt>
      <trkpt lat="49.78713" lon="2.30645">
        <ele>107</ele>
        <time>2023-02-01T14:59:25Z</time>
      </trkpt>
      <trkpt lat="49.78714" lon="2.30644">
        <ele>107</ele>
        <time>2023-02-01T14:59:26Z</time>
      </trkpt>
      <trkpt lat="49.78714" lon="2.30644">
        <ele>107</ele>
        <time>2023-02-01T14:59:28Z</time>
      </trkpt>
      <trkpt lat="49.78716" lon="2.30642">
        <ele>106.9</ele>
        <time>2023-02-01T14:59:29Z</time>
      </trkpt>
      <trkpt lat="49.78717" lon="2.3064">
        <ele>106.9</ele>
        <time>2023-02-01T14:59:31Z</time>
      </trkpt>
      <trkpt lat="49.78717" lon="2.3064">
        <ele>106.8</ele>
        <time>2023-02-01T14:59:32Z</time>
      </trkpt>
      <trkpt lat="49.78718" lon="2.30639">
        <ele>106.8</ele>
        <time>2023-02-01T14:59:33Z</time>
      </trkpt>
      <trkpt lat="49.78719" lon="2.30638">
        <ele>106.8</ele>
        <time>2023-02-01T14:59:35Z</time>
      </trkpt>
      <trkpt lat="49.7872" lon="2.30637">
        <ele>106.7</ele>
        <time>2023-02-01T14:59:36Z</time>
      </trkpt>
      <trkpt lat="49.78721" lon="2.30638">
        <ele>106.7</ele>
        <time>2023-02-01T14:59:38Z</time>
      </trkpt>
      <trkpt lat="49.78721" lon="2.30639">
        <ele>106.6</ele>
        <time>2023-02-01T14:59:39Z</time>
      </trkpt>
      <trkpt lat="49.7872" lon="2.30641">
        <ele>106.6</ele>
        <time>2023-02-01T14:59:40Z</time>
      </trkpt>
      <trkpt lat="49.7872" lon="2.30642">
        <ele>106.6</ele>
        <time>2023-02-01T14:59:42Z</time>
      </trkpt>
      <trkpt lat="49.7872" lon="2.30642">
        <ele>106.6</ele>
        <time>2023-02-01T14:59:43Z</time>
      </trkpt>
      <trkpt lat="49.7872" lon="2.30642">
        <ele>106.6</ele>
        <time>2023-02-01T14:59:45Z</time>
      </trkpt>
      <trkpt lat="49.7872" lon="2.30642">
        <ele>106.5</ele>
        <time>2023-02-01T14:59:46Z</time>
      </trkpt>
      <trkpt lat="49.7872" lon="2.30643">
        <ele>106.5</ele>
        <time>2023-02-01T14:59:48Z</time>
      </trkpt>
      <trkpt lat="49.7872" lon="2.30643">
        <ele>106.5</ele>
        <time>2023-02-01T14:59:49Z</time>
      </trkpt>
      <trkpt lat="49.7872" lon="2.30643">
        <ele>106.5</ele>
        <time>2023-02-01T14:59:50Z</time>
      </trkpt>
      <trkpt lat="49.7872" lon="2.30643">
        <ele>106.5</ele>
        <time>2023-02-01T14:59:52Z</time>
      </trkpt>
      <trkpt lat="49.7872" lon="2.30643">
        <ele>106.5</ele>
        <time>2023-02-01T14:59:53Z</time>
      </trkpt>
      <trkpt lat="49.7872" lon="2.30644">
        <ele>106.5</ele>
        <time>2023-02-01T14:59:55Z</time>
      </trkpt>
      <trkpt lat="49.7872" lon="2.30643">
        <ele>106.5</ele>
        <time>2023-02-01T14:59:56Z</time>
      </trkpt>
      <trkpt lat="49.7872" lon="2.30643">
        <ele>106.5</ele>
        <time>2023-02-01T14:59:57Z</time>
      </trkpt>
      <trkpt lat="49.7872" lon="2.30643">
        <ele>106.5</ele>
        <time>2023-02-01T14:59:58Z</time>
      </trkpt>
      <trkpt lat="49.7872" lon="2.30643">
        <ele>106.5</ele>
        <time>2023-02-01T14:59:59Z</time>
      </trkpt>
      <trkpt lat="49.7872" lon="2.30642">
        <ele>106.5</ele>
        <time>2023-02-01T15:00:00Z</time>
      </trkpt>
      <trkpt lat="49.7872" lon="2.30642">
        <ele>106.5</ele>
        <time>2023-02-01T15:00:01Z</time>
      </trkpt>
      <trkpt lat="49.7872" lon="2.30642">
        <ele>106.5</ele>
        <time>2023-02-01T15:00:02Z</time>
      </trkpt>
      <trkpt lat="49.7872" lon="2.30642">
        <ele>106.5</ele>
        <time>2023-02-01T15:00:03Z</time>
      </trkpt>
      <trkpt lat="49.7872" lon="2.30642">
        <ele>106.5</ele>
        <time>2023-02-01T15:00:04Z</time>
      </trkpt>
      <trkpt lat="49.7872" lon="2.30643">
        <ele>106.5</ele>
        <time>2023-02-01T15:00:05Z</time>
      </trkpt>
      <trkpt lat="49.7872" lon="2.30643">
        <ele>106.5</ele>
        <time>2023-02-01T15:00:06Z</time>
      </trkpt>
      <trkpt lat="49.7872" lon="2.30643">
        <ele>106.5</ele>
        <time>2023-02-01T15:00:07Z</time>
      </trkpt>
      <trkpt lat="49.7872" lon="2.30643">
        <ele>106.5</ele>
        <time>2023-02-01T15:00:08Z</time>
      </trkpt>
      <trkpt lat="49.7872" lon="2.30643">
        <ele>106.5</ele>
        <time>2023-02-01T15:00:09Z</time>
      </trkpt>
      <trkpt lat="49.7872" lon="2.30643">
        <ele>106.5</ele>
        <time>2023-02-01T15:00:10Z</time>
      </trkpt>
      <trkpt lat="49.7872" lon="2.30643">
        <ele>106.5</ele>
        <time>2023-02-01T15:00:11Z</time>
      </trkpt>
      <trkpt lat="49.7872" lon="2.30643">
        <ele>106.5</ele>
        <time>2023-02-01T15:00:12Z</time>
      </trkpt>
      <trkpt lat="49.7872" lon="2.30643">
        <ele>106.5</ele>
        <time>2023-02-01T15:00:13Z</time>
      </trkpt>
      <trkpt lat="49.7872" lon="2.30643">
        <ele>106.5</ele>
        <time>2023-02-01T15:00:14Z</time>
      </trkpt>
      <trkpt lat="49.7872" lon="2.30643">
        <ele>106.5</ele>
        <time>2023-02-01T15:00:15Z</time>
      </trkpt>
      <trkpt lat="49.7872" lon="2.30643">
        <ele>106.5</ele>
        <time>2023-02-01T15:00:16Z</time>
      </trkpt>
      <trkpt lat="49.7872" lon="2.30643">
        <ele>106.5</ele>
        <time>2023-02-01T15:00:17Z</time>
      </trkpt>
      <trkpt lat="49.7872" lon="2.30643">
        <ele>106.5</ele>
        <time>2023-02-01T15:00:18Z</time>
      </trkpt>
      <trkpt lat="49.7872" lon="2.30643">
        <ele>106.5</ele>
        <time>2023-02-01T15:00:19Z</time>
      </trkpt>
      <trkpt lat="49.7872" lon="2.30643">
        <ele>106.5</ele>
        <time>2023-02-01T15:00:20Z</time>
      </trkpt>
      <trkpt lat="49.7872" lon="2.30643">
        <ele>106.5</ele>
        <time>2023-02-01T15:00:21Z</time>
      </trkpt>
      <trkpt lat="49.7872" lon="2.30643">
        <ele>106.5</ele>
        <time>2023-02-01T15:00:22Z</time>
      </trkpt>
      <trkpt lat="49.7872" lon="2.30643">
        <ele>106.5</ele>
        <time>2023-02-01T15:00:23Z</time>
      </trkpt>
      <trkpt lat="49.7872" lon="2.30643">
        <ele>106.5</ele>
        <time>2023-02-01T15:00:24Z</time>
      </trkpt>
      <trkpt lat="49.7872" lon="2.30643">
        <ele>106.5</ele>
        <time>2023-02-01T15:00:25Z</time>
      </trkpt>
      <trkpt lat="49.7872" lon="2.30643">
        <ele>106.5</ele>
        <time>2023-02-01T15:00:26Z</time>
      </trkpt>
      <trkpt lat="49.7872" lon="2.30643">
        <ele>106.5</ele>
        <time>2023-02-01T15:00:27Z</time>
      </trkpt>
      <trkpt lat="49.7872" lon="2.30643">
        <ele>106.5</ele>
        <time>2023-02-01T15:00:28Z</time>
      </trkpt>
      <trkpt lat="49.7872" lon="2.30643">
        <ele>106.5</ele>
        <time>2023-02-01T15:00:29Z</time>
      </trkpt>
      <trkpt lat="49.7872" lon="2.30643">
        <ele>106.5</ele>
        <time>2023-02-01T15:00:30Z</time>
      </trkpt>
      <trkpt lat="49.7872" lon="2.30643">
        <ele>106.5</ele>
        <time>2023-02-01T15:00:31Z</time>
      </trkpt>
      <trkpt lat="49.7872" lon="2.30643">
        <ele>106.5</ele>
        <time>2023-02-01T15:00:32Z</time>
      </trkpt>
      <trkpt lat="49.7872" lon="2.30643">
        <ele>106.5</ele>
        <time>2023-02-01T15:00:33Z</time>
      </trkpt>
      <trkpt lat="49.7872" lon="2.30643">
        <ele>106.5</ele>
        <time>2023-02-01T15:00:34Z</time>
      </trkpt>
      <trkpt lat="49.7872" lon="2.30643">
        <ele>106.5</ele>
        <time>2023-02-01T15:00:35Z</time>
      </trkpt>
      <trkpt lat="49.7872" lon="2.30643">
        <ele>106.5</ele>
        <time>2023-02-01T15:00:36Z</time>
      </trkpt>
      <trkpt lat="49.7872" lon="2.30643">
        <ele>106.5</ele>
        <time>2023-02-01T15:00:37Z</time>
      </trkpt>
      <trkpt lat="49.7872" lon="2.30643">
        <ele>106.5</ele>
        <time>2023-02-01T15:00:38Z</time>
      </trkpt>
      <trkpt lat="49.7872" lon="2.30643">
        <ele>106.5</ele>
        <time>2023-02-01T15:00:39Z</time>
      </trkpt>
      <trkpt lat="49.7872" lon="2.30643">
        <ele>106.5</ele>
        <time>2023-02-01T15:00:40Z</time>
      </trkpt>
      <trkpt lat="49.7872" lon="2.30643">
        <ele>106.5</ele>
        <time>2023-02-01T15:00:41Z</time>
      </trkpt>
      <trkpt lat="49.7872" lon="2.30643">
        <ele>106.5</ele>
        <time>2023-02-01T15:00:42Z</time>
      </trkpt>
      <trkpt lat="49.7872" lon="2.30643">
        <ele>106.5</ele>
        <time>2023-02-01T15:00:43Z</time>
      </trkpt>
      <trkpt lat="49.7872" lon="2.30643">
        <ele>106.5</ele>
        <time>2023-02-01T15:00:44Z</time>
      </trkpt>
      <trkpt lat="49.7872" lon="2.30643">
        <ele>106.5</ele>
        <time>2023-02-01T15:00:45Z</time>
      </trkpt>
      <trkpt lat="49.7872" lon="2.30643">
        <ele>106.5</ele>
        <time>2023-02-01T15:00:46Z</time>
      </trkpt>
      <trkpt lat="49.7872" lon="2.30643">
        <ele>106.5</ele>
        <time>2023-02-01T15:00:47Z</time>
      </trkpt>
      <trkpt lat="49.7872" lon="2.30643">
        <ele>106.5</ele>
        <time>2023-02-01T15:00:48Z</time>
      </trkpt>
      <trkpt lat="49.7872" lon="2.30643">
        <ele>106.5</ele>
        <time>2023-02-01T15:00:49Z</time>
      </trkpt>
      <trkpt lat="49.7872" lon="2.30643">
        <ele>106.5</ele>
        <time>2023-02-01T15:00:50Z</time>
      </trkpt>
      <trkpt lat="49.7872" lon="2.30643">
        <ele>106.5</ele>
        <time>2023-02-01T15:00:51Z</time>
      </trkpt>
      <trkpt lat="49.7872" lon="2.30643">
        <ele>106.5</ele>
        <time>2023-02-01T15:00:52Z</time>
      </trkpt>
      <trkpt lat="49.7872" lon="2.30643">
        <ele>106.5</ele>
        <time>2023-02-01T15:00:53Z</time>
      </trkpt>
      <trkpt lat="49.7872" lon="2.30643">
        <ele>106.5</ele>
        <time>2023-02-01T15:00:54Z</time>
      </trkpt>
      <trkpt lat="49.7872" lon="2.30643">
        <ele>106.5</ele>
        <time>2023-02-01T15:00:55Z</time>
      </trkpt>
      <trkpt lat="49.7872" lon="2.30643">
        <ele>106.5</ele>
        <time>2023-02-01T15:00:56Z</time>
      </trkpt>
      <trkpt lat="49.7872" lon="2.30643">
        <ele>106.5</ele>
        <time>2023-02-01T15:00:57Z</time>
      </trkpt>
      <trkpt lat="49.7872" lon="2.30643">
        <ele>106.5</ele>
        <time>2023-02-01T15:00:58Z</time>
      </trkpt>
      <trkpt lat="49.7872" lon="2.30643">
        <ele>106.5</ele>
        <time>2023-02-01T15:00:59Z</time>
      </trkpt>
      <trkpt lat="49.7872" lon="2.30643">
        <ele>106.5</ele>
        <time>2023-02-01T15:01:00Z</time>
      </trkpt>
      <trkpt lat="49.7872" lon="2.30643">
        <ele>106.5</ele>
        <time>2023-02-01T15:01:01Z</time>
      </trkpt>
      <trkpt lat="49.7872" lon="2.30643">
        <ele>106.5</ele>
        <time>2023-02-01T15:01:02Z</time>
      </trkpt>
      <trkpt lat="49.7872" lon="2.30643">
        <ele>106.5</ele>
        <time>2023-02-01T15:01:03Z</time>
      </trkpt>
      <trkpt lat="49.7872" lon="2.30643">
        <ele>106.5</ele>
        <time>2023-02-01T15:01:04Z</time>
      </trkpt>
      <trkpt lat="49.7872" lon="2.30643">
        <ele>106.5</ele>
        <time>2023-02-01T15:01:05Z</time>
      </trkpt>
      <trkpt lat="49.7872" lon="2.30643">
        <ele>106.5</ele>
        <time>2023-02-01T15:01:06Z</time>
      </trkpt>
      <trkpt lat="49.7872" lon="2.30643">
        <ele>106.5</ele>
        <time>2023-02-01T15:01:07Z</time>
      </trkpt>
      <trkpt lat="49.7872" lon="2.30643">
        <ele>106.5</ele>
        <time>2023-02-01T15:01:08Z</time>
      </trkpt>
      <trkpt lat="49.7872" lon="2.30643">
        <ele>106.5</ele>
        <time>2023-02-01T15:01:09Z</time>
      </trkpt>
      <trkpt lat="49.7872" lon="2.30643">
        <ele>106.5</ele>
        <time>2023-02-01T15:01:10Z</time>
      </trkpt>
      <trkpt lat="49.7872" lon="2.30643">
        <ele>106.5</ele>
        <time>2023-02-01T15:01:11Z</time>
      </trkpt>
      <trkpt lat="49.7872" lon="2.30643">
        <ele>106.5</ele>
        <time>2023-02-01T15:01:12Z</time>
      </trkpt>
      <trkpt lat="49.7872" lon="2.30643">
        <ele>106.5</ele>
        <time>2023-02-01T15:01:13Z</time>
      </trkpt>
      <trkpt lat="49.7872" lon="2.30643">
        <ele>106.5</ele>
        <time>2023-02-01T15:01:14Z</time>
      </trkpt>
      <trkpt lat="49.7872" lon="2.30643">
        <ele>106.5</ele>
        <time>2023-02-01T15:01:15Z</time>
      </trkpt>
      <trkpt lat="49.7872" lon="2.30643">
        <ele>106.5</ele>
        <time>2023-02-01T15:01:16Z</time>
      </trkpt>
      <trkpt lat="49.7872" lon="2.30643">
        <ele>106.5</ele>
        <time>2023-02-01T15:01:17Z</time>
      </trkpt>
      <trkpt lat="49.7872" lon="2.30643">
        <ele>106.5</ele>
        <time>2023-02-01T15:01:18Z</time>
      </trkpt>
      <trkpt lat="49.7872" lon="2.30643">
        <ele>106.5</ele>
        <time>2023-02-01T15:01:19Z</time>
      </trkpt>
      <trkpt lat="49.7872" lon="2.30643">
        <ele>106.5</ele>
        <time>2023-02-01T15:01:20Z</time>
      </trkpt>
      <trkpt lat="49.7872" lon="2.30643">
        <ele>106.5</ele>
        <time>2023-02-01T15:01:21Z</time>
      </trkpt>
      <trkpt lat="49.7872" lon="2.30643">
        <ele>106.5</ele>
        <time>2023-02-01T15:01:22Z</time>
      </trkpt>
      <trkpt lat="49.7872" lon="2.30643">
        <ele>106.5</ele>
        <time>2023-02-01T15:01:23Z</time>
      </trkpt>
      <trkpt lat="49.7872" lon="2.30643">
        <ele>106.5</ele>
        <time>2023-02-01T15:01:24Z</time>
      </trkpt>
      <trkpt lat="49.7872" lon="2.30643">
        <ele>106.5</ele>
        <time>2023-02-01T15:01:25Z</time>
      </trkpt>
      <trkpt lat="49.7872" lon="2.30643">
        <ele>106.5</ele>
        <time>2023-02-01T15:01:26Z</time>
      </trkpt>
      <trkpt lat="49.7872" lon="2.30643">
        <ele>106.5</ele>
        <time>2023-02-01T15:01:27Z</time>
      </trkpt>
      <trkpt lat="49.7872" lon="2.30643">
        <ele>106.5</ele>
        <time>2023-02-01T15:01:28Z</time>
      </trkpt>
      <trkpt lat="49.7872" lon="2.30643">
        <ele>106.5</ele>
        <time>2023-02-01T15:01:29Z</time>
      </trkpt>
      <trkpt lat="49.7872" lon="2.30643">
        <ele>106.5</ele>
        <time>2023-02-01T15:01:30Z</time>
      </trkpt>
      <trkpt lat="49.7872" lon="2.30643">
        <ele>106.5</ele>
        <time>2023-02-01T15:01:31Z</time>
      </trkpt>
      <trkpt lat="49.7872" lon="2.30643">
        <ele>106.5</ele>
        <time>2023-02-01T15:01:32Z</time>
      </trkpt>
      <trkpt lat="49.7872" lon="2.30643">
        <ele>106.5</ele>
        <time>2023-02-01T15:01:33Z</time>
      </trkpt>
      <trkpt lat="49.7872" lon="2.30643">
        <ele>106.5</ele>
        <time>2023-02-01T15:01:34Z</time>
      </trkpt>
      <trkpt lat="49.7872" lon="2.30643">
        <ele>106.5</ele>
        <time>2023-02-01T15:01:35Z</time>
      </trkpt>
      <trkpt lat="49.7872" lon="2.30643">
        <ele>106.5</ele>
        <time>2023-02-01T15:01:36Z</time>
      </trkpt>
      <trkpt lat="49.7872" lon="2.30643">
        <ele>106.5</ele>
        <time>2023-02-01T15:01:37Z</time>
      </trkpt>
      <trkpt lat="49.7872" lon="2.30643">
        <ele>106.5</ele>
        <time>2023-02-01T15:01:38Z</time>
      </trkpt>
      <trkpt lat="49.7872" lon="2.30643">
        <ele>106.5</ele>
        <time>2023-02-01T15:01:39Z</time>
      </trkpt>
      <trkpt lat="49.7872" lon="2.30643">
        <ele>106.5</ele>
        <time>2023-02-01T15:01:40Z</time>
      </trkpt>
      <trkpt lat="49.7872" lon="2.30643">
        <ele>106.5</ele>
        <time>2023-02-01T15:01:41Z</time>
      </trkpt>
      <trkpt lat="49.7872" lon="2.30643">
        <ele>106.5</ele>
        <time>2023-02-01T15:01:42Z</time>
      </trkpt>
      <trkpt lat="49.7872" lon="2.30643">
        <ele>106.5</ele>
        <time>2023-02-01T15:01:43Z</time>
      </trkpt>
      <trkpt lat="49.7872" lon="2.30643">
        <ele>106.5</ele>
        <time>2023-02-01T15:01:44Z</time>
      </trkpt>
      <trkpt lat="49.7872" lon="2.30643">
        <ele>106.5</ele>
        <time>2023-02-01T15:01:45Z</time>
      </trkpt>
      <trkpt lat="49.7872" lon="2.30643">
        <ele>106.5</ele>
        <time>2023-02-01T15:01:46Z</time>
      </trkpt>
      <trkpt lat="49.7872" lon="2.30643">
        <ele>106.5</ele>
        <time>2023-02-01T15:01:47Z</time>
      </trkpt>
      <trkpt lat="49.7872" lon="2.30643">
        <ele>106.5</ele>
        <time>2023-02-01T15:01:48Z</time>
      </trkpt>
      <trkpt lat="49.7872" lon="2.30643">
        <ele>106.5</ele>
        <time>2023-02-01T15:01:49Z</time>
      </trkpt>
      <trkpt lat="49.7872" lon="2.30643">
        <ele>106.5</ele>
        <time>2023-02-01T15:01:50Z</time>
      </trkpt>
      <trkpt lat="49.7872" lon="2.30643">
        <ele>106.5</ele>
        <time>2023-02-01T15:01:51Z</time>
      </trkpt>
      <trkpt lat="49.7872" lon="2.30643">
        <ele>106.5</ele>
        <time>2023-02-01T15:01:52Z</time>
      </trkpt>
      <trkpt lat="49.7872" lon="2.30643">
        <ele>106.5</ele>
        <time>2023-02-01T15:01:53Z</time>
      </trkpt>
      <trkpt lat="49.7872" lon="2.30643">
        <ele>106.5</ele>
        <time>2023-02-01T15:01:54Z</time>
      </trkpt>
      <trkpt lat="49.7872" lon="2.30643">
        <ele>106.5</ele>
        <time>2023-02-01T15:01:55Z</time>
      </trkpt>
      <trkpt lat="49.7872" lon="2.30643">
        <ele>106.5</ele>
        <time>2023-02-01T15:01:56Z</time>
      </trkpt>
      <trkpt lat="49.7872" lon="2.30643">
        <ele>106.5</ele>
        <time>2023-02-01T15:01:57Z</time>
      </trkpt>
      <trkpt lat="49.7872" lon="2.30643">
        <ele>106.5</ele>
        <time>2023-02-01T15:01:58Z</time>
      </trkpt>
      <trkpt lat="49.7872" lon="2.30643">
        <ele>106.5</ele>
        <time>2023-02-01T15:01:59Z</time>
      </trkpt>
      <trkpt lat="49.7872" lon="2.30643">
        <ele>106.5</ele>
        <time>2023-02-01T15:02:00Z</time>
      </trkpt>
      <trkpt lat="49.7872" lon="2.30643">
        <ele>106.5</ele>
        <time>2023-02-01T15:02:01Z</time>
      </trkpt>
      <trkpt lat="49.7872" lon="2.30643">
        <ele>106.5</ele>
        <time>2023-02-01T15:02:02Z</time>
      </trkpt>
      <trkpt lat="49.7872" lon="2.30643">
        <ele>106.5</ele>
        <time>2023-02-01T15:02:03Z</time>
      </trkpt>
      <trkpt lat="49.7872" lon="2.30643">
        <ele>106.5</ele>
        <time>2023-02-01T15:02:04Z</time>
      </trkpt>
      <trkpt lat="49.7872" lon="2.30643">
        <ele>106.5</ele>
        <time>2023-02-01T15:02:05Z</time>
      </trkpt>
      <trkpt lat="49.7872" lon="2.30643">
        <ele>106.5</ele>
        <time>2023-02-01T15:02:06Z</time>
      </trkpt>
      <trkpt lat="49.7872" lon="2.30643">
        <ele>106.5</ele>
        <time>2023-02-01T15:02:07Z</time>
      </trkpt>
      <trkpt lat="49.7872" lon="2.30643">
        <ele>106.5</ele>
        <time>2023-02-01T15:02:08Z</time>
      </trkpt>
      <trkpt lat="49.7872" lon="2.30643">
        <ele>106.5</ele>
        <time>2023-02-01T15:02:09Z</time>
      </trkpt>
      <trkpt lat="49.7872" lon="2.30643">
        <ele>106.5</ele>
        <time>2023-02-01T15:02:10Z</time>
      </trkpt>
      <trkpt lat="49.7872" lon="2.30643">
        <ele>106.5</ele>
        <time>2023-02-01T15:02:11Z</time>
      </trkpt>
      <trkpt lat="49.7872" lon="2.30643">
        <ele>106.5</ele>
        <time>2023-02-01T15:02:12Z</time>
      </trkpt>
      <trkpt lat="49.7872" lon="2.30643">
        <ele>106.5</ele>
        <time>2023-02-01T15:02:13Z</time>
      </trkpt>
      <trkpt lat="49.7872" lon="2.30643">
        <ele>106.5</ele>
        <time>2023-02-01T15:02:14Z</time>
      </trkpt>
      <trkpt lat="49.7872" lon="2.30643">
        <ele>106.5</ele>
        <time>2023-02-01T15:02:15Z</time>
      </trkpt>
      <trkpt lat="49.7872" lon="2.30643">
        <ele>106.5</ele>
        <time>2023-02-01T15:02:16Z</time>
      </trkpt>
      <trkpt lat="49.7872" lon="2.30643">
        <ele>106.5</ele>
        <time>2023-02-01T15:02:17Z</time>
      </trkpt>
      <trkpt lat="49.7872" lon="2.30643">
        <ele>106.5</ele>
        <time>2023-02-01T15:02:18Z</time>
      </trkpt>
      <trkpt lat="49.7872" lon="2.30643">
        <ele>106.5</ele>
        <time>2023-02-01T15:02:19Z</time>
      </trkpt>
      <trkpt lat="49.7872" lon="2.30643">
        <ele>106.5</ele>
        <time>2023-02-01T15:02:20Z</time>
      </trkpt>
      <trkpt lat="49.7872" lon="2.30643">
        <ele>106.5</ele>
        <time>2023-02-01T15:02:21Z</time>
      </trkpt>
      <trkpt lat="49.7872" lon="2.30643">
        <ele>106.5</ele>
        <time>2023-02-01T15:02:22Z</time>
      </trkpt>
      <trkpt lat="49.7872" lon="2.30643">
        <ele>106.5</ele>
        <time>2023-02-01T15:02:23Z</time>
      </trkpt>
      <trkpt lat="49.7872" lon="2.30643">
        <ele>106.5</ele>
        <time>2023-02-01T15:02:24Z</time>
      </trkpt>
      <trkpt lat="49.7872" lon="2.30643">
        <ele>106.5</ele>
        <time>2023-02-01T15:02:25Z</time>
      </trkpt>
      <trkpt lat="49.7872" lon="2.30643">
        <ele>106.5</ele>
        <time>2023-02-01T15:02:26Z</time>
      </trkpt>
      <trkpt lat="49.7872" lon="2.30643">
        <ele>106.5</ele>
        <time>2023-02-01T15:02:27Z</time>
      </trkpt>
      <trkpt lat="49.7872" lon="2.30643">
        <ele>106.5</ele>
        <time>2023-02-01T15:02:28Z</time>
      </trkpt>
      <trkpt lat="49.78719" lon="2.30642">
        <ele>106.4</ele>
        <time>2023-02-01T15:02:29Z</time>
      </trkpt>
      <trkpt lat="49.78718" lon="2.30642">
        <ele>106.4</ele>
        <time>2023-02-01T15:02:30Z</time>
      </trkpt>
      <trkpt lat="49.78719" lon="2.30641">
        <ele>106.4</ele>
        <time>2023-02-01T15:02:31Z</time>
      </trkpt>
      <trkpt lat="49.78719" lon="2.30641">
        <ele>106.3</ele>
        <time>2023-02-01T15:02:32Z</time>
      </trkpt>
      <trkpt lat="49.7872" lon="2.30641">
        <ele>106.3</ele>
        <time>2023-02-01T15:02:33Z</time>
      </trkpt>
      <trkpt lat="49.7872" lon="2.3064">
        <ele>106.3</ele>
        <time>2023-02-01T15:02:34Z</time>
      </trkpt>
      <trkpt lat="49.7872" lon="2.3064">
        <ele>106.3</ele>
        <time>2023-02-01T15:02:35Z</time>
      </trkpt>
      <trkpt lat="49.7872" lon="2.30639">
        <ele>106.2</ele>
        <time>2023-02-01T15:02:36Z</time>
      </trkpt>
      <trkpt lat="49.78721" lon="2.30638">
        <ele>106.2</ele>
        <time>2023-02-01T15:02:37Z</time>
      </trkpt>
      <trkpt lat="49.78721" lon="2.30638">
        <ele>106.2</ele>
        <time>2023-02-01T15:02:38Z</time>
      </trkpt>
      <trkpt lat="49.78721" lon="2.30637">
        <ele>106.1</ele>
        <time>2023-02-01T15:02:39Z</time>
      </trkpt>
      <trkpt lat="49.78722" lon="2.30636">
        <ele>106.1</ele>
        <time>2023-02-01T15:02:40Z</time>
      </trkpt>
      <trkpt lat="49.78722" lon="2.30635">
        <ele>106</ele>
        <time>2023-02-01T15:02:41Z</time>
      </trkpt>
      <trkpt lat="49.78723" lon="2.30634">
        <ele>106</ele>
        <time>2023-02-01T15:02:42Z</time>
      </trkpt>
      <trkpt lat="49.78723" lon="2.30633">
        <ele>106</ele>
        <time>2023-02-01T15:02:43Z</time>
      </trkpt>
      <trkpt lat="49.78723" lon="2.30632">
        <ele>105.9</ele>
        <time>2023-02-01T15:02:44Z</time>
      </trkpt>
      <trkpt lat="49.78723" lon="2.30631">
        <ele>105.9</ele>
        <time>2023-02-01T15:02:45Z</time>
      </trkpt>
      <trkpt lat="49.78723" lon="2.3063">
        <ele>105.8</ele>
        <time>2023-02-01T15:02:46Z</time>
      </trkpt>
      <trkpt lat="49.78723" lon="2.30629">
        <ele>105.8</ele>
        <time>2023-02-01T15:02:47Z</time>
      </trkpt>
      <trkpt lat="49.78723" lon="2.30628">
        <ele>105.7</ele>
        <time>2023-02-01T15:02:48Z</time>
      </trkpt>
      <trkpt lat="49.78723" lon="2.30626">
        <ele>105.7</ele>
        <time>2023-02-01T15:02:49Z</time>
      </trkpt>
      <trkpt lat="49.78723" lon="2.30625">
        <ele>105.6</ele>
        <time>2023-02-01T15:02:50Z</time>
      </trkpt>
      <trkpt lat="49.78723" lon="2.30623">
        <ele>105.5</ele>
        <time>2023-02-01T15:02:51Z</time>
      </trkpt>
      <trkpt lat="49.78722" lon="2.30621">
        <ele>105.5</ele>
        <time>2023-02-01T15:02:52Z</time>
      </trkpt>
      <trkpt lat="49.78722" lon="2.30619">
        <ele>105.6</ele>
        <time>2023-02-01T15:02:54Z</time>
      </trkpt>
      <trkpt lat="49.78722" lon="2.30615">
        <ele>105.6</ele>
        <time>2023-02-01T15:02:55Z</time>
      </trkpt>
      <trkpt lat="49.78721" lon="2.30614">
        <ele>105.6</ele>
        <time>2023-02-01T15:02:56Z</time>
      </trkpt>
      <trkpt lat="49.78721" lon="2.30612">
        <ele>105.6</ele>
        <time>2023-02-01T15:02:57Z</time>
      </trkpt>
      <trkpt lat="49.7872" lon="2.30611">
        <ele>105.7</ele>
        <time>2023-02-01T15:02:59Z</time>
      </trkpt>
      <trkpt lat="49.7872" lon="2.3061">
        <ele>105.7</ele>
        <time>2023-02-01T15:03:00Z</time>
      </trkpt>
      <trkpt lat="49.78719" lon="2.30609">
        <ele>105.7</ele>
        <time>2023-02-01T15:03:01Z</time>
      </trkpt>
      <trkpt lat="49.78719" lon="2.30607">
        <ele>105.7</ele>
        <time>2023-02-01T15:03:02Z</time>
      </trkpt>
      <trkpt lat="49.78718" lon="2.30606">
        <ele>105.7</ele>
        <time>2023-02-01T15:03:03Z</time>
      </trkpt>
      <trkpt lat="49.78718" lon="2.30605">
        <ele>105.8</ele>
        <time>2023-02-01T15:03:05Z</time>
      </trkpt>
      <trkpt lat="49.78717" lon="2.30603">
        <ele>105.8</ele>
        <time>2023-02-01T15:03:06Z</time>
      </trkpt>
      <trkpt lat="49.78717" lon="2.30602">
        <ele>105.8</ele>
        <time>2023-02-01T15:03:07Z</time>
      </trkpt>
      <trkpt lat="49.78717" lon="2.30601">
        <ele>105.8</ele>
        <time>2023-02-01T15:03:08Z</time>
      </trkpt>
      <trkpt lat="49.78716" lon="2.30601">
        <ele>105.8</ele>
        <time>2023-02-01T15:03:09Z</time>
      </trkpt>
      <trkpt lat="49.78716" lon="2.306">
        <ele>105.8</ele>
        <time>2023-02-01T15:03:10Z</time>
      </trkpt>
      <trkpt lat="49.78715" lon="2.30598">
        <ele>105.9</ele>
        <time>2023-02-01T15:03:11Z</time>
      </trkpt>
      <trkpt lat="49.78715" lon="2.30597">
        <ele>105.9</ele>
        <time>2023-02-01T15:03:12Z</time>
      </trkpt>
      <trkpt lat="49.78714" lon="2.30596">
        <ele>105.9</ele>
        <time>2023-02-01T15:03:14Z</time>
      </trkpt>
      <trkpt lat="49.78714" lon="2.30595">
        <ele>105.9</ele>
        <time>2023-02-01T15:03:15Z</time>
      </trkpt>
      <trkpt lat="49.78714" lon="2.30594">
        <ele>105.9</ele>
        <time>2023-02-01T15:03:16Z</time>
      </trkpt>
      <trkpt lat="49.78713" lon="2.30592">
        <ele>106</ele>
        <time>2023-02-01T15:03:17Z</time>
      </trkpt>
      <trkpt lat="49.78713" lon="2.30591">
        <ele>106</ele>
        <time>2023-02-01T15:03:18Z</time>
      </trkpt>
      <trkpt lat="49.78712" lon="2.3059">
        <ele>106</ele>
        <time>2023-02-01T15:03:20Z</time>
      </trkpt>
      <trkpt lat="49.78712" lon="2.30588">
        <ele>106.1</ele>
        <time>2023-02-01T15:03:21Z</time>
      </trkpt>
      <trkpt lat="49.78711" lon="2.30586">
        <ele>106.1</ele>
        <time>2023-02-01T15:03:22Z</time>
      </trkpt>
      <trkpt lat="49.78711" lon="2.30585">
        <ele>106.1</ele>
        <time>2023-02-01T15:03:23Z</time>
      </trkpt>
      <trkpt lat="49.78711" lon="2.30584">
        <ele>106.1</ele>
        <time>2023-02-01T15:03:24Z</time>
      </trkpt>
      <trkpt lat="49.7871" lon="2.30583">
        <ele>106.2</ele>
        <time>2023-02-01T15:03:25Z</time>
      </trkpt>
      <trkpt lat="49.7871" lon="2.30582">
        <ele>106.2</ele>
        <time>2023-02-01T15:03:26Z</time>
      </trkpt>
      <trkpt lat="49.7871" lon="2.3058">
        <ele>106.2</ele>
        <time>2023-02-01T15:03:27Z</time>
      </trkpt>
      <trkpt lat="49.78709" lon="2.30578">
        <ele>106.3</ele>
        <time>2023-02-01T15:03:29Z</time>
      </trkpt>
      <trkpt lat="49.78709" lon="2.30577">
        <ele>106.3</ele>
        <time>2023-02-01T15:03:30Z</time>
      </trkpt>
      <trkpt lat="49.78709" lon="2.30576">
        <ele>106.3</ele>
        <time>2023-02-01T15:03:31Z</time>
      </trkpt>
      <trkpt lat="49.78708" lon="2.30574">
        <ele>106.3</ele>
        <time>2023-02-01T15:03:32Z</time>
      </trkpt>
      <trkpt lat="49.78708" lon="2.30573">
        <ele>106.3</ele>
        <time>2023-02-01T15:03:33Z</time>
      </trkpt>
      <trkpt lat="49.78707" lon="2.30572">
        <ele>106.4</ele>
        <time>2023-02-01T15:03:34Z</time>
      </trkpt>
      <trkpt lat="49.78707" lon="2.3057">
        <ele>106.4</ele>
        <time>2023-02-01T15:03:35Z</time>
      </trkpt>
      <trkpt lat="49.78706" lon="2.30568">
        <ele>106.4</ele>
        <time>2023-02-01T15:03:37Z</time>
      </trkpt>
      <trkpt lat="49.78706" lon="2.30567">
        <ele>106.4</ele>
        <time>2023-02-01T15:03:38Z</time>
      </trkpt>
      <trkpt lat="49.78705" lon="2.30566">
        <ele>106.5</ele>
        <time>2023-02-01T15:03:39Z</time>
      </trkpt>
      <trkpt lat="49.78705" lon="2.30565">
        <ele>106.5</ele>
        <time>2023-02-01T15:03:40Z</time>
      </trkpt>
      <trkpt lat="49.78704" lon="2.30563">
        <ele>106.5</ele>
        <time>2023-02-01T15:03:41Z</time>
      </trkpt>
      <trkpt lat="49.78703" lon="2.30561">
        <ele>106.5</ele>
        <time>2023-02-01T15:03:42Z</time>
      </trkpt>
      <trkpt lat="49.78703" lon="2.3056">
        <ele>106.5</ele>
        <time>2023-02-01T15:03:43Z</time>
      </trkpt>
      <trkpt lat="49.78703" lon="2.30559">
        <ele>106.6</ele>
        <time>2023-02-01T15:03:44Z</time>
      </trkpt>
      <trkpt lat="49.78702" lon="2.30557">
        <ele>106.6</ele>
        <time>2023-02-01T15:03:46Z</time>
      </trkpt>
      <trkpt lat="49.78702" lon="2.30555">
        <ele>106.6</ele>
        <time>2023-02-01T15:03:47Z</time>
      </trkpt>
      <trkpt lat="49.78701" lon="2.30554">
        <ele>106.6</ele>
        <time>2023-02-01T15:03:48Z</time>
      </trkpt>
      <trkpt lat="49.78701" lon="2.30552">
        <ele>106.6</ele>
        <time>2023-02-01T15:03:49Z</time>
      </trkpt>
      <trkpt lat="49.78701" lon="2.3055">
        <ele>106.6</ele>
        <time>2023-02-01T15:03:50Z</time>
      </trkpt>
      <trkpt lat="49.787" lon="2.30548">
        <ele>106.6</ele>
        <time>2023-02-01T15:03:51Z</time>
      </trkpt>
      <trkpt lat="49.787" lon="2.30547">
        <ele>106.6</ele>
        <time>2023-02-01T15:03:52Z</time>
      </trkpt>
      <trkpt lat="49.78699" lon="2.30545">
        <ele>106.6</ele>
        <time>2023-02-01T15:03:54Z</time>
      </trkpt>
      <trkpt lat="49.78699" lon="2.30543">
        <ele>106.7</ele>
        <time>2023-02-01T15:03:55Z</time>
      </trkpt>
      <trkpt lat="49.78698" lon="2.30541">
        <ele>106.7</ele>
        <time>2023-02-01T15:03:56Z</time>
      </trkpt>
      <trkpt lat="49.78698" lon="2.30539">
        <ele>106.7</ele>
        <time>2023-02-01T15:03:57Z</time>
      </trkpt>
      <trkpt lat="49.78697" lon="2.30538">
        <ele>106.7</ele>
        <time>2023-02-01T15:03:58Z</time>
      </trkpt>
      <trkpt lat="49.78697" lon="2.30537">
        <ele>106.7</ele>
        <time>2023-02-01T15:03:59Z</time>
      </trkpt>
      <trkpt lat="49.78697" lon="2.30535">
        <ele>106.7</ele>
        <time>2023-02-01T15:04:00Z</time>
      </trkpt>
      <trkpt lat="49.78696" lon="2.30532">
        <ele>106.7</ele>
        <time>2023-02-01T15:04:02Z</time>
      </trkpt>
      <trkpt lat="49.78696" lon="2.30531">
        <ele>106.7</ele>
        <time>2023-02-01T15:04:03Z</time>
      </trkpt>
      <trkpt lat="49.78695" lon="2.30529">
        <ele>106.7</ele>
        <time>2023-02-01T15:04:04Z</time>
      </trkpt>
      <trkpt lat="49.78695" lon="2.30528">
        <ele>106.7</ele>
        <time>2023-02-01T15:04:05Z</time>
      </trkpt>
      <trkpt lat="49.78695" lon="2.30526">
        <ele>106.7</ele>
        <time>2023-02-01T15:04:06Z</time>
      </trkpt>
      <trkpt lat="49.78694" lon="2.30524">
        <ele>106.7</ele>
        <time>2023-02-01T15:04:07Z</time>
      </trkpt>
      <trkpt lat="49.78694" lon="2.30522">
        <ele>106.7</ele>
        <time>2023-02-01T15:04:08Z</time>
      </trkpt>
      <trkpt lat="49.78694" lon="2.30519">
        <ele>106.8</ele>
        <time>2023-02-01T15:04:10Z</time>
      </trkpt>
      <trkpt lat="49.78694" lon="2.30518">
        <ele>106.8</ele>
        <time>2023-02-01T15:04:11Z</time>
      </trkpt>
      <trkpt lat="49.78693" lon="2.30516">
        <ele>106.8</ele>
        <time>2023-02-01T15:04:12Z</time>
      </trkpt>
      <trkpt lat="49.78693" lon="2.30515">
        <ele>106.8</ele>
        <time>2023-02-01T15:04:13Z</time>
      </trkpt>
      <trkpt lat="49.78693" lon="2.30513">
        <ele>106.8</ele>
        <time>2023-02-01T15:04:15Z</time>
      </trkpt>
      <trkpt lat="49.78693" lon="2.30512">
        <ele>106.8</ele>
        <time>2023-02-01T15:04:16Z</time>
      </trkpt>
      <trkpt lat="49.78693" lon="2.30509">
        <ele>106.8</ele>
        <time>2023-02-01T15:04:17Z</time>
      </trkpt>
      <trkpt lat="49.78693" lon="2.30508">
        <ele>106.8</ele>
        <time>2023-02-01T15:04:18Z</time>
      </trkpt>
      <trkpt lat="49.78693" lon="2.30506">
        <ele>106.9</ele>
        <time>2023-02-01T15:04:19Z</time>
      </trkpt>
      <trkpt lat="49.78693" lon="2.30505">
        <ele>106.9</ele>
        <time>2023-02-01T15:04:20Z</time>
      </trkpt>
      <trkpt lat="49.78692" lon="2.30502">
        <ele>106.9</ele>
        <time>2023-02-01T15:04:22Z</time>
      </trkpt>
      <trkpt lat="49.78692" lon="2.30501">
        <ele>106.9</ele>
        <time>2023-02-01T15:04:23Z</time>
      </trkpt>
      <trkpt lat="49.78692" lon="2.305">
        <ele>106.9</ele>
        <time>2023-02-01T15:04:24Z</time>
      </trkpt>
      <trkpt lat="49.78691" lon="2.30498">
        <ele>106.9</ele>
        <time>2023-02-01T15:04:25Z</time>
      </trkpt>
      <trkpt lat="49.7869" lon="2.30497">
        <ele>107</ele>
        <time>2023-02-01T15:04:26Z</time>
      </trkpt>
      <trkpt lat="49.7869" lon="2.30495">
        <ele>107</ele>
        <time>2023-02-01T15:04:27Z</time>
      </trkpt>
      <trkpt lat="49.78689" lon="2.30494">
        <ele>107</ele>
        <time>2023-02-01T15:04:28Z</time>
      </trkpt>
      <trkpt lat="49.78688" lon="2.30491">
        <ele>107.1</ele>
        <time>2023-02-01T15:04:29Z</time>
      </trkpt>
      <trkpt lat="49.78687" lon="2.3049">
        <ele>107.1</ele>
        <time>2023-02-01T15:04:31Z</time>
      </trkpt>
      <trkpt lat="49.78687" lon="2.30489">
        <ele>107.1</ele>
        <time>2023-02-01T15:04:32Z</time>
      </trkpt>
      <trkpt lat="49.78686" lon="2.30486">
        <ele>107.2</ele>
        <time>2023-02-01T15:04:33Z</time>
      </trkpt>
      <trkpt lat="49.78685" lon="2.30485">
        <ele>107.2</ele>
        <time>2023-02-01T15:04:34Z</time>
      </trkpt>
      <trkpt lat="49.78685" lon="2.30484">
        <ele>107.2</ele>
        <time>2023-02-01T15:04:35Z</time>
      </trkpt>
      <trkpt lat="49.78684" lon="2.30481">
        <ele>107.2</ele>
        <time>2023-02-01T15:04:36Z</time>
      </trkpt>
      <trkpt lat="49.78683" lon="2.3048">
        <ele>107.3</ele>
        <time>2023-02-01T15:04:38Z</time>
      </trkpt>
      <trkpt lat="49.78683" lon="2.30479">
        <ele>107.3</ele>
        <time>2023-02-01T15:04:39Z</time>
      </trkpt>
      <trkpt lat="49.78683" lon="2.30478">
        <ele>107.3</ele>
        <time>2023-02-01T15:04:40Z</time>
      </trkpt>
      <trkpt lat="49.78682" lon="2.30477">
        <ele>107.3</ele>
        <time>2023-02-01T15:04:41Z</time>
      </trkpt>
      <trkpt lat="49.78682" lon="2.30475">
        <ele>107.4</ele>
        <time>2023-02-01T15:04:42Z</time>
      </trkpt>
      <trkpt lat="49.78681" lon="2.30473">
        <ele>107.4</ele>
        <time>2023-02-01T15:04:44Z</time>
      </trkpt>
      <trkpt lat="49.78681" lon="2.30472">
        <ele>107.4</ele>
        <time>2023-02-01T15:04:45Z</time>
      </trkpt>
      <trkpt lat="49.78681" lon="2.3047">
        <ele>107.5</ele>
        <time>2023-02-01T15:04:46Z</time>
      </trkpt>
      <trkpt lat="49.7868" lon="2.30469">
        <ele>107.5</ele>
        <time>2023-02-01T15:04:47Z</time>
      </trkpt>
      <trkpt lat="49.7868" lon="2.30467">
        <ele>107.5</ele>
        <time>2023-02-01T15:04:49Z</time>
      </trkpt>
      <trkpt lat="49.78679" lon="2.30466">
        <ele>107.5</ele>
        <time>2023-02-01T15:04:50Z</time>
      </trkpt>
      <trkpt lat="49.78679" lon="2.30465">
        <ele>107.6</ele>
        <time>2023-02-01T15:04:51Z</time>
      </trkpt>
      <trkpt lat="49.78678" lon="2.30463">
        <ele>107.6</ele>
        <time>2023-02-01T15:04:52Z</time>
      </trkpt>
      <trkpt lat="49.78678" lon="2.30461">
        <ele>107.6</ele>
        <time>2023-02-01T15:04:54Z</time>
      </trkpt>
      <trkpt lat="49.78677" lon="2.30459">
        <ele>107.7</ele>
        <time>2023-02-01T15:04:55Z</time>
      </trkpt>
      <trkpt lat="49.78676" lon="2.30457">
        <ele>107.7</ele>
        <time>2023-02-01T15:04:57Z</time>
      </trkpt>
      <trkpt lat="49.78676" lon="2.30456">
        <ele>107.8</ele>
        <time>2023-02-01T15:04:58Z</time>
      </trkpt>
      <trkpt lat="49.78675" lon="2.30455">
        <ele>107.8</ele>
        <time>2023-02-01T15:04:59Z</time>
      </trkpt>
      <trkpt lat="49.78675" lon="2.30454">
        <ele>107.8</ele>
        <time>2023-02-01T15:05:01Z</time>
      </trkpt>
      <trkpt lat="49.78675" lon="2.30453">
        <ele>107.8</ele>
        <time>2023-02-01T15:05:02Z</time>
      </trkpt>
      <trkpt lat="49.78674" lon="2.30451">
        <ele>107.8</ele>
        <time>2023-02-01T15:05:03Z</time>
      </trkpt>
      <trkpt lat="49.78674" lon="2.3045">
        <ele>107.9</ele>
        <time>2023-02-01T15:05:04Z</time>
      </trkpt>
      <trkpt lat="49.78673" lon="2.30449">
        <ele>107.9</ele>
        <time>2023-02-01T15:05:05Z</time>
      </trkpt>
      <trkpt lat="49.78673" lon="2.30448">
        <ele>107.9</ele>
        <time>2023-02-01T15:05:06Z</time>
      </trkpt>
      <trkpt lat="49.78672" lon="2.30447">
        <ele>107.9</ele>
        <time>2023-02-01T15:05:07Z</time>
      </trkpt>
      <trkpt lat="49.78671" lon="2.30446">
        <ele>108</ele>
        <time>2023-02-01T15:05:09Z</time>
      </trkpt>
      <trkpt lat="49.7867" lon="2.30445">
        <ele>108</ele>
        <time>2023-02-01T15:05:10Z</time>
      </trkpt>
      <trkpt lat="49.7867" lon="2.30444">
        <ele>108</ele>
        <time>2023-02-01T15:05:11Z</time>
      </trkpt>
      <trkpt lat="49.78669" lon="2.30442">
        <ele>108</ele>
        <time>2023-02-01T15:05:12Z</time>
      </trkpt>
      <trkpt lat="49.78668" lon="2.30441">
        <ele>108.1</ele>
        <time>2023-02-01T15:05:13Z</time>
      </trkpt>
      <trkpt lat="49.78667" lon="2.30439">
        <ele>108.1</ele>
        <time>2023-02-01T15:05:14Z</time>
      </trkpt>
      <trkpt lat="49.78666" lon="2.30438">
        <ele>108.1</ele>
        <time>2023-02-01T15:05:15Z</time>
      </trkpt>
      <trkpt lat="49.78665" lon="2.30437">
        <ele>108.2</ele>
        <time>2023-02-01T15:05:17Z</time>
      </trkpt>
      <trkpt lat="49.78664" lon="2.30435">
        <ele>108.2</ele>
        <time>2023-02-01T15:05:19Z</time>
      </trkpt>
      <trkpt lat="49.78663" lon="2.30434">
        <ele>108.3</ele>
        <time>2023-02-01T15:05:20Z</time>
      </trkpt>
      <trkpt lat="49.78662" lon="2.30433">
        <ele>108.3</ele>
        <time>2023-02-01T15:05:21Z</time>
      </trkpt>
      <trkpt lat="49.78661" lon="2.30431">
        <ele>108.3</ele>
        <time>2023-02-01T15:05:22Z</time>
      </trkpt>
      <trkpt lat="49.78661" lon="2.3043">
        <ele>108.4</ele>
        <time>2023-02-01T15:05:24Z</time>
      </trkpt>
      <trkpt lat="49.78659" lon="2.30429">
        <ele>108.4</ele>
        <time>2023-02-01T15:05:25Z</time>
      </trkpt>
      <trkpt lat="49.78658" lon="2.30428">
        <ele>108.5</ele>
        <time>2023-02-01T15:05:27Z</time>
      </trkpt>
      <trkpt lat="49.78657" lon="2.30427">
        <ele>108.5</ele>
        <time>2023-02-01T15:05:28Z</time>
      </trkpt>
      <trkpt lat="49.78656" lon="2.30426">
        <ele>108.6</ele>
        <time>2023-02-01T15:05:29Z</time>
      </trkpt>
      <trkpt lat="49.78655" lon="2.30424">
        <ele>108.6</ele>
        <time>2023-02-01T15:05:31Z</time>
      </trkpt>
      <trkpt lat="49.78654" lon="2.30423">
        <ele>108.7</ele>
        <time>2023-02-01T15:05:32Z</time>
      </trkpt>
      <trkpt lat="49.78653" lon="2.30421">
        <ele>108.8</ele>
        <time>2023-02-01T15:05:34Z</time>
      </trkpt>
      <trkpt lat="49.78652" lon="2.3042">
        <ele>108.8</ele>
        <time>2023-02-01T15:05:35Z</time>
      </trkpt>
      <trkpt lat="49.78651" lon="2.30419">
        <ele>108.9</ele>
        <time>2023-02-01T15:05:36Z</time>
      </trkpt>
      <trkpt lat="49.78651" lon="2.30418">
        <ele>108.9</ele>
        <time>2023-02-01T15:05:37Z</time>
      </trkpt>
      <trkpt lat="49.7865" lon="2.30417">
        <ele>109</ele>
        <time>2023-02-01T15:05:39Z</time>
      </trkpt>
      <trkpt lat="49.78649" lon="2.30416">
        <ele>109</ele>
        <time>2023-02-01T15:05:40Z</time>
      </trkpt>
      <trkpt lat="49.78648" lon="2.30415">
        <ele>109.1</ele>
        <time>2023-02-01T15:05:41Z</time>
      </trkpt>
      <trkpt lat="49.78648" lon="2.30414">
        <ele>109.1</ele>
        <time>2023-02-01T15:05:42Z</time>
      </trkpt>
      <trkpt lat="49.78647" lon="2.30413">
        <ele>109.2</ele>
        <time>2023-02-01T15:05:43Z</time>
      </trkpt>
      <trkpt lat="49.78646" lon="2.30413">
        <ele>109.2</ele>
        <time>2023-02-01T15:05:44Z</time>
      </trkpt>
      <trkpt lat="49.78645" lon="2.30412">
        <ele>109.3</ele>
        <time>2023-02-01T15:05:45Z</time>
      </trkpt>
      <trkpt lat="49.78644" lon="2.30411">
        <ele>109.3</ele>
        <time>2023-02-01T15:05:47Z</time>
      </trkpt>
      <trkpt lat="49.78643" lon="2.30409">
        <ele>109.4</ele>
        <time>2023-02-01T15:05:48Z</time>
      </trkpt>
      <trkpt lat="49.78642" lon="2.30408">
        <ele>109.5</ele>
        <time>2023-02-01T15:05:50Z</time>
      </trkpt>
      <trkpt lat="49.78641" lon="2.30407">
        <ele>109.5</ele>
        <time>2023-02-01T15:05:51Z</time>
      </trkpt>
      <trkpt lat="49.78641" lon="2.30406">
        <ele>109.5</ele>
        <time>2023-02-01T15:05:52Z</time>
      </trkpt>
      <trkpt lat="49.78639" lon="2.30403">
        <ele>109.6</ele>
        <time>2023-02-01T15:05:53Z</time>
      </trkpt>
      <trkpt lat="49.78638" lon="2.30403">
        <ele>109.7</ele>
        <time>2023-02-01T15:05:55Z</time>
      </trkpt>
      <trkpt lat="49.78638" lon="2.30402">
        <ele>109.7</ele>
        <time>2023-02-01T15:05:56Z</time>
      </trkpt>
      <trkpt lat="49.78637" lon="2.30401">
        <ele>109.8</ele>
        <time>2023-02-01T15:05:57Z</time>
      </trkpt>
      <trkpt lat="49.78636" lon="2.30399">
        <ele>109.8</ele>
        <time>2023-02-01T15:05:58Z</time>
      </trkpt>
      <trkpt lat="49.78636" lon="2.30397">
        <ele>109.9</ele>
        <time>2023-02-01T15:06:00Z</time>
      </trkpt>
      <trkpt lat="49.78635" lon="2.30396">
        <ele>109.9</ele>
        <time>2023-02-01T15:06:01Z</time>
      </trkpt>
      <trkpt lat="49.78635" lon="2.30395">
        <ele>110</ele>
        <time>2023-02-01T15:06:02Z</time>
      </trkpt>
      <trkpt lat="49.78634" lon="2.30394">
        <ele>110</ele>
        <time>2023-02-01T15:06:03Z</time>
      </trkpt>
      <trkpt lat="49.78633" lon="2.30393">
        <ele>110.1</ele>
        <time>2023-02-01T15:06:04Z</time>
      </trkpt>
      <trkpt lat="49.78633" lon="2.30391">
        <ele>110.1</ele>
        <time>2023-02-01T15:06:05Z</time>
      </trkpt>
      <trkpt lat="49.78632" lon="2.3039">
        <ele>110.2</ele>
        <time>2023-02-01T15:06:06Z</time>
      </trkpt>
      <trkpt lat="49.78631" lon="2.30388">
        <ele>110.2</ele>
        <time>2023-02-01T15:06:07Z</time>
      </trkpt>
      <trkpt lat="49.78631" lon="2.30387">
        <ele>110.3</ele>
        <time>2023-02-01T15:06:09Z</time>
      </trkpt>
      <trkpt lat="49.7863" lon="2.30386">
        <ele>110.3</ele>
        <time>2023-02-01T15:06:10Z</time>
      </trkpt>
      <trkpt lat="49.78629" lon="2.30383">
        <ele>110.4</ele>
        <time>2023-02-01T15:06:11Z</time>
      </trkpt>
      <trkpt lat="49.78628" lon="2.30382">
        <ele>110.5</ele>
        <time>2023-02-01T15:06:12Z</time>
      </trkpt>
      <trkpt lat="49.78628" lon="2.3038">
        <ele>110.5</ele>
        <time>2023-02-01T15:06:13Z</time>
      </trkpt>
      <trkpt lat="49.78627" lon="2.30378">
        <ele>110.6</ele>
        <time>2023-02-01T15:06:14Z</time>
      </trkpt>
      <trkpt lat="49.78626" lon="2.30377">
        <ele>110.6</ele>
        <time>2023-02-01T15:06:16Z</time>
      </trkpt>
      <trkpt lat="49.78626" lon="2.30375">
        <ele>110.6</ele>
        <time>2023-02-01T15:06:17Z</time>
      </trkpt>
      <trkpt lat="49.78625" lon="2.30374">
        <ele>110.7</ele>
        <time>2023-02-01T15:06:18Z</time>
      </trkpt>
      <trkpt lat="49.78625" lon="2.30372">
        <ele>110.7</ele>
        <time>2023-02-01T15:06:19Z</time>
      </trkpt>
      <trkpt lat="49.78624" lon="2.30371">
        <ele>110.8</ele>
        <time>2023-02-01T15:06:20Z</time>
      </trkpt>
      <trkpt lat="49.78624" lon="2.3037">
        <ele>110.8</ele>
        <time>2023-02-01T15:06:21Z</time>
      </trkpt>
      <trkpt lat="49.78623" lon="2.30367">
        <ele>110.9</ele>
        <time>2023-02-01T15:06:23Z</time>
      </trkpt>
      <trkpt lat="49.78622" lon="2.30366">
        <ele>110.9</ele>
        <time>2023-02-01T15:06:24Z</time>
      </trkpt>
      <trkpt lat="49.78622" lon="2.30365">
        <ele>110.9</ele>
        <time>2023-02-01T15:06:25Z</time>
      </trkpt>
      <trkpt lat="49.78621" lon="2.30363">
        <ele>111</ele>
        <time>2023-02-01T15:06:26Z</time>
      </trkpt>
      <trkpt lat="49.78621" lon="2.30362">
        <ele>111</ele>
        <time>2023-02-01T15:06:27Z</time>
      </trkpt>
      <trkpt lat="49.7862" lon="2.3036">
        <ele>111</ele>
        <time>2023-02-01T15:06:29Z</time>
      </trkpt>
      <trkpt lat="49.7862" lon="2.30359">
        <ele>111.1</ele>
        <time>2023-02-01T15:06:30Z</time>
      </trkpt>
      <trkpt lat="49.78619" lon="2.30356">
        <ele>111.1</ele>
        <time>2023-02-01T15:06:31Z</time>
      </trkpt>
      <trkpt lat="49.78619" lon="2.30354">
        <ele>111.2</ele>
        <time>2023-02-01T15:06:32Z</time>
      </trkpt>
      <trkpt lat="49.78618" lon="2.30353">
        <ele>111.2</ele>
        <time>2023-02-01T15:06:33Z</time>
      </trkpt>
      <trkpt lat="49.78618" lon="2.30352">
        <ele>111.2</ele>
        <time>2023-02-01T15:06:34Z</time>
      </trkpt>
      <trkpt lat="49.78618" lon="2.3035">
        <ele>111.3</ele>
        <time>2023-02-01T15:06:35Z</time>
      </trkpt>
      <trkpt lat="49.78617" lon="2.30349">
        <ele>111.3</ele>
        <time>2023-02-01T15:06:36Z</time>
      </trkpt>
      <trkpt lat="49.78616" lon="2.30346">
        <ele>111.3</ele>
        <time>2023-02-01T15:06:37Z</time>
      </trkpt>
      <trkpt lat="49.78616" lon="2.30345">
        <ele>111.4</ele>
        <time>2023-02-01T15:06:38Z</time>
      </trkpt>
      <trkpt lat="49.78615" lon="2.30344">
        <ele>111.4</ele>
        <time>2023-02-01T15:06:40Z</time>
      </trkpt>
      <trkpt lat="49.78615" lon="2.30342">
        <ele>111.4</ele>
        <time>2023-02-01T15:06:41Z</time>
      </trkpt>
      <trkpt lat="49.78614" lon="2.3034">
        <ele>111.5</ele>
        <time>2023-02-01T15:06:42Z</time>
      </trkpt>
      <trkpt lat="49.78614" lon="2.30338">
        <ele>111.5</ele>
        <time>2023-02-01T15:06:43Z</time>
      </trkpt>
      <trkpt lat="49.78613" lon="2.30337">
        <ele>111.5</ele>
        <time>2023-02-01T15:06:44Z</time>
      </trkpt>
      <trkpt lat="49.78613" lon="2.30335">
        <ele>111.6</ele>
        <time>2023-02-01T15:06:45Z</time>
      </trkpt>
      <trkpt lat="49.78612" lon="2.30332">
        <ele>111.6</ele>
        <time>2023-02-01T15:06:46Z</time>
      </trkpt>
      <trkpt lat="49.78611" lon="2.30331">
        <ele>111.6</ele>
        <time>2023-02-01T15:06:47Z</time>
      </trkpt>
      <trkpt lat="49.78611" lon="2.3033">
        <ele>111.7</ele>
        <time>2023-02-01T15:06:48Z</time>
      </trkpt>
      <trkpt lat="49.7861" lon="2.30327">
        <ele>111.7</ele>
        <time>2023-02-01T15:06:50Z</time>
      </trkpt>
      <trkpt lat="49.78609" lon="2.30326">
        <ele>111.7</ele>
        <time>2023-02-01T15:06:51Z</time>
      </trkpt>
      <trkpt lat="49.78608" lon="2.30325">
        <ele>111.8</ele>
        <time>2023-02-01T15:06:52Z</time>
      </trkpt>
      <trkpt lat="49.78607" lon="2.30323">
        <ele>111.8</ele>
        <time>2023-02-01T15:06:53Z</time>
      </trkpt>
      <trkpt lat="49.78607" lon="2.30322">
        <ele>111.8</ele>
        <time>2023-02-01T15:06:54Z</time>
      </trkpt>
      <trkpt lat="49.78605" lon="2.30319">
        <ele>111.9</ele>
        <time>2023-02-01T15:06:55Z</time>
      </trkpt>
      <trkpt lat="49.78605" lon="2.30318">
        <ele>111.9</ele>
        <time>2023-02-01T15:06:57Z</time>
      </trkpt>
      <trkpt lat="49.78604" lon="2.30317">
        <ele>112</ele>
        <time>2023-02-01T15:06:58Z</time>
      </trkpt>
      <trkpt lat="49.78604" lon="2.30316">
        <ele>112</ele>
        <time>2023-02-01T15:06:59Z</time>
      </trkpt>
      <trkpt lat="49.78603" lon="2.30315">
        <ele>112</ele>
        <time>2023-02-01T15:07:00Z</time>
      </trkpt>
      <trkpt lat="49.78602" lon="2.30314">
        <ele>112</ele>
        <time>2023-02-01T15:07:01Z</time>
      </trkpt>
      <trkpt lat="49.78602" lon="2.30312">
        <ele>112.1</ele>
        <time>2023-02-01T15:07:02Z</time>
      </trkpt>
      <trkpt lat="49.78601" lon="2.30311">
        <ele>112.1</ele>
        <time>2023-02-01T15:07:04Z</time>
      </trkpt>
      <trkpt lat="49.786" lon="2.3031">
        <ele>112.2</ele>
        <time>2023-02-01T15:07:05Z</time>
      </trkpt>
      <trkpt lat="49.78599" lon="2.30309">
        <ele>112.2</ele>
        <time>2023-02-01T15:07:06Z</time>
      </trkpt>
      <trkpt lat="49.78598" lon="2.30308">
        <ele>112.2</ele>
        <time>2023-02-01T15:07:07Z</time>
      </trkpt>
      <trkpt lat="49.78597" lon="2.30306">
        <ele>112.3</ele>
        <time>2023-02-01T15:07:08Z</time>
      </trkpt>
      <trkpt lat="49.78596" lon="2.30305">
        <ele>112.3</ele>
        <time>2023-02-01T15:07:09Z</time>
      </trkpt>
      <trkpt lat="49.78595" lon="2.30305">
        <ele>112.4</ele>
        <time>2023-02-01T15:07:10Z</time>
      </trkpt>
      <trkpt lat="49.78594" lon="2.30304">
        <ele>112.4</ele>
        <time>2023-02-01T15:07:12Z</time>
      </trkpt>
      <trkpt lat="49.78593" lon="2.30303">
        <ele>112.5</ele>
        <time>2023-02-01T15:07:13Z</time>
      </trkpt>
      <trkpt lat="49.78592" lon="2.30302">
        <ele>112.5</ele>
        <time>2023-02-01T15:07:14Z</time>
      </trkpt>
      <trkpt lat="49.78591" lon="2.30301">
        <ele>112.5</ele>
        <time>2023-02-01T15:07:15Z</time>
      </trkpt>
      <trkpt lat="49.7859" lon="2.303">
        <ele>112.6</ele>
        <time>2023-02-01T15:07:16Z</time>
      </trkpt>
      <trkpt lat="49.78589" lon="2.303">
        <ele>112.6</ele>
        <time>2023-02-01T15:07:18Z</time>
      </trkpt>
      <trkpt lat="49.78588" lon="2.30299">
        <ele>112.7</ele>
        <time>2023-02-01T15:07:19Z</time>
      </trkpt>
      <trkpt lat="49.78587" lon="2.30298">
        <ele>112.7</ele>
        <time>2023-02-01T15:07:20Z</time>
      </trkpt>
      <trkpt lat="49.78586" lon="2.30298">
        <ele>112.7</ele>
        <time>2023-02-01T15:07:21Z</time>
      </trkpt>
      <trkpt lat="49.78585" lon="2.30296">
        <ele>112.8</ele>
        <time>2023-02-01T15:07:23Z</time>
      </trkpt>
      <trkpt lat="49.78584" lon="2.30295">
        <ele>112.8</ele>
        <time>2023-02-01T15:07:24Z</time>
      </trkpt>
      <trkpt lat="49.78583" lon="2.30294">
        <ele>112.8</ele>
        <time>2023-02-01T15:07:25Z</time>
      </trkpt>
      <trkpt lat="49.78582" lon="2.30293">
        <ele>112.9</ele>
        <time>2023-02-01T15:07:26Z</time>
      </trkpt>
      <trkpt lat="49.78581" lon="2.30292">
        <ele>112.9</ele>
        <time>2023-02-01T15:07:27Z</time>
      </trkpt>
      <trkpt lat="49.7858" lon="2.3029">
        <ele>113</ele>
        <time>2023-02-01T15:07:29Z</time>
      </trkpt>
      <trkpt lat="49.7858" lon="2.30289">
        <ele>113</ele>
        <time>2023-02-01T15:07:30Z</time>
      </trkpt>
      <trkpt lat="49.78579" lon="2.30288">
        <ele>113</ele>
        <time>2023-02-01T15:07:31Z</time>
      </trkpt>
      <trkpt lat="49.78578" lon="2.30287">
        <ele>113.1</ele>
        <time>2023-02-01T15:07:32Z</time>
      </trkpt>
      <trkpt lat="49.78576" lon="2.30284">
        <ele>113.1</ele>
        <time>2023-02-01T15:07:33Z</time>
      </trkpt>
      <trkpt lat="49.78576" lon="2.30284">
        <ele>113.1</ele>
        <time>2023-02-01T15:07:35Z</time>
      </trkpt>
      <trkpt lat="49.78575" lon="2.30283">
        <ele>113.2</ele>
        <time>2023-02-01T15:07:36Z</time>
      </trkpt>
      <trkpt lat="49.78575" lon="2.30282">
        <ele>113.2</ele>
        <time>2023-02-01T15:07:37Z</time>
      </trkpt>
      <trkpt lat="49.78573" lon="2.3028">
        <ele>113.3</ele>
        <time>2023-02-01T15:07:38Z</time>
      </trkpt>
      <trkpt lat="49.78573" lon="2.30279">
        <ele>113.3</ele>
        <time>2023-02-01T15:07:39Z</time>
      </trkpt>
      <trkpt lat="49.78572" lon="2.30278">
        <ele>113.3</ele>
        <time>2023-02-01T15:07:41Z</time>
      </trkpt>
      <trkpt lat="49.7857" lon="2.30276">
        <ele>113.4</ele>
        <time>2023-02-01T15:07:42Z</time>
      </trkpt>
      <trkpt lat="49.78569" lon="2.30275">
        <ele>113.4</ele>
        <time>2023-02-01T15:07:44Z</time>
      </trkpt>
      <trkpt lat="49.78569" lon="2.30274">
        <ele>113.5</ele>
        <time>2023-02-01T15:07:45Z</time>
      </trkpt>
      <trkpt lat="49.78568" lon="2.30273">
        <ele>113.5</ele>
        <time>2023-02-01T15:07:46Z</time>
      </trkpt>
      <trkpt lat="49.78567" lon="2.30272">
        <ele>113.6</ele>
        <time>2023-02-01T15:07:47Z</time>
      </trkpt>
      <trkpt lat="49.78566" lon="2.30271">
        <ele>113.6</ele>
        <time>2023-02-01T15:07:49Z</time>
      </trkpt>
      <trkpt lat="49.78565" lon="2.3027">
        <ele>113.6</ele>
        <time>2023-02-01T15:07:50Z</time>
      </trkpt>
      <trkpt lat="49.78563" lon="2.30268">
        <ele>113.7</ele>
        <time>2023-02-01T15:07:51Z</time>
      </trkpt>
      <trkpt lat="49.78562" lon="2.30267">
        <ele>113.7</ele>
        <time>2023-02-01T15:07:52Z</time>
      </trkpt>
      <trkpt lat="49.78562" lon="2.30266">
        <ele>113.8</ele>
        <time>2023-02-01T15:07:53Z</time>
      </trkpt>
      <trkpt lat="49.7856" lon="2.30265">
        <ele>113.8</ele>
        <time>2023-02-01T15:07:55Z</time>
      </trkpt>
      <trkpt lat="49.78559" lon="2.30264">
        <ele>113.9</ele>
        <time>2023-02-01T15:07:56Z</time>
      </trkpt>
      <trkpt lat="49.78558" lon="2.30263">
        <ele>113.9</ele>
        <time>2023-02-01T15:07:58Z</time>
      </trkpt>
      <trkpt lat="49.78557" lon="2.30262">
        <ele>114</ele>
        <time>2023-02-01T15:07:59Z</time>
      </trkpt>
      <trkpt lat="49.78557" lon="2.30261">
        <ele>114</ele>
        <time>2023-02-01T15:08:00Z</time>
      </trkpt>
      <trkpt lat="49.78556" lon="2.30259">
        <ele>114</ele>
        <time>2023-02-01T15:08:01Z</time>
      </trkpt>
      <trkpt lat="49.78555" lon="2.30258">
        <ele>114.1</ele>
        <time>2023-02-01T15:08:02Z</time>
      </trkpt>
      <trkpt lat="49.78554" lon="2.30257">
        <ele>114.1</ele>
        <time>2023-02-01T15:08:04Z</time>
      </trkpt>
      <trkpt lat="49.78553" lon="2.30256">
        <ele>114.2</ele>
        <time>2023-02-01T15:08:05Z</time>
      </trkpt>
      <trkpt lat="49.78552" lon="2.30255">
        <ele>114.2</ele>
        <time>2023-02-01T15:08:06Z</time>
      </trkpt>
      <trkpt lat="49.78551" lon="2.30254">
        <ele>114.3</ele>
        <time>2023-02-01T15:08:07Z</time>
      </trkpt>
      <trkpt lat="49.7855" lon="2.30252">
        <ele>114.3</ele>
        <time>2023-02-01T15:08:08Z</time>
      </trkpt>
      <trkpt lat="49.78549" lon="2.30252">
        <ele>114.4</ele>
        <time>2023-02-01T15:08:09Z</time>
      </trkpt>
      <trkpt lat="49.78548" lon="2.30251">
        <ele>114.4</ele>
        <time>2023-02-01T15:08:10Z</time>
      </trkpt>
      <trkpt lat="49.78546" lon="2.30249">
        <ele>114.5</ele>
        <time>2023-02-01T15:08:11Z</time>
      </trkpt>
      <trkpt lat="49.78546" lon="2.30248">
        <ele>114.5</ele>
        <time>2023-02-01T15:08:13Z</time>
      </trkpt>
      <trkpt lat="49.78545" lon="2.30248">
        <ele>114.5</ele>
        <time>2023-02-01T15:08:14Z</time>
      </trkpt>
      <trkpt lat="49.78544" lon="2.30247">
        <ele>114.5</ele>
        <time>2023-02-01T15:08:15Z</time>
      </trkpt>
      <trkpt lat="49.78544" lon="2.30246">
        <ele>114.6</ele>
        <time>2023-02-01T15:08:16Z</time>
      </trkpt>
      <trkpt lat="49.78543" lon="2.30245">
        <ele>114.6</ele>
        <time>2023-02-01T15:08:17Z</time>
      </trkpt>
      <trkpt lat="49.78542" lon="2.30243">
        <ele>114.6</ele>
        <time>2023-02-01T15:08:18Z</time>
      </trkpt>
      <trkpt lat="49.78542" lon="2.30242">
        <ele>114.7</ele>
        <time>2023-02-01T15:08:19Z</time>
      </trkpt>
      <trkpt lat="49.78541" lon="2.30241">
        <ele>114.7</ele>
        <time>2023-02-01T15:08:21Z</time>
      </trkpt>
      <trkpt lat="49.7854" lon="2.30239">
        <ele>114.7</ele>
        <time>2023-02-01T15:08:22Z</time>
      </trkpt>
      <trkpt lat="49.78539" lon="2.30238">
        <ele>114.7</ele>
        <time>2023-02-01T15:08:23Z</time>
      </trkpt>
      <trkpt lat="49.78538" lon="2.30237">
        <ele>114.8</ele>
        <time>2023-02-01T15:08:24Z</time>
      </trkpt>
      <trkpt lat="49.78538" lon="2.30236">
        <ele>114.8</ele>
        <time>2023-02-01T15:08:25Z</time>
      </trkpt>
      <trkpt lat="49.78537" lon="2.30235">
        <ele>114.8</ele>
        <time>2023-02-01T15:08:27Z</time>
      </trkpt>
      <trkpt lat="49.78536" lon="2.30233">
        <ele>114.9</ele>
        <time>2023-02-01T15:08:28Z</time>
      </trkpt>
      <trkpt lat="49.78535" lon="2.30232">
        <ele>114.9</ele>
        <time>2023-02-01T15:08:29Z</time>
      </trkpt>
      <trkpt lat="49.78534" lon="2.30231">
        <ele>114.9</ele>
        <time>2023-02-01T15:08:30Z</time>
      </trkpt>
      <trkpt lat="49.78533" lon="2.3023">
        <ele>115</ele>
        <time>2023-02-01T15:08:31Z</time>
      </trkpt>
      <trkpt lat="49.78532" lon="2.30229">
        <ele>115</ele>
        <time>2023-02-01T15:08:33Z</time>
      </trkpt>
      <trkpt lat="49.78531" lon="2.30228">
        <ele>115.1</ele>
        <time>2023-02-01T15:08:34Z</time>
      </trkpt>
      <trkpt lat="49.7853" lon="2.30228">
        <ele>115.1</ele>
        <time>2023-02-01T15:08:35Z</time>
      </trkpt>
      <trkpt lat="49.78529" lon="2.30227">
        <ele>115.1</ele>
        <time>2023-02-01T15:08:36Z</time>
      </trkpt>
      <trkpt lat="49.78528" lon="2.30225">
        <ele>115.1</ele>
        <time>2023-02-01T15:08:37Z</time>
      </trkpt>
      <trkpt lat="49.78526" lon="2.30223">
        <ele>115.2</ele>
        <time>2023-02-01T15:08:39Z</time>
      </trkpt>
      <trkpt lat="49.78526" lon="2.30223">
        <ele>115.2</ele>
        <time>2023-02-01T15:08:40Z</time>
      </trkpt>
      <trkpt lat="49.78525" lon="2.30222">
        <ele>115.2</ele>
        <time>2023-02-01T15:08:41Z</time>
      </trkpt>
      <trkpt lat="49.78523" lon="2.30221">
        <ele>115.3</ele>
        <time>2023-02-01T15:08:42Z</time>
      </trkpt>
      <trkpt lat="49.78522" lon="2.3022">
        <ele>115.3</ele>
        <time>2023-02-01T15:08:44Z</time>
      </trkpt>
      <trkpt lat="49.78522" lon="2.3022">
        <ele>115.3</ele>
        <time>2023-02-01T15:08:45Z</time>
      </trkpt>
      <trkpt lat="49.78521" lon="2.30219">
        <ele>115.4</ele>
        <time>2023-02-01T15:08:46Z</time>
      </trkpt>
      <trkpt lat="49.7852" lon="2.30218">
        <ele>115.4</ele>
        <time>2023-02-01T15:08:47Z</time>
      </trkpt>
      <trkpt lat="49.78519" lon="2.30217">
        <ele>115.4</ele>
        <time>2023-02-01T15:08:48Z</time>
      </trkpt>
      <trkpt lat="49.78517" lon="2.30216">
        <ele>115.5</ele>
        <time>2023-02-01T15:08:49Z</time>
      </trkpt>
      <trkpt lat="49.78517" lon="2.30215">
        <ele>115.5</ele>
        <time>2023-02-01T15:08:50Z</time>
      </trkpt>
      <trkpt lat="49.78516" lon="2.30214">
        <ele>115.5</ele>
        <time>2023-02-01T15:08:51Z</time>
      </trkpt>
      <trkpt lat="49.78515" lon="2.30213">
        <ele>115.5</ele>
        <time>2023-02-01T15:08:53Z</time>
      </trkpt>
      <trkpt lat="49.78514" lon="2.30212">
        <ele>115.5</ele>
        <time>2023-02-01T15:08:54Z</time>
      </trkpt>
      <trkpt lat="49.78513" lon="2.30211">
        <ele>115.6</ele>
        <time>2023-02-01T15:08:55Z</time>
      </trkpt>
      <trkpt lat="49.78512" lon="2.3021">
        <ele>115.6</ele>
        <time>2023-02-01T15:08:56Z</time>
      </trkpt>
      <trkpt lat="49.78511" lon="2.30209">
        <ele>115.6</ele>
        <time>2023-02-01T15:08:57Z</time>
      </trkpt>
      <trkpt lat="49.7851" lon="2.30208">
        <ele>115.6</ele>
        <time>2023-02-01T15:08:58Z</time>
      </trkpt>
      <trkpt lat="49.78509" lon="2.30206">
        <ele>115.7</ele>
        <time>2023-02-01T15:09:00Z</time>
      </trkpt>
      <trkpt lat="49.78508" lon="2.30205">
        <ele>115.7</ele>
        <time>2023-02-01T15:09:01Z</time>
      </trkpt>
      <trkpt lat="49.78507" lon="2.30203">
        <ele>115.7</ele>
        <time>2023-02-01T15:09:02Z</time>
      </trkpt>
      <trkpt lat="49.78506" lon="2.30202">
        <ele>115.7</ele>
        <time>2023-02-01T15:09:03Z</time>
      </trkpt>
      <trkpt lat="49.78505" lon="2.30202">
        <ele>115.8</ele>
        <time>2023-02-01T15:09:04Z</time>
      </trkpt>
      <trkpt lat="49.78503" lon="2.302">
        <ele>115.8</ele>
        <time>2023-02-01T15:09:06Z</time>
      </trkpt>
      <trkpt lat="49.78503" lon="2.30199">
        <ele>115.8</ele>
        <time>2023-02-01T15:09:07Z</time>
      </trkpt>
      <trkpt lat="49.78502" lon="2.30198">
        <ele>115.8</ele>
        <time>2023-02-01T15:09:08Z</time>
      </trkpt>
      <trkpt lat="49.78501" lon="2.30197">
        <ele>115.8</ele>
        <time>2023-02-01T15:09:09Z</time>
      </trkpt>
      <trkpt lat="49.785" lon="2.30196">
        <ele>115.8</ele>
        <time>2023-02-01T15:09:10Z</time>
      </trkpt>
      <trkpt lat="49.78498" lon="2.30195">
        <ele>115.9</ele>
        <time>2023-02-01T15:09:11Z</time>
      </trkpt>
      <trkpt lat="49.78497" lon="2.30194">
        <ele>115.9</ele>
        <time>2023-02-01T15:09:12Z</time>
      </trkpt>
      <trkpt lat="49.78497" lon="2.30194">
        <ele>115.9</ele>
        <time>2023-02-01T15:09:13Z</time>
      </trkpt>
      <trkpt lat="49.78496" lon="2.30193">
        <ele>115.9</ele>
        <time>2023-02-01T15:09:15Z</time>
      </trkpt>
      <trkpt lat="49.78495" lon="2.30192">
        <ele>115.9</ele>
        <time>2023-02-01T15:09:16Z</time>
      </trkpt>
      <trkpt lat="49.78494" lon="2.3019">
        <ele>115.9</ele>
        <time>2023-02-01T15:09:17Z</time>
      </trkpt>
      <trkpt lat="49.78493" lon="2.30189">
        <ele>115.9</ele>
        <time>2023-02-01T15:09:18Z</time>
      </trkpt>
      <trkpt lat="49.78492" lon="2.30188">
        <ele>116</ele>
        <time>2023-02-01T15:09:19Z</time>
      </trkpt>
      <trkpt lat="49.78491" lon="2.30187">
        <ele>116</ele>
        <time>2023-02-01T15:09:20Z</time>
      </trkpt>
      <trkpt lat="49.7849" lon="2.30185">
        <ele>116</ele>
        <time>2023-02-01T15:09:21Z</time>
      </trkpt>
      <trkpt lat="49.78489" lon="2.30184">
        <ele>116</ele>
        <time>2023-02-01T15:09:23Z</time>
      </trkpt>
      <trkpt lat="49.78489" lon="2.30183">
        <ele>116</ele>
        <time>2023-02-01T15:09:24Z</time>
      </trkpt>
      <trkpt lat="49.78488" lon="2.30182">
        <ele>116</ele>
        <time>2023-02-01T15:09:25Z</time>
      </trkpt>
      <trkpt lat="49.78487" lon="2.3018">
        <ele>116.1</ele>
        <time>2023-02-01T15:09:26Z</time>
      </trkpt>
      <trkpt lat="49.78485" lon="2.30178">
        <ele>116.1</ele>
        <time>2023-02-01T15:09:27Z</time>
      </trkpt>
      <trkpt lat="49.78485" lon="2.30177">
        <ele>116.1</ele>
        <time>2023-02-01T15:09:28Z</time>
      </trkpt>
      <trkpt lat="49.78484" lon="2.30176">
        <ele>116.1</ele>
        <time>2023-02-01T15:09:30Z</time>
      </trkpt>
      <trkpt lat="49.78483" lon="2.30175">
        <ele>116.1</ele>
        <time>2023-02-01T15:09:31Z</time>
      </trkpt>
      <trkpt lat="49.78482" lon="2.30174">
        <ele>116.1</ele>
        <time>2023-02-01T15:09:32Z</time>
      </trkpt>
      <trkpt lat="49.78481" lon="2.30174">
        <ele>116.1</ele>
        <time>2023-02-01T15:09:33Z</time>
      </trkpt>
      <trkpt lat="49.7848" lon="2.30172">
        <ele>116.2</ele>
        <time>2023-02-01T15:09:34Z</time>
      </trkpt>
      <trkpt lat="49.78479" lon="2.30172">
        <ele>116.2</ele>
        <time>2023-02-01T15:09:36Z</time>
      </trkpt>
      <trkpt lat="49.78478" lon="2.30171">
        <ele>116.2</ele>
        <time>2023-02-01T15:09:37Z</time>
      </trkpt>
      <trkpt lat="49.78476" lon="2.3017">
        <ele>116.2</ele>
        <time>2023-02-01T15:09:38Z</time>
      </trkpt>
      <trkpt lat="49.78475" lon="2.30169">
        <ele>116.2</ele>
        <time>2023-02-01T15:09:39Z</time>
      </trkpt>
      <trkpt lat="49.78475" lon="2.30168">
        <ele>116.2</ele>
        <time>2023-02-01T15:09:40Z</time>
      </trkpt>
      <trkpt lat="49.78473" lon="2.30166">
        <ele>116.2</ele>
        <time>2023-02-01T15:09:41Z</time>
      </trkpt>
      <trkpt lat="49.78472" lon="2.30166">
        <ele>116.2</ele>
        <time>2023-02-01T15:09:43Z</time>
      </trkpt>
      <trkpt lat="49.78472" lon="2.30165">
        <ele>116.2</ele>
        <time>2023-02-01T15:09:44Z</time>
      </trkpt>
      <trkpt lat="49.78471" lon="2.30164">
        <ele>116.3</ele>
        <time>2023-02-01T15:09:45Z</time>
      </trkpt>
      <trkpt lat="49.7847" lon="2.30163">
        <ele>116.3</ele>
        <time>2023-02-01T15:09:46Z</time>
      </trkpt>
      <trkpt lat="49.78469" lon="2.30162">
        <ele>116.3</ele>
        <time>2023-02-01T15:09:47Z</time>
      </trkpt>
      <trkpt lat="49.78469" lon="2.30161">
        <ele>116.3</ele>
        <time>2023-02-01T15:09:48Z</time>
      </trkpt>
      <trkpt lat="49.78467" lon="2.30159">
        <ele>116.3</ele>
        <time>2023-02-01T15:09:50Z</time>
      </trkpt>
      <trkpt lat="49.78466" lon="2.30159">
        <ele>116.3</ele>
        <time>2023-02-01T15:09:51Z</time>
      </trkpt>
      <trkpt lat="49.78465" lon="2.30156">
        <ele>116.3</ele>
        <time>2023-02-01T15:09:52Z</time>
      </trkpt>
      <trkpt lat="49.78464" lon="2.30155">
        <ele>116.3</ele>
        <time>2023-02-01T15:09:53Z</time>
      </trkpt>
      <trkpt lat="49.78464" lon="2.30154">
        <ele>116.3</ele>
        <time>2023-02-01T15:09:54Z</time>
      </trkpt>
      <trkpt lat="49.78463" lon="2.30153">
        <ele>116.3</ele>
        <time>2023-02-01T15:09:55Z</time>
      </trkpt>
      <trkpt lat="49.78462" lon="2.30153">
        <ele>116.3</ele>
        <time>2023-02-01T15:09:57Z</time>
      </trkpt>
      <trkpt lat="49.78461" lon="2.30152">
        <ele>116.3</ele>
        <time>2023-02-01T15:09:58Z</time>
      </trkpt>
      <trkpt lat="49.7846" lon="2.30151">
        <ele>116.3</ele>
        <time>2023-02-01T15:09:59Z</time>
      </trkpt>
      <trkpt lat="49.78459" lon="2.3015">
        <ele>116.3</ele>
        <time>2023-02-01T15:10:00Z</time>
      </trkpt>
      <trkpt lat="49.78458" lon="2.30149">
        <ele>116.3</ele>
        <time>2023-02-01T15:10:01Z</time>
      </trkpt>
      <trkpt lat="49.78457" lon="2.30148">
        <ele>116.3</ele>
        <time>2023-02-01T15:10:02Z</time>
      </trkpt>
      <trkpt lat="49.78456" lon="2.30147">
        <ele>116.3</ele>
        <time>2023-02-01T15:10:03Z</time>
      </trkpt>
      <trkpt lat="49.78455" lon="2.30145">
        <ele>116.3</ele>
        <time>2023-02-01T15:10:05Z</time>
      </trkpt>
      <trkpt lat="49.78455" lon="2.30144">
        <ele>116.3</ele>
        <time>2023-02-01T15:10:06Z</time>
      </trkpt>
      <trkpt lat="49.78454" lon="2.30143">
        <ele>116.3</ele>
        <time>2023-02-01T15:10:07Z</time>
      </trkpt>
      <trkpt lat="49.78453" lon="2.30142">
        <ele>116.3</ele>
        <time>2023-02-01T15:10:08Z</time>
      </trkpt>
      <trkpt lat="49.78451" lon="2.30141">
        <ele>116.3</ele>
        <time>2023-02-01T15:10:09Z</time>
      </trkpt>
      <trkpt lat="49.7845" lon="2.30139">
        <ele>116.3</ele>
        <time>2023-02-01T15:10:10Z</time>
      </trkpt>
      <trkpt lat="49.78449" lon="2.30138">
        <ele>116.3</ele>
        <time>2023-02-01T15:10:11Z</time>
      </trkpt>
      <trkpt lat="49.78448" lon="2.30137">
        <ele>116.3</ele>
        <time>2023-02-01T15:10:12Z</time>
      </trkpt>
      <trkpt lat="49.78447" lon="2.30135">
        <ele>116.3</ele>
        <time>2023-02-01T15:10:14Z</time>
      </trkpt>
      <trkpt lat="49.78446" lon="2.30135">
        <ele>116.3</ele>
        <time>2023-02-01T15:10:15Z</time>
      </trkpt>
      <trkpt lat="49.78445" lon="2.30134">
        <ele>116.3</ele>
        <time>2023-02-01T15:10:16Z</time>
      </trkpt>
      <trkpt lat="49.78444" lon="2.30132">
        <ele>116.3</ele>
        <time>2023-02-01T15:10:17Z</time>
      </trkpt>
      <trkpt lat="49.78443" lon="2.30131">
        <ele>116.3</ele>
        <time>2023-02-01T15:10:18Z</time>
      </trkpt>
      <trkpt lat="49.78442" lon="2.3013">
        <ele>116.3</ele>
        <time>2023-02-01T15:10:19Z</time>
      </trkpt>
      <trkpt lat="49.78441" lon="2.30129">
        <ele>116.3</ele>
        <time>2023-02-01T15:10:21Z</time>
      </trkpt>
      <trkpt lat="49.7844" lon="2.30128">
        <ele>116.3</ele>
        <time>2023-02-01T15:10:22Z</time>
      </trkpt>
      <trkpt lat="49.78439" lon="2.30128">
        <ele>116.3</ele>
        <time>2023-02-01T15:10:23Z</time>
      </trkpt>
      <trkpt lat="49.78438" lon="2.30127">
        <ele>116.3</ele>
        <time>2023-02-01T15:10:24Z</time>
      </trkpt>
      <trkpt lat="49.78438" lon="2.30126">
        <ele>116.3</ele>
        <time>2023-02-01T15:10:25Z</time>
      </trkpt>
      <trkpt lat="49.78437" lon="2.30125">
        <ele>116.3</ele>
        <time>2023-02-01T15:10:26Z</time>
      </trkpt>
      <trkpt lat="49.78436" lon="2.30124">
        <ele>116.4</ele>
        <time>2023-02-01T15:10:27Z</time>
      </trkpt>
      <trkpt lat="49.78435" lon="2.30123">
        <ele>116.4</ele>
        <time>2023-02-01T15:10:28Z</time>
      </trkpt>
      <trkpt lat="49.78434" lon="2.30121">
        <ele>116.4</ele>
        <time>2023-02-01T15:10:30Z</time>
      </trkpt>
      <trkpt lat="49.78433" lon="2.3012">
        <ele>116.4</ele>
        <time>2023-02-01T15:10:31Z</time>
      </trkpt>
      <trkpt lat="49.78432" lon="2.3012">
        <ele>116.4</ele>
        <time>2023-02-01T15:10:32Z</time>
      </trkpt>
      <trkpt lat="49.78431" lon="2.30119">
        <ele>116.4</ele>
        <time>2023-02-01T15:10:33Z</time>
      </trkpt>
      <trkpt lat="49.7843" lon="2.30117">
        <ele>116.4</ele>
        <time>2023-02-01T15:10:34Z</time>
      </trkpt>
      <trkpt lat="49.78429" lon="2.30116">
        <ele>116.4</ele>
        <time>2023-02-01T15:10:35Z</time>
      </trkpt>
      <trkpt lat="49.78428" lon="2.30115">
        <ele>116.4</ele>
        <time>2023-02-01T15:10:37Z</time>
      </trkpt>
      <trkpt lat="49.78427" lon="2.30114">
        <ele>116.4</ele>
        <time>2023-02-01T15:10:38Z</time>
      </trkpt>
      <trkpt lat="49.78426" lon="2.30113">
        <ele>116.4</ele>
        <time>2023-02-01T15:10:39Z</time>
      </trkpt>
      <trkpt lat="49.78425" lon="2.30113">
        <ele>116.4</ele>
        <time>2023-02-01T15:10:40Z</time>
      </trkpt>
      <trkpt lat="49.78424" lon="2.30111">
        <ele>116.4</ele>
        <time>2023-02-01T15:10:41Z</time>
      </trkpt>
      <trkpt lat="49.78423" lon="2.3011">
        <ele>116.5</ele>
        <time>2023-02-01T15:10:42Z</time>
      </trkpt>
      <trkpt lat="49.78422" lon="2.30109">
        <ele>116.5</ele>
        <time>2023-02-01T15:10:44Z</time>
      </trkpt>
      <trkpt lat="49.78421" lon="2.30108">
        <ele>116.5</ele>
        <time>2023-02-01T15:10:45Z</time>
      </trkpt>
      <trkpt lat="49.78421" lon="2.30107">
        <ele>116.5</ele>
        <time>2023-02-01T15:10:46Z</time>
      </trkpt>
      <trkpt lat="49.7842" lon="2.30106">
        <ele>116.5</ele>
        <time>2023-02-01T15:10:47Z</time>
      </trkpt>
      <trkpt lat="49.78419" lon="2.30105">
        <ele>116.5</ele>
        <time>2023-02-01T15:10:48Z</time>
      </trkpt>
      <trkpt lat="49.78418" lon="2.30103">
        <ele>116.5</ele>
        <time>2023-02-01T15:10:49Z</time>
      </trkpt>
      <trkpt lat="49.78417" lon="2.30102">
        <ele>116.5</ele>
        <time>2023-02-01T15:10:50Z</time>
      </trkpt>
      <trkpt lat="49.78417" lon="2.30101">
        <ele>116.5</ele>
        <time>2023-02-01T15:10:51Z</time>
      </trkpt>
      <trkpt lat="49.78416" lon="2.301">
        <ele>116.5</ele>
        <time>2023-02-01T15:10:53Z</time>
      </trkpt>
      <trkpt lat="49.78415" lon="2.30099">
        <ele>116.5</ele>
        <time>2023-02-01T15:10:54Z</time>
      </trkpt>
      <trkpt lat="49.78414" lon="2.30099">
        <ele>116.5</ele>
        <time>2023-02-01T15:10:55Z</time>
      </trkpt>
      <trkpt lat="49.78413" lon="2.30097">
        <ele>116.5</ele>
        <time>2023-02-01T15:10:57Z</time>
      </trkpt>
      <trkpt lat="49.78413" lon="2.30096">
        <ele>116.5</ele>
        <time>2023-02-01T15:10:59Z</time>
      </trkpt>
      <trkpt lat="49.78412" lon="2.30095">
        <ele>116.6</ele>
        <time>2023-02-01T15:11:00Z</time>
      </trkpt>
      <trkpt lat="49.78412" lon="2.30095">
        <ele>116.6</ele>
        <time>2023-02-01T15:11:01Z</time>
      </trkpt>
      <trkpt lat="49.78411" lon="2.30093">
        <ele>116.6</ele>
        <time>2023-02-01T15:11:03Z</time>
      </trkpt>
      <trkpt lat="49.78411" lon="2.30093">
        <ele>116.6</ele>
        <time>2023-02-01T15:11:04Z</time>
      </trkpt>
      <trkpt lat="49.78411" lon="2.30092">
        <ele>116.6</ele>
        <time>2023-02-01T15:11:05Z</time>
      </trkpt>
      <trkpt lat="49.78412" lon="2.30092">
        <ele>116.6</ele>
        <time>2023-02-01T15:11:07Z</time>
      </trkpt>
      <trkpt lat="49.78412" lon="2.30092">
        <ele>116.6</ele>
        <time>2023-02-01T15:11:08Z</time>
      </trkpt>
      <trkpt lat="49.78412" lon="2.30093">
        <ele>116.6</ele>
        <time>2023-02-01T15:11:10Z</time>
      </trkpt>
      <trkpt lat="49.78412" lon="2.30093">
        <ele>116.6</ele>
        <time>2023-02-01T15:11:11Z</time>
      </trkpt>
      <trkpt lat="49.78412" lon="2.30093">
        <ele>116.6</ele>
        <time>2023-02-01T15:11:13Z</time>
      </trkpt>
      <trkpt lat="49.78412" lon="2.30093">
        <ele>116.6</ele>
        <time>2023-02-01T15:11:14Z</time>
      </trkpt>
      <trkpt lat="49.78412" lon="2.30093">
        <ele>116.6</ele>
        <time>2023-02-01T15:11:15Z</time>
      </trkpt>
      <trkpt lat="49.78412" lon="2.30093">
        <ele>116.6</ele>
        <time>2023-02-01T15:11:17Z</time>
      </trkpt>
      <trkpt lat="49.78412" lon="2.30093">
        <ele>116.6</ele>
        <time>2023-02-01T15:11:18Z</time>
      </trkpt>
      <trkpt lat="49.78412" lon="2.30093">
        <ele>116.6</ele>
        <time>2023-02-01T15:11:20Z</time>
      </trkpt>
      <trkpt lat="49.78412" lon="2.30093">
        <ele>116.6</ele>
        <time>2023-02-01T15:11:21Z</time>
      </trkpt>
      <trkpt lat="49.78412" lon="2.30094">
        <ele>116.6</ele>
        <time>2023-02-01T15:11:22Z</time>
      </trkpt>
      <trkpt lat="49.78412" lon="2.30094">
        <ele>116.6</ele>
        <time>2023-02-01T15:11:23Z</time>
      </trkpt>
      <trkpt lat="49.78412" lon="2.30094">
        <ele>116.6</ele>
        <time>2023-02-01T15:11:24Z</time>
      </trkpt>
      <trkpt lat="49.78412" lon="2.30094">
        <ele>116.6</ele>
        <time>2023-02-01T15:11:25Z</time>
      </trkpt>
      <trkpt lat="49.78412" lon="2.30094">
        <ele>116.6</ele>
        <time>2023-02-01T15:11:26Z</time>
      </trkpt>
      <trkpt lat="49.78412" lon="2.30094">
        <ele>116.6</ele>
        <time>2023-02-01T15:11:27Z</time>
      </trkpt>
      <trkpt lat="49.78412" lon="2.30094">
        <ele>116.6</ele>
        <time>2023-02-01T15:11:28Z</time>
      </trkpt>
      <trkpt lat="49.78412" lon="2.30094">
        <ele>116.6</ele>
        <time>2023-02-01T15:11:29Z</time>
      </trkpt>
      <trkpt lat="49.78412" lon="2.30094">
        <ele>116.6</ele>
        <time>2023-02-01T15:11:30Z</time>
      </trkpt>
      <trkpt lat="49.78412" lon="2.30094">
        <ele>116.6</ele>
        <time>2023-02-01T15:11:31Z</time>
      </trkpt>
      <trkpt lat="49.78412" lon="2.30094">
        <ele>116.6</ele>
        <time>2023-02-01T15:11:32Z</time>
      </trkpt>
      <trkpt lat="49.78412" lon="2.30094">
        <ele>116.6</ele>
        <time>2023-02-01T15:11:33Z</time>
      </trkpt>
      <trkpt lat="49.78412" lon="2.30094">
        <ele>116.6</ele>
        <time>2023-02-01T15:11:34Z</time>
      </trkpt>
      <trkpt lat="49.78412" lon="2.30094">
        <ele>116.6</ele>
        <time>2023-02-01T15:11:35Z</time>
      </trkpt>
      <trkpt lat="49.78412" lon="2.30094">
        <ele>116.6</ele>
        <time>2023-02-01T15:11:36Z</time>
      </trkpt>
      <trkpt lat="49.78412" lon="2.30094">
        <ele>116.6</ele>
        <time>2023-02-01T15:11:37Z</time>
      </trkpt>
      <trkpt lat="49.78412" lon="2.30094">
        <ele>116.6</ele>
        <time>2023-02-01T15:11:38Z</time>
      </trkpt>
      <trkpt lat="49.78412" lon="2.30094">
        <ele>116.6</ele>
        <time>2023-02-01T15:11:39Z</time>
      </trkpt>
      <trkpt lat="49.78412" lon="2.30094">
        <ele>116.6</ele>
        <time>2023-02-01T15:11:40Z</time>
      </trkpt>
      <trkpt lat="49.78412" lon="2.30094">
        <ele>116.6</ele>
        <time>2023-02-01T15:11:41Z</time>
      </trkpt>
      <trkpt lat="49.78412" lon="2.30094">
        <ele>116.6</ele>
        <time>2023-02-01T15:11:42Z</time>
      </trkpt>
      <trkpt lat="49.78412" lon="2.30094">
        <ele>116.6</ele>
        <time>2023-02-01T15:11:43Z</time>
      </trkpt>
      <trkpt lat="49.78412" lon="2.30094">
        <ele>116.6</ele>
        <time>2023-02-01T15:11:44Z</time>
      </trkpt>
      <trkpt lat="49.78412" lon="2.30094">
        <ele>116.6</ele>
        <time>2023-02-01T15:11:45Z</time>
      </trkpt>
      <trkpt lat="49.78412" lon="2.30094">
        <ele>116.6</ele>
        <time>2023-02-01T15:11:46Z</time>
      </trkpt>
      <trkpt lat="49.78412" lon="2.30094">
        <ele>116.6</ele>
        <time>2023-02-01T15:11:47Z</time>
      </trkpt>
      <trkpt lat="49.78412" lon="2.30094">
        <ele>116.6</ele>
        <time>2023-02-01T15:11:48Z</time>
      </trkpt>
      <trkpt lat="49.78412" lon="2.30094">
        <ele>116.6</ele>
        <time>2023-02-01T15:11:49Z</time>
      </trkpt>
      <trkpt lat="49.78412" lon="2.30094">
        <ele>116.6</ele>
        <time>2023-02-01T15:11:50Z</time>
      </trkpt>
      <trkpt lat="49.78412" lon="2.30095">
        <ele>116.6</ele>
        <time>2023-02-01T15:11:51Z</time>
      </trkpt>
      <trkpt lat="49.78412" lon="2.30097">
        <ele>116.6</ele>
        <time>2023-02-01T15:11:52Z</time>
      </trkpt>
      <trkpt lat="49.78412" lon="2.30097">
        <ele>116.6</ele>
        <time>2023-02-01T15:11:53Z</time>
      </trkpt>
      <trkpt lat="49.78411" lon="2.30097">
        <ele>116.6</ele>
        <time>2023-02-01T15:11:54Z</time>
      </trkpt>
      <trkpt lat="49.7841" lon="2.30096">
        <ele>116.6</ele>
        <time>2023-02-01T15:11:55Z</time>
      </trkpt>
      <trkpt lat="49.7841" lon="2.30096">
        <ele>116.6</ele>
        <time>2023-02-01T15:11:56Z</time>
      </trkpt>
      <trkpt lat="49.78409" lon="2.30095">
        <ele>116.6</ele>
        <time>2023-02-01T15:11:57Z</time>
      </trkpt>
      <trkpt lat="49.78408" lon="2.30094">
        <ele>116.6</ele>
        <time>2023-02-01T15:11:58Z</time>
      </trkpt>
      <trkpt lat="49.78407" lon="2.30093">
        <ele>116.6</ele>
        <time>2023-02-01T15:11:59Z</time>
      </trkpt>
      <trkpt lat="49.78407" lon="2.30092">
        <ele>116.7</ele>
        <time>2023-02-01T15:12:01Z</time>
      </trkpt>
      <trkpt lat="49.78406" lon="2.30091">
        <ele>116.7</ele>
        <time>2023-02-01T15:12:02Z</time>
      </trkpt>
      <trkpt lat="49.78404" lon="2.30088">
        <ele>116.7</ele>
        <time>2023-02-01T15:12:03Z</time>
      </trkpt>
      <trkpt lat="49.78404" lon="2.30087">
        <ele>116.7</ele>
        <time>2023-02-01T15:12:04Z</time>
      </trkpt>
      <trkpt lat="49.78403" lon="2.30086">
        <ele>116.7</ele>
        <time>2023-02-01T15:12:05Z</time>
      </trkpt>
      <trkpt lat="49.78402" lon="2.30085">
        <ele>116.8</ele>
        <time>2023-02-01T15:12:06Z</time>
      </trkpt>
      <trkpt lat="49.78401" lon="2.30083">
        <ele>116.8</ele>
        <time>2023-02-01T15:12:08Z</time>
      </trkpt>
      <trkpt lat="49.78401" lon="2.30081">
        <ele>116.8</ele>
        <time>2023-02-01T15:12:09Z</time>
      </trkpt>
      <trkpt lat="49.78401" lon="2.30079">
        <ele>116.8</ele>
        <time>2023-02-01T15:12:10Z</time>
      </trkpt>
      <trkpt lat="49.784" lon="2.30078">
        <ele>116.8</ele>
        <time>2023-02-01T15:12:11Z</time>
      </trkpt>
      <trkpt lat="49.784" lon="2.30075">
        <ele>116.7</ele>
        <time>2023-02-01T15:12:12Z</time>
      </trkpt>
      <trkpt lat="49.784" lon="2.30073">
        <ele>116.7</ele>
        <time>2023-02-01T15:12:13Z</time>
      </trkpt>
      <trkpt lat="49.784" lon="2.30072">
        <ele>116.7</ele>
        <time>2023-02-01T15:12:14Z</time>
      </trkpt>
      <trkpt lat="49.784" lon="2.3007">
        <ele>116.7</ele>
        <time>2023-02-01T15:12:15Z</time>
      </trkpt>
      <trkpt lat="49.784" lon="2.30068">
        <ele>116.6</ele>
        <time>2023-02-01T15:12:17Z</time>
      </trkpt>
      <trkpt lat="49.78401" lon="2.30067">
        <ele>116.6</ele>
        <time>2023-02-01T15:12:18Z</time>
      </trkpt>
      <trkpt lat="49.78401" lon="2.30065">
        <ele>116.6</ele>
        <time>2023-02-01T15:12:19Z</time>
      </trkpt>
      <trkpt lat="49.78403" lon="2.30064">
        <ele>116.5</ele>
        <time>2023-02-01T15:12:20Z</time>
      </trkpt>
      <trkpt lat="49.78403" lon="2.30062">
        <ele>116.5</ele>
        <time>2023-02-01T15:12:21Z</time>
      </trkpt>
      <trkpt lat="49.78404" lon="2.30061">
        <ele>116.4</ele>
        <time>2023-02-01T15:12:23Z</time>
      </trkpt>
      <trkpt lat="49.78405" lon="2.30059">
        <ele>116.4</ele>
        <time>2023-02-01T15:12:24Z</time>
      </trkpt>
      <trkpt lat="49.78407" lon="2.30056">
        <ele>116.3</ele>
        <time>2023-02-01T15:12:25Z</time>
      </trkpt>
      <trkpt lat="49.78408" lon="2.30055">
        <ele>116.3</ele>
        <time>2023-02-01T15:12:27Z</time>
      </trkpt>
      <trkpt lat="49.78408" lon="2.30054">
        <ele>116.2</ele>
        <time>2023-02-01T15:12:28Z</time>
      </trkpt>
      <trkpt lat="49.78409" lon="2.30053">
        <ele>116.2</ele>
        <time>2023-02-01T15:12:29Z</time>
      </trkpt>
      <trkpt lat="49.7841" lon="2.30052">
        <ele>116.2</ele>
        <time>2023-02-01T15:12:30Z</time>
      </trkpt>
      <trkpt lat="49.78411" lon="2.30051">
        <ele>116.1</ele>
        <time>2023-02-01T15:12:32Z</time>
      </trkpt>
      <trkpt lat="49.78412" lon="2.3005">
        <ele>116.1</ele>
        <time>2023-02-01T15:12:33Z</time>
      </trkpt>
      <trkpt lat="49.78413" lon="2.30048">
        <ele>116</ele>
        <time>2023-02-01T15:12:35Z</time>
      </trkpt>
      <trkpt lat="49.78414" lon="2.30047">
        <ele>116</ele>
        <time>2023-02-01T15:12:36Z</time>
      </trkpt>
      <trkpt lat="49.78415" lon="2.30047">
        <ele>116</ele>
        <time>2023-02-01T15:12:37Z</time>
      </trkpt>
      <trkpt lat="49.78416" lon="2.30045">
        <ele>115.9</ele>
        <time>2023-02-01T15:12:38Z</time>
      </trkpt>
      <trkpt lat="49.78416" lon="2.30045">
        <ele>115.9</ele>
        <time>2023-02-01T15:12:39Z</time>
      </trkpt>
      <trkpt lat="49.78417" lon="2.30043">
        <ele>115.9</ele>
        <time>2023-02-01T15:12:40Z</time>
      </trkpt>
      <trkpt lat="49.78418" lon="2.30042">
        <ele>115.8</ele>
        <time>2023-02-01T15:12:41Z</time>
      </trkpt>
      <trkpt lat="49.78418" lon="2.30041">
        <ele>115.8</ele>
        <time>2023-02-01T15:12:43Z</time>
      </trkpt>
      <trkpt lat="49.78419" lon="2.3004">
        <ele>115.8</ele>
        <time>2023-02-01T15:12:44Z</time>
      </trkpt>
      <trkpt lat="49.7842" lon="2.30038">
        <ele>115.7</ele>
        <time>2023-02-01T15:12:45Z</time>
      </trkpt>
      <trkpt lat="49.7842" lon="2.30037">
        <ele>115.7</ele>
        <time>2023-02-01T15:12:46Z</time>
      </trkpt>
      <trkpt lat="49.78421" lon="2.30036">
        <ele>115.6</ele>
        <time>2023-02-01T15:12:47Z</time>
      </trkpt>
      <trkpt lat="49.78422" lon="2.30033">
        <ele>115.6</ele>
        <time>2023-02-01T15:12:48Z</time>
      </trkpt>
      <trkpt lat="49.78423" lon="2.30033">
        <ele>115.5</ele>
        <time>2023-02-01T15:12:50Z</time>
      </trkpt>
      <trkpt lat="49.78424" lon="2.30032">
        <ele>115.5</ele>
        <time>2023-02-01T15:12:51Z</time>
      </trkpt>
      <trkpt lat="49.78424" lon="2.30031">
        <ele>115.5</ele>
        <time>2023-02-01T15:12:52Z</time>
      </trkpt>
      <trkpt lat="49.78425" lon="2.3003">
        <ele>115.4</ele>
        <time>2023-02-01T15:12:53Z</time>
      </trkpt>
      <trkpt lat="49.78426" lon="2.30028">
        <ele>115.4</ele>
        <time>2023-02-01T15:12:54Z</time>
      </trkpt>
      <trkpt lat="49.78427" lon="2.30026">
        <ele>115.3</ele>
        <time>2023-02-01T15:12:55Z</time>
      </trkpt>
      <trkpt lat="49.78427" lon="2.30025">
        <ele>115.3</ele>
        <time>2023-02-01T15:12:57Z</time>
      </trkpt>
      <trkpt lat="49.78428" lon="2.30024">
        <ele>115.3</ele>
        <time>2023-02-01T15:12:58Z</time>
      </trkpt>
      <trkpt lat="49.78428" lon="2.30022">
        <ele>115.2</ele>
        <time>2023-02-01T15:12:59Z</time>
      </trkpt>
      <trkpt lat="49.78429" lon="2.3002">
        <ele>115.2</ele>
        <time>2023-02-01T15:13:00Z</time>
      </trkpt>
      <trkpt lat="49.7843" lon="2.30019">
        <ele>115.2</ele>
        <time>2023-02-01T15:13:01Z</time>
      </trkpt>
      <trkpt lat="49.7843" lon="2.30018">
        <ele>115.1</ele>
        <time>2023-02-01T15:13:03Z</time>
      </trkpt>
      <trkpt lat="49.78432" lon="2.30015">
        <ele>115</ele>
        <time>2023-02-01T15:13:04Z</time>
      </trkpt>
      <trkpt lat="49.78432" lon="2.30014">
        <ele>115</ele>
        <time>2023-02-01T15:13:06Z</time>
      </trkpt>
      <trkpt lat="49.78433" lon="2.30013">
        <ele>115</ele>
        <time>2023-02-01T15:13:07Z</time>
      </trkpt>
      <trkpt lat="49.78434" lon="2.30012">
        <ele>114.9</ele>
        <time>2023-02-01T15:13:08Z</time>
      </trkpt>
      <trkpt lat="49.78434" lon="2.30011">
        <ele>114.9</ele>
        <time>2023-02-01T15:13:09Z</time>
      </trkpt>
      <trkpt lat="49.78435" lon="2.30009">
        <ele>114.8</ele>
        <time>2023-02-01T15:13:10Z</time>
      </trkpt>
      <trkpt lat="49.78436" lon="2.30008">
        <ele>114.8</ele>
        <time>2023-02-01T15:13:11Z</time>
      </trkpt>
      <trkpt lat="49.78437" lon="2.30007">
        <ele>114.8</ele>
        <time>2023-02-01T15:13:13Z</time>
      </trkpt>
      <trkpt lat="49.78437" lon="2.30006">
        <ele>114.7</ele>
        <time>2023-02-01T15:13:14Z</time>
      </trkpt>
      <trkpt lat="49.78438" lon="2.30004">
        <ele>114.6</ele>
        <time>2023-02-01T15:13:15Z</time>
      </trkpt>
      <trkpt lat="49.78439" lon="2.30003">
        <ele>114.6</ele>
        <time>2023-02-01T15:13:16Z</time>
      </trkpt>
      <trkpt lat="49.7844" lon="2.30002">
        <ele>114.6</ele>
        <time>2023-02-01T15:13:17Z</time>
      </trkpt>
      <trkpt lat="49.78441" lon="2.30001">
        <ele>114.5</ele>
        <time>2023-02-01T15:13:18Z</time>
      </trkpt>
      <trkpt lat="49.78441" lon="2.30001">
        <ele>114.5</ele>
        <time>2023-02-01T15:13:20Z</time>
      </trkpt>
      <trkpt lat="49.78442" lon="2.29999">
        <ele>114.4</ele>
        <time>2023-02-01T15:13:21Z</time>
      </trkpt>
      <trkpt lat="49.78443" lon="2.29998">
        <ele>114.4</ele>
        <time>2023-02-01T15:13:22Z</time>
      </trkpt>
      <trkpt lat="49.78444" lon="2.29997">
        <ele>114.3</ele>
        <time>2023-02-01T15:13:23Z</time>
      </trkpt>
      <trkpt lat="49.78444" lon="2.29996">
        <ele>114.3</ele>
        <time>2023-02-01T15:13:24Z</time>
      </trkpt>
      <trkpt lat="49.78445" lon="2.29995">
        <ele>114.2</ele>
        <time>2023-02-01T15:13:26Z</time>
      </trkpt>
      <trkpt lat="49.78446" lon="2.29994">
        <ele>114.1</ele>
        <time>2023-02-01T15:13:27Z</time>
      </trkpt>
      <trkpt lat="49.78447" lon="2.29993">
        <ele>114.1</ele>
        <time>2023-02-01T15:13:28Z</time>
      </trkpt>
      <trkpt lat="49.78447" lon="2.29991">
        <ele>114</ele>
        <time>2023-02-01T15:13:29Z</time>
      </trkpt>
      <trkpt lat="49.78448" lon="2.2999">
        <ele>113.9</ele>
        <time>2023-02-01T15:13:30Z</time>
      </trkpt>
      <trkpt lat="49.78449" lon="2.29989">
        <ele>113.9</ele>
        <time>2023-02-01T15:13:32Z</time>
      </trkpt>
      <trkpt lat="49.7845" lon="2.29988">
        <ele>113.8</ele>
        <time>2023-02-01T15:13:33Z</time>
      </trkpt>
      <trkpt lat="49.7845" lon="2.29987">
        <ele>113.8</ele>
        <time>2023-02-01T15:13:34Z</time>
      </trkpt>
      <trkpt lat="49.78451" lon="2.29985">
        <ele>113.7</ele>
        <time>2023-02-01T15:13:35Z</time>
      </trkpt>
      <trkpt lat="49.78452" lon="2.29984">
        <ele>113.7</ele>
        <time>2023-02-01T15:13:36Z</time>
      </trkpt>
      <trkpt lat="49.78452" lon="2.29983">
        <ele>113.6</ele>
        <time>2023-02-01T15:13:37Z</time>
      </trkpt>
      <trkpt lat="49.78453" lon="2.29982">
        <ele>113.5</ele>
        <time>2023-02-01T15:13:39Z</time>
      </trkpt>
      <trkpt lat="49.78454" lon="2.29981">
        <ele>113.5</ele>
        <time>2023-02-01T15:13:40Z</time>
      </trkpt>
      <trkpt lat="49.78454" lon="2.29979">
        <ele>113.4</ele>
        <time>2023-02-01T15:13:41Z</time>
      </trkpt>
      <trkpt lat="49.78455" lon="2.29978">
        <ele>113.3</ele>
        <time>2023-02-01T15:13:42Z</time>
      </trkpt>
      <trkpt lat="49.78456" lon="2.29977">
        <ele>113.3</ele>
        <time>2023-02-01T15:13:43Z</time>
      </trkpt>
      <trkpt lat="49.78457" lon="2.29976">
        <ele>113.2</ele>
        <time>2023-02-01T15:13:45Z</time>
      </trkpt>
      <trkpt lat="49.78458" lon="2.29975">
        <ele>113.1</ele>
        <time>2023-02-01T15:13:46Z</time>
      </trkpt>
      <trkpt lat="49.78459" lon="2.29974">
        <ele>113</ele>
        <time>2023-02-01T15:13:48Z</time>
      </trkpt>
      <trkpt lat="49.78461" lon="2.29973">
        <ele>112.9</ele>
        <time>2023-02-01T15:13:49Z</time>
      </trkpt>
      <trkpt lat="49.78461" lon="2.29972">
        <ele>112.9</ele>
        <time>2023-02-01T15:13:50Z</time>
      </trkpt>
      <trkpt lat="49.78462" lon="2.29971">
        <ele>112.8</ele>
        <time>2023-02-01T15:13:51Z</time>
      </trkpt>
      <trkpt lat="49.78463" lon="2.2997">
        <ele>112.7</ele>
        <time>2023-02-01T15:13:53Z</time>
      </trkpt>
      <trkpt lat="49.78464" lon="2.29969">
        <ele>112.7</ele>
        <time>2023-02-01T15:13:54Z</time>
      </trkpt>
      <trkpt lat="49.78464" lon="2.29968">
        <ele>112.6</ele>
        <time>2023-02-01T15:13:55Z</time>
      </trkpt>
      <trkpt lat="49.78465" lon="2.29968">
        <ele>112.6</ele>
        <time>2023-02-01T15:13:56Z</time>
      </trkpt>
      <trkpt lat="49.78466" lon="2.29967">
        <ele>112.5</ele>
        <time>2023-02-01T15:13:57Z</time>
      </trkpt>
      <trkpt lat="49.78466" lon="2.29965">
        <ele>112.4</ele>
        <time>2023-02-01T15:13:58Z</time>
      </trkpt>
      <trkpt lat="49.78467" lon="2.29964">
        <ele>112.4</ele>
        <time>2023-02-01T15:14:00Z</time>
      </trkpt>
      <trkpt lat="49.78468" lon="2.29963">
        <ele>112.3</ele>
        <time>2023-02-01T15:14:01Z</time>
      </trkpt>
      <trkpt lat="49.78469" lon="2.29963">
        <ele>112.2</ele>
        <time>2023-02-01T15:14:02Z</time>
      </trkpt>
      <trkpt lat="49.7847" lon="2.29961">
        <ele>112.1</ele>
        <time>2023-02-01T15:14:03Z</time>
      </trkpt>
      <trkpt lat="49.78471" lon="2.2996">
        <ele>112.1</ele>
        <time>2023-02-01T15:14:05Z</time>
      </trkpt>
      <trkpt lat="49.78472" lon="2.2996">
        <ele>112</ele>
        <time>2023-02-01T15:14:06Z</time>
      </trkpt>
      <trkpt lat="49.78473" lon="2.29959">
        <ele>111.9</ele>
        <time>2023-02-01T15:14:07Z</time>
      </trkpt>
      <trkpt lat="49.78474" lon="2.29958">
        <ele>111.9</ele>
        <time>2023-02-01T15:14:08Z</time>
      </trkpt>
      <trkpt lat="49.78474" lon="2.29958">
        <ele>111.8</ele>
        <time>2023-02-01T15:14:09Z</time>
      </trkpt>
      <trkpt lat="49.78476" lon="2.29957">
        <ele>111.7</ele>
        <time>2023-02-01T15:14:11Z</time>
      </trkpt>
      <trkpt lat="49.78476" lon="2.29956">
        <ele>111.7</ele>
        <time>2023-02-01T15:14:12Z</time>
      </trkpt>
      <trkpt lat="49.78477" lon="2.29956">
        <ele>111.6</ele>
        <time>2023-02-01T15:14:13Z</time>
      </trkpt>
      <trkpt lat="49.78478" lon="2.29955">
        <ele>111.6</ele>
        <time>2023-02-01T15:14:14Z</time>
      </trkpt>
      <trkpt lat="49.78478" lon="2.29955">
        <ele>111.5</ele>
        <time>2023-02-01T15:14:15Z</time>
      </trkpt>
      <trkpt lat="49.7848" lon="2.29954">
        <ele>111.4</ele>
        <time>2023-02-01T15:14:16Z</time>
      </trkpt>
      <trkpt lat="49.7848" lon="2.29954">
        <ele>111.4</ele>
        <time>2023-02-01T15:14:17Z</time>
      </trkpt>
      <trkpt lat="49.78481" lon="2.29953">
        <ele>111.3</ele>
        <time>2023-02-01T15:14:19Z</time>
      </trkpt>
      <trkpt lat="49.78482" lon="2.29953">
        <ele>111.3</ele>
        <time>2023-02-01T15:14:20Z</time>
      </trkpt>
      <trkpt lat="49.78483" lon="2.29952">
        <ele>111.2</ele>
        <time>2023-02-01T15:14:21Z</time>
      </trkpt>
      <trkpt lat="49.78484" lon="2.29952">
        <ele>111.1</ele>
        <time>2023-02-01T15:14:22Z</time>
      </trkpt>
      <trkpt lat="49.78485" lon="2.29951">
        <ele>111.1</ele>
        <time>2023-02-01T15:14:23Z</time>
      </trkpt>
      <trkpt lat="49.78486" lon="2.29951">
        <ele>111</ele>
        <time>2023-02-01T15:14:24Z</time>
      </trkpt>
      <trkpt lat="49.78487" lon="2.2995">
        <ele>110.9</ele>
        <time>2023-02-01T15:14:25Z</time>
      </trkpt>
      <trkpt lat="49.78488" lon="2.29949">
        <ele>110.8</ele>
        <time>2023-02-01T15:14:26Z</time>
      </trkpt>
      <trkpt lat="49.78489" lon="2.29949">
        <ele>110.7</ele>
        <time>2023-02-01T15:14:28Z</time>
      </trkpt>
      <trkpt lat="49.7849" lon="2.29948">
        <ele>110.6</ele>
        <time>2023-02-01T15:14:29Z</time>
      </trkpt>
      <trkpt lat="49.78491" lon="2.29947">
        <ele>110.6</ele>
        <time>2023-02-01T15:14:30Z</time>
      </trkpt>
      <trkpt lat="49.78492" lon="2.29946">
        <ele>110.5</ele>
        <time>2023-02-01T15:14:31Z</time>
      </trkpt>
      <trkpt lat="49.78493" lon="2.29945">
        <ele>110.4</ele>
        <time>2023-02-01T15:14:32Z</time>
      </trkpt>
      <trkpt lat="49.78494" lon="2.29944">
        <ele>110.3</ele>
        <time>2023-02-01T15:14:34Z</time>
      </trkpt>
      <trkpt lat="49.78494" lon="2.29944">
        <ele>110.2</ele>
        <time>2023-02-01T15:14:35Z</time>
      </trkpt>
      <trkpt lat="49.78495" lon="2.29943">
        <ele>110.1</ele>
        <time>2023-02-01T15:14:36Z</time>
      </trkpt>
      <trkpt lat="49.78497" lon="2.29942">
        <ele>110</ele>
        <time>2023-02-01T15:14:37Z</time>
      </trkpt>
      <trkpt lat="49.78497" lon="2.29941">
        <ele>110</ele>
        <time>2023-02-01T15:14:38Z</time>
      </trkpt>
      <trkpt lat="49.78498" lon="2.2994">
        <ele>109.9</ele>
        <time>2023-02-01T15:14:39Z</time>
      </trkpt>
      <trkpt lat="49.78499" lon="2.2994">
        <ele>109.9</ele>
        <time>2023-02-01T15:14:40Z</time>
      </trkpt>
      <trkpt lat="49.785" lon="2.29939">
        <ele>109.8</ele>
        <time>2023-02-01T15:14:41Z</time>
      </trkpt>
      <trkpt lat="49.785" lon="2.29938">
        <ele>109.7</ele>
        <time>2023-02-01T15:14:42Z</time>
      </trkpt>
      <trkpt lat="49.78501" lon="2.29937">
        <ele>109.6</ele>
        <time>2023-02-01T15:14:44Z</time>
      </trkpt>
      <trkpt lat="49.78502" lon="2.29936">
        <ele>109.5</ele>
        <time>2023-02-01T15:14:45Z</time>
      </trkpt>
      <trkpt lat="49.78503" lon="2.29935">
        <ele>109.4</ele>
        <time>2023-02-01T15:14:46Z</time>
      </trkpt>
      <trkpt lat="49.78504" lon="2.29934">
        <ele>109.4</ele>
        <time>2023-02-01T15:14:47Z</time>
      </trkpt>
      <trkpt lat="49.78505" lon="2.29933">
        <ele>109.3</ele>
        <time>2023-02-01T15:14:48Z</time>
      </trkpt>
      <trkpt lat="49.78505" lon="2.29932">
        <ele>109.2</ele>
        <time>2023-02-01T15:14:49Z</time>
      </trkpt>
      <trkpt lat="49.78507" lon="2.2993">
        <ele>109</ele>
        <time>2023-02-01T15:14:51Z</time>
      </trkpt>
      <trkpt lat="49.78507" lon="2.29929">
        <ele>109</ele>
        <time>2023-02-01T15:14:52Z</time>
      </trkpt>
      <trkpt lat="49.78508" lon="2.29928">
        <ele>108.9</ele>
        <time>2023-02-01T15:14:53Z</time>
      </trkpt>
      <trkpt lat="49.78509" lon="2.29927">
        <ele>108.8</ele>
        <time>2023-02-01T15:14:54Z</time>
      </trkpt>
      <trkpt lat="49.78509" lon="2.29926">
        <ele>108.7</ele>
        <time>2023-02-01T15:14:55Z</time>
      </trkpt>
      <trkpt lat="49.78511" lon="2.29924">
        <ele>108.6</ele>
        <time>2023-02-01T15:14:56Z</time>
      </trkpt>
      <trkpt lat="49.78511" lon="2.29923">
        <ele>108.5</ele>
        <time>2023-02-01T15:14:58Z</time>
      </trkpt>
      <trkpt lat="49.78512" lon="2.29922">
        <ele>108.4</ele>
        <time>2023-02-01T15:14:59Z</time>
      </trkpt>
      <trkpt lat="49.78513" lon="2.29921">
        <ele>108.3</ele>
        <time>2023-02-01T15:15:00Z</time>
      </trkpt>
      <trkpt lat="49.78514" lon="2.2992">
        <ele>108.2</ele>
        <time>2023-02-01T15:15:01Z</time>
      </trkpt>
      <trkpt lat="49.78516" lon="2.29919">
        <ele>108</ele>
        <time>2023-02-01T15:15:02Z</time>
      </trkpt>
      <trkpt lat="49.78517" lon="2.29919">
        <ele>108</ele>
        <time>2023-02-01T15:15:03Z</time>
      </trkpt>
      <trkpt lat="49.78518" lon="2.29918">
        <ele>107.9</ele>
        <time>2023-02-01T15:15:04Z</time>
      </trkpt>
      <trkpt lat="49.7852" lon="2.29917">
        <ele>107.7</ele>
        <time>2023-02-01T15:15:06Z</time>
      </trkpt>
      <trkpt lat="49.7852" lon="2.29916">
        <ele>107.7</ele>
        <time>2023-02-01T15:15:07Z</time>
      </trkpt>
      <trkpt lat="49.78521" lon="2.29916">
        <ele>107.6</ele>
        <time>2023-02-01T15:15:08Z</time>
      </trkpt>
      <trkpt lat="49.78522" lon="2.29914">
        <ele>107.5</ele>
        <time>2023-02-01T15:15:09Z</time>
      </trkpt>
      <trkpt lat="49.78523" lon="2.29913">
        <ele>107.4</ele>
        <time>2023-02-01T15:15:10Z</time>
      </trkpt>
      <trkpt lat="49.78523" lon="2.29912">
        <ele>107.3</ele>
        <time>2023-02-01T15:15:12Z</time>
      </trkpt>
      <trkpt lat="49.78524" lon="2.29911">
        <ele>107.2</ele>
        <time>2023-02-01T15:15:13Z</time>
      </trkpt>
      <trkpt lat="49.78525" lon="2.2991">
        <ele>107.1</ele>
        <time>2023-02-01T15:15:14Z</time>
      </trkpt>
      <trkpt lat="49.78525" lon="2.29909">
        <ele>107</ele>
        <time>2023-02-01T15:15:15Z</time>
      </trkpt>
      <trkpt lat="49.78526" lon="2.29907">
        <ele>106.9</ele>
        <time>2023-02-01T15:15:16Z</time>
      </trkpt>
      <trkpt lat="49.78527" lon="2.29906">
        <ele>106.9</ele>
        <time>2023-02-01T15:15:17Z</time>
      </trkpt>
      <trkpt lat="49.78527" lon="2.29905">
        <ele>106.8</ele>
        <time>2023-02-01T15:15:18Z</time>
      </trkpt>
      <trkpt lat="49.78528" lon="2.29904">
        <ele>106.6</ele>
        <time>2023-02-01T15:15:20Z</time>
      </trkpt>
      <trkpt lat="49.78529" lon="2.29902">
        <ele>106.5</ele>
        <time>2023-02-01T15:15:22Z</time>
      </trkpt>
      <trkpt lat="49.7853" lon="2.29901">
        <ele>106.4</ele>
        <time>2023-02-01T15:15:23Z</time>
      </trkpt>
      <trkpt lat="49.78531" lon="2.299">
        <ele>106.4</ele>
        <time>2023-02-01T15:15:24Z</time>
      </trkpt>
      <trkpt lat="49.78531" lon="2.29899">
        <ele>106.3</ele>
        <time>2023-02-01T15:15:25Z</time>
      </trkpt>
      <trkpt lat="49.78532" lon="2.29897">
        <ele>106.2</ele>
        <time>2023-02-01T15:15:26Z</time>
      </trkpt>
      <trkpt lat="49.78532" lon="2.29895">
        <ele>106.1</ele>
        <time>2023-02-01T15:15:27Z</time>
      </trkpt>
      <trkpt lat="49.78533" lon="2.29893">
        <ele>106</ele>
        <time>2023-02-01T15:15:29Z</time>
      </trkpt>
      <trkpt lat="49.78533" lon="2.29892">
        <ele>105.9</ele>
        <time>2023-02-01T15:15:31Z</time>
      </trkpt>
      <trkpt lat="49.78534" lon="2.2989">
        <ele>105.8</ele>
        <time>2023-02-01T15:15:32Z</time>
      </trkpt>
      <trkpt lat="49.78534" lon="2.29889">
        <ele>105.8</ele>
        <time>2023-02-01T15:15:33Z</time>
      </trkpt>
      <trkpt lat="49.78534" lon="2.29888">
        <ele>105.7</ele>
        <time>2023-02-01T15:15:34Z</time>
      </trkpt>
      <trkpt lat="49.78534" lon="2.29887">
        <ele>105.6</ele>
        <time>2023-02-01T15:15:36Z</time>
      </trkpt>
      <trkpt lat="49.78535" lon="2.29885">
        <ele>105.6</ele>
        <time>2023-02-01T15:15:37Z</time>
      </trkpt>
      <trkpt lat="49.78534" lon="2.29883">
        <ele>105.5</ele>
        <time>2023-02-01T15:15:38Z</time>
      </trkpt>
      <trkpt lat="49.78534" lon="2.29881">
        <ele>105.4</ele>
        <time>2023-02-01T15:15:39Z</time>
      </trkpt>
      <trkpt lat="49.78534" lon="2.2988">
        <ele>105.4</ele>
        <time>2023-02-01T15:15:40Z</time>
      </trkpt>
      <trkpt lat="49.78534" lon="2.29879">
        <ele>105.3</ele>
        <time>2023-02-01T15:15:41Z</time>
      </trkpt>
      <trkpt lat="49.78534" lon="2.29878">
        <ele>105.3</ele>
        <time>2023-02-01T15:15:42Z</time>
      </trkpt>
      <trkpt lat="49.78534" lon="2.29877">
        <ele>105.2</ele>
        <time>2023-02-01T15:15:43Z</time>
      </trkpt>
      <trkpt lat="49.78534" lon="2.29875">
        <ele>105.1</ele>
        <time>2023-02-01T15:15:45Z</time>
      </trkpt>
      <trkpt lat="49.78534" lon="2.29874">
        <ele>105.1</ele>
        <time>2023-02-01T15:15:46Z</time>
      </trkpt>
      <trkpt lat="49.78534" lon="2.29872">
        <ele>105</ele>
        <time>2023-02-01T15:15:47Z</time>
      </trkpt>
      <trkpt lat="49.78534" lon="2.29871">
        <ele>105</ele>
        <time>2023-02-01T15:15:48Z</time>
      </trkpt>
      <trkpt lat="49.78534" lon="2.2987">
        <ele>104.9</ele>
        <time>2023-02-01T15:15:49Z</time>
      </trkpt>
      <trkpt lat="49.78535" lon="2.29868">
        <ele>104.8</ele>
        <time>2023-02-01T15:15:50Z</time>
      </trkpt>
      <trkpt lat="49.78535" lon="2.29866">
        <ele>104.7</ele>
        <time>2023-02-01T15:15:51Z</time>
      </trkpt>
      <trkpt lat="49.78535" lon="2.29865">
        <ele>104.7</ele>
        <time>2023-02-01T15:15:53Z</time>
      </trkpt>
      <trkpt lat="49.78536" lon="2.29863">
        <ele>104.6</ele>
        <time>2023-02-01T15:15:54Z</time>
      </trkpt>
      <trkpt lat="49.78536" lon="2.29862">
        <ele>104.5</ele>
        <time>2023-02-01T15:15:55Z</time>
      </trkpt>
      <trkpt lat="49.78537" lon="2.2986">
        <ele>104.4</ele>
        <time>2023-02-01T15:15:56Z</time>
      </trkpt>
      <trkpt lat="49.78537" lon="2.29859">
        <ele>104.4</ele>
        <time>2023-02-01T15:15:57Z</time>
      </trkpt>
      <trkpt lat="49.78537" lon="2.29857">
        <ele>104.3</ele>
        <time>2023-02-01T15:15:58Z</time>
      </trkpt>
      <trkpt lat="49.78538" lon="2.29856">
        <ele>104.2</ele>
        <time>2023-02-01T15:15:59Z</time>
      </trkpt>
      <trkpt lat="49.78538" lon="2.29854">
        <ele>104.1</ele>
        <time>2023-02-01T15:16:00Z</time>
      </trkpt>
      <trkpt lat="49.78539" lon="2.29852">
        <ele>104.1</ele>
        <time>2023-02-01T15:16:02Z</time>
      </trkpt>
      <trkpt lat="49.78539" lon="2.29851">
        <ele>104</ele>
        <time>2023-02-01T15:16:03Z</time>
      </trkpt>
      <trkpt lat="49.78539" lon="2.29848">
        <ele>104</ele>
        <time>2023-02-01T15:16:04Z</time>
      </trkpt>
      <trkpt lat="49.78539" lon="2.29846">
        <ele>103.9</ele>
        <time>2023-02-01T15:16:05Z</time>
      </trkpt>
      <trkpt lat="49.78539" lon="2.29845">
        <ele>103.9</ele>
        <time>2023-02-01T15:16:06Z</time>
      </trkpt>
      <trkpt lat="49.78539" lon="2.29844">
        <ele>103.9</ele>
        <time>2023-02-01T15:16:07Z</time>
      </trkpt>
      <trkpt lat="49.78538" lon="2.29843">
        <ele>103.8</ele>
        <time>2023-02-01T15:16:08Z</time>
      </trkpt>
      <trkpt lat="49.78538" lon="2.29841">
        <ele>103.8</ele>
        <time>2023-02-01T15:16:09Z</time>
      </trkpt>
      <trkpt lat="49.78538" lon="2.29839">
        <ele>103.8</ele>
        <time>2023-02-01T15:16:11Z</time>
      </trkpt>
      <trkpt lat="49.78538" lon="2.29837">
        <ele>103.7</ele>
        <time>2023-02-01T15:16:12Z</time>
      </trkpt>
      <trkpt lat="49.78538" lon="2.29836">
        <ele>103.7</ele>
        <time>2023-02-01T15:16:13Z</time>
      </trkpt>
      <trkpt lat="49.78538" lon="2.29834">
        <ele>103.6</ele>
        <time>2023-02-01T15:16:14Z</time>
      </trkpt>
      <trkpt lat="49.78537" lon="2.29833">
        <ele>103.6</ele>
        <time>2023-02-01T15:16:15Z</time>
      </trkpt>
      <trkpt lat="49.78537" lon="2.29831">
        <ele>103.6</ele>
        <time>2023-02-01T15:16:17Z</time>
      </trkpt>
      <trkpt lat="49.78536" lon="2.2983">
        <ele>103.5</ele>
        <time>2023-02-01T15:16:18Z</time>
      </trkpt>
      <trkpt lat="49.78536" lon="2.29828">
        <ele>103.5</ele>
        <time>2023-02-01T15:16:19Z</time>
      </trkpt>
      <trkpt lat="49.78535" lon="2.29827">
        <ele>103.5</ele>
        <time>2023-02-01T15:16:20Z</time>
      </trkpt>
      <trkpt lat="49.78535" lon="2.29825">
        <ele>103.4</ele>
        <time>2023-02-01T15:16:21Z</time>
      </trkpt>
      <trkpt lat="49.78534" lon="2.29824">
        <ele>103.4</ele>
        <time>2023-02-01T15:16:22Z</time>
      </trkpt>
      <trkpt lat="49.78534" lon="2.29823">
        <ele>103.4</ele>
        <time>2023-02-01T15:16:23Z</time>
      </trkpt>
      <trkpt lat="49.78533" lon="2.29821">
        <ele>103.3</ele>
        <time>2023-02-01T15:16:25Z</time>
      </trkpt>
      <trkpt lat="49.78532" lon="2.2982">
        <ele>103.3</ele>
        <time>2023-02-01T15:16:26Z</time>
      </trkpt>
      <trkpt lat="49.78532" lon="2.29818">
        <ele>103.2</ele>
        <time>2023-02-01T15:16:27Z</time>
      </trkpt>
      <trkpt lat="49.78531" lon="2.29817">
        <ele>103.2</ele>
        <time>2023-02-01T15:16:28Z</time>
      </trkpt>
      <trkpt lat="49.7853" lon="2.29816">
        <ele>103.2</ele>
        <time>2023-02-01T15:16:29Z</time>
      </trkpt>
      <trkpt lat="49.7853" lon="2.29815">
        <ele>103.1</ele>
        <time>2023-02-01T15:16:30Z</time>
      </trkpt>
      <trkpt lat="49.78528" lon="2.29813">
        <ele>103.1</ele>
        <time>2023-02-01T15:16:32Z</time>
      </trkpt>
      <trkpt lat="49.78528" lon="2.29812">
        <ele>103.1</ele>
        <time>2023-02-01T15:16:33Z</time>
      </trkpt>
      <trkpt lat="49.78527" lon="2.29811">
        <ele>103</ele>
        <time>2023-02-01T15:16:34Z</time>
      </trkpt>
      <trkpt lat="49.78525" lon="2.29809">
        <ele>102.9</ele>
        <time>2023-02-01T15:16:35Z</time>
      </trkpt>
      <trkpt lat="49.78525" lon="2.29808">
        <ele>102.9</ele>
        <time>2023-02-01T15:16:36Z</time>
      </trkpt>
      <trkpt lat="49.78524" lon="2.29807">
        <ele>102.9</ele>
        <time>2023-02-01T15:16:37Z</time>
      </trkpt>
      <trkpt lat="49.78523" lon="2.29806">
        <ele>102.8</ele>
        <time>2023-02-01T15:16:38Z</time>
      </trkpt>
      <trkpt lat="49.78522" lon="2.29805">
        <ele>102.8</ele>
        <time>2023-02-01T15:16:40Z</time>
      </trkpt>
      <trkpt lat="49.78521" lon="2.29803">
        <ele>102.7</ele>
        <time>2023-02-01T15:16:41Z</time>
      </trkpt>
      <trkpt lat="49.78519" lon="2.29802">
        <ele>102.7</ele>
        <time>2023-02-01T15:16:42Z</time>
      </trkpt>
      <trkpt lat="49.78518" lon="2.29801">
        <ele>102.6</ele>
        <time>2023-02-01T15:16:43Z</time>
      </trkpt>
      <trkpt lat="49.78517" lon="2.29799">
        <ele>102.6</ele>
        <time>2023-02-01T15:16:44Z</time>
      </trkpt>
      <trkpt lat="49.78517" lon="2.29798">
        <ele>102.5</ele>
        <time>2023-02-01T15:16:45Z</time>
      </trkpt>
      <trkpt lat="49.78515" lon="2.29796">
        <ele>102.4</ele>
        <time>2023-02-01T15:16:46Z</time>
      </trkpt>
      <trkpt lat="49.78514" lon="2.29795">
        <ele>102.4</ele>
        <time>2023-02-01T15:16:48Z</time>
      </trkpt>
      <trkpt lat="49.78514" lon="2.29794">
        <ele>102.4</ele>
        <time>2023-02-01T15:16:49Z</time>
      </trkpt>
      <trkpt lat="49.78513" lon="2.29792">
        <ele>102.3</ele>
        <time>2023-02-01T15:16:50Z</time>
      </trkpt>
      <trkpt lat="49.78512" lon="2.29791">
        <ele>102.3</ele>
        <time>2023-02-01T15:16:51Z</time>
      </trkpt>
      <trkpt lat="49.78512" lon="2.2979">
        <ele>102.3</ele>
        <time>2023-02-01T15:16:52Z</time>
      </trkpt>
      <trkpt lat="49.78511" lon="2.29788">
        <ele>102.2</ele>
        <time>2023-02-01T15:16:54Z</time>
      </trkpt>
      <trkpt lat="49.7851" lon="2.29787">
        <ele>102.2</ele>
        <time>2023-02-01T15:16:55Z</time>
      </trkpt>
      <trkpt lat="49.7851" lon="2.29785">
        <ele>102.2</ele>
        <time>2023-02-01T15:16:56Z</time>
      </trkpt>
      <trkpt lat="49.78509" lon="2.29783">
        <ele>102.1</ele>
        <time>2023-02-01T15:16:57Z</time>
      </trkpt>
      <trkpt lat="49.78509" lon="2.29781">
        <ele>102</ele>
        <time>2023-02-01T15:16:58Z</time>
      </trkpt>
      <trkpt lat="49.78508" lon="2.29778">
        <ele>102</ele>
        <time>2023-02-01T15:16:59Z</time>
      </trkpt>
      <trkpt lat="49.78508" lon="2.29777">
        <ele>101.9</ele>
        <time>2023-02-01T15:17:01Z</time>
      </trkpt>
      <trkpt lat="49.78507" lon="2.29776">
        <ele>101.9</ele>
        <time>2023-02-01T15:17:02Z</time>
      </trkpt>
      <trkpt lat="49.78507" lon="2.29773">
        <ele>101.8</ele>
        <time>2023-02-01T15:17:03Z</time>
      </trkpt>
      <trkpt lat="49.78506" lon="2.29772">
        <ele>101.7</ele>
        <time>2023-02-01T15:17:04Z</time>
      </trkpt>
      <trkpt lat="49.78506" lon="2.29771">
        <ele>101.7</ele>
        <time>2023-02-01T15:17:05Z</time>
      </trkpt>
      <trkpt lat="49.78504" lon="2.29768">
        <ele>101.6</ele>
        <time>2023-02-01T15:17:06Z</time>
      </trkpt>
      <trkpt lat="49.78504" lon="2.29767">
        <ele>101.5</ele>
        <time>2023-02-01T15:17:07Z</time>
      </trkpt>
      <trkpt lat="49.78504" lon="2.29766">
        <ele>101.5</ele>
        <time>2023-02-01T15:17:08Z</time>
      </trkpt>
      <trkpt lat="49.78503" lon="2.29763">
        <ele>101.4</ele>
        <time>2023-02-01T15:17:10Z</time>
      </trkpt>
      <trkpt lat="49.78502" lon="2.29762">
        <ele>101.3</ele>
        <time>2023-02-01T15:17:11Z</time>
      </trkpt>
      <trkpt lat="49.78502" lon="2.29761">
        <ele>101.3</ele>
        <time>2023-02-01T15:17:12Z</time>
      </trkpt>
      <trkpt lat="49.78501" lon="2.2976">
        <ele>101.2</ele>
        <time>2023-02-01T15:17:13Z</time>
      </trkpt>
      <trkpt lat="49.785" lon="2.29758">
        <ele>101.2</ele>
        <time>2023-02-01T15:17:14Z</time>
      </trkpt>
      <trkpt lat="49.785" lon="2.29757">
        <ele>101.1</ele>
        <time>2023-02-01T15:17:16Z</time>
      </trkpt>
      <trkpt lat="49.78499" lon="2.29754">
        <ele>101</ele>
        <time>2023-02-01T15:17:17Z</time>
      </trkpt>
      <trkpt lat="49.78499" lon="2.29753">
        <ele>101</ele>
        <time>2023-02-01T15:17:18Z</time>
      </trkpt>
      <trkpt lat="49.78499" lon="2.29752">
        <ele>100.9</ele>
        <time>2023-02-01T15:17:19Z</time>
      </trkpt>
      <trkpt lat="49.78498" lon="2.2975">
        <ele>100.9</ele>
        <time>2023-02-01T15:17:20Z</time>
      </trkpt>
      <trkpt lat="49.78498" lon="2.29749">
        <ele>100.8</ele>
        <time>2023-02-01T15:17:21Z</time>
      </trkpt>
      <trkpt lat="49.78498" lon="2.29746">
        <ele>100.7</ele>
        <time>2023-02-01T15:17:23Z</time>
      </trkpt>
      <trkpt lat="49.78498" lon="2.29745">
        <ele>100.7</ele>
        <time>2023-02-01T15:17:24Z</time>
      </trkpt>
      <trkpt lat="49.78498" lon="2.29743">
        <ele>100.6</ele>
        <time>2023-02-01T15:17:25Z</time>
      </trkpt>
      <trkpt lat="49.78497" lon="2.29741">
        <ele>100.5</ele>
        <time>2023-02-01T15:17:26Z</time>
      </trkpt>
      <trkpt lat="49.78497" lon="2.29739">
        <ele>100.4</ele>
        <time>2023-02-01T15:17:27Z</time>
      </trkpt>
      <trkpt lat="49.78497" lon="2.29737">
        <ele>100.4</ele>
        <time>2023-02-01T15:17:28Z</time>
      </trkpt>
      <trkpt lat="49.78496" lon="2.29735">
        <ele>100.3</ele>
        <time>2023-02-01T15:17:30Z</time>
      </trkpt>
      <trkpt lat="49.78496" lon="2.29733">
        <ele>100.2</ele>
        <time>2023-02-01T15:17:31Z</time>
      </trkpt>
      <trkpt lat="49.78495" lon="2.29731">
        <ele>100.1</ele>
        <time>2023-02-01T15:17:32Z</time>
      </trkpt>
      <trkpt lat="49.78495" lon="2.2973">
        <ele>100.1</ele>
        <time>2023-02-01T15:17:33Z</time>
      </trkpt>
      <trkpt lat="49.78495" lon="2.29728">
        <ele>100</ele>
        <time>2023-02-01T15:17:34Z</time>
      </trkpt>
      <trkpt lat="49.78494" lon="2.29726">
        <ele>99.9</ele>
        <time>2023-02-01T15:17:35Z</time>
      </trkpt>
      <trkpt lat="49.78494" lon="2.29724">
        <ele>99.8</ele>
        <time>2023-02-01T15:17:36Z</time>
      </trkpt>
      <trkpt lat="49.78494" lon="2.29722">
        <ele>99.7</ele>
        <time>2023-02-01T15:17:37Z</time>
      </trkpt>
      <trkpt lat="49.78493" lon="2.29719">
        <ele>99.6</ele>
        <time>2023-02-01T15:17:38Z</time>
      </trkpt>
      <trkpt lat="49.78493" lon="2.29718">
        <ele>99.5</ele>
        <time>2023-02-01T15:17:40Z</time>
      </trkpt>
      <trkpt lat="49.78493" lon="2.29716">
        <ele>99.5</ele>
        <time>2023-02-01T15:17:41Z</time>
      </trkpt>
      <trkpt lat="49.78492" lon="2.29715">
        <ele>99.4</ele>
        <time>2023-02-01T15:17:42Z</time>
      </trkpt>
      <trkpt lat="49.78491" lon="2.29714">
        <ele>99.3</ele>
        <time>2023-02-01T15:17:44Z</time>
      </trkpt>
      <trkpt lat="49.7849" lon="2.29714">
        <ele>99.3</ele>
        <time>2023-02-01T15:17:45Z</time>
      </trkpt>
      <trkpt lat="49.7849" lon="2.29715">
        <ele>99.2</ele>
        <time>2023-02-01T15:17:46Z</time>
      </trkpt>
      <trkpt lat="49.78489" lon="2.29718">
        <ele>99.1</ele>
        <time>2023-02-01T15:17:48Z</time>
      </trkpt>
      <trkpt lat="49.78489" lon="2.29718">
        <ele>99.1</ele>
        <time>2023-02-01T15:17:49Z</time>
      </trkpt>
      <trkpt lat="49.78489" lon="2.29717">
        <ele>99.1</ele>
        <time>2023-02-01T15:17:50Z</time>
      </trkpt>
      <trkpt lat="49.78489" lon="2.29717">
        <ele>99</ele>
        <time>2023-02-01T15:17:51Z</time>
      </trkpt>
      <trkpt lat="49.78489" lon="2.29715">
        <ele>99</ele>
        <time>2023-02-01T15:17:53Z</time>
      </trkpt>
      <trkpt lat="49.78489" lon="2.29714">
        <ele>98.9</ele>
        <time>2023-02-01T15:17:54Z</time>
      </trkpt>
      <trkpt lat="49.78489" lon="2.29713">
        <ele>98.9</ele>
        <time>2023-02-01T15:17:55Z</time>
      </trkpt>
      <trkpt lat="49.78489" lon="2.29711">
        <ele>98.8</ele>
        <time>2023-02-01T15:17:56Z</time>
      </trkpt>
      <trkpt lat="49.78488" lon="2.29708">
        <ele>98.6</ele>
        <time>2023-02-01T15:17:57Z</time>
      </trkpt>
      <trkpt lat="49.78488" lon="2.29707">
        <ele>98.6</ele>
        <time>2023-02-01T15:17:58Z</time>
      </trkpt>
      <trkpt lat="49.78488" lon="2.29705">
        <ele>98.5</ele>
        <time>2023-02-01T15:17:59Z</time>
      </trkpt>
      <trkpt lat="49.78488" lon="2.29704">
        <ele>98.4</ele>
        <time>2023-02-01T15:18:01Z</time>
      </trkpt>
      <trkpt lat="49.78488" lon="2.29702">
        <ele>98.3</ele>
        <time>2023-02-01T15:18:02Z</time>
      </trkpt>
      <trkpt lat="49.78488" lon="2.297">
        <ele>98.2</ele>
        <time>2023-02-01T15:18:03Z</time>
      </trkpt>
      <trkpt lat="49.78488" lon="2.29699">
        <ele>98.2</ele>
        <time>2023-02-01T15:18:04Z</time>
      </trkpt>
      <trkpt lat="49.78488" lon="2.29697">
        <ele>98.1</ele>
        <time>2023-02-01T15:18:05Z</time>
      </trkpt>
      <trkpt lat="49.78488" lon="2.29695">
        <ele>98</ele>
        <time>2023-02-01T15:18:06Z</time>
      </trkpt>
      <trkpt lat="49.78488" lon="2.29694">
        <ele>97.9</ele>
        <time>2023-02-01T15:18:07Z</time>
      </trkpt>
      <trkpt lat="49.78488" lon="2.29692">
        <ele>97.8</ele>
        <time>2023-02-01T15:18:08Z</time>
      </trkpt>
      <trkpt lat="49.78488" lon="2.2969">
        <ele>97.7</ele>
        <time>2023-02-01T15:18:10Z</time>
      </trkpt>
      <trkpt lat="49.78488" lon="2.29689">
        <ele>97.6</ele>
        <time>2023-02-01T15:18:11Z</time>
      </trkpt>
      <trkpt lat="49.78488" lon="2.29687">
        <ele>97.5</ele>
        <time>2023-02-01T15:18:12Z</time>
      </trkpt>
      <trkpt lat="49.78488" lon="2.29686">
        <ele>97.4</ele>
        <time>2023-02-01T15:18:13Z</time>
      </trkpt>
      <trkpt lat="49.78487" lon="2.29683">
        <ele>97.2</ele>
        <time>2023-02-01T15:18:14Z</time>
      </trkpt>
      <trkpt lat="49.78487" lon="2.29681">
        <ele>97.2</ele>
        <time>2023-02-01T15:18:15Z</time>
      </trkpt>
      <trkpt lat="49.78487" lon="2.2968">
        <ele>97.1</ele>
        <time>2023-02-01T15:18:16Z</time>
      </trkpt>
      <trkpt lat="49.78486" lon="2.29677">
        <ele>96.9</ele>
        <time>2023-02-01T15:18:17Z</time>
      </trkpt>
      <trkpt lat="49.78486" lon="2.29676">
        <ele>96.8</ele>
        <time>2023-02-01T15:18:19Z</time>
      </trkpt>
      <trkpt lat="49.78486" lon="2.29675">
        <ele>96.8</ele>
        <time>2023-02-01T15:18:20Z</time>
      </trkpt>
      <trkpt lat="49.78485" lon="2.29672">
        <ele>96.6</ele>
        <time>2023-02-01T15:18:21Z</time>
      </trkpt>
      <trkpt lat="49.78485" lon="2.2967">
        <ele>96.5</ele>
        <time>2023-02-01T15:18:22Z</time>
      </trkpt>
      <trkpt lat="49.78485" lon="2.29669">
        <ele>96.4</ele>
        <time>2023-02-01T15:18:23Z</time>
      </trkpt>
      <trkpt lat="49.78484" lon="2.29667">
        <ele>96.3</ele>
        <time>2023-02-01T15:18:24Z</time>
      </trkpt>
      <trkpt lat="49.78484" lon="2.29665">
        <ele>96.2</ele>
        <time>2023-02-01T15:18:25Z</time>
      </trkpt>
      <trkpt lat="49.78483" lon="2.29664">
        <ele>96.1</ele>
        <time>2023-02-01T15:18:27Z</time>
      </trkpt>
      <trkpt lat="49.78482" lon="2.29662">
        <ele>96</ele>
        <time>2023-02-01T15:18:28Z</time>
      </trkpt>
      <trkpt lat="49.78482" lon="2.29661">
        <ele>95.9</ele>
        <time>2023-02-01T15:18:29Z</time>
      </trkpt>
      <trkpt lat="49.78482" lon="2.2966">
        <ele>95.8</ele>
        <time>2023-02-01T15:18:30Z</time>
      </trkpt>
      <trkpt lat="49.78482" lon="2.29658">
        <ele>95.7</ele>
        <time>2023-02-01T15:18:31Z</time>
      </trkpt>
      <trkpt lat="49.78482" lon="2.29656">
        <ele>95.6</ele>
        <time>2023-02-01T15:18:32Z</time>
      </trkpt>
      <trkpt lat="49.78482" lon="2.29654">
        <ele>95.5</ele>
        <time>2023-02-01T15:18:34Z</time>
      </trkpt>
      <trkpt lat="49.78483" lon="2.29652">
        <ele>95.4</ele>
        <time>2023-02-01T15:18:35Z</time>
      </trkpt>
      <trkpt lat="49.78483" lon="2.2965">
        <ele>95.3</ele>
        <time>2023-02-01T15:18:36Z</time>
      </trkpt>
      <trkpt lat="49.78484" lon="2.29649">
        <ele>95.2</ele>
        <time>2023-02-01T15:18:37Z</time>
      </trkpt>
      <trkpt lat="49.78484" lon="2.29647">
        <ele>95.1</ele>
        <time>2023-02-01T15:18:38Z</time>
      </trkpt>
      <trkpt lat="49.78484" lon="2.29646">
        <ele>95</ele>
        <time>2023-02-01T15:18:40Z</time>
      </trkpt>
      <trkpt lat="49.78484" lon="2.29645">
        <ele>95</ele>
        <time>2023-02-01T15:18:41Z</time>
      </trkpt>
      <trkpt lat="49.78484" lon="2.29642">
        <ele>94.8</ele>
        <time>2023-02-01T15:18:42Z</time>
      </trkpt>
      <trkpt lat="49.78484" lon="2.29641">
        <ele>94.7</ele>
        <time>2023-02-01T15:18:43Z</time>
      </trkpt>
      <trkpt lat="49.78485" lon="2.29638">
        <ele>94.6</ele>
        <time>2023-02-01T15:18:44Z</time>
      </trkpt>
      <trkpt lat="49.78485" lon="2.29637">
        <ele>94.5</ele>
        <time>2023-02-01T15:18:45Z</time>
      </trkpt>
      <trkpt lat="49.78485" lon="2.29636">
        <ele>94.5</ele>
        <time>2023-02-01T15:18:46Z</time>
      </trkpt>
      <trkpt lat="49.78486" lon="2.29635">
        <ele>94.4</ele>
        <time>2023-02-01T15:18:47Z</time>
      </trkpt>
      <trkpt lat="49.78486" lon="2.29634">
        <ele>94.3</ele>
        <time>2023-02-01T15:18:48Z</time>
      </trkpt>
      <trkpt lat="49.78487" lon="2.29632">
        <ele>94.3</ele>
        <time>2023-02-01T15:18:50Z</time>
      </trkpt>
      <trkpt lat="49.78487" lon="2.29631">
        <ele>94.2</ele>
        <time>2023-02-01T15:18:51Z</time>
      </trkpt>
      <trkpt lat="49.78487" lon="2.29629">
        <ele>94.1</ele>
        <time>2023-02-01T15:18:52Z</time>
      </trkpt>
      <trkpt lat="49.78488" lon="2.29628">
        <ele>94</ele>
        <time>2023-02-01T15:18:53Z</time>
      </trkpt>
      <trkpt lat="49.78488" lon="2.29627">
        <ele>94</ele>
        <time>2023-02-01T15:18:54Z</time>
      </trkpt>
      <trkpt lat="49.78489" lon="2.29624">
        <ele>93.8</ele>
        <time>2023-02-01T15:18:55Z</time>
      </trkpt>
      <trkpt lat="49.7849" lon="2.29623">
        <ele>93.7</ele>
        <time>2023-02-01T15:18:56Z</time>
      </trkpt>
      <trkpt lat="49.7849" lon="2.29622">
        <ele>93.7</ele>
        <time>2023-02-01T15:18:57Z</time>
      </trkpt>
      <trkpt lat="49.78491" lon="2.2962">
        <ele>93.6</ele>
        <time>2023-02-01T15:18:58Z</time>
      </trkpt>
      <trkpt lat="49.78491" lon="2.29619">
        <ele>93.5</ele>
        <time>2023-02-01T15:19:00Z</time>
      </trkpt>
      <trkpt lat="49.78492" lon="2.29617">
        <ele>93.4</ele>
        <time>2023-02-01T15:19:01Z</time>
      </trkpt>
      <trkpt lat="49.78492" lon="2.29616">
        <ele>93.4</ele>
        <time>2023-02-01T15:19:02Z</time>
      </trkpt>
      <trkpt lat="49.78493" lon="2.29615">
        <ele>93.3</ele>
        <time>2023-02-01T15:19:03Z</time>
      </trkpt>
      <trkpt lat="49.78493" lon="2.29614">
        <ele>93.3</ele>
        <time>2023-02-01T15:19:04Z</time>
      </trkpt>
      <trkpt lat="49.78494" lon="2.29613">
        <ele>93.2</ele>
        <time>2023-02-01T15:19:05Z</time>
      </trkpt>
      <trkpt lat="49.78495" lon="2.29612">
        <ele>93.1</ele>
        <time>2023-02-01T15:19:07Z</time>
      </trkpt>
      <trkpt lat="49.78495" lon="2.29611">
        <ele>93.1</ele>
        <time>2023-02-01T15:19:08Z</time>
      </trkpt>
      <trkpt lat="49.78496" lon="2.2961">
        <ele>93.1</ele>
        <time>2023-02-01T15:19:09Z</time>
      </trkpt>
      <trkpt lat="49.78496" lon="2.29609">
        <ele>93</ele>
        <time>2023-02-01T15:19:11Z</time>
      </trkpt>
      <trkpt lat="49.78495" lon="2.29609">
        <ele>93</ele>
        <time>2023-02-01T15:19:12Z</time>
      </trkpt>
      <trkpt lat="49.78493" lon="2.29609">
        <ele>92.9</ele>
        <time>2023-02-01T15:19:14Z</time>
      </trkpt>
      <trkpt lat="49.78493" lon="2.29609">
        <ele>92.8</ele>
        <time>2023-02-01T15:19:15Z</time>
      </trkpt>
      <trkpt lat="49.78493" lon="2.29609">
        <ele>92.8</ele>
        <time>2023-02-01T15:19:16Z</time>
      </trkpt>
      <trkpt lat="49.78493" lon="2.29608">
        <ele>92.8</ele>
        <time>2023-02-01T15:19:18Z</time>
      </trkpt>
      <trkpt lat="49.78494" lon="2.29608">
        <ele>92.8</ele>
        <time>2023-02-01T15:19:19Z</time>
      </trkpt>
      <trkpt lat="49.78493" lon="2.29607">
        <ele>92.8</ele>
        <time>2023-02-01T15:19:21Z</time>
      </trkpt>
      <trkpt lat="49.78493" lon="2.29606">
        <ele>92.7</ele>
        <time>2023-02-01T15:19:22Z</time>
      </trkpt>
      <trkpt lat="49.78494" lon="2.29606">
        <ele>92.7</ele>
        <time>2023-02-01T15:19:23Z</time>
      </trkpt>
      <trkpt lat="49.78494" lon="2.29605">
        <ele>92.7</ele>
        <time>2023-02-01T15:19:24Z</time>
      </trkpt>
      <trkpt lat="49.78496" lon="2.29605">
        <ele>92.6</ele>
        <time>2023-02-01T15:19:25Z</time>
      </trkpt>
      <trkpt lat="49.78497" lon="2.29605">
        <ele>92.5</ele>
        <time>2023-02-01T15:19:26Z</time>
      </trkpt>
      <trkpt lat="49.78498" lon="2.29604">
        <ele>92.5</ele>
        <time>2023-02-01T15:19:27Z</time>
      </trkpt>
      <trkpt lat="49.785" lon="2.29605">
        <ele>92.5</ele>
        <time>2023-02-01T15:19:29Z</time>
      </trkpt>
      <trkpt lat="49.78501" lon="2.29605">
        <ele>92.4</ele>
        <time>2023-02-01T15:19:30Z</time>
      </trkpt>
      <trkpt lat="49.78502" lon="2.29605">
        <ele>92.4</ele>
        <time>2023-02-01T15:19:31Z</time>
      </trkpt>
      <trkpt lat="49.78505" lon="2.29605">
        <ele>92.4</ele>
        <time>2023-02-01T15:19:32Z</time>
      </trkpt>
      <trkpt lat="49.78506" lon="2.29605">
        <ele>92.3</ele>
        <time>2023-02-01T15:19:33Z</time>
      </trkpt>
      <trkpt lat="49.78507" lon="2.29605">
        <ele>92.3</ele>
        <time>2023-02-01T15:19:34Z</time>
      </trkpt>
      <trkpt lat="49.78509" lon="2.29605">
        <ele>92.3</ele>
        <time>2023-02-01T15:19:35Z</time>
      </trkpt>
      <trkpt lat="49.78511" lon="2.29605">
        <ele>92.2</ele>
        <time>2023-02-01T15:19:37Z</time>
      </trkpt>
      <trkpt lat="49.78513" lon="2.29605">
        <ele>92.2</ele>
        <time>2023-02-01T15:19:38Z</time>
      </trkpt>
      <trkpt lat="49.78513" lon="2.29605">
        <ele>92.2</ele>
        <time>2023-02-01T15:19:39Z</time>
      </trkpt>
      <trkpt lat="49.78515" lon="2.29604">
        <ele>92.2</ele>
        <time>2023-02-01T15:19:40Z</time>
      </trkpt>
      <trkpt lat="49.78516" lon="2.29604">
        <ele>92.2</ele>
        <time>2023-02-01T15:19:41Z</time>
      </trkpt>
      <trkpt lat="49.78517" lon="2.29604">
        <ele>92.1</ele>
        <time>2023-02-01T15:19:42Z</time>
      </trkpt>
      <trkpt lat="49.78519" lon="2.29604">
        <ele>92.1</ele>
        <time>2023-02-01T15:19:44Z</time>
      </trkpt>
      <trkpt lat="49.7852" lon="2.29603">
        <ele>92.1</ele>
        <time>2023-02-01T15:19:45Z</time>
      </trkpt>
      <trkpt lat="49.78521" lon="2.29602">
        <ele>92.1</ele>
        <time>2023-02-01T15:19:46Z</time>
      </trkpt>
      <trkpt lat="49.78522" lon="2.296">
        <ele>92.1</ele>
        <time>2023-02-01T15:19:47Z</time>
      </trkpt>
      <trkpt lat="49.78523" lon="2.296">
        <ele>92</ele>
        <time>2023-02-01T15:19:49Z</time>
      </trkpt>
      <trkpt lat="49.78523" lon="2.29601">
        <ele>92</ele>
        <time>2023-02-01T15:19:50Z</time>
      </trkpt>
      <trkpt lat="49.78523" lon="2.29602">
        <ele>92</ele>
        <time>2023-02-01T15:19:51Z</time>
      </trkpt>
      <trkpt lat="49.78522" lon="2.29603">
        <ele>92</ele>
        <time>2023-02-01T15:19:52Z</time>
      </trkpt>
      <trkpt lat="49.78523" lon="2.29604">
        <ele>92</ele>
        <time>2023-02-01T15:19:53Z</time>
      </trkpt>
      <trkpt lat="49.78525" lon="2.29603">
        <ele>92</ele>
        <time>2023-02-01T15:19:54Z</time>
      </trkpt>
      <trkpt lat="49.78525" lon="2.29603">
        <ele>92</ele>
        <time>2023-02-01T15:19:56Z</time>
      </trkpt>
      <trkpt lat="49.78526" lon="2.29603">
        <ele>92</ele>
        <time>2023-02-01T15:19:57Z</time>
      </trkpt>
      <trkpt lat="49.78527" lon="2.29602">
        <ele>92</ele>
        <time>2023-02-01T15:19:58Z</time>
      </trkpt>
      <trkpt lat="49.78528" lon="2.29601">
        <ele>91.9</ele>
        <time>2023-02-01T15:19:59Z</time>
      </trkpt>
      <trkpt lat="49.7853" lon="2.296">
        <ele>91.9</ele>
        <time>2023-02-01T15:20:01Z</time>
      </trkpt>
      <trkpt lat="49.78531" lon="2.29599">
        <ele>91.9</ele>
        <time>2023-02-01T15:20:02Z</time>
      </trkpt>
      <trkpt lat="49.78533" lon="2.29598">
        <ele>91.9</ele>
        <time>2023-02-01T15:20:03Z</time>
      </trkpt>
      <trkpt lat="49.78534" lon="2.29598">
        <ele>91.9</ele>
        <time>2023-02-01T15:20:04Z</time>
      </trkpt>
      <trkpt lat="49.78535" lon="2.29597">
        <ele>91.9</ele>
        <time>2023-02-01T15:20:06Z</time>
      </trkpt>
      <trkpt lat="49.78537" lon="2.29596">
        <ele>91.8</ele>
        <time>2023-02-01T15:20:07Z</time>
      </trkpt>
      <trkpt lat="49.78538" lon="2.29595">
        <ele>91.8</ele>
        <time>2023-02-01T15:20:08Z</time>
      </trkpt>
      <trkpt lat="49.7854" lon="2.29594">
        <ele>91.8</ele>
        <time>2023-02-01T15:20:09Z</time>
      </trkpt>
      <trkpt lat="49.78541" lon="2.29593">
        <ele>91.8</ele>
        <time>2023-02-01T15:20:11Z</time>
      </trkpt>
      <trkpt lat="49.78542" lon="2.29592">
        <ele>91.8</ele>
        <time>2023-02-01T15:20:12Z</time>
      </trkpt>
      <trkpt lat="49.78544" lon="2.29591">
        <ele>91.8</ele>
        <time>2023-02-01T15:20:13Z</time>
      </trkpt>
      <trkpt lat="49.78545" lon="2.29591">
        <ele>91.8</ele>
        <time>2023-02-01T15:20:14Z</time>
      </trkpt>
      <trkpt lat="49.78547" lon="2.2959">
        <ele>91.8</ele>
        <time>2023-02-01T15:20:15Z</time>
      </trkpt>
      <trkpt lat="49.78547" lon="2.29589">
        <ele>91.8</ele>
        <time>2023-02-01T15:20:16Z</time>
      </trkpt>
      <trkpt lat="49.78548" lon="2.29589">
        <ele>91.8</ele>
        <time>2023-02-01T15:20:17Z</time>
      </trkpt>
      <trkpt lat="49.7855" lon="2.29588">
        <ele>91.8</ele>
        <time>2023-02-01T15:20:18Z</time>
      </trkpt>
      <trkpt lat="49.78551" lon="2.29587">
        <ele>91.8</ele>
        <time>2023-02-01T15:20:19Z</time>
      </trkpt>
      <trkpt lat="49.78552" lon="2.29587">
        <ele>91.8</ele>
        <time>2023-02-01T15:20:20Z</time>
      </trkpt>
      <trkpt lat="49.78553" lon="2.29586">
        <ele>91.8</ele>
        <time>2023-02-01T15:20:22Z</time>
      </trkpt>
      <trkpt lat="49.78554" lon="2.29584">
        <ele>91.9</ele>
        <time>2023-02-01T15:20:23Z</time>
      </trkpt>
      <trkpt lat="49.78555" lon="2.29584">
        <ele>91.9</ele>
        <time>2023-02-01T15:20:24Z</time>
      </trkpt>
      <trkpt lat="49.78557" lon="2.29582">
        <ele>91.9</ele>
        <time>2023-02-01T15:20:25Z</time>
      </trkpt>
      <trkpt lat="49.78559" lon="2.2958">
        <ele>91.9</ele>
        <time>2023-02-01T15:20:27Z</time>
      </trkpt>
      <trkpt lat="49.7856" lon="2.2958">
        <ele>91.9</ele>
        <time>2023-02-01T15:20:28Z</time>
      </trkpt>
      <trkpt lat="49.78561" lon="2.29579">
        <ele>91.9</ele>
        <time>2023-02-01T15:20:29Z</time>
      </trkpt>
      <trkpt lat="49.78563" lon="2.29578">
        <ele>91.9</ele>
        <time>2023-02-01T15:20:30Z</time>
      </trkpt>
      <trkpt lat="49.78564" lon="2.29577">
        <ele>91.9</ele>
        <time>2023-02-01T15:20:32Z</time>
      </trkpt>
      <trkpt lat="49.78565" lon="2.29577">
        <ele>91.9</ele>
        <time>2023-02-01T15:20:33Z</time>
      </trkpt>
      <trkpt lat="49.78566" lon="2.29576">
        <ele>91.9</ele>
        <time>2023-02-01T15:20:34Z</time>
      </trkpt>
      <trkpt lat="49.78567" lon="2.29576">
        <ele>91.9</ele>
        <time>2023-02-01T15:20:35Z</time>
      </trkpt>
      <trkpt lat="49.78569" lon="2.29575">
        <ele>92</ele>
        <time>2023-02-01T15:20:36Z</time>
      </trkpt>
      <trkpt lat="49.7857" lon="2.29575">
        <ele>92</ele>
        <time>2023-02-01T15:20:37Z</time>
      </trkpt>
      <trkpt lat="49.78571" lon="2.29574">
        <ele>92</ele>
        <time>2023-02-01T15:20:38Z</time>
      </trkpt>
      <trkpt lat="49.78572" lon="2.29573">
        <ele>92</ele>
        <time>2023-02-01T15:20:40Z</time>
      </trkpt>
      <trkpt lat="49.78573" lon="2.29573">
        <ele>92</ele>
        <time>2023-02-01T15:20:41Z</time>
      </trkpt>
      <trkpt lat="49.78574" lon="2.29572">
        <ele>92</ele>
        <time>2023-02-01T15:20:42Z</time>
      </trkpt>
      <trkpt lat="49.78576" lon="2.29572">
        <ele>92.1</ele>
        <time>2023-02-01T15:20:43Z</time>
      </trkpt>
      <trkpt lat="49.78577" lon="2.29571">
        <ele>92.1</ele>
        <time>2023-02-01T15:20:44Z</time>
      </trkpt>
      <trkpt lat="49.78578" lon="2.29571">
        <ele>92.1</ele>
        <time>2023-02-01T15:20:45Z</time>
      </trkpt>
      <trkpt lat="49.78579" lon="2.29571">
        <ele>92.1</ele>
        <time>2023-02-01T15:20:46Z</time>
      </trkpt>
      <trkpt lat="49.78581" lon="2.2957">
        <ele>92.2</ele>
        <time>2023-02-01T15:20:47Z</time>
      </trkpt>
      <trkpt lat="49.78582" lon="2.2957">
        <ele>92.2</ele>
        <time>2023-02-01T15:20:49Z</time>
      </trkpt>
      <trkpt lat="49.78583" lon="2.29569">
        <ele>92.2</ele>
        <time>2023-02-01T15:20:50Z</time>
      </trkpt>
      <trkpt lat="49.78584" lon="2.29569">
        <ele>92.2</ele>
        <time>2023-02-01T15:20:51Z</time>
      </trkpt>
      <trkpt lat="49.78585" lon="2.29568">
        <ele>92.3</ele>
        <time>2023-02-01T15:20:52Z</time>
      </trkpt>
      <trkpt lat="49.78587" lon="2.29567">
        <ele>92.3</ele>
        <time>2023-02-01T15:20:53Z</time>
      </trkpt>
      <trkpt lat="49.78588" lon="2.29566">
        <ele>92.3</ele>
        <time>2023-02-01T15:20:54Z</time>
      </trkpt>
      <trkpt lat="49.78589" lon="2.29566">
        <ele>92.4</ele>
        <time>2023-02-01T15:20:56Z</time>
      </trkpt>
      <trkpt lat="49.78591" lon="2.29566">
        <ele>92.4</ele>
        <time>2023-02-01T15:20:57Z</time>
      </trkpt>
      <trkpt lat="49.78593" lon="2.29566">
        <ele>92.5</ele>
        <time>2023-02-01T15:20:58Z</time>
      </trkpt>
      <trkpt lat="49.78594" lon="2.29566">
        <ele>92.5</ele>
        <time>2023-02-01T15:20:59Z</time>
      </trkpt>
      <trkpt lat="49.78595" lon="2.29566">
        <ele>92.5</ele>
        <time>2023-02-01T15:21:00Z</time>
      </trkpt>
      <trkpt lat="49.78597" lon="2.29567">
        <ele>92.6</ele>
        <time>2023-02-01T15:21:01Z</time>
      </trkpt>
      <trkpt lat="49.78598" lon="2.29567">
        <ele>92.6</ele>
        <time>2023-02-01T15:21:03Z</time>
      </trkpt>
      <trkpt lat="49.78599" lon="2.29567">
        <ele>92.7</ele>
        <time>2023-02-01T15:21:04Z</time>
      </trkpt>
      <trkpt lat="49.786" lon="2.29567">
        <ele>92.7</ele>
        <time>2023-02-01T15:21:05Z</time>
      </trkpt>
      <trkpt lat="49.78601" lon="2.29568">
        <ele>92.8</ele>
        <time>2023-02-01T15:21:06Z</time>
      </trkpt>
      <trkpt lat="49.78602" lon="2.29568">
        <ele>92.8</ele>
        <time>2023-02-01T15:21:07Z</time>
      </trkpt>
      <trkpt lat="49.78604" lon="2.29568">
        <ele>92.9</ele>
        <time>2023-02-01T15:21:08Z</time>
      </trkpt>
      <trkpt lat="49.78605" lon="2.29568">
        <ele>92.9</ele>
        <time>2023-02-01T15:21:09Z</time>
      </trkpt>
      <trkpt lat="49.78606" lon="2.29568">
        <ele>93</ele>
        <time>2023-02-01T15:21:11Z</time>
      </trkpt>
      <trkpt lat="49.78607" lon="2.29568">
        <ele>93</ele>
        <time>2023-02-01T15:21:12Z</time>
      </trkpt>
      <trkpt lat="49.78609" lon="2.29569">
        <ele>93.1</ele>
        <time>2023-02-01T15:21:13Z</time>
      </trkpt>
      <trkpt lat="49.78609" lon="2.29569">
        <ele>93.1</ele>
        <time>2023-02-01T15:21:14Z</time>
      </trkpt>
      <trkpt lat="49.7861" lon="2.2957">
        <ele>93.1</ele>
        <time>2023-02-01T15:21:15Z</time>
      </trkpt>
      <trkpt lat="49.78611" lon="2.29571">
        <ele>93.2</ele>
        <time>2023-02-01T15:21:16Z</time>
      </trkpt>
      <trkpt lat="49.78611" lon="2.29571">
        <ele>93.2</ele>
        <time>2023-02-01T15:21:18Z</time>
      </trkpt>
      <trkpt lat="49.78612" lon="2.29571">
        <ele>93.3</ele>
        <time>2023-02-01T15:21:19Z</time>
      </trkpt>
      <trkpt lat="49.78613" lon="2.29571">
        <ele>93.3</ele>
        <time>2023-02-01T15:21:20Z</time>
      </trkpt>
      <trkpt lat="49.78614" lon="2.29571">
        <ele>93.4</ele>
        <time>2023-02-01T15:21:21Z</time>
      </trkpt>
      <trkpt lat="49.78615" lon="2.2957">
        <ele>93.4</ele>
        <time>2023-02-01T15:21:22Z</time>
      </trkpt>
      <trkpt lat="49.78617" lon="2.2957">
        <ele>93.5</ele>
        <time>2023-02-01T15:21:24Z</time>
      </trkpt>
      <trkpt lat="49.78618" lon="2.2957">
        <ele>93.6</ele>
        <time>2023-02-01T15:21:25Z</time>
      </trkpt>
      <trkpt lat="49.78619" lon="2.29569">
        <ele>93.7</ele>
        <time>2023-02-01T15:21:26Z</time>
      </trkpt>
      <trkpt lat="49.7862" lon="2.29569">
        <ele>93.7</ele>
        <time>2023-02-01T15:21:27Z</time>
      </trkpt>
      <trkpt lat="49.78621" lon="2.29568">
        <ele>93.8</ele>
        <time>2023-02-01T15:21:28Z</time>
      </trkpt>
      <trkpt lat="49.78623" lon="2.29568">
        <ele>93.9</ele>
        <time>2023-02-01T15:21:29Z</time>
      </trkpt>
      <trkpt lat="49.78624" lon="2.29568">
        <ele>94</ele>
        <time>2023-02-01T15:21:30Z</time>
      </trkpt>
      <trkpt lat="49.78625" lon="2.29567">
        <ele>94</ele>
        <time>2023-02-01T15:21:31Z</time>
      </trkpt>
      <trkpt lat="49.78626" lon="2.29567">
        <ele>94.1</ele>
        <time>2023-02-01T15:21:32Z</time>
      </trkpt>
      <trkpt lat="49.78628" lon="2.29567">
        <ele>94.3</ele>
        <time>2023-02-01T15:21:34Z</time>
      </trkpt>
      <trkpt lat="49.78629" lon="2.29566">
        <ele>94.3</ele>
        <time>2023-02-01T15:21:35Z</time>
      </trkpt>
      <trkpt lat="49.7863" lon="2.29566">
        <ele>94.4</ele>
        <time>2023-02-01T15:21:36Z</time>
      </trkpt>
      <trkpt lat="49.78631" lon="2.29566">
        <ele>94.5</ele>
        <time>2023-02-01T15:21:37Z</time>
      </trkpt>
      <trkpt lat="49.78633" lon="2.29565">
        <ele>94.6</ele>
        <time>2023-02-01T15:21:38Z</time>
      </trkpt>
      <trkpt lat="49.78633" lon="2.29565">
        <ele>94.7</ele>
        <time>2023-02-01T15:21:39Z</time>
      </trkpt>
      <trkpt lat="49.78634" lon="2.29565">
        <ele>94.7</ele>
        <time>2023-02-01T15:21:40Z</time>
      </trkpt>
      <trkpt lat="49.78636" lon="2.29566">
        <ele>94.9</ele>
        <time>2023-02-01T15:21:42Z</time>
      </trkpt>
      <trkpt lat="49.78637" lon="2.29566">
        <ele>94.9</ele>
        <time>2023-02-01T15:21:43Z</time>
      </trkpt>
      <trkpt lat="49.78638" lon="2.29567">
        <ele>95</ele>
        <time>2023-02-01T15:21:44Z</time>
      </trkpt>
      <trkpt lat="49.78639" lon="2.29567">
        <ele>95.1</ele>
        <time>2023-02-01T15:21:45Z</time>
      </trkpt>
      <trkpt lat="49.7864" lon="2.29567">
        <ele>95.2</ele>
        <time>2023-02-01T15:21:46Z</time>
      </trkpt>
      <trkpt lat="49.78641" lon="2.29567">
        <ele>95.3</ele>
        <time>2023-02-01T15:21:48Z</time>
      </trkpt>
      <trkpt lat="49.78642" lon="2.29567">
        <ele>95.4</ele>
        <time>2023-02-01T15:21:49Z</time>
      </trkpt>
      <trkpt lat="49.78643" lon="2.29567">
        <ele>95.4</ele>
        <time>2023-02-01T15:21:50Z</time>
      </trkpt>
      <trkpt lat="49.78644" lon="2.29567">
        <ele>95.5</ele>
        <time>2023-02-01T15:21:51Z</time>
      </trkpt>
      <trkpt lat="49.78645" lon="2.29568">
        <ele>95.6</ele>
        <time>2023-02-01T15:21:52Z</time>
      </trkpt>
      <trkpt lat="49.78646" lon="2.29568">
        <ele>95.7</ele>
        <time>2023-02-01T15:21:53Z</time>
      </trkpt>
      <trkpt lat="49.78647" lon="2.29569">
        <ele>95.8</ele>
        <time>2023-02-01T15:21:55Z</time>
      </trkpt>
      <trkpt lat="49.78648" lon="2.29569">
        <ele>95.9</ele>
        <time>2023-02-01T15:21:57Z</time>
      </trkpt>
      <trkpt lat="49.78649" lon="2.2957">
        <ele>95.9</ele>
        <time>2023-02-01T15:21:58Z</time>
      </trkpt>
      <trkpt lat="49.7865" lon="2.2957">
        <ele>96</ele>
        <time>2023-02-01T15:21:59Z</time>
      </trkpt>
      <trkpt lat="49.7865" lon="2.2957">
        <ele>96.1</ele>
        <time>2023-02-01T15:22:00Z</time>
      </trkpt>
      <trkpt lat="49.78651" lon="2.29571">
        <ele>96.2</ele>
        <time>2023-02-01T15:22:02Z</time>
      </trkpt>
      <trkpt lat="49.78652" lon="2.29571">
        <ele>96.2</ele>
        <time>2023-02-01T15:22:03Z</time>
      </trkpt>
      <trkpt lat="49.78653" lon="2.29572">
        <ele>96.3</ele>
        <time>2023-02-01T15:22:04Z</time>
      </trkpt>
      <trkpt lat="49.78654" lon="2.29572">
        <ele>96.4</ele>
        <time>2023-02-01T15:22:05Z</time>
      </trkpt>
      <trkpt lat="49.78655" lon="2.29573">
        <ele>96.5</ele>
        <time>2023-02-01T15:22:06Z</time>
      </trkpt>
      <trkpt lat="49.78655" lon="2.29573">
        <ele>96.5</ele>
        <time>2023-02-01T15:22:07Z</time>
      </trkpt>
      <trkpt lat="49.78656" lon="2.29573">
        <ele>96.6</ele>
        <time>2023-02-01T15:22:08Z</time>
      </trkpt>
      <trkpt lat="49.78656" lon="2.29573">
        <ele>96.6</ele>
        <time>2023-02-01T15:22:09Z</time>
      </trkpt>
      <trkpt lat="49.78657" lon="2.29574">
        <ele>96.7</ele>
        <time>2023-02-01T15:22:11Z</time>
      </trkpt>
      <trkpt lat="49.78658" lon="2.29574">
        <ele>96.8</ele>
        <time>2023-02-01T15:22:12Z</time>
      </trkpt>
      <trkpt lat="49.78659" lon="2.29574">
        <ele>96.9</ele>
        <time>2023-02-01T15:22:13Z</time>
      </trkpt>
      <trkpt lat="49.78661" lon="2.29574">
        <ele>97</ele>
        <time>2023-02-01T15:22:14Z</time>
      </trkpt>
      <trkpt lat="49.78661" lon="2.29575">
        <ele>97.1</ele>
        <time>2023-02-01T15:22:15Z</time>
      </trkpt>
      <trkpt lat="49.78662" lon="2.29575">
        <ele>97.1</ele>
        <time>2023-02-01T15:22:16Z</time>
      </trkpt>
      <trkpt lat="49.78663" lon="2.29575">
        <ele>97.2</ele>
        <time>2023-02-01T15:22:17Z</time>
      </trkpt>
      <trkpt lat="49.78664" lon="2.29576">
        <ele>97.4</ele>
        <time>2023-02-01T15:22:18Z</time>
      </trkpt>
      <trkpt lat="49.78665" lon="2.29576">
        <ele>97.5</ele>
        <time>2023-02-01T15:22:20Z</time>
      </trkpt>
      <trkpt lat="49.78666" lon="2.29577">
        <ele>97.5</ele>
        <time>2023-02-01T15:22:21Z</time>
      </trkpt>
      <trkpt lat="49.78666" lon="2.29577">
        <ele>97.6</ele>
        <time>2023-02-01T15:22:22Z</time>
      </trkpt>
      <trkpt lat="49.78667" lon="2.29578">
        <ele>97.7</ele>
        <time>2023-02-01T15:22:23Z</time>
      </trkpt>
      <trkpt lat="49.78669" lon="2.29578">
        <ele>97.8</ele>
        <time>2023-02-01T15:22:24Z</time>
      </trkpt>
      <trkpt lat="49.7867" lon="2.29579">
        <ele>98</ele>
        <time>2023-02-01T15:22:26Z</time>
      </trkpt>
      <trkpt lat="49.78671" lon="2.29579">
        <ele>98.1</ele>
        <time>2023-02-01T15:22:28Z</time>
      </trkpt>
      <trkpt lat="49.78672" lon="2.2958">
        <ele>98.2</ele>
        <time>2023-02-01T15:22:29Z</time>
      </trkpt>
      <trkpt lat="49.78673" lon="2.2958">
        <ele>98.3</ele>
        <time>2023-02-01T15:22:30Z</time>
      </trkpt>
      <trkpt lat="49.78674" lon="2.2958">
        <ele>98.3</ele>
        <time>2023-02-01T15:22:31Z</time>
      </trkpt>
      <trkpt lat="49.78674" lon="2.2958">
        <ele>98.4</ele>
        <time>2023-02-01T15:22:32Z</time>
      </trkpt>
      <trkpt lat="49.78675" lon="2.2958">
        <ele>98.5</ele>
        <time>2023-02-01T15:22:33Z</time>
      </trkpt>
      <trkpt lat="49.78676" lon="2.2958">
        <ele>98.6</ele>
        <time>2023-02-01T15:22:34Z</time>
      </trkpt>
      <trkpt lat="49.78677" lon="2.2958">
        <ele>98.7</ele>
        <time>2023-02-01T15:22:36Z</time>
      </trkpt>
      <trkpt lat="49.78678" lon="2.29581">
        <ele>98.8</ele>
        <time>2023-02-01T15:22:37Z</time>
      </trkpt>
      <trkpt lat="49.78679" lon="2.29581">
        <ele>98.8</ele>
        <time>2023-02-01T15:22:38Z</time>
      </trkpt>
      <trkpt lat="49.7868" lon="2.29581">
        <ele>98.9</ele>
        <time>2023-02-01T15:22:39Z</time>
      </trkpt>
      <trkpt lat="49.7868" lon="2.29581">
        <ele>99</ele>
        <time>2023-02-01T15:22:40Z</time>
      </trkpt>
      <trkpt lat="49.78681" lon="2.29582">
        <ele>99</ele>
        <time>2023-02-01T15:22:41Z</time>
      </trkpt>
      <trkpt lat="49.78682" lon="2.29582">
        <ele>99.1</ele>
        <time>2023-02-01T15:22:42Z</time>
      </trkpt>
      <trkpt lat="49.78683" lon="2.29583">
        <ele>99.2</ele>
        <time>2023-02-01T15:22:43Z</time>
      </trkpt>
      <trkpt lat="49.78684" lon="2.29583">
        <ele>99.3</ele>
        <time>2023-02-01T15:22:45Z</time>
      </trkpt>
      <trkpt lat="49.78685" lon="2.29583">
        <ele>99.4</ele>
        <time>2023-02-01T15:22:46Z</time>
      </trkpt>
      <trkpt lat="49.78686" lon="2.29583">
        <ele>99.5</ele>
        <time>2023-02-01T15:22:47Z</time>
      </trkpt>
      <trkpt lat="49.78686" lon="2.29583">
        <ele>99.6</ele>
        <time>2023-02-01T15:22:48Z</time>
      </trkpt>
      <trkpt lat="49.78687" lon="2.29584">
        <ele>99.7</ele>
        <time>2023-02-01T15:22:50Z</time>
      </trkpt>
      <trkpt lat="49.78688" lon="2.29584">
        <ele>99.7</ele>
        <time>2023-02-01T15:22:51Z</time>
      </trkpt>
      <trkpt lat="49.78689" lon="2.29584">
        <ele>99.8</ele>
        <time>2023-02-01T15:22:52Z</time>
      </trkpt>
      <trkpt lat="49.7869" lon="2.29584">
        <ele>99.9</ele>
        <time>2023-02-01T15:22:53Z</time>
      </trkpt>
      <trkpt lat="49.78692" lon="2.29584">
        <ele>100.1</ele>
        <time>2023-02-01T15:22:54Z</time>
      </trkpt>
      <trkpt lat="49.78693" lon="2.29584">
        <ele>100.1</ele>
        <time>2023-02-01T15:22:55Z</time>
      </trkpt>
      <trkpt lat="49.78693" lon="2.29584">
        <ele>100.2</ele>
        <time>2023-02-01T15:22:56Z</time>
      </trkpt>
      <trkpt lat="49.78694" lon="2.29584">
        <ele>100.3</ele>
        <time>2023-02-01T15:22:57Z</time>
      </trkpt>
      <trkpt lat="49.78695" lon="2.29584">
        <ele>100.4</ele>
        <time>2023-02-01T15:22:59Z</time>
      </trkpt>
      <trkpt lat="49.78696" lon="2.29584">
        <ele>100.4</ele>
        <time>2023-02-01T15:23:00Z</time>
      </trkpt>
      <trkpt lat="49.78696" lon="2.29585">
        <ele>100.5</ele>
        <time>2023-02-01T15:23:01Z</time>
      </trkpt>
      <trkpt lat="49.78697" lon="2.29585">
        <ele>100.6</ele>
        <time>2023-02-01T15:23:02Z</time>
      </trkpt>
      <trkpt lat="49.78698" lon="2.29585">
        <ele>100.7</ele>
        <time>2023-02-01T15:23:03Z</time>
      </trkpt>
      <trkpt lat="49.787" lon="2.29585">
        <ele>100.9</ele>
        <time>2023-02-01T15:23:05Z</time>
      </trkpt>
      <trkpt lat="49.78701" lon="2.29585">
        <ele>101</ele>
        <time>2023-02-01T15:23:07Z</time>
      </trkpt>
      <trkpt lat="49.78701" lon="2.29585">
        <ele>101</ele>
        <time>2023-02-01T15:23:08Z</time>
      </trkpt>
      <trkpt lat="49.78702" lon="2.29585">
        <ele>101.1</ele>
        <time>2023-02-01T15:23:09Z</time>
      </trkpt>
      <trkpt lat="49.78703" lon="2.29586">
        <ele>101.2</ele>
        <time>2023-02-01T15:23:10Z</time>
      </trkpt>
      <trkpt lat="49.78703" lon="2.29586">
        <ele>101.3</ele>
        <time>2023-02-01T15:23:12Z</time>
      </trkpt>
      <trkpt lat="49.78704" lon="2.29586">
        <ele>101.4</ele>
        <time>2023-02-01T15:23:13Z</time>
      </trkpt>
      <trkpt lat="49.78705" lon="2.29586">
        <ele>101.4</ele>
        <time>2023-02-01T15:23:14Z</time>
      </trkpt>
      <trkpt lat="49.78705" lon="2.29586">
        <ele>101.5</ele>
        <time>2023-02-01T15:23:15Z</time>
      </trkpt>
      <trkpt lat="49.78706" lon="2.29586">
        <ele>101.5</ele>
        <time>2023-02-01T15:23:16Z</time>
      </trkpt>
      <trkpt lat="49.78707" lon="2.29586">
        <ele>101.7</ele>
        <time>2023-02-01T15:23:18Z</time>
      </trkpt>
      <trkpt lat="49.78707" lon="2.29585">
        <ele>101.7</ele>
        <time>2023-02-01T15:23:19Z</time>
      </trkpt>
      <trkpt lat="49.78708" lon="2.29585">
        <ele>101.8</ele>
        <time>2023-02-01T15:23:21Z</time>
      </trkpt>
      <trkpt lat="49.78708" lon="2.29585">
        <ele>101.8</ele>
        <time>2023-02-01T15:23:23Z</time>
      </trkpt>
      <trkpt lat="49.78709" lon="2.29585">
        <ele>101.9</ele>
        <time>2023-02-01T15:23:24Z</time>
      </trkpt>
      <trkpt lat="49.78709" lon="2.29585">
        <ele>101.9</ele>
        <time>2023-02-01T15:23:25Z</time>
      </trkpt>
      <trkpt lat="49.78709" lon="2.29585">
        <ele>102</ele>
        <time>2023-02-01T15:23:26Z</time>
      </trkpt>
      <trkpt lat="49.7871" lon="2.29585">
        <ele>102.1</ele>
        <time>2023-02-01T15:23:27Z</time>
      </trkpt>
      <trkpt lat="49.7871" lon="2.29586">
        <ele>102.1</ele>
        <time>2023-02-01T15:23:29Z</time>
      </trkpt>
      <trkpt lat="49.78711" lon="2.29586">
        <ele>102.2</ele>
        <time>2023-02-01T15:23:30Z</time>
      </trkpt>
      <trkpt lat="49.78712" lon="2.29587">
        <ele>102.3</ele>
        <time>2023-02-01T15:23:31Z</time>
      </trkpt>
      <trkpt lat="49.78712" lon="2.29587">
        <ele>102.3</ele>
        <time>2023-02-01T15:23:32Z</time>
      </trkpt>
      <trkpt lat="49.78712" lon="2.29587">
        <ele>102.4</ele>
        <time>2023-02-01T15:23:33Z</time>
      </trkpt>
      <trkpt lat="49.78713" lon="2.29587">
        <ele>102.5</ele>
        <time>2023-02-01T15:23:34Z</time>
      </trkpt>
      <trkpt lat="49.78714" lon="2.29587">
        <ele>102.5</ele>
        <time>2023-02-01T15:23:35Z</time>
      </trkpt>
      <trkpt lat="49.78715" lon="2.29587">
        <ele>102.6</ele>
        <time>2023-02-01T15:23:37Z</time>
      </trkpt>
      <trkpt lat="49.78715" lon="2.29587">
        <ele>102.7</ele>
        <time>2023-02-01T15:23:39Z</time>
      </trkpt>
      <trkpt lat="49.78716" lon="2.29587">
        <ele>102.8</ele>
        <time>2023-02-01T15:23:40Z</time>
      </trkpt>
      <trkpt lat="49.78716" lon="2.29587">
        <ele>102.8</ele>
        <time>2023-02-01T15:23:41Z</time>
      </trkpt>
      <trkpt lat="49.78717" lon="2.29587">
        <ele>102.9</ele>
        <time>2023-02-01T15:23:42Z</time>
      </trkpt>
      <trkpt lat="49.78718" lon="2.29587">
        <ele>103</ele>
        <time>2023-02-01T15:23:44Z</time>
      </trkpt>
      <trkpt lat="49.78718" lon="2.29587">
        <ele>103.1</ele>
        <time>2023-02-01T15:23:45Z</time>
      </trkpt>
      <trkpt lat="49.78719" lon="2.29587">
        <ele>103.2</ele>
        <time>2023-02-01T15:23:46Z</time>
      </trkpt>
      <trkpt lat="49.7872" lon="2.29587">
        <ele>103.3</ele>
        <time>2023-02-01T15:23:47Z</time>
      </trkpt>
      <trkpt lat="49.7872" lon="2.29588">
        <ele>103.3</ele>
        <time>2023-02-01T15:23:48Z</time>
      </trkpt>
      <trkpt lat="49.78721" lon="2.29588">
        <ele>103.4</ele>
        <time>2023-02-01T15:23:50Z</time>
      </trkpt>
      <trkpt lat="49.78722" lon="2.29589">
        <ele>103.5</ele>
        <time>2023-02-01T15:23:52Z</time>
      </trkpt>
      <trkpt lat="49.78722" lon="2.29589">
        <ele>103.6</ele>
        <time>2023-02-01T15:23:53Z</time>
      </trkpt>
      <trkpt lat="49.78723" lon="2.29589">
        <ele>103.6</ele>
        <time>2023-02-01T15:23:54Z</time>
      </trkpt>
      <trkpt lat="49.78723" lon="2.29589">
        <ele>103.7</ele>
        <time>2023-02-01T15:23:55Z</time>
      </trkpt>
      <trkpt lat="49.78723" lon="2.29589">
        <ele>103.7</ele>
        <time>2023-02-01T15:23:56Z</time>
      </trkpt>
      <trkpt lat="49.78724" lon="2.29588">
        <ele>103.8</ele>
        <time>2023-02-01T15:23:58Z</time>
      </trkpt>
      <trkpt lat="49.78724" lon="2.29587">
        <ele>103.9</ele>
        <time>2023-02-01T15:24:00Z</time>
      </trkpt>
      <trkpt lat="49.78724" lon="2.29587">
        <ele>103.9</ele>
        <time>2023-02-01T15:24:01Z</time>
      </trkpt>
      <trkpt lat="49.78723" lon="2.29587">
        <ele>103.9</ele>
        <time>2023-02-01T15:24:03Z</time>
      </trkpt>
      <trkpt lat="49.78723" lon="2.29587">
        <ele>103.9</ele>
        <time>2023-02-01T15:24:04Z</time>
      </trkpt>
      <trkpt lat="49.78723" lon="2.29587">
        <ele>104</ele>
        <time>2023-02-01T15:24:05Z</time>
      </trkpt>
      <trkpt lat="49.78723" lon="2.29587">
        <ele>104</ele>
        <time>2023-02-01T15:24:06Z</time>
      </trkpt>
      <trkpt lat="49.78724" lon="2.29587">
        <ele>104</ele>
        <time>2023-02-01T15:24:08Z</time>
      </trkpt>
      <trkpt lat="49.78724" lon="2.29587">
        <ele>104.1</ele>
        <time>2023-02-01T15:24:09Z</time>
      </trkpt>
      <trkpt lat="49.78724" lon="2.29587">
        <ele>104.1</ele>
        <time>2023-02-01T15:24:10Z</time>
      </trkpt>
      <trkpt lat="49.78725" lon="2.29586">
        <ele>104.2</ele>
        <time>2023-02-01T15:24:11Z</time>
      </trkpt>
      <trkpt lat="49.78726" lon="2.29586">
        <ele>104.3</ele>
        <time>2023-02-01T15:24:13Z</time>
      </trkpt>
      <trkpt lat="49.78726" lon="2.29586">
        <ele>104.4</ele>
        <time>2023-02-01T15:24:14Z</time>
      </trkpt>
      <trkpt lat="49.78728" lon="2.29585">
        <ele>104.5</ele>
        <time>2023-02-01T15:24:16Z</time>
      </trkpt>
      <trkpt lat="49.78728" lon="2.29586">
        <ele>104.6</ele>
        <time>2023-02-01T15:24:17Z</time>
      </trkpt>
      <trkpt lat="49.78729" lon="2.29587">
        <ele>104.7</ele>
        <time>2023-02-01T15:24:18Z</time>
      </trkpt>
      <trkpt lat="49.7873" lon="2.29587">
        <ele>104.6</ele>
        <time>2023-02-01T15:24:19Z</time>
      </trkpt>
      <trkpt lat="49.78731" lon="2.29587">
        <ele>104.6</ele>
        <time>2023-02-01T15:24:21Z</time>
      </trkpt>
      <trkpt lat="49.78731" lon="2.29586">
        <ele>104.5</ele>
        <time>2023-02-01T15:24:22Z</time>
      </trkpt>
      <trkpt lat="49.78732" lon="2.29586">
        <ele>104.5</ele>
        <time>2023-02-01T15:24:23Z</time>
      </trkpt>
      <trkpt lat="49.78732" lon="2.29585">
        <ele>104.4</ele>
        <time>2023-02-01T15:24:25Z</time>
      </trkpt>
      <trkpt lat="49.78733" lon="2.29585">
        <ele>104.4</ele>
        <time>2023-02-01T15:24:26Z</time>
      </trkpt>
      <trkpt lat="49.78733" lon="2.29585">
        <ele>104.4</ele>
        <time>2023-02-01T15:24:28Z</time>
      </trkpt>
      <trkpt lat="49.78734" lon="2.29585">
        <ele>104.3</ele>
        <time>2023-02-01T15:24:29Z</time>
      </trkpt>
      <trkpt lat="49.78734" lon="2.29586">
        <ele>104.3</ele>
        <time>2023-02-01T15:24:30Z</time>
      </trkpt>
      <trkpt lat="49.78734" lon="2.29587">
        <ele>104.3</ele>
        <time>2023-02-01T15:24:32Z</time>
      </trkpt>
      <trkpt lat="49.78734" lon="2.29588">
        <ele>104.2</ele>
        <time>2023-02-01T15:24:33Z</time>
      </trkpt>
      <trkpt lat="49.78733" lon="2.29588">
        <ele>104.2</ele>
        <time>2023-02-01T15:24:34Z</time>
      </trkpt>
      <trkpt lat="49.78731" lon="2.29589">
        <ele>104.1</ele>
        <time>2023-02-01T15:24:36Z</time>
      </trkpt>
      <trkpt lat="49.78731" lon="2.29589">
        <ele>104</ele>
        <time>2023-02-01T15:24:37Z</time>
      </trkpt>
      <trkpt lat="49.7873" lon="2.29589">
        <ele>104</ele>
        <time>2023-02-01T15:24:38Z</time>
      </trkpt>
      <trkpt lat="49.7873" lon="2.29589">
        <ele>104</ele>
        <time>2023-02-01T15:24:40Z</time>
      </trkpt>
      <trkpt lat="49.7873" lon="2.29589">
        <ele>104</ele>
        <time>2023-02-01T15:24:41Z</time>
      </trkpt>
      <trkpt lat="49.7873" lon="2.29589">
        <ele>103.9</ele>
        <time>2023-02-01T15:24:43Z</time>
      </trkpt>
      <trkpt lat="49.78729" lon="2.29589">
        <ele>103.9</ele>
        <time>2023-02-01T15:24:44Z</time>
      </trkpt>
      <trkpt lat="49.78729" lon="2.29589">
        <ele>103.9</ele>
        <time>2023-02-01T15:24:46Z</time>
      </trkpt>
      <trkpt lat="49.78729" lon="2.29589">
        <ele>103.9</ele>
        <time>2023-02-01T15:24:47Z</time>
      </trkpt>
      <trkpt lat="49.78729" lon="2.29589">
        <ele>103.9</ele>
        <time>2023-02-01T15:24:48Z</time>
      </trkpt>
      <trkpt lat="49.78729" lon="2.29589">
        <ele>103.9</ele>
        <time>2023-02-01T15:24:49Z</time>
      </trkpt>
      <trkpt lat="49.78729" lon="2.29589">
        <ele>103.9</ele>
        <time>2023-02-01T15:24:50Z</time>
      </trkpt>
      <trkpt lat="49.78729" lon="2.29589">
        <ele>103.9</ele>
        <time>2023-02-01T15:24:51Z</time>
      </trkpt>
      <trkpt lat="49.78729" lon="2.29589">
        <ele>103.9</ele>
        <time>2023-02-01T15:24:52Z</time>
      </trkpt>
      <trkpt lat="49.78729" lon="2.29589">
        <ele>103.9</ele>
        <time>2023-02-01T15:24:53Z</time>
      </trkpt>
      <trkpt lat="49.78729" lon="2.29589">
        <ele>103.9</ele>
        <time>2023-02-01T15:24:54Z</time>
      </trkpt>
      <trkpt lat="49.78729" lon="2.29589">
        <ele>103.9</ele>
        <time>2023-02-01T15:24:55Z</time>
      </trkpt>
      <trkpt lat="49.78729" lon="2.29589">
        <ele>103.9</ele>
        <time>2023-02-01T15:24:56Z</time>
      </trkpt>
      <trkpt lat="49.78729" lon="2.29589">
        <ele>103.9</ele>
        <time>2023-02-01T15:24:57Z</time>
      </trkpt>
      <trkpt lat="49.78729" lon="2.29589">
        <ele>103.9</ele>
        <time>2023-02-01T15:24:58Z</time>
      </trkpt>
      <trkpt lat="49.78729" lon="2.29589">
        <ele>103.9</ele>
        <time>2023-02-01T15:24:59Z</time>
      </trkpt>
      <trkpt lat="49.78729" lon="2.29589">
        <ele>103.9</ele>
        <time>2023-02-01T15:25:00Z</time>
      </trkpt>
      <trkpt lat="49.78729" lon="2.29589">
        <ele>103.9</ele>
        <time>2023-02-01T15:25:01Z</time>
      </trkpt>
      <trkpt lat="49.78731" lon="2.29589">
        <ele>103.8</ele>
        <time>2023-02-01T15:25:02Z</time>
      </trkpt>
      <trkpt lat="49.78733" lon="2.2959">
        <ele>103.6</ele>
        <time>2023-02-01T15:25:03Z</time>
      </trkpt>
      <trkpt lat="49.78734" lon="2.2959">
        <ele>103.6</ele>
        <time>2023-02-01T15:25:04Z</time>
      </trkpt>
      <trkpt lat="49.78735" lon="2.2959">
        <ele>103.5</ele>
        <time>2023-02-01T15:25:05Z</time>
      </trkpt>
      <trkpt lat="49.78735" lon="2.2959">
        <ele>103.5</ele>
        <time>2023-02-01T15:25:06Z</time>
      </trkpt>
      <trkpt lat="49.78735" lon="2.2959">
        <ele>103.5</ele>
        <time>2023-02-01T15:25:07Z</time>
      </trkpt>
      <trkpt lat="49.78735" lon="2.29589">
        <ele>103.4</ele>
        <time>2023-02-01T15:25:08Z</time>
      </trkpt>
      <trkpt lat="49.78735" lon="2.29589">
        <ele>103.4</ele>
        <time>2023-02-01T15:25:09Z</time>
      </trkpt>
      <trkpt lat="49.78735" lon="2.29589">
        <ele>103.4</ele>
        <time>2023-02-01T15:25:10Z</time>
      </trkpt>
      <trkpt lat="49.78735" lon="2.29589">
        <ele>103.4</ele>
        <time>2023-02-01T15:25:11Z</time>
      </trkpt>
      <trkpt lat="49.78735" lon="2.29589">
        <ele>103.4</ele>
        <time>2023-02-01T15:25:12Z</time>
      </trkpt>
      <trkpt lat="49.78735" lon="2.29589">
        <ele>103.4</ele>
        <time>2023-02-01T15:25:13Z</time>
      </trkpt>
      <trkpt lat="49.78735" lon="2.29589">
        <ele>103.4</ele>
        <time>2023-02-01T15:25:14Z</time>
      </trkpt>
      <trkpt lat="49.78735" lon="2.29589">
        <ele>103.4</ele>
        <time>2023-02-01T15:25:15Z</time>
      </trkpt>
      <trkpt lat="49.78735" lon="2.29589">
        <ele>103.4</ele>
        <time>2023-02-01T15:25:16Z</time>
      </trkpt>
      <trkpt lat="49.78735" lon="2.29589">
        <ele>103.4</ele>
        <time>2023-02-01T15:25:17Z</time>
      </trkpt>
      <trkpt lat="49.78735" lon="2.29589">
        <ele>103.4</ele>
        <time>2023-02-01T15:25:18Z</time>
      </trkpt>
      <trkpt lat="49.78735" lon="2.29589">
        <ele>103.4</ele>
        <time>2023-02-01T15:25:19Z</time>
      </trkpt>
      <trkpt lat="49.78735" lon="2.29589">
        <ele>103.4</ele>
        <time>2023-02-01T15:25:20Z</time>
      </trkpt>
      <trkpt lat="49.78735" lon="2.29589">
        <ele>103.4</ele>
        <time>2023-02-01T15:25:21Z</time>
      </trkpt>
      <trkpt lat="49.78735" lon="2.29589">
        <ele>103.4</ele>
        <time>2023-02-01T15:25:22Z</time>
      </trkpt>
      <trkpt lat="49.78736" lon="2.29589">
        <ele>103.4</ele>
        <time>2023-02-01T15:25:23Z</time>
      </trkpt>
      <trkpt lat="49.78737" lon="2.29588">
        <ele>103.3</ele>
        <time>2023-02-01T15:25:24Z</time>
      </trkpt>
      <trkpt lat="49.78738" lon="2.29588">
        <ele>103.3</ele>
        <time>2023-02-01T15:25:25Z</time>
      </trkpt>
      <trkpt lat="49.78738" lon="2.29588">
        <ele>103.3</ele>
        <time>2023-02-01T15:25:26Z</time>
      </trkpt>
      <trkpt lat="49.78738" lon="2.29588">
        <ele>103.2</ele>
        <time>2023-02-01T15:25:27Z</time>
      </trkpt>
      <trkpt lat="49.78738" lon="2.29587">
        <ele>103.2</ele>
        <time>2023-02-01T15:25:28Z</time>
      </trkpt>
      <trkpt lat="49.78739" lon="2.29587">
        <ele>103.2</ele>
        <time>2023-02-01T15:25:29Z</time>
      </trkpt>
      <trkpt lat="49.78739" lon="2.29586">
        <ele>103.1</ele>
        <time>2023-02-01T15:25:30Z</time>
      </trkpt>
      <trkpt lat="49.78739" lon="2.29586">
        <ele>103.1</ele>
        <time>2023-02-01T15:25:31Z</time>
      </trkpt>
      <trkpt lat="49.78739" lon="2.29585">
        <ele>103.1</ele>
        <time>2023-02-01T15:25:32Z</time>
      </trkpt>
      <trkpt lat="49.78739" lon="2.29584">
        <ele>103</ele>
        <time>2023-02-01T15:25:33Z</time>
      </trkpt>
      <trkpt lat="49.78739" lon="2.29583">
        <ele>103</ele>
        <time>2023-02-01T15:25:34Z</time>
      </trkpt>
      <trkpt lat="49.78738" lon="2.29582">
        <ele>102.9</ele>
        <time>2023-02-01T15:25:35Z</time>
      </trkpt>
      <trkpt lat="49.78737" lon="2.29582">
        <ele>102.9</ele>
        <time>2023-02-01T15:25:36Z</time>
      </trkpt>
      <trkpt lat="49.78736" lon="2.29582">
        <ele>102.8</ele>
        <time>2023-02-01T15:25:37Z</time>
      </trkpt>
      <trkpt lat="49.78736" lon="2.29581">
        <ele>102.8</ele>
        <time>2023-02-01T15:25:38Z</time>
      </trkpt>
      <trkpt lat="49.78735" lon="2.29581">
        <ele>102.7</ele>
        <time>2023-02-01T15:25:39Z</time>
      </trkpt>
      <trkpt lat="49.78734" lon="2.29581">
        <ele>102.7</ele>
        <time>2023-02-01T15:25:40Z</time>
      </trkpt>
      <trkpt lat="49.78734" lon="2.29581">
        <ele>102.6</ele>
        <time>2023-02-01T15:25:41Z</time>
      </trkpt>
      <trkpt lat="49.78733" lon="2.29581">
        <ele>102.6</ele>
        <time>2023-02-01T15:25:42Z</time>
      </trkpt>
      <trkpt lat="49.78733" lon="2.2958">
        <ele>102.6</ele>
        <time>2023-02-01T15:25:43Z</time>
      </trkpt>
      <trkpt lat="49.78732" lon="2.2958">
        <ele>102.5</ele>
        <time>2023-02-01T15:25:44Z</time>
      </trkpt>
      <trkpt lat="49.78732" lon="2.2958">
        <ele>102.5</ele>
        <time>2023-02-01T15:25:45Z</time>
      </trkpt>
      <trkpt lat="49.78731" lon="2.2958">
        <ele>102.5</ele>
        <time>2023-02-01T15:25:46Z</time>
      </trkpt>
      <trkpt lat="49.78731" lon="2.2958">
        <ele>102.4</ele>
        <time>2023-02-01T15:25:47Z</time>
      </trkpt>
      <trkpt lat="49.78731" lon="2.2958">
        <ele>102.4</ele>
        <time>2023-02-01T15:25:48Z</time>
      </trkpt>
      <trkpt lat="49.7873" lon="2.2958">
        <ele>102.4</ele>
        <time>2023-02-01T15:25:49Z</time>
      </trkpt>
      <trkpt lat="49.78729" lon="2.29579">
        <ele>102.3</ele>
        <time>2023-02-01T15:25:50Z</time>
      </trkpt>
      <trkpt lat="49.78729" lon="2.29579">
        <ele>102.3</ele>
        <time>2023-02-01T15:25:51Z</time>
      </trkpt>
      <trkpt lat="49.78729" lon="2.29579">
        <ele>102.3</ele>
        <time>2023-02-01T15:25:52Z</time>
      </trkpt>
      <trkpt lat="49.78729" lon="2.29579">
        <ele>102.3</ele>
        <time>2023-02-01T15:25:53Z</time>
      </trkpt>
      <trkpt lat="49.78729" lon="2.29579">
        <ele>102.3</ele>
        <time>2023-02-01T15:25:54Z</time>
      </trkpt>
      <trkpt lat="49.78728" lon="2.29578">
        <ele>102.3</ele>
        <time>2023-02-01T15:25:55Z</time>
      </trkpt>
      <trkpt lat="49.78729" lon="2.29578">
        <ele>102.3</ele>
        <time>2023-02-01T15:25:56Z</time>
      </trkpt>
      <trkpt lat="49.78728" lon="2.29578">
        <ele>102.2</ele>
        <time>2023-02-01T15:25:57Z</time>
      </trkpt>
      <trkpt lat="49.78728" lon="2.29578">
        <ele>102.2</ele>
        <time>2023-02-01T15:25:58Z</time>
      </trkpt>
      <trkpt lat="49.78728" lon="2.29578">
        <ele>102.2</ele>
        <time>2023-02-01T15:25:59Z</time>
      </trkpt>
      <trkpt lat="49.78727" lon="2.29578">
        <ele>102.2</ele>
        <time>2023-02-01T15:26:00Z</time>
      </trkpt>
      <trkpt lat="49.78726" lon="2.29577">
        <ele>102.1</ele>
        <time>2023-02-01T15:26:01Z</time>
      </trkpt>
      <trkpt lat="49.78724" lon="2.29576">
        <ele>101.9</ele>
        <time>2023-02-01T15:26:02Z</time>
      </trkpt>
      <trkpt lat="49.78723" lon="2.29575">
        <ele>101.9</ele>
        <time>2023-02-01T15:26:04Z</time>
      </trkpt>
      <trkpt lat="49.78723" lon="2.29575">
        <ele>101.8</ele>
        <time>2023-02-01T15:26:06Z</time>
      </trkpt>
      <trkpt lat="49.78723" lon="2.29574">
        <ele>101.8</ele>
        <time>2023-02-01T15:26:07Z</time>
      </trkpt>
      <trkpt lat="49.78722" lon="2.29574">
        <ele>101.8</ele>
        <time>2023-02-01T15:26:08Z</time>
      </trkpt>
      <trkpt lat="49.78722" lon="2.29573">
        <ele>101.7</ele>
        <time>2023-02-01T15:26:09Z</time>
      </trkpt>
      <trkpt lat="49.78722" lon="2.29572">
        <ele>101.7</ele>
        <time>2023-02-01T15:26:10Z</time>
      </trkpt>
      <trkpt lat="49.78722" lon="2.29572">
        <ele>101.7</ele>
        <time>2023-02-01T15:26:11Z</time>
      </trkpt>
      <trkpt lat="49.78722" lon="2.2957">
        <ele>101.6</ele>
        <time>2023-02-01T15:26:13Z</time>
      </trkpt>
      <trkpt lat="49.78722" lon="2.29569">
        <ele>101.6</ele>
        <time>2023-02-01T15:26:15Z</time>
      </trkpt>
      <trkpt lat="49.78722" lon="2.29568">
        <ele>101.5</ele>
        <time>2023-02-01T15:26:16Z</time>
      </trkpt>
      <trkpt lat="49.78722" lon="2.29567">
        <ele>101.5</ele>
        <time>2023-02-01T15:26:17Z</time>
      </trkpt>
      <trkpt lat="49.78722" lon="2.29567">
        <ele>101.4</ele>
        <time>2023-02-01T15:26:18Z</time>
      </trkpt>
      <trkpt lat="49.78722" lon="2.29566">
        <ele>101.4</ele>
        <time>2023-02-01T15:26:19Z</time>
      </trkpt>
      <trkpt lat="49.78722" lon="2.29565">
        <ele>101.4</ele>
        <time>2023-02-01T15:26:20Z</time>
      </trkpt>
      <trkpt lat="49.78722" lon="2.29565">
        <ele>101.4</ele>
        <time>2023-02-01T15:26:21Z</time>
      </trkpt>
      <trkpt lat="49.78722" lon="2.29565">
        <ele>101.4</ele>
        <time>2023-02-01T15:26:22Z</time>
      </trkpt>
      <trkpt lat="49.78722" lon="2.29565">
        <ele>101.4</ele>
        <time>2023-02-01T15:26:24Z</time>
      </trkpt>
      <trkpt lat="49.78722" lon="2.29565">
        <ele>101.3</ele>
        <time>2023-02-01T15:26:25Z</time>
      </trkpt>
      <trkpt lat="49.78722" lon="2.29564">
        <ele>101.3</ele>
        <time>2023-02-01T15:26:27Z</time>
      </trkpt>
      <trkpt lat="49.78721" lon="2.29563">
        <ele>101.3</ele>
        <time>2023-02-01T15:26:28Z</time>
      </trkpt>
      <trkpt lat="49.78721" lon="2.29563">
        <ele>101.3</ele>
        <time>2023-02-01T15:26:30Z</time>
      </trkpt>
      <trkpt lat="49.78721" lon="2.29562">
        <ele>101.2</ele>
        <time>2023-02-01T15:26:31Z</time>
      </trkpt>
      <trkpt lat="49.7872" lon="2.29561">
        <ele>101.2</ele>
        <time>2023-02-01T15:26:32Z</time>
      </trkpt>
      <trkpt lat="49.78719" lon="2.29561">
        <ele>101.1</ele>
        <time>2023-02-01T15:26:33Z</time>
      </trkpt>
      <trkpt lat="49.78719" lon="2.2956">
        <ele>101.1</ele>
        <time>2023-02-01T15:26:34Z</time>
      </trkpt>
      <trkpt lat="49.78718" lon="2.29559">
        <ele>101</ele>
        <time>2023-02-01T15:26:35Z</time>
      </trkpt>
      <trkpt lat="49.78717" lon="2.29558">
        <ele>100.9</ele>
        <time>2023-02-01T15:26:37Z</time>
      </trkpt>
      <trkpt lat="49.78716" lon="2.29558">
        <ele>100.9</ele>
        <time>2023-02-01T15:26:38Z</time>
      </trkpt>
      <trkpt lat="49.78716" lon="2.29557">
        <ele>100.9</ele>
        <time>2023-02-01T15:26:39Z</time>
      </trkpt>
      <trkpt lat="49.78714" lon="2.29556">
        <ele>100.7</ele>
        <time>2023-02-01T15:26:40Z</time>
      </trkpt>
      <trkpt lat="49.78714" lon="2.29556">
        <ele>100.7</ele>
        <time>2023-02-01T15:26:41Z</time>
      </trkpt>
      <trkpt lat="49.78713" lon="2.29556">
        <ele>100.7</ele>
        <time>2023-02-01T15:26:42Z</time>
      </trkpt>
      <trkpt lat="49.78713" lon="2.29556">
        <ele>100.6</ele>
        <time>2023-02-01T15:26:43Z</time>
      </trkpt>
      <trkpt lat="49.7871" lon="2.29555">
        <ele>100.5</ele>
        <time>2023-02-01T15:26:45Z</time>
      </trkpt>
      <trkpt lat="49.78709" lon="2.29555">
        <ele>100.4</ele>
        <time>2023-02-01T15:26:47Z</time>
      </trkpt>
      <trkpt lat="49.78708" lon="2.29555">
        <ele>100.4</ele>
        <time>2023-02-01T15:26:48Z</time>
      </trkpt>
      <trkpt lat="49.78707" lon="2.29555">
        <ele>100.3</ele>
        <time>2023-02-01T15:26:49Z</time>
      </trkpt>
      <trkpt lat="49.78706" lon="2.29555">
        <ele>100.2</ele>
        <time>2023-02-01T15:26:50Z</time>
      </trkpt>
      <trkpt lat="49.78704" lon="2.29556">
        <ele>100.2</ele>
        <time>2023-02-01T15:26:51Z</time>
      </trkpt>
      <trkpt lat="49.78703" lon="2.29556">
        <ele>100.1</ele>
        <time>2023-02-01T15:26:52Z</time>
      </trkpt>
      <trkpt lat="49.78701" lon="2.29555">
        <ele>100</ele>
        <time>2023-02-01T15:26:54Z</time>
      </trkpt>
      <trkpt lat="49.787" lon="2.29555">
        <ele>99.9</ele>
        <time>2023-02-01T15:26:55Z</time>
      </trkpt>
      <trkpt lat="49.78698" lon="2.29555">
        <ele>99.8</ele>
        <time>2023-02-01T15:26:56Z</time>
      </trkpt>
      <trkpt lat="49.78696" lon="2.29554">
        <ele>99.7</ele>
        <time>2023-02-01T15:26:57Z</time>
      </trkpt>
      <trkpt lat="49.78695" lon="2.29554">
        <ele>99.7</ele>
        <time>2023-02-01T15:26:58Z</time>
      </trkpt>
      <trkpt lat="49.78694" lon="2.29554">
        <ele>99.6</ele>
        <time>2023-02-01T15:26:59Z</time>
      </trkpt>
      <trkpt lat="49.78692" lon="2.29553">
        <ele>99.5</ele>
        <time>2023-02-01T15:27:00Z</time>
      </trkpt>
      <trkpt lat="49.78691" lon="2.29552">
        <ele>99.5</ele>
        <time>2023-02-01T15:27:02Z</time>
      </trkpt>
      <trkpt lat="49.7869" lon="2.29551">
        <ele>99.4</ele>
        <time>2023-02-01T15:27:03Z</time>
      </trkpt>
      <trkpt lat="49.78689" lon="2.2955">
        <ele>99.3</ele>
        <time>2023-02-01T15:27:04Z</time>
      </trkpt>
      <trkpt lat="49.78689" lon="2.2955">
        <ele>99.3</ele>
        <time>2023-02-01T15:27:05Z</time>
      </trkpt>
      <trkpt lat="49.78687" lon="2.29549">
        <ele>99.2</ele>
        <time>2023-02-01T15:27:06Z</time>
      </trkpt>
      <trkpt lat="49.78686" lon="2.29548">
        <ele>99.2</ele>
        <time>2023-02-01T15:27:07Z</time>
      </trkpt>
      <trkpt lat="49.78684" lon="2.29547">
        <ele>99.1</ele>
        <time>2023-02-01T15:27:08Z</time>
      </trkpt>
      <trkpt lat="49.78683" lon="2.29546">
        <ele>99</ele>
        <time>2023-02-01T15:27:09Z</time>
      </trkpt>
      <trkpt lat="49.78682" lon="2.29546">
        <ele>99</ele>
        <time>2023-02-01T15:27:10Z</time>
      </trkpt>
      <trkpt lat="49.78682" lon="2.29545">
        <ele>98.9</ele>
        <time>2023-02-01T15:27:12Z</time>
      </trkpt>
      <trkpt lat="49.78681" lon="2.29545">
        <ele>99.7</ele>
        <time>2023-02-01T15:27:13Z</time>
      </trkpt>
      <trkpt lat="49.7868" lon="2.29544">
        <ele>99.8</ele>
        <time>2023-02-01T15:27:14Z</time>
      </trkpt>
      <trkpt lat="49.78679" lon="2.29543">
        <ele>99.8</ele>
        <time>2023-02-01T15:27:15Z</time>
      </trkpt>
      <trkpt lat="49.78678" lon="2.29542">
        <ele>99.9</ele>
        <time>2023-02-01T15:27:16Z</time>
      </trkpt>
      <trkpt lat="49.78677" lon="2.29542">
        <ele>99.9</ele>
        <time>2023-02-01T15:27:17Z</time>
      </trkpt>
      <trkpt lat="49.78676" lon="2.29541">
        <ele>100</ele>
        <time>2023-02-01T15:27:19Z</time>
      </trkpt>
      <trkpt lat="49.78675" lon="2.29541">
        <ele>100</ele>
        <time>2023-02-01T15:27:20Z</time>
      </trkpt>
      <trkpt lat="49.78674" lon="2.2954">
        <ele>100</ele>
        <time>2023-02-01T15:27:21Z</time>
      </trkpt>
      <trkpt lat="49.78673" lon="2.2954">
        <ele>100.1</ele>
        <time>2023-02-01T15:27:22Z</time>
      </trkpt>
      <trkpt lat="49.78672" lon="2.29539">
        <ele>100.1</ele>
        <time>2023-02-01T15:27:23Z</time>
      </trkpt>
      <trkpt lat="49.78671" lon="2.29539">
        <ele>100.2</ele>
        <time>2023-02-01T15:27:25Z</time>
      </trkpt>
      <trkpt lat="49.7867" lon="2.29538">
        <ele>100.2</ele>
        <time>2023-02-01T15:27:26Z</time>
      </trkpt>
      <trkpt lat="49.78669" lon="2.29537">
        <ele>100.3</ele>
        <time>2023-02-01T15:27:27Z</time>
      </trkpt>
      <trkpt lat="49.78668" lon="2.29536">
        <ele>100.3</ele>
        <time>2023-02-01T15:27:28Z</time>
      </trkpt>
      <trkpt lat="49.78667" lon="2.29536">
        <ele>100.3</ele>
        <time>2023-02-01T15:27:30Z</time>
      </trkpt>
      <trkpt lat="49.78667" lon="2.29535">
        <ele>100.3</ele>
        <time>2023-02-01T15:27:31Z</time>
      </trkpt>
      <trkpt lat="49.78666" lon="2.29535">
        <ele>100.4</ele>
        <time>2023-02-01T15:27:32Z</time>
      </trkpt>
      <trkpt lat="49.78666" lon="2.29534">
        <ele>100.4</ele>
        <time>2023-02-01T15:27:33Z</time>
      </trkpt>
      <trkpt lat="49.78666" lon="2.29533">
        <ele>100.4</ele>
        <time>2023-02-01T15:27:35Z</time>
      </trkpt>
      <trkpt lat="49.78666" lon="2.29533">
        <ele>100.4</ele>
        <time>2023-02-01T15:27:36Z</time>
      </trkpt>
      <trkpt lat="49.78667" lon="2.29534">
        <ele>100.4</ele>
        <time>2023-02-01T15:27:38Z</time>
      </trkpt>
      <trkpt lat="49.78667" lon="2.29534">
        <ele>100.4</ele>
        <time>2023-02-01T15:27:39Z</time>
      </trkpt>
      <trkpt lat="49.78667" lon="2.29534">
        <ele>100.4</ele>
        <time>2023-02-01T15:27:40Z</time>
      </trkpt>
      <trkpt lat="49.78666" lon="2.29534">
        <ele>100.4</ele>
        <time>2023-02-01T15:27:41Z</time>
      </trkpt>
      <trkpt lat="49.78666" lon="2.29533">
        <ele>100.4</ele>
        <time>2023-02-01T15:27:42Z</time>
      </trkpt>
      <trkpt lat="49.78666" lon="2.29533">
        <ele>100.5</ele>
        <time>2023-02-01T15:27:43Z</time>
      </trkpt>
      <trkpt lat="49.78665" lon="2.29533">
        <ele>100.5</ele>
        <time>2023-02-01T15:27:45Z</time>
      </trkpt>
      <trkpt lat="49.78665" lon="2.29533">
        <ele>100.5</ele>
        <time>2023-02-01T15:27:46Z</time>
      </trkpt>
      <trkpt lat="49.78665" lon="2.29533">
        <ele>100.5</ele>
        <time>2023-02-01T15:27:47Z</time>
      </trkpt>
      <trkpt lat="49.78664" lon="2.29532">
        <ele>100.5</ele>
        <time>2023-02-01T15:27:48Z</time>
      </trkpt>
      <trkpt lat="49.78664" lon="2.29532">
        <ele>100.5</ele>
        <time>2023-02-01T15:27:49Z</time>
      </trkpt>
      <trkpt lat="49.78664" lon="2.29532">
        <ele>100.5</ele>
        <time>2023-02-01T15:27:50Z</time>
      </trkpt>
      <trkpt lat="49.78664" lon="2.29532">
        <ele>100.5</ele>
        <time>2023-02-01T15:27:52Z</time>
      </trkpt>
      <trkpt lat="49.78664" lon="2.29532">
        <ele>100.5</ele>
        <time>2023-02-01T15:27:53Z</time>
      </trkpt>
      <trkpt lat="49.78664" lon="2.29532">
        <ele>100.5</ele>
        <time>2023-02-01T15:27:54Z</time>
      </trkpt>
      <trkpt lat="49.78665" lon="2.29532">
        <ele>100.5</ele>
        <time>2023-02-01T15:27:55Z</time>
      </trkpt>
      <trkpt lat="49.78665" lon="2.29531">
        <ele>100.6</ele>
        <time>2023-02-01T15:27:56Z</time>
      </trkpt>
      <trkpt lat="49.78665" lon="2.29532">
        <ele>100.6</ele>
        <time>2023-02-01T15:27:57Z</time>
      </trkpt>
      <trkpt lat="49.78665" lon="2.29532">
        <ele>100.6</ele>
        <time>2023-02-01T15:27:58Z</time>
      </trkpt>
      <trkpt lat="49.78665" lon="2.29532">
        <ele>100.6</ele>
        <time>2023-02-01T15:27:59Z</time>
      </trkpt>
      <trkpt lat="49.78664" lon="2.29531">
        <ele>100.6</ele>
        <time>2023-02-01T15:28:01Z</time>
      </trkpt>
      <trkpt lat="49.78664" lon="2.29531">
        <ele>100.6</ele>
        <time>2023-02-01T15:28:02Z</time>
      </trkpt>
      <trkpt lat="49.78663" lon="2.29531">
        <ele>100.7</ele>
        <time>2023-02-01T15:28:03Z</time>
      </trkpt>
      <trkpt lat="49.78662" lon="2.2953">
        <ele>100.7</ele>
        <time>2023-02-01T15:28:04Z</time>
      </trkpt>
      <trkpt lat="49.78661" lon="2.29529">
        <ele>100.7</ele>
        <time>2023-02-01T15:28:05Z</time>
      </trkpt>
      <trkpt lat="49.78659" lon="2.29528">
        <ele>100.8</ele>
        <time>2023-02-01T15:28:06Z</time>
      </trkpt>
      <trkpt lat="49.78658" lon="2.29526">
        <ele>100.9</ele>
        <time>2023-02-01T15:28:07Z</time>
      </trkpt>
      <trkpt lat="49.78657" lon="2.29525">
        <ele>100.9</ele>
        <time>2023-02-01T15:28:08Z</time>
      </trkpt>
      <trkpt lat="49.78656" lon="2.29525">
        <ele>100.9</ele>
        <time>2023-02-01T15:28:09Z</time>
      </trkpt>
      <trkpt lat="49.78654" lon="2.29523">
        <ele>101</ele>
        <time>2023-02-01T15:28:11Z</time>
      </trkpt>
      <trkpt lat="49.78653" lon="2.29522">
        <ele>101</ele>
        <time>2023-02-01T15:28:12Z</time>
      </trkpt>
      <trkpt lat="49.78652" lon="2.29521">
        <ele>101.1</ele>
        <time>2023-02-01T15:28:13Z</time>
      </trkpt>
      <trkpt lat="49.78651" lon="2.2952">
        <ele>101.1</ele>
        <time>2023-02-01T15:28:14Z</time>
      </trkpt>
      <trkpt lat="49.78651" lon="2.29519">
        <ele>101.2</ele>
        <time>2023-02-01T15:28:15Z</time>
      </trkpt>
      <trkpt lat="49.78649" lon="2.29516">
        <ele>101.2</ele>
        <time>2023-02-01T15:28:17Z</time>
      </trkpt>
      <trkpt lat="49.7865" lon="2.29515">
        <ele>101.3</ele>
        <time>2023-02-01T15:28:18Z</time>
      </trkpt>
      <trkpt lat="49.7865" lon="2.29514">
        <ele>101.3</ele>
        <time>2023-02-01T15:28:20Z</time>
      </trkpt>
      <trkpt lat="49.7865" lon="2.29513">
        <ele>101.3</ele>
        <time>2023-02-01T15:28:21Z</time>
      </trkpt>
      <trkpt lat="49.78649" lon="2.29514">
        <ele>101.4</ele>
        <time>2023-02-01T15:28:23Z</time>
      </trkpt>
      <trkpt lat="49.78649" lon="2.29514">
        <ele>101.4</ele>
        <time>2023-02-01T15:28:24Z</time>
      </trkpt>
      <trkpt lat="49.78649" lon="2.29514">
        <ele>101.4</ele>
        <time>2023-02-01T15:28:25Z</time>
      </trkpt>
      <trkpt lat="49.78649" lon="2.29514">
        <ele>101.4</ele>
        <time>2023-02-01T15:28:26Z</time>
      </trkpt>
      <trkpt lat="49.78649" lon="2.29514">
        <ele>101.4</ele>
        <time>2023-02-01T15:28:27Z</time>
      </trkpt>
      <trkpt lat="49.78649" lon="2.29514">
        <ele>101.4</ele>
        <time>2023-02-01T15:28:29Z</time>
      </trkpt>
      <trkpt lat="49.78649" lon="2.29514">
        <ele>101.4</ele>
        <time>2023-02-01T15:28:30Z</time>
      </trkpt>
      <trkpt lat="49.78648" lon="2.29513">
        <ele>101.4</ele>
        <time>2023-02-01T15:28:31Z</time>
      </trkpt>
      <trkpt lat="49.78648" lon="2.29513">
        <ele>101.4</ele>
        <time>2023-02-01T15:28:32Z</time>
      </trkpt>
      <trkpt lat="49.78648" lon="2.29512">
        <ele>101.5</ele>
        <time>2023-02-01T15:28:34Z</time>
      </trkpt>
      <trkpt lat="49.78647" lon="2.29512">
        <ele>101.5</ele>
        <time>2023-02-01T15:28:35Z</time>
      </trkpt>
      <trkpt lat="49.78647" lon="2.29512">
        <ele>101.5</ele>
        <time>2023-02-01T15:28:36Z</time>
      </trkpt>
      <trkpt lat="49.78647" lon="2.29511">
        <ele>101.5</ele>
        <time>2023-02-01T15:28:38Z</time>
      </trkpt>
      <trkpt lat="49.78647" lon="2.29511">
        <ele>101.5</ele>
        <time>2023-02-01T15:28:39Z</time>
      </trkpt>
      <trkpt lat="49.78647" lon="2.29511">
        <ele>101.5</ele>
        <time>2023-02-01T15:28:40Z</time>
      </trkpt>
      <trkpt lat="49.78647" lon="2.29511">
        <ele>101.5</ele>
        <time>2023-02-01T15:28:42Z</time>
      </trkpt>
      <trkpt lat="49.78646" lon="2.29511">
        <ele>101.6</ele>
        <time>2023-02-01T15:28:43Z</time>
      </trkpt>
      <trkpt lat="49.78646" lon="2.2951">
        <ele>101.6</ele>
        <time>2023-02-01T15:28:45Z</time>
      </trkpt>
      <trkpt lat="49.78646" lon="2.29509">
        <ele>101.6</ele>
        <time>2023-02-01T15:28:46Z</time>
      </trkpt>
      <trkpt lat="49.78646" lon="2.29509">
        <ele>101.6</ele>
        <time>2023-02-01T15:28:47Z</time>
      </trkpt>
      <trkpt lat="49.78646" lon="2.29509">
        <ele>101.6</ele>
        <time>2023-02-01T15:28:49Z</time>
      </trkpt>
      <trkpt lat="49.78646" lon="2.29509">
        <ele>101.6</ele>
        <time>2023-02-01T15:28:50Z</time>
      </trkpt>
      <trkpt lat="49.78645" lon="2.29509">
        <ele>101.7</ele>
        <time>2023-02-01T15:28:51Z</time>
      </trkpt>
      <trkpt lat="49.78645" lon="2.29509">
        <ele>101.7</ele>
        <time>2023-02-01T15:28:52Z</time>
      </trkpt>
      <trkpt lat="49.78645" lon="2.29508">
        <ele>101.7</ele>
        <time>2023-02-01T15:28:53Z</time>
      </trkpt>
      <trkpt lat="49.78644" lon="2.29508">
        <ele>101.8</ele>
        <time>2023-02-01T15:28:55Z</time>
      </trkpt>
      <trkpt lat="49.78644" lon="2.29507">
        <ele>101.8</ele>
        <time>2023-02-01T15:28:56Z</time>
      </trkpt>
      <trkpt lat="49.78643" lon="2.29507">
        <ele>101.8</ele>
        <time>2023-02-01T15:28:57Z</time>
      </trkpt>
      <trkpt lat="49.78643" lon="2.29506">
        <ele>101.9</ele>
        <time>2023-02-01T15:28:58Z</time>
      </trkpt>
      <trkpt lat="49.78642" lon="2.29505">
        <ele>101.9</ele>
        <time>2023-02-01T15:28:59Z</time>
      </trkpt>
      <trkpt lat="49.78641" lon="2.29503">
        <ele>102</ele>
        <time>2023-02-01T15:29:01Z</time>
      </trkpt>
      <trkpt lat="49.7864" lon="2.29502">
        <ele>102.1</ele>
        <time>2023-02-01T15:29:03Z</time>
      </trkpt>
      <trkpt lat="49.78639" lon="2.29501">
        <ele>102.2</ele>
        <time>2023-02-01T15:29:04Z</time>
      </trkpt>
      <trkpt lat="49.78637" lon="2.295">
        <ele>102.3</ele>
        <time>2023-02-01T15:29:06Z</time>
      </trkpt>
      <trkpt lat="49.78635" lon="2.295">
        <ele>102.5</ele>
        <time>2023-02-01T15:29:07Z</time>
      </trkpt>
      <trkpt lat="49.78634" lon="2.29499">
        <ele>102.5</ele>
        <time>2023-02-01T15:29:08Z</time>
      </trkpt>
      <trkpt lat="49.78633" lon="2.29499">
        <ele>102.5</ele>
        <time>2023-02-01T15:29:09Z</time>
      </trkpt>
      <trkpt lat="49.78632" lon="2.29499">
        <ele>102.6</ele>
        <time>2023-02-01T15:29:10Z</time>
      </trkpt>
      <trkpt lat="49.78631" lon="2.29498">
        <ele>102.7</ele>
        <time>2023-02-01T15:29:11Z</time>
      </trkpt>
      <trkpt lat="49.7863" lon="2.29498">
        <ele>102.7</ele>
        <time>2023-02-01T15:29:12Z</time>
      </trkpt>
      <trkpt lat="49.7863" lon="2.29497">
        <ele>102.8</ele>
        <time>2023-02-01T15:29:14Z</time>
      </trkpt>
      <trkpt lat="49.7863" lon="2.29496">
        <ele>102.8</ele>
        <time>2023-02-01T15:29:15Z</time>
      </trkpt>
      <trkpt lat="49.7863" lon="2.29495">
        <ele>102.9</ele>
        <time>2023-02-01T15:29:16Z</time>
      </trkpt>
      <trkpt lat="49.7863" lon="2.29495">
        <ele>102.9</ele>
        <time>2023-02-01T15:29:17Z</time>
      </trkpt>
      <trkpt lat="49.78629" lon="2.29494">
        <ele>102.9</ele>
        <time>2023-02-01T15:29:18Z</time>
      </trkpt>
      <trkpt lat="49.78629" lon="2.29495">
        <ele>102.9</ele>
        <time>2023-02-01T15:29:19Z</time>
      </trkpt>
      <trkpt lat="49.78629" lon="2.29494">
        <ele>103</ele>
        <time>2023-02-01T15:29:21Z</time>
      </trkpt>
      <trkpt lat="49.78628" lon="2.29493">
        <ele>103</ele>
        <time>2023-02-01T15:29:22Z</time>
      </trkpt>
      <trkpt lat="49.78627" lon="2.29492">
        <ele>103.1</ele>
        <time>2023-02-01T15:29:23Z</time>
      </trkpt>
      <trkpt lat="49.78627" lon="2.29491">
        <ele>103.1</ele>
        <time>2023-02-01T15:29:24Z</time>
      </trkpt>
      <trkpt lat="49.78627" lon="2.2949">
        <ele>103.2</ele>
        <time>2023-02-01T15:29:25Z</time>
      </trkpt>
      <trkpt lat="49.78626" lon="2.29488">
        <ele>103.3</ele>
        <time>2023-02-01T15:29:26Z</time>
      </trkpt>
      <trkpt lat="49.78626" lon="2.29487">
        <ele>103.3</ele>
        <time>2023-02-01T15:29:28Z</time>
      </trkpt>
      <trkpt lat="49.78625" lon="2.29487">
        <ele>103.3</ele>
        <time>2023-02-01T15:29:29Z</time>
      </trkpt>
      <trkpt lat="49.78624" lon="2.29486">
        <ele>103.4</ele>
        <time>2023-02-01T15:29:30Z</time>
      </trkpt>
      <trkpt lat="49.78623" lon="2.29486">
        <ele>103.4</ele>
        <time>2023-02-01T15:29:31Z</time>
      </trkpt>
      <trkpt lat="49.78623" lon="2.29485">
        <ele>103.5</ele>
        <time>2023-02-01T15:29:32Z</time>
      </trkpt>
      <trkpt lat="49.78622" lon="2.29485">
        <ele>103.5</ele>
        <time>2023-02-01T15:29:33Z</time>
      </trkpt>
      <trkpt lat="49.78621" lon="2.29484">
        <ele>103.6</ele>
        <time>2023-02-01T15:29:35Z</time>
      </trkpt>
      <trkpt lat="49.7862" lon="2.29484">
        <ele>103.6</ele>
        <time>2023-02-01T15:29:36Z</time>
      </trkpt>
      <trkpt lat="49.78619" lon="2.29482">
        <ele>103.7</ele>
        <time>2023-02-01T15:29:37Z</time>
      </trkpt>
      <trkpt lat="49.78618" lon="2.29481">
        <ele>103.8</ele>
        <time>2023-02-01T15:29:38Z</time>
      </trkpt>
      <trkpt lat="49.78618" lon="2.2948">
        <ele>103.8</ele>
        <time>2023-02-01T15:29:39Z</time>
      </trkpt>
      <trkpt lat="49.78617" lon="2.29478">
        <ele>103.9</ele>
        <time>2023-02-01T15:29:40Z</time>
      </trkpt>
      <trkpt lat="49.78616" lon="2.29476">
        <ele>104</ele>
        <time>2023-02-01T15:29:42Z</time>
      </trkpt>
      <trkpt lat="49.78616" lon="2.29474">
        <ele>104</ele>
        <time>2023-02-01T15:29:43Z</time>
      </trkpt>
      <trkpt lat="49.78616" lon="2.29473">
        <ele>104.1</ele>
        <time>2023-02-01T15:29:44Z</time>
      </trkpt>
      <trkpt lat="49.78615" lon="2.2947">
        <ele>104.2</ele>
        <time>2023-02-01T15:29:45Z</time>
      </trkpt>
      <trkpt lat="49.78615" lon="2.29469">
        <ele>104.2</ele>
        <time>2023-02-01T15:29:46Z</time>
      </trkpt>
      <trkpt lat="49.78614" lon="2.29467">
        <ele>104.2</ele>
        <time>2023-02-01T15:29:47Z</time>
      </trkpt>
      <trkpt lat="49.78614" lon="2.29467">
        <ele>104.3</ele>
        <time>2023-02-01T15:29:49Z</time>
      </trkpt>
      <trkpt lat="49.78613" lon="2.29466">
        <ele>104.3</ele>
        <time>2023-02-01T15:29:50Z</time>
      </trkpt>
      <trkpt lat="49.78612" lon="2.29464">
        <ele>104.4</ele>
        <time>2023-02-01T15:29:51Z</time>
      </trkpt>
      <trkpt lat="49.78612" lon="2.29463">
        <ele>104.4</ele>
        <time>2023-02-01T15:29:53Z</time>
      </trkpt>
      <trkpt lat="49.78612" lon="2.29461">
        <ele>104.4</ele>
        <time>2023-02-01T15:29:54Z</time>
      </trkpt>
      <trkpt lat="49.78611" lon="2.2946">
        <ele>104.5</ele>
        <time>2023-02-01T15:29:55Z</time>
      </trkpt>
      <trkpt lat="49.7861" lon="2.29456">
        <ele>104.6</ele>
        <time>2023-02-01T15:29:56Z</time>
      </trkpt>
      <trkpt lat="49.78609" lon="2.29455">
        <ele>104.6</ele>
        <time>2023-02-01T15:29:57Z</time>
      </trkpt>
      <trkpt lat="49.78608" lon="2.29453">
        <ele>104.7</ele>
        <time>2023-02-01T15:29:58Z</time>
      </trkpt>
      <trkpt lat="49.78607" lon="2.2945">
        <ele>104.8</ele>
        <time>2023-02-01T15:30:00Z</time>
      </trkpt>
      <trkpt lat="49.78606" lon="2.29448">
        <ele>104.9</ele>
        <time>2023-02-01T15:30:01Z</time>
      </trkpt>
      <trkpt lat="49.78604" lon="2.29447">
        <ele>104.9</ele>
        <time>2023-02-01T15:30:02Z</time>
      </trkpt>
      <trkpt lat="49.78603" lon="2.29445">
        <ele>105</ele>
        <time>2023-02-01T15:30:03Z</time>
      </trkpt>
      <trkpt lat="49.78602" lon="2.29444">
        <ele>105.1</ele>
        <time>2023-02-01T15:30:04Z</time>
      </trkpt>
      <trkpt lat="49.786" lon="2.29442">
        <ele>105.1</ele>
        <time>2023-02-01T15:30:05Z</time>
      </trkpt>
      <trkpt lat="49.78599" lon="2.29441">
        <ele>105.2</ele>
        <time>2023-02-01T15:30:06Z</time>
      </trkpt>
      <trkpt lat="49.78598" lon="2.29439">
        <ele>105.3</ele>
        <time>2023-02-01T15:30:08Z</time>
      </trkpt>
      <trkpt lat="49.78597" lon="2.29438">
        <ele>105.3</ele>
        <time>2023-02-01T15:30:09Z</time>
      </trkpt>
      <trkpt lat="49.78595" lon="2.29436">
        <ele>105.4</ele>
        <time>2023-02-01T15:30:10Z</time>
      </trkpt>
      <trkpt lat="49.78595" lon="2.29435">
        <ele>105.5</ele>
        <time>2023-02-01T15:30:11Z</time>
      </trkpt>
      <trkpt lat="49.78594" lon="2.29434">
        <ele>105.5</ele>
        <time>2023-02-01T15:30:12Z</time>
      </trkpt>
      <trkpt lat="49.78593" lon="2.29433">
        <ele>105.6</ele>
        <time>2023-02-01T15:30:14Z</time>
      </trkpt>
      <trkpt lat="49.78592" lon="2.29431">
        <ele>105.6</ele>
        <time>2023-02-01T15:30:15Z</time>
      </trkpt>
      <trkpt lat="49.78592" lon="2.2943">
        <ele>105.7</ele>
        <time>2023-02-01T15:30:16Z</time>
      </trkpt>
      <trkpt lat="49.78591" lon="2.29429">
        <ele>105.7</ele>
        <time>2023-02-01T15:30:17Z</time>
      </trkpt>
      <trkpt lat="49.7859" lon="2.29428">
        <ele>105.8</ele>
        <time>2023-02-01T15:30:18Z</time>
      </trkpt>
      <trkpt lat="49.78589" lon="2.29427">
        <ele>105.8</ele>
        <time>2023-02-01T15:30:19Z</time>
      </trkpt>
      <trkpt lat="49.78588" lon="2.29425">
        <ele>105.9</ele>
        <time>2023-02-01T15:30:21Z</time>
      </trkpt>
      <trkpt lat="49.78587" lon="2.29424">
        <ele>105.9</ele>
        <time>2023-02-01T15:30:22Z</time>
      </trkpt>
      <trkpt lat="49.78586" lon="2.29423">
        <ele>106</ele>
        <time>2023-02-01T15:30:23Z</time>
      </trkpt>
      <trkpt lat="49.78586" lon="2.29421">
        <ele>106</ele>
        <time>2023-02-01T15:30:24Z</time>
      </trkpt>
      <trkpt lat="49.78585" lon="2.2942">
        <ele>106.1</ele>
        <time>2023-02-01T15:30:25Z</time>
      </trkpt>
      <trkpt lat="49.78584" lon="2.2942">
        <ele>106.1</ele>
        <time>2023-02-01T15:30:26Z</time>
      </trkpt>
      <trkpt lat="49.78584" lon="2.29419">
        <ele>106.1</ele>
        <time>2023-02-01T15:30:27Z</time>
      </trkpt>
      <trkpt lat="49.78583" lon="2.29418">
        <ele>106.2</ele>
        <time>2023-02-01T15:30:29Z</time>
      </trkpt>
      <trkpt lat="49.78583" lon="2.29417">
        <ele>106.2</ele>
        <time>2023-02-01T15:30:30Z</time>
      </trkpt>
      <trkpt lat="49.78582" lon="2.29417">
        <ele>106.2</ele>
        <time>2023-02-01T15:30:31Z</time>
      </trkpt>
      <trkpt lat="49.78581" lon="2.29416">
        <ele>106.3</ele>
        <time>2023-02-01T15:30:32Z</time>
      </trkpt>
      <trkpt lat="49.7858" lon="2.29415">
        <ele>106.3</ele>
        <time>2023-02-01T15:30:33Z</time>
      </trkpt>
      <trkpt lat="49.7858" lon="2.29414">
        <ele>106.4</ele>
        <time>2023-02-01T15:30:34Z</time>
      </trkpt>
      <trkpt lat="49.78579" lon="2.29413">
        <ele>106.4</ele>
        <time>2023-02-01T15:30:35Z</time>
      </trkpt>
      <trkpt lat="49.78578" lon="2.29412">
        <ele>106.4</ele>
        <time>2023-02-01T15:30:37Z</time>
      </trkpt>
      <trkpt lat="49.78577" lon="2.29411">
        <ele>106.5</ele>
        <time>2023-02-01T15:30:38Z</time>
      </trkpt>
      <trkpt lat="49.78577" lon="2.2941">
        <ele>106.5</ele>
        <time>2023-02-01T15:30:39Z</time>
      </trkpt>
      <trkpt lat="49.78576" lon="2.29409">
        <ele>106.6</ele>
        <time>2023-02-01T15:30:40Z</time>
      </trkpt>
      <trkpt lat="49.78576" lon="2.29407">
        <ele>106.6</ele>
        <time>2023-02-01T15:30:41Z</time>
      </trkpt>
      <trkpt lat="49.78576" lon="2.29406">
        <ele>106.6</ele>
        <time>2023-02-01T15:30:42Z</time>
      </trkpt>
      <trkpt lat="49.78576" lon="2.29404">
        <ele>106.7</ele>
        <time>2023-02-01T15:30:43Z</time>
      </trkpt>
      <trkpt lat="49.78576" lon="2.29402">
        <ele>106.7</ele>
        <time>2023-02-01T15:30:45Z</time>
      </trkpt>
      <trkpt lat="49.78575" lon="2.29401">
        <ele>106.8</ele>
        <time>2023-02-01T15:30:46Z</time>
      </trkpt>
      <trkpt lat="49.78574" lon="2.294">
        <ele>106.8</ele>
        <time>2023-02-01T15:30:47Z</time>
      </trkpt>
      <trkpt lat="49.78574" lon="2.29398">
        <ele>106.9</ele>
        <time>2023-02-01T15:30:48Z</time>
      </trkpt>
      <trkpt lat="49.78573" lon="2.29397">
        <ele>106.9</ele>
        <time>2023-02-01T15:30:49Z</time>
      </trkpt>
      <trkpt lat="49.78572" lon="2.29396">
        <ele>106.9</ele>
        <time>2023-02-01T15:30:51Z</time>
      </trkpt>
      <trkpt lat="49.78571" lon="2.29395">
        <ele>107</ele>
        <time>2023-02-01T15:30:52Z</time>
      </trkpt>
      <trkpt lat="49.7857" lon="2.29394">
        <ele>107</ele>
        <time>2023-02-01T15:30:53Z</time>
      </trkpt>
      <trkpt lat="49.78569" lon="2.29393">
        <ele>107.1</ele>
        <time>2023-02-01T15:30:54Z</time>
      </trkpt>
      <trkpt lat="49.78568" lon="2.29392">
        <ele>107.1</ele>
        <time>2023-02-01T15:30:55Z</time>
      </trkpt>
      <trkpt lat="49.78567" lon="2.29391">
        <ele>107.1</ele>
        <time>2023-02-01T15:30:57Z</time>
      </trkpt>
      <trkpt lat="49.78566" lon="2.2939">
        <ele>107.2</ele>
        <time>2023-02-01T15:30:58Z</time>
      </trkpt>
      <trkpt lat="49.78566" lon="2.29389">
        <ele>107.2</ele>
        <time>2023-02-01T15:30:59Z</time>
      </trkpt>
      <trkpt lat="49.78565" lon="2.29388">
        <ele>107.3</ele>
        <time>2023-02-01T15:31:00Z</time>
      </trkpt>
      <trkpt lat="49.78564" lon="2.29386">
        <ele>107.3</ele>
        <time>2023-02-01T15:31:01Z</time>
      </trkpt>
      <trkpt lat="49.78563" lon="2.29385">
        <ele>107.4</ele>
        <time>2023-02-01T15:31:02Z</time>
      </trkpt>
      <trkpt lat="49.78562" lon="2.29384">
        <ele>107.4</ele>
        <time>2023-02-01T15:31:04Z</time>
      </trkpt>
      <trkpt lat="49.78561" lon="2.29383">
        <ele>107.5</ele>
        <time>2023-02-01T15:31:05Z</time>
      </trkpt>
      <trkpt lat="49.7856" lon="2.29382">
        <ele>107.5</ele>
        <time>2023-02-01T15:31:06Z</time>
      </trkpt>
      <trkpt lat="49.78559" lon="2.2938">
        <ele>107.5</ele>
        <time>2023-02-01T15:31:07Z</time>
      </trkpt>
      <trkpt lat="49.78557" lon="2.29378">
        <ele>107.6</ele>
        <time>2023-02-01T15:31:08Z</time>
      </trkpt>
      <trkpt lat="49.78556" lon="2.29377">
        <ele>107.7</ele>
        <time>2023-02-01T15:31:10Z</time>
      </trkpt>
      <trkpt lat="49.78555" lon="2.29376">
        <ele>107.7</ele>
        <time>2023-02-01T15:31:11Z</time>
      </trkpt>
      <trkpt lat="49.78554" lon="2.29375">
        <ele>107.8</ele>
        <time>2023-02-01T15:31:12Z</time>
      </trkpt>
      <trkpt lat="49.78553" lon="2.29374">
        <ele>107.8</ele>
        <time>2023-02-01T15:31:13Z</time>
      </trkpt>
      <trkpt lat="49.78552" lon="2.29373">
        <ele>107.8</ele>
        <time>2023-02-01T15:31:14Z</time>
      </trkpt>
      <trkpt lat="49.78551" lon="2.29372">
        <ele>107.9</ele>
        <time>2023-02-01T15:31:15Z</time>
      </trkpt>
      <trkpt lat="49.78549" lon="2.29372">
        <ele>107.9</ele>
        <time>2023-02-01T15:31:17Z</time>
      </trkpt>
      <trkpt lat="49.78548" lon="2.2937">
        <ele>108</ele>
        <time>2023-02-01T15:31:18Z</time>
      </trkpt>
      <trkpt lat="49.78546" lon="2.29368">
        <ele>108.1</ele>
        <time>2023-02-01T15:31:19Z</time>
      </trkpt>
      <trkpt lat="49.78545" lon="2.29368">
        <ele>108.1</ele>
        <time>2023-02-01T15:31:20Z</time>
      </trkpt>
      <trkpt lat="49.78544" lon="2.29367">
        <ele>108.2</ele>
        <time>2023-02-01T15:31:21Z</time>
      </trkpt>
      <trkpt lat="49.78543" lon="2.29365">
        <ele>108.2</ele>
        <time>2023-02-01T15:31:22Z</time>
      </trkpt>
      <trkpt lat="49.78542" lon="2.29363">
        <ele>108.3</ele>
        <time>2023-02-01T15:31:24Z</time>
      </trkpt>
      <trkpt lat="49.78541" lon="2.29362">
        <ele>108.4</ele>
        <time>2023-02-01T15:31:25Z</time>
      </trkpt>
      <trkpt lat="49.7854" lon="2.2936">
        <ele>108.4</ele>
        <time>2023-02-01T15:31:26Z</time>
      </trkpt>
      <trkpt lat="49.78538" lon="2.29359">
        <ele>108.5</ele>
        <time>2023-02-01T15:31:27Z</time>
      </trkpt>
      <trkpt lat="49.78537" lon="2.29358">
        <ele>108.5</ele>
        <time>2023-02-01T15:31:28Z</time>
      </trkpt>
      <trkpt lat="49.78535" lon="2.29356">
        <ele>108.6</ele>
        <time>2023-02-01T15:31:29Z</time>
      </trkpt>
      <trkpt lat="49.78535" lon="2.29355">
        <ele>108.7</ele>
        <time>2023-02-01T15:31:31Z</time>
      </trkpt>
      <trkpt lat="49.78534" lon="2.29354">
        <ele>108.7</ele>
        <time>2023-02-01T15:31:32Z</time>
      </trkpt>
      <trkpt lat="49.78532" lon="2.29352">
        <ele>108.8</ele>
        <time>2023-02-01T15:31:33Z</time>
      </trkpt>
      <trkpt lat="49.78532" lon="2.29352">
        <ele>108.9</ele>
        <time>2023-02-01T15:31:34Z</time>
      </trkpt>
      <trkpt lat="49.78531" lon="2.29351">
        <ele>108.9</ele>
        <time>2023-02-01T15:31:35Z</time>
      </trkpt>
      <trkpt lat="49.7853" lon="2.2935">
        <ele>109</ele>
        <time>2023-02-01T15:31:36Z</time>
      </trkpt>
      <trkpt lat="49.78529" lon="2.29349">
        <ele>109</ele>
        <time>2023-02-01T15:31:37Z</time>
      </trkpt>
      <trkpt lat="49.78528" lon="2.29347">
        <ele>109.1</ele>
        <time>2023-02-01T15:31:39Z</time>
      </trkpt>
      <trkpt lat="49.78527" lon="2.29346">
        <ele>109.1</ele>
        <time>2023-02-01T15:31:40Z</time>
      </trkpt>
      <trkpt lat="49.78527" lon="2.29345">
        <ele>109.2</ele>
        <time>2023-02-01T15:31:41Z</time>
      </trkpt>
      <trkpt lat="49.78526" lon="2.29343">
        <ele>109.2</ele>
        <time>2023-02-01T15:31:42Z</time>
      </trkpt>
      <trkpt lat="49.78526" lon="2.29341">
        <ele>109.3</ele>
        <time>2023-02-01T15:31:43Z</time>
      </trkpt>
      <trkpt lat="49.78525" lon="2.2934">
        <ele>109.4</ele>
        <time>2023-02-01T15:31:44Z</time>
      </trkpt>
      <trkpt lat="49.78524" lon="2.29339">
        <ele>109.4</ele>
        <time>2023-02-01T15:31:46Z</time>
      </trkpt>
      <trkpt lat="49.78522" lon="2.29338">
        <ele>109.5</ele>
        <time>2023-02-01T15:31:47Z</time>
      </trkpt>
      <trkpt lat="49.78522" lon="2.29337">
        <ele>109.5</ele>
        <time>2023-02-01T15:31:48Z</time>
      </trkpt>
      <trkpt lat="49.78522" lon="2.29336">
        <ele>109.6</ele>
        <time>2023-02-01T15:31:49Z</time>
      </trkpt>
      <trkpt lat="49.78521" lon="2.29335">
        <ele>109.6</ele>
        <time>2023-02-01T15:31:50Z</time>
      </trkpt>
      <trkpt lat="49.7852" lon="2.29334">
        <ele>109.7</ele>
        <time>2023-02-01T15:31:51Z</time>
      </trkpt>
      <trkpt lat="49.7852" lon="2.29333">
        <ele>109.7</ele>
        <time>2023-02-01T15:31:53Z</time>
      </trkpt>
      <trkpt lat="49.78519" lon="2.29332">
        <ele>109.8</ele>
        <time>2023-02-01T15:31:54Z</time>
      </trkpt>
      <trkpt lat="49.78518" lon="2.29332">
        <ele>109.8</ele>
        <time>2023-02-01T15:31:55Z</time>
      </trkpt>
      <trkpt lat="49.78518" lon="2.29331">
        <ele>109.8</ele>
        <time>2023-02-01T15:31:56Z</time>
      </trkpt>
      <trkpt lat="49.78517" lon="2.2933">
        <ele>109.9</ele>
        <time>2023-02-01T15:31:57Z</time>
      </trkpt>
      <trkpt lat="49.78516" lon="2.29329">
        <ele>110</ele>
        <time>2023-02-01T15:31:58Z</time>
      </trkpt>
      <trkpt lat="49.78515" lon="2.29328">
        <ele>110</ele>
        <time>2023-02-01T15:32:00Z</time>
      </trkpt>
      <trkpt lat="49.78514" lon="2.29328">
        <ele>110</ele>
        <time>2023-02-01T15:32:01Z</time>
      </trkpt>
      <trkpt lat="49.78514" lon="2.29328">
        <ele>110.1</ele>
        <time>2023-02-01T15:32:02Z</time>
      </trkpt>
      <trkpt lat="49.78513" lon="2.29328">
        <ele>110.1</ele>
        <time>2023-02-01T15:32:03Z</time>
      </trkpt>
      <trkpt lat="49.78512" lon="2.29327">
        <ele>110.2</ele>
        <time>2023-02-01T15:32:04Z</time>
      </trkpt>
      <trkpt lat="49.78512" lon="2.29327">
        <ele>110.2</ele>
        <time>2023-02-01T15:32:05Z</time>
      </trkpt>
      <trkpt lat="49.78512" lon="2.29326">
        <ele>110.2</ele>
        <time>2023-02-01T15:32:07Z</time>
      </trkpt>
      <trkpt lat="49.78511" lon="2.29325">
        <ele>110.3</ele>
        <time>2023-02-01T15:32:08Z</time>
      </trkpt>
      <trkpt lat="49.78511" lon="2.29324">
        <ele>110.3</ele>
        <time>2023-02-01T15:32:09Z</time>
      </trkpt>
      <trkpt lat="49.78509" lon="2.29323">
        <ele>110.4</ele>
        <time>2023-02-01T15:32:10Z</time>
      </trkpt>
      <trkpt lat="49.78509" lon="2.29322">
        <ele>110.4</ele>
        <time>2023-02-01T15:32:11Z</time>
      </trkpt>
      <trkpt lat="49.78508" lon="2.29321">
        <ele>110.5</ele>
        <time>2023-02-01T15:32:13Z</time>
      </trkpt>
      <trkpt lat="49.78508" lon="2.2932">
        <ele>110.5</ele>
        <time>2023-02-01T15:32:14Z</time>
      </trkpt>
      <trkpt lat="49.78507" lon="2.2932">
        <ele>110.6</ele>
        <time>2023-02-01T15:32:15Z</time>
      </trkpt>
      <trkpt lat="49.78507" lon="2.2932">
        <ele>110.6</ele>
        <time>2023-02-01T15:32:16Z</time>
      </trkpt>
      <trkpt lat="49.78507" lon="2.29319">
        <ele>110.6</ele>
        <time>2023-02-01T15:32:17Z</time>
      </trkpt>
      <trkpt lat="49.78506" lon="2.29318">
        <ele>110.7</ele>
        <time>2023-02-01T15:32:19Z</time>
      </trkpt>
      <trkpt lat="49.78506" lon="2.29317">
        <ele>110.7</ele>
        <time>2023-02-01T15:32:20Z</time>
      </trkpt>
      <trkpt lat="49.78505" lon="2.29315">
        <ele>110.8</ele>
        <time>2023-02-01T15:32:21Z</time>
      </trkpt>
      <trkpt lat="49.78505" lon="2.29314">
        <ele>110.8</ele>
        <time>2023-02-01T15:32:22Z</time>
      </trkpt>
      <trkpt lat="49.78504" lon="2.29313">
        <ele>110.9</ele>
        <time>2023-02-01T15:32:23Z</time>
      </trkpt>
      <trkpt lat="49.78504" lon="2.29312">
        <ele>111</ele>
        <time>2023-02-01T15:32:24Z</time>
      </trkpt>
      <trkpt lat="49.78503" lon="2.29312">
        <ele>111</ele>
        <time>2023-02-01T15:32:25Z</time>
      </trkpt>
      <trkpt lat="49.78502" lon="2.29311">
        <ele>111.1</ele>
        <time>2023-02-01T15:32:27Z</time>
      </trkpt>
      <trkpt lat="49.78501" lon="2.2931">
        <ele>111.2</ele>
        <time>2023-02-01T15:32:28Z</time>
      </trkpt>
      <trkpt lat="49.785" lon="2.29308">
        <ele>111.3</ele>
        <time>2023-02-01T15:32:29Z</time>
      </trkpt>
      <trkpt lat="49.785" lon="2.29307">
        <ele>111.3</ele>
        <time>2023-02-01T15:32:30Z</time>
      </trkpt>
      <trkpt lat="49.785" lon="2.29305">
        <ele>111.4</ele>
        <time>2023-02-01T15:32:31Z</time>
      </trkpt>
      <trkpt lat="49.785" lon="2.29302">
        <ele>111.5</ele>
        <time>2023-02-01T15:32:32Z</time>
      </trkpt>
      <trkpt lat="49.78499" lon="2.293">
        <ele>111.6</ele>
        <time>2023-02-01T15:32:34Z</time>
      </trkpt>
      <trkpt lat="49.78498" lon="2.293">
        <ele>111.7</ele>
        <time>2023-02-01T15:32:35Z</time>
      </trkpt>
      <trkpt lat="49.78497" lon="2.293">
        <ele>111.8</ele>
        <time>2023-02-01T15:32:36Z</time>
      </trkpt>
      <trkpt lat="49.78496" lon="2.293">
        <ele>111.9</ele>
        <time>2023-02-01T15:32:37Z</time>
      </trkpt>
      <trkpt lat="49.78495" lon="2.29298">
        <ele>112</ele>
        <time>2023-02-01T15:32:39Z</time>
      </trkpt>
      <trkpt lat="49.78494" lon="2.29295">
        <ele>112.1</ele>
        <time>2023-02-01T15:32:40Z</time>
      </trkpt>
      <trkpt lat="49.78493" lon="2.29294">
        <ele>112.2</ele>
        <time>2023-02-01T15:32:42Z</time>
      </trkpt>
      <trkpt lat="49.78493" lon="2.29292">
        <ele>112.3</ele>
        <time>2023-02-01T15:32:43Z</time>
      </trkpt>
      <trkpt lat="49.78492" lon="2.29291">
        <ele>112.4</ele>
        <time>2023-02-01T15:32:44Z</time>
      </trkpt>
      <trkpt lat="49.78491" lon="2.29289">
        <ele>112.5</ele>
        <time>2023-02-01T15:32:45Z</time>
      </trkpt>
      <trkpt lat="49.7849" lon="2.29287">
        <ele>112.6</ele>
        <time>2023-02-01T15:32:47Z</time>
      </trkpt>
      <trkpt lat="49.78489" lon="2.29286">
        <ele>112.7</ele>
        <time>2023-02-01T15:32:49Z</time>
      </trkpt>
      <trkpt lat="49.78488" lon="2.29285">
        <ele>112.8</ele>
        <time>2023-02-01T15:32:50Z</time>
      </trkpt>
      <trkpt lat="49.78487" lon="2.29284">
        <ele>112.9</ele>
        <time>2023-02-01T15:32:51Z</time>
      </trkpt>
      <trkpt lat="49.78486" lon="2.29284">
        <ele>113</ele>
        <time>2023-02-01T15:32:53Z</time>
      </trkpt>
      <trkpt lat="49.78485" lon="2.29285">
        <ele>113</ele>
        <time>2023-02-01T15:32:54Z</time>
      </trkpt>
      <trkpt lat="49.78485" lon="2.29285">
        <ele>113</ele>
        <time>2023-02-01T15:32:55Z</time>
      </trkpt>
      <trkpt lat="49.78485" lon="2.29286">
        <ele>113.1</ele>
        <time>2023-02-01T15:32:57Z</time>
      </trkpt>
      <trkpt lat="49.78485" lon="2.29285">
        <ele>113.1</ele>
        <time>2023-02-01T15:32:58Z</time>
      </trkpt>
      <trkpt lat="49.78485" lon="2.29285">
        <ele>113.1</ele>
        <time>2023-02-01T15:32:59Z</time>
      </trkpt>
      <trkpt lat="49.78485" lon="2.29285">
        <ele>113.1</ele>
        <time>2023-02-01T15:33:01Z</time>
      </trkpt>
      <trkpt lat="49.78485" lon="2.29285">
        <ele>113.2</ele>
        <time>2023-02-01T15:33:02Z</time>
      </trkpt>
      <trkpt lat="49.78486" lon="2.29286">
        <ele>113.2</ele>
        <time>2023-02-01T15:33:04Z</time>
      </trkpt>
      <trkpt lat="49.78486" lon="2.29286">
        <ele>113.2</ele>
        <time>2023-02-01T15:33:05Z</time>
      </trkpt>
      <trkpt lat="49.78486" lon="2.29286">
        <ele>113.2</ele>
        <time>2023-02-01T15:33:07Z</time>
      </trkpt>
      <trkpt lat="49.78486" lon="2.29286">
        <ele>113.3</ele>
        <time>2023-02-01T15:33:08Z</time>
      </trkpt>
      <trkpt lat="49.78486" lon="2.29286">
        <ele>113.3</ele>
        <time>2023-02-01T15:33:09Z</time>
      </trkpt>
      <trkpt lat="49.78486" lon="2.29286">
        <ele>113.3</ele>
        <time>2023-02-01T15:33:10Z</time>
      </trkpt>
      <trkpt lat="49.78486" lon="2.29286">
        <ele>113.3</ele>
        <time>2023-02-01T15:33:11Z</time>
      </trkpt>
      <trkpt lat="49.78486" lon="2.29286">
        <ele>113.3</ele>
        <time>2023-02-01T15:33:12Z</time>
      </trkpt>
      <trkpt lat="49.78486" lon="2.29286">
        <ele>113.3</ele>
        <time>2023-02-01T15:33:13Z</time>
      </trkpt>
      <trkpt lat="49.78486" lon="2.29286">
        <ele>113.3</ele>
        <time>2023-02-01T15:33:14Z</time>
      </trkpt>
      <trkpt lat="49.78486" lon="2.29286">
        <ele>113.3</ele>
        <time>2023-02-01T15:33:15Z</time>
      </trkpt>
      <trkpt lat="49.78486" lon="2.29286">
        <ele>113.3</ele>
        <time>2023-02-01T15:33:16Z</time>
      </trkpt>
      <trkpt lat="49.78486" lon="2.29286">
        <ele>113.3</ele>
        <time>2023-02-01T15:33:17Z</time>
      </trkpt>
      <trkpt lat="49.78486" lon="2.29286">
        <ele>113.3</ele>
        <time>2023-02-01T15:33:18Z</time>
      </trkpt>
      <trkpt lat="49.78486" lon="2.29286">
        <ele>113.3</ele>
        <time>2023-02-01T15:33:19Z</time>
      </trkpt>
      <trkpt lat="49.78486" lon="2.29286">
        <ele>113.3</ele>
        <time>2023-02-01T15:33:20Z</time>
      </trkpt>
      <trkpt lat="49.78486" lon="2.29286">
        <ele>113.3</ele>
        <time>2023-02-01T15:33:21Z</time>
      </trkpt>
      <trkpt lat="49.78486" lon="2.29286">
        <ele>113.3</ele>
        <time>2023-02-01T15:33:22Z</time>
      </trkpt>
      <trkpt lat="49.78486" lon="2.29286">
        <ele>113.3</ele>
        <time>2023-02-01T15:33:23Z</time>
      </trkpt>
      <trkpt lat="49.78486" lon="2.29286">
        <ele>113.3</ele>
        <time>2023-02-01T15:33:24Z</time>
      </trkpt>
      <trkpt lat="49.78486" lon="2.29286">
        <ele>113.3</ele>
        <time>2023-02-01T15:33:25Z</time>
      </trkpt>
      <trkpt lat="49.78486" lon="2.29286">
        <ele>113.3</ele>
        <time>2023-02-01T15:33:26Z</time>
      </trkpt>
      <trkpt lat="49.78486" lon="2.29286">
        <ele>113.3</ele>
        <time>2023-02-01T15:33:27Z</time>
      </trkpt>
      <trkpt lat="49.78486" lon="2.29286">
        <ele>113.3</ele>
        <time>2023-02-01T15:33:28Z</time>
      </trkpt>
      <trkpt lat="49.78486" lon="2.29286">
        <ele>113.3</ele>
        <time>2023-02-01T15:33:29Z</time>
      </trkpt>
      <trkpt lat="49.78486" lon="2.29286">
        <ele>113.3</ele>
        <time>2023-02-01T15:33:30Z</time>
      </trkpt>
      <trkpt lat="49.78486" lon="2.29286">
        <ele>113.3</ele>
        <time>2023-02-01T15:33:31Z</time>
      </trkpt>
      <trkpt lat="49.78486" lon="2.29286">
        <ele>113.3</ele>
        <time>2023-02-01T15:33:32Z</time>
      </trkpt>
      <trkpt lat="49.78486" lon="2.29286">
        <ele>113.3</ele>
        <time>2023-02-01T15:33:33Z</time>
      </trkpt>
      <trkpt lat="49.78486" lon="2.29286">
        <ele>113.3</ele>
        <time>2023-02-01T15:33:34Z</time>
      </trkpt>
      <trkpt lat="49.78486" lon="2.29286">
        <ele>113.3</ele>
        <time>2023-02-01T15:33:35Z</time>
      </trkpt>
      <trkpt lat="49.78486" lon="2.29286">
        <ele>113.3</ele>
        <time>2023-02-01T15:33:36Z</time>
      </trkpt>
      <trkpt lat="49.78486" lon="2.29286">
        <ele>113.3</ele>
        <time>2023-02-01T15:33:37Z</time>
      </trkpt>
      <trkpt lat="49.78486" lon="2.29286">
        <ele>113.3</ele>
        <time>2023-02-01T15:33:38Z</time>
      </trkpt>
      <trkpt lat="49.78486" lon="2.29286">
        <ele>113.3</ele>
        <time>2023-02-01T15:33:39Z</time>
      </trkpt>
      <trkpt lat="49.78486" lon="2.29286">
        <ele>113.3</ele>
        <time>2023-02-01T15:33:40Z</time>
      </trkpt>
      <trkpt lat="49.78486" lon="2.29286">
        <ele>113.3</ele>
        <time>2023-02-01T15:33:41Z</time>
      </trkpt>
      <trkpt lat="49.78486" lon="2.29286">
        <ele>113.3</ele>
        <time>2023-02-01T15:33:42Z</time>
      </trkpt>
      <trkpt lat="49.78486" lon="2.29286">
        <ele>113.3</ele>
        <time>2023-02-01T15:33:43Z</time>
      </trkpt>
      <trkpt lat="49.78486" lon="2.29286">
        <ele>113.3</ele>
        <time>2023-02-01T15:33:44Z</time>
      </trkpt>
      <trkpt lat="49.78486" lon="2.29286">
        <ele>113.3</ele>
        <time>2023-02-01T15:33:45Z</time>
      </trkpt>
      <trkpt lat="49.78486" lon="2.29286">
        <ele>113.3</ele>
        <time>2023-02-01T15:33:46Z</time>
      </trkpt>
      <trkpt lat="49.78486" lon="2.29286">
        <ele>113.3</ele>
        <time>2023-02-01T15:33:47Z</time>
      </trkpt>
      <trkpt lat="49.78486" lon="2.29286">
        <ele>113.3</ele>
        <time>2023-02-01T15:33:48Z</time>
      </trkpt>
      <trkpt lat="49.78486" lon="2.29286">
        <ele>113.3</ele>
        <time>2023-02-01T15:33:49Z</time>
      </trkpt>
      <trkpt lat="49.78486" lon="2.29286">
        <ele>113.3</ele>
        <time>2023-02-01T15:33:50Z</time>
      </trkpt>
      <trkpt lat="49.78486" lon="2.29286">
        <ele>113.3</ele>
        <time>2023-02-01T15:33:51Z</time>
      </trkpt>
      <trkpt lat="49.78486" lon="2.29286">
        <ele>113.3</ele>
        <time>2023-02-01T15:33:52Z</time>
      </trkpt>
      <trkpt lat="49.78486" lon="2.29286">
        <ele>113.3</ele>
        <time>2023-02-01T15:33:53Z</time>
      </trkpt>
      <trkpt lat="49.78486" lon="2.29286">
        <ele>113.3</ele>
        <time>2023-02-01T15:33:54Z</time>
      </trkpt>
      <trkpt lat="49.78486" lon="2.29286">
        <ele>113.3</ele>
        <time>2023-02-01T15:33:55Z</time>
      </trkpt>
      <trkpt lat="49.78485" lon="2.29287">
        <ele>113.3</ele>
        <time>2023-02-01T15:33:56Z</time>
      </trkpt>
      <trkpt lat="49.78485" lon="2.29287">
        <ele>113.4</ele>
        <time>2023-02-01T15:33:57Z</time>
      </trkpt>
      <trkpt lat="49.78484" lon="2.29287">
        <ele>113.5</ele>
        <time>2023-02-01T15:33:58Z</time>
      </trkpt>
      <trkpt lat="49.78483" lon="2.29287">
        <ele>113.5</ele>
        <time>2023-02-01T15:33:59Z</time>
      </trkpt>
      <trkpt lat="49.78483" lon="2.29286">
        <ele>113.6</ele>
        <time>2023-02-01T15:34:00Z</time>
      </trkpt>
      <trkpt lat="49.78482" lon="2.29285">
        <ele>113.7</ele>
        <time>2023-02-01T15:34:01Z</time>
      </trkpt>
      <trkpt lat="49.78482" lon="2.29285">
        <ele>113.7</ele>
        <time>2023-02-01T15:34:02Z</time>
      </trkpt>
      <trkpt lat="49.78482" lon="2.29284">
        <ele>113.7</ele>
        <time>2023-02-01T15:34:03Z</time>
      </trkpt>
      <trkpt lat="49.78481" lon="2.29283">
        <ele>113.9</ele>
        <time>2023-02-01T15:34:05Z</time>
      </trkpt>
      <trkpt lat="49.78481" lon="2.2928">
        <ele>114</ele>
        <time>2023-02-01T15:34:06Z</time>
      </trkpt>
      <trkpt lat="49.7848" lon="2.29275">
        <ele>114.3</ele>
        <time>2023-02-01T15:34:08Z</time>
      </trkpt>
      <trkpt lat="49.78481" lon="2.29274">
        <ele>114.4</ele>
        <time>2023-02-01T15:34:10Z</time>
      </trkpt>
      <trkpt lat="49.78481" lon="2.29272">
        <ele>115.4</ele>
        <time>2023-02-01T15:34:11Z</time>
      </trkpt>
      <trkpt lat="49.78481" lon="2.29271">
        <ele>115.4</ele>
        <time>2023-02-01T15:34:12Z</time>
      </trkpt>
      <trkpt lat="49.78481" lon="2.29269">
        <ele>115.5</ele>
        <time>2023-02-01T15:34:13Z</time>
      </trkpt>
      <trkpt lat="49.78482" lon="2.29268">
        <ele>115.5</ele>
        <time>2023-02-01T15:34:15Z</time>
      </trkpt>
      <trkpt lat="49.78483" lon="2.29267">
        <ele>115.6</ele>
        <time>2023-02-01T15:34:16Z</time>
      </trkpt>
      <trkpt lat="49.78484" lon="2.29266">
        <ele>115.6</ele>
        <time>2023-02-01T15:34:17Z</time>
      </trkpt>
      <trkpt lat="49.78484" lon="2.29265">
        <ele>115.6</ele>
        <time>2023-02-01T15:34:18Z</time>
      </trkpt>
      <trkpt lat="49.78485" lon="2.29264">
        <ele>115.7</ele>
        <time>2023-02-01T15:34:19Z</time>
      </trkpt>
      <trkpt lat="49.78486" lon="2.29263">
        <ele>115.7</ele>
        <time>2023-02-01T15:34:20Z</time>
      </trkpt>
      <trkpt lat="49.78487" lon="2.29262">
        <ele>115.8</ele>
        <time>2023-02-01T15:34:22Z</time>
      </trkpt>
      <trkpt lat="49.78488" lon="2.29262">
        <ele>115.8</ele>
        <time>2023-02-01T15:34:23Z</time>
      </trkpt>
      <trkpt lat="49.78489" lon="2.2926">
        <ele>115.9</ele>
        <time>2023-02-01T15:34:24Z</time>
      </trkpt>
      <trkpt lat="49.7849" lon="2.29259">
        <ele>115.9</ele>
        <time>2023-02-01T15:34:25Z</time>
      </trkpt>
      <trkpt lat="49.78491" lon="2.29259">
        <ele>116</ele>
        <time>2023-02-01T15:34:26Z</time>
      </trkpt>
      <trkpt lat="49.78492" lon="2.29257">
        <ele>116</ele>
        <time>2023-02-01T15:34:28Z</time>
      </trkpt>
      <trkpt lat="49.78492" lon="2.29255">
        <ele>116.1</ele>
        <time>2023-02-01T15:34:30Z</time>
      </trkpt>
      <trkpt lat="49.78493" lon="2.29254">
        <ele>116.1</ele>
        <time>2023-02-01T15:34:31Z</time>
      </trkpt>
      <trkpt lat="49.78496" lon="2.29254">
        <ele>116.2</ele>
        <time>2023-02-01T15:34:32Z</time>
      </trkpt>
      <trkpt lat="49.78497" lon="2.29254">
        <ele>116.3</ele>
        <time>2023-02-01T15:34:33Z</time>
      </trkpt>
      <trkpt lat="49.78498" lon="2.29254">
        <ele>116.3</ele>
        <time>2023-02-01T15:34:34Z</time>
      </trkpt>
      <trkpt lat="49.78499" lon="2.29254">
        <ele>116.4</ele>
        <time>2023-02-01T15:34:36Z</time>
      </trkpt>
      <trkpt lat="49.785" lon="2.29253">
        <ele>116.4</ele>
        <time>2023-02-01T15:34:37Z</time>
      </trkpt>
      <trkpt lat="49.78501" lon="2.29253">
        <ele>116.5</ele>
        <time>2023-02-01T15:34:39Z</time>
      </trkpt>
      <trkpt lat="49.78502" lon="2.29253">
        <ele>116.5</ele>
        <time>2023-02-01T15:34:40Z</time>
      </trkpt>
      <trkpt lat="49.78502" lon="2.29253">
        <ele>116.5</ele>
        <time>2023-02-01T15:34:41Z</time>
      </trkpt>
      <trkpt lat="49.78503" lon="2.29256">
        <ele>116.6</ele>
        <time>2023-02-01T15:34:43Z</time>
      </trkpt>
      <trkpt lat="49.78504" lon="2.29257">
        <ele>116.6</ele>
        <time>2023-02-01T15:34:44Z</time>
      </trkpt>
      <trkpt lat="49.78504" lon="2.29259">
        <ele>116.7</ele>
        <time>2023-02-01T15:34:46Z</time>
      </trkpt>
      <trkpt lat="49.78504" lon="2.29259">
        <ele>116.7</ele>
        <time>2023-02-01T15:34:47Z</time>
      </trkpt>
      <trkpt lat="49.78505" lon="2.29258">
        <ele>116.7</ele>
        <time>2023-02-01T15:34:48Z</time>
      </trkpt>
      <trkpt lat="49.78505" lon="2.29258">
        <ele>116.7</ele>
        <time>2023-02-01T15:34:49Z</time>
      </trkpt>
      <trkpt lat="49.78506" lon="2.29256">
        <ele>116.8</ele>
        <time>2023-02-01T15:34:51Z</time>
      </trkpt>
      <trkpt lat="49.78506" lon="2.29255">
        <ele>116.8</ele>
        <time>2023-02-01T15:34:52Z</time>
      </trkpt>
      <trkpt lat="49.78507" lon="2.29254">
        <ele>116.8</ele>
        <time>2023-02-01T15:34:53Z</time>
      </trkpt>
      <trkpt lat="49.78507" lon="2.29252">
        <ele>116.8</ele>
        <time>2023-02-01T15:34:55Z</time>
      </trkpt>
      <trkpt lat="49.78507" lon="2.29251">
        <ele>116.8</ele>
        <time>2023-02-01T15:34:56Z</time>
      </trkpt>
      <trkpt lat="49.78507" lon="2.2925">
        <ele>116.8</ele>
        <time>2023-02-01T15:34:57Z</time>
      </trkpt>
      <trkpt lat="49.78507" lon="2.29249">
        <ele>116.8</ele>
        <time>2023-02-01T15:34:58Z</time>
      </trkpt>
      <trkpt lat="49.78507" lon="2.29248">
        <ele>116.8</ele>
        <time>2023-02-01T15:35:00Z</time>
      </trkpt>
      <trkpt lat="49.78507" lon="2.29246">
        <ele>116.8</ele>
        <time>2023-02-01T15:35:01Z</time>
      </trkpt>
      <trkpt lat="49.78507" lon="2.29244">
        <ele>116.9</ele>
        <time>2023-02-01T15:35:02Z</time>
      </trkpt>
      <trkpt lat="49.78505" lon="2.2924">
        <ele>116.9</ele>
        <time>2023-02-01T15:35:03Z</time>
      </trkpt>
      <trkpt lat="49.78504" lon="2.29238">
        <ele>116.9</ele>
        <time>2023-02-01T15:35:04Z</time>
      </trkpt>
      <trkpt lat="49.78504" lon="2.29236">
        <ele>116.9</ele>
        <time>2023-02-01T15:35:05Z</time>
      </trkpt>
      <trkpt lat="49.78504" lon="2.29234">
        <ele>117</ele>
        <time>2023-02-01T15:35:06Z</time>
      </trkpt>
      <trkpt lat="49.78504" lon="2.29231">
        <ele>117</ele>
        <time>2023-02-01T15:35:08Z</time>
      </trkpt>
      <trkpt lat="49.78504" lon="2.2923">
        <ele>117</ele>
        <time>2023-02-01T15:35:09Z</time>
      </trkpt>
      <trkpt lat="49.78504" lon="2.29228">
        <ele>117</ele>
        <time>2023-02-01T15:35:10Z</time>
      </trkpt>
      <trkpt lat="49.78504" lon="2.29226">
        <ele>117</ele>
        <time>2023-02-01T15:35:11Z</time>
      </trkpt>
      <trkpt lat="49.78504" lon="2.29224">
        <ele>117</ele>
        <time>2023-02-01T15:35:12Z</time>
      </trkpt>
      <trkpt lat="49.78505" lon="2.2922">
        <ele>117.1</ele>
        <time>2023-02-01T15:35:14Z</time>
      </trkpt>
      <trkpt lat="49.78505" lon="2.29219">
        <ele>117.1</ele>
        <time>2023-02-01T15:35:15Z</time>
      </trkpt>
      <trkpt lat="49.78505" lon="2.29217">
        <ele>117.1</ele>
        <time>2023-02-01T15:35:16Z</time>
      </trkpt>
      <trkpt lat="49.78506" lon="2.29215">
        <ele>117.1</ele>
        <time>2023-02-01T15:35:18Z</time>
      </trkpt>
      <trkpt lat="49.78507" lon="2.29212">
        <ele>117.1</ele>
        <time>2023-02-01T15:35:19Z</time>
      </trkpt>
      <trkpt lat="49.78508" lon="2.29211">
        <ele>117.2</ele>
        <time>2023-02-01T15:35:20Z</time>
      </trkpt>
      <trkpt lat="49.78508" lon="2.29209">
        <ele>117.2</ele>
        <time>2023-02-01T15:35:21Z</time>
      </trkpt>
      <trkpt lat="49.78509" lon="2.29208">
        <ele>117.2</ele>
        <time>2023-02-01T15:35:22Z</time>
      </trkpt>
      <trkpt lat="49.78509" lon="2.29206">
        <ele>117.2</ele>
        <time>2023-02-01T15:35:24Z</time>
      </trkpt>
      <trkpt lat="49.78509" lon="2.29205">
        <ele>117.2</ele>
        <time>2023-02-01T15:35:25Z</time>
      </trkpt>
      <trkpt lat="49.7851" lon="2.29204">
        <ele>117.2</ele>
        <time>2023-02-01T15:35:26Z</time>
      </trkpt>
      <trkpt lat="49.7851" lon="2.29202">
        <ele>117.2</ele>
        <time>2023-02-01T15:35:27Z</time>
      </trkpt>
      <trkpt lat="49.7851" lon="2.29201">
        <ele>117.3</ele>
        <time>2023-02-01T15:35:28Z</time>
      </trkpt>
      <trkpt lat="49.7851" lon="2.29199">
        <ele>117.3</ele>
        <time>2023-02-01T15:35:29Z</time>
      </trkpt>
      <trkpt lat="49.7851" lon="2.29198">
        <ele>117.3</ele>
        <time>2023-02-01T15:35:30Z</time>
      </trkpt>
      <trkpt lat="49.7851" lon="2.29196">
        <ele>117.3</ele>
        <time>2023-02-01T15:35:31Z</time>
      </trkpt>
      <trkpt lat="49.7851" lon="2.29194">
        <ele>117.3</ele>
        <time>2023-02-01T15:35:33Z</time>
      </trkpt>
      <trkpt lat="49.78509" lon="2.29193">
        <ele>117.3</ele>
        <time>2023-02-01T15:35:34Z</time>
      </trkpt>
      <trkpt lat="49.78509" lon="2.29192">
        <ele>117.3</ele>
        <time>2023-02-01T15:35:35Z</time>
      </trkpt>
      <trkpt lat="49.78509" lon="2.29191">
        <ele>117.4</ele>
        <time>2023-02-01T15:35:36Z</time>
      </trkpt>
      <trkpt lat="49.78509" lon="2.29189">
        <ele>117.4</ele>
        <time>2023-02-01T15:35:37Z</time>
      </trkpt>
      <trkpt lat="49.78509" lon="2.29186">
        <ele>117.4</ele>
        <time>2023-02-01T15:35:38Z</time>
      </trkpt>
      <trkpt lat="49.78509" lon="2.29183">
        <ele>117.4</ele>
        <time>2023-02-01T15:35:40Z</time>
      </trkpt>
      <trkpt lat="49.78509" lon="2.29182">
        <ele>117.4</ele>
        <time>2023-02-01T15:35:41Z</time>
      </trkpt>
      <trkpt lat="49.78509" lon="2.29181">
        <ele>117.4</ele>
        <time>2023-02-01T15:35:42Z</time>
      </trkpt>
      <trkpt lat="49.78508" lon="2.29179">
        <ele>117.5</ele>
        <time>2023-02-01T15:35:43Z</time>
      </trkpt>
      <trkpt lat="49.78508" lon="2.29177">
        <ele>117.5</ele>
        <time>2023-02-01T15:35:44Z</time>
      </trkpt>
      <trkpt lat="49.78508" lon="2.29175">
        <ele>117.5</ele>
        <time>2023-02-01T15:35:46Z</time>
      </trkpt>
      <trkpt lat="49.78507" lon="2.29174">
        <ele>117.5</ele>
        <time>2023-02-01T15:35:47Z</time>
      </trkpt>
      <trkpt lat="49.78506" lon="2.29173">
        <ele>117.5</ele>
        <time>2023-02-01T15:35:48Z</time>
      </trkpt>
      <trkpt lat="49.78505" lon="2.29172">
        <ele>117.5</ele>
        <time>2023-02-01T15:35:49Z</time>
      </trkpt>
      <trkpt lat="49.78505" lon="2.2917">
        <ele>117.6</ele>
        <time>2023-02-01T15:35:50Z</time>
      </trkpt>
      <trkpt lat="49.78505" lon="2.29169">
        <ele>117.6</ele>
        <time>2023-02-01T15:35:51Z</time>
      </trkpt>
      <trkpt lat="49.78505" lon="2.29167">
        <ele>117.6</ele>
        <time>2023-02-01T15:35:52Z</time>
      </trkpt>
      <trkpt lat="49.78504" lon="2.29165">
        <ele>117.6</ele>
        <time>2023-02-01T15:35:54Z</time>
      </trkpt>
      <trkpt lat="49.78504" lon="2.29164">
        <ele>117.6</ele>
        <time>2023-02-01T15:35:55Z</time>
      </trkpt>
      <trkpt lat="49.78504" lon="2.29162">
        <ele>117.6</ele>
        <time>2023-02-01T15:35:56Z</time>
      </trkpt>
      <trkpt lat="49.78504" lon="2.29161">
        <ele>117.6</ele>
        <time>2023-02-01T15:35:57Z</time>
      </trkpt>
      <trkpt lat="49.78503" lon="2.2916">
        <ele>117.7</ele>
        <time>2023-02-01T15:35:58Z</time>
      </trkpt>
      <trkpt lat="49.78502" lon="2.29159">
        <ele>117.7</ele>
        <time>2023-02-01T15:35:59Z</time>
      </trkpt>
      <trkpt lat="49.78502" lon="2.29157">
        <ele>117.7</ele>
        <time>2023-02-01T15:36:01Z</time>
      </trkpt>
      <trkpt lat="49.78501" lon="2.29156">
        <ele>117.7</ele>
        <time>2023-02-01T15:36:02Z</time>
      </trkpt>
      <trkpt lat="49.78501" lon="2.29154">
        <ele>117.7</ele>
        <time>2023-02-01T15:36:03Z</time>
      </trkpt>
      <trkpt lat="49.785" lon="2.29153">
        <ele>117.7</ele>
        <time>2023-02-01T15:36:04Z</time>
      </trkpt>
      <trkpt lat="49.78499" lon="2.29152">
        <ele>117.8</ele>
        <time>2023-02-01T15:36:05Z</time>
      </trkpt>
      <trkpt lat="49.78499" lon="2.29151">
        <ele>117.8</ele>
        <time>2023-02-01T15:36:06Z</time>
      </trkpt>
      <trkpt lat="49.78498" lon="2.2915">
        <ele>117.8</ele>
        <time>2023-02-01T15:36:07Z</time>
      </trkpt>
      <trkpt lat="49.78498" lon="2.2915">
        <ele>117.8</ele>
        <time>2023-02-01T15:36:08Z</time>
      </trkpt>
      <trkpt lat="49.78498" lon="2.29149">
        <ele>117.8</ele>
        <time>2023-02-01T15:36:10Z</time>
      </trkpt>
      <trkpt lat="49.78498" lon="2.29148">
        <ele>117.8</ele>
        <time>2023-02-01T15:36:11Z</time>
      </trkpt>
      <trkpt lat="49.78498" lon="2.29148">
        <ele>117.8</ele>
        <time>2023-02-01T15:36:12Z</time>
      </trkpt>
      <trkpt lat="49.78498" lon="2.29148">
        <ele>117.8</ele>
        <time>2023-02-01T15:36:13Z</time>
      </trkpt>
      <trkpt lat="49.78498" lon="2.29147">
        <ele>117.8</ele>
        <time>2023-02-01T15:36:15Z</time>
      </trkpt>
      <trkpt lat="49.78498" lon="2.29147">
        <ele>117.8</ele>
        <time>2023-02-01T15:36:16Z</time>
      </trkpt>
      <trkpt lat="49.78498" lon="2.29147">
        <ele>117.8</ele>
        <time>2023-02-01T15:36:17Z</time>
      </trkpt>
      <trkpt lat="49.78498" lon="2.29148">
        <ele>117.8</ele>
        <time>2023-02-01T15:36:18Z</time>
      </trkpt>
      <trkpt lat="49.78498" lon="2.29147">
        <ele>117.8</ele>
        <time>2023-02-01T15:36:20Z</time>
      </trkpt>
      <trkpt lat="49.78497" lon="2.29147">
        <ele>117.8</ele>
        <time>2023-02-01T15:36:21Z</time>
      </trkpt>
      <trkpt lat="49.78497" lon="2.29147">
        <ele>117.8</ele>
        <time>2023-02-01T15:36:23Z</time>
      </trkpt>
      <trkpt lat="49.78495" lon="2.29149">
        <ele>117.8</ele>
        <time>2023-02-01T15:36:24Z</time>
      </trkpt>
      <trkpt lat="49.78494" lon="2.29148">
        <ele>117.9</ele>
        <time>2023-02-01T15:36:25Z</time>
      </trkpt>
      <trkpt lat="49.78493" lon="2.29148">
        <ele>117.9</ele>
        <time>2023-02-01T15:36:26Z</time>
      </trkpt>
      <trkpt lat="49.78492" lon="2.29145">
        <ele>117.9</ele>
        <time>2023-02-01T15:36:28Z</time>
      </trkpt>
      <trkpt lat="49.78492" lon="2.29143">
        <ele>117.9</ele>
        <time>2023-02-01T15:36:30Z</time>
      </trkpt>
      <trkpt lat="49.78492" lon="2.29142">
        <ele>117.9</ele>
        <time>2023-02-01T15:36:31Z</time>
      </trkpt>
      <trkpt lat="49.78492" lon="2.29142">
        <ele>117.9</ele>
        <time>2023-02-01T15:36:32Z</time>
      </trkpt>
      <trkpt lat="49.78492" lon="2.29142">
        <ele>117.9</ele>
        <time>2023-02-01T15:36:33Z</time>
      </trkpt>
      <trkpt lat="49.78492" lon="2.29141">
        <ele>117.9</ele>
        <time>2023-02-01T15:36:35Z</time>
      </trkpt>
      <trkpt lat="49.78492" lon="2.2914">
        <ele>117.9</ele>
        <time>2023-02-01T15:36:36Z</time>
      </trkpt>
      <trkpt lat="49.78492" lon="2.29138">
        <ele>117.9</ele>
        <time>2023-02-01T15:36:38Z</time>
      </trkpt>
      <trkpt lat="49.78493" lon="2.29137">
        <ele>118</ele>
        <time>2023-02-01T15:36:40Z</time>
      </trkpt>
      <trkpt lat="49.78493" lon="2.29136">
        <ele>118</ele>
        <time>2023-02-01T15:36:41Z</time>
      </trkpt>
      <trkpt lat="49.78494" lon="2.29136">
        <ele>118</ele>
        <time>2023-02-01T15:36:42Z</time>
      </trkpt>
      <trkpt lat="49.78495" lon="2.29136">
        <ele>118</ele>
        <time>2023-02-01T15:36:44Z</time>
      </trkpt>
      <trkpt lat="49.78496" lon="2.29137">
        <ele>118</ele>
        <time>2023-02-01T15:36:45Z</time>
      </trkpt>
      <trkpt lat="49.78496" lon="2.29138">
        <ele>118</ele>
        <time>2023-02-01T15:36:47Z</time>
      </trkpt>
      <trkpt lat="49.78496" lon="2.29139">
        <ele>118</ele>
        <time>2023-02-01T15:36:48Z</time>
      </trkpt>
      <trkpt lat="49.78496" lon="2.29139">
        <ele>118</ele>
        <time>2023-02-01T15:36:50Z</time>
      </trkpt>
      <trkpt lat="49.78496" lon="2.2914">
        <ele>118</ele>
        <time>2023-02-01T15:36:51Z</time>
      </trkpt>
      <trkpt lat="49.78496" lon="2.29141">
        <ele>118</ele>
        <time>2023-02-01T15:36:52Z</time>
      </trkpt>
      <trkpt lat="49.78496" lon="2.29142">
        <ele>118</ele>
        <time>2023-02-01T15:36:54Z</time>
      </trkpt>
      <trkpt lat="49.78496" lon="2.29142">
        <ele>118</ele>
        <time>2023-02-01T15:36:55Z</time>
      </trkpt>
      <trkpt lat="49.78496" lon="2.29143">
        <ele>118</ele>
        <time>2023-02-01T15:36:56Z</time>
      </trkpt>
      <trkpt lat="49.78496" lon="2.29143">
        <ele>118</ele>
        <time>2023-02-01T15:36:57Z</time>
      </trkpt>
      <trkpt lat="49.78496" lon="2.29143">
        <ele>118</ele>
        <time>2023-02-01T15:36:59Z</time>
      </trkpt>
      <trkpt lat="49.78496" lon="2.29144">
        <ele>118</ele>
        <time>2023-02-01T15:37:00Z</time>
      </trkpt>
      <trkpt lat="49.78496" lon="2.29144">
        <ele>118</ele>
        <time>2023-02-01T15:37:01Z</time>
      </trkpt>
      <trkpt lat="49.78496" lon="2.29145">
        <ele>118</ele>
        <time>2023-02-01T15:37:02Z</time>
      </trkpt>
      <trkpt lat="49.78496" lon="2.29145">
        <ele>118</ele>
        <time>2023-02-01T15:37:03Z</time>
      </trkpt>
      <trkpt lat="49.78495" lon="2.29146">
        <ele>118</ele>
        <time>2023-02-01T15:37:04Z</time>
      </trkpt>
      <trkpt lat="49.78495" lon="2.29146">
        <ele>118</ele>
        <time>2023-02-01T15:37:05Z</time>
      </trkpt>
      <trkpt lat="49.78495" lon="2.29146">
        <ele>118</ele>
        <time>2023-02-01T15:37:06Z</time>
      </trkpt>
      <trkpt lat="49.78495" lon="2.29147">
        <ele>118</ele>
        <time>2023-02-01T15:37:07Z</time>
      </trkpt>
      <trkpt lat="49.78495" lon="2.29147">
        <ele>118</ele>
        <time>2023-02-01T15:37:08Z</time>
      </trkpt>
      <trkpt lat="49.78495" lon="2.29148">
        <ele>118</ele>
        <time>2023-02-01T15:37:09Z</time>
      </trkpt>
      <trkpt lat="49.78495" lon="2.29148">
        <ele>118.1</ele>
        <time>2023-02-01T15:37:10Z</time>
      </trkpt>
      <trkpt lat="49.78495" lon="2.29149">
        <ele>118.1</ele>
        <time>2023-02-01T15:37:11Z</time>
      </trkpt>
      <trkpt lat="49.78495" lon="2.29149">
        <ele>118.1</ele>
        <time>2023-02-01T15:37:12Z</time>
      </trkpt>
      <trkpt lat="49.78495" lon="2.29149">
        <ele>118.1</ele>
        <time>2023-02-01T15:37:13Z</time>
      </trkpt>
      <trkpt lat="49.78494" lon="2.29149">
        <ele>118.1</ele>
        <time>2023-02-01T15:37:14Z</time>
      </trkpt>
      <trkpt lat="49.78494" lon="2.29149">
        <ele>118.1</ele>
        <time>2023-02-01T15:37:15Z</time>
      </trkpt>
      <trkpt lat="49.78494" lon="2.29149">
        <ele>118.1</ele>
        <time>2023-02-01T15:37:16Z</time>
      </trkpt>
      <trkpt lat="49.78494" lon="2.29149">
        <ele>118.1</ele>
        <time>2023-02-01T15:37:17Z</time>
      </trkpt>
      <trkpt lat="49.78494" lon="2.29149">
        <ele>118.1</ele>
        <time>2023-02-01T15:37:18Z</time>
      </trkpt>
      <trkpt lat="49.78494" lon="2.29149">
        <ele>118.1</ele>
        <time>2023-02-01T15:37:19Z</time>
      </trkpt>
      <trkpt lat="49.78494" lon="2.29149">
        <ele>118.1</ele>
        <time>2023-02-01T15:37:20Z</time>
      </trkpt>
      <trkpt lat="49.78494" lon="2.29149">
        <ele>118.1</ele>
        <time>2023-02-01T15:37:21Z</time>
      </trkpt>
      <trkpt lat="49.78494" lon="2.29149">
        <ele>118.1</ele>
        <time>2023-02-01T15:37:22Z</time>
      </trkpt>
      <trkpt lat="49.78494" lon="2.2915">
        <ele>118.1</ele>
        <time>2023-02-01T15:37:23Z</time>
      </trkpt>
      <trkpt lat="49.78494" lon="2.29151">
        <ele>118.1</ele>
        <time>2023-02-01T15:37:24Z</time>
      </trkpt>
      <trkpt lat="49.78494" lon="2.29151">
        <ele>118.1</ele>
        <time>2023-02-01T15:37:25Z</time>
      </trkpt>
      <trkpt lat="49.78494" lon="2.29151">
        <ele>118.1</ele>
        <time>2023-02-01T15:37:26Z</time>
      </trkpt>
      <trkpt lat="49.78494" lon="2.29151">
        <ele>118.1</ele>
        <time>2023-02-01T15:37:27Z</time>
      </trkpt>
      <trkpt lat="49.78494" lon="2.29151">
        <ele>118.1</ele>
        <time>2023-02-01T15:37:28Z</time>
      </trkpt>
      <trkpt lat="49.78494" lon="2.29151">
        <ele>118.1</ele>
        <time>2023-02-01T15:37:29Z</time>
      </trkpt>
      <trkpt lat="49.78494" lon="2.29151">
        <ele>118.1</ele>
        <time>2023-02-01T15:37:30Z</time>
      </trkpt>
      <trkpt lat="49.78494" lon="2.29151">
        <ele>118.1</ele>
        <time>2023-02-01T15:37:31Z</time>
      </trkpt>
      <trkpt lat="49.78494" lon="2.29151">
        <ele>118.1</ele>
        <time>2023-02-01T15:37:32Z</time>
      </trkpt>
      <trkpt lat="49.78494" lon="2.29151">
        <ele>118.1</ele>
        <time>2023-02-01T15:37:33Z</time>
      </trkpt>
      <trkpt lat="49.78494" lon="2.29152">
        <ele>118.1</ele>
        <time>2023-02-01T15:37:34Z</time>
      </trkpt>
      <trkpt lat="49.78494" lon="2.29152">
        <ele>118.1</ele>
        <time>2023-02-01T15:37:35Z</time>
      </trkpt>
      <trkpt lat="49.78494" lon="2.29152">
        <ele>118.1</ele>
        <time>2023-02-01T15:37:36Z</time>
      </trkpt>
      <trkpt lat="49.78494" lon="2.29152">
        <ele>118.1</ele>
        <time>2023-02-01T15:37:37Z</time>
      </trkpt>
      <trkpt lat="49.78494" lon="2.29152">
        <ele>118.1</ele>
        <time>2023-02-01T15:37:38Z</time>
      </trkpt>
      <trkpt lat="49.78494" lon="2.29152">
        <ele>118.1</ele>
        <time>2023-02-01T15:37:39Z</time>
      </trkpt>
      <trkpt lat="49.78494" lon="2.29152">
        <ele>118.1</ele>
        <time>2023-02-01T15:37:40Z</time>
      </trkpt>
      <trkpt lat="49.78494" lon="2.29152">
        <ele>118.1</ele>
        <time>2023-02-01T15:37:41Z</time>
      </trkpt>
      <trkpt lat="49.78495" lon="2.29152">
        <ele>118.1</ele>
        <time>2023-02-01T15:37:42Z</time>
      </trkpt>
      <trkpt lat="49.78495" lon="2.29152">
        <ele>118.1</ele>
        <time>2023-02-01T15:37:44Z</time>
      </trkpt>
      <trkpt lat="49.78495" lon="2.29151">
        <ele>118.1</ele>
        <time>2023-02-01T15:37:45Z</time>
      </trkpt>
      <trkpt lat="49.78496" lon="2.2915">
        <ele>118.1</ele>
        <time>2023-02-01T15:37:46Z</time>
      </trkpt>
      <trkpt lat="49.78495" lon="2.29148">
        <ele>118.1</ele>
        <time>2023-02-01T15:37:47Z</time>
      </trkpt>
      <trkpt lat="49.78495" lon="2.29145">
        <ele>118.1</ele>
        <time>2023-02-01T15:37:48Z</time>
      </trkpt>
      <trkpt lat="49.78493" lon="2.29142">
        <ele>118.1</ele>
        <time>2023-02-01T15:37:50Z</time>
      </trkpt>
      <trkpt lat="49.78493" lon="2.29141">
        <ele>118.1</ele>
        <time>2023-02-01T15:37:51Z</time>
      </trkpt>
      <trkpt lat="49.78492" lon="2.2914">
        <ele>118.1</ele>
        <time>2023-02-01T15:37:53Z</time>
      </trkpt>
      <trkpt lat="49.78492" lon="2.29138">
        <ele>118.1</ele>
        <time>2023-02-01T15:37:54Z</time>
      </trkpt>
      <trkpt lat="49.78491" lon="2.29137">
        <ele>118.1</ele>
        <time>2023-02-01T15:37:55Z</time>
      </trkpt>
      <trkpt lat="49.78491" lon="2.29136">
        <ele>118.1</ele>
        <time>2023-02-01T15:37:56Z</time>
      </trkpt>
      <trkpt lat="49.7849" lon="2.29133">
        <ele>118.2</ele>
        <time>2023-02-01T15:37:57Z</time>
      </trkpt>
      <trkpt lat="49.78489" lon="2.29131">
        <ele>118.2</ele>
        <time>2023-02-01T15:37:58Z</time>
      </trkpt>
      <trkpt lat="49.78488" lon="2.29128">
        <ele>118.2</ele>
        <time>2023-02-01T15:38:00Z</time>
      </trkpt>
      <trkpt lat="49.78488" lon="2.29126">
        <ele>118.2</ele>
        <time>2023-02-01T15:38:01Z</time>
      </trkpt>
      <trkpt lat="49.78487" lon="2.29124">
        <ele>118.2</ele>
        <time>2023-02-01T15:38:02Z</time>
      </trkpt>
      <trkpt lat="49.78487" lon="2.29124">
        <ele>118.2</ele>
        <time>2023-02-01T15:38:03Z</time>
      </trkpt>
      <trkpt lat="49.78486" lon="2.29123">
        <ele>118.2</ele>
        <time>2023-02-01T15:38:04Z</time>
      </trkpt>
      <trkpt lat="49.78485" lon="2.29123">
        <ele>118.2</ele>
        <time>2023-02-01T15:38:05Z</time>
      </trkpt>
      <trkpt lat="49.78485" lon="2.29122">
        <ele>118.2</ele>
        <time>2023-02-01T15:38:07Z</time>
      </trkpt>
      <trkpt lat="49.78484" lon="2.29121">
        <ele>118.2</ele>
        <time>2023-02-01T15:38:08Z</time>
      </trkpt>
      <trkpt lat="49.78484" lon="2.29121">
        <ele>118.2</ele>
        <time>2023-02-01T15:38:09Z</time>
      </trkpt>
      <trkpt lat="49.78483" lon="2.2912">
        <ele>118.2</ele>
        <time>2023-02-01T15:38:11Z</time>
      </trkpt>
      <trkpt lat="49.78483" lon="2.29121">
        <ele>118.2</ele>
        <time>2023-02-01T15:38:12Z</time>
      </trkpt>
      <trkpt lat="49.78483" lon="2.29121">
        <ele>118.2</ele>
        <time>2023-02-01T15:38:13Z</time>
      </trkpt>
      <trkpt lat="49.78483" lon="2.2912">
        <ele>118.2</ele>
        <time>2023-02-01T15:38:15Z</time>
      </trkpt>
      <trkpt lat="49.78483" lon="2.2912">
        <ele>118.2</ele>
        <time>2023-02-01T15:38:16Z</time>
      </trkpt>
      <trkpt lat="49.78484" lon="2.2912">
        <ele>118.2</ele>
        <time>2023-02-01T15:38:18Z</time>
      </trkpt>
      <trkpt lat="49.78484" lon="2.2912">
        <ele>118.2</ele>
        <time>2023-02-01T15:38:19Z</time>
      </trkpt>
      <trkpt lat="49.78484" lon="2.2912">
        <ele>118.2</ele>
        <time>2023-02-01T15:38:21Z</time>
      </trkpt>
      <trkpt lat="49.78484" lon="2.2912">
        <ele>118.2</ele>
        <time>2023-02-01T15:38:22Z</time>
      </trkpt>
      <trkpt lat="49.78484" lon="2.2912">
        <ele>118.2</ele>
        <time>2023-02-01T15:38:24Z</time>
      </trkpt>
      <trkpt lat="49.78484" lon="2.2912">
        <ele>118.2</ele>
        <time>2023-02-01T15:38:25Z</time>
      </trkpt>
      <trkpt lat="49.78484" lon="2.29121">
        <ele>118.2</ele>
        <time>2023-02-01T15:38:26Z</time>
      </trkpt>
      <trkpt lat="49.78483" lon="2.29121">
        <ele>118.2</ele>
        <time>2023-02-01T15:38:27Z</time>
      </trkpt>
      <trkpt lat="49.78483" lon="2.29122">
        <ele>118.2</ele>
        <time>2023-02-01T15:38:28Z</time>
      </trkpt>
      <trkpt lat="49.78483" lon="2.29122">
        <ele>118.2</ele>
        <time>2023-02-01T15:38:29Z</time>
      </trkpt>
      <trkpt lat="49.78483" lon="2.29122">
        <ele>118.2</ele>
        <time>2023-02-01T15:38:30Z</time>
      </trkpt>
      <trkpt lat="49.78483" lon="2.29122">
        <ele>118.2</ele>
        <time>2023-02-01T15:38:31Z</time>
      </trkpt>
      <trkpt lat="49.78483" lon="2.29122">
        <ele>118.2</ele>
        <time>2023-02-01T15:38:32Z</time>
      </trkpt>
      <trkpt lat="49.78483" lon="2.29122">
        <ele>118.2</ele>
        <time>2023-02-01T15:38:33Z</time>
      </trkpt>
      <trkpt lat="49.78483" lon="2.29122">
        <ele>118.2</ele>
        <time>2023-02-01T15:38:34Z</time>
      </trkpt>
      <trkpt lat="49.78483" lon="2.29121">
        <ele>118.2</ele>
        <time>2023-02-01T15:38:35Z</time>
      </trkpt>
      <trkpt lat="49.78483" lon="2.29121">
        <ele>118.2</ele>
        <time>2023-02-01T15:38:36Z</time>
      </trkpt>
      <trkpt lat="49.78483" lon="2.29121">
        <ele>118.2</ele>
        <time>2023-02-01T15:38:37Z</time>
      </trkpt>
      <trkpt lat="49.78483" lon="2.29121">
        <ele>118.2</ele>
        <time>2023-02-01T15:38:38Z</time>
      </trkpt>
      <trkpt lat="49.78483" lon="2.29121">
        <ele>118.2</ele>
        <time>2023-02-01T15:38:39Z</time>
      </trkpt>
      <trkpt lat="49.78483" lon="2.29121">
        <ele>118.2</ele>
        <time>2023-02-01T15:38:40Z</time>
      </trkpt>
      <trkpt lat="49.78483" lon="2.29121">
        <ele>118.2</ele>
        <time>2023-02-01T15:38:41Z</time>
      </trkpt>
      <trkpt lat="49.78483" lon="2.29121">
        <ele>118.2</ele>
        <time>2023-02-01T15:38:42Z</time>
      </trkpt>
      <trkpt lat="49.78483" lon="2.29121">
        <ele>118.2</ele>
        <time>2023-02-01T15:38:43Z</time>
      </trkpt>
      <trkpt lat="49.78483" lon="2.29121">
        <ele>118.2</ele>
        <time>2023-02-01T15:38:44Z</time>
      </trkpt>
      <trkpt lat="49.78483" lon="2.29121">
        <ele>118.2</ele>
        <time>2023-02-01T15:38:45Z</time>
      </trkpt>
      <trkpt lat="49.78483" lon="2.29121">
        <ele>118.2</ele>
        <time>2023-02-01T15:38:46Z</time>
      </trkpt>
      <trkpt lat="49.78483" lon="2.29121">
        <ele>118.2</ele>
        <time>2023-02-01T15:38:47Z</time>
      </trkpt>
      <trkpt lat="49.78483" lon="2.29121">
        <ele>118.2</ele>
        <time>2023-02-01T15:38:48Z</time>
      </trkpt>
      <trkpt lat="49.78483" lon="2.29121">
        <ele>118.2</ele>
        <time>2023-02-01T15:38:49Z</time>
      </trkpt>
      <trkpt lat="49.78483" lon="2.29121">
        <ele>118.2</ele>
        <time>2023-02-01T15:38:50Z</time>
      </trkpt>
      <trkpt lat="49.78483" lon="2.29121">
        <ele>118.2</ele>
        <time>2023-02-01T15:38:51Z</time>
      </trkpt>
      <trkpt lat="49.78483" lon="2.29121">
        <ele>118.2</ele>
        <time>2023-02-01T15:38:52Z</time>
      </trkpt>
      <trkpt lat="49.78483" lon="2.29121">
        <ele>118.2</ele>
        <time>2023-02-01T15:38:53Z</time>
      </trkpt>
      <trkpt lat="49.78483" lon="2.29121">
        <ele>118.2</ele>
        <time>2023-02-01T15:38:54Z</time>
      </trkpt>
      <trkpt lat="49.78483" lon="2.29121">
        <ele>118.2</ele>
        <time>2023-02-01T15:38:55Z</time>
      </trkpt>
      <trkpt lat="49.78483" lon="2.29121">
        <ele>118.2</ele>
        <time>2023-02-01T15:38:56Z</time>
      </trkpt>
      <trkpt lat="49.78483" lon="2.29121">
        <ele>118.2</ele>
        <time>2023-02-01T15:38:57Z</time>
      </trkpt>
      <trkpt lat="49.78483" lon="2.29121">
        <ele>118.2</ele>
        <time>2023-02-01T15:38:58Z</time>
      </trkpt>
      <trkpt lat="49.78483" lon="2.29121">
        <ele>118.2</ele>
        <time>2023-02-01T15:38:59Z</time>
      </trkpt>
      <trkpt lat="49.78483" lon="2.29121">
        <ele>118.2</ele>
        <time>2023-02-01T15:39:00Z</time>
      </trkpt>
      <trkpt lat="49.78483" lon="2.29121">
        <ele>118.2</ele>
        <time>2023-02-01T15:39:01Z</time>
      </trkpt>
      <trkpt lat="49.78483" lon="2.29121">
        <ele>118.2</ele>
        <time>2023-02-01T15:39:02Z</time>
      </trkpt>
      <trkpt lat="49.78483" lon="2.29121">
        <ele>118.2</ele>
        <time>2023-02-01T15:39:03Z</time>
      </trkpt>
      <trkpt lat="49.78483" lon="2.29121">
        <ele>118.2</ele>
        <time>2023-02-01T15:39:04Z</time>
      </trkpt>
      <trkpt lat="49.78483" lon="2.29121">
        <ele>118.2</ele>
        <time>2023-02-01T15:39:05Z</time>
      </trkpt>
      <trkpt lat="49.78483" lon="2.29121">
        <ele>118.2</ele>
        <time>2023-02-01T15:39:06Z</time>
      </trkpt>
      <trkpt lat="49.78483" lon="2.29121">
        <ele>118.2</ele>
        <time>2023-02-01T15:39:07Z</time>
      </trkpt>
      <trkpt lat="49.78483" lon="2.29121">
        <ele>118.2</ele>
        <time>2023-02-01T15:39:08Z</time>
      </trkpt>
      <trkpt lat="49.78483" lon="2.29121">
        <ele>118.2</ele>
        <time>2023-02-01T15:39:09Z</time>
      </trkpt>
      <trkpt lat="49.78483" lon="2.29121">
        <ele>118.2</ele>
        <time>2023-02-01T15:39:10Z</time>
      </trkpt>
      <trkpt lat="49.78483" lon="2.29121">
        <ele>118.2</ele>
        <time>2023-02-01T15:39:11Z</time>
      </trkpt>
      <trkpt lat="49.78483" lon="2.29121">
        <ele>118.2</ele>
        <time>2023-02-01T15:39:12Z</time>
      </trkpt>
      <trkpt lat="49.78483" lon="2.29121">
        <ele>118.2</ele>
        <time>2023-02-01T15:39:13Z</time>
      </trkpt>
      <trkpt lat="49.78482" lon="2.29121">
        <ele>118.2</ele>
        <time>2023-02-01T15:39:14Z</time>
      </trkpt>
      <trkpt lat="49.78483" lon="2.29121">
        <ele>118.2</ele>
        <time>2023-02-01T15:39:15Z</time>
      </trkpt>
      <trkpt lat="49.78483" lon="2.29121">
        <ele>118.2</ele>
        <time>2023-02-01T15:39:16Z</time>
      </trkpt>
      <trkpt lat="49.78483" lon="2.29121">
        <ele>118.2</ele>
        <time>2023-02-01T15:39:17Z</time>
      </trkpt>
      <trkpt lat="49.78483" lon="2.29121">
        <ele>118.2</ele>
        <time>2023-02-01T15:39:18Z</time>
      </trkpt>
      <trkpt lat="49.78483" lon="2.2912">
        <ele>118.2</ele>
        <time>2023-02-01T15:39:19Z</time>
      </trkpt>
      <trkpt lat="49.78483" lon="2.29121">
        <ele>118.2</ele>
        <time>2023-02-01T15:39:20Z</time>
      </trkpt>
      <trkpt lat="49.78483" lon="2.29121">
        <ele>118.2</ele>
        <time>2023-02-01T15:39:21Z</time>
      </trkpt>
      <trkpt lat="49.78483" lon="2.29121">
        <ele>118.2</ele>
        <time>2023-02-01T15:39:22Z</time>
      </trkpt>
      <trkpt lat="49.78483" lon="2.29121">
        <ele>118.2</ele>
        <time>2023-02-01T15:39:23Z</time>
      </trkpt>
      <trkpt lat="49.78483" lon="2.29121">
        <ele>118.2</ele>
        <time>2023-02-01T15:39:24Z</time>
      </trkpt>
      <trkpt lat="49.78483" lon="2.29121">
        <ele>118.2</ele>
        <time>2023-02-01T15:39:25Z</time>
      </trkpt>
      <trkpt lat="49.78483" lon="2.29121">
        <ele>118.2</ele>
        <time>2023-02-01T15:39:26Z</time>
      </trkpt>
      <trkpt lat="49.78483" lon="2.29121">
        <ele>118.2</ele>
        <time>2023-02-01T15:39:27Z</time>
      </trkpt>
      <trkpt lat="49.78483" lon="2.29121">
        <ele>118.2</ele>
        <time>2023-02-01T15:39:28Z</time>
      </trkpt>
      <trkpt lat="49.78483" lon="2.29121">
        <ele>118.2</ele>
        <time>2023-02-01T15:39:29Z</time>
      </trkpt>
      <trkpt lat="49.78483" lon="2.29121">
        <ele>118.2</ele>
        <time>2023-02-01T15:39:30Z</time>
      </trkpt>
      <trkpt lat="49.78483" lon="2.29121">
        <ele>118.2</ele>
        <time>2023-02-01T15:39:31Z</time>
      </trkpt>
      <trkpt lat="49.78483" lon="2.29121">
        <ele>118.2</ele>
        <time>2023-02-01T15:39:32Z</time>
      </trkpt>
      <trkpt lat="49.78483" lon="2.29121">
        <ele>118.2</ele>
        <time>2023-02-01T15:39:33Z</time>
      </trkpt>
      <trkpt lat="49.78483" lon="2.29121">
        <ele>118.2</ele>
        <time>2023-02-01T15:39:34Z</time>
      </trkpt>
      <trkpt lat="49.78483" lon="2.29121">
        <ele>118.2</ele>
        <time>2023-02-01T15:39:35Z</time>
      </trkpt>
      <trkpt lat="49.78483" lon="2.29121">
        <ele>118.2</ele>
        <time>2023-02-01T15:39:36Z</time>
      </trkpt>
      <trkpt lat="49.78483" lon="2.29121">
        <ele>118.2</ele>
        <time>2023-02-01T15:39:37Z</time>
      </trkpt>
      <trkpt lat="49.78483" lon="2.29121">
        <ele>118.2</ele>
        <time>2023-02-01T15:39:38Z</time>
      </trkpt>
      <trkpt lat="49.78483" lon="2.29121">
        <ele>118.2</ele>
        <time>2023-02-01T15:39:39Z</time>
      </trkpt>
      <trkpt lat="49.78483" lon="2.29121">
        <ele>118.2</ele>
        <time>2023-02-01T15:39:40Z</time>
      </trkpt>
      <trkpt lat="49.78483" lon="2.29121">
        <ele>118.2</ele>
        <time>2023-02-01T15:39:41Z</time>
      </trkpt>
      <trkpt lat="49.78483" lon="2.29121">
        <ele>118.2</ele>
        <time>2023-02-01T15:39:42Z</time>
      </trkpt>
      <trkpt lat="49.78483" lon="2.29121">
        <ele>118.2</ele>
        <time>2023-02-01T15:39:43Z</time>
      </trkpt>
      <trkpt lat="49.78483" lon="2.29121">
        <ele>118.2</ele>
        <time>2023-02-01T15:39:44Z</time>
      </trkpt>
      <trkpt lat="49.78483" lon="2.29121">
        <ele>118.2</ele>
        <time>2023-02-01T15:39:45Z</time>
      </trkpt>
      <trkpt lat="49.78483" lon="2.29121">
        <ele>118.2</ele>
        <time>2023-02-01T15:39:46Z</time>
      </trkpt>
      <trkpt lat="49.78483" lon="2.29121">
        <ele>118.2</ele>
        <time>2023-02-01T15:39:47Z</time>
      </trkpt>
      <trkpt lat="49.78483" lon="2.29121">
        <ele>118.2</ele>
        <time>2023-02-01T15:39:48Z</time>
      </trkpt>
      <trkpt lat="49.78483" lon="2.29121">
        <ele>118.2</ele>
        <time>2023-02-01T15:39:49Z</time>
      </trkpt>
      <trkpt lat="49.78483" lon="2.29121">
        <ele>118.2</ele>
        <time>2023-02-01T15:39:50Z</time>
      </trkpt>
      <trkpt lat="49.78483" lon="2.29121">
        <ele>118.2</ele>
        <time>2023-02-01T15:39:51Z</time>
      </trkpt>
      <trkpt lat="49.78483" lon="2.29121">
        <ele>118.2</ele>
        <time>2023-02-01T15:39:52Z</time>
      </trkpt>
      <trkpt lat="49.78483" lon="2.29121">
        <ele>118.2</ele>
        <time>2023-02-01T15:39:53Z</time>
      </trkpt>
      <trkpt lat="49.78483" lon="2.29121">
        <ele>118.2</ele>
        <time>2023-02-01T15:39:54Z</time>
      </trkpt>
      <trkpt lat="49.78483" lon="2.29122">
        <ele>118.2</ele>
        <time>2023-02-01T15:39:55Z</time>
      </trkpt>
      <trkpt lat="49.78483" lon="2.29122">
        <ele>118.2</ele>
        <time>2023-02-01T15:39:56Z</time>
      </trkpt>
      <trkpt lat="49.78483" lon="2.29122">
        <ele>118.2</ele>
        <time>2023-02-01T15:39:57Z</time>
      </trkpt>
      <trkpt lat="49.78483" lon="2.29122">
        <ele>118.2</ele>
        <time>2023-02-01T15:39:58Z</time>
      </trkpt>
      <trkpt lat="49.78483" lon="2.29122">
        <ele>118.2</ele>
        <time>2023-02-01T15:39:59Z</time>
      </trkpt>
      <trkpt lat="49.78483" lon="2.29122">
        <ele>118.2</ele>
        <time>2023-02-01T15:40:00Z</time>
      </trkpt>
      <trkpt lat="49.78483" lon="2.29122">
        <ele>118.2</ele>
        <time>2023-02-01T15:40:01Z</time>
      </trkpt>
      <trkpt lat="49.78483" lon="2.29122">
        <ele>118.2</ele>
        <time>2023-02-01T15:40:02Z</time>
      </trkpt>
      <trkpt lat="49.78483" lon="2.29122">
        <ele>118.2</ele>
        <time>2023-02-01T15:40:03Z</time>
      </trkpt>
      <trkpt lat="49.78483" lon="2.29122">
        <ele>118.2</ele>
        <time>2023-02-01T15:40:04Z</time>
      </trkpt>
      <trkpt lat="49.78483" lon="2.29122">
        <ele>118.2</ele>
        <time>2023-02-01T15:40:05Z</time>
      </trkpt>
      <trkpt lat="49.78483" lon="2.29122">
        <ele>118.2</ele>
        <time>2023-02-01T15:40:06Z</time>
      </trkpt>
      <trkpt lat="49.78483" lon="2.29122">
        <ele>118.2</ele>
        <time>2023-02-01T15:40:07Z</time>
      </trkpt>
      <trkpt lat="49.78483" lon="2.29122">
        <ele>118.2</ele>
        <time>2023-02-01T15:40:08Z</time>
      </trkpt>
      <trkpt lat="49.78483" lon="2.29122">
        <ele>118.2</ele>
        <time>2023-02-01T15:40:09Z</time>
      </trkpt>
      <trkpt lat="49.78483" lon="2.29122">
        <ele>118.2</ele>
        <time>2023-02-01T15:40:10Z</time>
      </trkpt>
      <trkpt lat="49.78483" lon="2.29122">
        <ele>118.2</ele>
        <time>2023-02-01T15:40:11Z</time>
      </trkpt>
      <trkpt lat="49.78483" lon="2.29122">
        <ele>118.2</ele>
        <time>2023-02-01T15:40:12Z</time>
      </trkpt>
      <trkpt lat="49.78483" lon="2.29122">
        <ele>118.2</ele>
        <time>2023-02-01T15:40:13Z</time>
      </trkpt>
      <trkpt lat="49.78483" lon="2.29122">
        <ele>118.2</ele>
        <time>2023-02-01T15:40:14Z</time>
      </trkpt>
      <trkpt lat="49.78483" lon="2.29122">
        <ele>118.2</ele>
        <time>2023-02-01T15:40:15Z</time>
      </trkpt>
      <trkpt lat="49.78483" lon="2.29122">
        <ele>118.2</ele>
        <time>2023-02-01T15:40:16Z</time>
      </trkpt>
      <trkpt lat="49.78483" lon="2.29122">
        <ele>118.2</ele>
        <time>2023-02-01T15:40:17Z</time>
      </trkpt>
      <trkpt lat="49.78483" lon="2.29122">
        <ele>118.2</ele>
        <time>2023-02-01T15:40:18Z</time>
      </trkpt>
      <trkpt lat="49.78483" lon="2.29122">
        <ele>118.2</ele>
        <time>2023-02-01T15:40:19Z</time>
      </trkpt>
      <trkpt lat="49.78483" lon="2.29122">
        <ele>118.2</ele>
        <time>2023-02-01T15:40:20Z</time>
      </trkpt>
      <trkpt lat="49.78483" lon="2.29122">
        <ele>118.2</ele>
        <time>2023-02-01T15:40:21Z</time>
      </trkpt>
      <trkpt lat="49.78483" lon="2.29122">
        <ele>118.2</ele>
        <time>2023-02-01T15:40:22Z</time>
      </trkpt>
      <trkpt lat="49.78483" lon="2.29122">
        <ele>118.2</ele>
        <time>2023-02-01T15:40:23Z</time>
      </trkpt>
      <trkpt lat="49.78483" lon="2.29122">
        <ele>118.2</ele>
        <time>2023-02-01T15:40:24Z</time>
      </trkpt>
      <trkpt lat="49.78483" lon="2.29121">
        <ele>118.2</ele>
        <time>2023-02-01T15:40:25Z</time>
      </trkpt>
      <trkpt lat="49.78483" lon="2.29121">
        <ele>118.2</ele>
        <time>2023-02-01T15:40:26Z</time>
      </trkpt>
      <trkpt lat="49.78483" lon="2.29121">
        <ele>118.2</ele>
        <time>2023-02-01T15:40:27Z</time>
      </trkpt>
      <trkpt lat="49.78483" lon="2.29121">
        <ele>118.2</ele>
        <time>2023-02-01T15:40:28Z</time>
      </trkpt>
      <trkpt lat="49.78483" lon="2.29121">
        <ele>118.2</ele>
        <time>2023-02-01T15:40:29Z</time>
      </trkpt>
      <trkpt lat="49.78483" lon="2.29122">
        <ele>118.2</ele>
        <time>2023-02-01T15:40:30Z</time>
      </trkpt>
      <trkpt lat="49.78483" lon="2.29122">
        <ele>118.2</ele>
        <time>2023-02-01T15:40:31Z</time>
      </trkpt>
      <trkpt lat="49.78483" lon="2.29122">
        <ele>118.2</ele>
        <time>2023-02-01T15:40:32Z</time>
      </trkpt>
      <trkpt lat="49.78483" lon="2.29122">
        <ele>118.2</ele>
        <time>2023-02-01T15:40:33Z</time>
      </trkpt>
      <trkpt lat="49.78483" lon="2.29122">
        <ele>118.2</ele>
        <time>2023-02-01T15:40:34Z</time>
      </trkpt>
      <trkpt lat="49.78483" lon="2.29122">
        <ele>118.2</ele>
        <time>2023-02-01T15:40:35Z</time>
      </trkpt>
      <trkpt lat="49.78483" lon="2.29122">
        <ele>118.2</ele>
        <time>2023-02-01T15:40:36Z</time>
      </trkpt>
      <trkpt lat="49.78483" lon="2.29122">
        <ele>118.2</ele>
        <time>2023-02-01T15:40:37Z</time>
      </trkpt>
      <trkpt lat="49.78483" lon="2.29122">
        <ele>118.2</ele>
        <time>2023-02-01T15:40:38Z</time>
      </trkpt>
      <trkpt lat="49.78483" lon="2.29122">
        <ele>118.2</ele>
        <time>2023-02-01T15:40:39Z</time>
      </trkpt>
      <trkpt lat="49.78483" lon="2.29122">
        <ele>118.2</ele>
        <time>2023-02-01T15:40:40Z</time>
      </trkpt>
      <trkpt lat="49.78483" lon="2.29122">
        <ele>118.2</ele>
        <time>2023-02-01T15:40:41Z</time>
      </trkpt>
      <trkpt lat="49.78483" lon="2.29122">
        <ele>118.2</ele>
        <time>2023-02-01T15:40:42Z</time>
      </trkpt>
      <trkpt lat="49.78483" lon="2.29122">
        <ele>118.2</ele>
        <time>2023-02-01T15:40:43Z</time>
      </trkpt>
      <trkpt lat="49.78483" lon="2.29122">
        <ele>118.2</ele>
        <time>2023-02-01T15:40:44Z</time>
      </trkpt>
      <trkpt lat="49.78483" lon="2.29122">
        <ele>118.2</ele>
        <time>2023-02-01T15:40:45Z</time>
      </trkpt>
      <trkpt lat="49.78483" lon="2.29122">
        <ele>118.2</ele>
        <time>2023-02-01T15:40:46Z</time>
      </trkpt>
      <trkpt lat="49.78483" lon="2.29122">
        <ele>118.2</ele>
        <time>2023-02-01T15:40:47Z</time>
      </trkpt>
      <trkpt lat="49.78483" lon="2.29122">
        <ele>118.2</ele>
        <time>2023-02-01T15:40:48Z</time>
      </trkpt>
      <trkpt lat="49.78483" lon="2.29122">
        <ele>118.2</ele>
        <time>2023-02-01T15:40:49Z</time>
      </trkpt>
      <trkpt lat="49.78483" lon="2.29122">
        <ele>118.2</ele>
        <time>2023-02-01T15:40:50Z</time>
      </trkpt>
      <trkpt lat="49.78483" lon="2.29122">
        <ele>118.2</ele>
        <time>2023-02-01T15:40:51Z</time>
      </trkpt>
      <trkpt lat="49.78483" lon="2.29122">
        <ele>118.2</ele>
        <time>2023-02-01T15:40:52Z</time>
      </trkpt>
      <trkpt lat="49.78483" lon="2.29122">
        <ele>118.2</ele>
        <time>2023-02-01T15:40:53Z</time>
      </trkpt>
      <trkpt lat="49.78483" lon="2.29122">
        <ele>118.2</ele>
        <time>2023-02-01T15:40:54Z</time>
      </trkpt>
      <trkpt lat="49.78483" lon="2.29122">
        <ele>118.2</ele>
        <time>2023-02-01T15:40:55Z</time>
      </trkpt>
      <trkpt lat="49.78483" lon="2.29122">
        <ele>118.2</ele>
        <time>2023-02-01T15:40:56Z</time>
      </trkpt>
      <trkpt lat="49.78483" lon="2.29122">
        <ele>118.2</ele>
        <time>2023-02-01T15:40:57Z</time>
      </trkpt>
      <trkpt lat="49.78483" lon="2.29122">
        <ele>118.2</ele>
        <time>2023-02-01T15:40:58Z</time>
      </trkpt>
      <trkpt lat="49.78483" lon="2.29122">
        <ele>118.2</ele>
        <time>2023-02-01T15:40:59Z</time>
      </trkpt>
      <trkpt lat="49.78483" lon="2.29122">
        <ele>118.2</ele>
        <time>2023-02-01T15:41:00Z</time>
      </trkpt>
      <trkpt lat="49.78484" lon="2.29122">
        <ele>118.2</ele>
        <time>2023-02-01T15:41:01Z</time>
      </trkpt>
      <trkpt lat="49.78484" lon="2.29122">
        <ele>118.2</ele>
        <time>2023-02-01T15:41:02Z</time>
      </trkpt>
      <trkpt lat="49.78484" lon="2.29122">
        <ele>118.2</ele>
        <time>2023-02-01T15:41:03Z</time>
      </trkpt>
      <trkpt lat="49.78484" lon="2.29122">
        <ele>118.2</ele>
        <time>2023-02-01T15:41:04Z</time>
      </trkpt>
      <trkpt lat="49.78484" lon="2.29122">
        <ele>118.2</ele>
        <time>2023-02-01T15:41:05Z</time>
      </trkpt>
      <trkpt lat="49.78484" lon="2.29122">
        <ele>118.2</ele>
        <time>2023-02-01T15:41:06Z</time>
      </trkpt>
      <trkpt lat="49.78484" lon="2.29122">
        <ele>118.2</ele>
        <time>2023-02-01T15:41:07Z</time>
      </trkpt>
      <trkpt lat="49.78484" lon="2.29122">
        <ele>118.2</ele>
        <time>2023-02-01T15:41:08Z</time>
      </trkpt>
      <trkpt lat="49.78484" lon="2.29122">
        <ele>118.2</ele>
        <time>2023-02-01T15:41:09Z</time>
      </trkpt>
      <trkpt lat="49.78484" lon="2.29122">
        <ele>118.2</ele>
        <time>2023-02-01T15:41:11Z</time>
      </trkpt>
      <trkpt lat="49.78484" lon="2.29122">
        <ele>118.2</ele>
        <time>2023-02-01T15:41:13Z</time>
      </trkpt>
      <trkpt lat="49.78484" lon="2.29122">
        <ele>118.2</ele>
        <time>2023-02-01T15:41:14Z</time>
      </trkpt>
      <trkpt lat="49.78484" lon="2.29123">
        <ele>118.2</ele>
        <time>2023-02-01T15:41:15Z</time>
      </trkpt>
      <trkpt lat="49.78484" lon="2.29122">
        <ele>118.2</ele>
        <time>2023-02-01T15:41:17Z</time>
      </trkpt>
      <trkpt lat="49.78484" lon="2.29122">
        <ele>118.2</ele>
        <time>2023-02-01T15:41:19Z</time>
      </trkpt>
      <trkpt lat="49.78484" lon="2.29122">
        <ele>118.2</ele>
        <time>2023-02-01T15:41:20Z</time>
      </trkpt>
      <trkpt lat="49.78484" lon="2.29122">
        <ele>118.2</ele>
        <time>2023-02-01T15:41:21Z</time>
      </trkpt>
      <trkpt lat="49.78484" lon="2.29122">
        <ele>118.2</ele>
        <time>2023-02-01T15:41:23Z</time>
      </trkpt>
      <trkpt lat="49.78484" lon="2.29122">
        <ele>118.2</ele>
        <time>2023-02-01T15:41:24Z</time>
      </trkpt>
      <trkpt lat="49.78484" lon="2.29122">
        <ele>118.2</ele>
        <time>2023-02-01T15:41:25Z</time>
      </trkpt>
      <trkpt lat="49.78484" lon="2.29122">
        <ele>118.2</ele>
        <time>2023-02-01T15:41:26Z</time>
      </trkpt>
      <trkpt lat="49.78484" lon="2.29122">
        <ele>118.2</ele>
        <time>2023-02-01T15:41:27Z</time>
      </trkpt>
      <trkpt lat="49.78484" lon="2.29122">
        <ele>118.2</ele>
        <time>2023-02-01T15:41:28Z</time>
      </trkpt>
      <trkpt lat="49.78484" lon="2.29122">
        <ele>118.2</ele>
        <time>2023-02-01T15:41:29Z</time>
      </trkpt>
      <trkpt lat="49.78484" lon="2.29122">
        <ele>118.2</ele>
        <time>2023-02-01T15:41:30Z</time>
      </trkpt>
      <trkpt lat="49.78484" lon="2.29122">
        <ele>118.2</ele>
        <time>2023-02-01T15:41:31Z</time>
      </trkpt>
      <trkpt lat="49.78484" lon="2.29122">
        <ele>118.2</ele>
        <time>2023-02-01T15:41:32Z</time>
      </trkpt>
      <trkpt lat="49.78484" lon="2.29122">
        <ele>118.2</ele>
        <time>2023-02-01T15:41:33Z</time>
      </trkpt>
      <trkpt lat="49.78484" lon="2.29122">
        <ele>118.2</ele>
        <time>2023-02-01T15:41:34Z</time>
      </trkpt>
      <trkpt lat="49.78484" lon="2.29122">
        <ele>118.2</ele>
        <time>2023-02-01T15:41:35Z</time>
      </trkpt>
      <trkpt lat="49.78484" lon="2.29122">
        <ele>118.2</ele>
        <time>2023-02-01T15:41:36Z</time>
      </trkpt>
      <trkpt lat="49.78484" lon="2.29122">
        <ele>118.2</ele>
        <time>2023-02-01T15:41:37Z</time>
      </trkpt>
      <trkpt lat="49.78484" lon="2.29122">
        <ele>118.2</ele>
        <time>2023-02-01T15:41:38Z</time>
      </trkpt>
      <trkpt lat="49.78484" lon="2.29122">
        <ele>118.2</ele>
        <time>2023-02-01T15:41:39Z</time>
      </trkpt>
      <trkpt lat="49.78484" lon="2.29122">
        <ele>118.2</ele>
        <time>2023-02-01T15:41:40Z</time>
      </trkpt>
      <trkpt lat="49.78484" lon="2.29122">
        <ele>118.2</ele>
        <time>2023-02-01T15:41:41Z</time>
      </trkpt>
      <trkpt lat="49.78484" lon="2.29122">
        <ele>118.2</ele>
        <time>2023-02-01T15:41:42Z</time>
      </trkpt>
      <trkpt lat="49.78484" lon="2.29122">
        <ele>118.2</ele>
        <time>2023-02-01T15:41:43Z</time>
      </trkpt>
      <trkpt lat="49.78484" lon="2.29122">
        <ele>118.2</ele>
        <time>2023-02-01T15:41:44Z</time>
      </trkpt>
      <trkpt lat="49.78484" lon="2.29122">
        <ele>118.2</ele>
        <time>2023-02-01T15:41:45Z</time>
      </trkpt>
      <trkpt lat="49.78484" lon="2.29122">
        <ele>118.2</ele>
        <time>2023-02-01T15:41:46Z</time>
      </trkpt>
      <trkpt lat="49.78484" lon="2.29122">
        <ele>118.2</ele>
        <time>2023-02-01T15:41:47Z</time>
      </trkpt>
      <trkpt lat="49.78484" lon="2.29121">
        <ele>118.2</ele>
        <time>2023-02-01T15:41:48Z</time>
      </trkpt>
      <trkpt lat="49.78484" lon="2.2912">
        <ele>118.2</ele>
        <time>2023-02-01T15:41:50Z</time>
      </trkpt>
      <trkpt lat="49.78484" lon="2.29119">
        <ele>118.2</ele>
        <time>2023-02-01T15:41:51Z</time>
      </trkpt>
      <trkpt lat="49.78484" lon="2.29118">
        <ele>118.2</ele>
        <time>2023-02-01T15:41:52Z</time>
      </trkpt>
      <trkpt lat="49.78484" lon="2.29116">
        <ele>118.2</ele>
        <time>2023-02-01T15:41:53Z</time>
      </trkpt>
      <trkpt lat="49.78483" lon="2.29115">
        <ele>118.2</ele>
        <time>2023-02-01T15:41:54Z</time>
      </trkpt>
      <trkpt lat="49.78482" lon="2.29114">
        <ele>118.2</ele>
        <time>2023-02-01T15:41:55Z</time>
      </trkpt>
      <trkpt lat="49.78482" lon="2.29113">
        <ele>118.2</ele>
        <time>2023-02-01T15:41:57Z</time>
      </trkpt>
      <trkpt lat="49.78482" lon="2.29113">
        <ele>118.2</ele>
        <time>2023-02-01T15:41:58Z</time>
      </trkpt>
      <trkpt lat="49.78482" lon="2.29114">
        <ele>118.2</ele>
        <time>2023-02-01T15:42:00Z</time>
      </trkpt>
      <trkpt lat="49.78483" lon="2.29113">
        <ele>118.2</ele>
        <time>2023-02-01T15:42:02Z</time>
      </trkpt>
      <trkpt lat="49.78483" lon="2.29113">
        <ele>118.2</ele>
        <time>2023-02-01T15:42:03Z</time>
      </trkpt>
      <trkpt lat="49.78484" lon="2.29112">
        <ele>118.2</ele>
        <time>2023-02-01T15:42:04Z</time>
      </trkpt>
      <trkpt lat="49.78484" lon="2.29112">
        <ele>118.2</ele>
        <time>2023-02-01T15:42:05Z</time>
      </trkpt>
      <trkpt lat="49.78484" lon="2.29111">
        <ele>118.2</ele>
        <time>2023-02-01T15:42:07Z</time>
      </trkpt>
      <trkpt lat="49.78484" lon="2.29111">
        <ele>118.2</ele>
        <time>2023-02-01T15:42:08Z</time>
      </trkpt>
      <trkpt lat="49.78484" lon="2.2911">
        <ele>118.2</ele>
        <time>2023-02-01T15:42:10Z</time>
      </trkpt>
      <trkpt lat="49.78484" lon="2.2911">
        <ele>118.2</ele>
        <time>2023-02-01T15:42:11Z</time>
      </trkpt>
      <trkpt lat="49.78484" lon="2.29111">
        <ele>118.2</ele>
        <time>2023-02-01T15:42:12Z</time>
      </trkpt>
      <trkpt lat="49.78484" lon="2.29112">
        <ele>118.2</ele>
        <time>2023-02-01T15:42:14Z</time>
      </trkpt>
      <trkpt lat="49.78483" lon="2.29112">
        <ele>118.2</ele>
        <time>2023-02-01T15:42:15Z</time>
      </trkpt>
      <trkpt lat="49.78483" lon="2.29112">
        <ele>118.2</ele>
        <time>2023-02-01T15:42:16Z</time>
      </trkpt>
      <trkpt lat="49.78483" lon="2.29113">
        <ele>118.2</ele>
        <time>2023-02-01T15:42:18Z</time>
      </trkpt>
      <trkpt lat="49.78483" lon="2.29113">
        <ele>118.2</ele>
        <time>2023-02-01T15:42:19Z</time>
      </trkpt>
      <trkpt lat="49.78483" lon="2.29113">
        <ele>118.2</ele>
        <time>2023-02-01T15:42:20Z</time>
      </trkpt>
      <trkpt lat="49.78483" lon="2.29113">
        <ele>118.2</ele>
        <time>2023-02-01T15:42:22Z</time>
      </trkpt>
      <trkpt lat="49.78483" lon="2.29112">
        <ele>118.1</ele>
        <time>2023-02-01T15:42:23Z</time>
      </trkpt>
      <trkpt lat="49.78483" lon="2.29112">
        <ele>118.1</ele>
        <time>2023-02-01T15:42:24Z</time>
      </trkpt>
      <trkpt lat="49.78484" lon="2.29111">
        <ele>118.1</ele>
        <time>2023-02-01T15:42:25Z</time>
      </trkpt>
      <trkpt lat="49.78485" lon="2.29109">
        <ele>118.1</ele>
        <time>2023-02-01T15:42:27Z</time>
      </trkpt>
      <trkpt lat="49.78485" lon="2.29109">
        <ele>118.1</ele>
        <time>2023-02-01T15:42:28Z</time>
      </trkpt>
      <trkpt lat="49.78486" lon="2.29109">
        <ele>118.1</ele>
        <time>2023-02-01T15:42:29Z</time>
      </trkpt>
      <trkpt lat="49.78486" lon="2.29109">
        <ele>118.3</ele>
        <time>2023-02-01T15:42:31Z</time>
      </trkpt>
      <trkpt lat="49.78486" lon="2.29108">
        <ele>118.3</ele>
        <time>2023-02-01T15:42:32Z</time>
      </trkpt>
      <trkpt lat="49.78486" lon="2.29106">
        <ele>118.3</ele>
        <time>2023-02-01T15:42:33Z</time>
      </trkpt>
      <trkpt lat="49.78486" lon="2.29104">
        <ele>118.3</ele>
        <time>2023-02-01T15:42:34Z</time>
      </trkpt>
      <trkpt lat="49.78486" lon="2.29103">
        <ele>118.3</ele>
        <time>2023-02-01T15:42:36Z</time>
      </trkpt>
      <trkpt lat="49.78486" lon="2.29101">
        <ele>118.3</ele>
        <time>2023-02-01T15:42:37Z</time>
      </trkpt>
      <trkpt lat="49.78486" lon="2.291">
        <ele>118.4</ele>
        <time>2023-02-01T15:42:38Z</time>
      </trkpt>
      <trkpt lat="49.78487" lon="2.29098">
        <ele>118.4</ele>
        <time>2023-02-01T15:42:39Z</time>
      </trkpt>
      <trkpt lat="49.78488" lon="2.29096">
        <ele>118.4</ele>
        <time>2023-02-01T15:42:40Z</time>
      </trkpt>
      <trkpt lat="49.78489" lon="2.29095">
        <ele>118.4</ele>
        <time>2023-02-01T15:42:42Z</time>
      </trkpt>
      <trkpt lat="49.78489" lon="2.29093">
        <ele>118.4</ele>
        <time>2023-02-01T15:42:43Z</time>
      </trkpt>
      <trkpt lat="49.7849" lon="2.29092">
        <ele>118.5</ele>
        <time>2023-02-01T15:42:44Z</time>
      </trkpt>
      <trkpt lat="49.78491" lon="2.29091">
        <ele>118.5</ele>
        <time>2023-02-01T15:42:45Z</time>
      </trkpt>
      <trkpt lat="49.78492" lon="2.2909">
        <ele>118.5</ele>
        <time>2023-02-01T15:42:47Z</time>
      </trkpt>
      <trkpt lat="49.78494" lon="2.2909">
        <ele>118.5</ele>
        <time>2023-02-01T15:42:48Z</time>
      </trkpt>
      <trkpt lat="49.78494" lon="2.29089">
        <ele>118.5</ele>
        <time>2023-02-01T15:42:49Z</time>
      </trkpt>
      <trkpt lat="49.78495" lon="2.29089">
        <ele>118.6</ele>
        <time>2023-02-01T15:42:50Z</time>
      </trkpt>
      <trkpt lat="49.78497" lon="2.29086">
        <ele>118.6</ele>
        <time>2023-02-01T15:42:51Z</time>
      </trkpt>
      <trkpt lat="49.78497" lon="2.29085">
        <ele>118.6</ele>
        <time>2023-02-01T15:42:52Z</time>
      </trkpt>
      <trkpt lat="49.78499" lon="2.29083">
        <ele>118.7</ele>
        <time>2023-02-01T15:42:54Z</time>
      </trkpt>
      <trkpt lat="49.785" lon="2.29082">
        <ele>118.7</ele>
        <time>2023-02-01T15:42:55Z</time>
      </trkpt>
      <trkpt lat="49.785" lon="2.29082">
        <ele>118.7</ele>
        <time>2023-02-01T15:42:56Z</time>
      </trkpt>
      <trkpt lat="49.78501" lon="2.29081">
        <ele>118.7</ele>
        <time>2023-02-01T15:42:57Z</time>
      </trkpt>
      <trkpt lat="49.78502" lon="2.29081">
        <ele>118.7</ele>
        <time>2023-02-01T15:42:59Z</time>
      </trkpt>
      <trkpt lat="49.78503" lon="2.2908">
        <ele>118.7</ele>
        <time>2023-02-01T15:43:00Z</time>
      </trkpt>
      <trkpt lat="49.78504" lon="2.29079">
        <ele>118.8</ele>
        <time>2023-02-01T15:43:01Z</time>
      </trkpt>
      <trkpt lat="49.78504" lon="2.29078">
        <ele>118.8</ele>
        <time>2023-02-01T15:43:02Z</time>
      </trkpt>
      <trkpt lat="49.78505" lon="2.29076">
        <ele>118.8</ele>
        <time>2023-02-01T15:43:03Z</time>
      </trkpt>
      <trkpt lat="49.78505" lon="2.29076">
        <ele>118.8</ele>
        <time>2023-02-01T15:43:05Z</time>
      </trkpt>
      <trkpt lat="49.78506" lon="2.29075">
        <ele>118.8</ele>
        <time>2023-02-01T15:43:06Z</time>
      </trkpt>
      <trkpt lat="49.78506" lon="2.29076">
        <ele>118.8</ele>
        <time>2023-02-01T15:43:07Z</time>
      </trkpt>
      <trkpt lat="49.78507" lon="2.29076">
        <ele>118.9</ele>
        <time>2023-02-01T15:43:08Z</time>
      </trkpt>
      <trkpt lat="49.78508" lon="2.29075">
        <ele>118.9</ele>
        <time>2023-02-01T15:43:09Z</time>
      </trkpt>
      <trkpt lat="49.78509" lon="2.29074">
        <ele>118.9</ele>
        <time>2023-02-01T15:43:11Z</time>
      </trkpt>
      <trkpt lat="49.7851" lon="2.29074">
        <ele>118.9</ele>
        <time>2023-02-01T15:43:12Z</time>
      </trkpt>
      <trkpt lat="49.78511" lon="2.29073">
        <ele>119</ele>
        <time>2023-02-01T15:43:13Z</time>
      </trkpt>
      <trkpt lat="49.78511" lon="2.29073">
        <ele>119</ele>
        <time>2023-02-01T15:43:15Z</time>
      </trkpt>
      <trkpt lat="49.78511" lon="2.29073">
        <ele>119</ele>
        <time>2023-02-01T15:43:16Z</time>
      </trkpt>
      <trkpt lat="49.78511" lon="2.29072">
        <ele>119</ele>
        <time>2023-02-01T15:43:17Z</time>
      </trkpt>
      <trkpt lat="49.78511" lon="2.29073">
        <ele>119</ele>
        <time>2023-02-01T15:43:19Z</time>
      </trkpt>
      <trkpt lat="49.7851" lon="2.29073">
        <ele>119</ele>
        <time>2023-02-01T15:43:20Z</time>
      </trkpt>
      <trkpt lat="49.7851" lon="2.29073">
        <ele>119</ele>
        <time>2023-02-01T15:43:22Z</time>
      </trkpt>
      <trkpt lat="49.78509" lon="2.29072">
        <ele>119</ele>
        <time>2023-02-01T15:43:23Z</time>
      </trkpt>
      <trkpt lat="49.78509" lon="2.29072">
        <ele>119</ele>
        <time>2023-02-01T15:43:25Z</time>
      </trkpt>
      <trkpt lat="49.78509" lon="2.29072">
        <ele>119</ele>
        <time>2023-02-01T15:43:26Z</time>
      </trkpt>
      <trkpt lat="49.78509" lon="2.29073">
        <ele>119</ele>
        <time>2023-02-01T15:43:28Z</time>
      </trkpt>
      <trkpt lat="49.78509" lon="2.29073">
        <ele>119</ele>
        <time>2023-02-01T15:43:29Z</time>
      </trkpt>
      <trkpt lat="49.78509" lon="2.29073">
        <ele>119</ele>
        <time>2023-02-01T15:43:30Z</time>
      </trkpt>
      <trkpt lat="49.78509" lon="2.29074">
        <ele>119.1</ele>
        <time>2023-02-01T15:43:31Z</time>
      </trkpt>
      <trkpt lat="49.78508" lon="2.29074">
        <ele>119.1</ele>
        <time>2023-02-01T15:43:32Z</time>
      </trkpt>
      <trkpt lat="49.78508" lon="2.29074">
        <ele>119.1</ele>
        <time>2023-02-01T15:43:33Z</time>
      </trkpt>
      <trkpt lat="49.78508" lon="2.29075">
        <ele>119.1</ele>
        <time>2023-02-01T15:43:34Z</time>
      </trkpt>
      <trkpt lat="49.78508" lon="2.29075">
        <ele>119.1</ele>
        <time>2023-02-01T15:43:35Z</time>
      </trkpt>
      <trkpt lat="49.78508" lon="2.29075">
        <ele>119.1</ele>
        <time>2023-02-01T15:43:36Z</time>
      </trkpt>
      <trkpt lat="49.78508" lon="2.29075">
        <ele>119.1</ele>
        <time>2023-02-01T15:43:37Z</time>
      </trkpt>
      <trkpt lat="49.78508" lon="2.29075">
        <ele>119.1</ele>
        <time>2023-02-01T15:43:38Z</time>
      </trkpt>
      <trkpt lat="49.78508" lon="2.29075">
        <ele>119.1</ele>
        <time>2023-02-01T15:43:39Z</time>
      </trkpt>
      <trkpt lat="49.78508" lon="2.29075">
        <ele>119.1</ele>
        <time>2023-02-01T15:43:40Z</time>
      </trkpt>
      <trkpt lat="49.78508" lon="2.29075">
        <ele>119.1</ele>
        <time>2023-02-01T15:43:41Z</time>
      </trkpt>
      <trkpt lat="49.78508" lon="2.29075">
        <ele>119.1</ele>
        <time>2023-02-01T15:43:42Z</time>
      </trkpt>
      <trkpt lat="49.78508" lon="2.29075">
        <ele>119.1</ele>
        <time>2023-02-01T15:43:43Z</time>
      </trkpt>
      <trkpt lat="49.78508" lon="2.29075">
        <ele>119.1</ele>
        <time>2023-02-01T15:43:44Z</time>
      </trkpt>
      <trkpt lat="49.78508" lon="2.29075">
        <ele>119.1</ele>
        <time>2023-02-01T15:43:45Z</time>
      </trkpt>
      <trkpt lat="49.78508" lon="2.29075">
        <ele>119.1</ele>
        <time>2023-02-01T15:43:46Z</time>
      </trkpt>
      <trkpt lat="49.78508" lon="2.29075">
        <ele>119.1</ele>
        <time>2023-02-01T15:43:47Z</time>
      </trkpt>
      <trkpt lat="49.78508" lon="2.29075">
        <ele>119.1</ele>
        <time>2023-02-01T15:43:48Z</time>
      </trkpt>
      <trkpt lat="49.78508" lon="2.29075">
        <ele>119.1</ele>
        <time>2023-02-01T15:43:49Z</time>
      </trkpt>
      <trkpt lat="49.78508" lon="2.29075">
        <ele>119.1</ele>
        <time>2023-02-01T15:43:50Z</time>
      </trkpt>
      <trkpt lat="49.78508" lon="2.29075">
        <ele>119.1</ele>
        <time>2023-02-01T15:43:51Z</time>
      </trkpt>
      <trkpt lat="49.78508" lon="2.29075">
        <ele>119.1</ele>
        <time>2023-02-01T15:43:52Z</time>
      </trkpt>
      <trkpt lat="49.78508" lon="2.29075">
        <ele>119.1</ele>
        <time>2023-02-01T15:43:53Z</time>
      </trkpt>
      <trkpt lat="49.78508" lon="2.29075">
        <ele>119.1</ele>
        <time>2023-02-01T15:43:54Z</time>
      </trkpt>
      <trkpt lat="49.78508" lon="2.29075">
        <ele>119.1</ele>
        <time>2023-02-01T15:43:55Z</time>
      </trkpt>
      <trkpt lat="49.78508" lon="2.29075">
        <ele>119.1</ele>
        <time>2023-02-01T15:43:56Z</time>
      </trkpt>
      <trkpt lat="49.78508" lon="2.29075">
        <ele>119.1</ele>
        <time>2023-02-01T15:43:57Z</time>
      </trkpt>
      <trkpt lat="49.78508" lon="2.29075">
        <ele>119.1</ele>
        <time>2023-02-01T15:43:58Z</time>
      </trkpt>
      <trkpt lat="49.78508" lon="2.29075">
        <ele>119.1</ele>
        <time>2023-02-01T15:43:59Z</time>
      </trkpt>
      <trkpt lat="49.78508" lon="2.29075">
        <ele>119.1</ele>
        <time>2023-02-01T15:44:00Z</time>
      </trkpt>
      <trkpt lat="49.78508" lon="2.29075">
        <ele>119.1</ele>
        <time>2023-02-01T15:44:01Z</time>
      </trkpt>
      <trkpt lat="49.78508" lon="2.29075">
        <ele>119.1</ele>
        <time>2023-02-01T15:44:02Z</time>
      </trkpt>
      <trkpt lat="49.78508" lon="2.29075">
        <ele>119.1</ele>
        <time>2023-02-01T15:44:03Z</time>
      </trkpt>
      <trkpt lat="49.78508" lon="2.29075">
        <ele>119.1</ele>
        <time>2023-02-01T15:44:04Z</time>
      </trkpt>
      <trkpt lat="49.78508" lon="2.29075">
        <ele>119.1</ele>
        <time>2023-02-01T15:44:05Z</time>
      </trkpt>
      <trkpt lat="49.78508" lon="2.29075">
        <ele>119.1</ele>
        <time>2023-02-01T15:44:06Z</time>
      </trkpt>
      <trkpt lat="49.78508" lon="2.29075">
        <ele>119.1</ele>
        <time>2023-02-01T15:44:07Z</time>
      </trkpt>
      <trkpt lat="49.78508" lon="2.29075">
        <ele>119.1</ele>
        <time>2023-02-01T15:44:08Z</time>
      </trkpt>
      <trkpt lat="49.78508" lon="2.29075">
        <ele>119.1</ele>
        <time>2023-02-01T15:44:09Z</time>
      </trkpt>
      <trkpt lat="49.78508" lon="2.29075">
        <ele>119.1</ele>
        <time>2023-02-01T15:44:10Z</time>
      </trkpt>
      <trkpt lat="49.78508" lon="2.29075">
        <ele>119.1</ele>
        <time>2023-02-01T15:44:11Z</time>
      </trkpt>
      <trkpt lat="49.78508" lon="2.29075">
        <ele>119.1</ele>
        <time>2023-02-01T15:44:12Z</time>
      </trkpt>
      <trkpt lat="49.78508" lon="2.29075">
        <ele>119.1</ele>
        <time>2023-02-01T15:44:13Z</time>
      </trkpt>
      <trkpt lat="49.78508" lon="2.29075">
        <ele>119.1</ele>
        <time>2023-02-01T15:44:14Z</time>
      </trkpt>
      <trkpt lat="49.78508" lon="2.29075">
        <ele>119.1</ele>
        <time>2023-02-01T15:44:15Z</time>
      </trkpt>
      <trkpt lat="49.78508" lon="2.29075">
        <ele>119.1</ele>
        <time>2023-02-01T15:44:16Z</time>
      </trkpt>
      <trkpt lat="49.78508" lon="2.29075">
        <ele>119.1</ele>
        <time>2023-02-01T15:44:17Z</time>
      </trkpt>
      <trkpt lat="49.78508" lon="2.29075">
        <ele>119.1</ele>
        <time>2023-02-01T15:44:18Z</time>
      </trkpt>
      <trkpt lat="49.78508" lon="2.29075">
        <ele>119.1</ele>
        <time>2023-02-01T15:44:19Z</time>
      </trkpt>
      <trkpt lat="49.78508" lon="2.29075">
        <ele>119.1</ele>
        <time>2023-02-01T15:44:20Z</time>
      </trkpt>
      <trkpt lat="49.78508" lon="2.29075">
        <ele>119.1</ele>
        <time>2023-02-01T15:44:21Z</time>
      </trkpt>
      <trkpt lat="49.78508" lon="2.29075">
        <ele>119.1</ele>
        <time>2023-02-01T15:44:22Z</time>
      </trkpt>
      <trkpt lat="49.78508" lon="2.29075">
        <ele>119.1</ele>
        <time>2023-02-01T15:44:23Z</time>
      </trkpt>
      <trkpt lat="49.78508" lon="2.29075">
        <ele>119.1</ele>
        <time>2023-02-01T15:44:24Z</time>
      </trkpt>
      <trkpt lat="49.78508" lon="2.29075">
        <ele>119.1</ele>
        <time>2023-02-01T15:44:25Z</time>
      </trkpt>
      <trkpt lat="49.78508" lon="2.29075">
        <ele>119.1</ele>
        <time>2023-02-01T15:44:26Z</time>
      </trkpt>
      <trkpt lat="49.78508" lon="2.29075">
        <ele>119.1</ele>
        <time>2023-02-01T15:44:27Z</time>
      </trkpt>
      <trkpt lat="49.78508" lon="2.29075">
        <ele>119.1</ele>
        <time>2023-02-01T15:44:28Z</time>
      </trkpt>
      <trkpt lat="49.78508" lon="2.29075">
        <ele>119.1</ele>
        <time>2023-02-01T15:44:29Z</time>
      </trkpt>
      <trkpt lat="49.78508" lon="2.29075">
        <ele>119.1</ele>
        <time>2023-02-01T15:44:30Z</time>
      </trkpt>
      <trkpt lat="49.78508" lon="2.29075">
        <ele>119.1</ele>
        <time>2023-02-01T15:44:31Z</time>
      </trkpt>
      <trkpt lat="49.78508" lon="2.29075">
        <ele>119.1</ele>
        <time>2023-02-01T15:44:32Z</time>
      </trkpt>
      <trkpt lat="49.78508" lon="2.29075">
        <ele>119.1</ele>
        <time>2023-02-01T15:44:33Z</time>
      </trkpt>
      <trkpt lat="49.78508" lon="2.29075">
        <ele>119.1</ele>
        <time>2023-02-01T15:44:34Z</time>
      </trkpt>
      <trkpt lat="49.78508" lon="2.29075">
        <ele>119.1</ele>
        <time>2023-02-01T15:44:35Z</time>
      </trkpt>
      <trkpt lat="49.78508" lon="2.29075">
        <ele>119.1</ele>
        <time>2023-02-01T15:44:36Z</time>
      </trkpt>
      <trkpt lat="49.78508" lon="2.29075">
        <ele>119.1</ele>
        <time>2023-02-01T15:44:37Z</time>
      </trkpt>
      <trkpt lat="49.78508" lon="2.29075">
        <ele>119.1</ele>
        <time>2023-02-01T15:44:38Z</time>
      </trkpt>
      <trkpt lat="49.78508" lon="2.29075">
        <ele>119.1</ele>
        <time>2023-02-01T15:44:39Z</time>
      </trkpt>
      <trkpt lat="49.78508" lon="2.29075">
        <ele>119.1</ele>
        <time>2023-02-01T15:44:40Z</time>
      </trkpt>
      <trkpt lat="49.78508" lon="2.29075">
        <ele>119.1</ele>
        <time>2023-02-01T15:44:41Z</time>
      </trkpt>
      <trkpt lat="49.78508" lon="2.29075">
        <ele>119.1</ele>
        <time>2023-02-01T15:44:42Z</time>
      </trkpt>
      <trkpt lat="49.78508" lon="2.29075">
        <ele>119.1</ele>
        <time>2023-02-01T15:44:43Z</time>
      </trkpt>
      <trkpt lat="49.78508" lon="2.29075">
        <ele>119.1</ele>
        <time>2023-02-01T15:44:44Z</time>
      </trkpt>
      <trkpt lat="49.78508" lon="2.29075">
        <ele>119.1</ele>
        <time>2023-02-01T15:44:45Z</time>
      </trkpt>
      <trkpt lat="49.78508" lon="2.29075">
        <ele>119.1</ele>
        <time>2023-02-01T15:44:46Z</time>
      </trkpt>
      <trkpt lat="49.78508" lon="2.29075">
        <ele>119.1</ele>
        <time>2023-02-01T15:44:47Z</time>
      </trkpt>
      <trkpt lat="49.78508" lon="2.29075">
        <ele>119.1</ele>
        <time>2023-02-01T15:44:48Z</time>
      </trkpt>
      <trkpt lat="49.78508" lon="2.29075">
        <ele>119.1</ele>
        <time>2023-02-01T15:44:49Z</time>
      </trkpt>
      <trkpt lat="49.78508" lon="2.29075">
        <ele>119.1</ele>
        <time>2023-02-01T15:44:50Z</time>
      </trkpt>
      <trkpt lat="49.78508" lon="2.29075">
        <ele>119.1</ele>
        <time>2023-02-01T15:44:51Z</time>
      </trkpt>
      <trkpt lat="49.78508" lon="2.29075">
        <ele>119.1</ele>
        <time>2023-02-01T15:44:52Z</time>
      </trkpt>
      <trkpt lat="49.78508" lon="2.29075">
        <ele>119.1</ele>
        <time>2023-02-01T15:44:53Z</time>
      </trkpt>
      <trkpt lat="49.78508" lon="2.29075">
        <ele>119.1</ele>
        <time>2023-02-01T15:44:54Z</time>
      </trkpt>
      <trkpt lat="49.78508" lon="2.29075">
        <ele>119.1</ele>
        <time>2023-02-01T15:44:55Z</time>
      </trkpt>
      <trkpt lat="49.78508" lon="2.29075">
        <ele>119.1</ele>
        <time>2023-02-01T15:44:56Z</time>
      </trkpt>
      <trkpt lat="49.78508" lon="2.29075">
        <ele>119.1</ele>
        <time>2023-02-01T15:44:57Z</time>
      </trkpt>
      <trkpt lat="49.78508" lon="2.29075">
        <ele>119.1</ele>
        <time>2023-02-01T15:44:58Z</time>
      </trkpt>
      <trkpt lat="49.78508" lon="2.29075">
        <ele>119.1</ele>
        <time>2023-02-01T15:44:59Z</time>
      </trkpt>
      <trkpt lat="49.78508" lon="2.29075">
        <ele>119.1</ele>
        <time>2023-02-01T15:45:00Z</time>
      </trkpt>
      <trkpt lat="49.78508" lon="2.29075">
        <ele>119.1</ele>
        <time>2023-02-01T15:45:01Z</time>
      </trkpt>
      <trkpt lat="49.78508" lon="2.29075">
        <ele>119.1</ele>
        <time>2023-02-01T15:45:02Z</time>
      </trkpt>
      <trkpt lat="49.78508" lon="2.29075">
        <ele>119.1</ele>
        <time>2023-02-01T15:45:03Z</time>
      </trkpt>
      <trkpt lat="49.78508" lon="2.29075">
        <ele>119.1</ele>
        <time>2023-02-01T15:45:04Z</time>
      </trkpt>
      <trkpt lat="49.78508" lon="2.29075">
        <ele>119.1</ele>
        <time>2023-02-01T15:45:05Z</time>
      </trkpt>
      <trkpt lat="49.78508" lon="2.29075">
        <ele>119.1</ele>
        <time>2023-02-01T15:45:06Z</time>
      </trkpt>
      <trkpt lat="49.78508" lon="2.29075">
        <ele>119.1</ele>
        <time>2023-02-01T15:45:07Z</time>
      </trkpt>
      <trkpt lat="49.78508" lon="2.29075">
        <ele>119.1</ele>
        <time>2023-02-01T15:45:08Z</time>
      </trkpt>
      <trkpt lat="49.78508" lon="2.29075">
        <ele>119.1</ele>
        <time>2023-02-01T15:45:09Z</time>
      </trkpt>
      <trkpt lat="49.78508" lon="2.29075">
        <ele>119.1</ele>
        <time>2023-02-01T15:45:10Z</time>
      </trkpt>
      <trkpt lat="49.78508" lon="2.29075">
        <ele>119.1</ele>
        <time>2023-02-01T15:45:11Z</time>
      </trkpt>
      <trkpt lat="49.78508" lon="2.29075">
        <ele>119.1</ele>
        <time>2023-02-01T15:45:12Z</time>
      </trkpt>
      <trkpt lat="49.78508" lon="2.29075">
        <ele>119.1</ele>
        <time>2023-02-01T15:45:13Z</time>
      </trkpt>
      <trkpt lat="49.78508" lon="2.29075">
        <ele>119.1</ele>
        <time>2023-02-01T15:45:14Z</time>
      </trkpt>
      <trkpt lat="49.78508" lon="2.29075">
        <ele>119.1</ele>
        <time>2023-02-01T15:45:15Z</time>
      </trkpt>
      <trkpt lat="49.78508" lon="2.29075">
        <ele>119.1</ele>
        <time>2023-02-01T15:45:16Z</time>
      </trkpt>
      <trkpt lat="49.78508" lon="2.29075">
        <ele>119.1</ele>
        <time>2023-02-01T15:45:17Z</time>
      </trkpt>
      <trkpt lat="49.78508" lon="2.29075">
        <ele>119.1</ele>
        <time>2023-02-01T15:45:18Z</time>
      </trkpt>
      <trkpt lat="49.78508" lon="2.29075">
        <ele>119.1</ele>
        <time>2023-02-01T15:45:19Z</time>
      </trkpt>
      <trkpt lat="49.78508" lon="2.29075">
        <ele>119.1</ele>
        <time>2023-02-01T15:45:20Z</time>
      </trkpt>
      <trkpt lat="49.78508" lon="2.29075">
        <ele>119.1</ele>
        <time>2023-02-01T15:45:21Z</time>
      </trkpt>
      <trkpt lat="49.78508" lon="2.29075">
        <ele>119.1</ele>
        <time>2023-02-01T15:45:22Z</time>
      </trkpt>
      <trkpt lat="49.78508" lon="2.29075">
        <ele>119.1</ele>
        <time>2023-02-01T15:45:23Z</time>
      </trkpt>
      <trkpt lat="49.78508" lon="2.29075">
        <ele>119.1</ele>
        <time>2023-02-01T15:45:24Z</time>
      </trkpt>
      <trkpt lat="49.78508" lon="2.29075">
        <ele>119.1</ele>
        <time>2023-02-01T15:45:25Z</time>
      </trkpt>
      <trkpt lat="49.78508" lon="2.29075">
        <ele>119.1</ele>
        <time>2023-02-01T15:45:26Z</time>
      </trkpt>
      <trkpt lat="49.78508" lon="2.29075">
        <ele>119.1</ele>
        <time>2023-02-01T15:45:27Z</time>
      </trkpt>
      <trkpt lat="49.78508" lon="2.29075">
        <ele>119.1</ele>
        <time>2023-02-01T15:45:28Z</time>
      </trkpt>
      <trkpt lat="49.78508" lon="2.29075">
        <ele>119.1</ele>
        <time>2023-02-01T15:45:29Z</time>
      </trkpt>
      <trkpt lat="49.78508" lon="2.29075">
        <ele>119.1</ele>
        <time>2023-02-01T15:45:30Z</time>
      </trkpt>
      <trkpt lat="49.78508" lon="2.29075">
        <ele>119.1</ele>
        <time>2023-02-01T15:45:31Z</time>
      </trkpt>
      <trkpt lat="49.78508" lon="2.29075">
        <ele>119.1</ele>
        <time>2023-02-01T15:45:32Z</time>
      </trkpt>
      <trkpt lat="49.78508" lon="2.29075">
        <ele>119.1</ele>
        <time>2023-02-01T15:45:33Z</time>
      </trkpt>
      <trkpt lat="49.78508" lon="2.29075">
        <ele>119.1</ele>
        <time>2023-02-01T15:45:34Z</time>
      </trkpt>
      <trkpt lat="49.78508" lon="2.29075">
        <ele>119.1</ele>
        <time>2023-02-01T15:45:35Z</time>
      </trkpt>
      <trkpt lat="49.78508" lon="2.29075">
        <ele>119.1</ele>
        <time>2023-02-01T15:45:36Z</time>
      </trkpt>
      <trkpt lat="49.78508" lon="2.29075">
        <ele>119.1</ele>
        <time>2023-02-01T15:45:37Z</time>
      </trkpt>
      <trkpt lat="49.78508" lon="2.29075">
        <ele>119.1</ele>
        <time>2023-02-01T15:45:38Z</time>
      </trkpt>
      <trkpt lat="49.78508" lon="2.29075">
        <ele>119.1</ele>
        <time>2023-02-01T15:45:39Z</time>
      </trkpt>
      <trkpt lat="49.78508" lon="2.29075">
        <ele>119.1</ele>
        <time>2023-02-01T15:45:40Z</time>
      </trkpt>
      <trkpt lat="49.78508" lon="2.29075">
        <ele>119.1</ele>
        <time>2023-02-01T15:45:41Z</time>
      </trkpt>
      <trkpt lat="49.78508" lon="2.29075">
        <ele>119.1</ele>
        <time>2023-02-01T15:45:42Z</time>
      </trkpt>
      <trkpt lat="49.78508" lon="2.29075">
        <ele>119.1</ele>
        <time>2023-02-01T15:45:43Z</time>
      </trkpt>
      <trkpt lat="49.78508" lon="2.29075">
        <ele>119.1</ele>
        <time>2023-02-01T15:45:44Z</time>
      </trkpt>
      <trkpt lat="49.78508" lon="2.29075">
        <ele>119.1</ele>
        <time>2023-02-01T15:45:45Z</time>
      </trkpt>
      <trkpt lat="49.78508" lon="2.29075">
        <ele>119.1</ele>
        <time>2023-02-01T15:45:46Z</time>
      </trkpt>
      <trkpt lat="49.78508" lon="2.29075">
        <ele>119.1</ele>
        <time>2023-02-01T15:45:47Z</time>
      </trkpt>
      <trkpt lat="49.78509" lon="2.29074">
        <ele>119.1</ele>
        <time>2023-02-01T15:45:48Z</time>
      </trkpt>
      <trkpt lat="49.78509" lon="2.29073">
        <ele>119.1</ele>
        <time>2023-02-01T15:45:49Z</time>
      </trkpt>
      <trkpt lat="49.78509" lon="2.29073">
        <ele>119.1</ele>
        <time>2023-02-01T15:45:50Z</time>
      </trkpt>
      <trkpt lat="49.78509" lon="2.29073">
        <ele>119.1</ele>
        <time>2023-02-01T15:45:51Z</time>
      </trkpt>
      <trkpt lat="49.78509" lon="2.29073">
        <ele>119.1</ele>
        <time>2023-02-01T15:45:52Z</time>
      </trkpt>
      <trkpt lat="49.78509" lon="2.29073">
        <ele>119.1</ele>
        <time>2023-02-01T15:45:53Z</time>
      </trkpt>
      <trkpt lat="49.78509" lon="2.29073">
        <ele>119.1</ele>
        <time>2023-02-01T15:45:54Z</time>
      </trkpt>
      <trkpt lat="49.78509" lon="2.29072">
        <ele>119.1</ele>
        <time>2023-02-01T15:45:55Z</time>
      </trkpt>
      <trkpt lat="49.78509" lon="2.29072">
        <ele>119.1</ele>
        <time>2023-02-01T15:45:56Z</time>
      </trkpt>
      <trkpt lat="49.78509" lon="2.29072">
        <ele>119.1</ele>
        <time>2023-02-01T15:45:57Z</time>
      </trkpt>
      <trkpt lat="49.78509" lon="2.29072">
        <ele>119.1</ele>
        <time>2023-02-01T15:45:58Z</time>
      </trkpt>
      <trkpt lat="49.78509" lon="2.29072">
        <ele>119.1</ele>
        <time>2023-02-01T15:45:59Z</time>
      </trkpt>
      <trkpt lat="49.78509" lon="2.29072">
        <ele>119.1</ele>
        <time>2023-02-01T15:46:00Z</time>
      </trkpt>
      <trkpt lat="49.78509" lon="2.29072">
        <ele>119.1</ele>
        <time>2023-02-01T15:46:01Z</time>
      </trkpt>
      <trkpt lat="49.78509" lon="2.29072">
        <ele>119.1</ele>
        <time>2023-02-01T15:46:02Z</time>
      </trkpt>
      <trkpt lat="49.78509" lon="2.29072">
        <ele>119.1</ele>
        <time>2023-02-01T15:46:03Z</time>
      </trkpt>
      <trkpt lat="49.78509" lon="2.29072">
        <ele>119.1</ele>
        <time>2023-02-01T15:46:04Z</time>
      </trkpt>
      <trkpt lat="49.78509" lon="2.29072">
        <ele>119.1</ele>
        <time>2023-02-01T15:46:05Z</time>
      </trkpt>
      <trkpt lat="49.78509" lon="2.29072">
        <ele>119.1</ele>
        <time>2023-02-01T15:46:06Z</time>
      </trkpt>
      <trkpt lat="49.78509" lon="2.29072">
        <ele>119.1</ele>
        <time>2023-02-01T15:46:07Z</time>
      </trkpt>
      <trkpt lat="49.78509" lon="2.29072">
        <ele>119.1</ele>
        <time>2023-02-01T15:46:08Z</time>
      </trkpt>
      <trkpt lat="49.78509" lon="2.29072">
        <ele>119.1</ele>
        <time>2023-02-01T15:46:09Z</time>
      </trkpt>
      <trkpt lat="49.78509" lon="2.29072">
        <ele>119.1</ele>
        <time>2023-02-01T15:46:10Z</time>
      </trkpt>
      <trkpt lat="49.78509" lon="2.29072">
        <ele>119.1</ele>
        <time>2023-02-01T15:46:11Z</time>
      </trkpt>
      <trkpt lat="49.78509" lon="2.29072">
        <ele>119.1</ele>
        <time>2023-02-01T15:46:12Z</time>
      </trkpt>
      <trkpt lat="49.78509" lon="2.29072">
        <ele>119.1</ele>
        <time>2023-02-01T15:46:13Z</time>
      </trkpt>
      <trkpt lat="49.78509" lon="2.29072">
        <ele>119.1</ele>
        <time>2023-02-01T15:46:14Z</time>
      </trkpt>
      <trkpt lat="49.78509" lon="2.29072">
        <ele>119.1</ele>
        <time>2023-02-01T15:46:15Z</time>
      </trkpt>
      <trkpt lat="49.78509" lon="2.29072">
        <ele>119.1</ele>
        <time>2023-02-01T15:46:16Z</time>
      </trkpt>
      <trkpt lat="49.78509" lon="2.29072">
        <ele>119.1</ele>
        <time>2023-02-01T15:46:17Z</time>
      </trkpt>
      <trkpt lat="49.78509" lon="2.29072">
        <ele>119.1</ele>
        <time>2023-02-01T15:46:18Z</time>
      </trkpt>
      <trkpt lat="49.78509" lon="2.29072">
        <ele>119.1</ele>
        <time>2023-02-01T15:46:19Z</time>
      </trkpt>
      <trkpt lat="49.78509" lon="2.29072">
        <ele>119.1</ele>
        <time>2023-02-01T15:46:20Z</time>
      </trkpt>
      <trkpt lat="49.78509" lon="2.29072">
        <ele>119.1</ele>
        <time>2023-02-01T15:46:21Z</time>
      </trkpt>
      <trkpt lat="49.78509" lon="2.29072">
        <ele>119.1</ele>
        <time>2023-02-01T15:46:22Z</time>
      </trkpt>
      <trkpt lat="49.78509" lon="2.29072">
        <ele>119.1</ele>
        <time>2023-02-01T15:46:23Z</time>
      </trkpt>
      <trkpt lat="49.78509" lon="2.29072">
        <ele>119.1</ele>
        <time>2023-02-01T15:46:24Z</time>
      </trkpt>
      <trkpt lat="49.78509" lon="2.29072">
        <ele>119.1</ele>
        <time>2023-02-01T15:46:25Z</time>
      </trkpt>
      <trkpt lat="49.78509" lon="2.29072">
        <ele>119.1</ele>
        <time>2023-02-01T15:46:26Z</time>
      </trkpt>
      <trkpt lat="49.78509" lon="2.29072">
        <ele>119.1</ele>
        <time>2023-02-01T15:46:27Z</time>
      </trkpt>
      <trkpt lat="49.78509" lon="2.29072">
        <ele>119.1</ele>
        <time>2023-02-01T15:46:28Z</time>
      </trkpt>
      <trkpt lat="49.78509" lon="2.29072">
        <ele>119.1</ele>
        <time>2023-02-01T15:46:29Z</time>
      </trkpt>
      <trkpt lat="49.78509" lon="2.29072">
        <ele>119.1</ele>
        <time>2023-02-01T15:46:30Z</time>
      </trkpt>
      <trkpt lat="49.78509" lon="2.29072">
        <ele>119.1</ele>
        <time>2023-02-01T15:46:31Z</time>
      </trkpt>
      <trkpt lat="49.78509" lon="2.29072">
        <ele>119.1</ele>
        <time>2023-02-01T15:46:32Z</time>
      </trkpt>
      <trkpt lat="49.78509" lon="2.29072">
        <ele>119.1</ele>
        <time>2023-02-01T15:46:33Z</time>
      </trkpt>
      <trkpt lat="49.78509" lon="2.29072">
        <ele>119.1</ele>
        <time>2023-02-01T15:46:34Z</time>
      </trkpt>
      <trkpt lat="49.78509" lon="2.29072">
        <ele>119.1</ele>
        <time>2023-02-01T15:46:35Z</time>
      </trkpt>
      <trkpt lat="49.78509" lon="2.29072">
        <ele>119.1</ele>
        <time>2023-02-01T15:46:36Z</time>
      </trkpt>
      <trkpt lat="49.78509" lon="2.29072">
        <ele>119.1</ele>
        <time>2023-02-01T15:46:37Z</time>
      </trkpt>
      <trkpt lat="49.78509" lon="2.29072">
        <ele>119.1</ele>
        <time>2023-02-01T15:46:38Z</time>
      </trkpt>
      <trkpt lat="49.78509" lon="2.29072">
        <ele>119.1</ele>
        <time>2023-02-01T15:46:39Z</time>
      </trkpt>
      <trkpt lat="49.78509" lon="2.29072">
        <ele>119.1</ele>
        <time>2023-02-01T15:46:40Z</time>
      </trkpt>
      <trkpt lat="49.78509" lon="2.29072">
        <ele>119.1</ele>
        <time>2023-02-01T15:46:41Z</time>
      </trkpt>
      <trkpt lat="49.78509" lon="2.29072">
        <ele>119.1</ele>
        <time>2023-02-01T15:46:42Z</time>
      </trkpt>
      <trkpt lat="49.78509" lon="2.29072">
        <ele>119.1</ele>
        <time>2023-02-01T15:46:43Z</time>
      </trkpt>
      <trkpt lat="49.78509" lon="2.29072">
        <ele>119.1</ele>
        <time>2023-02-01T15:46:44Z</time>
      </trkpt>
      <trkpt lat="49.78509" lon="2.29072">
        <ele>119.1</ele>
        <time>2023-02-01T15:46:45Z</time>
      </trkpt>
      <trkpt lat="49.78509" lon="2.29072">
        <ele>119.1</ele>
        <time>2023-02-01T15:46:46Z</time>
      </trkpt>
      <trkpt lat="49.78509" lon="2.29072">
        <ele>119.1</ele>
        <time>2023-02-01T15:46:47Z</time>
      </trkpt>
      <trkpt lat="49.78509" lon="2.29072">
        <ele>119.1</ele>
        <time>2023-02-01T15:46:48Z</time>
      </trkpt>
      <trkpt lat="49.78509" lon="2.29072">
        <ele>119.1</ele>
        <time>2023-02-01T15:46:49Z</time>
      </trkpt>
      <trkpt lat="49.78509" lon="2.29072">
        <ele>119.1</ele>
        <time>2023-02-01T15:46:50Z</time>
      </trkpt>
      <trkpt lat="49.78509" lon="2.29072">
        <ele>119.1</ele>
        <time>2023-02-01T15:46:51Z</time>
      </trkpt>
      <trkpt lat="49.78509" lon="2.29072">
        <ele>119.1</ele>
        <time>2023-02-01T15:46:52Z</time>
      </trkpt>
      <trkpt lat="49.78509" lon="2.29072">
        <ele>119.1</ele>
        <time>2023-02-01T15:46:53Z</time>
      </trkpt>
      <trkpt lat="49.78509" lon="2.29072">
        <ele>119.1</ele>
        <time>2023-02-01T15:46:54Z</time>
      </trkpt>
      <trkpt lat="49.78509" lon="2.29072">
        <ele>119.1</ele>
        <time>2023-02-01T15:46:55Z</time>
      </trkpt>
      <trkpt lat="49.78509" lon="2.29072">
        <ele>119.1</ele>
        <time>2023-02-01T15:46:56Z</time>
      </trkpt>
      <trkpt lat="49.78509" lon="2.29072">
        <ele>119.1</ele>
        <time>2023-02-01T15:46:57Z</time>
      </trkpt>
      <trkpt lat="49.78509" lon="2.29072">
        <ele>119.1</ele>
        <time>2023-02-01T15:46:58Z</time>
      </trkpt>
      <trkpt lat="49.78509" lon="2.29072">
        <ele>119.1</ele>
        <time>2023-02-01T15:46:59Z</time>
      </trkpt>
      <trkpt lat="49.78509" lon="2.29072">
        <ele>119.1</ele>
        <time>2023-02-01T15:47:00Z</time>
      </trkpt>
      <trkpt lat="49.78509" lon="2.29072">
        <ele>119.1</ele>
        <time>2023-02-01T15:47:01Z</time>
      </trkpt>
      <trkpt lat="49.78509" lon="2.29072">
        <ele>119.1</ele>
        <time>2023-02-01T15:47:02Z</time>
      </trkpt>
      <trkpt lat="49.78509" lon="2.29072">
        <ele>119.1</ele>
        <time>2023-02-01T15:47:03Z</time>
      </trkpt>
      <trkpt lat="49.78509" lon="2.29072">
        <ele>119.1</ele>
        <time>2023-02-01T15:47:04Z</time>
      </trkpt>
      <trkpt lat="49.78509" lon="2.29072">
        <ele>119.1</ele>
        <time>2023-02-01T15:47:05Z</time>
      </trkpt>
      <trkpt lat="49.78509" lon="2.29072">
        <ele>119.1</ele>
        <time>2023-02-01T15:47:06Z</time>
      </trkpt>
      <trkpt lat="49.78509" lon="2.29072">
        <ele>119.1</ele>
        <time>2023-02-01T15:47:07Z</time>
      </trkpt>
      <trkpt lat="49.78509" lon="2.29072">
        <ele>119.1</ele>
        <time>2023-02-01T15:47:08Z</time>
      </trkpt>
      <trkpt lat="49.78509" lon="2.29072">
        <ele>119.1</ele>
        <time>2023-02-01T15:47:09Z</time>
      </trkpt>
      <trkpt lat="49.78509" lon="2.29072">
        <ele>119.1</ele>
        <time>2023-02-01T15:47:10Z</time>
      </trkpt>
      <trkpt lat="49.78509" lon="2.29072">
        <ele>119.1</ele>
        <time>2023-02-01T15:47:11Z</time>
      </trkpt>
      <trkpt lat="49.78509" lon="2.29072">
        <ele>119.1</ele>
        <time>2023-02-01T15:47:12Z</time>
      </trkpt>
      <trkpt lat="49.78509" lon="2.29072">
        <ele>119.1</ele>
        <time>2023-02-01T15:47:13Z</time>
      </trkpt>
      <trkpt lat="49.78509" lon="2.29072">
        <ele>119.1</ele>
        <time>2023-02-01T15:47:14Z</time>
      </trkpt>
      <trkpt lat="49.78509" lon="2.29072">
        <ele>119.1</ele>
        <time>2023-02-01T15:47:15Z</time>
      </trkpt>
      <trkpt lat="49.78509" lon="2.29072">
        <ele>119.1</ele>
        <time>2023-02-01T15:47:16Z</time>
      </trkpt>
      <trkpt lat="49.78509" lon="2.29072">
        <ele>119.1</ele>
        <time>2023-02-01T15:47:17Z</time>
      </trkpt>
      <trkpt lat="49.78509" lon="2.29072">
        <ele>119.1</ele>
        <time>2023-02-01T15:47:18Z</time>
      </trkpt>
      <trkpt lat="49.78509" lon="2.29072">
        <ele>119.1</ele>
        <time>2023-02-01T15:47:19Z</time>
      </trkpt>
      <trkpt lat="49.78509" lon="2.29072">
        <ele>119.1</ele>
        <time>2023-02-01T15:47:20Z</time>
      </trkpt>
      <trkpt lat="49.78509" lon="2.29072">
        <ele>119.1</ele>
        <time>2023-02-01T15:47:21Z</time>
      </trkpt>
      <trkpt lat="49.78509" lon="2.29072">
        <ele>119.1</ele>
        <time>2023-02-01T15:47:22Z</time>
      </trkpt>
      <trkpt lat="49.78509" lon="2.29072">
        <ele>119.1</ele>
        <time>2023-02-01T15:47:23Z</time>
      </trkpt>
      <trkpt lat="49.78509" lon="2.29072">
        <ele>119.1</ele>
        <time>2023-02-01T15:47:24Z</time>
      </trkpt>
      <trkpt lat="49.78509" lon="2.29072">
        <ele>119.1</ele>
        <time>2023-02-01T15:47:25Z</time>
      </trkpt>
      <trkpt lat="49.78509" lon="2.29072">
        <ele>119.1</ele>
        <time>2023-02-01T15:47:26Z</time>
      </trkpt>
      <trkpt lat="49.78509" lon="2.29072">
        <ele>119.1</ele>
        <time>2023-02-01T15:47:27Z</time>
      </trkpt>
      <trkpt lat="49.78509" lon="2.29072">
        <ele>119.1</ele>
        <time>2023-02-01T15:47:28Z</time>
      </trkpt>
      <trkpt lat="49.78509" lon="2.29072">
        <ele>119.1</ele>
        <time>2023-02-01T15:47:29Z</time>
      </trkpt>
      <trkpt lat="49.78509" lon="2.29072">
        <ele>119.1</ele>
        <time>2023-02-01T15:47:30Z</time>
      </trkpt>
      <trkpt lat="49.78509" lon="2.29072">
        <ele>119.1</ele>
        <time>2023-02-01T15:47:31Z</time>
      </trkpt>
      <trkpt lat="49.78509" lon="2.29072">
        <ele>119.1</ele>
        <time>2023-02-01T15:47:32Z</time>
      </trkpt>
      <trkpt lat="49.78509" lon="2.29072">
        <ele>119.1</ele>
        <time>2023-02-01T15:47:33Z</time>
      </trkpt>
      <trkpt lat="49.78509" lon="2.29072">
        <ele>119.1</ele>
        <time>2023-02-01T15:47:34Z</time>
      </trkpt>
      <trkpt lat="49.78509" lon="2.29072">
        <ele>119.1</ele>
        <time>2023-02-01T15:47:35Z</time>
      </trkpt>
      <trkpt lat="49.78509" lon="2.29072">
        <ele>119.1</ele>
        <time>2023-02-01T15:47:36Z</time>
      </trkpt>
      <trkpt lat="49.78509" lon="2.29072">
        <ele>119.1</ele>
        <time>2023-02-01T15:47:37Z</time>
      </trkpt>
      <trkpt lat="49.78509" lon="2.29072">
        <ele>119.1</ele>
        <time>2023-02-01T15:47:38Z</time>
      </trkpt>
      <trkpt lat="49.78509" lon="2.29072">
        <ele>119.1</ele>
        <time>2023-02-01T15:47:39Z</time>
      </trkpt>
      <trkpt lat="49.78509" lon="2.29072">
        <ele>119.1</ele>
        <time>2023-02-01T15:47:40Z</time>
      </trkpt>
      <trkpt lat="49.78509" lon="2.29072">
        <ele>119.1</ele>
        <time>2023-02-01T15:47:41Z</time>
      </trkpt>
      <trkpt lat="49.78509" lon="2.29072">
        <ele>119.1</ele>
        <time>2023-02-01T15:47:42Z</time>
      </trkpt>
      <trkpt lat="49.78509" lon="2.29072">
        <ele>119.1</ele>
        <time>2023-02-01T15:47:43Z</time>
      </trkpt>
      <trkpt lat="49.78509" lon="2.29072">
        <ele>119.1</ele>
        <time>2023-02-01T15:47:44Z</time>
      </trkpt>
      <trkpt lat="49.78509" lon="2.29072">
        <ele>119.1</ele>
        <time>2023-02-01T15:47:45Z</time>
      </trkpt>
      <trkpt lat="49.78509" lon="2.29072">
        <ele>119.1</ele>
        <time>2023-02-01T15:47:46Z</time>
      </trkpt>
      <trkpt lat="49.78509" lon="2.29072">
        <ele>119.1</ele>
        <time>2023-02-01T15:47:47Z</time>
      </trkpt>
      <trkpt lat="49.78509" lon="2.29072">
        <ele>119.1</ele>
        <time>2023-02-01T15:47:48Z</time>
      </trkpt>
      <trkpt lat="49.78509" lon="2.29072">
        <ele>119.1</ele>
        <time>2023-02-01T15:47:49Z</time>
      </trkpt>
      <trkpt lat="49.78509" lon="2.29072">
        <ele>119.1</ele>
        <time>2023-02-01T15:47:50Z</time>
      </trkpt>
      <trkpt lat="49.78509" lon="2.29072">
        <ele>119.1</ele>
        <time>2023-02-01T15:47:51Z</time>
      </trkpt>
      <trkpt lat="49.78509" lon="2.29072">
        <ele>119.1</ele>
        <time>2023-02-01T15:47:52Z</time>
      </trkpt>
      <trkpt lat="49.78509" lon="2.29072">
        <ele>119.1</ele>
        <time>2023-02-01T15:47:53Z</time>
      </trkpt>
      <trkpt lat="49.78509" lon="2.29072">
        <ele>119.1</ele>
        <time>2023-02-01T15:47:54Z</time>
      </trkpt>
      <trkpt lat="49.78509" lon="2.29072">
        <ele>119.1</ele>
        <time>2023-02-01T15:47:55Z</time>
      </trkpt>
      <trkpt lat="49.78509" lon="2.29072">
        <ele>119.1</ele>
        <time>2023-02-01T15:47:56Z</time>
      </trkpt>
      <trkpt lat="49.78509" lon="2.29072">
        <ele>119.1</ele>
        <time>2023-02-01T15:47:57Z</time>
      </trkpt>
      <trkpt lat="49.78509" lon="2.29072">
        <ele>119.1</ele>
        <time>2023-02-01T15:47:58Z</time>
      </trkpt>
      <trkpt lat="49.78509" lon="2.29072">
        <ele>119.1</ele>
        <time>2023-02-01T15:47:59Z</time>
      </trkpt>
      <trkpt lat="49.78509" lon="2.29072">
        <ele>119.1</ele>
        <time>2023-02-01T15:48:00Z</time>
      </trkpt>
      <trkpt lat="49.78509" lon="2.29072">
        <ele>119.1</ele>
        <time>2023-02-01T15:48:01Z</time>
      </trkpt>
      <trkpt lat="49.78509" lon="2.29072">
        <ele>119.1</ele>
        <time>2023-02-01T15:48:02Z</time>
      </trkpt>
      <trkpt lat="49.78509" lon="2.29072">
        <ele>119.1</ele>
        <time>2023-02-01T15:48:03Z</time>
      </trkpt>
      <trkpt lat="49.78509" lon="2.29072">
        <ele>119.1</ele>
        <time>2023-02-01T15:48:04Z</time>
      </trkpt>
      <trkpt lat="49.78509" lon="2.29072">
        <ele>119.1</ele>
        <time>2023-02-01T15:48:05Z</time>
      </trkpt>
      <trkpt lat="49.78509" lon="2.29072">
        <ele>119.1</ele>
        <time>2023-02-01T15:48:06Z</time>
      </trkpt>
      <trkpt lat="49.78509" lon="2.29072">
        <ele>119.1</ele>
        <time>2023-02-01T15:48:07Z</time>
      </trkpt>
      <trkpt lat="49.78509" lon="2.29072">
        <ele>119.1</ele>
        <time>2023-02-01T15:48:08Z</time>
      </trkpt>
      <trkpt lat="49.78509" lon="2.29072">
        <ele>119.1</ele>
        <time>2023-02-01T15:48:09Z</time>
      </trkpt>
      <trkpt lat="49.78509" lon="2.29072">
        <ele>119.1</ele>
        <time>2023-02-01T15:48:10Z</time>
      </trkpt>
      <trkpt lat="49.78509" lon="2.29072">
        <ele>119.1</ele>
        <time>2023-02-01T15:48:11Z</time>
      </trkpt>
      <trkpt lat="49.78509" lon="2.29072">
        <ele>119.1</ele>
        <time>2023-02-01T15:48:12Z</time>
      </trkpt>
      <trkpt lat="49.78509" lon="2.29072">
        <ele>119.1</ele>
        <time>2023-02-01T15:48:13Z</time>
      </trkpt>
      <trkpt lat="49.78509" lon="2.29072">
        <ele>119.1</ele>
        <time>2023-02-01T15:48:14Z</time>
      </trkpt>
      <trkpt lat="49.78509" lon="2.29072">
        <ele>119.1</ele>
        <time>2023-02-01T15:48:15Z</time>
      </trkpt>
      <trkpt lat="49.78509" lon="2.29072">
        <ele>119.1</ele>
        <time>2023-02-01T15:48:16Z</time>
      </trkpt>
      <trkpt lat="49.78509" lon="2.29072">
        <ele>119.1</ele>
        <time>2023-02-01T15:48:17Z</time>
      </trkpt>
      <trkpt lat="49.78509" lon="2.29072">
        <ele>119.1</ele>
        <time>2023-02-01T15:48:18Z</time>
      </trkpt>
      <trkpt lat="49.78509" lon="2.29072">
        <ele>119.1</ele>
        <time>2023-02-01T15:48:19Z</time>
      </trkpt>
      <trkpt lat="49.78509" lon="2.29072">
        <ele>119.1</ele>
        <time>2023-02-01T15:48:20Z</time>
      </trkpt>
      <trkpt lat="49.78509" lon="2.29072">
        <ele>119.1</ele>
        <time>2023-02-01T15:48:21Z</time>
      </trkpt>
      <trkpt lat="49.78509" lon="2.29072">
        <ele>119.1</ele>
        <time>2023-02-01T15:48:22Z</time>
      </trkpt>
      <trkpt lat="49.78509" lon="2.29072">
        <ele>119.1</ele>
        <time>2023-02-01T15:48:23Z</time>
      </trkpt>
      <trkpt lat="49.78509" lon="2.29072">
        <ele>119.1</ele>
        <time>2023-02-01T15:48:24Z</time>
      </trkpt>
      <trkpt lat="49.78509" lon="2.29072">
        <ele>119.1</ele>
        <time>2023-02-01T15:48:25Z</time>
      </trkpt>
      <trkpt lat="49.78509" lon="2.29072">
        <ele>119.1</ele>
        <time>2023-02-01T15:48:26Z</time>
      </trkpt>
      <trkpt lat="49.78509" lon="2.29072">
        <ele>119.1</ele>
        <time>2023-02-01T15:48:27Z</time>
      </trkpt>
      <trkpt lat="49.78509" lon="2.29072">
        <ele>119.1</ele>
        <time>2023-02-01T15:48:28Z</time>
      </trkpt>
      <trkpt lat="49.78509" lon="2.29072">
        <ele>119.1</ele>
        <time>2023-02-01T15:48:29Z</time>
      </trkpt>
      <trkpt lat="49.78509" lon="2.29072">
        <ele>119.1</ele>
        <time>2023-02-01T15:48:30Z</time>
      </trkpt>
      <trkpt lat="49.78509" lon="2.29072">
        <ele>119.1</ele>
        <time>2023-02-01T15:48:31Z</time>
      </trkpt>
      <trkpt lat="49.78509" lon="2.29072">
        <ele>119.1</ele>
        <time>2023-02-01T15:48:32Z</time>
      </trkpt>
      <trkpt lat="49.78509" lon="2.29072">
        <ele>119.1</ele>
        <time>2023-02-01T15:48:33Z</time>
      </trkpt>
      <trkpt lat="49.78509" lon="2.29072">
        <ele>119.1</ele>
        <time>2023-02-01T15:48:34Z</time>
      </trkpt>
      <trkpt lat="49.78509" lon="2.29072">
        <ele>119.1</ele>
        <time>2023-02-01T15:48:35Z</time>
      </trkpt>
      <trkpt lat="49.78509" lon="2.29072">
        <ele>119.1</ele>
        <time>2023-02-01T15:48:36Z</time>
      </trkpt>
      <trkpt lat="49.78509" lon="2.29072">
        <ele>119.1</ele>
        <time>2023-02-01T15:48:37Z</time>
      </trkpt>
      <trkpt lat="49.78509" lon="2.29072">
        <ele>119.1</ele>
        <time>2023-02-01T15:48:38Z</time>
      </trkpt>
      <trkpt lat="49.78509" lon="2.29072">
        <ele>119.1</ele>
        <time>2023-02-01T15:48:39Z</time>
      </trkpt>
      <trkpt lat="49.78509" lon="2.29072">
        <ele>119.1</ele>
        <time>2023-02-01T15:48:40Z</time>
      </trkpt>
      <trkpt lat="49.78509" lon="2.29072">
        <ele>119.1</ele>
        <time>2023-02-01T15:48:41Z</time>
      </trkpt>
      <trkpt lat="49.78509" lon="2.29072">
        <ele>119.1</ele>
        <time>2023-02-01T15:48:42Z</time>
      </trkpt>
      <trkpt lat="49.78509" lon="2.29072">
        <ele>119.1</ele>
        <time>2023-02-01T15:48:43Z</time>
      </trkpt>
      <trkpt lat="49.78509" lon="2.29072">
        <ele>119.1</ele>
        <time>2023-02-01T15:48:44Z</time>
      </trkpt>
      <trkpt lat="49.78509" lon="2.29071">
        <ele>119.1</ele>
        <time>2023-02-01T15:48:45Z</time>
      </trkpt>
      <trkpt lat="49.78509" lon="2.29071">
        <ele>119.1</ele>
        <time>2023-02-01T15:48:46Z</time>
      </trkpt>
      <trkpt lat="49.78509" lon="2.29071">
        <ele>119.1</ele>
        <time>2023-02-01T15:48:47Z</time>
      </trkpt>
      <trkpt lat="49.78509" lon="2.29071">
        <ele>119.1</ele>
        <time>2023-02-01T15:48:48Z</time>
      </trkpt>
      <trkpt lat="49.78509" lon="2.29071">
        <ele>119.1</ele>
        <time>2023-02-01T15:48:49Z</time>
      </trkpt>
      <trkpt lat="49.78509" lon="2.29071">
        <ele>119.1</ele>
        <time>2023-02-01T15:48:50Z</time>
      </trkpt>
      <trkpt lat="49.78509" lon="2.29071">
        <ele>119.1</ele>
        <time>2023-02-01T15:48:51Z</time>
      </trkpt>
      <trkpt lat="49.78509" lon="2.29071">
        <ele>119.1</ele>
        <time>2023-02-01T15:48:52Z</time>
      </trkpt>
      <trkpt lat="49.78509" lon="2.29071">
        <ele>119.1</ele>
        <time>2023-02-01T15:48:53Z</time>
      </trkpt>
      <trkpt lat="49.78509" lon="2.29071">
        <ele>119.1</ele>
        <time>2023-02-01T15:48:54Z</time>
      </trkpt>
      <trkpt lat="49.78509" lon="2.29071">
        <ele>119.1</ele>
        <time>2023-02-01T15:48:55Z</time>
      </trkpt>
      <trkpt lat="49.78509" lon="2.29071">
        <ele>119.1</ele>
        <time>2023-02-01T15:48:56Z</time>
      </trkpt>
      <trkpt lat="49.78509" lon="2.29071">
        <ele>119.1</ele>
        <time>2023-02-01T15:48:57Z</time>
      </trkpt>
      <trkpt lat="49.78509" lon="2.29071">
        <ele>119.1</ele>
        <time>2023-02-01T15:48:58Z</time>
      </trkpt>
      <trkpt lat="49.78509" lon="2.29071">
        <ele>119.1</ele>
        <time>2023-02-01T15:48:59Z</time>
      </trkpt>
      <trkpt lat="49.78509" lon="2.29071">
        <ele>119.1</ele>
        <time>2023-02-01T15:49:00Z</time>
      </trkpt>
      <trkpt lat="49.78509" lon="2.29071">
        <ele>119.1</ele>
        <time>2023-02-01T15:49:01Z</time>
      </trkpt>
      <trkpt lat="49.78509" lon="2.29071">
        <ele>119.1</ele>
        <time>2023-02-01T15:49:02Z</time>
      </trkpt>
      <trkpt lat="49.78509" lon="2.29071">
        <ele>119.1</ele>
        <time>2023-02-01T15:49:03Z</time>
      </trkpt>
      <trkpt lat="49.78509" lon="2.29071">
        <ele>119.1</ele>
        <time>2023-02-01T15:49:04Z</time>
      </trkpt>
      <trkpt lat="49.78509" lon="2.29071">
        <ele>119.1</ele>
        <time>2023-02-01T15:49:05Z</time>
      </trkpt>
      <trkpt lat="49.78509" lon="2.29071">
        <ele>119.1</ele>
        <time>2023-02-01T15:49:06Z</time>
      </trkpt>
      <trkpt lat="49.78509" lon="2.29071">
        <ele>119.1</ele>
        <time>2023-02-01T15:49:07Z</time>
      </trkpt>
      <trkpt lat="49.78509" lon="2.29071">
        <ele>119.1</ele>
        <time>2023-02-01T15:49:08Z</time>
      </trkpt>
      <trkpt lat="49.78509" lon="2.29071">
        <ele>119.1</ele>
        <time>2023-02-01T15:49:09Z</time>
      </trkpt>
      <trkpt lat="49.78509" lon="2.29071">
        <ele>119.1</ele>
        <time>2023-02-01T15:49:10Z</time>
      </trkpt>
      <trkpt lat="49.78509" lon="2.29071">
        <ele>119.1</ele>
        <time>2023-02-01T15:49:11Z</time>
      </trkpt>
      <trkpt lat="49.78509" lon="2.29071">
        <ele>119.1</ele>
        <time>2023-02-01T15:49:12Z</time>
      </trkpt>
      <trkpt lat="49.78509" lon="2.29071">
        <ele>119.1</ele>
        <time>2023-02-01T15:49:13Z</time>
      </trkpt>
      <trkpt lat="49.78509" lon="2.29071">
        <ele>119.1</ele>
        <time>2023-02-01T15:49:14Z</time>
      </trkpt>
      <trkpt lat="49.78509" lon="2.29071">
        <ele>119.1</ele>
        <time>2023-02-01T15:49:15Z</time>
      </trkpt>
      <trkpt lat="49.78509" lon="2.29071">
        <ele>119.1</ele>
        <time>2023-02-01T15:49:16Z</time>
      </trkpt>
      <trkpt lat="49.78509" lon="2.29071">
        <ele>119.1</ele>
        <time>2023-02-01T15:49:17Z</time>
      </trkpt>
      <trkpt lat="49.78509" lon="2.29071">
        <ele>119.1</ele>
        <time>2023-02-01T15:49:18Z</time>
      </trkpt>
      <trkpt lat="49.78509" lon="2.29071">
        <ele>119.1</ele>
        <time>2023-02-01T15:49:19Z</time>
      </trkpt>
      <trkpt lat="49.78509" lon="2.29071">
        <ele>119.1</ele>
        <time>2023-02-01T15:49:20Z</time>
      </trkpt>
      <trkpt lat="49.78509" lon="2.29071">
        <ele>119.1</ele>
        <time>2023-02-01T15:49:21Z</time>
      </trkpt>
      <trkpt lat="49.78509" lon="2.29071">
        <ele>119.1</ele>
        <time>2023-02-01T15:49:22Z</time>
      </trkpt>
      <trkpt lat="49.78509" lon="2.29071">
        <ele>119.1</ele>
        <time>2023-02-01T15:49:23Z</time>
      </trkpt>
      <trkpt lat="49.78509" lon="2.29071">
        <ele>119.1</ele>
        <time>2023-02-01T15:49:24Z</time>
      </trkpt>
      <trkpt lat="49.78509" lon="2.29071">
        <ele>119.1</ele>
        <time>2023-02-01T15:49:25Z</time>
      </trkpt>
      <trkpt lat="49.78509" lon="2.29071">
        <ele>119.1</ele>
        <time>2023-02-01T15:49:26Z</time>
      </trkpt>
      <trkpt lat="49.78509" lon="2.29071">
        <ele>119.1</ele>
        <time>2023-02-01T15:49:27Z</time>
      </trkpt>
      <trkpt lat="49.78509" lon="2.29071">
        <ele>119.1</ele>
        <time>2023-02-01T15:49:28Z</time>
      </trkpt>
      <trkpt lat="49.78509" lon="2.29071">
        <ele>119.1</ele>
        <time>2023-02-01T15:49:29Z</time>
      </trkpt>
      <trkpt lat="49.78509" lon="2.29071">
        <ele>119.1</ele>
        <time>2023-02-01T15:49:30Z</time>
      </trkpt>
      <trkpt lat="49.78509" lon="2.29071">
        <ele>119.1</ele>
        <time>2023-02-01T15:49:31Z</time>
      </trkpt>
      <trkpt lat="49.78509" lon="2.29071">
        <ele>119.1</ele>
        <time>2023-02-01T15:49:32Z</time>
      </trkpt>
      <trkpt lat="49.78509" lon="2.29071">
        <ele>119.1</ele>
        <time>2023-02-01T15:49:33Z</time>
      </trkpt>
      <trkpt lat="49.78509" lon="2.29071">
        <ele>119.1</ele>
        <time>2023-02-01T15:49:34Z</time>
      </trkpt>
      <trkpt lat="49.78509" lon="2.29071">
        <ele>119.1</ele>
        <time>2023-02-01T15:49:35Z</time>
      </trkpt>
      <trkpt lat="49.78509" lon="2.29071">
        <ele>119.1</ele>
        <time>2023-02-01T15:49:36Z</time>
      </trkpt>
      <trkpt lat="49.78509" lon="2.29071">
        <ele>119.1</ele>
        <time>2023-02-01T15:49:37Z</time>
      </trkpt>
      <trkpt lat="49.78509" lon="2.29071">
        <ele>119.1</ele>
        <time>2023-02-01T15:49:38Z</time>
      </trkpt>
      <trkpt lat="49.78509" lon="2.29071">
        <ele>119.1</ele>
        <time>2023-02-01T15:49:39Z</time>
      </trkpt>
      <trkpt lat="49.78509" lon="2.29071">
        <ele>119.1</ele>
        <time>2023-02-01T15:49:40Z</time>
      </trkpt>
      <trkpt lat="49.78509" lon="2.29071">
        <ele>119.1</ele>
        <time>2023-02-01T15:49:41Z</time>
      </trkpt>
      <trkpt lat="49.78509" lon="2.29071">
        <ele>119.1</ele>
        <time>2023-02-01T15:49:42Z</time>
      </trkpt>
      <trkpt lat="49.78509" lon="2.29071">
        <ele>119.1</ele>
        <time>2023-02-01T15:49:43Z</time>
      </trkpt>
      <trkpt lat="49.78509" lon="2.29071">
        <ele>119.1</ele>
        <time>2023-02-01T15:49:44Z</time>
      </trkpt>
      <trkpt lat="49.78509" lon="2.29071">
        <ele>119.1</ele>
        <time>2023-02-01T15:49:45Z</time>
      </trkpt>
      <trkpt lat="49.78509" lon="2.29071">
        <ele>119.1</ele>
        <time>2023-02-01T15:49:46Z</time>
      </trkpt>
      <trkpt lat="49.78509" lon="2.29071">
        <ele>119.1</ele>
        <time>2023-02-01T15:49:47Z</time>
      </trkpt>
      <trkpt lat="49.78509" lon="2.29071">
        <ele>119.1</ele>
        <time>2023-02-01T15:49:48Z</time>
      </trkpt>
      <trkpt lat="49.78509" lon="2.29071">
        <ele>119.1</ele>
        <time>2023-02-01T15:49:49Z</time>
      </trkpt>
      <trkpt lat="49.78509" lon="2.29071">
        <ele>119.1</ele>
        <time>2023-02-01T15:49:50Z</time>
      </trkpt>
      <trkpt lat="49.78509" lon="2.29071">
        <ele>119.1</ele>
        <time>2023-02-01T15:49:51Z</time>
      </trkpt>
      <trkpt lat="49.78509" lon="2.29071">
        <ele>119.1</ele>
        <time>2023-02-01T15:49:52Z</time>
      </trkpt>
      <trkpt lat="49.78509" lon="2.29071">
        <ele>119.1</ele>
        <time>2023-02-01T15:49:53Z</time>
      </trkpt>
      <trkpt lat="49.78509" lon="2.29071">
        <ele>119.1</ele>
        <time>2023-02-01T15:49:54Z</time>
      </trkpt>
      <trkpt lat="49.78509" lon="2.29071">
        <ele>119.1</ele>
        <time>2023-02-01T15:49:55Z</time>
      </trkpt>
      <trkpt lat="49.78509" lon="2.29071">
        <ele>119.1</ele>
        <time>2023-02-01T15:49:56Z</time>
      </trkpt>
      <trkpt lat="49.78509" lon="2.29071">
        <ele>119.1</ele>
        <time>2023-02-01T15:49:57Z</time>
      </trkpt>
      <trkpt lat="49.78509" lon="2.29071">
        <ele>119.1</ele>
        <time>2023-02-01T15:49:58Z</time>
      </trkpt>
      <trkpt lat="49.78509" lon="2.29071">
        <ele>119.1</ele>
        <time>2023-02-01T15:49:59Z</time>
      </trkpt>
      <trkpt lat="49.78509" lon="2.29071">
        <ele>119.1</ele>
        <time>2023-02-01T15:50:00Z</time>
      </trkpt>
      <trkpt lat="49.78509" lon="2.29071">
        <ele>119.1</ele>
        <time>2023-02-01T15:50:01Z</time>
      </trkpt>
      <trkpt lat="49.78509" lon="2.29071">
        <ele>119.1</ele>
        <time>2023-02-01T15:50:02Z</time>
      </trkpt>
      <trkpt lat="49.78509" lon="2.29071">
        <ele>119.1</ele>
        <time>2023-02-01T15:50:03Z</time>
      </trkpt>
      <trkpt lat="49.78509" lon="2.29071">
        <ele>119.1</ele>
        <time>2023-02-01T15:50:04Z</time>
      </trkpt>
      <trkpt lat="49.78509" lon="2.29071">
        <ele>119.1</ele>
        <time>2023-02-01T15:50:05Z</time>
      </trkpt>
      <trkpt lat="49.78509" lon="2.29071">
        <ele>119.1</ele>
        <time>2023-02-01T15:50:06Z</time>
      </trkpt>
      <trkpt lat="49.78509" lon="2.29071">
        <ele>119.1</ele>
        <time>2023-02-01T15:50:07Z</time>
      </trkpt>
      <trkpt lat="49.78509" lon="2.29071">
        <ele>119.1</ele>
        <time>2023-02-01T15:50:08Z</time>
      </trkpt>
      <trkpt lat="49.78509" lon="2.29071">
        <ele>119.1</ele>
        <time>2023-02-01T15:50:09Z</time>
      </trkpt>
      <trkpt lat="49.78509" lon="2.29071">
        <ele>119.1</ele>
        <time>2023-02-01T15:50:10Z</time>
      </trkpt>
      <trkpt lat="49.78509" lon="2.29071">
        <ele>119.1</ele>
        <time>2023-02-01T15:50:11Z</time>
      </trkpt>
      <trkpt lat="49.78509" lon="2.29071">
        <ele>119.1</ele>
        <time>2023-02-01T15:50:12Z</time>
      </trkpt>
      <trkpt lat="49.78509" lon="2.29071">
        <ele>119.1</ele>
        <time>2023-02-01T15:50:13Z</time>
      </trkpt>
      <trkpt lat="49.78509" lon="2.29071">
        <ele>119.1</ele>
        <time>2023-02-01T15:50:14Z</time>
      </trkpt>
      <trkpt lat="49.78509" lon="2.29071">
        <ele>119.1</ele>
        <time>2023-02-01T15:50:15Z</time>
      </trkpt>
      <trkpt lat="49.78509" lon="2.29071">
        <ele>119.1</ele>
        <time>2023-02-01T15:50:16Z</time>
      </trkpt>
      <trkpt lat="49.78509" lon="2.29071">
        <ele>119.1</ele>
        <time>2023-02-01T15:50:17Z</time>
      </trkpt>
      <trkpt lat="49.78509" lon="2.29071">
        <ele>119.1</ele>
        <time>2023-02-01T15:50:18Z</time>
      </trkpt>
      <trkpt lat="49.78509" lon="2.29071">
        <ele>119.1</ele>
        <time>2023-02-01T15:50:19Z</time>
      </trkpt>
      <trkpt lat="49.78509" lon="2.29071">
        <ele>119.1</ele>
        <time>2023-02-01T15:50:20Z</time>
      </trkpt>
      <trkpt lat="49.78509" lon="2.29071">
        <ele>119.1</ele>
        <time>2023-02-01T15:50:21Z</time>
      </trkpt>
      <trkpt lat="49.78509" lon="2.29071">
        <ele>119.1</ele>
        <time>2023-02-01T15:50:22Z</time>
      </trkpt>
      <trkpt lat="49.78509" lon="2.29071">
        <ele>119.1</ele>
        <time>2023-02-01T15:50:23Z</time>
      </trkpt>
      <trkpt lat="49.78509" lon="2.29071">
        <ele>119.1</ele>
        <time>2023-02-01T15:50:24Z</time>
      </trkpt>
      <trkpt lat="49.78509" lon="2.29071">
        <ele>119.1</ele>
        <time>2023-02-01T15:50:25Z</time>
      </trkpt>
      <trkpt lat="49.78509" lon="2.29071">
        <ele>119.1</ele>
        <time>2023-02-01T15:50:26Z</time>
      </trkpt>
      <trkpt lat="49.78509" lon="2.29071">
        <ele>119.1</ele>
        <time>2023-02-01T15:50:27Z</time>
      </trkpt>
      <trkpt lat="49.78509" lon="2.29071">
        <ele>119.1</ele>
        <time>2023-02-01T15:50:28Z</time>
      </trkpt>
      <trkpt lat="49.78509" lon="2.29071">
        <ele>119.1</ele>
        <time>2023-02-01T15:50:29Z</time>
      </trkpt>
      <trkpt lat="49.78509" lon="2.29071">
        <ele>119.1</ele>
        <time>2023-02-01T15:50:30Z</time>
      </trkpt>
      <trkpt lat="49.78509" lon="2.29071">
        <ele>119.1</ele>
        <time>2023-02-01T15:50:31Z</time>
      </trkpt>
      <trkpt lat="49.78509" lon="2.29071">
        <ele>119.1</ele>
        <time>2023-02-01T15:50:32Z</time>
      </trkpt>
      <trkpt lat="49.78509" lon="2.29071">
        <ele>119.1</ele>
        <time>2023-02-01T15:50:33Z</time>
      </trkpt>
      <trkpt lat="49.78509" lon="2.29071">
        <ele>119.1</ele>
        <time>2023-02-01T15:50:34Z</time>
      </trkpt>
      <trkpt lat="49.78509" lon="2.29071">
        <ele>119.1</ele>
        <time>2023-02-01T15:50:35Z</time>
      </trkpt>
      <trkpt lat="49.78509" lon="2.29071">
        <ele>119.1</ele>
        <time>2023-02-01T15:50:36Z</time>
      </trkpt>
      <trkpt lat="49.78509" lon="2.29071">
        <ele>119.1</ele>
        <time>2023-02-01T15:50:37Z</time>
      </trkpt>
      <trkpt lat="49.78509" lon="2.29071">
        <ele>119.1</ele>
        <time>2023-02-01T15:50:38Z</time>
      </trkpt>
      <trkpt lat="49.78509" lon="2.29071">
        <ele>119.1</ele>
        <time>2023-02-01T15:50:39Z</time>
      </trkpt>
      <trkpt lat="49.78509" lon="2.29071">
        <ele>119.1</ele>
        <time>2023-02-01T15:50:40Z</time>
      </trkpt>
      <trkpt lat="49.78509" lon="2.29071">
        <ele>119.1</ele>
        <time>2023-02-01T15:50:41Z</time>
      </trkpt>
      <trkpt lat="49.78509" lon="2.29071">
        <ele>119.1</ele>
        <time>2023-02-01T15:50:42Z</time>
      </trkpt>
      <trkpt lat="49.78509" lon="2.29071">
        <ele>119.1</ele>
        <time>2023-02-01T15:50:43Z</time>
      </trkpt>
      <trkpt lat="49.78509" lon="2.29071">
        <ele>119.1</ele>
        <time>2023-02-01T15:50:44Z</time>
      </trkpt>
      <trkpt lat="49.78509" lon="2.29071">
        <ele>119.1</ele>
        <time>2023-02-01T15:50:45Z</time>
      </trkpt>
      <trkpt lat="49.78509" lon="2.29071">
        <ele>119.1</ele>
        <time>2023-02-01T15:50:46Z</time>
      </trkpt>
      <trkpt lat="49.78509" lon="2.29071">
        <ele>119.1</ele>
        <time>2023-02-01T15:50:47Z</time>
      </trkpt>
      <trkpt lat="49.78509" lon="2.29071">
        <ele>119.1</ele>
        <time>2023-02-01T15:50:48Z</time>
      </trkpt>
      <trkpt lat="49.78509" lon="2.29071">
        <ele>119.1</ele>
        <time>2023-02-01T15:50:49Z</time>
      </trkpt>
      <trkpt lat="49.78509" lon="2.29071">
        <ele>119.1</ele>
        <time>2023-02-01T15:50:50Z</time>
      </trkpt>
      <trkpt lat="49.78509" lon="2.29071">
        <ele>119.1</ele>
        <time>2023-02-01T15:50:51Z</time>
      </trkpt>
      <trkpt lat="49.78509" lon="2.29071">
        <ele>119.1</ele>
        <time>2023-02-01T15:50:52Z</time>
      </trkpt>
      <trkpt lat="49.78509" lon="2.29071">
        <ele>119.1</ele>
        <time>2023-02-01T15:50:53Z</time>
      </trkpt>
      <trkpt lat="49.78509" lon="2.29071">
        <ele>119.1</ele>
        <time>2023-02-01T15:50:54Z</time>
      </trkpt>
      <trkpt lat="49.78509" lon="2.29071">
        <ele>119.1</ele>
        <time>2023-02-01T15:50:55Z</time>
      </trkpt>
      <trkpt lat="49.78509" lon="2.29071">
        <ele>119.1</ele>
        <time>2023-02-01T15:50:56Z</time>
      </trkpt>
      <trkpt lat="49.78509" lon="2.29071">
        <ele>119.1</ele>
        <time>2023-02-01T15:50:57Z</time>
      </trkpt>
      <trkpt lat="49.78509" lon="2.29071">
        <ele>119.1</ele>
        <time>2023-02-01T15:50:58Z</time>
      </trkpt>
      <trkpt lat="49.78509" lon="2.29071">
        <ele>119.1</ele>
        <time>2023-02-01T15:50:59Z</time>
      </trkpt>
      <trkpt lat="49.78509" lon="2.29071">
        <ele>119.1</ele>
        <time>2023-02-01T15:51:00Z</time>
      </trkpt>
      <trkpt lat="49.78509" lon="2.29071">
        <ele>119.1</ele>
        <time>2023-02-01T15:51:01Z</time>
      </trkpt>
      <trkpt lat="49.78509" lon="2.29071">
        <ele>119.1</ele>
        <time>2023-02-01T15:51:02Z</time>
      </trkpt>
      <trkpt lat="49.78509" lon="2.29071">
        <ele>119.1</ele>
        <time>2023-02-01T15:51:03Z</time>
      </trkpt>
      <trkpt lat="49.78509" lon="2.29071">
        <ele>119.1</ele>
        <time>2023-02-01T15:51:04Z</time>
      </trkpt>
      <trkpt lat="49.78509" lon="2.29071">
        <ele>119.1</ele>
        <time>2023-02-01T15:51:05Z</time>
      </trkpt>
      <trkpt lat="49.78509" lon="2.29071">
        <ele>119.1</ele>
        <time>2023-02-01T15:51:06Z</time>
      </trkpt>
      <trkpt lat="49.78509" lon="2.29071">
        <ele>119.1</ele>
        <time>2023-02-01T15:51:07Z</time>
      </trkpt>
      <trkpt lat="49.78509" lon="2.29071">
        <ele>119.1</ele>
        <time>2023-02-01T15:51:08Z</time>
      </trkpt>
      <trkpt lat="49.78509" lon="2.29071">
        <ele>119.1</ele>
        <time>2023-02-01T15:51:09Z</time>
      </trkpt>
      <trkpt lat="49.78509" lon="2.29071">
        <ele>119.1</ele>
        <time>2023-02-01T15:51:10Z</time>
      </trkpt>
      <trkpt lat="49.78509" lon="2.29071">
        <ele>119.1</ele>
        <time>2023-02-01T15:51:11Z</time>
      </trkpt>
      <trkpt lat="49.78509" lon="2.29071">
        <ele>119.1</ele>
        <time>2023-02-01T15:51:12Z</time>
      </trkpt>
      <trkpt lat="49.78509" lon="2.29071">
        <ele>119.1</ele>
        <time>2023-02-01T15:51:13Z</time>
      </trkpt>
      <trkpt lat="49.78509" lon="2.29071">
        <ele>119.1</ele>
        <time>2023-02-01T15:51:14Z</time>
      </trkpt>
      <trkpt lat="49.78509" lon="2.29071">
        <ele>119.1</ele>
        <time>2023-02-01T15:51:15Z</time>
      </trkpt>
      <trkpt lat="49.78509" lon="2.29071">
        <ele>119.1</ele>
        <time>2023-02-01T15:51:16Z</time>
      </trkpt>
      <trkpt lat="49.78509" lon="2.29071">
        <ele>119.1</ele>
        <time>2023-02-01T15:51:17Z</time>
      </trkpt>
      <trkpt lat="49.78509" lon="2.29071">
        <ele>119.1</ele>
        <time>2023-02-01T15:51:18Z</time>
      </trkpt>
      <trkpt lat="49.78509" lon="2.29071">
        <ele>119.1</ele>
        <time>2023-02-01T15:51:19Z</time>
      </trkpt>
      <trkpt lat="49.78509" lon="2.29071">
        <ele>119.1</ele>
        <time>2023-02-01T15:51:20Z</time>
      </trkpt>
      <trkpt lat="49.78509" lon="2.29071">
        <ele>119.1</ele>
        <time>2023-02-01T15:51:21Z</time>
      </trkpt>
      <trkpt lat="49.78509" lon="2.29071">
        <ele>119.1</ele>
        <time>2023-02-01T15:51:22Z</time>
      </trkpt>
      <trkpt lat="49.78509" lon="2.29071">
        <ele>119.1</ele>
        <time>2023-02-01T15:51:23Z</time>
      </trkpt>
      <trkpt lat="49.78509" lon="2.29071">
        <ele>119.1</ele>
        <time>2023-02-01T15:51:24Z</time>
      </trkpt>
      <trkpt lat="49.78509" lon="2.29071">
        <ele>119.1</ele>
        <time>2023-02-01T15:51:25Z</time>
      </trkpt>
      <trkpt lat="49.78509" lon="2.29071">
        <ele>119.1</ele>
        <time>2023-02-01T15:51:26Z</time>
      </trkpt>
      <trkpt lat="49.78509" lon="2.29071">
        <ele>119.1</ele>
        <time>2023-02-01T15:51:27Z</time>
      </trkpt>
      <trkpt lat="49.78509" lon="2.29071">
        <ele>119.1</ele>
        <time>2023-02-01T15:51:28Z</time>
      </trkpt>
      <trkpt lat="49.78509" lon="2.29071">
        <ele>119.1</ele>
        <time>2023-02-01T15:51:29Z</time>
      </trkpt>
      <trkpt lat="49.7851" lon="2.2907">
        <ele>119.2</ele>
        <time>2023-02-01T15:51:30Z</time>
      </trkpt>
      <trkpt lat="49.7851" lon="2.2907">
        <ele>119.2</ele>
        <time>2023-02-01T15:51:31Z</time>
      </trkpt>
      <trkpt lat="49.7851" lon="2.2907">
        <ele>119.2</ele>
        <time>2023-02-01T15:51:32Z</time>
      </trkpt>
      <trkpt lat="49.7851" lon="2.2907">
        <ele>119.2</ele>
        <time>2023-02-01T15:51:33Z</time>
      </trkpt>
      <trkpt lat="49.7851" lon="2.2907">
        <ele>119.2</ele>
        <time>2023-02-01T15:51:34Z</time>
      </trkpt>
      <trkpt lat="49.7851" lon="2.2907">
        <ele>119.2</ele>
        <time>2023-02-01T15:51:35Z</time>
      </trkpt>
      <trkpt lat="49.7851" lon="2.2907">
        <ele>119.2</ele>
        <time>2023-02-01T15:51:36Z</time>
      </trkpt>
      <trkpt lat="49.7851" lon="2.2907">
        <ele>119.2</ele>
        <time>2023-02-01T15:51:37Z</time>
      </trkpt>
      <trkpt lat="49.7851" lon="2.2907">
        <ele>119.2</ele>
        <time>2023-02-01T15:51:38Z</time>
      </trkpt>
      <trkpt lat="49.7851" lon="2.2907">
        <ele>119.2</ele>
        <time>2023-02-01T15:51:39Z</time>
      </trkpt>
      <trkpt lat="49.7851" lon="2.2907">
        <ele>119.2</ele>
        <time>2023-02-01T15:51:40Z</time>
      </trkpt>
      <trkpt lat="49.7851" lon="2.2907">
        <ele>119.2</ele>
        <time>2023-02-01T15:51:41Z</time>
      </trkpt>
      <trkpt lat="49.7851" lon="2.2907">
        <ele>119.2</ele>
        <time>2023-02-01T15:51:42Z</time>
      </trkpt>
      <trkpt lat="49.7851" lon="2.2907">
        <ele>119.2</ele>
        <time>2023-02-01T15:51:43Z</time>
      </trkpt>
      <trkpt lat="49.7851" lon="2.2907">
        <ele>119.2</ele>
        <time>2023-02-01T15:51:44Z</time>
      </trkpt>
      <trkpt lat="49.78509" lon="2.2907">
        <ele>119.2</ele>
        <time>2023-02-01T15:51:45Z</time>
      </trkpt>
      <trkpt lat="49.78509" lon="2.29069">
        <ele>119.2</ele>
        <time>2023-02-01T15:51:46Z</time>
      </trkpt>
      <trkpt lat="49.78509" lon="2.29069">
        <ele>119.2</ele>
        <time>2023-02-01T15:51:47Z</time>
      </trkpt>
      <trkpt lat="49.78509" lon="2.29069">
        <ele>119.2</ele>
        <time>2023-02-01T15:51:48Z</time>
      </trkpt>
      <trkpt lat="49.78509" lon="2.29069">
        <ele>119.2</ele>
        <time>2023-02-01T15:51:49Z</time>
      </trkpt>
      <trkpt lat="49.78509" lon="2.29069">
        <ele>119.2</ele>
        <time>2023-02-01T15:51:50Z</time>
      </trkpt>
      <trkpt lat="49.78509" lon="2.29069">
        <ele>119.2</ele>
        <time>2023-02-01T15:51:51Z</time>
      </trkpt>
      <trkpt lat="49.78509" lon="2.29069">
        <ele>119.2</ele>
        <time>2023-02-01T15:51:52Z</time>
      </trkpt>
      <trkpt lat="49.78509" lon="2.29069">
        <ele>119.2</ele>
        <time>2023-02-01T15:51:53Z</time>
      </trkpt>
      <trkpt lat="49.78509" lon="2.29069">
        <ele>119.2</ele>
        <time>2023-02-01T15:51:54Z</time>
      </trkpt>
      <trkpt lat="49.78509" lon="2.29069">
        <ele>119.2</ele>
        <time>2023-02-01T15:51:55Z</time>
      </trkpt>
      <trkpt lat="49.78509" lon="2.29069">
        <ele>119.2</ele>
        <time>2023-02-01T15:51:56Z</time>
      </trkpt>
      <trkpt lat="49.78509" lon="2.29069">
        <ele>119.2</ele>
        <time>2023-02-01T15:51:57Z</time>
      </trkpt>
      <trkpt lat="49.78509" lon="2.29069">
        <ele>119.2</ele>
        <time>2023-02-01T15:51:58Z</time>
      </trkpt>
      <trkpt lat="49.78509" lon="2.29069">
        <ele>119.2</ele>
        <time>2023-02-01T15:51:59Z</time>
      </trkpt>
      <trkpt lat="49.78509" lon="2.29069">
        <ele>119.2</ele>
        <time>2023-02-01T15:52:00Z</time>
      </trkpt>
      <trkpt lat="49.78509" lon="2.29069">
        <ele>119.2</ele>
        <time>2023-02-01T15:52:01Z</time>
      </trkpt>
      <trkpt lat="49.78509" lon="2.29069">
        <ele>119.2</ele>
        <time>2023-02-01T15:52:02Z</time>
      </trkpt>
      <trkpt lat="49.78509" lon="2.29069">
        <ele>119.2</ele>
        <time>2023-02-01T15:52:03Z</time>
      </trkpt>
      <trkpt lat="49.7851" lon="2.29069">
        <ele>119.2</ele>
        <time>2023-02-01T15:52:04Z</time>
      </trkpt>
      <trkpt lat="49.7851" lon="2.29069">
        <ele>119.2</ele>
        <time>2023-02-01T15:52:05Z</time>
      </trkpt>
      <trkpt lat="49.7851" lon="2.29069">
        <ele>119.2</ele>
        <time>2023-02-01T15:52:06Z</time>
      </trkpt>
      <trkpt lat="49.7851" lon="2.29069">
        <ele>119.2</ele>
        <time>2023-02-01T15:52:07Z</time>
      </trkpt>
      <trkpt lat="49.7851" lon="2.29069">
        <ele>119.2</ele>
        <time>2023-02-01T15:52:08Z</time>
      </trkpt>
      <trkpt lat="49.7851" lon="2.29069">
        <ele>119.2</ele>
        <time>2023-02-01T15:52:09Z</time>
      </trkpt>
      <trkpt lat="49.7851" lon="2.29069">
        <ele>119.2</ele>
        <time>2023-02-01T15:52:10Z</time>
      </trkpt>
      <trkpt lat="49.7851" lon="2.29069">
        <ele>119.2</ele>
        <time>2023-02-01T15:52:11Z</time>
      </trkpt>
      <trkpt lat="49.7851" lon="2.29069">
        <ele>119.2</ele>
        <time>2023-02-01T15:52:11Z</time>
      </trkpt>
      <trkpt lat="49.7851" lon="2.29069">
        <ele>119.2</ele>
        <time>2023-02-01T15:52:12Z</time>
      </trkpt>
    </trkseg>
  </trk>
</gpx>